<?xml version='1.0' encoding='UTF-8'?><gpx version="1.1" creator="JPX - https://github.com/jenetics/jpx" xmlns="http://www.topografix.com/GPX/1/1"><trk><trkseg><trkpt lat="44.1375786" lon="12.2494067"><ele>43.0</ele><time>2026-04-18T13:08:23.187Z</time></trkpt><trkpt lat="44.1376413" lon="12.2494226"><ele>43.0</ele><time>2026-04-18T13:08:53.188Z</time></trkpt><trkpt lat="44.137711" lon="12.2493659"><ele>43.0</ele><time>2026-04-18T13:08:55.187Z</time></trkpt><trkpt lat="44.1377826" lon="12.2492484"><ele>43.0</ele><time>2026-04-18T13:08:57.188Z</time></trkpt><trkpt lat="44.1378489" lon="12.2491431"><ele>43.0</ele><time>2026-04-18T13:08:59.187Z</time></trkpt><trkpt lat="44.1379171" lon="12.2490332"><ele>43.0</ele><time>2026-04-18T13:09:01.188Z</time></trkpt><trkpt lat="44.1379877" lon="12.2489205"><ele>43.0</ele><time>2026-04-18T13:09:03.188Z</time></trkpt><trkpt lat="44.1380703" lon="12.2488089"><ele>43.0</ele><time>2026-04-18T13:09:05.188Z</time></trkpt><trkpt lat="44.1381498" lon="12.2487"><ele>43.0</ele><time>2026-04-18T13:09:07.188Z</time></trkpt><trkpt lat="44.1382279" lon="12.248587"><ele>43.0</ele><time>2026-04-18T13:09:09.187Z</time></trkpt><trkpt lat="44.1383033" lon="12.2484744"><ele>42.8</ele><time>2026-04-18T13:09:11.188Z</time></trkpt><trkpt lat="44.138373" lon="12.2483745"><ele>42.599999999999994</ele><time>2026-04-18T13:09:13.188Z</time></trkpt><trkpt lat="44.1384404" lon="12.2482711"><ele>42.400000000000006</ele><time>2026-04-18T13:09:15.188Z</time></trkpt><trkpt lat="44.138515" lon="12.2481669"><ele>42.2</ele><time>2026-04-18T13:09:17.188Z</time></trkpt><trkpt lat="44.1385906" lon="12.2480532"><ele>42.0</ele><time>2026-04-18T13:09:19.188Z</time></trkpt><trkpt lat="44.1386343" lon="12.2479885"><ele>42.285714285714285</ele><time>2026-04-18T13:09:20.188Z</time></trkpt><trkpt lat="44.1386763" lon="12.2479222"><ele>42.57142857142857</ele><time>2026-04-18T13:09:21.188Z</time></trkpt><trkpt lat="44.138718" lon="12.2478524"><ele>42.85714285714286</ele><time>2026-04-18T13:09:22.188Z</time></trkpt><trkpt lat="44.1387636" lon="12.24778"><ele>43.14285714285714</ele><time>2026-04-18T13:09:23.188Z</time></trkpt><trkpt lat="44.1388086" lon="12.2477092"><ele>43.42857142857143</ele><time>2026-04-18T13:09:24.187Z</time></trkpt><trkpt lat="44.1388555" lon="12.2476421"><ele>43.714285714285715</ele><time>2026-04-18T13:09:25.188Z</time></trkpt><trkpt lat="44.1389029" lon="12.2475766"><ele>44.0</ele><time>2026-04-18T13:09:26.187Z</time></trkpt><trkpt lat="44.1389494" lon="12.2475099"><ele>44.0</ele><time>2026-04-18T13:09:27.187Z</time></trkpt><trkpt lat="44.1389972" lon="12.2474422"><ele>44.0</ele><time>2026-04-18T13:09:28.188Z</time></trkpt><trkpt lat="44.1390465" lon="12.2473714"><ele>44.0</ele><time>2026-04-18T13:09:29.188Z</time></trkpt><trkpt lat="44.1390936" lon="12.2473018"><ele>44.0</ele><time>2026-04-18T13:09:30.188Z</time></trkpt><trkpt lat="44.1391763" lon="12.2471698"><ele>44.0</ele><time>2026-04-18T13:09:32.188Z</time></trkpt><trkpt lat="44.1392599" lon="12.2470464"><ele>43.6</ele><time>2026-04-18T13:09:34.188Z</time></trkpt><trkpt lat="44.1393348" lon="12.2469337"><ele>43.2</ele><time>2026-04-18T13:09:36.188Z</time></trkpt><trkpt lat="44.1393882" lon="12.2468467"><ele>42.800000000000004</ele><time>2026-04-18T13:09:38.188Z</time></trkpt><trkpt lat="44.1394328" lon="12.2467799"><ele>42.400000000000006</ele><time>2026-04-18T13:09:40.187Z</time></trkpt><trkpt lat="44.1394892" lon="12.2466986"><ele>42.0</ele><time>2026-04-18T13:09:43.188Z</time></trkpt><trkpt lat="44.1395618" lon="12.2465817"><ele>41.8</ele><time>2026-04-18T13:10:23.188Z</time></trkpt><trkpt lat="44.1396515" lon="12.2464508"><ele>41.6</ele><time>2026-04-18T13:10:25.188Z</time></trkpt><trkpt lat="44.1397022" lon="12.2463827"><ele>41.4</ele><time>2026-04-18T13:10:26.188Z</time></trkpt><trkpt lat="44.1397636" lon="12.2463129"><ele>41.199999999999996</ele><time>2026-04-18T13:10:27.188Z</time></trkpt><trkpt lat="44.1398318" lon="12.2462405"><ele>41.0</ele><time>2026-04-18T13:10:28.188Z</time></trkpt><trkpt lat="44.1399036" lon="12.2461635"><ele>41.0</ele><time>2026-04-18T13:10:29.188Z</time></trkpt><trkpt lat="44.1399767" lon="12.2460908"><ele>41.0</ele><time>2026-04-18T13:10:30.188Z</time></trkpt><trkpt lat="44.1400429" lon="12.2460214"><ele>41.0</ele><time>2026-04-18T13:10:31.188Z</time></trkpt><trkpt lat="44.1401033" lon="12.2459624"><ele>41.0</ele><time>2026-04-18T13:10:32.187Z</time></trkpt><trkpt lat="44.1401561" lon="12.2459076"><ele>41.0</ele><time>2026-04-18T13:10:33.186Z</time></trkpt><trkpt lat="44.1402321" lon="12.2458239"><ele>41.0</ele><time>2026-04-18T13:10:35.187Z</time></trkpt><trkpt lat="44.1402869" lon="12.245769"><ele>41.0</ele><time>2026-04-18T13:11:07.187Z</time></trkpt><trkpt lat="44.1403571" lon="12.2456809"><ele>41.0</ele><time>2026-04-18T13:11:10.187Z</time></trkpt><trkpt lat="44.1404155" lon="12.2456095"><ele>41.0</ele><time>2026-04-18T13:11:12.186Z</time></trkpt><trkpt lat="44.140468" lon="12.2455497"><ele>41.0</ele><time>2026-04-18T13:11:14.187Z</time></trkpt><trkpt lat="44.1405283" lon="12.2454731"><ele>41.0</ele><time>2026-04-18T13:11:17.186Z</time></trkpt><trkpt lat="44.1405881" lon="12.2453954"><ele>41.0</ele><time>2026-04-18T13:11:20.187Z</time></trkpt><trkpt lat="44.1406519" lon="12.2453251"><ele>41.199999999999996</ele><time>2026-04-18T13:11:22.187Z</time></trkpt><trkpt lat="44.1407186" lon="12.2452491"><ele>41.4</ele><time>2026-04-18T13:11:24.187Z</time></trkpt><trkpt lat="44.1407878" lon="12.2451686"><ele>41.6</ele><time>2026-04-18T13:11:26.186Z</time></trkpt><trkpt lat="44.1408556" lon="12.2450944"><ele>41.8</ele><time>2026-04-18T13:11:28.187Z</time></trkpt><trkpt lat="44.1409239" lon="12.245016"><ele>42.0</ele><time>2026-04-18T13:11:30.187Z</time></trkpt><trkpt lat="44.1410019" lon="12.2449166"><ele>42.0</ele><time>2026-04-18T13:11:32.168Z</time></trkpt><trkpt lat="44.1410554" lon="12.2448503"><ele>42.0</ele><time>2026-04-18T13:11:33.167Z</time></trkpt><trkpt lat="44.1411204" lon="12.2447758"><ele>42.0</ele><time>2026-04-18T13:11:34.166Z</time></trkpt><trkpt lat="44.1411914" lon="12.244701"><ele>42.0</ele><time>2026-04-18T13:11:35.168Z</time></trkpt><trkpt lat="44.1412551" lon="12.2446186"><ele>42.0</ele><time>2026-04-18T13:11:36.168Z</time></trkpt><trkpt lat="44.1413174" lon="12.2445247"><ele>42.0</ele><time>2026-04-18T13:11:37.166Z</time></trkpt><trkpt lat="44.1413742" lon="12.2444067"><ele>42.5</ele><time>2026-04-18T13:11:38.166Z</time></trkpt><trkpt lat="44.1414275" lon="12.2442675"><ele>43.0</ele><time>2026-04-18T13:11:39.166Z</time></trkpt><trkpt lat="44.1414802" lon="12.2441129"><ele>43.5</ele><time>2026-04-18T13:11:40.166Z</time></trkpt><trkpt lat="44.1415286" lon="12.243962"><ele>44.0</ele><time>2026-04-18T13:11:41.166Z</time></trkpt><trkpt lat="44.1415756" lon="12.2437978"><ele>43.2</ele><time>2026-04-18T13:11:42.166Z</time></trkpt><trkpt lat="44.1416196" lon="12.2436527"><ele>42.400000000000006</ele><time>2026-04-18T13:11:43.187Z</time></trkpt><trkpt lat="44.1416456" lon="12.2435066"><ele>41.6</ele><time>2026-04-18T13:11:44.187Z</time></trkpt><trkpt lat="44.1416701" lon="12.2433716"><ele>40.8</ele><time>2026-04-18T13:11:45.186Z</time></trkpt><trkpt lat="44.1416889" lon="12.2432516"><ele>40.0</ele><time>2026-04-18T13:11:46.187Z</time></trkpt><trkpt lat="44.1417058" lon="12.2431515"><ele>39.833333333333336</ele><time>2026-04-18T13:11:47.187Z</time></trkpt><trkpt lat="44.1417296" lon="12.2430268"><ele>39.66666666666667</ele><time>2026-04-18T13:11:49.187Z</time></trkpt><trkpt lat="44.1417428" lon="12.2429062"><ele>39.5</ele><time>2026-04-18T13:12:07.187Z</time></trkpt><trkpt lat="44.141772" lon="12.2427672"><ele>39.333333333333336</ele><time>2026-04-18T13:12:09.187Z</time></trkpt><trkpt lat="44.1417767" lon="12.242674"><ele>39.166666666666664</ele><time>2026-04-18T13:12:10.187Z</time></trkpt><trkpt lat="44.1417714" lon="12.2425565"><ele>39.0</ele><time>2026-04-18T13:12:11.187Z</time></trkpt><trkpt lat="44.1417648" lon="12.2424171"><ele>38.0</ele><time>2026-04-18T13:12:12.187Z</time></trkpt><trkpt lat="44.1417544" lon="12.2422713"><ele>37.0</ele><time>2026-04-18T13:12:13.186Z</time></trkpt><trkpt lat="44.1417421" lon="12.2421124"><ele>36.0</ele><time>2026-04-18T13:12:14.187Z</time></trkpt><trkpt lat="44.1417357" lon="12.241946"><ele>35.0</ele><time>2026-04-18T13:12:15.187Z</time></trkpt><trkpt lat="44.1417343" lon="12.2417686"><ele>35.0</ele><time>2026-04-18T13:12:16.187Z</time></trkpt><trkpt lat="44.141735" lon="12.2415895"><ele>35.0</ele><time>2026-04-18T13:12:17.187Z</time></trkpt><trkpt lat="44.1417375" lon="12.241426"><ele>35.0</ele><time>2026-04-18T13:12:18.186Z</time></trkpt><trkpt lat="44.1417385" lon="12.2412947"><ele>35.0</ele><time>2026-04-18T13:12:19.186Z</time></trkpt><trkpt lat="44.141748" lon="12.2411975"><ele>35.0</ele><time>2026-04-18T13:12:20.186Z</time></trkpt><trkpt lat="44.141755" lon="12.2410738"><ele>34.666666666666664</ele><time>2026-04-18T13:12:22.187Z</time></trkpt><trkpt lat="44.1417594" lon="12.2409774"><ele>34.33333333333333</ele><time>2026-04-18T13:12:24.187Z</time></trkpt><trkpt lat="44.1417837" lon="12.2408472"><ele>34.0</ele><time>2026-04-18T13:12:26.187Z</time></trkpt><trkpt lat="44.1418027" lon="12.2407598"><ele>33.666666666666664</ele><time>2026-04-18T13:12:27.186Z</time></trkpt><trkpt lat="44.141822" lon="12.2406727"><ele>33.333333333333336</ele><time>2026-04-18T13:12:30.187Z</time></trkpt><trkpt lat="44.1418624" lon="12.2405328"><ele>33.0</ele><time>2026-04-18T13:12:54.186Z</time></trkpt><trkpt lat="44.1418943" lon="12.2404344"><ele>33.0</ele><time>2026-04-18T13:12:55.187Z</time></trkpt><trkpt lat="44.1419312" lon="12.2403282"><ele>33.0</ele><time>2026-04-18T13:12:56.187Z</time></trkpt><trkpt lat="44.1419686" lon="12.2402173"><ele>33.0</ele><time>2026-04-18T13:12:57.187Z</time></trkpt><trkpt lat="44.1420033" lon="12.2401054"><ele>33.0</ele><time>2026-04-18T13:12:58.186Z</time></trkpt><trkpt lat="44.142038" lon="12.2399952"><ele>33.0</ele><time>2026-04-18T13:12:59.187Z</time></trkpt><trkpt lat="44.1420734" lon="12.2398828"><ele>33.0</ele><time>2026-04-18T13:13:00.187Z</time></trkpt><trkpt lat="44.1421086" lon="12.2397715"><ele>32.833333333333336</ele><time>2026-04-18T13:13:01.187Z</time></trkpt><trkpt lat="44.1421402" lon="12.239665"><ele>32.666666666666664</ele><time>2026-04-18T13:13:02.187Z</time></trkpt><trkpt lat="44.1421707" lon="12.2395564"><ele>32.5</ele><time>2026-04-18T13:13:03.186Z</time></trkpt><trkpt lat="44.1422" lon="12.239442"><ele>32.33333333333333</ele><time>2026-04-18T13:13:04.187Z</time></trkpt><trkpt lat="44.1422214" lon="12.2393286"><ele>32.166666666666664</ele><time>2026-04-18T13:13:05.186Z</time></trkpt><trkpt lat="44.142239" lon="12.2392094"><ele>32.0</ele><time>2026-04-18T13:13:06.187Z</time></trkpt><trkpt lat="44.1422457" lon="12.2390861"><ele>31.999999999999996</ele><time>2026-04-18T13:13:07.187Z</time></trkpt><trkpt lat="44.1422436" lon="12.2389645"><ele>32.0</ele><time>2026-04-18T13:13:08.187Z</time></trkpt><trkpt lat="44.1422394" lon="12.238853"><ele>32.0</ele><time>2026-04-18T13:13:09.187Z</time></trkpt><trkpt lat="44.142227" lon="12.2387421"><ele>32.0</ele><time>2026-04-18T13:13:10.186Z</time></trkpt><trkpt lat="44.1422063" lon="12.2386239"><ele>31.999999999999996</ele><time>2026-04-18T13:13:11.187Z</time></trkpt><trkpt lat="44.1421825" lon="12.2385116"><ele>32.0</ele><time>2026-04-18T13:13:12.186Z</time></trkpt><trkpt lat="44.1421546" lon="12.2384033"><ele>31.999999999999996</ele><time>2026-04-18T13:13:13.187Z</time></trkpt><trkpt lat="44.1421239" lon="12.2382936"><ele>32.0</ele><time>2026-04-18T13:13:14.187Z</time></trkpt><trkpt lat="44.1421088" lon="12.2381787"><ele>32.0</ele><time>2026-04-18T13:13:15.187Z</time></trkpt><trkpt lat="44.1421055" lon="12.2380523"><ele>32.0</ele><time>2026-04-18T13:13:16.187Z</time></trkpt><trkpt lat="44.1421092" lon="12.2379223"><ele>31.999999999999996</ele><time>2026-04-18T13:13:17.187Z</time></trkpt><trkpt lat="44.1421235" lon="12.2377955"><ele>32.0</ele><time>2026-04-18T13:13:18.187Z</time></trkpt><trkpt lat="44.1421436" lon="12.2376779"><ele>32.166666666666664</ele><time>2026-04-18T13:13:19.187Z</time></trkpt><trkpt lat="44.1421663" lon="12.2375768"><ele>32.33333333333333</ele><time>2026-04-18T13:13:20.187Z</time></trkpt><trkpt lat="44.1422065" lon="12.2374213"><ele>32.5</ele><time>2026-04-18T13:13:22.186Z</time></trkpt><trkpt lat="44.1422401" lon="12.2373"><ele>32.666666666666664</ele><time>2026-04-18T13:13:24.186Z</time></trkpt><trkpt lat="44.1422654" lon="12.237211"><ele>32.833333333333336</ele><time>2026-04-18T13:13:26.187Z</time></trkpt><trkpt lat="44.1422922" lon="12.2371232"><ele>33.0</ele><time>2026-04-18T13:13:57.187Z</time></trkpt><trkpt lat="44.1423618" lon="12.236984"><ele>31.5</ele><time>2026-04-18T13:14:12.187Z</time></trkpt><trkpt lat="44.1424098" lon="12.2368938"><ele>30.0</ele><time>2026-04-18T13:14:13.187Z</time></trkpt><trkpt lat="44.1424753" lon="12.2367836"><ele>28.5</ele><time>2026-04-18T13:14:14.186Z</time></trkpt><trkpt lat="44.1425671" lon="12.2366363"><ele>27.0</ele><time>2026-04-18T13:14:15.187Z</time></trkpt><trkpt lat="44.1426793" lon="12.236473"><ele>26.333333333333336</ele><time>2026-04-18T13:14:16.186Z</time></trkpt><trkpt lat="44.1428081" lon="12.2363163"><ele>25.666666666666668</ele><time>2026-04-18T13:14:17.187Z</time></trkpt><trkpt lat="44.1429416" lon="12.2361833"><ele>25.0</ele><time>2026-04-18T13:14:18.186Z</time></trkpt><trkpt lat="44.1430714" lon="12.2360837"><ele>25.0</ele><time>2026-04-18T13:14:19.187Z</time></trkpt><trkpt lat="44.1431959" lon="12.2360007"><ele>25.0</ele><time>2026-04-18T13:14:20.187Z</time></trkpt><trkpt lat="44.1433158" lon="12.2359401"><ele>25.0</ele><time>2026-04-18T13:14:21.187Z</time></trkpt><trkpt lat="44.1434312" lon="12.2358901"><ele>25.0</ele><time>2026-04-18T13:14:22.186Z</time></trkpt><trkpt lat="44.1435274" lon="12.2358582"><ele>25.000000000000004</ele><time>2026-04-18T13:14:23.187Z</time></trkpt><trkpt lat="44.1436111" lon="12.2358394"><ele>25.0</ele><time>2026-04-18T13:14:24.187Z</time></trkpt><trkpt lat="44.1436851" lon="12.2358288"><ele>25.0</ele><time>2026-04-18T13:14:25.187Z</time></trkpt><trkpt lat="44.1437462" lon="12.2358061"><ele>25.0</ele><time>2026-04-18T13:14:26.187Z</time></trkpt><trkpt lat="44.1437924" lon="12.2356765"><ele>25.000000000000004</ele><time>2026-04-18T13:14:28.187Z</time></trkpt><trkpt lat="44.1437692" lon="12.235593"><ele>25.0</ele><time>2026-04-18T13:14:29.186Z</time></trkpt><trkpt lat="44.1437286" lon="12.2354954"><ele>25.0</ele><time>2026-04-18T13:14:30.187Z</time></trkpt><trkpt lat="44.1436809" lon="12.2353465"><ele>25.0</ele><time>2026-04-18T13:14:31.187Z</time></trkpt><trkpt lat="44.1436301" lon="12.2351457"><ele>25.0</ele><time>2026-04-18T13:14:32.187Z</time></trkpt><trkpt lat="44.1435649" lon="12.2349202"><ele>25.0</ele><time>2026-04-18T13:14:33.187Z</time></trkpt><trkpt lat="44.1435003" lon="12.2346548"><ele>25.666666666666668</ele><time>2026-04-18T13:14:34.186Z</time></trkpt><trkpt lat="44.1434469" lon="12.2344128"><ele>26.333333333333336</ele><time>2026-04-18T13:14:35.187Z</time></trkpt><trkpt lat="44.1433966" lon="12.2341797"><ele>27.0</ele><time>2026-04-18T13:14:36.186Z</time></trkpt><trkpt lat="44.1433524" lon="12.2339683"><ele>27.0</ele><time>2026-04-18T13:14:37.187Z</time></trkpt><trkpt lat="44.1433077" lon="12.2337766"><ele>27.0</ele><time>2026-04-18T13:14:38.187Z</time></trkpt><trkpt lat="44.143265" lon="12.2335893"><ele>27.0</ele><time>2026-04-18T13:14:39.187Z</time></trkpt><trkpt lat="44.1432245" lon="12.2334104"><ele>27.0</ele><time>2026-04-18T13:14:40.187Z</time></trkpt><trkpt lat="44.1431842" lon="12.2332429"><ele>27.0</ele><time>2026-04-18T13:14:41.187Z</time></trkpt><trkpt lat="44.1431476" lon="12.2330844"><ele>27.0</ele><time>2026-04-18T13:14:42.186Z</time></trkpt><trkpt lat="44.1431127" lon="12.2329308"><ele>27.0</ele><time>2026-04-18T13:14:43.186Z</time></trkpt><trkpt lat="44.1430798" lon="12.2327832"><ele>27.0</ele><time>2026-04-18T13:14:44.187Z</time></trkpt><trkpt lat="44.14305" lon="12.2326391"><ele>27.0</ele><time>2026-04-18T13:14:45.187Z</time></trkpt><trkpt lat="44.1430223" lon="12.2325023"><ele>27.0</ele><time>2026-04-18T13:14:46.187Z</time></trkpt><trkpt lat="44.1429965" lon="12.2323781"><ele>27.0</ele><time>2026-04-18T13:14:47.187Z</time></trkpt><trkpt lat="44.1429748" lon="12.2322767"><ele>27.0</ele><time>2026-04-18T13:14:48.187Z</time></trkpt><trkpt lat="44.1429583" lon="12.2321841"><ele>27.0</ele><time>2026-04-18T13:14:49.187Z</time></trkpt><trkpt lat="44.1429573" lon="12.2320946"><ele>27.0</ele><time>2026-04-18T13:14:50.187Z</time></trkpt><trkpt lat="44.1429749" lon="12.2319988"><ele>27.25</ele><time>2026-04-18T13:14:51.187Z</time></trkpt><trkpt lat="44.1429958" lon="12.2318891"><ele>27.5</ele><time>2026-04-18T13:14:52.187Z</time></trkpt><trkpt lat="44.143016" lon="12.2317526"><ele>27.75</ele><time>2026-04-18T13:14:53.187Z</time></trkpt><trkpt lat="44.1430413" lon="12.2315709"><ele>28.0</ele><time>2026-04-18T13:14:54.187Z</time></trkpt><trkpt lat="44.1430743" lon="12.2313454"><ele>28.0</ele><time>2026-04-18T13:14:55.187Z</time></trkpt><trkpt lat="44.1431217" lon="12.2310976"><ele>28.0</ele><time>2026-04-18T13:14:56.187Z</time></trkpt><trkpt lat="44.1431827" lon="12.230814"><ele>28.0</ele><time>2026-04-18T13:14:57.187Z</time></trkpt><trkpt lat="44.1432388" lon="12.2305332"><ele>28.0</ele><time>2026-04-18T13:14:58.187Z</time></trkpt><trkpt lat="44.1432866" lon="12.2302765"><ele>28.0</ele><time>2026-04-18T13:14:59.187Z</time></trkpt><trkpt lat="44.1433321" lon="12.2300321"><ele>28.0</ele><time>2026-04-18T13:15:00.187Z</time></trkpt><trkpt lat="44.1433752" lon="12.2298055"><ele>28.0</ele><time>2026-04-18T13:15:01.187Z</time></trkpt><trkpt lat="44.1434161" lon="12.2295944"><ele>28.0</ele><time>2026-04-18T13:15:02.187Z</time></trkpt><trkpt lat="44.1434517" lon="12.2293956"><ele>28.0</ele><time>2026-04-18T13:15:03.187Z</time></trkpt><trkpt lat="44.143481" lon="12.229209"><ele>28.0</ele><time>2026-04-18T13:15:04.187Z</time></trkpt><trkpt lat="44.1435033" lon="12.2290238"><ele>28.25</ele><time>2026-04-18T13:15:05.187Z</time></trkpt><trkpt lat="44.143513" lon="12.2288527"><ele>28.5</ele><time>2026-04-18T13:15:06.186Z</time></trkpt><trkpt lat="44.1435113" lon="12.2286834"><ele>28.75</ele><time>2026-04-18T13:15:07.187Z</time></trkpt><trkpt lat="44.1434993" lon="12.2285147"><ele>29.0</ele><time>2026-04-18T13:15:08.187Z</time></trkpt><trkpt lat="44.1434792" lon="12.2283475"><ele>29.0</ele><time>2026-04-18T13:15:09.187Z</time></trkpt><trkpt lat="44.14345" lon="12.2281815"><ele>29.0</ele><time>2026-04-18T13:15:10.187Z</time></trkpt><trkpt lat="44.1434149" lon="12.2280186"><ele>29.0</ele><time>2026-04-18T13:15:11.187Z</time></trkpt><trkpt lat="44.1433797" lon="12.2278719"><ele>29.0</ele><time>2026-04-18T13:15:12.186Z</time></trkpt><trkpt lat="44.1433455" lon="12.2277381"><ele>28.833333333333332</ele><time>2026-04-18T13:15:13.187Z</time></trkpt><trkpt lat="44.1433148" lon="12.2276169"><ele>28.666666666666664</ele><time>2026-04-18T13:15:14.186Z</time></trkpt><trkpt lat="44.1432977" lon="12.2275044"><ele>28.5</ele><time>2026-04-18T13:15:15.187Z</time></trkpt><trkpt lat="44.143301" lon="12.2273999"><ele>28.333333333333336</ele><time>2026-04-18T13:15:16.187Z</time></trkpt><trkpt lat="44.1433074" lon="12.2273097"><ele>28.166666666666668</ele><time>2026-04-18T13:15:17.187Z</time></trkpt><trkpt lat="44.1432923" lon="12.2272147"><ele>28.0</ele><time>2026-04-18T13:15:18.187Z</time></trkpt><trkpt lat="44.1432543" lon="12.2271191"><ele>29.4</ele><time>2026-04-18T13:15:19.187Z</time></trkpt><trkpt lat="44.1432044" lon="12.2270382"><ele>30.799999999999997</ele><time>2026-04-18T13:15:20.186Z</time></trkpt><trkpt lat="44.1431643" lon="12.2269339"><ele>32.2</ele><time>2026-04-18T13:15:21.187Z</time></trkpt><trkpt lat="44.143133" lon="12.226796"><ele>33.6</ele><time>2026-04-18T13:15:22.187Z</time></trkpt><trkpt lat="44.1431147" lon="12.2266388"><ele>35.0</ele><time>2026-04-18T13:15:23.187Z</time></trkpt><trkpt lat="44.1431169" lon="12.2264765"><ele>35.25</ele><time>2026-04-18T13:15:24.187Z</time></trkpt><trkpt lat="44.1431336" lon="12.226311"><ele>35.5</ele><time>2026-04-18T13:15:25.187Z</time></trkpt><trkpt lat="44.1431591" lon="12.226145"><ele>35.75</ele><time>2026-04-18T13:15:26.187Z</time></trkpt><trkpt lat="44.1431859" lon="12.2259846"><ele>36.0</ele><time>2026-04-18T13:15:27.187Z</time></trkpt><trkpt lat="44.1432104" lon="12.2258251"><ele>35.6</ele><time>2026-04-18T13:15:28.187Z</time></trkpt><trkpt lat="44.1432342" lon="12.2256688"><ele>35.2</ele><time>2026-04-18T13:15:29.187Z</time></trkpt><trkpt lat="44.1432581" lon="12.225516"><ele>34.8</ele><time>2026-04-18T13:15:30.187Z</time></trkpt><trkpt lat="44.1432786" lon="12.2253721"><ele>34.4</ele><time>2026-04-18T13:15:31.187Z</time></trkpt><trkpt lat="44.1432964" lon="12.2252398"><ele>34.0</ele><time>2026-04-18T13:15:32.187Z</time></trkpt><trkpt lat="44.1433116" lon="12.2251216"><ele>34.0</ele><time>2026-04-18T13:15:33.187Z</time></trkpt><trkpt lat="44.14332" lon="12.2250037"><ele>34.0</ele><time>2026-04-18T13:15:34.187Z</time></trkpt><trkpt lat="44.1433133" lon="12.2248807"><ele>34.0</ele><time>2026-04-18T13:15:35.187Z</time></trkpt><trkpt lat="44.1432932" lon="12.2247758"><ele>34.0</ele><time>2026-04-18T13:15:36.187Z</time></trkpt><trkpt lat="44.143269" lon="12.2246946"><ele>34.0</ele><time>2026-04-18T13:15:37.187Z</time></trkpt><trkpt lat="44.1432255" lon="12.2245466"><ele>34.0</ele><time>2026-04-18T13:15:39.187Z</time></trkpt><trkpt lat="44.143261" lon="12.2243864"><ele>34.0</ele><time>2026-04-18T13:15:41.187Z</time></trkpt><trkpt lat="44.1433117" lon="12.2242989"><ele>34.0</ele><time>2026-04-18T13:15:42.187Z</time></trkpt><trkpt lat="44.1433741" lon="12.2241985"><ele>34.0</ele><time>2026-04-18T13:15:43.187Z</time></trkpt><trkpt lat="44.1434382" lon="12.224084"><ele>34.0</ele><time>2026-04-18T13:15:44.187Z</time></trkpt><trkpt lat="44.1435021" lon="12.2239593"><ele>34.0</ele><time>2026-04-18T13:15:45.187Z</time></trkpt><trkpt lat="44.1435719" lon="12.2238296"><ele>34.0</ele><time>2026-04-18T13:15:46.187Z</time></trkpt><trkpt lat="44.14364" lon="12.2237001"><ele>34.0</ele><time>2026-04-18T13:15:47.186Z</time></trkpt><trkpt lat="44.1437108" lon="12.2235654"><ele>34.0</ele><time>2026-04-18T13:15:48.187Z</time></trkpt><trkpt lat="44.1437783" lon="12.2234369"><ele>34.0</ele><time>2026-04-18T13:15:49.187Z</time></trkpt><trkpt lat="44.1438465" lon="12.2233103"><ele>34.0</ele><time>2026-04-18T13:15:50.187Z</time></trkpt><trkpt lat="44.1439135" lon="12.2231887"><ele>34.0</ele><time>2026-04-18T13:15:51.187Z</time></trkpt><trkpt lat="44.1439813" lon="12.2230767"><ele>34.0</ele><time>2026-04-18T13:15:52.187Z</time></trkpt><trkpt lat="44.1440509" lon="12.2229667"><ele>34.0</ele><time>2026-04-18T13:15:53.186Z</time></trkpt><trkpt lat="44.1441173" lon="12.2228603"><ele>34.0</ele><time>2026-04-18T13:15:54.187Z</time></trkpt><trkpt lat="44.1441799" lon="12.2227474"><ele>34.2</ele><time>2026-04-18T13:15:55.187Z</time></trkpt><trkpt lat="44.1442417" lon="12.2226297"><ele>34.4</ele><time>2026-04-18T13:15:56.187Z</time></trkpt><trkpt lat="44.1443052" lon="12.2225066"><ele>34.6</ele><time>2026-04-18T13:15:57.187Z</time></trkpt><trkpt lat="44.1443707" lon="12.2223882"><ele>34.8</ele><time>2026-04-18T13:15:58.186Z</time></trkpt><trkpt lat="44.1444391" lon="12.2222708"><ele>35.0</ele><time>2026-04-18T13:15:59.186Z</time></trkpt><trkpt lat="44.1445072" lon="12.2221495"><ele>35.0</ele><time>2026-04-18T13:16:00.187Z</time></trkpt><trkpt lat="44.1445769" lon="12.2220199"><ele>35.0</ele><time>2026-04-18T13:16:01.187Z</time></trkpt><trkpt lat="44.1446458" lon="12.2218817"><ele>35.0</ele><time>2026-04-18T13:16:02.187Z</time></trkpt><trkpt lat="44.1447125" lon="12.2217384"><ele>35.0</ele><time>2026-04-18T13:16:03.187Z</time></trkpt><trkpt lat="44.1447772" lon="12.2215953"><ele>35.25</ele><time>2026-04-18T13:16:04.187Z</time></trkpt><trkpt lat="44.1448341" lon="12.2214524"><ele>35.5</ele><time>2026-04-18T13:16:05.186Z</time></trkpt><trkpt lat="44.1448871" lon="12.2213033"><ele>35.75</ele><time>2026-04-18T13:16:06.186Z</time></trkpt><trkpt lat="44.1449324" lon="12.2211479"><ele>36.0</ele><time>2026-04-18T13:16:07.187Z</time></trkpt><trkpt lat="44.1449712" lon="12.2209873"><ele>36.0</ele><time>2026-04-18T13:16:08.187Z</time></trkpt><trkpt lat="44.1450037" lon="12.2208257"><ele>36.0</ele><time>2026-04-18T13:16:09.187Z</time></trkpt><trkpt lat="44.1450328" lon="12.2206603"><ele>36.0</ele><time>2026-04-18T13:16:10.187Z</time></trkpt><trkpt lat="44.1450604" lon="12.2204907"><ele>36.0</ele><time>2026-04-18T13:16:11.187Z</time></trkpt><trkpt lat="44.1450875" lon="12.220319"><ele>36.0</ele><time>2026-04-18T13:16:12.187Z</time></trkpt><trkpt lat="44.1451136" lon="12.2201551"><ele>36.0</ele><time>2026-04-18T13:16:13.187Z</time></trkpt><trkpt lat="44.1451373" lon="12.2200009"><ele>36.0</ele><time>2026-04-18T13:16:14.187Z</time></trkpt><trkpt lat="44.1451596" lon="12.2198605"><ele>36.0</ele><time>2026-04-18T13:16:15.187Z</time></trkpt><trkpt lat="44.1451799" lon="12.2197415"><ele>36.0</ele><time>2026-04-18T13:16:16.187Z</time></trkpt><trkpt lat="44.1451933" lon="12.2196512"><ele>36.0</ele><time>2026-04-18T13:16:17.187Z</time></trkpt><trkpt lat="44.1452221" lon="12.2195141"><ele>36.0</ele><time>2026-04-18T13:16:19.187Z</time></trkpt><trkpt lat="44.1452873" lon="12.2193927"><ele>36.0</ele><time>2026-04-18T13:16:21.187Z</time></trkpt><trkpt lat="44.1453765" lon="12.2192673"><ele>36.0</ele><time>2026-04-18T13:16:23.187Z</time></trkpt><trkpt lat="44.1454049" lon="12.2191772"><ele>36.0</ele><time>2026-04-18T13:16:24.187Z</time></trkpt><trkpt lat="44.1454105" lon="12.2190772"><ele>35.833333333333336</ele><time>2026-04-18T13:16:25.187Z</time></trkpt><trkpt lat="44.1453934" lon="12.2189831"><ele>35.666666666666664</ele><time>2026-04-18T13:16:26.187Z</time></trkpt><trkpt lat="44.1453499" lon="12.2188992"><ele>35.5</ele><time>2026-04-18T13:16:27.187Z</time></trkpt><trkpt lat="44.145282" lon="12.2188464"><ele>35.33333333333333</ele><time>2026-04-18T13:16:28.187Z</time></trkpt><trkpt lat="44.1451927" lon="12.2188379"><ele>35.166666666666664</ele><time>2026-04-18T13:16:29.187Z</time></trkpt><trkpt lat="44.1451088" lon="12.2188702"><ele>35.0</ele><time>2026-04-18T13:16:30.187Z</time></trkpt><trkpt lat="44.1450315" lon="12.2189225"><ele>35.0</ele><time>2026-04-18T13:16:31.187Z</time></trkpt><trkpt lat="44.1449533" lon="12.2189832"><ele>35.0</ele><time>2026-04-18T13:16:32.186Z</time></trkpt><trkpt lat="44.1448678" lon="12.2190279"><ele>35.0</ele><time>2026-04-18T13:16:33.187Z</time></trkpt><trkpt lat="44.1447722" lon="12.219048"><ele>35.0</ele><time>2026-04-18T13:16:34.187Z</time></trkpt><trkpt lat="44.1446656" lon="12.2190483"><ele>35.0</ele><time>2026-04-18T13:16:35.187Z</time></trkpt><trkpt lat="44.144548" lon="12.2190342"><ele>35.0</ele><time>2026-04-18T13:16:36.186Z</time></trkpt><trkpt lat="44.1444375" lon="12.219015"><ele>35.0</ele><time>2026-04-18T13:16:37.186Z</time></trkpt><trkpt lat="44.1443179" lon="12.2189888"><ele>35.0</ele><time>2026-04-18T13:16:38.187Z</time></trkpt><trkpt lat="44.1441907" lon="12.218963"><ele>35.0</ele><time>2026-04-18T13:16:39.187Z</time></trkpt><trkpt lat="44.1440555" lon="12.2189389"><ele>35.5</ele><time>2026-04-18T13:16:40.187Z</time></trkpt><trkpt lat="44.1439137" lon="12.2189161"><ele>36.0</ele><time>2026-04-18T13:16:41.187Z</time></trkpt><trkpt lat="44.1437669" lon="12.2188928"><ele>36.5</ele><time>2026-04-18T13:16:42.187Z</time></trkpt><trkpt lat="44.1436162" lon="12.2188691"><ele>37.0</ele><time>2026-04-18T13:16:43.187Z</time></trkpt><trkpt lat="44.1434732" lon="12.218845"><ele>37.0</ele><time>2026-04-18T13:16:44.187Z</time></trkpt><trkpt lat="44.1433269" lon="12.2188176"><ele>37.0</ele><time>2026-04-18T13:16:45.187Z</time></trkpt><trkpt lat="44.1431819" lon="12.2187915"><ele>37.0</ele><time>2026-04-18T13:16:46.186Z</time></trkpt><trkpt lat="44.1430343" lon="12.2187634"><ele>37.0</ele><time>2026-04-18T13:16:47.187Z</time></trkpt><trkpt lat="44.1428859" lon="12.2187337"><ele>36.333333333333336</ele><time>2026-04-18T13:16:48.186Z</time></trkpt><trkpt lat="44.1427369" lon="12.2187035"><ele>35.666666666666664</ele><time>2026-04-18T13:16:49.187Z</time></trkpt><trkpt lat="44.1425858" lon="12.2186738"><ele>35.0</ele><time>2026-04-18T13:16:50.186Z</time></trkpt><trkpt lat="44.1424352" lon="12.2186373"><ele>34.666666666666664</ele><time>2026-04-18T13:16:51.187Z</time></trkpt><trkpt lat="44.1422838" lon="12.2185945"><ele>34.333333333333336</ele><time>2026-04-18T13:16:52.186Z</time></trkpt><trkpt lat="44.1421312" lon="12.2185477"><ele>34.0</ele><time>2026-04-18T13:16:53.186Z</time></trkpt><trkpt lat="44.1419753" lon="12.218497"><ele>34.0</ele><time>2026-04-18T13:16:54.187Z</time></trkpt><trkpt lat="44.1418183" lon="12.2184418"><ele>34.0</ele><time>2026-04-18T13:16:55.187Z</time></trkpt><trkpt lat="44.1416594" lon="12.2183837"><ele>34.0</ele><time>2026-04-18T13:16:56.187Z</time></trkpt><trkpt lat="44.1414991" lon="12.218323"><ele>35.0</ele><time>2026-04-18T13:16:57.187Z</time></trkpt><trkpt lat="44.1413401" lon="12.2182635"><ele>36.0</ele><time>2026-04-18T13:16:58.187Z</time></trkpt><trkpt lat="44.1411827" lon="12.2182039"><ele>37.0</ele><time>2026-04-18T13:16:59.187Z</time></trkpt><trkpt lat="44.1410258" lon="12.2181438"><ele>37.0</ele><time>2026-04-18T13:17:00.187Z</time></trkpt><trkpt lat="44.1408695" lon="12.2180836"><ele>37.0</ele><time>2026-04-18T13:17:01.187Z</time></trkpt><trkpt lat="44.1407136" lon="12.2180224"><ele>37.0</ele><time>2026-04-18T13:17:02.186Z</time></trkpt><trkpt lat="44.1405576" lon="12.2179599"><ele>36.66666666666667</ele><time>2026-04-18T13:17:03.187Z</time></trkpt><trkpt lat="44.1404001" lon="12.2178975"><ele>36.333333333333336</ele><time>2026-04-18T13:17:04.187Z</time></trkpt><trkpt lat="44.1402407" lon="12.2178358"><ele>36.0</ele><time>2026-04-18T13:17:05.187Z</time></trkpt><trkpt lat="44.1400794" lon="12.2177748"><ele>36.0</ele><time>2026-04-18T13:17:06.186Z</time></trkpt><trkpt lat="44.1399189" lon="12.2177139"><ele>36.0</ele><time>2026-04-18T13:17:07.187Z</time></trkpt><trkpt lat="44.1397582" lon="12.2176544"><ele>36.0</ele><time>2026-04-18T13:17:08.187Z</time></trkpt><trkpt lat="44.1395969" lon="12.2175967"><ele>36.0</ele><time>2026-04-18T13:17:09.187Z</time></trkpt><trkpt lat="44.1394367" lon="12.2175352"><ele>36.0</ele><time>2026-04-18T13:17:10.187Z</time></trkpt><trkpt lat="44.1392764" lon="12.2174716"><ele>36.0</ele><time>2026-04-18T13:17:11.187Z</time></trkpt><trkpt lat="44.1391125" lon="12.2174081"><ele>36.333333333333336</ele><time>2026-04-18T13:17:12.187Z</time></trkpt><trkpt lat="44.1389436" lon="12.2173468"><ele>36.66666666666667</ele><time>2026-04-18T13:17:13.187Z</time></trkpt><trkpt lat="44.1387722" lon="12.2172854"><ele>37.0</ele><time>2026-04-18T13:17:14.186Z</time></trkpt><trkpt lat="44.1386059" lon="12.2172227"><ele>36.333333333333336</ele><time>2026-04-18T13:17:15.187Z</time></trkpt><trkpt lat="44.1384427" lon="12.2171608"><ele>35.666666666666664</ele><time>2026-04-18T13:17:16.187Z</time></trkpt><trkpt lat="44.1382805" lon="12.2170987"><ele>35.0</ele><time>2026-04-18T13:17:17.187Z</time></trkpt><trkpt lat="44.1381172" lon="12.2170355"><ele>35.0</ele><time>2026-04-18T13:17:18.187Z</time></trkpt><trkpt lat="44.137954" lon="12.2169721"><ele>35.0</ele><time>2026-04-18T13:17:19.187Z</time></trkpt><trkpt lat="44.1377914" lon="12.2169089"><ele>35.0</ele><time>2026-04-18T13:17:20.187Z</time></trkpt><trkpt lat="44.1376307" lon="12.2168472"><ele>35.0</ele><time>2026-04-18T13:17:21.187Z</time></trkpt><trkpt lat="44.137471" lon="12.2167856"><ele>35.0</ele><time>2026-04-18T13:17:22.187Z</time></trkpt><trkpt lat="44.137314" lon="12.2167271"><ele>35.0</ele><time>2026-04-18T13:17:23.186Z</time></trkpt><trkpt lat="44.1371561" lon="12.2166662"><ele>35.33333333333333</ele><time>2026-04-18T13:17:24.187Z</time></trkpt><trkpt lat="44.1369997" lon="12.2166072"><ele>35.666666666666664</ele><time>2026-04-18T13:17:25.187Z</time></trkpt><trkpt lat="44.1368418" lon="12.2165478"><ele>36.0</ele><time>2026-04-18T13:17:26.186Z</time></trkpt><trkpt lat="44.1366855" lon="12.2164899"><ele>36.333333333333336</ele><time>2026-04-18T13:17:27.186Z</time></trkpt><trkpt lat="44.1365246" lon="12.2164322"><ele>36.66666666666667</ele><time>2026-04-18T13:17:28.187Z</time></trkpt><trkpt lat="44.136368" lon="12.216374"><ele>37.0</ele><time>2026-04-18T13:17:29.187Z</time></trkpt><trkpt lat="44.136212" lon="12.2163134"><ele>37.0</ele><time>2026-04-18T13:17:30.187Z</time></trkpt><trkpt lat="44.136055" lon="12.2162506"><ele>37.0</ele><time>2026-04-18T13:17:31.187Z</time></trkpt><trkpt lat="44.1358992" lon="12.2161913"><ele>37.0</ele><time>2026-04-18T13:17:32.187Z</time></trkpt><trkpt lat="44.135741" lon="12.2161312"><ele>37.333333333333336</ele><time>2026-04-18T13:17:33.187Z</time></trkpt><trkpt lat="44.1355815" lon="12.2160695"><ele>37.666666666666664</ele><time>2026-04-18T13:17:34.187Z</time></trkpt><trkpt lat="44.135434" lon="12.2160106"><ele>38.0</ele><time>2026-04-18T13:17:35.186Z</time></trkpt><trkpt lat="44.135293" lon="12.2159544"><ele>38.0</ele><time>2026-04-18T13:17:36.187Z</time></trkpt><trkpt lat="44.1351519" lon="12.2158984"><ele>38.0</ele><time>2026-04-18T13:17:37.187Z</time></trkpt><trkpt lat="44.1350176" lon="12.2158469"><ele>38.0</ele><time>2026-04-18T13:17:38.187Z</time></trkpt><trkpt lat="44.1348963" lon="12.2158021"><ele>38.0</ele><time>2026-04-18T13:17:39.187Z</time></trkpt><trkpt lat="44.1347816" lon="12.2157583"><ele>38.199999999999996</ele><time>2026-04-18T13:17:40.187Z</time></trkpt><trkpt lat="44.1346755" lon="12.2157164"><ele>38.4</ele><time>2026-04-18T13:17:41.187Z</time></trkpt><trkpt lat="44.1345776" lon="12.2156731"><ele>38.599999999999994</ele><time>2026-04-18T13:17:42.187Z</time></trkpt><trkpt lat="44.1344914" lon="12.215617"><ele>38.8</ele><time>2026-04-18T13:17:43.187Z</time></trkpt><trkpt lat="44.1344136" lon="12.2155379"><ele>39.0</ele><time>2026-04-18T13:17:44.186Z</time></trkpt><trkpt lat="44.1343528" lon="12.2154393"><ele>39.25</ele><time>2026-04-18T13:17:45.187Z</time></trkpt><trkpt lat="44.1343134" lon="12.2153181"><ele>39.5</ele><time>2026-04-18T13:17:46.187Z</time></trkpt><trkpt lat="44.1342945" lon="12.2151671"><ele>39.75</ele><time>2026-04-18T13:17:47.187Z</time></trkpt><trkpt lat="44.1342964" lon="12.2149906"><ele>40.0</ele><time>2026-04-18T13:17:48.187Z</time></trkpt><trkpt lat="44.1343166" lon="12.214784"><ele>39.333333333333336</ele><time>2026-04-18T13:17:49.187Z</time></trkpt><trkpt lat="44.1343476" lon="12.2145638"><ele>38.666666666666664</ele><time>2026-04-18T13:17:50.186Z</time></trkpt><trkpt lat="44.1343803" lon="12.2143275"><ele>38.0</ele><time>2026-04-18T13:17:51.187Z</time></trkpt><trkpt lat="44.1344109" lon="12.214098"><ele>37.666666666666664</ele><time>2026-04-18T13:17:52.187Z</time></trkpt><trkpt lat="44.1344354" lon="12.2138644"><ele>37.333333333333336</ele><time>2026-04-18T13:17:53.187Z</time></trkpt><trkpt lat="44.1344516" lon="12.21362"><ele>37.0</ele><time>2026-04-18T13:17:54.187Z</time></trkpt><trkpt lat="44.1344647" lon="12.2133493"><ele>37.66666666666667</ele><time>2026-04-18T13:17:55.187Z</time></trkpt><trkpt lat="44.1344711" lon="12.213057"><ele>38.333333333333336</ele><time>2026-04-18T13:17:56.187Z</time></trkpt><trkpt lat="44.1344671" lon="12.212752"><ele>39.0</ele><time>2026-04-18T13:17:57.187Z</time></trkpt><trkpt lat="44.1344606" lon="12.2124497"><ele>39.666666666666664</ele><time>2026-04-18T13:17:58.187Z</time></trkpt><trkpt lat="44.1344535" lon="12.2121568"><ele>40.33333333333333</ele><time>2026-04-18T13:17:59.187Z</time></trkpt><trkpt lat="44.1344451" lon="12.2118728"><ele>41.0</ele><time>2026-04-18T13:18:00.186Z</time></trkpt><trkpt lat="44.1344366" lon="12.2115999"><ele>41.0</ele><time>2026-04-18T13:18:01.186Z</time></trkpt><trkpt lat="44.1344297" lon="12.2113456"><ele>41.0</ele><time>2026-04-18T13:18:02.186Z</time></trkpt><trkpt lat="44.1344224" lon="12.2111012"><ele>41.0</ele><time>2026-04-18T13:18:03.187Z</time></trkpt><trkpt lat="44.134419" lon="12.2108594"><ele>41.0</ele><time>2026-04-18T13:18:04.187Z</time></trkpt><trkpt lat="44.1344177" lon="12.2106152"><ele>41.0</ele><time>2026-04-18T13:18:05.187Z</time></trkpt><trkpt lat="44.13442" lon="12.2103687"><ele>41.0</ele><time>2026-04-18T13:18:06.187Z</time></trkpt><trkpt lat="44.1344209" lon="12.2101185"><ele>41.0</ele><time>2026-04-18T13:18:07.187Z</time></trkpt><trkpt lat="44.134407" lon="12.209859"><ele>41.0</ele><time>2026-04-18T13:18:08.187Z</time></trkpt><trkpt lat="44.1343847" lon="12.2095963"><ele>41.0</ele><time>2026-04-18T13:18:09.187Z</time></trkpt><trkpt lat="44.1343601" lon="12.2093381"><ele>41.0</ele><time>2026-04-18T13:18:10.187Z</time></trkpt><trkpt lat="44.1343371" lon="12.2090873"><ele>41.0</ele><time>2026-04-18T13:18:11.187Z</time></trkpt><trkpt lat="44.1343135" lon="12.2088391"><ele>41.0</ele><time>2026-04-18T13:18:12.187Z</time></trkpt><trkpt lat="44.1342921" lon="12.208591"><ele>41.0</ele><time>2026-04-18T13:18:13.187Z</time></trkpt><trkpt lat="44.1342708" lon="12.2083451"><ele>41.0</ele><time>2026-04-18T13:18:14.187Z</time></trkpt><trkpt lat="44.1342473" lon="12.2080994"><ele>41.0</ele><time>2026-04-18T13:18:15.187Z</time></trkpt><trkpt lat="44.1342265" lon="12.2078484"><ele>41.33333333333333</ele><time>2026-04-18T13:18:16.187Z</time></trkpt><trkpt lat="44.1342042" lon="12.2075986"><ele>41.666666666666664</ele><time>2026-04-18T13:18:17.187Z</time></trkpt><trkpt lat="44.1341775" lon="12.207347"><ele>42.0</ele><time>2026-04-18T13:18:18.187Z</time></trkpt><trkpt lat="44.1341501" lon="12.2070922"><ele>42.0</ele><time>2026-04-18T13:18:19.186Z</time></trkpt><trkpt lat="44.1341262" lon="12.2068388"><ele>42.0</ele><time>2026-04-18T13:18:20.186Z</time></trkpt><trkpt lat="44.134106" lon="12.2065849"><ele>42.0</ele><time>2026-04-18T13:18:21.187Z</time></trkpt><trkpt lat="44.1340846" lon="12.2063341"><ele>42.0</ele><time>2026-04-18T13:18:22.187Z</time></trkpt><trkpt lat="44.1340621" lon="12.206081"><ele>42.0</ele><time>2026-04-18T13:18:23.186Z</time></trkpt><trkpt lat="44.1340392" lon="12.2058286"><ele>42.0</ele><time>2026-04-18T13:18:24.187Z</time></trkpt><trkpt lat="44.1340171" lon="12.2055746"><ele>42.666666666666664</ele><time>2026-04-18T13:18:25.187Z</time></trkpt><trkpt lat="44.1339983" lon="12.2053228"><ele>43.33333333333333</ele><time>2026-04-18T13:18:26.187Z</time></trkpt><trkpt lat="44.1339806" lon="12.2050698"><ele>44.0</ele><time>2026-04-18T13:18:27.187Z</time></trkpt><trkpt lat="44.1339685" lon="12.2048154"><ele>44.0</ele><time>2026-04-18T13:18:28.187Z</time></trkpt><trkpt lat="44.1339595" lon="12.204559"><ele>44.0</ele><time>2026-04-18T13:18:29.187Z</time></trkpt><trkpt lat="44.133952" lon="12.2043044"><ele>44.0</ele><time>2026-04-18T13:18:30.187Z</time></trkpt><trkpt lat="44.1339452" lon="12.2040468"><ele>43.666666666666664</ele><time>2026-04-18T13:18:31.187Z</time></trkpt><trkpt lat="44.1339393" lon="12.2037936"><ele>43.333333333333336</ele><time>2026-04-18T13:18:32.187Z</time></trkpt><trkpt lat="44.1339323" lon="12.2035419"><ele>43.0</ele><time>2026-04-18T13:18:33.185Z</time></trkpt><trkpt lat="44.1339266" lon="12.2032876"><ele>43.333333333333336</ele><time>2026-04-18T13:18:34.187Z</time></trkpt><trkpt lat="44.1339174" lon="12.2030356"><ele>43.666666666666664</ele><time>2026-04-18T13:18:35.187Z</time></trkpt><trkpt lat="44.1339092" lon="12.2027829"><ele>44.0</ele><time>2026-04-18T13:18:36.187Z</time></trkpt><trkpt lat="44.1339012" lon="12.2025319"><ele>43.666666666666664</ele><time>2026-04-18T13:18:37.187Z</time></trkpt><trkpt lat="44.1338932" lon="12.2022775"><ele>43.333333333333336</ele><time>2026-04-18T13:18:38.186Z</time></trkpt><trkpt lat="44.1338863" lon="12.2020206"><ele>43.0</ele><time>2026-04-18T13:18:39.187Z</time></trkpt><trkpt lat="44.1338807" lon="12.2017619"><ele>43.0</ele><time>2026-04-18T13:18:40.187Z</time></trkpt><trkpt lat="44.1338728" lon="12.2015103"><ele>43.0</ele><time>2026-04-18T13:18:41.187Z</time></trkpt><trkpt lat="44.1338649" lon="12.2012607"><ele>43.0</ele><time>2026-04-18T13:18:42.187Z</time></trkpt><trkpt lat="44.1338571" lon="12.2010108"><ele>43.0</ele><time>2026-04-18T13:18:43.187Z</time></trkpt><trkpt lat="44.1338478" lon="12.2007594"><ele>43.0</ele><time>2026-04-18T13:18:44.186Z</time></trkpt><trkpt lat="44.1338315" lon="12.2005046"><ele>43.0</ele><time>2026-04-18T13:18:45.187Z</time></trkpt><trkpt lat="44.1338057" lon="12.2002514"><ele>43.0</ele><time>2026-04-18T13:18:46.187Z</time></trkpt><trkpt lat="44.133769" lon="12.2000049"><ele>43.0</ele><time>2026-04-18T13:18:47.186Z</time></trkpt><trkpt lat="44.1337303" lon="12.1997636"><ele>43.0</ele><time>2026-04-18T13:18:48.187Z</time></trkpt><trkpt lat="44.1336929" lon="12.1995224"><ele>43.0</ele><time>2026-04-18T13:18:49.187Z</time></trkpt><trkpt lat="44.1336524" lon="12.199282"><ele>43.0</ele><time>2026-04-18T13:18:50.186Z</time></trkpt><trkpt lat="44.1336114" lon="12.1990432"><ele>43.0</ele><time>2026-04-18T13:18:51.187Z</time></trkpt><trkpt lat="44.1335713" lon="12.1988061"><ele>43.0</ele><time>2026-04-18T13:18:52.187Z</time></trkpt><trkpt lat="44.1335294" lon="12.1985694"><ele>43.0</ele><time>2026-04-18T13:18:53.187Z</time></trkpt><trkpt lat="44.1334878" lon="12.1983366"><ele>43.0</ele><time>2026-04-18T13:18:54.187Z</time></trkpt><trkpt lat="44.1334451" lon="12.1981028"><ele>43.0</ele><time>2026-04-18T13:18:55.187Z</time></trkpt><trkpt lat="44.1334052" lon="12.1978693"><ele>43.0</ele><time>2026-04-18T13:18:56.187Z</time></trkpt><trkpt lat="44.1333632" lon="12.197634"><ele>43.0</ele><time>2026-04-18T13:18:57.186Z</time></trkpt><trkpt lat="44.1333239" lon="12.1974005"><ele>43.0</ele><time>2026-04-18T13:18:58.187Z</time></trkpt><trkpt lat="44.1332847" lon="12.1971642"><ele>43.0</ele><time>2026-04-18T13:18:59.187Z</time></trkpt><trkpt lat="44.1332413" lon="12.1969271"><ele>43.0</ele><time>2026-04-18T13:19:00.187Z</time></trkpt><trkpt lat="44.1331987" lon="12.1966877"><ele>44.0</ele><time>2026-04-18T13:19:01.187Z</time></trkpt><trkpt lat="44.1331576" lon="12.1964476"><ele>45.0</ele><time>2026-04-18T13:19:02.187Z</time></trkpt><trkpt lat="44.1331169" lon="12.1962045"><ele>46.0</ele><time>2026-04-18T13:19:03.186Z</time></trkpt><trkpt lat="44.1330742" lon="12.1959603"><ele>46.0</ele><time>2026-04-18T13:19:04.187Z</time></trkpt><trkpt lat="44.1330317" lon="12.1957158"><ele>46.0</ele><time>2026-04-18T13:19:05.187Z</time></trkpt><trkpt lat="44.1329886" lon="12.1954684"><ele>46.0</ele><time>2026-04-18T13:19:06.187Z</time></trkpt><trkpt lat="44.1329454" lon="12.1952173"><ele>46.0</ele><time>2026-04-18T13:19:07.187Z</time></trkpt><trkpt lat="44.132901" lon="12.1949675"><ele>46.0</ele><time>2026-04-18T13:19:08.187Z</time></trkpt><trkpt lat="44.1328539" lon="12.1947153"><ele>46.0</ele><time>2026-04-18T13:19:09.187Z</time></trkpt><trkpt lat="44.1328074" lon="12.1944622"><ele>46.0</ele><time>2026-04-18T13:19:10.187Z</time></trkpt><trkpt lat="44.132765" lon="12.1942087"><ele>46.0</ele><time>2026-04-18T13:19:11.187Z</time></trkpt><trkpt lat="44.132723" lon="12.1939566"><ele>46.0</ele><time>2026-04-18T13:19:12.186Z</time></trkpt><trkpt lat="44.1326793" lon="12.1937038"><ele>46.0</ele><time>2026-04-18T13:19:13.187Z</time></trkpt><trkpt lat="44.1326312" lon="12.1934535"><ele>46.0</ele><time>2026-04-18T13:19:14.186Z</time></trkpt><trkpt lat="44.1325861" lon="12.1932027"><ele>46.0</ele><time>2026-04-18T13:19:15.187Z</time></trkpt><trkpt lat="44.1325424" lon="12.1929558"><ele>46.0</ele><time>2026-04-18T13:19:16.187Z</time></trkpt><trkpt lat="44.1325019" lon="12.1927086"><ele>46.0</ele><time>2026-04-18T13:19:17.187Z</time></trkpt><trkpt lat="44.1324642" lon="12.1924573"><ele>46.0</ele><time>2026-04-18T13:19:18.186Z</time></trkpt><trkpt lat="44.1324241" lon="12.1922066"><ele>46.0</ele><time>2026-04-18T13:19:19.186Z</time></trkpt><trkpt lat="44.1323843" lon="12.1919571"><ele>46.0</ele><time>2026-04-18T13:19:20.187Z</time></trkpt><trkpt lat="44.1323449" lon="12.1917106"><ele>46.0</ele><time>2026-04-18T13:19:21.187Z</time></trkpt><trkpt lat="44.1323048" lon="12.1914687"><ele>46.333333333333336</ele><time>2026-04-18T13:19:22.187Z</time></trkpt><trkpt lat="44.1322646" lon="12.1912308"><ele>46.666666666666664</ele><time>2026-04-18T13:19:23.187Z</time></trkpt><trkpt lat="44.1322234" lon="12.1909977"><ele>47.0</ele><time>2026-04-18T13:19:24.187Z</time></trkpt><trkpt lat="44.132183" lon="12.1907702"><ele>47.33333333333333</ele><time>2026-04-18T13:19:25.187Z</time></trkpt><trkpt lat="44.1321454" lon="12.1905422"><ele>47.666666666666664</ele><time>2026-04-18T13:19:26.187Z</time></trkpt><trkpt lat="44.1321073" lon="12.1903114"><ele>48.0</ele><time>2026-04-18T13:19:27.186Z</time></trkpt><trkpt lat="44.1320697" lon="12.1900782"><ele>48.0</ele><time>2026-04-18T13:19:28.187Z</time></trkpt><trkpt lat="44.1320305" lon="12.1898443"><ele>48.0</ele><time>2026-04-18T13:19:29.187Z</time></trkpt><trkpt lat="44.1319891" lon="12.1896091"><ele>48.0</ele><time>2026-04-18T13:19:30.187Z</time></trkpt><trkpt lat="44.1319491" lon="12.1893752"><ele>48.0</ele><time>2026-04-18T13:19:31.187Z</time></trkpt><trkpt lat="44.1319099" lon="12.1891393"><ele>48.0</ele><time>2026-04-18T13:19:32.186Z</time></trkpt><trkpt lat="44.1318714" lon="12.1889046"><ele>48.0</ele><time>2026-04-18T13:19:33.187Z</time></trkpt><trkpt lat="44.1318309" lon="12.1886709"><ele>48.0</ele><time>2026-04-18T13:19:34.186Z</time></trkpt><trkpt lat="44.1317934" lon="12.1884481"><ele>48.0</ele><time>2026-04-18T13:19:35.187Z</time></trkpt><trkpt lat="44.1317594" lon="12.1882351"><ele>48.0</ele><time>2026-04-18T13:19:36.186Z</time></trkpt><trkpt lat="44.1317267" lon="12.1880263"><ele>48.75</ele><time>2026-04-18T13:19:37.187Z</time></trkpt><trkpt lat="44.1316938" lon="12.1878371"><ele>49.5</ele><time>2026-04-18T13:19:38.187Z</time></trkpt><trkpt lat="44.1316631" lon="12.1876646"><ele>50.25</ele><time>2026-04-18T13:19:39.187Z</time></trkpt><trkpt lat="44.1316369" lon="12.1875097"><ele>51.0</ele><time>2026-04-18T13:19:40.187Z</time></trkpt><trkpt lat="44.1316189" lon="12.1873691"><ele>51.4</ele><time>2026-04-18T13:19:41.186Z</time></trkpt><trkpt lat="44.1316065" lon="12.1872429"><ele>51.8</ele><time>2026-04-18T13:19:42.187Z</time></trkpt><trkpt lat="44.1316036" lon="12.187119"><ele>52.199999999999996</ele><time>2026-04-18T13:19:43.187Z</time></trkpt><trkpt lat="44.1315945" lon="12.1869847"><ele>52.599999999999994</ele><time>2026-04-18T13:19:44.187Z</time></trkpt><trkpt lat="44.1315656" lon="12.1868522"><ele>53.0</ele><time>2026-04-18T13:19:45.187Z</time></trkpt><trkpt lat="44.131527" lon="12.1867124"><ele>53.25</ele><time>2026-04-18T13:19:46.187Z</time></trkpt><trkpt lat="44.1314936" lon="12.1865652"><ele>53.5</ele><time>2026-04-18T13:19:47.187Z</time></trkpt><trkpt lat="44.1314602" lon="12.1863996"><ele>53.75</ele><time>2026-04-18T13:19:48.187Z</time></trkpt><trkpt lat="44.1314299" lon="12.1862122"><ele>54.0</ele><time>2026-04-18T13:19:49.187Z</time></trkpt><trkpt lat="44.1314213" lon="12.1860004"><ele>54.33333333333333</ele><time>2026-04-18T13:19:50.187Z</time></trkpt><trkpt lat="44.1314258" lon="12.1857674"><ele>54.666666666666664</ele><time>2026-04-18T13:19:51.186Z</time></trkpt><trkpt lat="44.1314278" lon="12.1855019"><ele>55.0</ele><time>2026-04-18T13:19:52.187Z</time></trkpt><trkpt lat="44.1314268" lon="12.1852508"><ele>55.5</ele><time>2026-04-18T13:19:53.187Z</time></trkpt><trkpt lat="44.1314241" lon="12.1850242"><ele>56.0</ele><time>2026-04-18T13:19:54.187Z</time></trkpt><trkpt lat="44.1314236" lon="12.1848175"><ele>56.5</ele><time>2026-04-18T13:19:55.187Z</time></trkpt><trkpt lat="44.1314271" lon="12.1846329"><ele>57.0</ele><time>2026-04-18T13:19:56.187Z</time></trkpt><trkpt lat="44.131437" lon="12.1844788"><ele>57.2</ele><time>2026-04-18T13:19:57.187Z</time></trkpt><trkpt lat="44.1314674" lon="12.184363"><ele>57.400000000000006</ele><time>2026-04-18T13:19:58.187Z</time></trkpt><trkpt lat="44.1315278" lon="12.1842717"><ele>57.599999999999994</ele><time>2026-04-18T13:19:59.186Z</time></trkpt><trkpt lat="44.1316164" lon="12.1842198"><ele>57.8</ele><time>2026-04-18T13:20:00.186Z</time></trkpt><trkpt lat="44.1317345" lon="12.1841957"><ele>58.0</ele><time>2026-04-18T13:20:01.187Z</time></trkpt><trkpt lat="44.1318739" lon="12.1841997"><ele>59.75</ele><time>2026-04-18T13:20:02.187Z</time></trkpt><trkpt lat="44.1320227" lon="12.184218"><ele>61.5</ele><time>2026-04-18T13:20:03.186Z</time></trkpt><trkpt lat="44.1321623" lon="12.1842222"><ele>63.25</ele><time>2026-04-18T13:20:04.186Z</time></trkpt><trkpt lat="44.1322791" lon="12.1841817"><ele>65.0</ele><time>2026-04-18T13:20:05.186Z</time></trkpt><trkpt lat="44.1324041" lon="12.18409"><ele>69.0</ele><time>2026-04-18T13:20:06.187Z</time></trkpt><trkpt lat="44.1325408" lon="12.1839573"><ele>73.0</ele><time>2026-04-18T13:20:07.187Z</time></trkpt><trkpt lat="44.1326934" lon="12.1838064"><ele>77.0</ele><time>2026-04-18T13:20:08.186Z</time></trkpt><trkpt lat="44.1328289" lon="12.1836609"><ele>77.0</ele><time>2026-04-18T13:20:09.187Z</time></trkpt><trkpt lat="44.1329507" lon="12.1835203"><ele>77.0</ele><time>2026-04-18T13:20:10.186Z</time></trkpt><trkpt lat="44.1330642" lon="12.1833827"><ele>77.0</ele><time>2026-04-18T13:20:11.187Z</time></trkpt><trkpt lat="44.1331732" lon="12.1832507"><ele>78.75</ele><time>2026-04-18T13:20:12.187Z</time></trkpt><trkpt lat="44.1332903" lon="12.1831359"><ele>80.5</ele><time>2026-04-18T13:20:13.187Z</time></trkpt><trkpt lat="44.1334136" lon="12.1830504"><ele>82.25</ele><time>2026-04-18T13:20:14.186Z</time></trkpt><trkpt lat="44.1335559" lon="12.1829757"><ele>84.0</ele><time>2026-04-18T13:20:15.187Z</time></trkpt><trkpt lat="44.1336983" lon="12.1829206"><ele>84.0</ele><time>2026-04-18T13:20:16.187Z</time></trkpt><trkpt lat="44.1338425" lon="12.1828812"><ele>84.0</ele><time>2026-04-18T13:20:17.187Z</time></trkpt><trkpt lat="44.1339841" lon="12.182856"><ele>84.0</ele><time>2026-04-18T13:20:18.187Z</time></trkpt><trkpt lat="44.1341307" lon="12.1828385"><ele>84.0</ele><time>2026-04-18T13:20:19.186Z</time></trkpt><trkpt lat="44.1342797" lon="12.1828166"><ele>86.25</ele><time>2026-04-18T13:20:20.187Z</time></trkpt><trkpt lat="44.1344252" lon="12.1827838"><ele>88.5</ele><time>2026-04-18T13:20:21.187Z</time></trkpt><trkpt lat="44.1345689" lon="12.1827439"><ele>90.75</ele><time>2026-04-18T13:20:22.187Z</time></trkpt><trkpt lat="44.1347126" lon="12.1826986"><ele>93.0</ele><time>2026-04-18T13:20:23.187Z</time></trkpt><trkpt lat="44.1348526" lon="12.18265"><ele>93.75</ele><time>2026-04-18T13:20:24.187Z</time></trkpt><trkpt lat="44.1349904" lon="12.1825968"><ele>94.5</ele><time>2026-04-18T13:20:25.186Z</time></trkpt><trkpt lat="44.1351238" lon="12.1825426"><ele>95.25</ele><time>2026-04-18T13:20:26.187Z</time></trkpt><trkpt lat="44.1352543" lon="12.1824805"><ele>96.0</ele><time>2026-04-18T13:20:27.187Z</time></trkpt><trkpt lat="44.1353809" lon="12.1823995"><ele>97.25</ele><time>2026-04-18T13:20:28.187Z</time></trkpt><trkpt lat="44.1355024" lon="12.1822925"><ele>98.5</ele><time>2026-04-18T13:20:29.187Z</time></trkpt><trkpt lat="44.1356127" lon="12.1821625"><ele>99.75</ele><time>2026-04-18T13:20:30.187Z</time></trkpt><trkpt lat="44.1357131" lon="12.1820192"><ele>101.0</ele><time>2026-04-18T13:20:31.186Z</time></trkpt><trkpt lat="44.1358033" lon="12.1818728"><ele>103.25</ele><time>2026-04-18T13:20:32.186Z</time></trkpt><trkpt lat="44.1358769" lon="12.181716"><ele>105.5</ele><time>2026-04-18T13:20:33.187Z</time></trkpt><trkpt lat="44.1359301" lon="12.1815416"><ele>107.75</ele><time>2026-04-18T13:20:34.186Z</time></trkpt><trkpt lat="44.1359686" lon="12.1813535"><ele>110.0</ele><time>2026-04-18T13:20:35.186Z</time></trkpt><trkpt lat="44.1360074" lon="12.1811624"><ele>110.0</ele><time>2026-04-18T13:20:36.186Z</time></trkpt><trkpt lat="44.1360622" lon="12.1809717"><ele>110.0</ele><time>2026-04-18T13:20:37.187Z</time></trkpt><trkpt lat="44.1361373" lon="12.1807825"><ele>110.0</ele><time>2026-04-18T13:20:38.187Z</time></trkpt><trkpt lat="44.1362263" lon="12.1805945"><ele>107.33333333333333</ele><time>2026-04-18T13:20:39.186Z</time></trkpt><trkpt lat="44.1363205" lon="12.180412"><ele>104.66666666666666</ele><time>2026-04-18T13:20:40.187Z</time></trkpt><trkpt lat="44.1364233" lon="12.1802261"><ele>102.0</ele><time>2026-04-18T13:20:41.187Z</time></trkpt><trkpt lat="44.1365323" lon="12.1800328"><ele>106.0</ele><time>2026-04-18T13:20:42.187Z</time></trkpt><trkpt lat="44.1366402" lon="12.1798414"><ele>110.0</ele><time>2026-04-18T13:20:43.187Z</time></trkpt><trkpt lat="44.1367435" lon="12.179651"><ele>114.0</ele><time>2026-04-18T13:20:44.187Z</time></trkpt><trkpt lat="44.1368358" lon="12.1794594"><ele>114.0</ele><time>2026-04-18T13:20:45.187Z</time></trkpt><trkpt lat="44.1369162" lon="12.1792556"><ele>114.0</ele><time>2026-04-18T13:20:46.187Z</time></trkpt><trkpt lat="44.1369884" lon="12.1790454"><ele>114.0</ele><time>2026-04-18T13:20:47.187Z</time></trkpt><trkpt lat="44.137057" lon="12.1788329"><ele>114.0</ele><time>2026-04-18T13:20:48.187Z</time></trkpt><trkpt lat="44.1371305" lon="12.1786169"><ele>114.0</ele><time>2026-04-18T13:20:49.187Z</time></trkpt><trkpt lat="44.1372233" lon="12.1784139"><ele>114.0</ele><time>2026-04-18T13:20:50.187Z</time></trkpt><trkpt lat="44.1373273" lon="12.1782254"><ele>118.33333333333334</ele><time>2026-04-18T13:20:51.187Z</time></trkpt><trkpt lat="44.13743" lon="12.1780357"><ele>122.66666666666667</ele><time>2026-04-18T13:20:52.187Z</time></trkpt><trkpt lat="44.1375323" lon="12.1778452"><ele>127.0</ele><time>2026-04-18T13:20:53.187Z</time></trkpt><trkpt lat="44.1376312" lon="12.1776629"><ele>127.0</ele><time>2026-04-18T13:20:54.187Z</time></trkpt><trkpt lat="44.1377243" lon="12.1774873"><ele>127.0</ele><time>2026-04-18T13:20:55.187Z</time></trkpt><trkpt lat="44.1378129" lon="12.1773151"><ele>127.0</ele><time>2026-04-18T13:20:56.187Z</time></trkpt><trkpt lat="44.1379014" lon="12.177146"><ele>128.25</ele><time>2026-04-18T13:20:57.187Z</time></trkpt><trkpt lat="44.1379914" lon="12.1769771"><ele>129.5</ele><time>2026-04-18T13:20:58.187Z</time></trkpt><trkpt lat="44.1380764" lon="12.1768067"><ele>130.75</ele><time>2026-04-18T13:20:59.187Z</time></trkpt><trkpt lat="44.1381468" lon="12.1766308"><ele>132.0</ele><time>2026-04-18T13:21:00.187Z</time></trkpt><trkpt lat="44.1381928" lon="12.176445"><ele>134.0</ele><time>2026-04-18T13:21:01.187Z</time></trkpt><trkpt lat="44.1382153" lon="12.1762538"><ele>136.0</ele><time>2026-04-18T13:21:02.187Z</time></trkpt><trkpt lat="44.1382194" lon="12.1760713"><ele>138.0</ele><time>2026-04-18T13:21:03.187Z</time></trkpt><trkpt lat="44.1381991" lon="12.1758834"><ele>140.0</ele><time>2026-04-18T13:21:04.187Z</time></trkpt><trkpt lat="44.1381573" lon="12.1756916"><ele>141.5</ele><time>2026-04-18T13:21:05.187Z</time></trkpt><trkpt lat="44.1380983" lon="12.1755219"><ele>143.0</ele><time>2026-04-18T13:21:06.187Z</time></trkpt><trkpt lat="44.1380188" lon="12.1753681"><ele>144.5</ele><time>2026-04-18T13:21:07.187Z</time></trkpt><trkpt lat="44.1379181" lon="12.175228"><ele>146.0</ele><time>2026-04-18T13:21:08.186Z</time></trkpt><trkpt lat="44.1378025" lon="12.1751183"><ele>146.0</ele><time>2026-04-18T13:21:09.187Z</time></trkpt><trkpt lat="44.1376713" lon="12.1750449"><ele>146.0</ele><time>2026-04-18T13:21:10.187Z</time></trkpt><trkpt lat="44.1375248" lon="12.1750034"><ele>146.0</ele><time>2026-04-18T13:21:11.187Z</time></trkpt><trkpt lat="44.1373744" lon="12.1749914"><ele>146.0</ele><time>2026-04-18T13:21:12.187Z</time></trkpt><trkpt lat="44.1372338" lon="12.1749877"><ele>146.0</ele><time>2026-04-18T13:21:13.187Z</time></trkpt><trkpt lat="44.137095" lon="12.174981"><ele>146.0</ele><time>2026-04-18T13:21:14.187Z</time></trkpt><trkpt lat="44.1369625" lon="12.1749587"><ele>146.0</ele><time>2026-04-18T13:21:15.187Z</time></trkpt><trkpt lat="44.1368366" lon="12.1749097"><ele>146.0</ele><time>2026-04-18T13:21:16.186Z</time></trkpt><trkpt lat="44.1367111" lon="12.1748365"><ele>146.0</ele><time>2026-04-18T13:21:17.186Z</time></trkpt><trkpt lat="44.1365893" lon="12.1747179"><ele>146.0</ele><time>2026-04-18T13:21:18.185Z</time></trkpt><trkpt lat="44.1364664" lon="12.1745895"><ele>146.0</ele><time>2026-04-18T13:21:19.186Z</time></trkpt><trkpt lat="44.1363479" lon="12.1744527"><ele>145.66666666666666</ele><time>2026-04-18T13:21:20.187Z</time></trkpt><trkpt lat="44.1362242" lon="12.1742983"><ele>145.33333333333334</ele><time>2026-04-18T13:21:21.187Z</time></trkpt><trkpt lat="44.1360963" lon="12.1741426"><ele>145.0</ele><time>2026-04-18T13:21:22.186Z</time></trkpt><trkpt lat="44.1359663" lon="12.1739831"><ele>144.33333333333334</ele><time>2026-04-18T13:21:23.187Z</time></trkpt><trkpt lat="44.1358269" lon="12.1738253"><ele>143.66666666666666</ele><time>2026-04-18T13:21:24.186Z</time></trkpt><trkpt lat="44.1356873" lon="12.1736781"><ele>143.0</ele><time>2026-04-18T13:21:25.186Z</time></trkpt><trkpt lat="44.135552" lon="12.1735439"><ele>143.0</ele><time>2026-04-18T13:21:26.187Z</time></trkpt><trkpt lat="44.1354129" lon="12.1734116"><ele>143.0</ele><time>2026-04-18T13:21:27.186Z</time></trkpt><trkpt lat="44.1352736" lon="12.1732795"><ele>143.0</ele><time>2026-04-18T13:21:28.187Z</time></trkpt><trkpt lat="44.1351345" lon="12.1731523"><ele>143.33333333333331</ele><time>2026-04-18T13:21:29.187Z</time></trkpt><trkpt lat="44.1349958" lon="12.1730243"><ele>143.66666666666666</ele><time>2026-04-18T13:21:30.187Z</time></trkpt><trkpt lat="44.1348572" lon="12.1728928"><ele>144.0</ele><time>2026-04-18T13:21:31.187Z</time></trkpt><trkpt lat="44.1347221" lon="12.1727625"><ele>144.33333333333334</ele><time>2026-04-18T13:21:32.187Z</time></trkpt><trkpt lat="44.1345935" lon="12.1726384"><ele>144.66666666666669</ele><time>2026-04-18T13:21:33.187Z</time></trkpt><trkpt lat="44.1344607" lon="12.1725299"><ele>145.0</ele><time>2026-04-18T13:21:34.187Z</time></trkpt><trkpt lat="44.1343149" lon="12.1724476"><ele>145.0</ele><time>2026-04-18T13:21:35.187Z</time></trkpt><trkpt lat="44.1341587" lon="12.1723994"><ele>145.0</ele><time>2026-04-18T13:21:36.187Z</time></trkpt><trkpt lat="44.134014" lon="12.1723796"><ele>145.0</ele><time>2026-04-18T13:21:37.187Z</time></trkpt><trkpt lat="44.1338781" lon="12.1723761"><ele>145.0</ele><time>2026-04-18T13:21:38.187Z</time></trkpt><trkpt lat="44.133753" lon="12.1723572"><ele>145.75</ele><time>2026-04-18T13:21:39.187Z</time></trkpt><trkpt lat="44.1336459" lon="12.1723048"><ele>146.5</ele><time>2026-04-18T13:21:40.186Z</time></trkpt><trkpt lat="44.1335521" lon="12.1722134"><ele>147.25</ele><time>2026-04-18T13:21:41.187Z</time></trkpt><trkpt lat="44.1334635" lon="12.1720776"><ele>148.0</ele><time>2026-04-18T13:21:42.187Z</time></trkpt><trkpt lat="44.1333762" lon="12.1719167"><ele>148.0</ele><time>2026-04-18T13:21:43.186Z</time></trkpt><trkpt lat="44.1332907" lon="12.1717496"><ele>148.0</ele><time>2026-04-18T13:21:44.187Z</time></trkpt><trkpt lat="44.1332043" lon="12.1715734"><ele>148.0</ele><time>2026-04-18T13:21:45.187Z</time></trkpt><trkpt lat="44.1331183" lon="12.171401"><ele>146.75</ele><time>2026-04-18T13:21:46.187Z</time></trkpt><trkpt lat="44.1330281" lon="12.1712403"><ele>145.5</ele><time>2026-04-18T13:21:47.187Z</time></trkpt><trkpt lat="44.1329196" lon="12.1711067"><ele>144.25</ele><time>2026-04-18T13:21:48.187Z</time></trkpt><trkpt lat="44.1327898" lon="12.1709892"><ele>143.0</ele><time>2026-04-18T13:21:49.187Z</time></trkpt><trkpt lat="44.1326428" lon="12.1709074"><ele>143.0</ele><time>2026-04-18T13:21:50.187Z</time></trkpt><trkpt lat="44.132492" lon="12.1708659"><ele>143.0</ele><time>2026-04-18T13:21:51.187Z</time></trkpt><trkpt lat="44.1323402" lon="12.1708412"><ele>143.0</ele><time>2026-04-18T13:21:52.187Z</time></trkpt><trkpt lat="44.1321972" lon="12.1708151"><ele>143.75</ele><time>2026-04-18T13:21:53.186Z</time></trkpt><trkpt lat="44.1320771" lon="12.1707658"><ele>144.5</ele><time>2026-04-18T13:21:54.187Z</time></trkpt><trkpt lat="44.1319686" lon="12.1706645"><ele>145.25</ele><time>2026-04-18T13:21:55.187Z</time></trkpt><trkpt lat="44.1318707" lon="12.1705163"><ele>146.0</ele><time>2026-04-18T13:21:56.187Z</time></trkpt><trkpt lat="44.1317953" lon="12.1703394"><ele>147.75</ele><time>2026-04-18T13:21:57.187Z</time></trkpt><trkpt lat="44.131726" lon="12.1701659"><ele>149.5</ele><time>2026-04-18T13:21:58.187Z</time></trkpt><trkpt lat="44.1316682" lon="12.1700119"><ele>151.25</ele><time>2026-04-18T13:21:59.187Z</time></trkpt><trkpt lat="44.1316149" lon="12.1698699"><ele>153.0</ele><time>2026-04-18T13:22:00.187Z</time></trkpt><trkpt lat="44.1315584" lon="12.1697258"><ele>156.0</ele><time>2026-04-18T13:22:01.187Z</time></trkpt><trkpt lat="44.131503" lon="12.169583"><ele>159.0</ele><time>2026-04-18T13:22:02.187Z</time></trkpt><trkpt lat="44.1314554" lon="12.1694427"><ele>162.0</ele><time>2026-04-18T13:22:03.187Z</time></trkpt><trkpt lat="44.1314113" lon="12.1692999"><ele>165.0</ele><time>2026-04-18T13:22:04.186Z</time></trkpt><trkpt lat="44.1313715" lon="12.1691453"><ele>165.5</ele><time>2026-04-18T13:22:05.186Z</time></trkpt><trkpt lat="44.1313406" lon="12.1689767"><ele>166.0</ele><time>2026-04-18T13:22:06.187Z</time></trkpt><trkpt lat="44.1313173" lon="12.1687973"><ele>166.5</ele><time>2026-04-18T13:22:07.186Z</time></trkpt><trkpt lat="44.1312995" lon="12.1686204"><ele>167.0</ele><time>2026-04-18T13:22:08.187Z</time></trkpt><trkpt lat="44.1312804" lon="12.1684406"><ele>167.0</ele><time>2026-04-18T13:22:09.187Z</time></trkpt><trkpt lat="44.1312621" lon="12.1682572"><ele>167.0</ele><time>2026-04-18T13:22:10.186Z</time></trkpt><trkpt lat="44.1312406" lon="12.1680696"><ele>167.0</ele><time>2026-04-18T13:22:11.187Z</time></trkpt><trkpt lat="44.1312172" lon="12.1678821"><ele>167.0</ele><time>2026-04-18T13:22:12.186Z</time></trkpt><trkpt lat="44.1311933" lon="12.1677016"><ele>165.25</ele><time>2026-04-18T13:22:13.187Z</time></trkpt><trkpt lat="44.1311709" lon="12.1675277"><ele>163.5</ele><time>2026-04-18T13:22:14.186Z</time></trkpt><trkpt lat="44.1311499" lon="12.1673525"><ele>161.75</ele><time>2026-04-18T13:22:15.187Z</time></trkpt><trkpt lat="44.1311372" lon="12.167172"><ele>160.0</ele><time>2026-04-18T13:22:16.187Z</time></trkpt><trkpt lat="44.1311466" lon="12.1669954"><ele>159.0</ele><time>2026-04-18T13:22:17.187Z</time></trkpt><trkpt lat="44.1311852" lon="12.1668109"><ele>158.0</ele><time>2026-04-18T13:22:18.187Z</time></trkpt><trkpt lat="44.1312403" lon="12.1666233"><ele>157.0</ele><time>2026-04-18T13:22:19.187Z</time></trkpt><trkpt lat="44.1312977" lon="12.1664364"><ele>156.0</ele><time>2026-04-18T13:22:20.187Z</time></trkpt><trkpt lat="44.131347" lon="12.1662647"><ele>154.75</ele><time>2026-04-18T13:22:21.187Z</time></trkpt><trkpt lat="44.1313879" lon="12.1661112"><ele>153.5</ele><time>2026-04-18T13:22:22.186Z</time></trkpt><trkpt lat="44.131427" lon="12.1659741"><ele>152.25</ele><time>2026-04-18T13:22:23.187Z</time></trkpt><trkpt lat="44.1314689" lon="12.1658248"><ele>151.0</ele><time>2026-04-18T13:22:24.187Z</time></trkpt><trkpt lat="44.1315128" lon="12.1656677"><ele>152.25</ele><time>2026-04-18T13:22:25.186Z</time></trkpt><trkpt lat="44.1315591" lon="12.1655113"><ele>153.5</ele><time>2026-04-18T13:22:26.187Z</time></trkpt><trkpt lat="44.1316083" lon="12.1653579"><ele>154.75</ele><time>2026-04-18T13:22:27.187Z</time></trkpt><trkpt lat="44.1316618" lon="12.1652115"><ele>156.0</ele><time>2026-04-18T13:22:28.187Z</time></trkpt><trkpt lat="44.1317181" lon="12.1650716"><ele>156.0</ele><time>2026-04-18T13:22:29.186Z</time></trkpt><trkpt lat="44.1317769" lon="12.1649367"><ele>156.0</ele><time>2026-04-18T13:22:30.187Z</time></trkpt><trkpt lat="44.1318378" lon="12.164805"><ele>156.0</ele><time>2026-04-18T13:22:31.187Z</time></trkpt><trkpt lat="44.1319007" lon="12.1646678"><ele>156.0</ele><time>2026-04-18T13:22:32.187Z</time></trkpt><trkpt lat="44.1319654" lon="12.1645205"><ele>155.75</ele><time>2026-04-18T13:22:33.187Z</time></trkpt><trkpt lat="44.1320321" lon="12.1643665"><ele>155.5</ele><time>2026-04-18T13:22:34.186Z</time></trkpt><trkpt lat="44.1320973" lon="12.1642123"><ele>155.25</ele><time>2026-04-18T13:22:35.186Z</time></trkpt><trkpt lat="44.1321619" lon="12.1640573"><ele>155.0</ele><time>2026-04-18T13:22:36.187Z</time></trkpt><trkpt lat="44.1322238" lon="12.1639007"><ele>152.5</ele><time>2026-04-18T13:22:37.187Z</time></trkpt><trkpt lat="44.1322772" lon="12.1637426"><ele>150.0</ele><time>2026-04-18T13:22:38.186Z</time></trkpt><trkpt lat="44.1323221" lon="12.1635817"><ele>147.5</ele><time>2026-04-18T13:22:39.187Z</time></trkpt><trkpt lat="44.1323601" lon="12.1634122"><ele>145.0</ele><time>2026-04-18T13:22:40.187Z</time></trkpt><trkpt lat="44.1323873" lon="12.1632324"><ele>145.75</ele><time>2026-04-18T13:22:41.186Z</time></trkpt><trkpt lat="44.1324083" lon="12.1630463"><ele>146.5</ele><time>2026-04-18T13:22:42.187Z</time></trkpt><trkpt lat="44.1324282" lon="12.1628538"><ele>147.25</ele><time>2026-04-18T13:22:43.187Z</time></trkpt><trkpt lat="44.1324451" lon="12.1626604"><ele>148.0</ele><time>2026-04-18T13:22:44.187Z</time></trkpt><trkpt lat="44.1324598" lon="12.1624633"><ele>148.25</ele><time>2026-04-18T13:22:45.186Z</time></trkpt><trkpt lat="44.1324758" lon="12.1622704"><ele>148.5</ele><time>2026-04-18T13:22:46.186Z</time></trkpt><trkpt lat="44.1324959" lon="12.162081"><ele>148.75</ele><time>2026-04-18T13:22:47.187Z</time></trkpt><trkpt lat="44.1325181" lon="12.1618983"><ele>149.0</ele><time>2026-04-18T13:22:48.187Z</time></trkpt><trkpt lat="44.1325462" lon="12.1617178"><ele>149.0</ele><time>2026-04-18T13:22:49.187Z</time></trkpt><trkpt lat="44.1325842" lon="12.1615437"><ele>149.0</ele><time>2026-04-18T13:22:50.186Z</time></trkpt><trkpt lat="44.1326327" lon="12.1613732"><ele>149.0</ele><time>2026-04-18T13:22:51.187Z</time></trkpt><trkpt lat="44.1326882" lon="12.1612024"><ele>149.0</ele><time>2026-04-18T13:22:52.187Z</time></trkpt><trkpt lat="44.132748" lon="12.1610265"><ele>149.75</ele><time>2026-04-18T13:22:53.187Z</time></trkpt><trkpt lat="44.1328062" lon="12.1608506"><ele>150.5</ele><time>2026-04-18T13:22:54.187Z</time></trkpt><trkpt lat="44.1328645" lon="12.1606804"><ele>151.25</ele><time>2026-04-18T13:22:55.187Z</time></trkpt><trkpt lat="44.1329191" lon="12.1605091"><ele>152.0</ele><time>2026-04-18T13:22:56.186Z</time></trkpt><trkpt lat="44.1329723" lon="12.1603368"><ele>152.0</ele><time>2026-04-18T13:22:57.186Z</time></trkpt><trkpt lat="44.1330263" lon="12.1601665"><ele>152.0</ele><time>2026-04-18T13:22:58.187Z</time></trkpt><trkpt lat="44.1330775" lon="12.1599959"><ele>152.0</ele><time>2026-04-18T13:22:59.187Z</time></trkpt><trkpt lat="44.1331304" lon="12.159825"><ele>152.0</ele><time>2026-04-18T13:23:00.187Z</time></trkpt><trkpt lat="44.1331829" lon="12.1596501"><ele>152.5</ele><time>2026-04-18T13:23:01.186Z</time></trkpt><trkpt lat="44.1332346" lon="12.1594735"><ele>153.0</ele><time>2026-04-18T13:23:02.187Z</time></trkpt><trkpt lat="44.1332893" lon="12.159296"><ele>153.5</ele><time>2026-04-18T13:23:03.187Z</time></trkpt><trkpt lat="44.1333436" lon="12.1591164"><ele>154.0</ele><time>2026-04-18T13:23:04.186Z</time></trkpt><trkpt lat="44.1333988" lon="12.158937"><ele>154.25</ele><time>2026-04-18T13:23:05.186Z</time></trkpt><trkpt lat="44.1334557" lon="12.1587561"><ele>154.5</ele><time>2026-04-18T13:23:06.187Z</time></trkpt><trkpt lat="44.1335144" lon="12.1585742"><ele>154.75</ele><time>2026-04-18T13:23:07.186Z</time></trkpt><trkpt lat="44.1335735" lon="12.1583918"><ele>155.0</ele><time>2026-04-18T13:23:08.187Z</time></trkpt><trkpt lat="44.1336323" lon="12.1582095"><ele>154.5</ele><time>2026-04-18T13:23:09.187Z</time></trkpt><trkpt lat="44.1336876" lon="12.1580311"><ele>154.0</ele><time>2026-04-18T13:23:10.187Z</time></trkpt><trkpt lat="44.133743" lon="12.1578558"><ele>153.5</ele><time>2026-04-18T13:23:11.187Z</time></trkpt><trkpt lat="44.1337984" lon="12.157688"><ele>153.0</ele><time>2026-04-18T13:23:12.187Z</time></trkpt><trkpt lat="44.133853" lon="12.1575197"><ele>152.5</ele><time>2026-04-18T13:23:13.187Z</time></trkpt><trkpt lat="44.1339059" lon="12.1573555"><ele>152.0</ele><time>2026-04-18T13:23:14.186Z</time></trkpt><trkpt lat="44.1339592" lon="12.1571954"><ele>151.5</ele><time>2026-04-18T13:23:15.186Z</time></trkpt><trkpt lat="44.1340122" lon="12.157037"><ele>151.0</ele><time>2026-04-18T13:23:16.187Z</time></trkpt><trkpt lat="44.1340605" lon="12.1568801"><ele>155.5</ele><time>2026-04-18T13:23:17.187Z</time></trkpt><trkpt lat="44.1341091" lon="12.1567272"><ele>160.0</ele><time>2026-04-18T13:23:18.187Z</time></trkpt><trkpt lat="44.1341544" lon="12.1565755"><ele>164.5</ele><time>2026-04-18T13:23:19.187Z</time></trkpt><trkpt lat="44.1341911" lon="12.1564284"><ele>169.0</ele><time>2026-04-18T13:23:20.187Z</time></trkpt><trkpt lat="44.1342092" lon="12.1562818"><ele>168.5</ele><time>2026-04-18T13:23:21.187Z</time></trkpt><trkpt lat="44.134197" lon="12.1561299"><ele>168.0</ele><time>2026-04-18T13:23:22.187Z</time></trkpt><trkpt lat="44.1341586" lon="12.1559708"><ele>167.5</ele><time>2026-04-18T13:23:23.186Z</time></trkpt><trkpt lat="44.1341068" lon="12.155819"><ele>167.0</ele><time>2026-04-18T13:23:24.187Z</time></trkpt><trkpt lat="44.1340521" lon="12.1556707"><ele>167.0</ele><time>2026-04-18T13:23:25.187Z</time></trkpt><trkpt lat="44.1340066" lon="12.1555254"><ele>167.0</ele><time>2026-04-18T13:23:26.187Z</time></trkpt><trkpt lat="44.1339632" lon="12.1553873"><ele>167.0</ele><time>2026-04-18T13:23:27.187Z</time></trkpt><trkpt lat="44.1339164" lon="12.1552527"><ele>167.0</ele><time>2026-04-18T13:23:28.187Z</time></trkpt><trkpt lat="44.1338728" lon="12.1551305"><ele>167.0</ele><time>2026-04-18T13:23:29.187Z</time></trkpt><trkpt lat="44.1338265" lon="12.154997"><ele>169.2</ele><time>2026-04-18T13:23:30.187Z</time></trkpt><trkpt lat="44.1337789" lon="12.1548612"><ele>171.39999999999998</ele><time>2026-04-18T13:23:31.187Z</time></trkpt><trkpt lat="44.1337283" lon="12.1547226"><ele>173.60000000000002</ele><time>2026-04-18T13:23:32.187Z</time></trkpt><trkpt lat="44.1336797" lon="12.1545854"><ele>175.8</ele><time>2026-04-18T13:23:33.187Z</time></trkpt><trkpt lat="44.1336323" lon="12.1544464"><ele>178.0</ele><time>2026-04-18T13:23:34.187Z</time></trkpt><trkpt lat="44.1335841" lon="12.1543062"><ele>178.0</ele><time>2026-04-18T13:23:35.187Z</time></trkpt><trkpt lat="44.1335353" lon="12.1541622"><ele>178.0</ele><time>2026-04-18T13:23:36.186Z</time></trkpt><trkpt lat="44.133482" lon="12.1540153"><ele>178.0</ele><time>2026-04-18T13:23:37.187Z</time></trkpt><trkpt lat="44.1334305" lon="12.1538634"><ele>178.0</ele><time>2026-04-18T13:23:38.186Z</time></trkpt><trkpt lat="44.133381" lon="12.1537076"><ele>179.0</ele><time>2026-04-18T13:23:39.187Z</time></trkpt><trkpt lat="44.1333272" lon="12.1535485"><ele>180.0</ele><time>2026-04-18T13:23:40.187Z</time></trkpt><trkpt lat="44.1332729" lon="12.1533946"><ele>181.0</ele><time>2026-04-18T13:23:41.187Z</time></trkpt><trkpt lat="44.1332147" lon="12.153244"><ele>182.0</ele><time>2026-04-18T13:23:42.186Z</time></trkpt><trkpt lat="44.1331588" lon="12.1530929"><ele>185.25</ele><time>2026-04-18T13:23:43.187Z</time></trkpt><trkpt lat="44.1331036" lon="12.1529425"><ele>188.5</ele><time>2026-04-18T13:23:44.186Z</time></trkpt><trkpt lat="44.1330474" lon="12.1527934"><ele>191.75</ele><time>2026-04-18T13:23:45.187Z</time></trkpt><trkpt lat="44.132988" lon="12.1526443"><ele>195.0</ele><time>2026-04-18T13:23:46.187Z</time></trkpt><trkpt lat="44.1329307" lon="12.1524905"><ele>196.5</ele><time>2026-04-18T13:23:47.187Z</time></trkpt><trkpt lat="44.1328884" lon="12.1523341"><ele>198.0</ele><time>2026-04-18T13:23:48.186Z</time></trkpt><trkpt lat="44.1328622" lon="12.1521742"><ele>199.5</ele><time>2026-04-18T13:23:49.187Z</time></trkpt><trkpt lat="44.1328412" lon="12.1520123"><ele>201.0</ele><time>2026-04-18T13:23:50.187Z</time></trkpt><trkpt lat="44.1328259" lon="12.1518488"><ele>201.0</ele><time>2026-04-18T13:23:51.187Z</time></trkpt><trkpt lat="44.1328094" lon="12.1516882"><ele>201.0</ele><time>2026-04-18T13:23:52.186Z</time></trkpt><trkpt lat="44.132792" lon="12.1515279"><ele>201.0</ele><time>2026-04-18T13:23:53.186Z</time></trkpt><trkpt lat="44.1327751" lon="12.1513693"><ele>201.0</ele><time>2026-04-18T13:23:54.186Z</time></trkpt><trkpt lat="44.132763" lon="12.1512113"><ele>201.20000000000002</ele><time>2026-04-18T13:23:55.186Z</time></trkpt><trkpt lat="44.1327623" lon="12.15106"><ele>201.4</ele><time>2026-04-18T13:23:56.186Z</time></trkpt><trkpt lat="44.1327739" lon="12.1509065"><ele>201.6</ele><time>2026-04-18T13:23:57.186Z</time></trkpt><trkpt lat="44.1328015" lon="12.1507522"><ele>201.8</ele><time>2026-04-18T13:23:58.186Z</time></trkpt><trkpt lat="44.1328414" lon="12.1506018"><ele>202.0</ele><time>2026-04-18T13:23:59.185Z</time></trkpt><trkpt lat="44.1328925" lon="12.1504564"><ele>201.25</ele><time>2026-04-18T13:24:00.185Z</time></trkpt><trkpt lat="44.1329492" lon="12.1502997"><ele>200.5</ele><time>2026-04-18T13:24:01.186Z</time></trkpt><trkpt lat="44.1330117" lon="12.1501442"><ele>199.75</ele><time>2026-04-18T13:24:02.186Z</time></trkpt><trkpt lat="44.1330713" lon="12.1499855"><ele>199.0</ele><time>2026-04-18T13:24:03.186Z</time></trkpt><trkpt lat="44.1331384" lon="12.1498205"><ele>197.5</ele><time>2026-04-18T13:24:04.186Z</time></trkpt><trkpt lat="44.1332173" lon="12.1496589"><ele>196.0</ele><time>2026-04-18T13:24:05.186Z</time></trkpt><trkpt lat="44.1333109" lon="12.1495031"><ele>194.5</ele><time>2026-04-18T13:24:06.186Z</time></trkpt><trkpt lat="44.1334135" lon="12.1493532"><ele>193.0</ele><time>2026-04-18T13:24:07.186Z</time></trkpt><trkpt lat="44.1335203" lon="12.1492068"><ele>192.5</ele><time>2026-04-18T13:24:08.186Z</time></trkpt><trkpt lat="44.1336302" lon="12.1490617"><ele>192.0</ele><time>2026-04-18T13:24:09.186Z</time></trkpt><trkpt lat="44.1337352" lon="12.1489168"><ele>191.5</ele><time>2026-04-18T13:24:10.185Z</time></trkpt><trkpt lat="44.1338394" lon="12.1487676"><ele>191.0</ele><time>2026-04-18T13:24:11.186Z</time></trkpt><trkpt lat="44.1339432" lon="12.1486196"><ele>191.33333333333331</ele><time>2026-04-18T13:24:12.186Z</time></trkpt><trkpt lat="44.1340492" lon="12.1484705"><ele>191.66666666666666</ele><time>2026-04-18T13:24:13.186Z</time></trkpt><trkpt lat="44.1341573" lon="12.14832"><ele>192.0</ele><time>2026-04-18T13:24:14.186Z</time></trkpt><trkpt lat="44.1342716" lon="12.1481793"><ele>192.0</ele><time>2026-04-18T13:24:15.186Z</time></trkpt><trkpt lat="44.1343933" lon="12.1480589"><ele>192.0</ele><time>2026-04-18T13:24:16.186Z</time></trkpt><trkpt lat="44.134529" lon="12.1479649"><ele>192.0</ele><time>2026-04-18T13:24:17.186Z</time></trkpt><trkpt lat="44.1346706" lon="12.1478767"><ele>192.0</ele><time>2026-04-18T13:24:18.184Z</time></trkpt><trkpt lat="44.1348161" lon="12.1477904"><ele>192.0</ele><time>2026-04-18T13:24:19.186Z</time></trkpt><trkpt lat="44.1349576" lon="12.147708"><ele>192.0</ele><time>2026-04-18T13:24:20.186Z</time></trkpt><trkpt lat="44.1351" lon="12.1476211"><ele>192.33333333333331</ele><time>2026-04-18T13:24:21.186Z</time></trkpt><trkpt lat="44.1352429" lon="12.1475259"><ele>192.66666666666666</ele><time>2026-04-18T13:24:22.186Z</time></trkpt><trkpt lat="44.1353853" lon="12.1474214"><ele>193.0</ele><time>2026-04-18T13:24:23.186Z</time></trkpt><trkpt lat="44.135522" lon="12.1473097"><ele>193.0</ele><time>2026-04-18T13:24:24.186Z</time></trkpt><trkpt lat="44.1356539" lon="12.1471796"><ele>193.0</ele><time>2026-04-18T13:24:25.186Z</time></trkpt><trkpt lat="44.1357774" lon="12.1470341"><ele>193.0</ele><time>2026-04-18T13:24:26.186Z</time></trkpt><trkpt lat="44.1358928" lon="12.1468866"><ele>193.66666666666666</ele><time>2026-04-18T13:24:27.185Z</time></trkpt><trkpt lat="44.1359913" lon="12.1467327"><ele>194.33333333333331</ele><time>2026-04-18T13:24:28.186Z</time></trkpt><trkpt lat="44.1360912" lon="12.1465719"><ele>195.0</ele><time>2026-04-18T13:24:29.186Z</time></trkpt><trkpt lat="44.1361863" lon="12.146408"><ele>195.0</ele><time>2026-04-18T13:24:30.186Z</time></trkpt><trkpt lat="44.1362966" lon="12.146253"><ele>195.0</ele><time>2026-04-18T13:24:31.186Z</time></trkpt><trkpt lat="44.1364265" lon="12.1461114"><ele>195.0</ele><time>2026-04-18T13:24:32.186Z</time></trkpt><trkpt lat="44.1365665" lon="12.1459821"><ele>195.33333333333331</ele><time>2026-04-18T13:24:33.186Z</time></trkpt><trkpt lat="44.136711" lon="12.1458566"><ele>195.66666666666666</ele><time>2026-04-18T13:24:34.186Z</time></trkpt><trkpt lat="44.1368574" lon="12.1457452"><ele>196.0</ele><time>2026-04-18T13:24:35.186Z</time></trkpt><trkpt lat="44.137005" lon="12.1456469"><ele>197.0</ele><time>2026-04-18T13:24:36.186Z</time></trkpt><trkpt lat="44.1371548" lon="12.1455687"><ele>198.0</ele><time>2026-04-18T13:24:37.186Z</time></trkpt><trkpt lat="44.1373023" lon="12.1455083"><ele>199.0</ele><time>2026-04-18T13:24:38.186Z</time></trkpt><trkpt lat="44.1374442" lon="12.1454536"><ele>201.5</ele><time>2026-04-18T13:24:39.186Z</time></trkpt><trkpt lat="44.1375825" lon="12.1453987"><ele>204.0</ele><time>2026-04-18T13:24:40.186Z</time></trkpt><trkpt lat="44.137718" lon="12.1453402"><ele>206.5</ele><time>2026-04-18T13:24:41.185Z</time></trkpt><trkpt lat="44.1378485" lon="12.1452859"><ele>209.0</ele><time>2026-04-18T13:24:42.186Z</time></trkpt><trkpt lat="44.1379788" lon="12.1452415"><ele>209.0</ele><time>2026-04-18T13:24:43.186Z</time></trkpt><trkpt lat="44.1381228" lon="12.1452069"><ele>209.0</ele><time>2026-04-18T13:24:44.186Z</time></trkpt><trkpt lat="44.1382781" lon="12.1451887"><ele>209.0</ele><time>2026-04-18T13:24:45.186Z</time></trkpt><trkpt lat="44.1384366" lon="12.145178"><ele>208.66666666666669</ele><time>2026-04-18T13:24:46.186Z</time></trkpt><trkpt lat="44.1385913" lon="12.145167"><ele>208.33333333333331</ele><time>2026-04-18T13:24:47.185Z</time></trkpt><trkpt lat="44.1387415" lon="12.1451627"><ele>208.0</ele><time>2026-04-18T13:24:48.186Z</time></trkpt><trkpt lat="44.1388937" lon="12.1451626"><ele>208.0</ele><time>2026-04-18T13:24:49.186Z</time></trkpt><trkpt lat="44.1390458" lon="12.1451626"><ele>208.0</ele><time>2026-04-18T13:24:50.186Z</time></trkpt><trkpt lat="44.1392001" lon="12.1451593"><ele>208.0</ele><time>2026-04-18T13:24:51.185Z</time></trkpt><trkpt lat="44.1393521" lon="12.1451504"><ele>207.33333333333331</ele><time>2026-04-18T13:24:52.186Z</time></trkpt><trkpt lat="44.1395038" lon="12.1451345"><ele>206.66666666666669</ele><time>2026-04-18T13:24:53.186Z</time></trkpt><trkpt lat="44.1396569" lon="12.1451021"><ele>206.0</ele><time>2026-04-18T13:24:54.186Z</time></trkpt><trkpt lat="44.1398114" lon="12.1450517"><ele>205.66666666666669</ele><time>2026-04-18T13:24:55.186Z</time></trkpt><trkpt lat="44.1399697" lon="12.1449874"><ele>205.33333333333331</ele><time>2026-04-18T13:24:56.186Z</time></trkpt><trkpt lat="44.1401266" lon="12.1449194"><ele>205.0</ele><time>2026-04-18T13:24:57.186Z</time></trkpt><trkpt lat="44.1402821" lon="12.144842"><ele>208.33333333333331</ele><time>2026-04-18T13:24:58.186Z</time></trkpt><trkpt lat="44.1404418" lon="12.1447687"><ele>211.66666666666669</ele><time>2026-04-18T13:24:59.186Z</time></trkpt><trkpt lat="44.1406006" lon="12.1446939"><ele>215.0</ele><time>2026-04-18T13:25:00.185Z</time></trkpt><trkpt lat="44.1407608" lon="12.1446188"><ele>215.0</ele><time>2026-04-18T13:25:01.186Z</time></trkpt><trkpt lat="44.1409207" lon="12.1445423"><ele>215.0</ele><time>2026-04-18T13:25:02.185Z</time></trkpt><trkpt lat="44.1410779" lon="12.1444645"><ele>215.0</ele><time>2026-04-18T13:25:03.186Z</time></trkpt><trkpt lat="44.1412336" lon="12.1443863"><ele>215.0</ele><time>2026-04-18T13:25:04.186Z</time></trkpt><trkpt lat="44.1413862" lon="12.1443092"><ele>215.0</ele><time>2026-04-18T13:25:05.185Z</time></trkpt><trkpt lat="44.1415291" lon="12.1442411"><ele>215.0</ele><time>2026-04-18T13:25:06.186Z</time></trkpt><trkpt lat="44.1416691" lon="12.1441726"><ele>214.5</ele><time>2026-04-18T13:25:07.185Z</time></trkpt><trkpt lat="44.1418062" lon="12.1441101"><ele>214.0</ele><time>2026-04-18T13:25:08.185Z</time></trkpt><trkpt lat="44.1419388" lon="12.1440294"><ele>213.5</ele><time>2026-04-18T13:25:09.185Z</time></trkpt><trkpt lat="44.1420681" lon="12.1439471"><ele>213.0</ele><time>2026-04-18T13:25:10.186Z</time></trkpt><trkpt lat="44.1421702" lon="12.1438429"><ele>213.75</ele><time>2026-04-18T13:25:11.186Z</time></trkpt><trkpt lat="44.1422545" lon="12.1437256"><ele>214.5</ele><time>2026-04-18T13:25:12.186Z</time></trkpt><trkpt lat="44.1423243" lon="12.143593"><ele>215.25</ele><time>2026-04-18T13:25:13.186Z</time></trkpt><trkpt lat="44.1423959" lon="12.1434609"><ele>216.0</ele><time>2026-04-18T13:25:14.185Z</time></trkpt><trkpt lat="44.142494" lon="12.1432516"><ele>217.75</ele><time>2026-04-18T13:25:16.03Z</time></trkpt><trkpt lat="44.1425939" lon="12.143033"><ele>219.5</ele><time>2026-04-18T13:25:17.186Z</time></trkpt><trkpt lat="44.1426616" lon="12.1428799"><ele>221.25</ele><time>2026-04-18T13:25:18.186Z</time></trkpt><trkpt lat="44.142736" lon="12.1427398"><ele>223.0</ele><time>2026-04-18T13:25:19.186Z</time></trkpt><trkpt lat="44.1428081" lon="12.1425941"><ele>223.0</ele><time>2026-04-18T13:25:20.186Z</time></trkpt><trkpt lat="44.1428853" lon="12.1424445"><ele>223.0</ele><time>2026-04-18T13:25:21.185Z</time></trkpt><trkpt lat="44.1429633" lon="12.1422873"><ele>223.0</ele><time>2026-04-18T13:25:22.186Z</time></trkpt><trkpt lat="44.1430426" lon="12.1421284"><ele>223.0</ele><time>2026-04-18T13:25:23.184Z</time></trkpt><trkpt lat="44.1431199" lon="12.141969"><ele>223.75</ele><time>2026-04-18T13:25:24.186Z</time></trkpt><trkpt lat="44.1431976" lon="12.141811"><ele>224.5</ele><time>2026-04-18T13:25:25.185Z</time></trkpt><trkpt lat="44.1432758" lon="12.1416567"><ele>225.25</ele><time>2026-04-18T13:25:26.185Z</time></trkpt><trkpt lat="44.1433547" lon="12.1415037"><ele>226.0</ele><time>2026-04-18T13:25:27.186Z</time></trkpt><trkpt lat="44.1434324" lon="12.141348"><ele>226.0</ele><time>2026-04-18T13:25:28.186Z</time></trkpt><trkpt lat="44.1435077" lon="12.1411902"><ele>226.0</ele><time>2026-04-18T13:25:29.184Z</time></trkpt><trkpt lat="44.1435829" lon="12.1410347"><ele>226.0</ele><time>2026-04-18T13:25:30.185Z</time></trkpt><trkpt lat="44.1436597" lon="12.140883"><ele>226.0</ele><time>2026-04-18T13:25:31.186Z</time></trkpt><trkpt lat="44.1437399" lon="12.1407291"><ele>223.5</ele><time>2026-04-18T13:25:32.185Z</time></trkpt><trkpt lat="44.1438126" lon="12.1405731"><ele>221.0</ele><time>2026-04-18T13:25:33.186Z</time></trkpt><trkpt lat="44.1438966" lon="12.1404231"><ele>218.5</ele><time>2026-04-18T13:25:34.186Z</time></trkpt><trkpt lat="44.1439767" lon="12.1402715"><ele>216.0</ele><time>2026-04-18T13:25:35.186Z</time></trkpt><trkpt lat="44.1440623" lon="12.1401356"><ele>216.0</ele><time>2026-04-18T13:25:36.186Z</time></trkpt><trkpt lat="44.1441482" lon="12.1399965"><ele>216.0</ele><time>2026-04-18T13:25:37.186Z</time></trkpt><trkpt lat="44.1442294" lon="12.1398592"><ele>216.0</ele><time>2026-04-18T13:25:38.186Z</time></trkpt><trkpt lat="44.1443048" lon="12.1397194"><ele>216.0</ele><time>2026-04-18T13:25:39.186Z</time></trkpt><trkpt lat="44.1443838" lon="12.1395856"><ele>218.25</ele><time>2026-04-18T13:25:40.185Z</time></trkpt><trkpt lat="44.1444594" lon="12.1394517"><ele>220.5</ele><time>2026-04-18T13:25:41.186Z</time></trkpt><trkpt lat="44.1445382" lon="12.1393273"><ele>222.75</ele><time>2026-04-18T13:25:42.186Z</time></trkpt><trkpt lat="44.1446108" lon="12.1391966"><ele>225.0</ele><time>2026-04-18T13:25:43.186Z</time></trkpt><trkpt lat="44.1446872" lon="12.1390701"><ele>223.75</ele><time>2026-04-18T13:25:44.186Z</time></trkpt><trkpt lat="44.1447617" lon="12.1389345"><ele>222.5</ele><time>2026-04-18T13:25:45.186Z</time></trkpt><trkpt lat="44.1448351" lon="12.1387873"><ele>221.25</ele><time>2026-04-18T13:25:46.186Z</time></trkpt><trkpt lat="44.1449036" lon="12.1386316"><ele>220.0</ele><time>2026-04-18T13:25:47.186Z</time></trkpt><trkpt lat="44.1449729" lon="12.1384802"><ele>220.0</ele><time>2026-04-18T13:25:48.186Z</time></trkpt><trkpt lat="44.1450347" lon="12.1383157"><ele>220.0</ele><time>2026-04-18T13:25:49.186Z</time></trkpt><trkpt lat="44.1450685" lon="12.1381415"><ele>220.0</ele><time>2026-04-18T13:25:50.186Z</time></trkpt><trkpt lat="44.1451239" lon="12.1379836"><ele>220.0</ele><time>2026-04-18T13:25:51.185Z</time></trkpt><trkpt lat="44.1451736" lon="12.1378281"><ele>222.25</ele><time>2026-04-18T13:25:52.186Z</time></trkpt><trkpt lat="44.1452299" lon="12.1376782"><ele>224.5</ele><time>2026-04-18T13:25:53.186Z</time></trkpt><trkpt lat="44.1452706" lon="12.1375194"><ele>226.75</ele><time>2026-04-18T13:25:54.186Z</time></trkpt><trkpt lat="44.1453205" lon="12.1373714"><ele>229.0</ele><time>2026-04-18T13:25:55.186Z</time></trkpt><trkpt lat="44.1453666" lon="12.1372164"><ele>231.5</ele><time>2026-04-18T13:25:56.186Z</time></trkpt><trkpt lat="44.1454126" lon="12.1370545"><ele>234.0</ele><time>2026-04-18T13:25:57.186Z</time></trkpt><trkpt lat="44.1454633" lon="12.136901"><ele>236.5</ele><time>2026-04-18T13:25:58.186Z</time></trkpt><trkpt lat="44.1455099" lon="12.136742"><ele>239.0</ele><time>2026-04-18T13:25:59.186Z</time></trkpt><trkpt lat="44.1455629" lon="12.1365864"><ele>239.75</ele><time>2026-04-18T13:26:00.186Z</time></trkpt><trkpt lat="44.145613" lon="12.1364286"><ele>240.5</ele><time>2026-04-18T13:26:01.186Z</time></trkpt><trkpt lat="44.1456717" lon="12.1362778"><ele>241.25</ele><time>2026-04-18T13:26:02.186Z</time></trkpt><trkpt lat="44.1457201" lon="12.1361295"><ele>242.0</ele><time>2026-04-18T13:26:03.186Z</time></trkpt><trkpt lat="44.1457611" lon="12.1359895"><ele>238.16666666666669</ele><time>2026-04-18T13:26:04.186Z</time></trkpt><trkpt lat="44.1457995" lon="12.1358631"><ele>234.33333333333334</ele><time>2026-04-18T13:26:05.186Z</time></trkpt><trkpt lat="44.145832" lon="12.135758"><ele>230.5</ele><time>2026-04-18T13:26:06.186Z</time></trkpt><trkpt lat="44.1458595" lon="12.1356709"><ele>226.66666666666669</ele><time>2026-04-18T13:26:07.185Z</time></trkpt><trkpt lat="44.1459019" lon="12.1355637"><ele>222.83333333333334</ele><time>2026-04-18T13:26:09.186Z</time></trkpt><trkpt lat="44.1459803" lon="12.1355828"><ele>219.0</ele><time>2026-04-18T13:26:12.186Z</time></trkpt><trkpt lat="44.146006" lon="12.1357308"><ele>218.33333333333334</ele><time>2026-04-18T13:26:14.186Z</time></trkpt><trkpt lat="44.1460171" lon="12.13583"><ele>217.66666666666669</ele><time>2026-04-18T13:26:15.186Z</time></trkpt><trkpt lat="44.1460327" lon="12.1359448"><ele>217.0</ele><time>2026-04-18T13:26:16.186Z</time></trkpt><trkpt lat="44.1460484" lon="12.136071"><ele>216.33333333333334</ele><time>2026-04-18T13:26:17.186Z</time></trkpt><trkpt lat="44.1460668" lon="12.1362004"><ele>215.66666666666669</ele><time>2026-04-18T13:26:18.185Z</time></trkpt><trkpt lat="44.1460815" lon="12.1363362"><ele>215.0</ele><time>2026-04-18T13:26:19.185Z</time></trkpt><trkpt lat="44.1460948" lon="12.1364687"><ele>214.00000000000003</ele><time>2026-04-18T13:26:20.186Z</time></trkpt><trkpt lat="44.1461037" lon="12.1365893"><ele>213.0</ele><time>2026-04-18T13:26:21.185Z</time></trkpt><trkpt lat="44.1461175" lon="12.1366954"><ele>212.0</ele><time>2026-04-18T13:26:22.186Z</time></trkpt><trkpt lat="44.1461504" lon="12.1368262"><ele>211.0</ele><time>2026-04-18T13:26:24.186Z</time></trkpt><trkpt lat="44.1462553" lon="12.1368462"><ele>210.00000000000003</ele><time>2026-04-18T13:26:26.186Z</time></trkpt><trkpt lat="44.1463256" lon="12.1368185"><ele>209.0</ele><time>2026-04-18T13:26:27.186Z</time></trkpt><trkpt lat="44.1464126" lon="12.1367809"><ele>209.0</ele><time>2026-04-18T13:26:28.186Z</time></trkpt><trkpt lat="44.1465031" lon="12.1367448"><ele>209.0</ele><time>2026-04-18T13:26:29.186Z</time></trkpt><trkpt lat="44.1466025" lon="12.1367099"><ele>209.0</ele><time>2026-04-18T13:26:30.186Z</time></trkpt><trkpt lat="44.1467123" lon="12.136672"><ele>209.0</ele><time>2026-04-18T13:26:31.186Z</time></trkpt><trkpt lat="44.1468266" lon="12.1366332"><ele>209.0</ele><time>2026-04-18T13:26:32.186Z</time></trkpt><trkpt lat="44.1469431" lon="12.1366004"><ele>207.75</ele><time>2026-04-18T13:26:33.186Z</time></trkpt><trkpt lat="44.1470683" lon="12.1365668"><ele>206.5</ele><time>2026-04-18T13:26:34.186Z</time></trkpt><trkpt lat="44.1471926" lon="12.1365342"><ele>205.25</ele><time>2026-04-18T13:26:35.185Z</time></trkpt><trkpt lat="44.1473066" lon="12.1365073"><ele>204.0</ele><time>2026-04-18T13:26:36.186Z</time></trkpt><trkpt lat="44.1474131" lon="12.1364912"><ele>202.6</ele><time>2026-04-18T13:26:37.186Z</time></trkpt><trkpt lat="44.1475214" lon="12.136503"><ele>201.2</ele><time>2026-04-18T13:26:38.185Z</time></trkpt><trkpt lat="44.1476272" lon="12.1365296"><ele>199.79999999999998</ele><time>2026-04-18T13:26:39.186Z</time></trkpt><trkpt lat="44.1477357" lon="12.1365562"><ele>198.39999999999998</ele><time>2026-04-18T13:26:40.186Z</time></trkpt><trkpt lat="44.1478515" lon="12.1365819"><ele>197.0</ele><time>2026-04-18T13:26:41.186Z</time></trkpt><trkpt lat="44.1479753" lon="12.1366127"><ele>193.25</ele><time>2026-04-18T13:26:42.186Z</time></trkpt><trkpt lat="44.1481001" lon="12.1366433"><ele>189.5</ele><time>2026-04-18T13:26:43.186Z</time></trkpt><trkpt lat="44.1482233" lon="12.1366758"><ele>185.75</ele><time>2026-04-18T13:26:44.185Z</time></trkpt><trkpt lat="44.1483466" lon="12.1367147"><ele>182.0</ele><time>2026-04-18T13:26:45.186Z</time></trkpt><trkpt lat="44.1484676" lon="12.1367662"><ele>181.75</ele><time>2026-04-18T13:26:46.185Z</time></trkpt><trkpt lat="44.1485859" lon="12.1368288"><ele>181.5</ele><time>2026-04-18T13:26:47.186Z</time></trkpt><trkpt lat="44.1487007" lon="12.1368997"><ele>181.25</ele><time>2026-04-18T13:26:48.186Z</time></trkpt><trkpt lat="44.1488168" lon="12.1369801"><ele>181.0</ele><time>2026-04-18T13:26:49.185Z</time></trkpt><trkpt lat="44.1489354" lon="12.1370734"><ele>180.5</ele><time>2026-04-18T13:26:50.186Z</time></trkpt><trkpt lat="44.1490522" lon="12.1371769"><ele>180.0</ele><time>2026-04-18T13:26:51.185Z</time></trkpt><trkpt lat="44.1491706" lon="12.1372929"><ele>179.5</ele><time>2026-04-18T13:26:52.186Z</time></trkpt><trkpt lat="44.1492808" lon="12.1374081"><ele>179.0</ele><time>2026-04-18T13:26:53.186Z</time></trkpt><trkpt lat="44.1493856" lon="12.137519"><ele>176.25</ele><time>2026-04-18T13:26:54.186Z</time></trkpt><trkpt lat="44.1494896" lon="12.1376268"><ele>173.5</ele><time>2026-04-18T13:26:55.186Z</time></trkpt><trkpt lat="44.1496012" lon="12.137739"><ele>170.75</ele><time>2026-04-18T13:26:56.186Z</time></trkpt><trkpt lat="44.1497185" lon="12.1378536"><ele>168.0</ele><time>2026-04-18T13:26:57.186Z</time></trkpt><trkpt lat="44.1498359" lon="12.1379716"><ele>169.0</ele><time>2026-04-18T13:26:58.186Z</time></trkpt><trkpt lat="44.1499473" lon="12.1380821"><ele>170.0</ele><time>2026-04-18T13:26:59.186Z</time></trkpt><trkpt lat="44.1500554" lon="12.1381929"><ele>171.0</ele><time>2026-04-18T13:27:00.186Z</time></trkpt><trkpt lat="44.1501573" lon="12.1383026"><ele>172.0</ele><time>2026-04-18T13:27:01.186Z</time></trkpt><trkpt lat="44.1502524" lon="12.1384072"><ele>170.2</ele><time>2026-04-18T13:27:02.186Z</time></trkpt><trkpt lat="44.1503458" lon="12.1385032"><ele>168.39999999999998</ele><time>2026-04-18T13:27:03.186Z</time></trkpt><trkpt lat="44.1504356" lon="12.1385966"><ele>166.60000000000002</ele><time>2026-04-18T13:27:04.186Z</time></trkpt><trkpt lat="44.1505232" lon="12.1386866"><ele>164.8</ele><time>2026-04-18T13:27:05.185Z</time></trkpt><trkpt lat="44.1506119" lon="12.1387772"><ele>163.0</ele><time>2026-04-18T13:27:06.186Z</time></trkpt><trkpt lat="44.1507035" lon="12.1388686"><ele>162.8</ele><time>2026-04-18T13:27:07.185Z</time></trkpt><trkpt lat="44.1507931" lon="12.1389581"><ele>162.60000000000002</ele><time>2026-04-18T13:27:08.185Z</time></trkpt><trkpt lat="44.1508785" lon="12.1390406"><ele>162.39999999999998</ele><time>2026-04-18T13:27:09.186Z</time></trkpt><trkpt lat="44.150962" lon="12.1391109"><ele>162.2</ele><time>2026-04-18T13:27:10.186Z</time></trkpt><trkpt lat="44.1510479" lon="12.1391498"><ele>162.0</ele><time>2026-04-18T13:27:11.186Z</time></trkpt><trkpt lat="44.1511351" lon="12.1391455"><ele>162.0</ele><time>2026-04-18T13:27:12.186Z</time></trkpt><trkpt lat="44.1512085" lon="12.1391214"><ele>162.0</ele><time>2026-04-18T13:27:13.186Z</time></trkpt><trkpt lat="44.1513105" lon="12.1390784"><ele>162.0</ele><time>2026-04-18T13:27:15.186Z</time></trkpt><trkpt lat="44.151385" lon="12.1390149"><ele>162.0</ele><time>2026-04-18T13:27:23.186Z</time></trkpt><trkpt lat="44.1514041" lon="12.1389126"><ele>162.0</ele><time>2026-04-18T13:27:25.186Z</time></trkpt><trkpt lat="44.1513865" lon="12.1388045"><ele>162.0</ele><time>2026-04-18T13:27:26.186Z</time></trkpt><trkpt lat="44.1513676" lon="12.1386995"><ele>163.39999999999998</ele><time>2026-04-18T13:27:27.186Z</time></trkpt><trkpt lat="44.1513505" lon="12.1385856"><ele>164.79999999999998</ele><time>2026-04-18T13:27:28.186Z</time></trkpt><trkpt lat="44.1513304" lon="12.1384547"><ele>166.2</ele><time>2026-04-18T13:27:29.186Z</time></trkpt><trkpt lat="44.1513076" lon="12.1383123"><ele>167.6</ele><time>2026-04-18T13:27:30.185Z</time></trkpt><trkpt lat="44.1512848" lon="12.1381725"><ele>169.0</ele><time>2026-04-18T13:27:31.186Z</time></trkpt><trkpt lat="44.151267" lon="12.1380343"><ele>170.16666666666669</ele><time>2026-04-18T13:27:32.186Z</time></trkpt><trkpt lat="44.1512465" lon="12.1379021"><ele>171.33333333333334</ele><time>2026-04-18T13:27:33.185Z</time></trkpt><trkpt lat="44.1512281" lon="12.1377877"><ele>172.5</ele><time>2026-04-18T13:27:34.186Z</time></trkpt><trkpt lat="44.1512124" lon="12.1377013"><ele>173.66666666666666</ele><time>2026-04-18T13:27:35.186Z</time></trkpt><trkpt lat="44.1512122" lon="12.1376048"><ele>174.83333333333331</ele><time>2026-04-18T13:27:37.185Z</time></trkpt><trkpt lat="44.1512886" lon="12.1375831"><ele>176.0</ele><time>2026-04-18T13:27:40.186Z</time></trkpt><trkpt lat="44.1513475" lon="12.1376489"><ele>176.0</ele><time>2026-04-18T13:27:41.186Z</time></trkpt><trkpt lat="44.1514372" lon="12.137762"><ele>176.0</ele><time>2026-04-18T13:27:42.185Z</time></trkpt><trkpt lat="44.1515622" lon="12.1379043"><ele>176.0</ele><time>2026-04-18T13:27:43.186Z</time></trkpt><trkpt lat="44.1516936" lon="12.1380443"><ele>176.0</ele><time>2026-04-18T13:27:44.185Z</time></trkpt><trkpt lat="44.1518165" lon="12.1381844"><ele>174.5</ele><time>2026-04-18T13:27:45.186Z</time></trkpt><trkpt lat="44.1519321" lon="12.1383151"><ele>173.0</ele><time>2026-04-18T13:27:46.186Z</time></trkpt><trkpt lat="44.1520371" lon="12.1384289"><ele>171.5</ele><time>2026-04-18T13:27:47.185Z</time></trkpt><trkpt lat="44.1521355" lon="12.1385297"><ele>170.0</ele><time>2026-04-18T13:27:48.186Z</time></trkpt><trkpt lat="44.1522327" lon="12.1386009"><ele>170.0</ele><time>2026-04-18T13:27:49.186Z</time></trkpt><trkpt lat="44.1523437" lon="12.1386215"><ele>170.0</ele><time>2026-04-18T13:27:50.186Z</time></trkpt><trkpt lat="44.1524425" lon="12.1386052"><ele>170.0</ele><time>2026-04-18T13:27:51.186Z</time></trkpt><trkpt lat="44.1525343" lon="12.1385465"><ele>170.0</ele><time>2026-04-18T13:27:52.186Z</time></trkpt><trkpt lat="44.152617" lon="12.1384616"><ele>170.0</ele><time>2026-04-18T13:27:53.186Z</time></trkpt><trkpt lat="44.1526752" lon="12.1383352"><ele>167.25</ele><time>2026-04-18T13:27:54.186Z</time></trkpt><trkpt lat="44.1527086" lon="12.1381857"><ele>164.5</ele><time>2026-04-18T13:27:55.186Z</time></trkpt><trkpt lat="44.1527135" lon="12.1380211"><ele>161.75</ele><time>2026-04-18T13:27:56.186Z</time></trkpt><trkpt lat="44.1526935" lon="12.137854"><ele>159.0</ele><time>2026-04-18T13:27:57.186Z</time></trkpt><trkpt lat="44.1526515" lon="12.1376771"><ele>159.0</ele><time>2026-04-18T13:27:58.186Z</time></trkpt><trkpt lat="44.1525943" lon="12.1374843"><ele>159.0</ele><time>2026-04-18T13:27:59.186Z</time></trkpt><trkpt lat="44.1525017" lon="12.1372947"><ele>159.0</ele><time>2026-04-18T13:28:00.186Z</time></trkpt><trkpt lat="44.1524071" lon="12.1370934"><ele>159.0</ele><time>2026-04-18T13:28:01.186Z</time></trkpt><trkpt lat="44.1523043" lon="12.1368938"><ele>159.0</ele><time>2026-04-18T13:28:02.186Z</time></trkpt><trkpt lat="44.1522052" lon="12.13671"><ele>159.0</ele><time>2026-04-18T13:28:03.186Z</time></trkpt><trkpt lat="44.1521104" lon="12.1365307"><ele>159.0</ele><time>2026-04-18T13:28:04.186Z</time></trkpt><trkpt lat="44.152023" lon="12.1363604"><ele>159.0</ele><time>2026-04-18T13:28:05.186Z</time></trkpt><trkpt lat="44.1519393" lon="12.1361961"><ele>159.0</ele><time>2026-04-18T13:28:06.186Z</time></trkpt><trkpt lat="44.1518681" lon="12.1360308"><ele>159.0</ele><time>2026-04-18T13:28:07.186Z</time></trkpt><trkpt lat="44.1518294" lon="12.1358535"><ele>158.25</ele><time>2026-04-18T13:28:08.186Z</time></trkpt><trkpt lat="44.1518186" lon="12.1356588"><ele>157.5</ele><time>2026-04-18T13:28:09.186Z</time></trkpt><trkpt lat="44.1518358" lon="12.1354613"><ele>156.75</ele><time>2026-04-18T13:28:10.186Z</time></trkpt><trkpt lat="44.1518866" lon="12.1352798"><ele>156.0</ele><time>2026-04-18T13:28:11.185Z</time></trkpt><trkpt lat="44.1519674" lon="12.1351113"><ele>156.0</ele><time>2026-04-18T13:28:12.186Z</time></trkpt><trkpt lat="44.1520668" lon="12.1349679"><ele>156.0</ele><time>2026-04-18T13:28:13.186Z</time></trkpt><trkpt lat="44.1521678" lon="12.1348433"><ele>156.0</ele><time>2026-04-18T13:28:14.185Z</time></trkpt><trkpt lat="44.1522584" lon="12.1347144"><ele>156.0</ele><time>2026-04-18T13:28:15.186Z</time></trkpt><trkpt lat="44.1523281" lon="12.1345635"><ele>154.75</ele><time>2026-04-18T13:28:16.186Z</time></trkpt><trkpt lat="44.1523813" lon="12.134385"><ele>153.5</ele><time>2026-04-18T13:28:17.186Z</time></trkpt><trkpt lat="44.1524229" lon="12.134192"><ele>152.25</ele><time>2026-04-18T13:28:18.186Z</time></trkpt><trkpt lat="44.152463" lon="12.1339955"><ele>151.0</ele><time>2026-04-18T13:28:19.186Z</time></trkpt><trkpt lat="44.152505" lon="12.1337979"><ele>150.25</ele><time>2026-04-18T13:28:20.186Z</time></trkpt><trkpt lat="44.1525463" lon="12.1336019"><ele>149.5</ele><time>2026-04-18T13:28:21.185Z</time></trkpt><trkpt lat="44.1525909" lon="12.1334077"><ele>148.75</ele><time>2026-04-18T13:28:22.186Z</time></trkpt><trkpt lat="44.1526439" lon="12.1332111"><ele>148.0</ele><time>2026-04-18T13:28:23.186Z</time></trkpt><trkpt lat="44.1527066" lon="12.1330136"><ele>148.0</ele><time>2026-04-18T13:28:24.186Z</time></trkpt><trkpt lat="44.1527825" lon="12.1328206"><ele>148.0</ele><time>2026-04-18T13:28:25.186Z</time></trkpt><trkpt lat="44.1528694" lon="12.1326389"><ele>148.0</ele><time>2026-04-18T13:28:26.186Z</time></trkpt><trkpt lat="44.1529707" lon="12.1324627"><ele>149.33333333333334</ele><time>2026-04-18T13:28:27.186Z</time></trkpt><trkpt lat="44.1530796" lon="12.1322855"><ele>150.66666666666666</ele><time>2026-04-18T13:28:28.186Z</time></trkpt><trkpt lat="44.1531899" lon="12.1321059"><ele>152.0</ele><time>2026-04-18T13:28:29.186Z</time></trkpt><trkpt lat="44.1533023" lon="12.1319249"><ele>145.66666666666666</ele><time>2026-04-18T13:28:30.186Z</time></trkpt><trkpt lat="44.1534165" lon="12.1317409"><ele>139.33333333333334</ele><time>2026-04-18T13:28:31.186Z</time></trkpt><trkpt lat="44.1535262" lon="12.1315589"><ele>133.0</ele><time>2026-04-18T13:28:32.185Z</time></trkpt><trkpt lat="44.1536345" lon="12.1313782"><ele>133.0</ele><time>2026-04-18T13:28:33.186Z</time></trkpt><trkpt lat="44.1537413" lon="12.1312021"><ele>133.0</ele><time>2026-04-18T13:28:34.185Z</time></trkpt><trkpt lat="44.1538469" lon="12.1310306"><ele>133.0</ele><time>2026-04-18T13:28:35.186Z</time></trkpt><trkpt lat="44.1539484" lon="12.1308646"><ele>128.66666666666669</ele><time>2026-04-18T13:28:36.186Z</time></trkpt><trkpt lat="44.154049" lon="12.1306991"><ele>124.33333333333334</ele><time>2026-04-18T13:28:37.185Z</time></trkpt><trkpt lat="44.154149" lon="12.1305369"><ele>120.0</ele><time>2026-04-18T13:28:38.186Z</time></trkpt><trkpt lat="44.1542453" lon="12.130384"><ele>120.0</ele><time>2026-04-18T13:28:39.186Z</time></trkpt><trkpt lat="44.1543399" lon="12.1302332"><ele>120.0</ele><time>2026-04-18T13:28:40.186Z</time></trkpt><trkpt lat="44.1544345" lon="12.1300861"><ele>120.0</ele><time>2026-04-18T13:28:41.186Z</time></trkpt><trkpt lat="44.154526" lon="12.1299384"><ele>120.0</ele><time>2026-04-18T13:28:42.186Z</time></trkpt><trkpt lat="44.1546085" lon="12.1297825"><ele>118.75</ele><time>2026-04-18T13:28:43.185Z</time></trkpt><trkpt lat="44.1546787" lon="12.1296099"><ele>117.5</ele><time>2026-04-18T13:28:44.186Z</time></trkpt><trkpt lat="44.1547314" lon="12.129417"><ele>116.25</ele><time>2026-04-18T13:28:45.186Z</time></trkpt><trkpt lat="44.1547619" lon="12.1292066"><ele>115.0</ele><time>2026-04-18T13:28:46.185Z</time></trkpt><trkpt lat="44.1547734" lon="12.1289881"><ele>113.25</ele><time>2026-04-18T13:28:47.186Z</time></trkpt><trkpt lat="44.1547757" lon="12.1287807"><ele>111.5</ele><time>2026-04-18T13:28:48.186Z</time></trkpt><trkpt lat="44.154777" lon="12.1285844"><ele>109.75</ele><time>2026-04-18T13:28:49.186Z</time></trkpt><trkpt lat="44.1547838" lon="12.1283977"><ele>108.0</ele><time>2026-04-18T13:28:50.186Z</time></trkpt><trkpt lat="44.1548058" lon="12.1282212"><ele>108.25</ele><time>2026-04-18T13:28:51.186Z</time></trkpt><trkpt lat="44.1548496" lon="12.1280503"><ele>108.5</ele><time>2026-04-18T13:28:52.186Z</time></trkpt><trkpt lat="44.1549184" lon="12.1278922"><ele>108.75</ele><time>2026-04-18T13:28:53.185Z</time></trkpt><trkpt lat="44.1550134" lon="12.1277562"><ele>109.0</ele><time>2026-04-18T13:28:54.186Z</time></trkpt><trkpt lat="44.1551289" lon="12.127641"><ele>109.0</ele><time>2026-04-18T13:28:55.185Z</time></trkpt><trkpt lat="44.1552573" lon="12.1275396"><ele>109.0</ele><time>2026-04-18T13:28:56.186Z</time></trkpt><trkpt lat="44.1553918" lon="12.1274402"><ele>109.0</ele><time>2026-04-18T13:28:57.186Z</time></trkpt><trkpt lat="44.1555335" lon="12.1273424"><ele>106.33333333333334</ele><time>2026-04-18T13:28:58.186Z</time></trkpt><trkpt lat="44.1556769" lon="12.1272512"><ele>103.66666666666666</ele><time>2026-04-18T13:28:59.186Z</time></trkpt><trkpt lat="44.1558204" lon="12.1271589"><ele>101.0</ele><time>2026-04-18T13:29:00.185Z</time></trkpt><trkpt lat="44.155964" lon="12.1270655"><ele>101.0</ele><time>2026-04-18T13:29:01.186Z</time></trkpt><trkpt lat="44.1561081" lon="12.1269719"><ele>101.0</ele><time>2026-04-18T13:29:02.186Z</time></trkpt><trkpt lat="44.1562563" lon="12.1268776"><ele>101.0</ele><time>2026-04-18T13:29:03.186Z</time></trkpt><trkpt lat="44.1564037" lon="12.1267798"><ele>101.33333333333333</ele><time>2026-04-18T13:29:04.186Z</time></trkpt><trkpt lat="44.1565472" lon="12.1266819"><ele>101.66666666666666</ele><time>2026-04-18T13:29:05.185Z</time></trkpt><trkpt lat="44.1566902" lon="12.126586"><ele>102.0</ele><time>2026-04-18T13:29:06.186Z</time></trkpt><trkpt lat="44.1568324" lon="12.126494"><ele>99.0</ele><time>2026-04-18T13:29:07.185Z</time></trkpt><trkpt lat="44.1569766" lon="12.1264003"><ele>96.0</ele><time>2026-04-18T13:29:08.186Z</time></trkpt><trkpt lat="44.1571232" lon="12.1263063"><ele>93.0</ele><time>2026-04-18T13:29:09.186Z</time></trkpt><trkpt lat="44.1572657" lon="12.1262213"><ele>92.75</ele><time>2026-04-18T13:29:10.185Z</time></trkpt><trkpt lat="44.1574072" lon="12.126152"><ele>92.5</ele><time>2026-04-18T13:29:11.186Z</time></trkpt><trkpt lat="44.1575516" lon="12.1261026"><ele>92.25</ele><time>2026-04-18T13:29:12.186Z</time></trkpt><trkpt lat="44.1576973" lon="12.1260815"><ele>92.0</ele><time>2026-04-18T13:29:13.186Z</time></trkpt><trkpt lat="44.1578461" lon="12.1260865"><ele>92.0</ele><time>2026-04-18T13:29:14.186Z</time></trkpt><trkpt lat="44.1579979" lon="12.126108"><ele>92.0</ele><time>2026-04-18T13:29:15.186Z</time></trkpt><trkpt lat="44.1581509" lon="12.1261322"><ele>92.0</ele><time>2026-04-18T13:29:16.186Z</time></trkpt><trkpt lat="44.1583014" lon="12.126152"><ele>90.75</ele><time>2026-04-18T13:29:17.186Z</time></trkpt><trkpt lat="44.1584473" lon="12.1261589"><ele>89.5</ele><time>2026-04-18T13:29:18.186Z</time></trkpt><trkpt lat="44.1585884" lon="12.1261276"><ele>88.25</ele><time>2026-04-18T13:29:19.186Z</time></trkpt><trkpt lat="44.1587275" lon="12.12605"><ele>87.0</ele><time>2026-04-18T13:29:20.186Z</time></trkpt><trkpt lat="44.1588594" lon="12.1259312"><ele>87.0</ele><time>2026-04-18T13:29:21.186Z</time></trkpt><trkpt lat="44.1589795" lon="12.125781"><ele>87.0</ele><time>2026-04-18T13:29:22.186Z</time></trkpt><trkpt lat="44.1590918" lon="12.1256267"><ele>87.0</ele><time>2026-04-18T13:29:23.186Z</time></trkpt><trkpt lat="44.1591995" lon="12.1254806"><ele>84.75</ele><time>2026-04-18T13:29:24.186Z</time></trkpt><trkpt lat="44.1593073" lon="12.1253404"><ele>82.5</ele><time>2026-04-18T13:29:25.186Z</time></trkpt><trkpt lat="44.1594162" lon="12.1252194"><ele>80.25</ele><time>2026-04-18T13:29:26.186Z</time></trkpt><trkpt lat="44.159539" lon="12.1251307"><ele>78.0</ele><time>2026-04-18T13:29:27.186Z</time></trkpt><trkpt lat="44.1596778" lon="12.1250767"><ele>78.0</ele><time>2026-04-18T13:29:28.186Z</time></trkpt><trkpt lat="44.1598274" lon="12.1250577"><ele>78.0</ele><time>2026-04-18T13:29:29.186Z</time></trkpt><trkpt lat="44.1599831" lon="12.1250527"><ele>78.0</ele><time>2026-04-18T13:29:30.186Z</time></trkpt><trkpt lat="44.1601445" lon="12.1250481"><ele>78.33333333333333</ele><time>2026-04-18T13:29:31.185Z</time></trkpt><trkpt lat="44.1603094" lon="12.1250511"><ele>78.66666666666666</ele><time>2026-04-18T13:29:32.186Z</time></trkpt><trkpt lat="44.1604755" lon="12.1250565"><ele>79.0</ele><time>2026-04-18T13:29:33.185Z</time></trkpt><trkpt lat="44.1606384" lon="12.1250561"><ele>78.0</ele><time>2026-04-18T13:29:34.185Z</time></trkpt><trkpt lat="44.1607906" lon="12.1250568"><ele>77.0</ele><time>2026-04-18T13:29:35.186Z</time></trkpt><trkpt lat="44.1609341" lon="12.1250591"><ele>76.0</ele><time>2026-04-18T13:29:36.186Z</time></trkpt><trkpt lat="44.1610689" lon="12.1250615"><ele>75.0</ele><time>2026-04-18T13:29:37.186Z</time></trkpt><trkpt lat="44.1611973" lon="12.1250646"><ele>75.0</ele><time>2026-04-18T13:29:38.185Z</time></trkpt><trkpt lat="44.161316" lon="12.1250668"><ele>75.0</ele><time>2026-04-18T13:29:39.186Z</time></trkpt><trkpt lat="44.1614147" lon="12.1250654"><ele>75.0</ele><time>2026-04-18T13:29:40.186Z</time></trkpt><trkpt lat="44.1614938" lon="12.1250649"><ele>75.0</ele><time>2026-04-18T13:29:41.185Z</time></trkpt><trkpt lat="44.1615815" lon="12.1250701"><ele>75.0</ele><time>2026-04-18T13:29:43.186Z</time></trkpt><trkpt lat="44.1616377" lon="12.1249719"><ele>73.4</ele><time>2026-04-18T13:29:46.186Z</time></trkpt><trkpt lat="44.1616422" lon="12.1248718"><ele>71.8</ele><time>2026-04-18T13:29:48.184Z</time></trkpt><trkpt lat="44.1615619" lon="12.1247569"><ele>70.2</ele><time>2026-04-18T13:29:50.186Z</time></trkpt><trkpt lat="44.1614867" lon="12.1246956"><ele>68.6</ele><time>2026-04-18T13:29:51.186Z</time></trkpt><trkpt lat="44.1613912" lon="12.1246333"><ele>67.0</ele><time>2026-04-18T13:29:52.185Z</time></trkpt><trkpt lat="44.1612897" lon="12.1245661"><ele>67.0</ele><time>2026-04-18T13:29:53.186Z</time></trkpt><trkpt lat="44.1611774" lon="12.1244876"><ele>67.0</ele><time>2026-04-18T13:29:54.186Z</time></trkpt><trkpt lat="44.1610658" lon="12.1244048"><ele>67.0</ele><time>2026-04-18T13:29:55.185Z</time></trkpt><trkpt lat="44.160962" lon="12.1243225"><ele>67.0</ele><time>2026-04-18T13:29:56.186Z</time></trkpt><trkpt lat="44.1608632" lon="12.1242382"><ele>67.0</ele><time>2026-04-18T13:29:57.186Z</time></trkpt><trkpt lat="44.1607677" lon="12.1241514"><ele>67.0</ele><time>2026-04-18T13:29:58.186Z</time></trkpt><trkpt lat="44.1606807" lon="12.1240681"><ele>67.0</ele><time>2026-04-18T13:29:59.184Z</time></trkpt><trkpt lat="44.160613" lon="12.1239961"><ele>67.0</ele><time>2026-04-18T13:30:00.186Z</time></trkpt><trkpt lat="44.1605591" lon="12.1239191"><ele>67.0</ele><time>2026-04-18T13:30:01.186Z</time></trkpt><trkpt lat="44.1605379" lon="12.1238304"><ele>67.0</ele><time>2026-04-18T13:30:02.186Z</time></trkpt><trkpt lat="44.1606135" lon="12.1236899"><ele>65.4</ele><time>2026-04-18T13:30:04.184Z</time></trkpt><trkpt lat="44.1606981" lon="12.123628"><ele>63.800000000000004</ele><time>2026-04-18T13:30:05.186Z</time></trkpt><trkpt lat="44.1607923" lon="12.1235643"><ele>62.2</ele><time>2026-04-18T13:30:06.186Z</time></trkpt><trkpt lat="44.1608802" lon="12.1235004"><ele>60.6</ele><time>2026-04-18T13:30:07.186Z</time></trkpt><trkpt lat="44.1609619" lon="12.1234312"><ele>59.0</ele><time>2026-04-18T13:30:08.186Z</time></trkpt><trkpt lat="44.1610216" lon="12.1233382"><ele>57.0</ele><time>2026-04-18T13:30:09.185Z</time></trkpt><trkpt lat="44.1610515" lon="12.1232175"><ele>55.0</ele><time>2026-04-18T13:30:10.186Z</time></trkpt><trkpt lat="44.1610647" lon="12.1230553"><ele>53.0</ele><time>2026-04-18T13:30:11.186Z</time></trkpt><trkpt lat="44.1610706" lon="12.1228813"><ele>51.0</ele><time>2026-04-18T13:30:12.186Z</time></trkpt><trkpt lat="44.1610819" lon="12.1226897"><ele>51.0</ele><time>2026-04-18T13:30:13.186Z</time></trkpt><trkpt lat="44.1610976" lon="12.1224996"><ele>51.0</ele><time>2026-04-18T13:30:14.186Z</time></trkpt><trkpt lat="44.1611148" lon="12.1223067"><ele>51.0</ele><time>2026-04-18T13:30:15.186Z</time></trkpt><trkpt lat="44.1611335" lon="12.1221104"><ele>51.0</ele><time>2026-04-18T13:30:16.186Z</time></trkpt><trkpt lat="44.1611561" lon="12.1219186"><ele>49.25</ele><time>2026-04-18T13:30:17.186Z</time></trkpt><trkpt lat="44.1611752" lon="12.1217356"><ele>47.5</ele><time>2026-04-18T13:30:18.185Z</time></trkpt><trkpt lat="44.1611957" lon="12.1215506"><ele>45.75</ele><time>2026-04-18T13:30:19.186Z</time></trkpt><trkpt lat="44.1612181" lon="12.1213684"><ele>44.0</ele><time>2026-04-18T13:30:20.186Z</time></trkpt><trkpt lat="44.1612458" lon="12.1211936"><ele>43.75</ele><time>2026-04-18T13:30:21.186Z</time></trkpt><trkpt lat="44.1612787" lon="12.1210273"><ele>43.5</ele><time>2026-04-18T13:30:22.186Z</time></trkpt><trkpt lat="44.161317" lon="12.1208655"><ele>43.25</ele><time>2026-04-18T13:30:23.186Z</time></trkpt><trkpt lat="44.1613597" lon="12.1207078"><ele>43.0</ele><time>2026-04-18T13:30:24.186Z</time></trkpt><trkpt lat="44.1614018" lon="12.1205548"><ele>43.0</ele><time>2026-04-18T13:30:25.186Z</time></trkpt><trkpt lat="44.1614412" lon="12.120407"><ele>43.0</ele><time>2026-04-18T13:30:26.186Z</time></trkpt><trkpt lat="44.1614767" lon="12.1202556"><ele>43.0</ele><time>2026-04-18T13:30:27.186Z</time></trkpt><trkpt lat="44.1614986" lon="12.1200937"><ele>43.0</ele><time>2026-04-18T13:30:28.186Z</time></trkpt><trkpt lat="44.1614993" lon="12.1199222"><ele>43.25</ele><time>2026-04-18T13:30:29.186Z</time></trkpt><trkpt lat="44.1614856" lon="12.1197609"><ele>43.5</ele><time>2026-04-18T13:30:30.186Z</time></trkpt><trkpt lat="44.1614662" lon="12.119601"><ele>43.75</ele><time>2026-04-18T13:30:31.186Z</time></trkpt><trkpt lat="44.161446" lon="12.1194394"><ele>44.0</ele><time>2026-04-18T13:30:32.186Z</time></trkpt><trkpt lat="44.1614231" lon="12.1192734"><ele>44.0</ele><time>2026-04-18T13:30:33.186Z</time></trkpt><trkpt lat="44.1613992" lon="12.1191082"><ele>44.0</ele><time>2026-04-18T13:30:34.186Z</time></trkpt><trkpt lat="44.1613761" lon="12.1189587"><ele>44.0</ele><time>2026-04-18T13:30:35.186Z</time></trkpt><trkpt lat="44.1613542" lon="12.1188175"><ele>44.0</ele><time>2026-04-18T13:30:36.185Z</time></trkpt><trkpt lat="44.1613337" lon="12.1186842"><ele>44.0</ele><time>2026-04-18T13:30:37.186Z</time></trkpt><trkpt lat="44.1613138" lon="12.1185528"><ele>44.166666666666664</ele><time>2026-04-18T13:30:38.186Z</time></trkpt><trkpt lat="44.1612946" lon="12.1184264"><ele>44.33333333333333</ele><time>2026-04-18T13:30:39.186Z</time></trkpt><trkpt lat="44.1612791" lon="12.1183121"><ele>44.5</ele><time>2026-04-18T13:30:40.186Z</time></trkpt><trkpt lat="44.1612665" lon="12.1182114"><ele>44.666666666666664</ele><time>2026-04-18T13:30:41.186Z</time></trkpt><trkpt lat="44.1612538" lon="12.1181198"><ele>44.833333333333336</ele><time>2026-04-18T13:30:42.186Z</time></trkpt><trkpt lat="44.1612322" lon="12.1179694"><ele>45.0</ele><time>2026-04-18T13:30:44.186Z</time></trkpt><trkpt lat="44.1612271" lon="12.1178664"><ele>46.5</ele><time>2026-04-18T13:30:46.186Z</time></trkpt><trkpt lat="44.1612773" lon="12.1177057"><ele>48.0</ele><time>2026-04-18T13:30:48.186Z</time></trkpt><trkpt lat="44.161341" lon="12.1176197"><ele>49.5</ele><time>2026-04-18T13:30:49.186Z</time></trkpt><trkpt lat="44.1614287" lon="12.1175279"><ele>51.0</ele><time>2026-04-18T13:30:50.186Z</time></trkpt><trkpt lat="44.1615308" lon="12.1174254"><ele>51.0</ele><time>2026-04-18T13:30:51.186Z</time></trkpt><trkpt lat="44.1616288" lon="12.1173182"><ele>51.0</ele><time>2026-04-18T13:30:52.186Z</time></trkpt><trkpt lat="44.1617364" lon="12.1171812"><ele>51.0</ele><time>2026-04-18T13:30:53.186Z</time></trkpt><trkpt lat="44.1618502" lon="12.1170126"><ele>51.0</ele><time>2026-04-18T13:30:54.186Z</time></trkpt><trkpt lat="44.161967" lon="12.116817"><ele>51.0</ele><time>2026-04-18T13:30:55.186Z</time></trkpt><trkpt lat="44.1620706" lon="12.1166317"><ele>51.0</ele><time>2026-04-18T13:30:56.185Z</time></trkpt><trkpt lat="44.162167" lon="12.1164369"><ele>51.0</ele><time>2026-04-18T13:30:57.186Z</time></trkpt><trkpt lat="44.1622462" lon="12.1162363"><ele>52.0</ele><time>2026-04-18T13:30:58.185Z</time></trkpt><trkpt lat="44.1623043" lon="12.1160148"><ele>53.0</ele><time>2026-04-18T13:30:59.186Z</time></trkpt><trkpt lat="44.1623434" lon="12.1157623"><ele>54.0</ele><time>2026-04-18T13:31:00.186Z</time></trkpt><trkpt lat="44.1623728" lon="12.1154954"><ele>54.0</ele><time>2026-04-18T13:31:01.186Z</time></trkpt><trkpt lat="44.1624011" lon="12.1152313"><ele>54.0</ele><time>2026-04-18T13:31:02.186Z</time></trkpt><trkpt lat="44.1624261" lon="12.1149741"><ele>54.0</ele><time>2026-04-18T13:31:03.185Z</time></trkpt><trkpt lat="44.1624486" lon="12.1147409"><ele>54.0</ele><time>2026-04-18T13:31:04.186Z</time></trkpt><trkpt lat="44.1624669" lon="12.1145262"><ele>54.0</ele><time>2026-04-18T13:31:05.186Z</time></trkpt><trkpt lat="44.1624848" lon="12.1143325"><ele>54.0</ele><time>2026-04-18T13:31:06.185Z</time></trkpt><trkpt lat="44.1624987" lon="12.1141577"><ele>54.0</ele><time>2026-04-18T13:31:07.186Z</time></trkpt><trkpt lat="44.1624981" lon="12.1139873"><ele>54.0</ele><time>2026-04-18T13:31:08.186Z</time></trkpt><trkpt lat="44.1624853" lon="12.1137979"><ele>54.0</ele><time>2026-04-18T13:31:09.186Z</time></trkpt><trkpt lat="44.1624606" lon="12.1135784"><ele>54.0</ele><time>2026-04-18T13:31:10.185Z</time></trkpt><trkpt lat="44.1624285" lon="12.1133528"><ele>55.0</ele><time>2026-04-18T13:31:11.185Z</time></trkpt><trkpt lat="44.1623842" lon="12.1131076"><ele>56.0</ele><time>2026-04-18T13:31:12.186Z</time></trkpt><trkpt lat="44.162328" lon="12.1128538"><ele>57.0</ele><time>2026-04-18T13:31:13.186Z</time></trkpt><trkpt lat="44.1622675" lon="12.1126123"><ele>54.33333333333333</ele><time>2026-04-18T13:31:14.186Z</time></trkpt><trkpt lat="44.1622079" lon="12.1123732"><ele>51.666666666666664</ele><time>2026-04-18T13:31:15.186Z</time></trkpt><trkpt lat="44.1621486" lon="12.1121394"><ele>49.0</ele><time>2026-04-18T13:31:16.186Z</time></trkpt><trkpt lat="44.1620936" lon="12.1119163"><ele>49.0</ele><time>2026-04-18T13:31:17.184Z</time></trkpt><trkpt lat="44.1620483" lon="12.1117131"><ele>49.0</ele><time>2026-04-18T13:31:18.186Z</time></trkpt><trkpt lat="44.162024" lon="12.1115328"><ele>49.0</ele><time>2026-04-18T13:31:19.186Z</time></trkpt><trkpt lat="44.1620354" lon="12.1113535"><ele>49.0</ele><time>2026-04-18T13:31:20.185Z</time></trkpt><trkpt lat="44.1620936" lon="12.1111754"><ele>46.666666666666664</ele><time>2026-04-18T13:31:21.186Z</time></trkpt><trkpt lat="44.1621773" lon="12.1109994"><ele>44.33333333333333</ele><time>2026-04-18T13:31:22.186Z</time></trkpt><trkpt lat="44.1622659" lon="12.1108134"><ele>42.0</ele><time>2026-04-18T13:31:23.185Z</time></trkpt><trkpt lat="44.1623431" lon="12.1106409"><ele>40.666666666666664</ele><time>2026-04-18T13:31:24.186Z</time></trkpt><trkpt lat="44.1624068" lon="12.110456"><ele>39.33333333333333</ele><time>2026-04-18T13:31:25.186Z</time></trkpt><trkpt lat="44.1624463" lon="12.1102492"><ele>38.0</ele><time>2026-04-18T13:31:26.186Z</time></trkpt><trkpt lat="44.1624563" lon="12.1100338"><ele>38.25</ele><time>2026-04-18T13:31:27.185Z</time></trkpt><trkpt lat="44.1624419" lon="12.1098191"><ele>38.5</ele><time>2026-04-18T13:31:28.186Z</time></trkpt><trkpt lat="44.1624184" lon="12.1096249"><ele>38.75</ele><time>2026-04-18T13:31:29.186Z</time></trkpt><trkpt lat="44.1623949" lon="12.1094528"><ele>39.0</ele><time>2026-04-18T13:31:30.185Z</time></trkpt><trkpt lat="44.1623829" lon="12.1093037"><ele>39.0</ele><time>2026-04-18T13:31:31.186Z</time></trkpt><trkpt lat="44.1623964" lon="12.10918"><ele>39.0</ele><time>2026-04-18T13:31:32.186Z</time></trkpt><trkpt lat="44.1624427" lon="12.1090616"><ele>39.0</ele><time>2026-04-18T13:31:33.186Z</time></trkpt><trkpt lat="44.162514" lon="12.1089415"><ele>39.0</ele><time>2026-04-18T13:31:34.186Z</time></trkpt><trkpt lat="44.1626067" lon="12.1088109"><ele>39.0</ele><time>2026-04-18T13:31:35.185Z</time></trkpt><trkpt lat="44.1627143" lon="12.108658"><ele>39.0</ele><time>2026-04-18T13:31:36.186Z</time></trkpt><trkpt lat="44.162824" lon="12.1084991"><ele>39.0</ele><time>2026-04-18T13:31:37.186Z</time></trkpt><trkpt lat="44.1629333" lon="12.1083405"><ele>39.0</ele><time>2026-04-18T13:31:38.186Z</time></trkpt><trkpt lat="44.1630475" lon="12.1081789"><ele>38.666666666666664</ele><time>2026-04-18T13:31:39.185Z</time></trkpt><trkpt lat="44.1631662" lon="12.1080146"><ele>38.33333333333333</ele><time>2026-04-18T13:31:40.185Z</time></trkpt><trkpt lat="44.1632845" lon="12.1078479"><ele>38.0</ele><time>2026-04-18T13:31:41.186Z</time></trkpt><trkpt lat="44.1634035" lon="12.107678"><ele>38.0</ele><time>2026-04-18T13:31:42.185Z</time></trkpt><trkpt lat="44.1635255" lon="12.1075048"><ele>38.0</ele><time>2026-04-18T13:31:43.186Z</time></trkpt><trkpt lat="44.1636507" lon="12.1073295"><ele>38.0</ele><time>2026-04-18T13:31:44.186Z</time></trkpt><trkpt lat="44.1637734" lon="12.1071545"><ele>37.666666666666664</ele><time>2026-04-18T13:31:45.185Z</time></trkpt><trkpt lat="44.1638963" lon="12.1069766"><ele>37.333333333333336</ele><time>2026-04-18T13:31:46.185Z</time></trkpt><trkpt lat="44.1640182" lon="12.1067949"><ele>37.0</ele><time>2026-04-18T13:31:47.186Z</time></trkpt><trkpt lat="44.1641374" lon="12.1066073"><ele>37.0</ele><time>2026-04-18T13:31:48.186Z</time></trkpt><trkpt lat="44.1642512" lon="12.1064143"><ele>37.0</ele><time>2026-04-18T13:31:49.186Z</time></trkpt><trkpt lat="44.1643592" lon="12.1062176"><ele>37.0</ele><time>2026-04-18T13:31:50.186Z</time></trkpt><trkpt lat="44.1644643" lon="12.1060202"><ele>37.0</ele><time>2026-04-18T13:31:51.186Z</time></trkpt><trkpt lat="44.1645676" lon="12.1058216"><ele>37.0</ele><time>2026-04-18T13:31:52.186Z</time></trkpt><trkpt lat="44.164672" lon="12.1056216"><ele>37.0</ele><time>2026-04-18T13:31:53.186Z</time></trkpt><trkpt lat="44.1647788" lon="12.1054175"><ele>37.0</ele><time>2026-04-18T13:31:54.186Z</time></trkpt><trkpt lat="44.1648863" lon="12.1052096"><ele>37.0</ele><time>2026-04-18T13:31:55.186Z</time></trkpt><trkpt lat="44.1649944" lon="12.1049929"><ele>37.0</ele><time>2026-04-18T13:31:56.185Z</time></trkpt><trkpt lat="44.1650964" lon="12.1047594"><ele>37.0</ele><time>2026-04-18T13:31:57.185Z</time></trkpt><trkpt lat="44.1651895" lon="12.1045081"><ele>37.0</ele><time>2026-04-18T13:31:58.186Z</time></trkpt><trkpt lat="44.1652814" lon="12.1042446"><ele>37.0</ele><time>2026-04-18T13:31:59.186Z</time></trkpt><trkpt lat="44.165376" lon="12.1039784"><ele>36.66666666666667</ele><time>2026-04-18T13:32:00.186Z</time></trkpt><trkpt lat="44.1654678" lon="12.1037192"><ele>36.333333333333336</ele><time>2026-04-18T13:32:01.186Z</time></trkpt><trkpt lat="44.1655588" lon="12.1034554"><ele>36.0</ele><time>2026-04-18T13:32:02.186Z</time></trkpt><trkpt lat="44.165648" lon="12.1031944"><ele>35.333333333333336</ele><time>2026-04-18T13:32:03.186Z</time></trkpt><trkpt lat="44.165737" lon="12.102936"><ele>34.66666666666667</ele><time>2026-04-18T13:32:04.186Z</time></trkpt><trkpt lat="44.1658271" lon="12.1026815"><ele>34.0</ele><time>2026-04-18T13:32:05.186Z</time></trkpt><trkpt lat="44.165916" lon="12.1024302"><ele>33.66666666666667</ele><time>2026-04-18T13:32:06.186Z</time></trkpt><trkpt lat="44.1660058" lon="12.1021822"><ele>33.333333333333336</ele><time>2026-04-18T13:32:07.185Z</time></trkpt><trkpt lat="44.1660921" lon="12.1019466"><ele>33.0</ele><time>2026-04-18T13:32:08.186Z</time></trkpt><trkpt lat="44.166175" lon="12.1017243"><ele>33.0</ele><time>2026-04-18T13:32:09.186Z</time></trkpt><trkpt lat="44.166251" lon="12.1015128"><ele>33.0</ele><time>2026-04-18T13:32:10.186Z</time></trkpt><trkpt lat="44.1663253" lon="12.1013173"><ele>33.0</ele><time>2026-04-18T13:32:11.186Z</time></trkpt><trkpt lat="44.1664052" lon="12.1011461"><ele>33.0</ele><time>2026-04-18T13:32:12.186Z</time></trkpt><trkpt lat="44.1664918" lon="12.1010057"><ele>33.0</ele><time>2026-04-18T13:32:13.186Z</time></trkpt><trkpt lat="44.1665831" lon="12.1009073"><ele>33.0</ele><time>2026-04-18T13:32:14.186Z</time></trkpt><trkpt lat="44.166678" lon="12.100855"><ele>33.0</ele><time>2026-04-18T13:32:15.185Z</time></trkpt><trkpt lat="44.1667708" lon="12.1008215"><ele>33.0</ele><time>2026-04-18T13:32:16.186Z</time></trkpt><trkpt lat="44.1668478" lon="12.1007649"><ele>33.5</ele><time>2026-04-18T13:32:17.186Z</time></trkpt><trkpt lat="44.1668932" lon="12.1006802"><ele>34.0</ele><time>2026-04-18T13:32:18.186Z</time></trkpt><trkpt lat="44.1669038" lon="12.1005825"><ele>34.5</ele><time>2026-04-18T13:32:19.186Z</time></trkpt><trkpt lat="44.1668762" lon="12.1004879"><ele>35.0</ele><time>2026-04-18T13:32:20.185Z</time></trkpt><trkpt lat="44.1668233" lon="12.1004098"><ele>35.5</ele><time>2026-04-18T13:32:21.186Z</time></trkpt><trkpt lat="44.1667468" lon="12.1003645"><ele>36.0</ele><time>2026-04-18T13:32:22.185Z</time></trkpt><trkpt lat="44.1666445" lon="12.100338"><ele>35.0</ele><time>2026-04-18T13:32:23.186Z</time></trkpt><trkpt lat="44.1665138" lon="12.1002884"><ele>34.0</ele><time>2026-04-18T13:32:24.186Z</time></trkpt><trkpt lat="44.1663559" lon="12.1001898"><ele>33.0</ele><time>2026-04-18T13:32:25.186Z</time></trkpt><trkpt lat="44.1661816" lon="12.1000669"><ele>33.0</ele><time>2026-04-18T13:32:26.186Z</time></trkpt><trkpt lat="44.165978" lon="12.0999255"><ele>33.0</ele><time>2026-04-18T13:32:27.186Z</time></trkpt><trkpt lat="44.1657541" lon="12.0997648"><ele>31.0</ele><time>2026-04-18T13:32:28.186Z</time></trkpt><trkpt lat="44.1655124" lon="12.0995914"><ele>29.0</ele><time>2026-04-18T13:32:29.185Z</time></trkpt><trkpt lat="44.165254" lon="12.0994034"><ele>29.0</ele><time>2026-04-18T13:32:30.186Z</time></trkpt><trkpt lat="44.1649837" lon="12.0992051"><ele>29.0</ele><time>2026-04-18T13:32:31.186Z</time></trkpt><trkpt lat="44.1647038" lon="12.0989992"><ele>29.0</ele><time>2026-04-18T13:32:32.186Z</time></trkpt><trkpt lat="44.1644212" lon="12.0987913"><ele>29.0</ele><time>2026-04-18T13:32:33.186Z</time></trkpt><trkpt lat="44.1641609" lon="12.0985992"><ele>29.5</ele><time>2026-04-18T13:32:34.186Z</time></trkpt><trkpt lat="44.1639125" lon="12.0984154"><ele>30.0</ele><time>2026-04-18T13:32:35.186Z</time></trkpt><trkpt lat="44.1636729" lon="12.0982392"><ele>29.0</ele><time>2026-04-18T13:32:36.186Z</time></trkpt><trkpt lat="44.1634375" lon="12.0980685"><ele>28.0</ele><time>2026-04-18T13:32:37.185Z</time></trkpt><trkpt lat="44.1632073" lon="12.0978996"><ele>29.5</ele><time>2026-04-18T13:32:38.186Z</time></trkpt><trkpt lat="44.1629763" lon="12.097732"><ele>31.0</ele><time>2026-04-18T13:32:39.186Z</time></trkpt><trkpt lat="44.1627413" lon="12.0975613"><ele>31.5</ele><time>2026-04-18T13:32:40.186Z</time></trkpt><trkpt lat="44.1625061" lon="12.097389"><ele>32.0</ele><time>2026-04-18T13:32:41.185Z</time></trkpt><trkpt lat="44.1622755" lon="12.0972182"><ele>32.0</ele><time>2026-04-18T13:32:42.186Z</time></trkpt><trkpt lat="44.1620456" lon="12.0970487"><ele>32.0</ele><time>2026-04-18T13:32:43.186Z</time></trkpt><trkpt lat="44.1618153" lon="12.096881"><ele>32.0</ele><time>2026-04-18T13:32:44.186Z</time></trkpt><trkpt lat="44.1615904" lon="12.0967146"><ele>32.0</ele><time>2026-04-18T13:32:45.186Z</time></trkpt><trkpt lat="44.1613641" lon="12.0965468"><ele>31.0</ele><time>2026-04-18T13:32:46.186Z</time></trkpt><trkpt lat="44.1611356" lon="12.0963772"><ele>30.0</ele><time>2026-04-18T13:32:47.186Z</time></trkpt><trkpt lat="44.1609095" lon="12.096209"><ele>31.0</ele><time>2026-04-18T13:32:48.186Z</time></trkpt><trkpt lat="44.1606884" lon="12.096045"><ele>32.0</ele><time>2026-04-18T13:32:49.186Z</time></trkpt><trkpt lat="44.1604747" lon="12.0958836"><ele>31.5</ele><time>2026-04-18T13:32:50.185Z</time></trkpt><trkpt lat="44.1602657" lon="12.095726"><ele>31.0</ele><time>2026-04-18T13:32:51.185Z</time></trkpt><trkpt lat="44.1600598" lon="12.0955709"><ele>31.5</ele><time>2026-04-18T13:32:52.186Z</time></trkpt><trkpt lat="44.1598576" lon="12.0954151"><ele>32.0</ele><time>2026-04-18T13:32:53.186Z</time></trkpt><trkpt lat="44.1596568" lon="12.0952613"><ele>32.0</ele><time>2026-04-18T13:32:54.186Z</time></trkpt><trkpt lat="44.1594577" lon="12.0951101"><ele>32.0</ele><time>2026-04-18T13:32:55.186Z</time></trkpt><trkpt lat="44.1592586" lon="12.0949609"><ele>32.0</ele><time>2026-04-18T13:32:56.186Z</time></trkpt><trkpt lat="44.1590548" lon="12.0948144"><ele>32.0</ele><time>2026-04-18T13:32:57.186Z</time></trkpt><trkpt lat="44.15884" lon="12.094664"><ele>32.0</ele><time>2026-04-18T13:32:58.186Z</time></trkpt><trkpt lat="44.158615" lon="12.0945091"><ele>32.0</ele><time>2026-04-18T13:32:59.186Z</time></trkpt><trkpt lat="44.1583805" lon="12.0943453"><ele>31.5</ele><time>2026-04-18T13:33:00.186Z</time></trkpt><trkpt lat="44.1581387" lon="12.0941748"><ele>31.0</ele><time>2026-04-18T13:33:01.185Z</time></trkpt><trkpt lat="44.1578955" lon="12.0940013"><ele>31.0</ele><time>2026-04-18T13:33:02.186Z</time></trkpt><trkpt lat="44.1576514" lon="12.0938245"><ele>31.0</ele><time>2026-04-18T13:33:03.186Z</time></trkpt><trkpt lat="44.1574068" lon="12.0936475"><ele>31.5</ele><time>2026-04-18T13:33:04.185Z</time></trkpt><trkpt lat="44.1571666" lon="12.0934732"><ele>32.0</ele><time>2026-04-18T13:33:05.186Z</time></trkpt><trkpt lat="44.156931" lon="12.0932992"><ele>31.0</ele><time>2026-04-18T13:33:06.186Z</time></trkpt><trkpt lat="44.1567016" lon="12.0931281"><ele>30.0</ele><time>2026-04-18T13:33:07.186Z</time></trkpt><trkpt lat="44.1564855" lon="12.092962"><ele>32.0</ele><time>2026-04-18T13:33:08.186Z</time></trkpt><trkpt lat="44.1562783" lon="12.0927933"><ele>34.0</ele><time>2026-04-18T13:33:09.186Z</time></trkpt><trkpt lat="44.156079" lon="12.0926172"><ele>34.0</ele><time>2026-04-18T13:33:10.185Z</time></trkpt><trkpt lat="44.1558899" lon="12.0924361"><ele>34.0</ele><time>2026-04-18T13:33:11.186Z</time></trkpt><trkpt lat="44.1557072" lon="12.0922476"><ele>34.0</ele><time>2026-04-18T13:33:12.185Z</time></trkpt><trkpt lat="44.1555277" lon="12.092051"><ele>34.0</ele><time>2026-04-18T13:33:13.186Z</time></trkpt><trkpt lat="44.1553579" lon="12.0918523"><ele>34.0</ele><time>2026-04-18T13:33:14.186Z</time></trkpt><trkpt lat="44.1552016" lon="12.091656"><ele>34.0</ele><time>2026-04-18T13:33:15.185Z</time></trkpt><trkpt lat="44.1550525" lon="12.0914485"><ele>34.0</ele><time>2026-04-18T13:33:16.186Z</time></trkpt><trkpt lat="44.1549055" lon="12.0912335"><ele>34.0</ele><time>2026-04-18T13:33:17.186Z</time></trkpt><trkpt lat="44.1547573" lon="12.0910117"><ele>34.0</ele><time>2026-04-18T13:33:18.186Z</time></trkpt><trkpt lat="44.1546097" lon="12.0907828"><ele>34.0</ele><time>2026-04-18T13:33:19.186Z</time></trkpt><trkpt lat="44.1544615" lon="12.0905522"><ele>33.66666666666667</ele><time>2026-04-18T13:33:20.185Z</time></trkpt><trkpt lat="44.1543138" lon="12.090322"><ele>33.333333333333336</ele><time>2026-04-18T13:33:21.186Z</time></trkpt><trkpt lat="44.1541689" lon="12.0900939"><ele>33.0</ele><time>2026-04-18T13:33:22.186Z</time></trkpt><trkpt lat="44.1540253" lon="12.0898685"><ele>32.666666666666664</ele><time>2026-04-18T13:33:23.186Z</time></trkpt><trkpt lat="44.1538804" lon="12.0896437"><ele>32.33333333333333</ele><time>2026-04-18T13:33:24.186Z</time></trkpt><trkpt lat="44.153734" lon="12.0894163"><ele>32.0</ele><time>2026-04-18T13:33:25.186Z</time></trkpt><trkpt lat="44.1535873" lon="12.0891855"><ele>33.0</ele><time>2026-04-18T13:33:26.186Z</time></trkpt><trkpt lat="44.1534376" lon="12.0889437"><ele>34.0</ele><time>2026-04-18T13:33:27.186Z</time></trkpt><trkpt lat="44.1532861" lon="12.0887021"><ele>34.5</ele><time>2026-04-18T13:33:28.186Z</time></trkpt><trkpt lat="44.1531352" lon="12.0884653"><ele>35.0</ele><time>2026-04-18T13:33:29.185Z</time></trkpt><trkpt lat="44.152984" lon="12.0882322"><ele>35.0</ele><time>2026-04-18T13:33:30.186Z</time></trkpt><trkpt lat="44.1528363" lon="12.0880014"><ele>35.0</ele><time>2026-04-18T13:33:31.186Z</time></trkpt><trkpt lat="44.152693" lon="12.087776"><ele>35.0</ele><time>2026-04-18T13:33:32.186Z</time></trkpt><trkpt lat="44.1525515" lon="12.0875531"><ele>35.33333333333333</ele><time>2026-04-18T13:33:33.186Z</time></trkpt><trkpt lat="44.1524117" lon="12.0873325"><ele>35.666666666666664</ele><time>2026-04-18T13:33:34.186Z</time></trkpt><trkpt lat="44.1522733" lon="12.0871128"><ele>36.0</ele><time>2026-04-18T13:33:35.185Z</time></trkpt><trkpt lat="44.1521345" lon="12.0868923"><ele>36.0</ele><time>2026-04-18T13:33:36.186Z</time></trkpt><trkpt lat="44.1519946" lon="12.0866742"><ele>36.0</ele><time>2026-04-18T13:33:37.186Z</time></trkpt><trkpt lat="44.1518564" lon="12.0864573"><ele>36.0</ele><time>2026-04-18T13:33:38.185Z</time></trkpt><trkpt lat="44.1517204" lon="12.086242"><ele>37.0</ele><time>2026-04-18T13:33:39.186Z</time></trkpt><trkpt lat="44.1515876" lon="12.0860292"><ele>38.0</ele><time>2026-04-18T13:33:40.186Z</time></trkpt><trkpt lat="44.1514593" lon="12.0858216"><ele>39.0</ele><time>2026-04-18T13:33:41.186Z</time></trkpt><trkpt lat="44.1513399" lon="12.0856257"><ele>40.0</ele><time>2026-04-18T13:33:42.186Z</time></trkpt><trkpt lat="44.1512302" lon="12.085439"><ele>41.0</ele><time>2026-04-18T13:33:43.185Z</time></trkpt><trkpt lat="44.1511315" lon="12.0852634"><ele>42.0</ele><time>2026-04-18T13:33:44.186Z</time></trkpt><trkpt lat="44.1510494" lon="12.0851011"><ele>42.0</ele><time>2026-04-18T13:33:45.186Z</time></trkpt><trkpt lat="44.1509832" lon="12.0849495"><ele>42.0</ele><time>2026-04-18T13:33:46.185Z</time></trkpt><trkpt lat="44.1509348" lon="12.0848108"><ele>42.0</ele><time>2026-04-18T13:33:47.186Z</time></trkpt><trkpt lat="44.1509084" lon="12.084669"><ele>42.0</ele><time>2026-04-18T13:33:48.186Z</time></trkpt><trkpt lat="44.1509023" lon="12.0845291"><ele>42.0</ele><time>2026-04-18T13:33:49.186Z</time></trkpt><trkpt lat="44.1508811" lon="12.0843939"><ele>42.0</ele><time>2026-04-18T13:33:50.186Z</time></trkpt><trkpt lat="44.1508298" lon="12.0842678"><ele>42.0</ele><time>2026-04-18T13:33:51.186Z</time></trkpt><trkpt lat="44.1507497" lon="12.0841701"><ele>42.0</ele><time>2026-04-18T13:33:52.186Z</time></trkpt><trkpt lat="44.1506549" lon="12.0840853"><ele>42.0</ele><time>2026-04-18T13:33:53.185Z</time></trkpt><trkpt lat="44.1505703" lon="12.0839535"><ele>42.0</ele><time>2026-04-18T13:33:54.185Z</time></trkpt><trkpt lat="44.1504838" lon="12.0837637"><ele>42.0</ele><time>2026-04-18T13:33:55.185Z</time></trkpt><trkpt lat="44.1503957" lon="12.0835266"><ele>42.0</ele><time>2026-04-18T13:33:56.186Z</time></trkpt><trkpt lat="44.1503022" lon="12.0832428"><ele>42.0</ele><time>2026-04-18T13:33:57.186Z</time></trkpt><trkpt lat="44.1501988" lon="12.0829285"><ele>42.0</ele><time>2026-04-18T13:33:58.186Z</time></trkpt><trkpt lat="44.1500861" lon="12.0825846"><ele>42.0</ele><time>2026-04-18T13:33:59.186Z</time></trkpt><trkpt lat="44.1499638" lon="12.0822191"><ele>42.0</ele><time>2026-04-18T13:34:00.186Z</time></trkpt><trkpt lat="44.1498356" lon="12.0818336"><ele>42.5</ele><time>2026-04-18T13:34:01.186Z</time></trkpt><trkpt lat="44.1497026" lon="12.0814334"><ele>43.0</ele><time>2026-04-18T13:34:02.185Z</time></trkpt><trkpt lat="44.1495693" lon="12.0810149"><ele>43.0</ele><time>2026-04-18T13:34:03.186Z</time></trkpt><trkpt lat="44.1494314" lon="12.0805836"><ele>43.0</ele><time>2026-04-18T13:34:04.185Z</time></trkpt><trkpt lat="44.1492893" lon="12.0801456"><ele>42.5</ele><time>2026-04-18T13:34:05.186Z</time></trkpt><trkpt lat="44.1491448" lon="12.0797"><ele>42.0</ele><time>2026-04-18T13:34:06.186Z</time></trkpt><trkpt lat="44.1489981" lon="12.0792465"><ele>43.5</ele><time>2026-04-18T13:34:07.185Z</time></trkpt><trkpt lat="44.1488528" lon="12.0787943"><ele>45.0</ele><time>2026-04-18T13:34:08.186Z</time></trkpt><trkpt lat="44.1487187" lon="12.0783755"><ele>45.0</ele><time>2026-04-18T13:34:09.186Z</time></trkpt><trkpt lat="44.1485879" lon="12.077967"><ele>45.0</ele><time>2026-04-18T13:34:10.186Z</time></trkpt><trkpt lat="44.148458" lon="12.0775721"><ele>44.5</ele><time>2026-04-18T13:34:11.186Z</time></trkpt><trkpt lat="44.1483332" lon="12.0771878"><ele>44.0</ele><time>2026-04-18T13:34:12.186Z</time></trkpt><trkpt lat="44.1482165" lon="12.0768135"><ele>45.0</ele><time>2026-04-18T13:34:13.186Z</time></trkpt><trkpt lat="44.1481011" lon="12.0764527"><ele>46.0</ele><time>2026-04-18T13:34:14.185Z</time></trkpt><trkpt lat="44.1479872" lon="12.0761078"><ele>46.0</ele><time>2026-04-18T13:34:15.186Z</time></trkpt><trkpt lat="44.1478801" lon="12.0757833"><ele>46.0</ele><time>2026-04-18T13:34:16.186Z</time></trkpt><trkpt lat="44.1477764" lon="12.0754663"><ele>46.0</ele><time>2026-04-18T13:34:17.185Z</time></trkpt><trkpt lat="44.1476752" lon="12.0751565"><ele>46.0</ele><time>2026-04-18T13:34:18.186Z</time></trkpt><trkpt lat="44.1475771" lon="12.0748581"><ele>46.5</ele><time>2026-04-18T13:34:19.186Z</time></trkpt><trkpt lat="44.1474813" lon="12.074567"><ele>47.0</ele><time>2026-04-18T13:34:20.186Z</time></trkpt><trkpt lat="44.1473875" lon="12.0742858"><ele>46.666666666666664</ele><time>2026-04-18T13:34:21.186Z</time></trkpt><trkpt lat="44.1472922" lon="12.0740238"><ele>46.333333333333336</ele><time>2026-04-18T13:34:22.186Z</time></trkpt><trkpt lat="44.1471932" lon="12.0737699"><ele>46.0</ele><time>2026-04-18T13:34:23.186Z</time></trkpt><trkpt lat="44.1470944" lon="12.0735335"><ele>46.0</ele><time>2026-04-18T13:34:24.186Z</time></trkpt><trkpt lat="44.1469971" lon="12.0733142"><ele>46.0</ele><time>2026-04-18T13:34:25.186Z</time></trkpt><trkpt lat="44.1469095" lon="12.0731083"><ele>46.0</ele><time>2026-04-18T13:34:26.186Z</time></trkpt><trkpt lat="44.1468413" lon="12.0729121"><ele>46.25</ele><time>2026-04-18T13:34:27.186Z</time></trkpt><trkpt lat="44.1468032" lon="12.072733"><ele>46.5</ele><time>2026-04-18T13:34:28.186Z</time></trkpt><trkpt lat="44.1467871" lon="12.0725677"><ele>46.75</ele><time>2026-04-18T13:34:29.185Z</time></trkpt><trkpt lat="44.146799" lon="12.0724237"><ele>47.0</ele><time>2026-04-18T13:34:30.186Z</time></trkpt><trkpt lat="44.1468533" lon="12.0722744"><ele>47.0</ele><time>2026-04-18T13:34:31.186Z</time></trkpt><trkpt lat="44.1469232" lon="12.0721496"><ele>47.0</ele><time>2026-04-18T13:34:32.185Z</time></trkpt><trkpt lat="44.1469772" lon="12.0720311"><ele>47.0</ele><time>2026-04-18T13:34:33.185Z</time></trkpt><trkpt lat="44.1470045" lon="12.0719068"><ele>47.0</ele><time>2026-04-18T13:34:34.186Z</time></trkpt><trkpt lat="44.1470068" lon="12.0717729"><ele>47.0</ele><time>2026-04-18T13:34:35.186Z</time></trkpt><trkpt lat="44.1469785" lon="12.07165"><ele>47.2</ele><time>2026-04-18T13:34:36.186Z</time></trkpt><trkpt lat="44.1469313" lon="12.0715436"><ele>47.400000000000006</ele><time>2026-04-18T13:34:37.186Z</time></trkpt><trkpt lat="44.1468799" lon="12.0714232"><ele>47.599999999999994</ele><time>2026-04-18T13:34:38.186Z</time></trkpt><trkpt lat="44.146835" lon="12.0712751"><ele>47.8</ele><time>2026-04-18T13:34:39.185Z</time></trkpt><trkpt lat="44.1468125" lon="12.0710948"><ele>48.0</ele><time>2026-04-18T13:34:40.186Z</time></trkpt><trkpt lat="44.1468095" lon="12.070883"><ele>48.33333333333333</ele><time>2026-04-18T13:34:41.186Z</time></trkpt><trkpt lat="44.1468171" lon="12.070658"><ele>48.666666666666664</ele><time>2026-04-18T13:34:42.185Z</time></trkpt><trkpt lat="44.146829" lon="12.0704307"><ele>49.0</ele><time>2026-04-18T13:34:43.186Z</time></trkpt><trkpt lat="44.1468417" lon="12.070192"><ele>49.0</ele><time>2026-04-18T13:34:44.186Z</time></trkpt><trkpt lat="44.1468562" lon="12.0699492"><ele>49.0</ele><time>2026-04-18T13:34:45.186Z</time></trkpt><trkpt lat="44.1468723" lon="12.069706"><ele>49.0</ele><time>2026-04-18T13:34:46.186Z</time></trkpt><trkpt lat="44.1468889" lon="12.0694696"><ele>49.0</ele><time>2026-04-18T13:34:47.186Z</time></trkpt><trkpt lat="44.1469042" lon="12.0692484"><ele>49.0</ele><time>2026-04-18T13:34:48.186Z</time></trkpt><trkpt lat="44.1469194" lon="12.0690428"><ele>49.0</ele><time>2026-04-18T13:34:49.185Z</time></trkpt><trkpt lat="44.1469359" lon="12.0688449"><ele>49.6</ele><time>2026-04-18T13:34:50.185Z</time></trkpt><trkpt lat="44.1469567" lon="12.0686648"><ele>50.2</ele><time>2026-04-18T13:34:51.185Z</time></trkpt><trkpt lat="44.1469806" lon="12.0685002"><ele>50.800000000000004</ele><time>2026-04-18T13:34:52.186Z</time></trkpt><trkpt lat="44.1470061" lon="12.0683598"><ele>51.400000000000006</ele><time>2026-04-18T13:34:53.185Z</time></trkpt><trkpt lat="44.147032" lon="12.0682504"><ele>52.0</ele><time>2026-04-18T13:34:54.186Z</time></trkpt><trkpt lat="44.1470681" lon="12.0681626"><ele>52.400000000000006</ele><time>2026-04-18T13:34:55.185Z</time></trkpt><trkpt lat="44.1471139" lon="12.0680981"><ele>52.800000000000004</ele><time>2026-04-18T13:34:56.186Z</time></trkpt><trkpt lat="44.1472025" lon="12.0680043"><ele>53.2</ele><time>2026-04-18T13:34:58.186Z</time></trkpt><trkpt lat="44.1472588" lon="12.0678464"><ele>53.6</ele><time>2026-04-18T13:35:00.186Z</time></trkpt><trkpt lat="44.147259" lon="12.0677353"><ele>54.0</ele><time>2026-04-18T13:35:01.185Z</time></trkpt><trkpt lat="44.1472496" lon="12.0676153"><ele>54.0</ele><time>2026-04-18T13:35:02.185Z</time></trkpt><trkpt lat="44.1472605" lon="12.0674722"><ele>54.0</ele><time>2026-04-18T13:35:03.184Z</time></trkpt><trkpt lat="44.1473079" lon="12.0673052"><ele>54.0</ele><time>2026-04-18T13:35:04.186Z</time></trkpt><trkpt lat="44.1473799" lon="12.0671329"><ele>54.0</ele><time>2026-04-18T13:35:05.186Z</time></trkpt><trkpt lat="44.1474645" lon="12.0669705"><ele>54.0</ele><time>2026-04-18T13:35:06.186Z</time></trkpt><trkpt lat="44.147557" lon="12.0668109"><ele>54.0</ele><time>2026-04-18T13:35:07.186Z</time></trkpt><trkpt lat="44.1476547" lon="12.0666572"><ele>54.0</ele><time>2026-04-18T13:35:08.185Z</time></trkpt><trkpt lat="44.1477692" lon="12.0664897"><ele>53.66666666666667</ele><time>2026-04-18T13:35:09.186Z</time></trkpt><trkpt lat="44.1479005" lon="12.0662985"><ele>53.333333333333336</ele><time>2026-04-18T13:35:10.186Z</time></trkpt><trkpt lat="44.1480451" lon="12.0660806"><ele>53.0</ele><time>2026-04-18T13:35:11.186Z</time></trkpt><trkpt lat="44.1482016" lon="12.0658444"><ele>54.5</ele><time>2026-04-18T13:35:12.186Z</time></trkpt><trkpt lat="44.1483714" lon="12.0655824"><ele>56.0</ele><time>2026-04-18T13:35:13.186Z</time></trkpt><trkpt lat="44.1485464" lon="12.0653"><ele>56.0</ele><time>2026-04-18T13:35:14.186Z</time></trkpt><trkpt lat="44.14874" lon="12.0650126"><ele>56.0</ele><time>2026-04-18T13:35:15.186Z</time></trkpt><trkpt lat="44.1489522" lon="12.0647405"><ele>58.5</ele><time>2026-04-18T13:35:16.186Z</time></trkpt><trkpt lat="44.1491757" lon="12.0644925"><ele>61.0</ele><time>2026-04-18T13:35:17.186Z</time></trkpt><trkpt lat="44.149396" lon="12.0642674"><ele>62.5</ele><time>2026-04-18T13:35:18.186Z</time></trkpt><trkpt lat="44.1496015" lon="12.0640559"><ele>64.0</ele><time>2026-04-18T13:35:19.186Z</time></trkpt><trkpt lat="44.1497988" lon="12.0638511"><ele>65.0</ele><time>2026-04-18T13:35:20.186Z</time></trkpt><trkpt lat="44.1499796" lon="12.063659"><ele>66.0</ele><time>2026-04-18T13:35:21.186Z</time></trkpt><trkpt lat="44.1501398" lon="12.0634749"><ele>67.0</ele><time>2026-04-18T13:35:22.186Z</time></trkpt><trkpt lat="44.1502763" lon="12.0632777"><ele>67.0</ele><time>2026-04-18T13:35:23.186Z</time></trkpt><trkpt lat="44.15039" lon="12.0630578"><ele>67.0</ele><time>2026-04-18T13:35:24.186Z</time></trkpt><trkpt lat="44.1504831" lon="12.062827"><ele>67.0</ele><time>2026-04-18T13:35:25.185Z</time></trkpt><trkpt lat="44.1505602" lon="12.0625923"><ele>66.66666666666666</ele><time>2026-04-18T13:35:26.186Z</time></trkpt><trkpt lat="44.1506272" lon="12.0623787"><ele>66.33333333333333</ele><time>2026-04-18T13:35:27.186Z</time></trkpt><trkpt lat="44.1507015" lon="12.0621619"><ele>66.0</ele><time>2026-04-18T13:35:28.186Z</time></trkpt><trkpt lat="44.1507836" lon="12.0619458"><ele>67.66666666666667</ele><time>2026-04-18T13:35:29.186Z</time></trkpt><trkpt lat="44.1508727" lon="12.0617346"><ele>69.33333333333334</ele><time>2026-04-18T13:35:30.186Z</time></trkpt><trkpt lat="44.1509638" lon="12.0615264"><ele>71.0</ele><time>2026-04-18T13:35:31.186Z</time></trkpt><trkpt lat="44.1510529" lon="12.0613209"><ele>71.0</ele><time>2026-04-18T13:35:32.186Z</time></trkpt><trkpt lat="44.1511398" lon="12.0611196"><ele>71.0</ele><time>2026-04-18T13:35:33.186Z</time></trkpt><trkpt lat="44.1512265" lon="12.0609211"><ele>71.0</ele><time>2026-04-18T13:35:34.186Z</time></trkpt><trkpt lat="44.1513149" lon="12.0607229"><ele>69.66666666666667</ele><time>2026-04-18T13:35:35.186Z</time></trkpt><trkpt lat="44.1514033" lon="12.0605232"><ele>68.33333333333333</ele><time>2026-04-18T13:35:36.186Z</time></trkpt><trkpt lat="44.1514959" lon="12.060316"><ele>67.0</ele><time>2026-04-18T13:35:37.185Z</time></trkpt><trkpt lat="44.1515892" lon="12.0601079"><ele>69.33333333333333</ele><time>2026-04-18T13:35:38.186Z</time></trkpt><trkpt lat="44.1516806" lon="12.0599106"><ele>71.66666666666667</ele><time>2026-04-18T13:35:39.185Z</time></trkpt><trkpt lat="44.1517738" lon="12.0597187"><ele>74.0</ele><time>2026-04-18T13:35:40.186Z</time></trkpt><trkpt lat="44.1518726" lon="12.0595357"><ele>74.0</ele><time>2026-04-18T13:35:41.185Z</time></trkpt><trkpt lat="44.151976" lon="12.0593682"><ele>74.0</ele><time>2026-04-18T13:35:42.186Z</time></trkpt><trkpt lat="44.1520821" lon="12.0592165"><ele>74.0</ele><time>2026-04-18T13:35:43.185Z</time></trkpt><trkpt lat="44.1521926" lon="12.0590729"><ele>73.0</ele><time>2026-04-18T13:35:44.186Z</time></trkpt><trkpt lat="44.1523095" lon="12.0589319"><ele>72.0</ele><time>2026-04-18T13:35:45.185Z</time></trkpt><trkpt lat="44.1524301" lon="12.0587926"><ele>71.0</ele><time>2026-04-18T13:35:46.186Z</time></trkpt><trkpt lat="44.1525546" lon="12.058653"><ele>73.33333333333334</ele><time>2026-04-18T13:35:47.186Z</time></trkpt><trkpt lat="44.1526793" lon="12.0585129"><ele>75.66666666666667</ele><time>2026-04-18T13:35:48.185Z</time></trkpt><trkpt lat="44.1528044" lon="12.0583735"><ele>78.0</ele><time>2026-04-18T13:35:49.186Z</time></trkpt><trkpt lat="44.1529305" lon="12.0582339"><ele>78.0</ele><time>2026-04-18T13:35:50.186Z</time></trkpt><trkpt lat="44.1530555" lon="12.058093"><ele>78.0</ele><time>2026-04-18T13:35:51.186Z</time></trkpt><trkpt lat="44.1531814" lon="12.0579469"><ele>78.0</ele><time>2026-04-18T13:35:52.185Z</time></trkpt><trkpt lat="44.1533054" lon="12.0577916"><ele>79.33333333333333</ele><time>2026-04-18T13:35:53.184Z</time></trkpt><trkpt lat="44.1534251" lon="12.0576257"><ele>80.66666666666666</ele><time>2026-04-18T13:35:54.185Z</time></trkpt><trkpt lat="44.1535392" lon="12.0574471"><ele>82.0</ele><time>2026-04-18T13:35:55.185Z</time></trkpt><trkpt lat="44.1536444" lon="12.0572597"><ele>82.0</ele><time>2026-04-18T13:35:56.186Z</time></trkpt><trkpt lat="44.1537409" lon="12.0570698"><ele>82.0</ele><time>2026-04-18T13:35:57.186Z</time></trkpt><trkpt lat="44.1538311" lon="12.0568759"><ele>82.0</ele><time>2026-04-18T13:35:58.186Z</time></trkpt><trkpt lat="44.1539161" lon="12.0566801"><ele>81.66666666666666</ele><time>2026-04-18T13:35:59.185Z</time></trkpt><trkpt lat="44.1539985" lon="12.0564829"><ele>81.33333333333333</ele><time>2026-04-18T13:36:00.186Z</time></trkpt><trkpt lat="44.1540856" lon="12.0562861"><ele>81.0</ele><time>2026-04-18T13:36:01.186Z</time></trkpt><trkpt lat="44.1541833" lon="12.0560965"><ele>80.66666666666667</ele><time>2026-04-18T13:36:02.186Z</time></trkpt><trkpt lat="44.1542924" lon="12.0559199"><ele>80.33333333333334</ele><time>2026-04-18T13:36:03.186Z</time></trkpt><trkpt lat="44.1544135" lon="12.0557608"><ele>80.0</ele><time>2026-04-18T13:36:04.186Z</time></trkpt><trkpt lat="44.154545" lon="12.0556158"><ele>80.33333333333334</ele><time>2026-04-18T13:36:05.186Z</time></trkpt><trkpt lat="44.1546892" lon="12.0554798"><ele>80.66666666666667</ele><time>2026-04-18T13:36:06.185Z</time></trkpt><trkpt lat="44.154838" lon="12.0553549"><ele>81.0</ele><time>2026-04-18T13:36:07.186Z</time></trkpt><trkpt lat="44.1549901" lon="12.0552352"><ele>81.0</ele><time>2026-04-18T13:36:08.186Z</time></trkpt><trkpt lat="44.1551392" lon="12.055124"><ele>81.0</ele><time>2026-04-18T13:36:09.186Z</time></trkpt><trkpt lat="44.1552849" lon="12.0550146"><ele>81.0</ele><time>2026-04-18T13:36:10.186Z</time></trkpt><trkpt lat="44.1554317" lon="12.0549071"><ele>81.66666666666667</ele><time>2026-04-18T13:36:11.186Z</time></trkpt><trkpt lat="44.1555736" lon="12.0548034"><ele>82.33333333333334</ele><time>2026-04-18T13:36:12.186Z</time></trkpt><trkpt lat="44.1557183" lon="12.0546987"><ele>83.0</ele><time>2026-04-18T13:36:13.186Z</time></trkpt><trkpt lat="44.1558655" lon="12.0545953"><ele>83.0</ele><time>2026-04-18T13:36:14.186Z</time></trkpt><trkpt lat="44.1560135" lon="12.0544918"><ele>83.0</ele><time>2026-04-18T13:36:15.186Z</time></trkpt><trkpt lat="44.1561642" lon="12.0543947"><ele>83.0</ele><time>2026-04-18T13:36:16.186Z</time></trkpt><trkpt lat="44.1563211" lon="12.0543149"><ele>83.0</ele><time>2026-04-18T13:36:17.186Z</time></trkpt><trkpt lat="44.1564842" lon="12.0542515"><ele>83.0</ele><time>2026-04-18T13:36:18.186Z</time></trkpt><trkpt lat="44.1566529" lon="12.0542026"><ele>83.0</ele><time>2026-04-18T13:36:19.186Z</time></trkpt><trkpt lat="44.1568196" lon="12.0541651"><ele>82.33333333333334</ele><time>2026-04-18T13:36:20.186Z</time></trkpt><trkpt lat="44.1569805" lon="12.0541344"><ele>81.66666666666667</ele><time>2026-04-18T13:36:21.185Z</time></trkpt><trkpt lat="44.1571372" lon="12.0541076"><ele>81.0</ele><time>2026-04-18T13:36:22.185Z</time></trkpt><trkpt lat="44.1572886" lon="12.054086"><ele>80.75</ele><time>2026-04-18T13:36:23.184Z</time></trkpt><trkpt lat="44.1574376" lon="12.0540641"><ele>80.5</ele><time>2026-04-18T13:36:24.185Z</time></trkpt><trkpt lat="44.157579" lon="12.0540411"><ele>80.25</ele><time>2026-04-18T13:36:25.186Z</time></trkpt><trkpt lat="44.157701" lon="12.0540218"><ele>80.0</ele><time>2026-04-18T13:36:26.186Z</time></trkpt><trkpt lat="44.1577983" lon="12.0540071"><ele>80.0</ele><time>2026-04-18T13:36:27.186Z</time></trkpt><trkpt lat="44.1578693" lon="12.053999"><ele>80.0</ele><time>2026-04-18T13:36:28.186Z</time></trkpt><trkpt lat="44.1579529" lon="12.053999"><ele>80.0</ele><time>2026-04-18T13:36:30.186Z</time></trkpt><trkpt lat="44.1580293" lon="12.0540112"><ele>80.0</ele><time>2026-04-18T13:36:33.186Z</time></trkpt><trkpt lat="44.1581504" lon="12.0539433"><ele>80.0</ele><time>2026-04-18T13:36:57.186Z</time></trkpt><trkpt lat="44.1582422" lon="12.0539296"><ele>79.4</ele><time>2026-04-18T13:36:58.186Z</time></trkpt><trkpt lat="44.1583325" lon="12.0539153"><ele>78.8</ele><time>2026-04-18T13:36:59.185Z</time></trkpt><trkpt lat="44.1584396" lon="12.0538963"><ele>78.2</ele><time>2026-04-18T13:37:00.186Z</time></trkpt><trkpt lat="44.1585569" lon="12.0538739"><ele>77.6</ele><time>2026-04-18T13:37:01.185Z</time></trkpt><trkpt lat="44.1586748" lon="12.0538559"><ele>77.0</ele><time>2026-04-18T13:37:02.186Z</time></trkpt><trkpt lat="44.1587911" lon="12.0538396"><ele>77.0</ele><time>2026-04-18T13:37:03.186Z</time></trkpt><trkpt lat="44.1589103" lon="12.0538226"><ele>77.0</ele><time>2026-04-18T13:37:04.186Z</time></trkpt><trkpt lat="44.1590346" lon="12.0538028"><ele>77.0</ele><time>2026-04-18T13:37:05.186Z</time></trkpt><trkpt lat="44.1591691" lon="12.053782"><ele>77.0</ele><time>2026-04-18T13:37:06.186Z</time></trkpt><trkpt lat="44.1593154" lon="12.053759"><ele>76.5</ele><time>2026-04-18T13:37:07.185Z</time></trkpt><trkpt lat="44.1594561" lon="12.0537368"><ele>76.0</ele><time>2026-04-18T13:37:08.185Z</time></trkpt><trkpt lat="44.1596031" lon="12.0537134"><ele>75.5</ele><time>2026-04-18T13:37:09.186Z</time></trkpt><trkpt lat="44.1597513" lon="12.0536874"><ele>75.0</ele><time>2026-04-18T13:37:10.186Z</time></trkpt><trkpt lat="44.1599015" lon="12.0536606"><ele>74.66666666666667</ele><time>2026-04-18T13:37:11.185Z</time></trkpt><trkpt lat="44.1600538" lon="12.053634"><ele>74.33333333333334</ele><time>2026-04-18T13:37:12.185Z</time></trkpt><trkpt lat="44.1602031" lon="12.0536114"><ele>74.0</ele><time>2026-04-18T13:37:13.185Z</time></trkpt><trkpt lat="44.1603596" lon="12.0535983"><ele>74.0</ele><time>2026-04-18T13:37:14.185Z</time></trkpt><trkpt lat="44.1605188" lon="12.0535958"><ele>74.0</ele><time>2026-04-18T13:37:15.185Z</time></trkpt><trkpt lat="44.160679" lon="12.0536069"><ele>74.0</ele><time>2026-04-18T13:37:16.185Z</time></trkpt><trkpt lat="44.1608451" lon="12.0536332"><ele>73.66666666666667</ele><time>2026-04-18T13:37:17.185Z</time></trkpt><trkpt lat="44.1610142" lon="12.0536722"><ele>73.33333333333333</ele><time>2026-04-18T13:37:18.184Z</time></trkpt><trkpt lat="44.161183" lon="12.0537207"><ele>73.0</ele><time>2026-04-18T13:37:19.184Z</time></trkpt><trkpt lat="44.1613498" lon="12.0537724"><ele>73.0</ele><time>2026-04-18T13:37:20.185Z</time></trkpt><trkpt lat="44.161517" lon="12.0538239"><ele>73.0</ele><time>2026-04-18T13:37:21.185Z</time></trkpt><trkpt lat="44.1616894" lon="12.0538715"><ele>73.0</ele><time>2026-04-18T13:37:22.185Z</time></trkpt><trkpt lat="44.1618671" lon="12.0539097"><ele>72.33333333333333</ele><time>2026-04-18T13:37:23.184Z</time></trkpt><trkpt lat="44.1620501" lon="12.0539398"><ele>71.66666666666667</ele><time>2026-04-18T13:37:24.184Z</time></trkpt><trkpt lat="44.1622351" lon="12.0539634"><ele>71.0</ele><time>2026-04-18T13:37:25.185Z</time></trkpt><trkpt lat="44.1624189" lon="12.0539819"><ele>70.66666666666667</ele><time>2026-04-18T13:37:26.185Z</time></trkpt><trkpt lat="44.1626033" lon="12.0539991"><ele>70.33333333333333</ele><time>2026-04-18T13:37:27.185Z</time></trkpt><trkpt lat="44.1627852" lon="12.0540114"><ele>70.0</ele><time>2026-04-18T13:37:28.185Z</time></trkpt><trkpt lat="44.1629557" lon="12.0540197"><ele>70.0</ele><time>2026-04-18T13:37:29.184Z</time></trkpt><trkpt lat="44.1631199" lon="12.0540258"><ele>70.0</ele><time>2026-04-18T13:37:30.185Z</time></trkpt><trkpt lat="44.1632894" lon="12.054023"><ele>70.0</ele><time>2026-04-18T13:37:31.185Z</time></trkpt><trkpt lat="44.1634635" lon="12.0540038"><ele>69.0</ele><time>2026-04-18T13:37:32.184Z</time></trkpt><trkpt lat="44.1636405" lon="12.0539627"><ele>68.0</ele><time>2026-04-18T13:37:33.185Z</time></trkpt><trkpt lat="44.1638198" lon="12.0538872"><ele>67.0</ele><time>2026-04-18T13:37:34.185Z</time></trkpt><trkpt lat="44.1639961" lon="12.053788"><ele>66.0</ele><time>2026-04-18T13:37:35.184Z</time></trkpt><trkpt lat="44.1641588" lon="12.0536616"><ele>65.0</ele><time>2026-04-18T13:37:36.184Z</time></trkpt><trkpt lat="44.1643141" lon="12.0535105"><ele>64.0</ele><time>2026-04-18T13:37:37.185Z</time></trkpt><trkpt lat="44.1644626" lon="12.0533405"><ele>64.33333333333333</ele><time>2026-04-18T13:37:38.185Z</time></trkpt><trkpt lat="44.1646051" lon="12.0531637"><ele>64.66666666666667</ele><time>2026-04-18T13:37:39.185Z</time></trkpt><trkpt lat="44.1647439" lon="12.0529855"><ele>65.0</ele><time>2026-04-18T13:37:40.184Z</time></trkpt><trkpt lat="44.1648797" lon="12.0528096"><ele>65.33333333333334</ele><time>2026-04-18T13:37:41.185Z</time></trkpt><trkpt lat="44.1650145" lon="12.0526376"><ele>65.66666666666667</ele><time>2026-04-18T13:37:42.184Z</time></trkpt><trkpt lat="44.1651506" lon="12.0524692"><ele>66.0</ele><time>2026-04-18T13:37:43.185Z</time></trkpt><trkpt lat="44.165291" lon="12.0523073"><ele>65.33333333333333</ele><time>2026-04-18T13:37:44.185Z</time></trkpt><trkpt lat="44.1654366" lon="12.0521526"><ele>64.66666666666666</ele><time>2026-04-18T13:37:45.185Z</time></trkpt><trkpt lat="44.165588" lon="12.0519972"><ele>64.0</ele><time>2026-04-18T13:37:46.184Z</time></trkpt><trkpt lat="44.1657397" lon="12.0518503"><ele>64.0</ele><time>2026-04-18T13:37:47.185Z</time></trkpt><trkpt lat="44.1658888" lon="12.0517083"><ele>64.0</ele><time>2026-04-18T13:37:48.185Z</time></trkpt><trkpt lat="44.1660388" lon="12.0515692"><ele>64.0</ele><time>2026-04-18T13:37:49.185Z</time></trkpt><trkpt lat="44.1661869" lon="12.0514311"><ele>63.0</ele><time>2026-04-18T13:37:50.185Z</time></trkpt><trkpt lat="44.1663342" lon="12.0512923"><ele>62.0</ele><time>2026-04-18T13:37:51.185Z</time></trkpt><trkpt lat="44.1664806" lon="12.0511491"><ele>61.0</ele><time>2026-04-18T13:37:52.185Z</time></trkpt><trkpt lat="44.1666223" lon="12.0510008"><ele>60.666666666666664</ele><time>2026-04-18T13:37:53.185Z</time></trkpt><trkpt lat="44.1667648" lon="12.0508308"><ele>60.33333333333333</ele><time>2026-04-18T13:37:54.184Z</time></trkpt><trkpt lat="44.1669128" lon="12.0506413"><ele>60.0</ele><time>2026-04-18T13:37:55.185Z</time></trkpt><trkpt lat="44.1670659" lon="12.0504368"><ele>59.0</ele><time>2026-04-18T13:37:56.185Z</time></trkpt><trkpt lat="44.1672215" lon="12.0502272"><ele>58.0</ele><time>2026-04-18T13:37:57.185Z</time></trkpt><trkpt lat="44.1673813" lon="12.0500148"><ele>57.0</ele><time>2026-04-18T13:37:58.185Z</time></trkpt><trkpt lat="44.1675437" lon="12.0498011"><ele>54.66666666666667</ele><time>2026-04-18T13:37:59.185Z</time></trkpt><trkpt lat="44.1677025" lon="12.0495941"><ele>52.333333333333336</ele><time>2026-04-18T13:38:00.185Z</time></trkpt><trkpt lat="44.1678606" lon="12.04939"><ele>50.0</ele><time>2026-04-18T13:38:01.185Z</time></trkpt><trkpt lat="44.1680226" lon="12.0491837"><ele>49.0</ele><time>2026-04-18T13:38:02.185Z</time></trkpt><trkpt lat="44.1681951" lon="12.0489879"><ele>48.0</ele><time>2026-04-18T13:38:03.184Z</time></trkpt><trkpt lat="44.1683941" lon="12.0488137"><ele>48.0</ele><time>2026-04-18T13:38:04.185Z</time></trkpt><trkpt lat="44.1686003" lon="12.0486462"><ele>48.0</ele><time>2026-04-18T13:38:05.185Z</time></trkpt><trkpt lat="44.1688081" lon="12.0484871"><ele>48.0</ele><time>2026-04-18T13:38:06.185Z</time></trkpt><trkpt lat="44.1690188" lon="12.0483289"><ele>48.0</ele><time>2026-04-18T13:38:07.185Z</time></trkpt><trkpt lat="44.1692303" lon="12.0481642"><ele>48.5</ele><time>2026-04-18T13:38:08.184Z</time></trkpt><trkpt lat="44.1694413" lon="12.0479991"><ele>49.0</ele><time>2026-04-18T13:38:09.185Z</time></trkpt><trkpt lat="44.169653" lon="12.0478381"><ele>48.5</ele><time>2026-04-18T13:38:10.185Z</time></trkpt><trkpt lat="44.169864" lon="12.0476839"><ele>48.0</ele><time>2026-04-18T13:38:11.185Z</time></trkpt><trkpt lat="44.1700738" lon="12.0475342"><ele>48.0</ele><time>2026-04-18T13:38:12.183Z</time></trkpt><trkpt lat="44.1702816" lon="12.0473866"><ele>48.0</ele><time>2026-04-18T13:38:13.185Z</time></trkpt><trkpt lat="44.1704861" lon="12.0472357"><ele>48.0</ele><time>2026-04-18T13:38:14.185Z</time></trkpt><trkpt lat="44.1706899" lon="12.0470793"><ele>48.0</ele><time>2026-04-18T13:38:15.185Z</time></trkpt><trkpt lat="44.1708958" lon="12.0469186"><ele>47.5</ele><time>2026-04-18T13:38:16.184Z</time></trkpt><trkpt lat="44.1711029" lon="12.0467595"><ele>47.0</ele><time>2026-04-18T13:38:17.185Z</time></trkpt><trkpt lat="44.1713092" lon="12.0466013"><ele>46.5</ele><time>2026-04-18T13:38:18.185Z</time></trkpt><trkpt lat="44.1715128" lon="12.0464444"><ele>46.0</ele><time>2026-04-18T13:38:19.185Z</time></trkpt><trkpt lat="44.1717122" lon="12.0462835"><ele>45.5</ele><time>2026-04-18T13:38:20.184Z</time></trkpt><trkpt lat="44.1719099" lon="12.0461246"><ele>45.0</ele><time>2026-04-18T13:38:21.184Z</time></trkpt><trkpt lat="44.1721052" lon="12.0459647"><ele>45.0</ele><time>2026-04-18T13:38:22.185Z</time></trkpt><trkpt lat="44.1722981" lon="12.0458045"><ele>45.0</ele><time>2026-04-18T13:38:23.184Z</time></trkpt><trkpt lat="44.1724939" lon="12.045648"><ele>44.5</ele><time>2026-04-18T13:38:24.185Z</time></trkpt><trkpt lat="44.1726928" lon="12.0454941"><ele>44.0</ele><time>2026-04-18T13:38:25.185Z</time></trkpt><trkpt lat="44.1728947" lon="12.0453399"><ele>44.0</ele><time>2026-04-18T13:38:26.185Z</time></trkpt><trkpt lat="44.173096" lon="12.0451857"><ele>44.0</ele><time>2026-04-18T13:38:27.184Z</time></trkpt><trkpt lat="44.1732963" lon="12.0450311"><ele>44.0</ele><time>2026-04-18T13:38:28.185Z</time></trkpt><trkpt lat="44.1734945" lon="12.0448795"><ele>44.0</ele><time>2026-04-18T13:38:29.185Z</time></trkpt><trkpt lat="44.1736901" lon="12.0447313"><ele>44.0</ele><time>2026-04-18T13:38:30.185Z</time></trkpt><trkpt lat="44.1738831" lon="12.0445824"><ele>44.0</ele><time>2026-04-18T13:38:31.184Z</time></trkpt><trkpt lat="44.1740743" lon="12.0444362"><ele>44.0</ele><time>2026-04-18T13:38:32.185Z</time></trkpt><trkpt lat="44.1742645" lon="12.0442899"><ele>44.0</ele><time>2026-04-18T13:38:33.184Z</time></trkpt><trkpt lat="44.1744553" lon="12.0441375"><ele>44.0</ele><time>2026-04-18T13:38:34.185Z</time></trkpt><trkpt lat="44.1746429" lon="12.0439894"><ele>44.0</ele><time>2026-04-18T13:38:35.185Z</time></trkpt><trkpt lat="44.174825" lon="12.0438482"><ele>44.0</ele><time>2026-04-18T13:38:36.185Z</time></trkpt><trkpt lat="44.1750031" lon="12.0437102"><ele>44.0</ele><time>2026-04-18T13:38:37.185Z</time></trkpt><trkpt lat="44.1751777" lon="12.0435757"><ele>44.0</ele><time>2026-04-18T13:38:38.185Z</time></trkpt><trkpt lat="44.1753494" lon="12.0434461"><ele>44.0</ele><time>2026-04-18T13:38:39.184Z</time></trkpt><trkpt lat="44.175513" lon="12.0433205"><ele>44.0</ele><time>2026-04-18T13:38:40.185Z</time></trkpt><trkpt lat="44.1756675" lon="12.0432021"><ele>44.0</ele><time>2026-04-18T13:38:41.185Z</time></trkpt><trkpt lat="44.1758199" lon="12.0430866"><ele>44.0</ele><time>2026-04-18T13:38:42.185Z</time></trkpt><trkpt lat="44.1759662" lon="12.0429743"><ele>44.33333333333333</ele><time>2026-04-18T13:38:43.185Z</time></trkpt><trkpt lat="44.1761059" lon="12.0428709"><ele>44.666666666666664</ele><time>2026-04-18T13:38:44.185Z</time></trkpt><trkpt lat="44.1762411" lon="12.0427732"><ele>45.0</ele><time>2026-04-18T13:38:45.185Z</time></trkpt><trkpt lat="44.1763762" lon="12.0426811"><ele>45.0</ele><time>2026-04-18T13:38:46.185Z</time></trkpt><trkpt lat="44.1765159" lon="12.0425974"><ele>45.0</ele><time>2026-04-18T13:38:47.185Z</time></trkpt><trkpt lat="44.1766567" lon="12.0425216"><ele>45.0</ele><time>2026-04-18T13:38:48.185Z</time></trkpt><trkpt lat="44.1768065" lon="12.0424469"><ele>44.666666666666664</ele><time>2026-04-18T13:38:49.184Z</time></trkpt><trkpt lat="44.1769594" lon="12.042374"><ele>44.33333333333333</ele><time>2026-04-18T13:38:50.185Z</time></trkpt><trkpt lat="44.1771142" lon="12.0423063"><ele>44.0</ele><time>2026-04-18T13:38:51.184Z</time></trkpt><trkpt lat="44.1772704" lon="12.0422445"><ele>43.666666666666664</ele><time>2026-04-18T13:38:52.185Z</time></trkpt><trkpt lat="44.1774255" lon="12.0421889"><ele>43.333333333333336</ele><time>2026-04-18T13:38:53.185Z</time></trkpt><trkpt lat="44.1775782" lon="12.0421343"><ele>43.0</ele><time>2026-04-18T13:38:54.185Z</time></trkpt><trkpt lat="44.177731" lon="12.0420804"><ele>43.0</ele><time>2026-04-18T13:38:55.185Z</time></trkpt><trkpt lat="44.1778813" lon="12.0420263"><ele>43.0</ele><time>2026-04-18T13:38:56.184Z</time></trkpt><trkpt lat="44.1780322" lon="12.0419688"><ele>43.0</ele><time>2026-04-18T13:38:57.185Z</time></trkpt><trkpt lat="44.178183" lon="12.0419119"><ele>43.0</ele><time>2026-04-18T13:38:58.185Z</time></trkpt><trkpt lat="44.1783374" lon="12.0418587"><ele>43.0</ele><time>2026-04-18T13:38:59.185Z</time></trkpt><trkpt lat="44.1784888" lon="12.0418052"><ele>43.0</ele><time>2026-04-18T13:39:00.185Z</time></trkpt><trkpt lat="44.1786327" lon="12.0417492"><ele>43.0</ele><time>2026-04-18T13:39:01.185Z</time></trkpt><trkpt lat="44.1787754" lon="12.0416928"><ele>43.0</ele><time>2026-04-18T13:39:02.185Z</time></trkpt><trkpt lat="44.1789163" lon="12.0416401"><ele>43.0</ele><time>2026-04-18T13:39:03.185Z</time></trkpt><trkpt lat="44.1790482" lon="12.041593"><ele>43.0</ele><time>2026-04-18T13:39:04.184Z</time></trkpt><trkpt lat="44.1791723" lon="12.0415485"><ele>43.0</ele><time>2026-04-18T13:39:05.185Z</time></trkpt><trkpt lat="44.1792899" lon="12.0415066"><ele>43.0</ele><time>2026-04-18T13:39:06.185Z</time></trkpt><trkpt lat="44.1794026" lon="12.0414664"><ele>43.0</ele><time>2026-04-18T13:39:07.185Z</time></trkpt><trkpt lat="44.1795063" lon="12.0414353"><ele>43.0</ele><time>2026-04-18T13:39:08.185Z</time></trkpt><trkpt lat="44.1796042" lon="12.0414214"><ele>43.0</ele><time>2026-04-18T13:39:09.185Z</time></trkpt><trkpt lat="44.1796909" lon="12.0414215"><ele>43.0</ele><time>2026-04-18T13:39:10.184Z</time></trkpt><trkpt lat="44.1797707" lon="12.0414233"><ele>43.0</ele><time>2026-04-18T13:39:11.185Z</time></trkpt><trkpt lat="44.1798346" lon="12.0414183"><ele>43.0</ele><time>2026-04-18T13:39:12.185Z</time></trkpt><trkpt lat="44.1799378" lon="12.0413759"><ele>43.0</ele><time>2026-04-18T13:39:14.184Z</time></trkpt><trkpt lat="44.1800108" lon="12.0413201"><ele>43.0</ele><time>2026-04-18T13:39:16.185Z</time></trkpt><trkpt lat="44.18009" lon="12.0412394"><ele>43.0</ele><time>2026-04-18T13:39:18.185Z</time></trkpt><trkpt lat="44.1801741" lon="12.0411766"><ele>42.8</ele><time>2026-04-18T13:39:20.185Z</time></trkpt><trkpt lat="44.1802865" lon="12.0411417"><ele>42.599999999999994</ele><time>2026-04-18T13:39:22.185Z</time></trkpt><trkpt lat="44.1804003" lon="12.0410835"><ele>42.400000000000006</ele><time>2026-04-18T13:39:24.184Z</time></trkpt><trkpt lat="44.1804657" lon="12.0409375"><ele>42.2</ele><time>2026-04-18T13:39:26.185Z</time></trkpt><trkpt lat="44.1804687" lon="12.0408413"><ele>42.0</ele><time>2026-04-18T13:39:27.185Z</time></trkpt><trkpt lat="44.1804406" lon="12.040749"><ele>41.8</ele><time>2026-04-18T13:39:28.185Z</time></trkpt><trkpt lat="44.1803814" lon="12.0406735"><ele>41.6</ele><time>2026-04-18T13:39:29.185Z</time></trkpt><trkpt lat="44.1802869" lon="12.0406229"><ele>41.4</ele><time>2026-04-18T13:39:30.185Z</time></trkpt><trkpt lat="44.1801684" lon="12.0405959"><ele>41.199999999999996</ele><time>2026-04-18T13:39:31.185Z</time></trkpt><trkpt lat="44.1800478" lon="12.0405477"><ele>41.0</ele><time>2026-04-18T13:39:32.185Z</time></trkpt><trkpt lat="44.1799105" lon="12.0404323"><ele>41.33333333333333</ele><time>2026-04-18T13:39:33.185Z</time></trkpt><trkpt lat="44.1797635" lon="12.0402829"><ele>41.666666666666664</ele><time>2026-04-18T13:39:34.184Z</time></trkpt><trkpt lat="44.1795898" lon="12.0401223"><ele>42.0</ele><time>2026-04-18T13:39:35.185Z</time></trkpt><trkpt lat="44.1793899" lon="12.0399567"><ele>42.0</ele><time>2026-04-18T13:39:36.185Z</time></trkpt><trkpt lat="44.1791718" lon="12.0397849"><ele>42.0</ele><time>2026-04-18T13:39:37.185Z</time></trkpt><trkpt lat="44.1789318" lon="12.0396031"><ele>42.5</ele><time>2026-04-18T13:39:38.184Z</time></trkpt><trkpt lat="44.1786787" lon="12.0394207"><ele>43.0</ele><time>2026-04-18T13:39:39.185Z</time></trkpt><trkpt lat="44.1784142" lon="12.03925"><ele>43.0</ele><time>2026-04-18T13:39:40.185Z</time></trkpt><trkpt lat="44.1781305" lon="12.0390852"><ele>43.0</ele><time>2026-04-18T13:39:41.185Z</time></trkpt><trkpt lat="44.1778458" lon="12.0389284"><ele>43.0</ele><time>2026-04-18T13:39:42.184Z</time></trkpt><trkpt lat="44.1775661" lon="12.0387767"><ele>43.0</ele><time>2026-04-18T13:39:43.184Z</time></trkpt><trkpt lat="44.1772888" lon="12.0386276"><ele>44.0</ele><time>2026-04-18T13:39:44.185Z</time></trkpt><trkpt lat="44.1770144" lon="12.038476"><ele>45.0</ele><time>2026-04-18T13:39:45.185Z</time></trkpt><trkpt lat="44.1767451" lon="12.0383283"><ele>45.5</ele><time>2026-04-18T13:39:46.185Z</time></trkpt><trkpt lat="44.1764794" lon="12.0381822"><ele>46.0</ele><time>2026-04-18T13:39:47.185Z</time></trkpt><trkpt lat="44.1762179" lon="12.038032"><ele>46.0</ele><time>2026-04-18T13:39:48.185Z</time></trkpt><trkpt lat="44.1759596" lon="12.037874"><ele>46.0</ele><time>2026-04-18T13:39:49.185Z</time></trkpt><trkpt lat="44.1756969" lon="12.0376994"><ele>45.5</ele><time>2026-04-18T13:39:50.185Z</time></trkpt><trkpt lat="44.1754344" lon="12.0375074"><ele>45.0</ele><time>2026-04-18T13:39:51.185Z</time></trkpt><trkpt lat="44.1751739" lon="12.037303"><ele>45.0</ele><time>2026-04-18T13:39:52.184Z</time></trkpt><trkpt lat="44.1749156" lon="12.0370937"><ele>45.0</ele><time>2026-04-18T13:39:53.185Z</time></trkpt><trkpt lat="44.1746619" lon="12.0368849"><ele>45.5</ele><time>2026-04-18T13:39:54.185Z</time></trkpt><trkpt lat="44.174414" lon="12.0366754"><ele>46.0</ele><time>2026-04-18T13:39:55.184Z</time></trkpt><trkpt lat="44.174172" lon="12.0364665"><ele>46.5</ele><time>2026-04-18T13:39:56.185Z</time></trkpt><trkpt lat="44.1739326" lon="12.036264"><ele>47.0</ele><time>2026-04-18T13:39:57.184Z</time></trkpt><trkpt lat="44.1736986" lon="12.0360658"><ele>47.0</ele><time>2026-04-18T13:39:58.184Z</time></trkpt><trkpt lat="44.173471" lon="12.0358646"><ele>47.0</ele><time>2026-04-18T13:39:59.185Z</time></trkpt><trkpt lat="44.1732548" lon="12.0356549"><ele>47.0</ele><time>2026-04-18T13:40:00.185Z</time></trkpt><trkpt lat="44.1730504" lon="12.0354259"><ele>47.0</ele><time>2026-04-18T13:40:01.185Z</time></trkpt><trkpt lat="44.172854" lon="12.0351689"><ele>48.0</ele><time>2026-04-18T13:40:02.185Z</time></trkpt><trkpt lat="44.1726702" lon="12.0348869"><ele>49.0</ele><time>2026-04-18T13:40:03.185Z</time></trkpt><trkpt lat="44.1724981" lon="12.0345836"><ele>49.0</ele><time>2026-04-18T13:40:04.185Z</time></trkpt><trkpt lat="44.1723455" lon="12.0342683"><ele>49.0</ele><time>2026-04-18T13:40:05.184Z</time></trkpt><trkpt lat="44.1722079" lon="12.0339334"><ele>49.0</ele><time>2026-04-18T13:40:06.185Z</time></trkpt><trkpt lat="44.1720899" lon="12.0335795"><ele>49.0</ele><time>2026-04-18T13:40:07.185Z</time></trkpt><trkpt lat="44.1719983" lon="12.0332412"><ele>49.666666666666664</ele><time>2026-04-18T13:40:08.184Z</time></trkpt><trkpt lat="44.1719273" lon="12.0329284"><ele>50.33333333333333</ele><time>2026-04-18T13:40:09.185Z</time></trkpt><trkpt lat="44.171874" lon="12.0326565"><ele>51.0</ele><time>2026-04-18T13:40:10.184Z</time></trkpt><trkpt lat="44.1718355" lon="12.0324118"><ele>51.0</ele><time>2026-04-18T13:40:11.185Z</time></trkpt><trkpt lat="44.1718074" lon="12.0321902"><ele>51.0</ele><time>2026-04-18T13:40:12.185Z</time></trkpt><trkpt lat="44.1717919" lon="12.0319821"><ele>51.0</ele><time>2026-04-18T13:40:13.185Z</time></trkpt><trkpt lat="44.1718074" lon="12.0318058"><ele>51.0</ele><time>2026-04-18T13:40:14.185Z</time></trkpt><trkpt lat="44.1718331" lon="12.0316453"><ele>51.0</ele><time>2026-04-18T13:40:15.185Z</time></trkpt><trkpt lat="44.171823" lon="12.0314962"><ele>51.0</ele><time>2026-04-18T13:40:16.185Z</time></trkpt><trkpt lat="44.1717733" lon="12.0313513"><ele>51.0</ele><time>2026-04-18T13:40:17.184Z</time></trkpt><trkpt lat="44.1716867" lon="12.0311996"><ele>51.0</ele><time>2026-04-18T13:40:18.185Z</time></trkpt><trkpt lat="44.1716135" lon="12.0310186"><ele>51.33333333333333</ele><time>2026-04-18T13:40:19.185Z</time></trkpt><trkpt lat="44.1715569" lon="12.0307747"><ele>51.666666666666664</ele><time>2026-04-18T13:40:20.185Z</time></trkpt><trkpt lat="44.1715083" lon="12.0304929"><ele>52.0</ele><time>2026-04-18T13:40:21.185Z</time></trkpt><trkpt lat="44.1714591" lon="12.0301816"><ele>52.5</ele><time>2026-04-18T13:40:22.184Z</time></trkpt><trkpt lat="44.1714069" lon="12.02985"><ele>53.0</ele><time>2026-04-18T13:40:23.185Z</time></trkpt><trkpt lat="44.1713476" lon="12.0295065"><ele>53.0</ele><time>2026-04-18T13:40:24.185Z</time></trkpt><trkpt lat="44.1712881" lon="12.029169"><ele>53.0</ele><time>2026-04-18T13:40:25.185Z</time></trkpt><trkpt lat="44.1712301" lon="12.0288212"><ele>54.0</ele><time>2026-04-18T13:40:26.185Z</time></trkpt><trkpt lat="44.1711758" lon="12.0284668"><ele>55.0</ele><time>2026-04-18T13:40:27.185Z</time></trkpt><trkpt lat="44.1711207" lon="12.0281195"><ele>55.5</ele><time>2026-04-18T13:40:28.185Z</time></trkpt><trkpt lat="44.1710657" lon="12.0277834"><ele>56.0</ele><time>2026-04-18T13:40:29.185Z</time></trkpt><trkpt lat="44.1710111" lon="12.0274671"><ele>56.0</ele><time>2026-04-18T13:40:30.185Z</time></trkpt><trkpt lat="44.170952" lon="12.0271715"><ele>56.0</ele><time>2026-04-18T13:40:31.185Z</time></trkpt><trkpt lat="44.1708835" lon="12.0268903"><ele>56.0</ele><time>2026-04-18T13:40:32.185Z</time></trkpt><trkpt lat="44.170802" lon="12.0266085"><ele>56.0</ele><time>2026-04-18T13:40:33.185Z</time></trkpt><trkpt lat="44.1707067" lon="12.0263338"><ele>56.0</ele><time>2026-04-18T13:40:34.185Z</time></trkpt><trkpt lat="44.1706002" lon="12.0260663"><ele>56.0</ele><time>2026-04-18T13:40:35.185Z</time></trkpt><trkpt lat="44.1704835" lon="12.0258077"><ele>56.0</ele><time>2026-04-18T13:40:36.185Z</time></trkpt><trkpt lat="44.1703676" lon="12.0255762"><ele>56.0</ele><time>2026-04-18T13:40:37.185Z</time></trkpt><trkpt lat="44.1702513" lon="12.025372"><ele>56.0</ele><time>2026-04-18T13:40:38.185Z</time></trkpt><trkpt lat="44.1701359" lon="12.0251905"><ele>56.0</ele><time>2026-04-18T13:40:39.184Z</time></trkpt><trkpt lat="44.17003" lon="12.0250332"><ele>56.0</ele><time>2026-04-18T13:40:40.185Z</time></trkpt><trkpt lat="44.1699326" lon="12.0248968"><ele>56.0</ele><time>2026-04-18T13:40:41.185Z</time></trkpt><trkpt lat="44.1698429" lon="12.0247761"><ele>56.0</ele><time>2026-04-18T13:40:42.185Z</time></trkpt><trkpt lat="44.1697718" lon="12.0246715"><ele>56.0</ele><time>2026-04-18T13:40:43.185Z</time></trkpt><trkpt lat="44.169719" lon="12.0245734"><ele>55.99999999999999</ele><time>2026-04-18T13:40:44.184Z</time></trkpt><trkpt lat="44.1696863" lon="12.0244773"><ele>55.99999999999999</ele><time>2026-04-18T13:40:45.184Z</time></trkpt><trkpt lat="44.1696758" lon="12.0243862"><ele>56.0</ele><time>2026-04-18T13:40:46.185Z</time></trkpt><trkpt lat="44.1696966" lon="12.0242336"><ele>56.0</ele><time>2026-04-18T13:40:48.185Z</time></trkpt><trkpt lat="44.1697745" lon="12.0240808"><ele>56.0</ele><time>2026-04-18T13:40:50.185Z</time></trkpt><trkpt lat="44.169841" lon="12.0240053"><ele>55.99999999999999</ele><time>2026-04-18T13:40:51.185Z</time></trkpt><trkpt lat="44.1699195" lon="12.0239343"><ele>55.99999999999999</ele><time>2026-04-18T13:40:52.185Z</time></trkpt><trkpt lat="44.1700116" lon="12.0238669"><ele>56.0</ele><time>2026-04-18T13:40:53.184Z</time></trkpt><trkpt lat="44.1701091" lon="12.0238077"><ele>56.0</ele><time>2026-04-18T13:40:54.185Z</time></trkpt><trkpt lat="44.1702047" lon="12.0237558"><ele>55.75</ele><time>2026-04-18T13:40:55.184Z</time></trkpt><trkpt lat="44.1703077" lon="12.0236936"><ele>55.5</ele><time>2026-04-18T13:40:56.185Z</time></trkpt><trkpt lat="44.1704107" lon="12.0236186"><ele>55.25</ele><time>2026-04-18T13:40:57.185Z</time></trkpt><trkpt lat="44.1705176" lon="12.0235362"><ele>55.0</ele><time>2026-04-18T13:40:58.185Z</time></trkpt><trkpt lat="44.1706277" lon="12.0234517"><ele>54.5</ele><time>2026-04-18T13:40:59.185Z</time></trkpt><trkpt lat="44.170741" lon="12.0233664"><ele>54.0</ele><time>2026-04-18T13:41:00.185Z</time></trkpt><trkpt lat="44.1708542" lon="12.023282"><ele>53.5</ele><time>2026-04-18T13:41:01.185Z</time></trkpt><trkpt lat="44.1709705" lon="12.0231963"><ele>53.0</ele><time>2026-04-18T13:41:02.185Z</time></trkpt><trkpt lat="44.1710979" lon="12.0230994"><ele>53.0</ele><time>2026-04-18T13:41:03.185Z</time></trkpt><trkpt lat="44.171231" lon="12.0229963"><ele>53.0</ele><time>2026-04-18T13:41:04.184Z</time></trkpt><trkpt lat="44.1713678" lon="12.0228902"><ele>53.0</ele><time>2026-04-18T13:41:05.185Z</time></trkpt><trkpt lat="44.171507" lon="12.0227832"><ele>53.0</ele><time>2026-04-18T13:41:06.184Z</time></trkpt><trkpt lat="44.1716456" lon="12.022676"><ele>53.0</ele><time>2026-04-18T13:41:07.185Z</time></trkpt><trkpt lat="44.171786" lon="12.0225673"><ele>53.0</ele><time>2026-04-18T13:41:08.185Z</time></trkpt><trkpt lat="44.1719274" lon="12.0224554"><ele>53.0</ele><time>2026-04-18T13:41:09.184Z</time></trkpt><trkpt lat="44.1720645" lon="12.0223445"><ele>53.0</ele><time>2026-04-18T13:41:10.184Z</time></trkpt><trkpt lat="44.1721903" lon="12.02223"><ele>53.0</ele><time>2026-04-18T13:41:11.185Z</time></trkpt><trkpt lat="44.1723036" lon="12.0220943"><ele>53.0</ele><time>2026-04-18T13:41:12.185Z</time></trkpt><trkpt lat="44.1723954" lon="12.0219312"><ele>53.0</ele><time>2026-04-18T13:41:13.184Z</time></trkpt><trkpt lat="44.172464" lon="12.0217609"><ele>53.0</ele><time>2026-04-18T13:41:14.185Z</time></trkpt><trkpt lat="44.1725135" lon="12.0215785"><ele>53.0</ele><time>2026-04-18T13:41:15.185Z</time></trkpt><trkpt lat="44.1725527" lon="12.0214057"><ele>52.8</ele><time>2026-04-18T13:41:16.185Z</time></trkpt><trkpt lat="44.1725976" lon="12.0212572"><ele>52.599999999999994</ele><time>2026-04-18T13:41:17.184Z</time></trkpt><trkpt lat="44.1726606" lon="12.0211454"><ele>52.400000000000006</ele><time>2026-04-18T13:41:18.185Z</time></trkpt><trkpt lat="44.1727407" lon="12.0210666"><ele>52.2</ele><time>2026-04-18T13:41:19.184Z</time></trkpt><trkpt lat="44.172822" lon="12.0210038"><ele>52.0</ele><time>2026-04-18T13:41:20.184Z</time></trkpt><trkpt lat="44.172886" lon="12.020921"><ele>52.0</ele><time>2026-04-18T13:41:21.184Z</time></trkpt><trkpt lat="44.1729262" lon="12.0208098"><ele>52.0</ele><time>2026-04-18T13:41:22.184Z</time></trkpt><trkpt lat="44.1729278" lon="12.0206896"><ele>52.0</ele><time>2026-04-18T13:41:23.185Z</time></trkpt><trkpt lat="44.1728905" lon="12.0205567"><ele>52.0</ele><time>2026-04-18T13:41:24.185Z</time></trkpt><trkpt lat="44.1728176" lon="12.0204095"><ele>52.0</ele><time>2026-04-18T13:41:25.184Z</time></trkpt><trkpt lat="44.1727515" lon="12.0202455"><ele>52.0</ele><time>2026-04-18T13:41:26.185Z</time></trkpt><trkpt lat="44.1727012" lon="12.0200591"><ele>52.0</ele><time>2026-04-18T13:41:27.185Z</time></trkpt><trkpt lat="44.1726455" lon="12.0198658"><ele>52.0</ele><time>2026-04-18T13:41:28.185Z</time></trkpt><trkpt lat="44.1725638" lon="12.0196847"><ele>52.0</ele><time>2026-04-18T13:41:29.185Z</time></trkpt><trkpt lat="44.1724563" lon="12.0195013"><ele>52.0</ele><time>2026-04-18T13:41:30.185Z</time></trkpt><trkpt lat="44.1723311" lon="12.0193204"><ele>52.0</ele><time>2026-04-18T13:41:31.185Z</time></trkpt><trkpt lat="44.1722" lon="12.0191442"><ele>52.0</ele><time>2026-04-18T13:41:32.185Z</time></trkpt><trkpt lat="44.1720575" lon="12.0189497"><ele>52.0</ele><time>2026-04-18T13:41:33.185Z</time></trkpt><trkpt lat="44.1719143" lon="12.0187502"><ele>52.0</ele><time>2026-04-18T13:41:34.185Z</time></trkpt><trkpt lat="44.1717711" lon="12.0185522"><ele>52.0</ele><time>2026-04-18T13:41:35.185Z</time></trkpt><trkpt lat="44.1716206" lon="12.0183448"><ele>52.33333333333333</ele><time>2026-04-18T13:41:36.185Z</time></trkpt><trkpt lat="44.171467" lon="12.0181354"><ele>52.66666666666667</ele><time>2026-04-18T13:41:37.183Z</time></trkpt><trkpt lat="44.1713138" lon="12.0179232"><ele>53.0</ele><time>2026-04-18T13:41:38.185Z</time></trkpt><trkpt lat="44.1711603" lon="12.0177091"><ele>53.0</ele><time>2026-04-18T13:41:39.185Z</time></trkpt><trkpt lat="44.1710063" lon="12.0174968"><ele>53.0</ele><time>2026-04-18T13:41:40.184Z</time></trkpt><trkpt lat="44.1708523" lon="12.0172854"><ele>53.0</ele><time>2026-04-18T13:41:41.185Z</time></trkpt><trkpt lat="44.1707004" lon="12.0170778"><ele>52.66666666666667</ele><time>2026-04-18T13:41:42.184Z</time></trkpt><trkpt lat="44.1705482" lon="12.0168736"><ele>52.33333333333333</ele><time>2026-04-18T13:41:43.185Z</time></trkpt><trkpt lat="44.1703976" lon="12.016671"><ele>52.0</ele><time>2026-04-18T13:41:44.185Z</time></trkpt><trkpt lat="44.1702471" lon="12.0164689"><ele>52.0</ele><time>2026-04-18T13:41:45.185Z</time></trkpt><trkpt lat="44.1700977" lon="12.0162679"><ele>52.0</ele><time>2026-04-18T13:41:46.185Z</time></trkpt><trkpt lat="44.1699481" lon="12.0160682"><ele>52.0</ele><time>2026-04-18T13:41:47.185Z</time></trkpt><trkpt lat="44.1698003" lon="12.0158683"><ele>52.33333333333333</ele><time>2026-04-18T13:41:48.185Z</time></trkpt><trkpt lat="44.1696537" lon="12.0156659"><ele>52.66666666666667</ele><time>2026-04-18T13:41:49.185Z</time></trkpt><trkpt lat="44.1695069" lon="12.0154626"><ele>53.0</ele><time>2026-04-18T13:41:50.185Z</time></trkpt><trkpt lat="44.1693596" lon="12.015261"><ele>53.0</ele><time>2026-04-18T13:41:51.185Z</time></trkpt><trkpt lat="44.1692154" lon="12.0150565"><ele>53.0</ele><time>2026-04-18T13:41:52.184Z</time></trkpt><trkpt lat="44.169075" lon="12.0148471"><ele>53.0</ele><time>2026-04-18T13:41:53.184Z</time></trkpt><trkpt lat="44.1689376" lon="12.0146322"><ele>53.333333333333336</ele><time>2026-04-18T13:41:54.184Z</time></trkpt><trkpt lat="44.1688014" lon="12.014411"><ele>53.66666666666667</ele><time>2026-04-18T13:41:55.185Z</time></trkpt><trkpt lat="44.1686599" lon="12.0141847"><ele>54.0</ele><time>2026-04-18T13:41:56.184Z</time></trkpt><trkpt lat="44.1685185" lon="12.0139565"><ele>54.0</ele><time>2026-04-18T13:41:57.184Z</time></trkpt><trkpt lat="44.1683782" lon="12.0137247"><ele>54.0</ele><time>2026-04-18T13:41:58.185Z</time></trkpt><trkpt lat="44.168239" lon="12.0134915"><ele>54.0</ele><time>2026-04-18T13:41:59.184Z</time></trkpt><trkpt lat="44.1680974" lon="12.0132629"><ele>54.33333333333333</ele><time>2026-04-18T13:42:00.183Z</time></trkpt><trkpt lat="44.1679536" lon="12.0130374"><ele>54.666666666666664</ele><time>2026-04-18T13:42:01.185Z</time></trkpt><trkpt lat="44.1678035" lon="12.0128208"><ele>55.0</ele><time>2026-04-18T13:42:02.184Z</time></trkpt><trkpt lat="44.1676444" lon="12.0126113"><ele>55.0</ele><time>2026-04-18T13:42:03.185Z</time></trkpt><trkpt lat="44.1674767" lon="12.0124074"><ele>55.0</ele><time>2026-04-18T13:42:04.185Z</time></trkpt><trkpt lat="44.1673038" lon="12.0122136"><ele>55.0</ele><time>2026-04-18T13:42:05.185Z</time></trkpt><trkpt lat="44.1671212" lon="12.0120252"><ele>55.0</ele><time>2026-04-18T13:42:06.185Z</time></trkpt><trkpt lat="44.1669305" lon="12.0118379"><ele>55.0</ele><time>2026-04-18T13:42:07.185Z</time></trkpt><trkpt lat="44.1667422" lon="12.0116644"><ele>54.5</ele><time>2026-04-18T13:42:08.183Z</time></trkpt><trkpt lat="44.1665481" lon="12.0114987"><ele>54.0</ele><time>2026-04-18T13:42:09.185Z</time></trkpt><trkpt lat="44.1663509" lon="12.0113434"><ele>54.0</ele><time>2026-04-18T13:42:10.185Z</time></trkpt><trkpt lat="44.1661563" lon="12.0111952"><ele>54.0</ele><time>2026-04-18T13:42:11.185Z</time></trkpt><trkpt lat="44.1659639" lon="12.0110536"><ele>54.0</ele><time>2026-04-18T13:42:12.185Z</time></trkpt><trkpt lat="44.1657765" lon="12.0109151"><ele>55.0</ele><time>2026-04-18T13:42:13.184Z</time></trkpt><trkpt lat="44.1655958" lon="12.0107805"><ele>56.0</ele><time>2026-04-18T13:42:14.185Z</time></trkpt><trkpt lat="44.1654185" lon="12.0106474"><ele>57.0</ele><time>2026-04-18T13:42:15.185Z</time></trkpt><trkpt lat="44.1652436" lon="12.0105176"><ele>57.0</ele><time>2026-04-18T13:42:16.185Z</time></trkpt><trkpt lat="44.1650693" lon="12.0103891"><ele>57.0</ele><time>2026-04-18T13:42:17.185Z</time></trkpt><trkpt lat="44.1648971" lon="12.0102605"><ele>57.0</ele><time>2026-04-18T13:42:18.185Z</time></trkpt><trkpt lat="44.1647246" lon="12.0101335"><ele>55.33333333333333</ele><time>2026-04-18T13:42:19.185Z</time></trkpt><trkpt lat="44.1645517" lon="12.0100074"><ele>53.666666666666664</ele><time>2026-04-18T13:42:20.185Z</time></trkpt><trkpt lat="44.1643803" lon="12.0098801"><ele>52.0</ele><time>2026-04-18T13:42:21.185Z</time></trkpt><trkpt lat="44.1642085" lon="12.0097518"><ele>52.0</ele><time>2026-04-18T13:42:22.185Z</time></trkpt><trkpt lat="44.1640373" lon="12.0096221"><ele>52.0</ele><time>2026-04-18T13:42:23.184Z</time></trkpt><trkpt lat="44.1638673" lon="12.0094938"><ele>52.0</ele><time>2026-04-18T13:42:24.184Z</time></trkpt><trkpt lat="44.1636979" lon="12.0093674"><ele>52.0</ele><time>2026-04-18T13:42:25.185Z</time></trkpt><trkpt lat="44.1635293" lon="12.0092432"><ele>52.0</ele><time>2026-04-18T13:42:26.185Z</time></trkpt><trkpt lat="44.1633617" lon="12.0091197"><ele>52.0</ele><time>2026-04-18T13:42:27.185Z</time></trkpt><trkpt lat="44.1631948" lon="12.0089948"><ele>53.0</ele><time>2026-04-18T13:42:28.185Z</time></trkpt><trkpt lat="44.1630289" lon="12.0088695"><ele>54.0</ele><time>2026-04-18T13:42:29.185Z</time></trkpt><trkpt lat="44.1628632" lon="12.0087454"><ele>55.0</ele><time>2026-04-18T13:42:30.185Z</time></trkpt><trkpt lat="44.1626983" lon="12.0086212"><ele>55.0</ele><time>2026-04-18T13:42:31.185Z</time></trkpt><trkpt lat="44.1625347" lon="12.0084972"><ele>55.0</ele><time>2026-04-18T13:42:32.184Z</time></trkpt><trkpt lat="44.1623721" lon="12.0083753"><ele>55.0</ele><time>2026-04-18T13:42:33.185Z</time></trkpt><trkpt lat="44.1622105" lon="12.0082563"><ele>55.666666666666664</ele><time>2026-04-18T13:42:34.185Z</time></trkpt><trkpt lat="44.1620516" lon="12.0081384"><ele>56.33333333333333</ele><time>2026-04-18T13:42:35.185Z</time></trkpt><trkpt lat="44.1618946" lon="12.0080232"><ele>57.0</ele><time>2026-04-18T13:42:36.185Z</time></trkpt><trkpt lat="44.1617394" lon="12.0079095"><ele>57.0</ele><time>2026-04-18T13:42:37.185Z</time></trkpt><trkpt lat="44.161586" lon="12.0077972"><ele>57.0</ele><time>2026-04-18T13:42:38.185Z</time></trkpt><trkpt lat="44.1614316" lon="12.0076859"><ele>57.0</ele><time>2026-04-18T13:42:39.185Z</time></trkpt><trkpt lat="44.1612778" lon="12.0075724"><ele>59.0</ele><time>2026-04-18T13:42:40.183Z</time></trkpt><trkpt lat="44.1611299" lon="12.0074635"><ele>61.0</ele><time>2026-04-18T13:42:41.185Z</time></trkpt><trkpt lat="44.1609919" lon="12.0073585"><ele>63.0</ele><time>2026-04-18T13:42:42.184Z</time></trkpt><trkpt lat="44.1608547" lon="12.0072464"><ele>63.0</ele><time>2026-04-18T13:42:43.185Z</time></trkpt><trkpt lat="44.1607252" lon="12.0071227"><ele>63.0</ele><time>2026-04-18T13:42:44.185Z</time></trkpt><trkpt lat="44.1606083" lon="12.0069956"><ele>63.0</ele><time>2026-04-18T13:42:45.185Z</time></trkpt><trkpt lat="44.1605003" lon="12.006861"><ele>63.25</ele><time>2026-04-18T13:42:46.185Z</time></trkpt><trkpt lat="44.1603985" lon="12.0067123"><ele>63.5</ele><time>2026-04-18T13:42:47.185Z</time></trkpt><trkpt lat="44.1603051" lon="12.006555"><ele>63.75</ele><time>2026-04-18T13:42:48.184Z</time></trkpt><trkpt lat="44.1602142" lon="12.0063913"><ele>64.0</ele><time>2026-04-18T13:42:49.185Z</time></trkpt><trkpt lat="44.1601216" lon="12.0062224"><ele>65.0</ele><time>2026-04-18T13:42:50.185Z</time></trkpt><trkpt lat="44.1600252" lon="12.0060498"><ele>66.0</ele><time>2026-04-18T13:42:51.185Z</time></trkpt><trkpt lat="44.1599259" lon="12.0058715"><ele>67.0</ele><time>2026-04-18T13:42:52.185Z</time></trkpt><trkpt lat="44.1598281" lon="12.0056947"><ele>67.33333333333333</ele><time>2026-04-18T13:42:53.184Z</time></trkpt><trkpt lat="44.1597325" lon="12.0055214"><ele>67.66666666666667</ele><time>2026-04-18T13:42:54.185Z</time></trkpt><trkpt lat="44.1596366" lon="12.005344"><ele>68.0</ele><time>2026-04-18T13:42:55.185Z</time></trkpt><trkpt lat="44.15954" lon="12.0051665"><ele>68.33333333333334</ele><time>2026-04-18T13:42:56.185Z</time></trkpt><trkpt lat="44.159442" lon="12.0049899"><ele>68.66666666666667</ele><time>2026-04-18T13:42:57.184Z</time></trkpt><trkpt lat="44.1593417" lon="12.0048119"><ele>69.0</ele><time>2026-04-18T13:42:58.185Z</time></trkpt><trkpt lat="44.1592432" lon="12.0046346"><ele>69.0</ele><time>2026-04-18T13:42:59.185Z</time></trkpt><trkpt lat="44.1591441" lon="12.0044581"><ele>69.0</ele><time>2026-04-18T13:43:00.185Z</time></trkpt><trkpt lat="44.159046" lon="12.0042847"><ele>69.0</ele><time>2026-04-18T13:43:01.185Z</time></trkpt><trkpt lat="44.1589507" lon="12.0041119"><ele>68.25</ele><time>2026-04-18T13:43:02.185Z</time></trkpt><trkpt lat="44.1588596" lon="12.003946"><ele>67.5</ele><time>2026-04-18T13:43:03.185Z</time></trkpt><trkpt lat="44.1587748" lon="12.0037914"><ele>66.75</ele><time>2026-04-18T13:43:04.185Z</time></trkpt><trkpt lat="44.1586948" lon="12.0036461"><ele>66.0</ele><time>2026-04-18T13:43:05.185Z</time></trkpt><trkpt lat="44.1586188" lon="12.0035104"><ele>66.0</ele><time>2026-04-18T13:43:06.185Z</time></trkpt><trkpt lat="44.1585463" lon="12.0033811"><ele>66.0</ele><time>2026-04-18T13:43:07.185Z</time></trkpt><trkpt lat="44.158476" lon="12.0032536"><ele>66.0</ele><time>2026-04-18T13:43:08.185Z</time></trkpt><trkpt lat="44.1584096" lon="12.003128"><ele>66.0</ele><time>2026-04-18T13:43:09.185Z</time></trkpt><trkpt lat="44.1583411" lon="12.0030028"><ele>66.0</ele><time>2026-04-18T13:43:10.185Z</time></trkpt><trkpt lat="44.1582753" lon="12.0028848"><ele>66.0</ele><time>2026-04-18T13:43:11.185Z</time></trkpt><trkpt lat="44.1582047" lon="12.0027584"><ele>66.0</ele><time>2026-04-18T13:43:12.184Z</time></trkpt><trkpt lat="44.1581293" lon="12.0026234"><ele>66.0</ele><time>2026-04-18T13:43:13.184Z</time></trkpt><trkpt lat="44.1580501" lon="12.0024783"><ele>66.75</ele><time>2026-04-18T13:43:14.185Z</time></trkpt><trkpt lat="44.1579662" lon="12.0023271"><ele>67.5</ele><time>2026-04-18T13:43:15.185Z</time></trkpt><trkpt lat="44.1578818" lon="12.0021768"><ele>68.25</ele><time>2026-04-18T13:43:16.185Z</time></trkpt><trkpt lat="44.1577982" lon="12.002029"><ele>69.0</ele><time>2026-04-18T13:43:17.185Z</time></trkpt><trkpt lat="44.1577159" lon="12.0018825"><ele>69.0</ele><time>2026-04-18T13:43:18.185Z</time></trkpt><trkpt lat="44.1576344" lon="12.0017343"><ele>69.0</ele><time>2026-04-18T13:43:19.185Z</time></trkpt><trkpt lat="44.1575523" lon="12.0015823"><ele>69.0</ele><time>2026-04-18T13:43:20.185Z</time></trkpt><trkpt lat="44.1574639" lon="12.0014218"><ele>69.0</ele><time>2026-04-18T13:43:21.185Z</time></trkpt><trkpt lat="44.157374" lon="12.0012607"><ele>69.0</ele><time>2026-04-18T13:43:22.184Z</time></trkpt><trkpt lat="44.1572855" lon="12.0011083"><ele>69.0</ele><time>2026-04-18T13:43:23.185Z</time></trkpt><trkpt lat="44.1571864" lon="12.0009615"><ele>69.0</ele><time>2026-04-18T13:43:24.185Z</time></trkpt><trkpt lat="44.1570747" lon="12.0008199"><ele>69.0</ele><time>2026-04-18T13:43:25.185Z</time></trkpt><trkpt lat="44.1569597" lon="12.0006784"><ele>69.0</ele><time>2026-04-18T13:43:26.184Z</time></trkpt><trkpt lat="44.1568417" lon="12.000535"><ele>69.0</ele><time>2026-04-18T13:43:27.185Z</time></trkpt><trkpt lat="44.1567249" lon="12.0003907"><ele>69.0</ele><time>2026-04-18T13:43:28.185Z</time></trkpt><trkpt lat="44.1566097" lon="12.0002514"><ele>69.66666666666667</ele><time>2026-04-18T13:43:29.185Z</time></trkpt><trkpt lat="44.156497" lon="12.0001093"><ele>70.33333333333334</ele><time>2026-04-18T13:43:30.185Z</time></trkpt><trkpt lat="44.1563853" lon="11.99997"><ele>71.0</ele><time>2026-04-18T13:43:31.185Z</time></trkpt><trkpt lat="44.1562679" lon="11.9998272"><ele>71.0</ele><time>2026-04-18T13:43:32.183Z</time></trkpt><trkpt lat="44.156142" lon="11.9996771"><ele>71.0</ele><time>2026-04-18T13:43:33.185Z</time></trkpt><trkpt lat="44.156016" lon="11.9995217"><ele>71.0</ele><time>2026-04-18T13:43:34.183Z</time></trkpt><trkpt lat="44.1558953" lon="11.9993753"><ele>71.0</ele><time>2026-04-18T13:43:35.185Z</time></trkpt><trkpt lat="44.1557818" lon="11.999238"><ele>71.0</ele><time>2026-04-18T13:43:36.185Z</time></trkpt><trkpt lat="44.1556702" lon="11.9991031"><ele>71.0</ele><time>2026-04-18T13:43:37.185Z</time></trkpt><trkpt lat="44.1555601" lon="11.9989635"><ele>71.0</ele><time>2026-04-18T13:43:38.185Z</time></trkpt><trkpt lat="44.1554485" lon="11.9988258"><ele>71.0</ele><time>2026-04-18T13:43:39.185Z</time></trkpt><trkpt lat="44.1553356" lon="11.9986886"><ele>71.0</ele><time>2026-04-18T13:43:40.185Z</time></trkpt><trkpt lat="44.1552246" lon="11.9985526"><ele>71.0</ele><time>2026-04-18T13:43:41.185Z</time></trkpt><trkpt lat="44.155113" lon="11.9984168"><ele>71.0</ele><time>2026-04-18T13:43:42.185Z</time></trkpt><trkpt lat="44.1550014" lon="11.998282"><ele>72.0</ele><time>2026-04-18T13:43:43.184Z</time></trkpt><trkpt lat="44.1548873" lon="11.998144"><ele>73.0</ele><time>2026-04-18T13:43:44.185Z</time></trkpt><trkpt lat="44.1547716" lon="11.998"><ele>74.0</ele><time>2026-04-18T13:43:45.185Z</time></trkpt><trkpt lat="44.1546525" lon="11.997858"><ele>74.66666666666667</ele><time>2026-04-18T13:43:46.185Z</time></trkpt><trkpt lat="44.1545329" lon="11.9977129"><ele>75.33333333333333</ele><time>2026-04-18T13:43:47.185Z</time></trkpt><trkpt lat="44.1544187" lon="11.9975704"><ele>76.0</ele><time>2026-04-18T13:43:48.185Z</time></trkpt><trkpt lat="44.1543116" lon="11.9974376"><ele>76.0</ele><time>2026-04-18T13:43:49.185Z</time></trkpt><trkpt lat="44.1542001" lon="11.9973022"><ele>76.0</ele><time>2026-04-18T13:43:50.185Z</time></trkpt><trkpt lat="44.1540875" lon="11.9971696"><ele>76.0</ele><time>2026-04-18T13:43:51.185Z</time></trkpt><trkpt lat="44.1539766" lon="11.9970339"><ele>76.0</ele><time>2026-04-18T13:43:52.185Z</time></trkpt><trkpt lat="44.1538621" lon="11.996898"><ele>76.0</ele><time>2026-04-18T13:43:53.185Z</time></trkpt><trkpt lat="44.153745" lon="11.9967615"><ele>76.0</ele><time>2026-04-18T13:43:54.185Z</time></trkpt><trkpt lat="44.1536294" lon="11.9966263"><ele>76.0</ele><time>2026-04-18T13:43:55.184Z</time></trkpt><trkpt lat="44.1535137" lon="11.9964969"><ele>76.0</ele><time>2026-04-18T13:43:56.184Z</time></trkpt><trkpt lat="44.1533968" lon="11.9963697"><ele>76.0</ele><time>2026-04-18T13:43:57.185Z</time></trkpt><trkpt lat="44.1532737" lon="11.9962476"><ele>76.0</ele><time>2026-04-18T13:43:58.185Z</time></trkpt><trkpt lat="44.1531398" lon="11.9961332"><ele>74.66666666666666</ele><time>2026-04-18T13:43:59.185Z</time></trkpt><trkpt lat="44.1529949" lon="11.9960297"><ele>73.33333333333333</ele><time>2026-04-18T13:44:00.185Z</time></trkpt><trkpt lat="44.1528407" lon="11.9959362"><ele>72.0</ele><time>2026-04-18T13:44:01.184Z</time></trkpt><trkpt lat="44.1526771" lon="11.9958483"><ele>73.33333333333333</ele><time>2026-04-18T13:44:02.185Z</time></trkpt><trkpt lat="44.152507" lon="11.9957607"><ele>74.66666666666666</ele><time>2026-04-18T13:44:03.185Z</time></trkpt><trkpt lat="44.1523325" lon="11.9956718"><ele>76.0</ele><time>2026-04-18T13:44:04.184Z</time></trkpt><trkpt lat="44.1521546" lon="11.9955802"><ele>76.0</ele><time>2026-04-18T13:44:05.185Z</time></trkpt><trkpt lat="44.1519736" lon="11.9954856"><ele>76.0</ele><time>2026-04-18T13:44:06.185Z</time></trkpt><trkpt lat="44.1517921" lon="11.9953873"><ele>76.0</ele><time>2026-04-18T13:44:07.185Z</time></trkpt><trkpt lat="44.1516144" lon="11.9952823"><ele>76.0</ele><time>2026-04-18T13:44:08.184Z</time></trkpt><trkpt lat="44.1514436" lon="11.9951655"><ele>76.0</ele><time>2026-04-18T13:44:09.185Z</time></trkpt><trkpt lat="44.1512783" lon="11.9950355"><ele>76.0</ele><time>2026-04-18T13:44:10.185Z</time></trkpt><trkpt lat="44.151117" lon="11.9948963"><ele>75.66666666666666</ele><time>2026-04-18T13:44:11.185Z</time></trkpt><trkpt lat="44.1509613" lon="11.9947423"><ele>75.33333333333333</ele><time>2026-04-18T13:44:12.185Z</time></trkpt><trkpt lat="44.1508119" lon="11.9945721"><ele>75.0</ele><time>2026-04-18T13:44:13.185Z</time></trkpt><trkpt lat="44.1506724" lon="11.9943854"><ele>75.0</ele><time>2026-04-18T13:44:14.185Z</time></trkpt><trkpt lat="44.1505427" lon="11.9941795"><ele>75.0</ele><time>2026-04-18T13:44:15.185Z</time></trkpt><trkpt lat="44.1504149" lon="11.9939563"><ele>75.0</ele><time>2026-04-18T13:44:16.185Z</time></trkpt><trkpt lat="44.1502892" lon="11.9937165"><ele>75.33333333333333</ele><time>2026-04-18T13:44:17.185Z</time></trkpt><trkpt lat="44.1501746" lon="11.9934753"><ele>75.66666666666666</ele><time>2026-04-18T13:44:18.185Z</time></trkpt><trkpt lat="44.150067" lon="11.9932179"><ele>76.0</ele><time>2026-04-18T13:44:19.184Z</time></trkpt><trkpt lat="44.1499608" lon="11.9929317"><ele>76.0</ele><time>2026-04-18T13:44:20.185Z</time></trkpt><trkpt lat="44.1498613" lon="11.9926264"><ele>76.0</ele><time>2026-04-18T13:44:21.185Z</time></trkpt><trkpt lat="44.1497663" lon="11.9922999"><ele>78.0</ele><time>2026-04-18T13:44:22.185Z</time></trkpt><trkpt lat="44.1496748" lon="11.9919517"><ele>80.0</ele><time>2026-04-18T13:44:23.185Z</time></trkpt><trkpt lat="44.1495846" lon="11.9915909"><ele>80.5</ele><time>2026-04-18T13:44:24.184Z</time></trkpt><trkpt lat="44.1494911" lon="11.9912226"><ele>81.0</ele><time>2026-04-18T13:44:25.185Z</time></trkpt><trkpt lat="44.1493985" lon="11.9908592"><ele>81.5</ele><time>2026-04-18T13:44:26.185Z</time></trkpt><trkpt lat="44.1493072" lon="11.9904958"><ele>82.0</ele><time>2026-04-18T13:44:27.185Z</time></trkpt><trkpt lat="44.1492133" lon="11.9901237"><ele>82.0</ele><time>2026-04-18T13:44:28.185Z</time></trkpt><trkpt lat="44.1491211" lon="11.989757"><ele>82.0</ele><time>2026-04-18T13:44:29.185Z</time></trkpt><trkpt lat="44.149028" lon="11.9893927"><ele>84.0</ele><time>2026-04-18T13:44:30.185Z</time></trkpt><trkpt lat="44.1489347" lon="11.9890314"><ele>86.0</ele><time>2026-04-18T13:44:31.185Z</time></trkpt><trkpt lat="44.1488401" lon="11.9886751"><ele>86.0</ele><time>2026-04-18T13:44:32.185Z</time></trkpt><trkpt lat="44.1487358" lon="11.9883287"><ele>86.0</ele><time>2026-04-18T13:44:33.185Z</time></trkpt><trkpt lat="44.1486129" lon="11.9879878"><ele>86.0</ele><time>2026-04-18T13:44:34.185Z</time></trkpt><trkpt lat="44.1484808" lon="11.9876591"><ele>86.0</ele><time>2026-04-18T13:44:35.185Z</time></trkpt><trkpt lat="44.1483406" lon="11.9873419"><ele>85.5</ele><time>2026-04-18T13:44:36.185Z</time></trkpt><trkpt lat="44.1481955" lon="11.9870449"><ele>85.0</ele><time>2026-04-18T13:44:37.185Z</time></trkpt><trkpt lat="44.148045" lon="11.9867647"><ele>87.5</ele><time>2026-04-18T13:44:38.185Z</time></trkpt><trkpt lat="44.1478873" lon="11.9864965"><ele>90.0</ele><time>2026-04-18T13:44:39.185Z</time></trkpt><trkpt lat="44.1477235" lon="11.9862435"><ele>90.0</ele><time>2026-04-18T13:44:40.185Z</time></trkpt><trkpt lat="44.1475549" lon="11.9860024"><ele>90.0</ele><time>2026-04-18T13:44:41.185Z</time></trkpt><trkpt lat="44.1473822" lon="11.9857737"><ele>90.5</ele><time>2026-04-18T13:44:42.185Z</time></trkpt><trkpt lat="44.1471954" lon="11.9855558"><ele>91.0</ele><time>2026-04-18T13:44:43.185Z</time></trkpt><trkpt lat="44.146995" lon="11.9853376"><ele>91.0</ele><time>2026-04-18T13:44:44.185Z</time></trkpt><trkpt lat="44.146784" lon="11.9851319"><ele>91.0</ele><time>2026-04-18T13:44:45.185Z</time></trkpt><trkpt lat="44.14657" lon="11.9849403"><ele>91.5</ele><time>2026-04-18T13:44:46.185Z</time></trkpt><trkpt lat="44.1463547" lon="11.9847606"><ele>92.0</ele><time>2026-04-18T13:44:47.185Z</time></trkpt><trkpt lat="44.1461446" lon="11.9845936"><ele>92.0</ele><time>2026-04-18T13:44:48.185Z</time></trkpt><trkpt lat="44.1459482" lon="11.9844366"><ele>92.0</ele><time>2026-04-18T13:44:49.185Z</time></trkpt><trkpt lat="44.1457627" lon="11.9842888"><ele>92.0</ele><time>2026-04-18T13:44:50.183Z</time></trkpt><trkpt lat="44.1455835" lon="11.984145"><ele>93.33333333333334</ele><time>2026-04-18T13:44:51.185Z</time></trkpt><trkpt lat="44.1454074" lon="11.9840049"><ele>94.66666666666667</ele><time>2026-04-18T13:44:52.185Z</time></trkpt><trkpt lat="44.1452145" lon="11.9838564"><ele>96.0</ele><time>2026-04-18T13:44:53.184Z</time></trkpt><trkpt lat="44.1450204" lon="11.9837072"><ele>96.0</ele><time>2026-04-18T13:44:54.185Z</time></trkpt><trkpt lat="44.1448262" lon="11.9835577"><ele>96.0</ele><time>2026-04-18T13:44:55.185Z</time></trkpt><trkpt lat="44.1446204" lon="11.9834038"><ele>98.0</ele><time>2026-04-18T13:44:56.185Z</time></trkpt><trkpt lat="44.1443998" lon="11.9832399"><ele>100.0</ele><time>2026-04-18T13:44:57.185Z</time></trkpt><trkpt lat="44.1442004" lon="11.9830761"><ele>99.33333333333334</ele><time>2026-04-18T13:44:58.185Z</time></trkpt><trkpt lat="44.144008" lon="11.9829192"><ele>98.66666666666666</ele><time>2026-04-18T13:44:59.185Z</time></trkpt><trkpt lat="44.1438243" lon="11.9827707"><ele>98.0</ele><time>2026-04-18T13:45:00.185Z</time></trkpt><trkpt lat="44.1436411" lon="11.9826336"><ele>98.0</ele><time>2026-04-18T13:45:01.184Z</time></trkpt><trkpt lat="44.1434397" lon="11.9825062"><ele>98.0</ele><time>2026-04-18T13:45:02.184Z</time></trkpt><trkpt lat="44.1432195" lon="11.9823874"><ele>98.0</ele><time>2026-04-18T13:45:03.185Z</time></trkpt><trkpt lat="44.1429992" lon="11.9822734"><ele>98.0</ele><time>2026-04-18T13:45:04.185Z</time></trkpt><trkpt lat="44.1427797" lon="11.9821653"><ele>98.0</ele><time>2026-04-18T13:45:05.185Z</time></trkpt><trkpt lat="44.142566" lon="11.9820711"><ele>98.0</ele><time>2026-04-18T13:45:06.185Z</time></trkpt><trkpt lat="44.1423536" lon="11.9819958"><ele>98.0</ele><time>2026-04-18T13:45:07.185Z</time></trkpt><trkpt lat="44.1421369" lon="11.9819393"><ele>97.0</ele><time>2026-04-18T13:45:08.185Z</time></trkpt><trkpt lat="44.1419156" lon="11.9818948"><ele>96.0</ele><time>2026-04-18T13:45:09.185Z</time></trkpt><trkpt lat="44.1416913" lon="11.9818596"><ele>95.0</ele><time>2026-04-18T13:45:10.185Z</time></trkpt><trkpt lat="44.1414665" lon="11.9818333"><ele>94.33333333333334</ele><time>2026-04-18T13:45:11.185Z</time></trkpt><trkpt lat="44.141245" lon="11.9818128"><ele>93.66666666666667</ele><time>2026-04-18T13:45:12.185Z</time></trkpt><trkpt lat="44.1410231" lon="11.981795"><ele>93.0</ele><time>2026-04-18T13:45:13.185Z</time></trkpt><trkpt lat="44.1408015" lon="11.9817808"><ele>92.66666666666667</ele><time>2026-04-18T13:45:14.185Z</time></trkpt><trkpt lat="44.1405809" lon="11.9817662"><ele>92.33333333333334</ele><time>2026-04-18T13:45:15.183Z</time></trkpt><trkpt lat="44.1403615" lon="11.9817505"><ele>92.0</ele><time>2026-04-18T13:45:16.184Z</time></trkpt><trkpt lat="44.1401443" lon="11.9817343"><ele>92.0</ele><time>2026-04-18T13:45:17.185Z</time></trkpt><trkpt lat="44.1399294" lon="11.9817179"><ele>92.0</ele><time>2026-04-18T13:45:18.185Z</time></trkpt><trkpt lat="44.1397212" lon="11.9817048"><ele>92.0</ele><time>2026-04-18T13:45:19.185Z</time></trkpt><trkpt lat="44.1395212" lon="11.9816953"><ele>93.0</ele><time>2026-04-18T13:45:20.185Z</time></trkpt><trkpt lat="44.1393193" lon="11.9816785"><ele>94.0</ele><time>2026-04-18T13:45:21.185Z</time></trkpt><trkpt lat="44.1391137" lon="11.9816522"><ele>95.0</ele><time>2026-04-18T13:45:22.185Z</time></trkpt><trkpt lat="44.1389071" lon="11.9816184"><ele>95.0</ele><time>2026-04-18T13:45:23.185Z</time></trkpt><trkpt lat="44.1387002" lon="11.9815773"><ele>95.0</ele><time>2026-04-18T13:45:24.185Z</time></trkpt><trkpt lat="44.1384935" lon="11.9815268"><ele>95.0</ele><time>2026-04-18T13:45:25.185Z</time></trkpt><trkpt lat="44.1382883" lon="11.9814658"><ele>94.33333333333334</ele><time>2026-04-18T13:45:26.185Z</time></trkpt><trkpt lat="44.138086" lon="11.9813924"><ele>93.66666666666667</ele><time>2026-04-18T13:45:27.185Z</time></trkpt><trkpt lat="44.1378868" lon="11.981311"><ele>93.0</ele><time>2026-04-18T13:45:28.185Z</time></trkpt><trkpt lat="44.1376925" lon="11.9812243"><ele>93.0</ele><time>2026-04-18T13:45:29.185Z</time></trkpt><trkpt lat="44.1375026" lon="11.9811346"><ele>93.0</ele><time>2026-04-18T13:45:30.185Z</time></trkpt><trkpt lat="44.1373153" lon="11.9810427"><ele>93.0</ele><time>2026-04-18T13:45:31.185Z</time></trkpt><trkpt lat="44.1371308" lon="11.9809471"><ele>94.66666666666666</ele><time>2026-04-18T13:45:32.185Z</time></trkpt><trkpt lat="44.1369504" lon="11.9808492"><ele>96.33333333333333</ele><time>2026-04-18T13:45:33.184Z</time></trkpt><trkpt lat="44.1367757" lon="11.9807458"><ele>98.0</ele><time>2026-04-18T13:45:34.185Z</time></trkpt><trkpt lat="44.1366077" lon="11.9806328"><ele>95.33333333333333</ele><time>2026-04-18T13:45:35.184Z</time></trkpt><trkpt lat="44.1364469" lon="11.9805068"><ele>92.66666666666666</ele><time>2026-04-18T13:45:36.185Z</time></trkpt><trkpt lat="44.1362864" lon="11.9803687"><ele>90.0</ele><time>2026-04-18T13:45:37.185Z</time></trkpt><trkpt lat="44.136122" lon="11.980225"><ele>90.0</ele><time>2026-04-18T13:45:38.185Z</time></trkpt><trkpt lat="44.1359598" lon="11.9800793"><ele>90.0</ele><time>2026-04-18T13:45:39.185Z</time></trkpt><trkpt lat="44.1358003" lon="11.9799336"><ele>90.0</ele><time>2026-04-18T13:45:40.185Z</time></trkpt><trkpt lat="44.1356436" lon="11.9797899"><ele>90.0</ele><time>2026-04-18T13:45:41.185Z</time></trkpt><trkpt lat="44.1354966" lon="11.9796458"><ele>90.0</ele><time>2026-04-18T13:45:42.184Z</time></trkpt><trkpt lat="44.1353575" lon="11.9794985"><ele>90.0</ele><time>2026-04-18T13:45:43.185Z</time></trkpt><trkpt lat="44.1352193" lon="11.9793291"><ele>89.33333333333333</ele><time>2026-04-18T13:45:44.185Z</time></trkpt><trkpt lat="44.1350799" lon="11.9791398"><ele>88.66666666666666</ele><time>2026-04-18T13:45:45.185Z</time></trkpt><trkpt lat="44.1349427" lon="11.9789508"><ele>88.0</ele><time>2026-04-18T13:45:46.185Z</time></trkpt><trkpt lat="44.1348093" lon="11.9787601"><ele>88.0</ele><time>2026-04-18T13:45:47.185Z</time></trkpt><trkpt lat="44.1346774" lon="11.9785742"><ele>88.0</ele><time>2026-04-18T13:45:48.185Z</time></trkpt><trkpt lat="44.1345379" lon="11.9783915"><ele>88.0</ele><time>2026-04-18T13:45:49.185Z</time></trkpt><trkpt lat="44.1343889" lon="11.9782115"><ele>87.0</ele><time>2026-04-18T13:45:50.185Z</time></trkpt><trkpt lat="44.1342361" lon="11.9780359"><ele>86.0</ele><time>2026-04-18T13:45:51.185Z</time></trkpt><trkpt lat="44.1340805" lon="11.9778668"><ele>85.0</ele><time>2026-04-18T13:45:52.185Z</time></trkpt><trkpt lat="44.1339309" lon="11.9777148"><ele>85.0</ele><time>2026-04-18T13:45:53.185Z</time></trkpt><trkpt lat="44.1337713" lon="11.9775782"><ele>85.0</ele><time>2026-04-18T13:45:54.185Z</time></trkpt><trkpt lat="44.1335961" lon="11.9774659"><ele>85.0</ele><time>2026-04-18T13:45:55.184Z</time></trkpt><trkpt lat="44.1334102" lon="11.9773709"><ele>88.0</ele><time>2026-04-18T13:45:56.185Z</time></trkpt><trkpt lat="44.1332221" lon="11.9772836"><ele>91.0</ele><time>2026-04-18T13:45:57.185Z</time></trkpt><trkpt lat="44.1330357" lon="11.9771976"><ele>94.0</ele><time>2026-04-18T13:45:58.185Z</time></trkpt><trkpt lat="44.1328506" lon="11.9771128"><ele>94.0</ele><time>2026-04-18T13:45:59.183Z</time></trkpt><trkpt lat="44.1326646" lon="11.9770195"><ele>94.0</ele><time>2026-04-18T13:46:00.185Z</time></trkpt><trkpt lat="44.1324738" lon="11.9769231"><ele>94.0</ele><time>2026-04-18T13:46:01.185Z</time></trkpt><trkpt lat="44.1322793" lon="11.9768293"><ele>93.0</ele><time>2026-04-18T13:46:02.185Z</time></trkpt><trkpt lat="44.1320821" lon="11.9767374"><ele>92.0</ele><time>2026-04-18T13:46:03.185Z</time></trkpt><trkpt lat="44.1318818" lon="11.9766426"><ele>91.0</ele><time>2026-04-18T13:46:04.184Z</time></trkpt><trkpt lat="44.1316764" lon="11.9765482"><ele>93.33333333333333</ele><time>2026-04-18T13:46:05.185Z</time></trkpt><trkpt lat="44.1314707" lon="11.9764523"><ele>95.66666666666666</ele><time>2026-04-18T13:46:06.185Z</time></trkpt><trkpt lat="44.1312673" lon="11.9763621"><ele>98.0</ele><time>2026-04-18T13:46:07.185Z</time></trkpt><trkpt lat="44.1310759" lon="11.9762752"><ele>98.0</ele><time>2026-04-18T13:46:08.185Z</time></trkpt><trkpt lat="44.1308946" lon="11.9761822"><ele>98.0</ele><time>2026-04-18T13:46:09.185Z</time></trkpt><trkpt lat="44.1307249" lon="11.9760774"><ele>98.0</ele><time>2026-04-18T13:46:10.185Z</time></trkpt><trkpt lat="44.1305621" lon="11.9759577"><ele>98.66666666666666</ele><time>2026-04-18T13:46:11.185Z</time></trkpt><trkpt lat="44.1304051" lon="11.9758317"><ele>99.33333333333334</ele><time>2026-04-18T13:46:12.185Z</time></trkpt><trkpt lat="44.1302491" lon="11.9757257"><ele>100.0</ele><time>2026-04-18T13:46:13.185Z</time></trkpt><trkpt lat="44.1300843" lon="11.9756455"><ele>100.0</ele><time>2026-04-18T13:46:14.185Z</time></trkpt><trkpt lat="44.1299144" lon="11.9755891"><ele>100.0</ele><time>2026-04-18T13:46:15.185Z</time></trkpt><trkpt lat="44.129747" lon="11.9755592"><ele>100.0</ele><time>2026-04-18T13:46:16.185Z</time></trkpt><trkpt lat="44.1295717" lon="11.9755574"><ele>99.66666666666667</ele><time>2026-04-18T13:46:17.184Z</time></trkpt><trkpt lat="44.1293901" lon="11.9755826"><ele>99.33333333333334</ele><time>2026-04-18T13:46:18.185Z</time></trkpt><trkpt lat="44.1292005" lon="11.9756083"><ele>99.0</ele><time>2026-04-18T13:46:19.185Z</time></trkpt><trkpt lat="44.129005" lon="11.9756168"><ele>98.66666666666666</ele><time>2026-04-18T13:46:20.184Z</time></trkpt><trkpt lat="44.1288066" lon="11.9756184"><ele>98.33333333333333</ele><time>2026-04-18T13:46:21.185Z</time></trkpt><trkpt lat="44.1286094" lon="11.9756094"><ele>98.0</ele><time>2026-04-18T13:46:22.185Z</time></trkpt><trkpt lat="44.1284176" lon="11.97559"><ele>98.0</ele><time>2026-04-18T13:46:23.185Z</time></trkpt><trkpt lat="44.1282307" lon="11.9755579"><ele>98.0</ele><time>2026-04-18T13:46:24.185Z</time></trkpt><trkpt lat="44.1280478" lon="11.9755201"><ele>98.0</ele><time>2026-04-18T13:46:25.184Z</time></trkpt><trkpt lat="44.127871" lon="11.9754739"><ele>97.0</ele><time>2026-04-18T13:46:26.185Z</time></trkpt><trkpt lat="44.1276925" lon="11.9754277"><ele>96.0</ele><time>2026-04-18T13:46:27.185Z</time></trkpt><trkpt lat="44.1275061" lon="11.9753828"><ele>95.0</ele><time>2026-04-18T13:46:28.185Z</time></trkpt><trkpt lat="44.1273037" lon="11.9753367"><ele>94.66666666666667</ele><time>2026-04-18T13:46:29.185Z</time></trkpt><trkpt lat="44.1271112" lon="11.9752931"><ele>94.33333333333333</ele><time>2026-04-18T13:46:30.184Z</time></trkpt><trkpt lat="44.1269152" lon="11.9752483"><ele>94.0</ele><time>2026-04-18T13:46:31.185Z</time></trkpt><trkpt lat="44.1267165" lon="11.9752005"><ele>95.0</ele><time>2026-04-18T13:46:32.185Z</time></trkpt><trkpt lat="44.1265156" lon="11.9751561"><ele>96.0</ele><time>2026-04-18T13:46:33.185Z</time></trkpt><trkpt lat="44.1263179" lon="11.9751048"><ele>97.0</ele><time>2026-04-18T13:46:34.185Z</time></trkpt><trkpt lat="44.1261233" lon="11.9750517"><ele>99.66666666666667</ele><time>2026-04-18T13:46:35.185Z</time></trkpt><trkpt lat="44.1259313" lon="11.9750031"><ele>102.33333333333334</ele><time>2026-04-18T13:46:36.185Z</time></trkpt><trkpt lat="44.1257418" lon="11.9749548"><ele>105.0</ele><time>2026-04-18T13:46:37.185Z</time></trkpt><trkpt lat="44.1255519" lon="11.9749074"><ele>105.66666666666666</ele><time>2026-04-18T13:46:38.184Z</time></trkpt><trkpt lat="44.1253607" lon="11.9748642"><ele>106.33333333333333</ele><time>2026-04-18T13:46:39.185Z</time></trkpt><trkpt lat="44.1251716" lon="11.974818"><ele>107.0</ele><time>2026-04-18T13:46:40.184Z</time></trkpt><trkpt lat="44.1249864" lon="11.9747696"><ele>108.0</ele><time>2026-04-18T13:46:41.185Z</time></trkpt><trkpt lat="44.1248061" lon="11.9747175"><ele>109.0</ele><time>2026-04-18T13:46:42.185Z</time></trkpt><trkpt lat="44.1246392" lon="11.9746593"><ele>110.0</ele><time>2026-04-18T13:46:43.185Z</time></trkpt><trkpt lat="44.1244823" lon="11.9746004"><ele>110.0</ele><time>2026-04-18T13:46:44.185Z</time></trkpt><trkpt lat="44.1243217" lon="11.9745525"><ele>110.0</ele><time>2026-04-18T13:46:45.185Z</time></trkpt><trkpt lat="44.1241639" lon="11.9745249"><ele>110.0</ele><time>2026-04-18T13:46:46.185Z</time></trkpt><trkpt lat="44.1240041" lon="11.9745156"><ele>107.66666666666666</ele><time>2026-04-18T13:46:47.185Z</time></trkpt><trkpt lat="44.1238437" lon="11.9745209"><ele>105.33333333333334</ele><time>2026-04-18T13:46:48.184Z</time></trkpt><trkpt lat="44.1236944" lon="11.9745334"><ele>103.0</ele><time>2026-04-18T13:46:49.185Z</time></trkpt><trkpt lat="44.123543" lon="11.9745473"><ele>103.0</ele><time>2026-04-18T13:46:50.185Z</time></trkpt><trkpt lat="44.1233886" lon="11.9745622"><ele>103.0</ele><time>2026-04-18T13:46:51.184Z</time></trkpt><trkpt lat="44.1232278" lon="11.9745753"><ele>103.0</ele><time>2026-04-18T13:46:52.184Z</time></trkpt><trkpt lat="44.1230605" lon="11.974584"><ele>103.0</ele><time>2026-04-18T13:46:53.184Z</time></trkpt><trkpt lat="44.1228888" lon="11.9745809"><ele>103.0</ele><time>2026-04-18T13:46:54.185Z</time></trkpt><trkpt lat="44.1227135" lon="11.9745578"><ele>103.0</ele><time>2026-04-18T13:46:55.185Z</time></trkpt><trkpt lat="44.1225322" lon="11.9745158"><ele>103.33333333333334</ele><time>2026-04-18T13:46:56.184Z</time></trkpt><trkpt lat="44.1223432" lon="11.9744619"><ele>103.66666666666666</ele><time>2026-04-18T13:46:57.185Z</time></trkpt><trkpt lat="44.1221479" lon="11.974409"><ele>104.0</ele><time>2026-04-18T13:46:58.185Z</time></trkpt><trkpt lat="44.1219579" lon="11.9743655"><ele>104.0</ele><time>2026-04-18T13:46:59.185Z</time></trkpt><trkpt lat="44.1217597" lon="11.9743285"><ele>104.0</ele><time>2026-04-18T13:47:00.184Z</time></trkpt><trkpt lat="44.1215578" lon="11.9743042"><ele>104.0</ele><time>2026-04-18T13:47:01.184Z</time></trkpt><trkpt lat="44.1213578" lon="11.9742898"><ele>104.33333333333333</ele><time>2026-04-18T13:47:02.185Z</time></trkpt><trkpt lat="44.1211703" lon="11.9742787"><ele>104.66666666666666</ele><time>2026-04-18T13:47:03.185Z</time></trkpt><trkpt lat="44.1209869" lon="11.9742774"><ele>105.0</ele><time>2026-04-18T13:47:04.185Z</time></trkpt><trkpt lat="44.1208058" lon="11.974302"><ele>105.0</ele><time>2026-04-18T13:47:05.185Z</time></trkpt><trkpt lat="44.1206201" lon="11.974368"><ele>105.0</ele><time>2026-04-18T13:47:06.184Z</time></trkpt><trkpt lat="44.1204449" lon="11.9744796"><ele>105.0</ele><time>2026-04-18T13:47:07.185Z</time></trkpt><trkpt lat="44.1202761" lon="11.9746272"><ele>105.0</ele><time>2026-04-18T13:47:08.184Z</time></trkpt><trkpt lat="44.1201162" lon="11.9748137"><ele>105.0</ele><time>2026-04-18T13:47:09.184Z</time></trkpt><trkpt lat="44.1199495" lon="11.9750203"><ele>105.0</ele><time>2026-04-18T13:47:10.183Z</time></trkpt><trkpt lat="44.1197898" lon="11.9752157"><ele>107.0</ele><time>2026-04-18T13:47:11.185Z</time></trkpt><trkpt lat="44.1196417" lon="11.9754025"><ele>109.0</ele><time>2026-04-18T13:47:12.184Z</time></trkpt><trkpt lat="44.1195147" lon="11.9756066"><ele>111.0</ele><time>2026-04-18T13:47:13.185Z</time></trkpt><trkpt lat="44.1194131" lon="11.9758299"><ele>108.66666666666666</ele><time>2026-04-18T13:47:14.185Z</time></trkpt><trkpt lat="44.1193348" lon="11.9760437"><ele>106.33333333333333</ele><time>2026-04-18T13:47:15.185Z</time></trkpt><trkpt lat="44.119251" lon="11.9762414"><ele>104.0</ele><time>2026-04-18T13:47:16.185Z</time></trkpt><trkpt lat="44.1191533" lon="11.9764008"><ele>105.33333333333333</ele><time>2026-04-18T13:47:17.185Z</time></trkpt><trkpt lat="44.1190278" lon="11.9765141"><ele>106.66666666666666</ele><time>2026-04-18T13:47:18.184Z</time></trkpt><trkpt lat="44.1188812" lon="11.9765755"><ele>108.0</ele><time>2026-04-18T13:47:19.184Z</time></trkpt><trkpt lat="44.118715" lon="11.9765819"><ele>108.0</ele><time>2026-04-18T13:47:20.185Z</time></trkpt><trkpt lat="44.1185381" lon="11.976548"><ele>108.0</ele><time>2026-04-18T13:47:21.185Z</time></trkpt><trkpt lat="44.1183399" lon="11.976493"><ele>108.0</ele><time>2026-04-18T13:47:22.185Z</time></trkpt><trkpt lat="44.1181208" lon="11.9764354"><ele>107.5</ele><time>2026-04-18T13:47:23.184Z</time></trkpt><trkpt lat="44.1178887" lon="11.9763773"><ele>107.0</ele><time>2026-04-18T13:47:24.185Z</time></trkpt><trkpt lat="44.1176513" lon="11.9763148"><ele>107.0</ele><time>2026-04-18T13:47:25.185Z</time></trkpt><trkpt lat="44.1174232" lon="11.9762478"><ele>107.0</ele><time>2026-04-18T13:47:26.185Z</time></trkpt><trkpt lat="44.1172091" lon="11.9761788"><ele>106.0</ele><time>2026-04-18T13:47:27.185Z</time></trkpt><trkpt lat="44.1170102" lon="11.9761132"><ele>105.0</ele><time>2026-04-18T13:47:28.185Z</time></trkpt><trkpt lat="44.1168279" lon="11.9760553"><ele>104.0</ele><time>2026-04-18T13:47:29.185Z</time></trkpt><trkpt lat="44.1166591" lon="11.9760055"><ele>104.0</ele><time>2026-04-18T13:47:30.185Z</time></trkpt><trkpt lat="44.1164844" lon="11.9759833"><ele>104.0</ele><time>2026-04-18T13:47:31.185Z</time></trkpt><trkpt lat="44.1163011" lon="11.9759969"><ele>104.0</ele><time>2026-04-18T13:47:32.185Z</time></trkpt><trkpt lat="44.1161165" lon="11.9760435"><ele>104.0</ele><time>2026-04-18T13:47:33.184Z</time></trkpt><trkpt lat="44.1159431" lon="11.9761263"><ele>104.0</ele><time>2026-04-18T13:47:34.185Z</time></trkpt><trkpt lat="44.1157806" lon="11.9762366"><ele>104.0</ele><time>2026-04-18T13:47:35.185Z</time></trkpt><trkpt lat="44.1156283" lon="11.9763723"><ele>109.0</ele><time>2026-04-18T13:47:36.184Z</time></trkpt><trkpt lat="44.1154887" lon="11.976536"><ele>114.0</ele><time>2026-04-18T13:47:37.185Z</time></trkpt><trkpt lat="44.1153704" lon="11.9767144"><ele>119.0</ele><time>2026-04-18T13:47:38.185Z</time></trkpt><trkpt lat="44.1152714" lon="11.9769116"><ele>119.0</ele><time>2026-04-18T13:47:39.185Z</time></trkpt><trkpt lat="44.1151922" lon="11.9771279"><ele>119.0</ele><time>2026-04-18T13:47:40.184Z</time></trkpt><trkpt lat="44.1151355" lon="11.9773522"><ele>119.0</ele><time>2026-04-18T13:47:41.185Z</time></trkpt><trkpt lat="44.115095" lon="11.9775806"><ele>119.0</ele><time>2026-04-18T13:47:42.183Z</time></trkpt><trkpt lat="44.1150704" lon="11.9778123"><ele>119.0</ele><time>2026-04-18T13:47:43.185Z</time></trkpt><trkpt lat="44.115051" lon="11.9780409"><ele>119.0</ele><time>2026-04-18T13:47:44.185Z</time></trkpt><trkpt lat="44.1150255" lon="11.9782775"><ele>118.66666666666666</ele><time>2026-04-18T13:47:45.185Z</time></trkpt><trkpt lat="44.1149917" lon="11.9785079"><ele>118.33333333333334</ele><time>2026-04-18T13:47:46.185Z</time></trkpt><trkpt lat="44.1149375" lon="11.9787154"><ele>118.0</ele><time>2026-04-18T13:47:47.185Z</time></trkpt><trkpt lat="44.1148564" lon="11.9789248"><ele>117.33333333333334</ele><time>2026-04-18T13:47:48.185Z</time></trkpt><trkpt lat="44.1147433" lon="11.9790961"><ele>116.66666666666666</ele><time>2026-04-18T13:47:49.185Z</time></trkpt><trkpt lat="44.1146099" lon="11.9792349"><ele>116.0</ele><time>2026-04-18T13:47:50.185Z</time></trkpt><trkpt lat="44.1144621" lon="11.979337"><ele>115.0</ele><time>2026-04-18T13:47:51.185Z</time></trkpt><trkpt lat="44.1143033" lon="11.9794014"><ele>114.0</ele><time>2026-04-18T13:47:52.185Z</time></trkpt><trkpt lat="44.1141384" lon="11.9794231"><ele>113.0</ele><time>2026-04-18T13:47:53.185Z</time></trkpt><trkpt lat="44.1139622" lon="11.9794082"><ele>113.0</ele><time>2026-04-18T13:47:54.185Z</time></trkpt><trkpt lat="44.1137791" lon="11.9793708"><ele>113.0</ele><time>2026-04-18T13:47:55.185Z</time></trkpt><trkpt lat="44.1136088" lon="11.9793188"><ele>113.0</ele><time>2026-04-18T13:47:56.185Z</time></trkpt><trkpt lat="44.1134376" lon="11.9792628"><ele>113.0</ele><time>2026-04-18T13:47:57.185Z</time></trkpt><trkpt lat="44.1132681" lon="11.9792071"><ele>113.0</ele><time>2026-04-18T13:47:58.185Z</time></trkpt><trkpt lat="44.1131002" lon="11.9791541"><ele>113.0</ele><time>2026-04-18T13:47:59.185Z</time></trkpt><trkpt lat="44.1129365" lon="11.9791036"><ele>114.0</ele><time>2026-04-18T13:48:00.185Z</time></trkpt><trkpt lat="44.1127838" lon="11.9790551"><ele>115.0</ele><time>2026-04-18T13:48:01.185Z</time></trkpt><trkpt lat="44.1126333" lon="11.9790034"><ele>116.0</ele><time>2026-04-18T13:48:02.185Z</time></trkpt><trkpt lat="44.1124839" lon="11.9789514"><ele>115.33333333333333</ele><time>2026-04-18T13:48:03.185Z</time></trkpt><trkpt lat="44.1123276" lon="11.9789147"><ele>114.66666666666666</ele><time>2026-04-18T13:48:04.185Z</time></trkpt><trkpt lat="44.1121672" lon="11.9789006"><ele>114.0</ele><time>2026-04-18T13:48:05.185Z</time></trkpt><trkpt lat="44.112001" lon="11.9789064"><ele>114.0</ele><time>2026-04-18T13:48:06.185Z</time></trkpt><trkpt lat="44.1118304" lon="11.9789246"><ele>114.0</ele><time>2026-04-18T13:48:07.185Z</time></trkpt><trkpt lat="44.1116591" lon="11.9789481"><ele>114.0</ele><time>2026-04-18T13:48:08.185Z</time></trkpt><trkpt lat="44.1115006" lon="11.9789732"><ele>115.0</ele><time>2026-04-18T13:48:09.185Z</time></trkpt><trkpt lat="44.1113483" lon="11.979004"><ele>116.0</ele><time>2026-04-18T13:48:10.185Z</time></trkpt><trkpt lat="44.1111963" lon="11.9790496"><ele>117.0</ele><time>2026-04-18T13:48:11.185Z</time></trkpt><trkpt lat="44.1110497" lon="11.9791281"><ele>116.66666666666666</ele><time>2026-04-18T13:48:12.184Z</time></trkpt><trkpt lat="44.1109108" lon="11.9792384"><ele>116.33333333333333</ele><time>2026-04-18T13:48:13.185Z</time></trkpt><trkpt lat="44.1107853" lon="11.9793744"><ele>116.0</ele><time>2026-04-18T13:48:14.185Z</time></trkpt><trkpt lat="44.110669" lon="11.9795294"><ele>117.33333333333333</ele><time>2026-04-18T13:48:15.185Z</time></trkpt><trkpt lat="44.1105544" lon="11.9796945"><ele>118.66666666666666</ele><time>2026-04-18T13:48:16.185Z</time></trkpt><trkpt lat="44.1104434" lon="11.9798662"><ele>120.0</ele><time>2026-04-18T13:48:17.185Z</time></trkpt><trkpt lat="44.1103383" lon="11.9800336"><ele>120.0</ele><time>2026-04-18T13:48:18.185Z</time></trkpt><trkpt lat="44.110243" lon="11.9801852"><ele>120.0</ele><time>2026-04-18T13:48:19.185Z</time></trkpt><trkpt lat="44.1101502" lon="11.9803245"><ele>120.0</ele><time>2026-04-18T13:48:20.185Z</time></trkpt><trkpt lat="44.1100609" lon="11.9804452"><ele>120.0</ele><time>2026-04-18T13:48:21.185Z</time></trkpt><trkpt lat="44.1099693" lon="11.980546"><ele>121.75</ele><time>2026-04-18T13:48:22.185Z</time></trkpt><trkpt lat="44.1098758" lon="11.9806343"><ele>123.5</ele><time>2026-04-18T13:48:23.185Z</time></trkpt><trkpt lat="44.1097728" lon="11.9807006"><ele>125.25</ele><time>2026-04-18T13:48:24.185Z</time></trkpt><trkpt lat="44.109661" lon="11.9807514"><ele>127.0</ele><time>2026-04-18T13:48:25.185Z</time></trkpt><trkpt lat="44.1095441" lon="11.9807844"><ele>127.0</ele><time>2026-04-18T13:48:26.183Z</time></trkpt><trkpt lat="44.1094227" lon="11.9808077"><ele>127.0</ele><time>2026-04-18T13:48:27.185Z</time></trkpt><trkpt lat="44.1093055" lon="11.9808384"><ele>127.0</ele><time>2026-04-18T13:48:28.185Z</time></trkpt><trkpt lat="44.1091916" lon="11.9808731"><ele>127.0</ele><time>2026-04-18T13:48:29.184Z</time></trkpt><trkpt lat="44.1090878" lon="11.980902"><ele>126.8</ele><time>2026-04-18T13:48:30.185Z</time></trkpt><trkpt lat="44.1089826" lon="11.9809339"><ele>126.6</ele><time>2026-04-18T13:48:31.184Z</time></trkpt><trkpt lat="44.1088747" lon="11.9809673"><ele>126.39999999999999</ele><time>2026-04-18T13:48:32.184Z</time></trkpt><trkpt lat="44.10877" lon="11.9809985"><ele>126.19999999999999</ele><time>2026-04-18T13:48:33.185Z</time></trkpt><trkpt lat="44.108668" lon="11.9810218"><ele>126.0</ele><time>2026-04-18T13:48:34.185Z</time></trkpt><trkpt lat="44.1085625" lon="11.9810434"><ele>126.0</ele><time>2026-04-18T13:48:35.185Z</time></trkpt><trkpt lat="44.1084567" lon="11.9810724"><ele>126.0</ele><time>2026-04-18T13:48:36.185Z</time></trkpt><trkpt lat="44.1083505" lon="11.9811014"><ele>126.0</ele><time>2026-04-18T13:48:37.185Z</time></trkpt><trkpt lat="44.1082468" lon="11.9811245"><ele>126.0</ele><time>2026-04-18T13:48:38.184Z</time></trkpt><trkpt lat="44.108144" lon="11.9811513"><ele>126.0</ele><time>2026-04-18T13:48:39.185Z</time></trkpt><trkpt lat="44.1080484" lon="11.9811823"><ele>126.4</ele><time>2026-04-18T13:48:40.185Z</time></trkpt><trkpt lat="44.1079519" lon="11.9812159"><ele>126.8</ele><time>2026-04-18T13:48:41.185Z</time></trkpt><trkpt lat="44.1078616" lon="11.9812391"><ele>127.20000000000002</ele><time>2026-04-18T13:48:42.185Z</time></trkpt><trkpt lat="44.1077686" lon="11.981268"><ele>127.60000000000001</ele><time>2026-04-18T13:48:43.185Z</time></trkpt><trkpt lat="44.1076782" lon="11.9812921"><ele>128.0</ele><time>2026-04-18T13:48:44.185Z</time></trkpt><trkpt lat="44.1075871" lon="11.9813157"><ele>128.0</ele><time>2026-04-18T13:48:45.185Z</time></trkpt><trkpt lat="44.1074962" lon="11.9813397"><ele>128.0</ele><time>2026-04-18T13:48:46.185Z</time></trkpt><trkpt lat="44.1073985" lon="11.981369"><ele>128.0</ele><time>2026-04-18T13:48:47.185Z</time></trkpt><trkpt lat="44.107306" lon="11.9813984"><ele>128.0</ele><time>2026-04-18T13:48:48.185Z</time></trkpt><trkpt lat="44.1072063" lon="11.9814237"><ele>128.0</ele><time>2026-04-18T13:48:49.185Z</time></trkpt><trkpt lat="44.1071071" lon="11.9814454"><ele>128.20000000000002</ele><time>2026-04-18T13:48:50.183Z</time></trkpt><trkpt lat="44.1070045" lon="11.9814651"><ele>128.4</ele><time>2026-04-18T13:48:51.185Z</time></trkpt><trkpt lat="44.1069087" lon="11.9814875"><ele>128.60000000000002</ele><time>2026-04-18T13:48:52.185Z</time></trkpt><trkpt lat="44.1068125" lon="11.9815195"><ele>128.8</ele><time>2026-04-18T13:48:53.185Z</time></trkpt><trkpt lat="44.1067216" lon="11.9815508"><ele>129.0</ele><time>2026-04-18T13:48:54.184Z</time></trkpt><trkpt lat="44.1066314" lon="11.9815736"><ele>129.0</ele><time>2026-04-18T13:48:55.185Z</time></trkpt><trkpt lat="44.1065396" lon="11.9815975"><ele>129.0</ele><time>2026-04-18T13:48:56.185Z</time></trkpt><trkpt lat="44.1064473" lon="11.9816212"><ele>129.0</ele><time>2026-04-18T13:48:57.184Z</time></trkpt><trkpt lat="44.1063597" lon="11.9816395"><ele>129.0</ele><time>2026-04-18T13:48:58.185Z</time></trkpt><trkpt lat="44.1062808" lon="11.9816515"><ele>129.0</ele><time>2026-04-18T13:48:59.185Z</time></trkpt><trkpt lat="44.1062029" lon="11.9816609"><ele>129.0</ele><time>2026-04-18T13:49:00.185Z</time></trkpt><trkpt lat="44.1061224" lon="11.9816697"><ele>129.0</ele><time>2026-04-18T13:49:01.185Z</time></trkpt><trkpt lat="44.1060384" lon="11.9816764"><ele>129.0</ele><time>2026-04-18T13:49:02.185Z</time></trkpt><trkpt lat="44.1059528" lon="11.9816748"><ele>129.0</ele><time>2026-04-18T13:49:03.185Z</time></trkpt><trkpt lat="44.1058625" lon="11.9816742"><ele>129.0</ele><time>2026-04-18T13:49:04.185Z</time></trkpt><trkpt lat="44.1057672" lon="11.9816695"><ele>129.0</ele><time>2026-04-18T13:49:05.185Z</time></trkpt><trkpt lat="44.1056712" lon="11.9816656"><ele>129.0</ele><time>2026-04-18T13:49:06.185Z</time></trkpt><trkpt lat="44.105581" lon="11.9816639"><ele>129.0</ele><time>2026-04-18T13:49:07.185Z</time></trkpt><trkpt lat="44.105495" lon="11.9816611"><ele>129.0</ele><time>2026-04-18T13:49:08.185Z</time></trkpt><trkpt lat="44.1054094" lon="11.9816586"><ele>129.0</ele><time>2026-04-18T13:49:09.185Z</time></trkpt><trkpt lat="44.1053266" lon="11.9816523"><ele>129.0</ele><time>2026-04-18T13:49:10.185Z</time></trkpt><trkpt lat="44.1052371" lon="11.9816479"><ele>129.0</ele><time>2026-04-18T13:49:11.185Z</time></trkpt><trkpt lat="44.1051448" lon="11.9816452"><ele>129.0</ele><time>2026-04-18T13:49:12.185Z</time></trkpt><trkpt lat="44.1050502" lon="11.9816426"><ele>129.0</ele><time>2026-04-18T13:49:13.184Z</time></trkpt><trkpt lat="44.1049553" lon="11.9816371"><ele>129.0</ele><time>2026-04-18T13:49:14.185Z</time></trkpt><trkpt lat="44.1048553" lon="11.9816344"><ele>129.0</ele><time>2026-04-18T13:49:15.185Z</time></trkpt><trkpt lat="44.1047576" lon="11.9816302"><ele>129.0</ele><time>2026-04-18T13:49:16.185Z</time></trkpt><trkpt lat="44.1046626" lon="11.9816248"><ele>129.4</ele><time>2026-04-18T13:49:17.185Z</time></trkpt><trkpt lat="44.1045657" lon="11.9816201"><ele>129.8</ele><time>2026-04-18T13:49:18.185Z</time></trkpt><trkpt lat="44.1044726" lon="11.9816171"><ele>130.2</ele><time>2026-04-18T13:49:19.185Z</time></trkpt><trkpt lat="44.1043805" lon="11.9816161"><ele>130.6</ele><time>2026-04-18T13:49:20.185Z</time></trkpt><trkpt lat="44.1042897" lon="11.9816144"><ele>131.0</ele><time>2026-04-18T13:49:21.185Z</time></trkpt><trkpt lat="44.1041977" lon="11.9816139"><ele>131.0</ele><time>2026-04-18T13:49:22.184Z</time></trkpt><trkpt lat="44.1041006" lon="11.9816106"><ele>131.0</ele><time>2026-04-18T13:49:23.185Z</time></trkpt><trkpt lat="44.1039973" lon="11.981608"><ele>131.0</ele><time>2026-04-18T13:49:24.183Z</time></trkpt><trkpt lat="44.1038915" lon="11.9816045"><ele>131.0</ele><time>2026-04-18T13:49:25.185Z</time></trkpt><trkpt lat="44.1037873" lon="11.9815999"><ele>131.0</ele><time>2026-04-18T13:49:26.185Z</time></trkpt><trkpt lat="44.1036835" lon="11.9815948"><ele>131.2</ele><time>2026-04-18T13:49:27.185Z</time></trkpt><trkpt lat="44.1035817" lon="11.981591"><ele>131.39999999999998</ele><time>2026-04-18T13:49:28.185Z</time></trkpt><trkpt lat="44.1034808" lon="11.9815861"><ele>131.6</ele><time>2026-04-18T13:49:29.185Z</time></trkpt><trkpt lat="44.1033778" lon="11.9815821"><ele>131.79999999999998</ele><time>2026-04-18T13:49:30.184Z</time></trkpt><trkpt lat="44.1032737" lon="11.9815796"><ele>132.0</ele><time>2026-04-18T13:49:31.185Z</time></trkpt><trkpt lat="44.1031729" lon="11.9815768"><ele>132.0</ele><time>2026-04-18T13:49:32.185Z</time></trkpt><trkpt lat="44.1030774" lon="11.9815749"><ele>132.0</ele><time>2026-04-18T13:49:33.185Z</time></trkpt><trkpt lat="44.102984" lon="11.9815729"><ele>132.0</ele><time>2026-04-18T13:49:34.185Z</time></trkpt><trkpt lat="44.1028831" lon="11.9815745"><ele>132.0</ele><time>2026-04-18T13:49:35.183Z</time></trkpt><trkpt lat="44.1027787" lon="11.9815708"><ele>132.0</ele><time>2026-04-18T13:49:36.184Z</time></trkpt><trkpt lat="44.1026793" lon="11.9815623"><ele>132.0</ele><time>2026-04-18T13:49:37.185Z</time></trkpt><trkpt lat="44.1025804" lon="11.9815509"><ele>132.0</ele><time>2026-04-18T13:49:38.184Z</time></trkpt><trkpt lat="44.1024819" lon="11.9815385"><ele>132.0</ele><time>2026-04-18T13:49:39.185Z</time></trkpt><trkpt lat="44.1023799" lon="11.9815248"><ele>132.0</ele><time>2026-04-18T13:49:40.185Z</time></trkpt><trkpt lat="44.1022761" lon="11.9815115"><ele>132.0</ele><time>2026-04-18T13:49:41.185Z</time></trkpt><trkpt lat="44.1021742" lon="11.9814928"><ele>132.79999999999998</ele><time>2026-04-18T13:49:42.185Z</time></trkpt><trkpt lat="44.1020747" lon="11.9814667"><ele>133.6</ele><time>2026-04-18T13:49:43.185Z</time></trkpt><trkpt lat="44.1019785" lon="11.9814362"><ele>134.39999999999998</ele><time>2026-04-18T13:49:44.184Z</time></trkpt><trkpt lat="44.101881" lon="11.9814066"><ele>135.2</ele><time>2026-04-18T13:49:45.185Z</time></trkpt><trkpt lat="44.1017853" lon="11.9813742"><ele>136.0</ele><time>2026-04-18T13:49:46.185Z</time></trkpt><trkpt lat="44.1016876" lon="11.9813449"><ele>136.0</ele><time>2026-04-18T13:49:47.184Z</time></trkpt><trkpt lat="44.1015875" lon="11.9813127"><ele>136.0</ele><time>2026-04-18T13:49:48.185Z</time></trkpt><trkpt lat="44.1014843" lon="11.9812826"><ele>136.0</ele><time>2026-04-18T13:49:49.184Z</time></trkpt><trkpt lat="44.1013791" lon="11.9812538"><ele>136.0</ele><time>2026-04-18T13:49:50.185Z</time></trkpt><trkpt lat="44.1012718" lon="11.9812216"><ele>136.0</ele><time>2026-04-18T13:49:51.185Z</time></trkpt><trkpt lat="44.1011641" lon="11.9811861"><ele>136.25</ele><time>2026-04-18T13:49:52.185Z</time></trkpt><trkpt lat="44.1010528" lon="11.9811525"><ele>136.5</ele><time>2026-04-18T13:49:53.185Z</time></trkpt><trkpt lat="44.1009416" lon="11.9811192"><ele>136.75</ele><time>2026-04-18T13:49:54.185Z</time></trkpt><trkpt lat="44.100832" lon="11.9810861"><ele>137.0</ele><time>2026-04-18T13:49:55.184Z</time></trkpt><trkpt lat="44.1007237" lon="11.9810564"><ele>137.0</ele><time>2026-04-18T13:49:56.185Z</time></trkpt><trkpt lat="44.1006165" lon="11.9810273"><ele>137.0</ele><time>2026-04-18T13:49:57.184Z</time></trkpt><trkpt lat="44.1005082" lon="11.9810038"><ele>137.0</ele><time>2026-04-18T13:49:58.184Z</time></trkpt><trkpt lat="44.1003995" lon="11.9809888"><ele>137.0</ele><time>2026-04-18T13:49:59.185Z</time></trkpt><trkpt lat="44.1002874" lon="11.9809908"><ele>137.0</ele><time>2026-04-18T13:50:00.185Z</time></trkpt><trkpt lat="44.1001696" lon="11.9809996"><ele>137.0</ele><time>2026-04-18T13:50:01.185Z</time></trkpt><trkpt lat="44.100048" lon="11.9810209"><ele>137.0</ele><time>2026-04-18T13:50:02.184Z</time></trkpt><trkpt lat="44.0999247" lon="11.9810441"><ele>137.0</ele><time>2026-04-18T13:50:03.185Z</time></trkpt><trkpt lat="44.0997971" lon="11.981067"><ele>137.0</ele><time>2026-04-18T13:50:04.185Z</time></trkpt><trkpt lat="44.0996671" lon="11.981088"><ele>138.25</ele><time>2026-04-18T13:50:05.185Z</time></trkpt><trkpt lat="44.0995394" lon="11.9811078"><ele>139.5</ele><time>2026-04-18T13:50:06.185Z</time></trkpt><trkpt lat="44.0994156" lon="11.9811279"><ele>140.75</ele><time>2026-04-18T13:50:07.184Z</time></trkpt><trkpt lat="44.0992891" lon="11.9811464"><ele>142.0</ele><time>2026-04-18T13:50:08.185Z</time></trkpt><trkpt lat="44.0991673" lon="11.9811688"><ele>142.0</ele><time>2026-04-18T13:50:09.185Z</time></trkpt><trkpt lat="44.0990468" lon="11.9811906"><ele>142.0</ele><time>2026-04-18T13:50:10.184Z</time></trkpt><trkpt lat="44.0989258" lon="11.9812136"><ele>142.0</ele><time>2026-04-18T13:50:11.185Z</time></trkpt><trkpt lat="44.0988032" lon="11.9812377"><ele>142.0</ele><time>2026-04-18T13:50:12.184Z</time></trkpt><trkpt lat="44.0986801" lon="11.9812594"><ele>142.0</ele><time>2026-04-18T13:50:13.185Z</time></trkpt><trkpt lat="44.098555" lon="11.9812813"><ele>142.0</ele><time>2026-04-18T13:50:14.185Z</time></trkpt><trkpt lat="44.0984323" lon="11.9813033"><ele>142.0</ele><time>2026-04-18T13:50:15.184Z</time></trkpt><trkpt lat="44.0983086" lon="11.9813267"><ele>142.0</ele><time>2026-04-18T13:50:16.185Z</time></trkpt><trkpt lat="44.0981835" lon="11.9813502"><ele>142.25</ele><time>2026-04-18T13:50:17.185Z</time></trkpt><trkpt lat="44.0980546" lon="11.9813737"><ele>142.5</ele><time>2026-04-18T13:50:18.185Z</time></trkpt><trkpt lat="44.0979317" lon="11.9813952"><ele>142.75</ele><time>2026-04-18T13:50:19.185Z</time></trkpt><trkpt lat="44.0978045" lon="11.9814194"><ele>143.0</ele><time>2026-04-18T13:50:20.185Z</time></trkpt><trkpt lat="44.0976756" lon="11.9814421"><ele>143.0</ele><time>2026-04-18T13:50:21.184Z</time></trkpt><trkpt lat="44.0975467" lon="11.9814568"><ele>143.0</ele><time>2026-04-18T13:50:22.185Z</time></trkpt><trkpt lat="44.0974173" lon="11.9814655"><ele>143.0</ele><time>2026-04-18T13:50:23.184Z</time></trkpt><trkpt lat="44.0972901" lon="11.9814682"><ele>143.0</ele><time>2026-04-18T13:50:24.184Z</time></trkpt><trkpt lat="44.097162" lon="11.98146"><ele>143.5</ele><time>2026-04-18T13:50:25.185Z</time></trkpt><trkpt lat="44.0970308" lon="11.9814458"><ele>144.0</ele><time>2026-04-18T13:50:26.185Z</time></trkpt><trkpt lat="44.0968998" lon="11.9814205"><ele>144.5</ele><time>2026-04-18T13:50:27.185Z</time></trkpt><trkpt lat="44.0967701" lon="11.9813852"><ele>145.0</ele><time>2026-04-18T13:50:28.185Z</time></trkpt><trkpt lat="44.0966462" lon="11.9813409"><ele>145.25</ele><time>2026-04-18T13:50:29.184Z</time></trkpt><trkpt lat="44.0965242" lon="11.9812919"><ele>145.5</ele><time>2026-04-18T13:50:30.184Z</time></trkpt><trkpt lat="44.096409" lon="11.9812331"><ele>145.75</ele><time>2026-04-18T13:50:31.184Z</time></trkpt><trkpt lat="44.0962981" lon="11.9811692"><ele>146.0</ele><time>2026-04-18T13:50:32.185Z</time></trkpt><trkpt lat="44.0961901" lon="11.9810984"><ele>146.0</ele><time>2026-04-18T13:50:33.185Z</time></trkpt><trkpt lat="44.0960828" lon="11.9810187"><ele>146.0</ele><time>2026-04-18T13:50:34.185Z</time></trkpt><trkpt lat="44.0959728" lon="11.9809382"><ele>146.0</ele><time>2026-04-18T13:50:35.185Z</time></trkpt><trkpt lat="44.0958603" lon="11.9808598"><ele>146.0</ele><time>2026-04-18T13:50:36.185Z</time></trkpt><trkpt lat="44.0957479" lon="11.9807827"><ele>146.5</ele><time>2026-04-18T13:50:37.185Z</time></trkpt><trkpt lat="44.0956342" lon="11.9807011"><ele>147.0</ele><time>2026-04-18T13:50:38.185Z</time></trkpt><trkpt lat="44.0955229" lon="11.9806178"><ele>147.5</ele><time>2026-04-18T13:50:39.185Z</time></trkpt><trkpt lat="44.0954118" lon="11.9805359"><ele>148.0</ele><time>2026-04-18T13:50:40.185Z</time></trkpt><trkpt lat="44.0952995" lon="11.980455"><ele>148.0</ele><time>2026-04-18T13:50:41.185Z</time></trkpt><trkpt lat="44.0951866" lon="11.9803744"><ele>148.0</ele><time>2026-04-18T13:50:42.185Z</time></trkpt><trkpt lat="44.0950748" lon="11.9802938"><ele>148.0</ele><time>2026-04-18T13:50:43.185Z</time></trkpt><trkpt lat="44.0949642" lon="11.9802121"><ele>148.0</ele><time>2026-04-18T13:50:44.184Z</time></trkpt><trkpt lat="44.0948551" lon="11.980131"><ele>148.0</ele><time>2026-04-18T13:50:45.185Z</time></trkpt><trkpt lat="44.0947461" lon="11.9800528"><ele>148.0</ele><time>2026-04-18T13:50:46.184Z</time></trkpt><trkpt lat="44.0946396" lon="11.9799749"><ele>148.0</ele><time>2026-04-18T13:50:47.185Z</time></trkpt><trkpt lat="44.0945328" lon="11.9799005"><ele>148.0</ele><time>2026-04-18T13:50:48.185Z</time></trkpt><trkpt lat="44.0944283" lon="11.9798247"><ele>148.0</ele><time>2026-04-18T13:50:49.184Z</time></trkpt><trkpt lat="44.0943267" lon="11.9797529"><ele>148.0</ele><time>2026-04-18T13:50:50.185Z</time></trkpt><trkpt lat="44.0942255" lon="11.9796836"><ele>148.0</ele><time>2026-04-18T13:50:51.185Z</time></trkpt><trkpt lat="44.0941288" lon="11.9796142"><ele>148.0</ele><time>2026-04-18T13:50:52.185Z</time></trkpt><trkpt lat="44.0940271" lon="11.9795441"><ele>148.0</ele><time>2026-04-18T13:50:53.184Z</time></trkpt><trkpt lat="44.0939133" lon="11.9794828"><ele>148.0</ele><time>2026-04-18T13:50:54.185Z</time></trkpt><trkpt lat="44.093791" lon="11.9794469"><ele>148.0</ele><time>2026-04-18T13:50:55.185Z</time></trkpt><trkpt lat="44.0936626" lon="11.9794314"><ele>148.0</ele><time>2026-04-18T13:50:56.185Z</time></trkpt><trkpt lat="44.0935351" lon="11.9794436"><ele>148.0</ele><time>2026-04-18T13:50:57.185Z</time></trkpt><trkpt lat="44.0934021" lon="11.9794744"><ele>148.0</ele><time>2026-04-18T13:50:58.185Z</time></trkpt><trkpt lat="44.0932657" lon="11.9795162"><ele>148.0</ele><time>2026-04-18T13:50:59.185Z</time></trkpt><trkpt lat="44.093128" lon="11.9795528"><ele>148.0</ele><time>2026-04-18T13:51:00.185Z</time></trkpt><trkpt lat="44.0929945" lon="11.979591"><ele>148.0</ele><time>2026-04-18T13:51:01.184Z</time></trkpt><trkpt lat="44.0928652" lon="11.9796292"><ele>149.25</ele><time>2026-04-18T13:51:02.185Z</time></trkpt><trkpt lat="44.0927351" lon="11.9796674"><ele>150.5</ele><time>2026-04-18T13:51:03.185Z</time></trkpt><trkpt lat="44.0926054" lon="11.9797034"><ele>151.75</ele><time>2026-04-18T13:51:04.185Z</time></trkpt><trkpt lat="44.0924721" lon="11.9797419"><ele>153.0</ele><time>2026-04-18T13:51:05.184Z</time></trkpt><trkpt lat="44.0923363" lon="11.9797811"><ele>153.0</ele><time>2026-04-18T13:51:06.185Z</time></trkpt><trkpt lat="44.0921969" lon="11.9798228"><ele>153.0</ele><time>2026-04-18T13:51:07.185Z</time></trkpt><trkpt lat="44.0920526" lon="11.9798686"><ele>153.0</ele><time>2026-04-18T13:51:08.185Z</time></trkpt><trkpt lat="44.0919074" lon="11.9799127"><ele>153.0</ele><time>2026-04-18T13:51:09.185Z</time></trkpt><trkpt lat="44.0917627" lon="11.9799569"><ele>153.0</ele><time>2026-04-18T13:51:10.184Z</time></trkpt><trkpt lat="44.0916213" lon="11.9800002"><ele>153.0</ele><time>2026-04-18T13:51:11.184Z</time></trkpt><trkpt lat="44.0914818" lon="11.9800386"><ele>153.0</ele><time>2026-04-18T13:51:12.185Z</time></trkpt><trkpt lat="44.0913455" lon="11.9800729"><ele>153.0</ele><time>2026-04-18T13:51:13.185Z</time></trkpt><trkpt lat="44.0912113" lon="11.9801023"><ele>151.0</ele><time>2026-04-18T13:51:14.185Z</time></trkpt><trkpt lat="44.0910791" lon="11.9801216"><ele>149.0</ele><time>2026-04-18T13:51:15.184Z</time></trkpt><trkpt lat="44.0909504" lon="11.980123"><ele>147.0</ele><time>2026-04-18T13:51:16.185Z</time></trkpt><trkpt lat="44.0908225" lon="11.9801088"><ele>145.0</ele><time>2026-04-18T13:51:17.185Z</time></trkpt><trkpt lat="44.0906943" lon="11.9800876"><ele>144.75</ele><time>2026-04-18T13:51:18.185Z</time></trkpt><trkpt lat="44.0905613" lon="11.9800554"><ele>144.5</ele><time>2026-04-18T13:51:19.185Z</time></trkpt><trkpt lat="44.0904252" lon="11.9800097"><ele>144.25</ele><time>2026-04-18T13:51:20.185Z</time></trkpt><trkpt lat="44.0902856" lon="11.9799573"><ele>144.0</ele><time>2026-04-18T13:51:21.185Z</time></trkpt><trkpt lat="44.0901412" lon="11.979905"><ele>145.0</ele><time>2026-04-18T13:51:22.185Z</time></trkpt><trkpt lat="44.090002" lon="11.9798412"><ele>146.0</ele><time>2026-04-18T13:51:23.185Z</time></trkpt><trkpt lat="44.0898698" lon="11.9797671"><ele>147.0</ele><time>2026-04-18T13:51:24.184Z</time></trkpt><trkpt lat="44.0897407" lon="11.9796966"><ele>148.0</ele><time>2026-04-18T13:51:25.185Z</time></trkpt><trkpt lat="44.0896133" lon="11.9796269"><ele>148.0</ele><time>2026-04-18T13:51:26.185Z</time></trkpt><trkpt lat="44.0894877" lon="11.9795588"><ele>148.0</ele><time>2026-04-18T13:51:27.185Z</time></trkpt><trkpt lat="44.0893607" lon="11.9794928"><ele>148.0</ele><time>2026-04-18T13:51:28.185Z</time></trkpt><trkpt lat="44.0892331" lon="11.979426"><ele>148.0</ele><time>2026-04-18T13:51:29.185Z</time></trkpt><trkpt lat="44.0891012" lon="11.97936"><ele>148.0</ele><time>2026-04-18T13:51:30.185Z</time></trkpt><trkpt lat="44.0889656" lon="11.9792881"><ele>148.0</ele><time>2026-04-18T13:51:31.184Z</time></trkpt><trkpt lat="44.0888276" lon="11.9792144"><ele>148.0</ele><time>2026-04-18T13:51:32.185Z</time></trkpt><trkpt lat="44.0886823" lon="11.9791346"><ele>148.0</ele><time>2026-04-18T13:51:33.185Z</time></trkpt><trkpt lat="44.0885334" lon="11.9790482"><ele>149.66666666666669</ele><time>2026-04-18T13:51:34.185Z</time></trkpt><trkpt lat="44.0883828" lon="11.978957"><ele>151.33333333333334</ele><time>2026-04-18T13:51:35.185Z</time></trkpt><trkpt lat="44.0882297" lon="11.9788629"><ele>153.0</ele><time>2026-04-18T13:51:36.185Z</time></trkpt><trkpt lat="44.0880758" lon="11.9787676"><ele>153.0</ele><time>2026-04-18T13:51:37.184Z</time></trkpt><trkpt lat="44.08792" lon="11.9786715"><ele>153.0</ele><time>2026-04-18T13:51:38.185Z</time></trkpt><trkpt lat="44.0877583" lon="11.9785713"><ele>153.0</ele><time>2026-04-18T13:51:39.185Z</time></trkpt><trkpt lat="44.087594" lon="11.9784713"><ele>153.0</ele><time>2026-04-18T13:51:40.184Z</time></trkpt><trkpt lat="44.0874293" lon="11.9783672"><ele>153.0</ele><time>2026-04-18T13:51:41.185Z</time></trkpt><trkpt lat="44.087262" lon="11.9782622"><ele>153.0</ele><time>2026-04-18T13:51:42.184Z</time></trkpt><trkpt lat="44.0870945" lon="11.9781581"><ele>153.33333333333334</ele><time>2026-04-18T13:51:43.185Z</time></trkpt><trkpt lat="44.0869297" lon="11.978056"><ele>153.66666666666669</ele><time>2026-04-18T13:51:44.185Z</time></trkpt><trkpt lat="44.086775" lon="11.9779607"><ele>154.0</ele><time>2026-04-18T13:51:45.185Z</time></trkpt><trkpt lat="44.0866271" lon="11.9778677"><ele>152.66666666666669</ele><time>2026-04-18T13:51:46.185Z</time></trkpt><trkpt lat="44.0864827" lon="11.9777705"><ele>151.33333333333334</ele><time>2026-04-18T13:51:47.185Z</time></trkpt><trkpt lat="44.0863504" lon="11.9776648"><ele>150.0</ele><time>2026-04-18T13:51:48.185Z</time></trkpt><trkpt lat="44.0862331" lon="11.977539"><ele>150.25</ele><time>2026-04-18T13:51:49.185Z</time></trkpt><trkpt lat="44.0861335" lon="11.9773842"><ele>150.5</ele><time>2026-04-18T13:51:50.185Z</time></trkpt><trkpt lat="44.0860578" lon="11.9772138"><ele>150.75</ele><time>2026-04-18T13:51:51.185Z</time></trkpt><trkpt lat="44.0859983" lon="11.977023"><ele>151.0</ele><time>2026-04-18T13:51:52.185Z</time></trkpt><trkpt lat="44.0859529" lon="11.976809"><ele>151.33333333333334</ele><time>2026-04-18T13:51:53.185Z</time></trkpt><trkpt lat="44.0859109" lon="11.9765868"><ele>151.66666666666666</ele><time>2026-04-18T13:51:54.185Z</time></trkpt><trkpt lat="44.0858659" lon="11.9763696"><ele>152.0</ele><time>2026-04-18T13:51:55.185Z</time></trkpt><trkpt lat="44.0858177" lon="11.9761616"><ele>152.0</ele><time>2026-04-18T13:51:56.185Z</time></trkpt><trkpt lat="44.085758" lon="11.9759797"><ele>152.0</ele><time>2026-04-18T13:51:57.185Z</time></trkpt><trkpt lat="44.0856654" lon="11.9758337"><ele>152.0</ele><time>2026-04-18T13:51:58.185Z</time></trkpt><trkpt lat="44.0855369" lon="11.9757172"><ele>152.0</ele><time>2026-04-18T13:51:59.185Z</time></trkpt><trkpt lat="44.0853895" lon="11.975625"><ele>152.0</ele><time>2026-04-18T13:52:00.185Z</time></trkpt><trkpt lat="44.0852347" lon="11.9755712"><ele>152.0</ele><time>2026-04-18T13:52:01.185Z</time></trkpt><trkpt lat="44.0850616" lon="11.9755619"><ele>152.0</ele><time>2026-04-18T13:52:02.185Z</time></trkpt><trkpt lat="44.0848799" lon="11.9755967"><ele>152.33333333333331</ele><time>2026-04-18T13:52:03.184Z</time></trkpt><trkpt lat="44.0846965" lon="11.9756555"><ele>152.66666666666666</ele><time>2026-04-18T13:52:04.185Z</time></trkpt><trkpt lat="44.0845169" lon="11.9757209"><ele>153.0</ele><time>2026-04-18T13:52:05.183Z</time></trkpt><trkpt lat="44.0843458" lon="11.9757788"><ele>153.0</ele><time>2026-04-18T13:52:06.185Z</time></trkpt><trkpt lat="44.0841825" lon="11.9758315"><ele>153.0</ele><time>2026-04-18T13:52:07.184Z</time></trkpt><trkpt lat="44.0840204" lon="11.9758793"><ele>153.0</ele><time>2026-04-18T13:52:08.185Z</time></trkpt><trkpt lat="44.0838578" lon="11.9759234"><ele>152.33333333333334</ele><time>2026-04-18T13:52:09.185Z</time></trkpt><trkpt lat="44.083698" lon="11.9759525"><ele>151.66666666666669</ele><time>2026-04-18T13:52:10.185Z</time></trkpt><trkpt lat="44.0835497" lon="11.9759573"><ele>151.0</ele><time>2026-04-18T13:52:11.185Z</time></trkpt><trkpt lat="44.0833931" lon="11.9759453"><ele>151.66666666666669</ele><time>2026-04-18T13:52:12.185Z</time></trkpt><trkpt lat="44.0832322" lon="11.9759269"><ele>152.33333333333334</ele><time>2026-04-18T13:52:13.184Z</time></trkpt><trkpt lat="44.0830618" lon="11.9758969"><ele>153.0</ele><time>2026-04-18T13:52:14.185Z</time></trkpt><trkpt lat="44.0828827" lon="11.9758498"><ele>154.0</ele><time>2026-04-18T13:52:15.185Z</time></trkpt><trkpt lat="44.082693" lon="11.9757875"><ele>155.0</ele><time>2026-04-18T13:52:16.185Z</time></trkpt><trkpt lat="44.0825086" lon="11.9757154"><ele>156.0</ele><time>2026-04-18T13:52:17.185Z</time></trkpt><trkpt lat="44.0823127" lon="11.9756344"><ele>156.66666666666666</ele><time>2026-04-18T13:52:18.185Z</time></trkpt><trkpt lat="44.08212" lon="11.9755513"><ele>157.33333333333331</ele><time>2026-04-18T13:52:19.184Z</time></trkpt><trkpt lat="44.0819322" lon="11.9754671"><ele>158.0</ele><time>2026-04-18T13:52:20.185Z</time></trkpt><trkpt lat="44.0817483" lon="11.9753804"><ele>159.0</ele><time>2026-04-18T13:52:21.185Z</time></trkpt><trkpt lat="44.0815662" lon="11.9752955"><ele>160.0</ele><time>2026-04-18T13:52:22.185Z</time></trkpt><trkpt lat="44.0813843" lon="11.9752128"><ele>161.0</ele><time>2026-04-18T13:52:23.185Z</time></trkpt><trkpt lat="44.081202" lon="11.9751302"><ele>161.0</ele><time>2026-04-18T13:52:24.185Z</time></trkpt><trkpt lat="44.0810184" lon="11.9750458"><ele>161.0</ele><time>2026-04-18T13:52:25.185Z</time></trkpt><trkpt lat="44.0808291" lon="11.9749583"><ele>161.0</ele><time>2026-04-18T13:52:26.185Z</time></trkpt><trkpt lat="44.0806386" lon="11.9748661"><ele>161.33333333333331</ele><time>2026-04-18T13:52:27.185Z</time></trkpt><trkpt lat="44.0804462" lon="11.97477"><ele>161.66666666666666</ele><time>2026-04-18T13:52:28.185Z</time></trkpt><trkpt lat="44.0802454" lon="11.9746637"><ele>162.0</ele><time>2026-04-18T13:52:29.185Z</time></trkpt><trkpt lat="44.0800547" lon="11.9745545"><ele>161.33333333333334</ele><time>2026-04-18T13:52:30.185Z</time></trkpt><trkpt lat="44.0798668" lon="11.9744436"><ele>160.66666666666669</ele><time>2026-04-18T13:52:31.184Z</time></trkpt><trkpt lat="44.0796839" lon="11.9743337"><ele>160.0</ele><time>2026-04-18T13:52:32.185Z</time></trkpt><trkpt lat="44.0795071" lon="11.9742243"><ele>161.66666666666669</ele><time>2026-04-18T13:52:33.184Z</time></trkpt><trkpt lat="44.0793321" lon="11.9741156"><ele>163.33333333333334</ele><time>2026-04-18T13:52:34.185Z</time></trkpt><trkpt lat="44.0791564" lon="11.974011"><ele>165.0</ele><time>2026-04-18T13:52:35.184Z</time></trkpt><trkpt lat="44.0789787" lon="11.9739095"><ele>165.0</ele><time>2026-04-18T13:52:36.185Z</time></trkpt><trkpt lat="44.0788022" lon="11.9738136"><ele>165.0</ele><time>2026-04-18T13:52:37.185Z</time></trkpt><trkpt lat="44.0786266" lon="11.9737193"><ele>165.0</ele><time>2026-04-18T13:52:38.185Z</time></trkpt><trkpt lat="44.0784521" lon="11.9736236"><ele>165.0</ele><time>2026-04-18T13:52:39.185Z</time></trkpt><trkpt lat="44.0782769" lon="11.973528"><ele>165.0</ele><time>2026-04-18T13:52:40.185Z</time></trkpt><trkpt lat="44.0780981" lon="11.9734326"><ele>165.0</ele><time>2026-04-18T13:52:41.185Z</time></trkpt><trkpt lat="44.0779127" lon="11.9733432"><ele>165.66666666666666</ele><time>2026-04-18T13:52:42.185Z</time></trkpt><trkpt lat="44.0777191" lon="11.9732677"><ele>166.33333333333331</ele><time>2026-04-18T13:52:43.185Z</time></trkpt><trkpt lat="44.0775088" lon="11.9732174"><ele>167.0</ele><time>2026-04-18T13:52:44.185Z</time></trkpt><trkpt lat="44.0772795" lon="11.9731967"><ele>167.0</ele><time>2026-04-18T13:52:45.185Z</time></trkpt><trkpt lat="44.0770413" lon="11.9732016"><ele>167.0</ele><time>2026-04-18T13:52:46.185Z</time></trkpt><trkpt lat="44.076804" lon="11.9732147"><ele>167.5</ele><time>2026-04-18T13:52:47.185Z</time></trkpt><trkpt lat="44.0765702" lon="11.9732302"><ele>168.0</ele><time>2026-04-18T13:52:48.185Z</time></trkpt><trkpt lat="44.0763469" lon="11.9732448"><ele>168.0</ele><time>2026-04-18T13:52:49.185Z</time></trkpt><trkpt lat="44.0761378" lon="11.9732605"><ele>168.0</ele><time>2026-04-18T13:52:50.184Z</time></trkpt><trkpt lat="44.075934" lon="11.9732799"><ele>168.0</ele><time>2026-04-18T13:52:51.184Z</time></trkpt><trkpt lat="44.0757395" lon="11.9733026"><ele>170.66666666666666</ele><time>2026-04-18T13:52:52.185Z</time></trkpt><trkpt lat="44.0755611" lon="11.9733241"><ele>173.33333333333331</ele><time>2026-04-18T13:52:53.185Z</time></trkpt><trkpt lat="44.0753891" lon="11.9733446"><ele>176.0</ele><time>2026-04-18T13:52:54.185Z</time></trkpt><trkpt lat="44.0752228" lon="11.9733495"><ele>176.0</ele><time>2026-04-18T13:52:55.185Z</time></trkpt><trkpt lat="44.0750636" lon="11.9733304"><ele>176.0</ele><time>2026-04-18T13:52:56.185Z</time></trkpt><trkpt lat="44.0749044" lon="11.9732986"><ele>176.0</ele><time>2026-04-18T13:52:57.185Z</time></trkpt><trkpt lat="44.0747467" lon="11.973266"><ele>175.75</ele><time>2026-04-18T13:52:58.185Z</time></trkpt><trkpt lat="44.0745943" lon="11.9732354"><ele>175.5</ele><time>2026-04-18T13:52:59.185Z</time></trkpt><trkpt lat="44.07445" lon="11.9732086"><ele>175.25</ele><time>2026-04-18T13:53:00.184Z</time></trkpt><trkpt lat="44.0743183" lon="11.9731767"><ele>175.0</ele><time>2026-04-18T13:53:01.185Z</time></trkpt><trkpt lat="44.0742034" lon="11.9731397"><ele>174.4</ele><time>2026-04-18T13:53:02.184Z</time></trkpt><trkpt lat="44.0740936" lon="11.9731052"><ele>173.8</ele><time>2026-04-18T13:53:03.185Z</time></trkpt><trkpt lat="44.0739871" lon="11.9730732"><ele>173.2</ele><time>2026-04-18T13:53:04.184Z</time></trkpt><trkpt lat="44.073889" lon="11.9730442"><ele>172.6</ele><time>2026-04-18T13:53:05.185Z</time></trkpt><trkpt lat="44.0737919" lon="11.973016"><ele>172.0</ele><time>2026-04-18T13:53:06.185Z</time></trkpt><trkpt lat="44.0736944" lon="11.9729875"><ele>172.0</ele><time>2026-04-18T13:53:07.185Z</time></trkpt><trkpt lat="44.0735984" lon="11.9729599"><ele>172.0</ele><time>2026-04-18T13:53:08.185Z</time></trkpt><trkpt lat="44.0735044" lon="11.972933"><ele>172.0</ele><time>2026-04-18T13:53:09.184Z</time></trkpt><trkpt lat="44.0734176" lon="11.972907"><ele>172.0</ele><time>2026-04-18T13:53:10.185Z</time></trkpt><trkpt lat="44.0733322" lon="11.9728819"><ele>172.0</ele><time>2026-04-18T13:53:11.185Z</time></trkpt><trkpt lat="44.0732355" lon="11.9728559"><ele>170.6</ele><time>2026-04-18T13:53:12.185Z</time></trkpt><trkpt lat="44.0731343" lon="11.9728307"><ele>169.2</ele><time>2026-04-18T13:53:13.184Z</time></trkpt><trkpt lat="44.0730362" lon="11.9728058"><ele>167.8</ele><time>2026-04-18T13:53:14.185Z</time></trkpt><trkpt lat="44.0729425" lon="11.9727813"><ele>166.4</ele><time>2026-04-18T13:53:15.184Z</time></trkpt><trkpt lat="44.0728584" lon="11.9727589"><ele>165.0</ele><time>2026-04-18T13:53:16.185Z</time></trkpt><trkpt lat="44.0727874" lon="11.9727363"><ele>165.0</ele><time>2026-04-18T13:53:17.185Z</time></trkpt><trkpt lat="44.0727066" lon="11.9726899"><ele>165.0</ele><time>2026-04-18T13:53:19.185Z</time></trkpt><trkpt lat="44.0726429" lon="11.9726847"><ele>165.0</ele><time>2026-04-18T13:54:48.184Z</time></trkpt><trkpt lat="44.0725353" lon="11.9726909"><ele>165.0</ele><time>2026-04-18T13:54:50.185Z</time></trkpt><trkpt lat="44.0724551" lon="11.9726746"><ele>165.0</ele><time>2026-04-18T13:54:51.185Z</time></trkpt><trkpt lat="44.0723692" lon="11.972652"><ele>165.0</ele><time>2026-04-18T13:54:52.185Z</time></trkpt><trkpt lat="44.0722685" lon="11.9726231"><ele>165.0</ele><time>2026-04-18T13:54:53.185Z</time></trkpt><trkpt lat="44.0721614" lon="11.9725929"><ele>165.0</ele><time>2026-04-18T13:54:54.184Z</time></trkpt><trkpt lat="44.0720551" lon="11.9725649"><ele>165.0</ele><time>2026-04-18T13:54:55.185Z</time></trkpt><trkpt lat="44.0719423" lon="11.9725349"><ele>165.0</ele><time>2026-04-18T13:54:56.185Z</time></trkpt><trkpt lat="44.0718248" lon="11.9725066"><ele>165.5</ele><time>2026-04-18T13:54:57.184Z</time></trkpt><trkpt lat="44.0717061" lon="11.9724766"><ele>166.0</ele><time>2026-04-18T13:54:58.185Z</time></trkpt><trkpt lat="44.071584" lon="11.9724475"><ele>166.5</ele><time>2026-04-18T13:54:59.185Z</time></trkpt><trkpt lat="44.0714649" lon="11.9724173"><ele>167.0</ele><time>2026-04-18T13:55:00.185Z</time></trkpt><trkpt lat="44.0713513" lon="11.9723928"><ele>167.2</ele><time>2026-04-18T13:55:01.185Z</time></trkpt><trkpt lat="44.0712398" lon="11.9723689"><ele>167.39999999999998</ele><time>2026-04-18T13:55:02.185Z</time></trkpt><trkpt lat="44.0711351" lon="11.9723449"><ele>167.60000000000002</ele><time>2026-04-18T13:55:03.185Z</time></trkpt><trkpt lat="44.0710379" lon="11.9723173"><ele>167.8</ele><time>2026-04-18T13:55:04.185Z</time></trkpt><trkpt lat="44.0709415" lon="11.972294"><ele>168.0</ele><time>2026-04-18T13:55:05.185Z</time></trkpt><trkpt lat="44.0708394" lon="11.9722699"><ele>168.25</ele><time>2026-04-18T13:55:06.185Z</time></trkpt><trkpt lat="44.0707351" lon="11.9722471"><ele>168.5</ele><time>2026-04-18T13:55:07.184Z</time></trkpt><trkpt lat="44.0706118" lon="11.9722221"><ele>168.75</ele><time>2026-04-18T13:55:08.185Z</time></trkpt><trkpt lat="44.0704586" lon="11.9721906"><ele>169.0</ele><time>2026-04-18T13:55:09.185Z</time></trkpt><trkpt lat="44.0702981" lon="11.9721526"><ele>169.0</ele><time>2026-04-18T13:55:10.185Z</time></trkpt><trkpt lat="44.0701458" lon="11.9721148"><ele>169.0</ele><time>2026-04-18T13:55:11.185Z</time></trkpt><trkpt lat="44.0700045" lon="11.9720736"><ele>169.0</ele><time>2026-04-18T13:55:12.185Z</time></trkpt><trkpt lat="44.0698773" lon="11.9720346"><ele>169.0</ele><time>2026-04-18T13:55:13.185Z</time></trkpt><trkpt lat="44.0697622" lon="11.9720008"><ele>171.0</ele><time>2026-04-18T13:55:14.184Z</time></trkpt><trkpt lat="44.0696538" lon="11.9719702"><ele>173.0</ele><time>2026-04-18T13:55:15.185Z</time></trkpt><trkpt lat="44.0695484" lon="11.9719418"><ele>175.0</ele><time>2026-04-18T13:55:16.185Z</time></trkpt><trkpt lat="44.0694399" lon="11.97191"><ele>177.0</ele><time>2026-04-18T13:55:17.185Z</time></trkpt><trkpt lat="44.0693265" lon="11.9718762"><ele>179.0</ele><time>2026-04-18T13:55:18.185Z</time></trkpt><trkpt lat="44.0692148" lon="11.971834"><ele>180.2</ele><time>2026-04-18T13:55:19.183Z</time></trkpt><trkpt lat="44.0691086" lon="11.9717822"><ele>181.39999999999998</ele><time>2026-04-18T13:55:20.185Z</time></trkpt><trkpt lat="44.0690088" lon="11.9717191"><ele>182.6</ele><time>2026-04-18T13:55:21.185Z</time></trkpt><trkpt lat="44.0689132" lon="11.9716444"><ele>183.8</ele><time>2026-04-18T13:55:22.185Z</time></trkpt><trkpt lat="44.0688172" lon="11.9715522"><ele>185.0</ele><time>2026-04-18T13:55:23.185Z</time></trkpt><trkpt lat="44.068712" lon="11.9714519"><ele>185.0</ele><time>2026-04-18T13:55:24.185Z</time></trkpt><trkpt lat="44.068599" lon="11.9713511"><ele>185.0</ele><time>2026-04-18T13:55:25.185Z</time></trkpt><trkpt lat="44.06847" lon="11.9712484"><ele>185.0</ele><time>2026-04-18T13:55:26.185Z</time></trkpt><trkpt lat="44.0683186" lon="11.9711411"><ele>185.66666666666666</ele><time>2026-04-18T13:55:27.185Z</time></trkpt><trkpt lat="44.0681441" lon="11.9710341"><ele>186.33333333333334</ele><time>2026-04-18T13:55:28.185Z</time></trkpt><trkpt lat="44.0679793" lon="11.9709412"><ele>187.0</ele><time>2026-04-18T13:55:29.185Z</time></trkpt><trkpt lat="44.0678047" lon="11.9708475"><ele>187.0</ele><time>2026-04-18T13:55:30.185Z</time></trkpt><trkpt lat="44.0676216" lon="11.9707542"><ele>187.0</ele><time>2026-04-18T13:55:31.185Z</time></trkpt><trkpt lat="44.0674414" lon="11.9706642"><ele>187.0</ele><time>2026-04-18T13:55:32.183Z</time></trkpt><trkpt lat="44.0672682" lon="11.9705767"><ele>191.0</ele><time>2026-04-18T13:55:33.185Z</time></trkpt><trkpt lat="44.0671009" lon="11.9704933"><ele>195.0</ele><time>2026-04-18T13:55:34.185Z</time></trkpt><trkpt lat="44.066944" lon="11.9704163"><ele>199.0</ele><time>2026-04-18T13:55:35.185Z</time></trkpt><trkpt lat="44.0668008" lon="11.9703424"><ele>199.0</ele><time>2026-04-18T13:55:36.185Z</time></trkpt><trkpt lat="44.0666656" lon="11.9702533"><ele>199.0</ele><time>2026-04-18T13:55:37.184Z</time></trkpt><trkpt lat="44.0665482" lon="11.9701478"><ele>199.0</ele><time>2026-04-18T13:55:38.185Z</time></trkpt><trkpt lat="44.0664492" lon="11.9700083"><ele>199.0</ele><time>2026-04-18T13:55:39.185Z</time></trkpt><trkpt lat="44.0663555" lon="11.9698432"><ele>198.0</ele><time>2026-04-18T13:55:40.184Z</time></trkpt><trkpt lat="44.0662713" lon="11.9696582"><ele>197.0</ele><time>2026-04-18T13:55:41.185Z</time></trkpt><trkpt lat="44.0661917" lon="11.9694572"><ele>196.0</ele><time>2026-04-18T13:55:42.183Z</time></trkpt><trkpt lat="44.0661139" lon="11.969241"><ele>193.66666666666666</ele><time>2026-04-18T13:55:43.185Z</time></trkpt><trkpt lat="44.0660378" lon="11.969013"><ele>191.33333333333331</ele><time>2026-04-18T13:55:44.185Z</time></trkpt><trkpt lat="44.0659618" lon="11.968776"><ele>189.0</ele><time>2026-04-18T13:55:45.185Z</time></trkpt><trkpt lat="44.0658841" lon="11.9685328"><ele>187.33333333333334</ele><time>2026-04-18T13:55:46.185Z</time></trkpt><trkpt lat="44.0658048" lon="11.9682852"><ele>185.66666666666669</ele><time>2026-04-18T13:55:47.185Z</time></trkpt><trkpt lat="44.0657268" lon="11.9680334"><ele>184.0</ele><time>2026-04-18T13:55:48.185Z</time></trkpt><trkpt lat="44.065651" lon="11.9677852"><ele>184.0</ele><time>2026-04-18T13:55:49.185Z</time></trkpt><trkpt lat="44.0655823" lon="11.9675513"><ele>184.0</ele><time>2026-04-18T13:55:50.185Z</time></trkpt><trkpt lat="44.0655226" lon="11.9673241"><ele>184.0</ele><time>2026-04-18T13:55:51.185Z</time></trkpt><trkpt lat="44.0654735" lon="11.9671133"><ele>182.75</ele><time>2026-04-18T13:55:52.185Z</time></trkpt><trkpt lat="44.0654281" lon="11.9669371"><ele>181.5</ele><time>2026-04-18T13:55:53.185Z</time></trkpt><trkpt lat="44.0653637" lon="11.9667901"><ele>180.25</ele><time>2026-04-18T13:55:54.185Z</time></trkpt><trkpt lat="44.0652671" lon="11.9666843"><ele>179.0</ele><time>2026-04-18T13:55:55.184Z</time></trkpt><trkpt lat="44.0651448" lon="11.9666324"><ele>179.0</ele><time>2026-04-18T13:55:56.184Z</time></trkpt><trkpt lat="44.0650034" lon="11.9665956"><ele>179.0</ele><time>2026-04-18T13:55:57.185Z</time></trkpt><trkpt lat="44.0648358" lon="11.9665548"><ele>179.0</ele><time>2026-04-18T13:55:58.185Z</time></trkpt><trkpt lat="44.0646732" lon="11.9665113"><ele>179.0</ele><time>2026-04-18T13:55:59.185Z</time></trkpt><trkpt lat="44.0645065" lon="11.9664661"><ele>179.0</ele><time>2026-04-18T13:56:00.185Z</time></trkpt><trkpt lat="44.0643447" lon="11.9664222"><ele>179.0</ele><time>2026-04-18T13:56:01.185Z</time></trkpt><trkpt lat="44.06418" lon="11.9663779"><ele>180.0</ele><time>2026-04-18T13:56:02.185Z</time></trkpt><trkpt lat="44.0640171" lon="11.9663335"><ele>181.0</ele><time>2026-04-18T13:56:03.185Z</time></trkpt><trkpt lat="44.0638703" lon="11.9662833"><ele>182.0</ele><time>2026-04-18T13:56:04.185Z</time></trkpt><trkpt lat="44.0637337" lon="11.9662134"><ele>182.0</ele><time>2026-04-18T13:56:05.185Z</time></trkpt><trkpt lat="44.0636124" lon="11.966115"><ele>182.0</ele><time>2026-04-18T13:56:06.185Z</time></trkpt><trkpt lat="44.0635163" lon="11.9659995"><ele>182.0</ele><time>2026-04-18T13:56:07.185Z</time></trkpt><trkpt lat="44.063451" lon="11.965872"><ele>182.0</ele><time>2026-04-18T13:56:08.185Z</time></trkpt><trkpt lat="44.0634288" lon="11.9657307"><ele>182.8</ele><time>2026-04-18T13:56:09.184Z</time></trkpt><trkpt lat="44.0634429" lon="11.9655891"><ele>183.6</ele><time>2026-04-18T13:56:10.185Z</time></trkpt><trkpt lat="44.0634922" lon="11.9654611"><ele>184.4</ele><time>2026-04-18T13:56:11.185Z</time></trkpt><trkpt lat="44.0635728" lon="11.9653573"><ele>185.20000000000002</ele><time>2026-04-18T13:56:12.184Z</time></trkpt><trkpt lat="44.0636764" lon="11.9653038"><ele>186.0</ele><time>2026-04-18T13:56:13.185Z</time></trkpt><trkpt lat="44.0637879" lon="11.9653065"><ele>186.0</ele><time>2026-04-18T13:56:14.184Z</time></trkpt><trkpt lat="44.0639019" lon="11.9653608"><ele>186.0</ele><time>2026-04-18T13:56:15.185Z</time></trkpt><trkpt lat="44.0640059" lon="11.965449"><ele>186.0</ele><time>2026-04-18T13:56:16.184Z</time></trkpt><trkpt lat="44.0641098" lon="11.9655161"><ele>186.0</ele><time>2026-04-18T13:56:17.184Z</time></trkpt><trkpt lat="44.0642123" lon="11.9655234"><ele>186.20000000000002</ele><time>2026-04-18T13:56:18.185Z</time></trkpt><trkpt lat="44.0642983" lon="11.9654705"><ele>186.4</ele><time>2026-04-18T13:56:19.185Z</time></trkpt><trkpt lat="44.0643553" lon="11.9653619"><ele>186.6</ele><time>2026-04-18T13:56:20.185Z</time></trkpt><trkpt lat="44.0643705" lon="11.9652101"><ele>186.8</ele><time>2026-04-18T13:56:21.185Z</time></trkpt><trkpt lat="44.0643319" lon="11.9650272"><ele>187.0</ele><time>2026-04-18T13:56:22.185Z</time></trkpt><trkpt lat="44.0642594" lon="11.9648145"><ele>188.66666666666669</ele><time>2026-04-18T13:56:23.185Z</time></trkpt><trkpt lat="44.0641671" lon="11.9645731"><ele>190.33333333333334</ele><time>2026-04-18T13:56:24.185Z</time></trkpt><trkpt lat="44.0640709" lon="11.9643259"><ele>192.0</ele><time>2026-04-18T13:56:25.185Z</time></trkpt><trkpt lat="44.0639648" lon="11.9640586"><ele>194.33333333333331</ele><time>2026-04-18T13:56:26.185Z</time></trkpt><trkpt lat="44.0638571" lon="11.9638055"><ele>196.66666666666666</ele><time>2026-04-18T13:56:27.185Z</time></trkpt><trkpt lat="44.0637335" lon="11.9635634"><ele>199.0</ele><time>2026-04-18T13:56:28.185Z</time></trkpt><trkpt lat="44.0635832" lon="11.9633306"><ele>197.0</ele><time>2026-04-18T13:56:29.184Z</time></trkpt><trkpt lat="44.0634135" lon="11.963106"><ele>195.0</ele><time>2026-04-18T13:56:30.183Z</time></trkpt><trkpt lat="44.0632464" lon="11.9629048"><ele>195.0</ele><time>2026-04-18T13:56:31.185Z</time></trkpt><trkpt lat="44.0630895" lon="11.9627242"><ele>195.0</ele><time>2026-04-18T13:56:32.184Z</time></trkpt><trkpt lat="44.0629496" lon="11.9625511"><ele>195.0</ele><time>2026-04-18T13:56:33.185Z</time></trkpt><trkpt lat="44.0628516" lon="11.9623848"><ele>197.5</ele><time>2026-04-18T13:56:34.185Z</time></trkpt><trkpt lat="44.0627818" lon="11.9621936"><ele>200.0</ele><time>2026-04-18T13:56:35.185Z</time></trkpt><trkpt lat="44.0627462" lon="11.9619855"><ele>202.5</ele><time>2026-04-18T13:56:36.185Z</time></trkpt><trkpt lat="44.062745" lon="11.9617943"><ele>205.0</ele><time>2026-04-18T13:56:37.185Z</time></trkpt><trkpt lat="44.0627877" lon="11.9616088"><ele>205.33333333333331</ele><time>2026-04-18T13:56:38.185Z</time></trkpt><trkpt lat="44.0628726" lon="11.9614262"><ele>205.66666666666669</ele><time>2026-04-18T13:56:39.184Z</time></trkpt><trkpt lat="44.0629607" lon="11.9612525"><ele>206.0</ele><time>2026-04-18T13:56:40.185Z</time></trkpt><trkpt lat="44.063007" lon="11.9610639"><ele>205.33333333333334</ele><time>2026-04-18T13:56:41.184Z</time></trkpt><trkpt lat="44.0630116" lon="11.9608399"><ele>204.66666666666669</ele><time>2026-04-18T13:56:42.185Z</time></trkpt><trkpt lat="44.0629673" lon="11.9605935"><ele>204.0</ele><time>2026-04-18T13:56:43.185Z</time></trkpt><trkpt lat="44.0628793" lon="11.9603279"><ele>204.0</ele><time>2026-04-18T13:56:44.185Z</time></trkpt><trkpt lat="44.0627844" lon="11.9600619"><ele>204.0</ele><time>2026-04-18T13:56:45.185Z</time></trkpt><trkpt lat="44.0639019" lon="11.9653608"><ele>200.6</ele><time>2026-04-18T13:56:15.185Z</time></trkpt><trkpt lat="44.0640059" lon="11.965449"><ele>197.2</ele><time>2026-04-18T13:56:16.184Z</time></trkpt><trkpt lat="44.0641098" lon="11.9655161"><ele>193.79999999999998</ele><time>2026-04-18T13:56:17.184Z</time></trkpt><trkpt lat="44.0642123" lon="11.9655234"><ele>190.39999999999998</ele><time>2026-04-18T13:56:18.185Z</time></trkpt><trkpt lat="44.0642983" lon="11.9654705"><ele>187.0</ele><time>2026-04-18T13:56:19.185Z</time></trkpt><trkpt lat="44.0643553" lon="11.9653619"><ele>187.0</ele><time>2026-04-18T13:56:20.185Z</time></trkpt><trkpt lat="44.0643705" lon="11.9652101"><ele>187.0</ele><time>2026-04-18T13:56:21.185Z</time></trkpt><trkpt lat="44.0643319" lon="11.9650272"><ele>187.0</ele><time>2026-04-18T13:56:22.185Z</time></trkpt><trkpt lat="44.0642594" lon="11.9648145"><ele>187.0</ele><time>2026-04-18T13:56:23.185Z</time></trkpt><trkpt lat="44.0641671" lon="11.9645731"><ele>188.66666666666669</ele><time>2026-04-18T13:56:24.185Z</time></trkpt><trkpt lat="44.0640709" lon="11.9643259"><ele>190.33333333333334</ele><time>2026-04-18T13:56:25.185Z</time></trkpt><trkpt lat="44.0639648" lon="11.9640586"><ele>192.0</ele><time>2026-04-18T13:56:26.185Z</time></trkpt><trkpt lat="44.0638571" lon="11.9638055"><ele>194.33333333333331</ele><time>2026-04-18T13:56:27.185Z</time></trkpt><trkpt lat="44.0637335" lon="11.9635634"><ele>196.66666666666666</ele><time>2026-04-18T13:56:28.185Z</time></trkpt><trkpt lat="44.0635832" lon="11.9633306"><ele>199.0</ele><time>2026-04-18T13:56:29.184Z</time></trkpt><trkpt lat="44.0634135" lon="11.963106"><ele>197.66666666666666</ele><time>2026-04-18T13:56:30.183Z</time></trkpt><trkpt lat="44.0632464" lon="11.9629048"><ele>196.33333333333331</ele><time>2026-04-18T13:56:31.185Z</time></trkpt><trkpt lat="44.0630895" lon="11.9627242"><ele>195.0</ele><time>2026-04-18T13:56:32.184Z</time></trkpt><trkpt lat="44.0629496" lon="11.9625511"><ele>198.33333333333331</ele><time>2026-04-18T13:56:33.185Z</time></trkpt><trkpt lat="44.0628516" lon="11.9623848"><ele>201.66666666666666</ele><time>2026-04-18T13:56:34.185Z</time></trkpt><trkpt lat="44.0627818" lon="11.9621936"><ele>205.0</ele><time>2026-04-18T13:56:35.185Z</time></trkpt><trkpt lat="44.0627462" lon="11.9619855"><ele>205.0</ele><time>2026-04-18T13:56:36.185Z</time></trkpt><trkpt lat="44.062745" lon="11.9617943"><ele>205.0</ele><time>2026-04-18T13:56:37.185Z</time></trkpt><trkpt lat="44.0627877" lon="11.9616088"><ele>205.0</ele><time>2026-04-18T13:56:38.185Z</time></trkpt><trkpt lat="44.0628726" lon="11.9614262"><ele>205.0</ele><time>2026-04-18T13:56:39.184Z</time></trkpt><trkpt lat="44.0629607" lon="11.9612525"><ele>205.33333333333331</ele><time>2026-04-18T13:56:40.185Z</time></trkpt><trkpt lat="44.063007" lon="11.9610639"><ele>205.66666666666669</ele><time>2026-04-18T13:56:41.184Z</time></trkpt><trkpt lat="44.0630116" lon="11.9608399"><ele>206.0</ele><time>2026-04-18T13:56:42.185Z</time></trkpt><trkpt lat="44.0629673" lon="11.9605935"><ele>205.33333333333334</ele><time>2026-04-18T13:56:43.185Z</time></trkpt><trkpt lat="44.0628793" lon="11.9603279"><ele>204.66666666666669</ele><time>2026-04-18T13:56:44.185Z</time></trkpt><trkpt lat="44.0627844" lon="11.9600619"><ele>204.0</ele><time>2026-04-18T13:56:45.185Z</time></trkpt><trkpt lat="44.0626872" lon="11.9597791"><ele>202.0</ele><time>2026-04-18T13:56:46.185Z</time></trkpt><trkpt lat="44.0626044" lon="11.9595158"><ele>200.0</ele><time>2026-04-18T13:56:47.185Z</time></trkpt><trkpt lat="44.0625289" lon="11.9592615"><ele>198.0</ele><time>2026-04-18T13:56:48.184Z</time></trkpt><trkpt lat="44.0624433" lon="11.9590258"><ele>198.0</ele><time>2026-04-18T13:56:49.185Z</time></trkpt><trkpt lat="44.0623253" lon="11.9588025"><ele>198.0</ele><time>2026-04-18T13:56:50.185Z</time></trkpt><trkpt lat="44.0621818" lon="11.9585964"><ele>198.0</ele><time>2026-04-18T13:56:51.185Z</time></trkpt><trkpt lat="44.0620335" lon="11.9583977"><ele>196.0</ele><time>2026-04-18T13:56:52.184Z</time></trkpt><trkpt lat="44.0618871" lon="11.9581897"><ele>194.0</ele><time>2026-04-18T13:56:53.185Z</time></trkpt><trkpt lat="44.0617434" lon="11.957976"><ele>192.0</ele><time>2026-04-18T13:56:54.183Z</time></trkpt><trkpt lat="44.0616023" lon="11.9577481"><ele>194.0</ele><time>2026-04-18T13:56:55.185Z</time></trkpt><trkpt lat="44.0614618" lon="11.9575053"><ele>196.0</ele><time>2026-04-18T13:56:56.185Z</time></trkpt><trkpt lat="44.0613204" lon="11.957253"><ele>196.0</ele><time>2026-04-18T13:56:57.185Z</time></trkpt><trkpt lat="44.0611745" lon="11.9570009"><ele>196.0</ele><time>2026-04-18T13:56:58.184Z</time></trkpt><trkpt lat="44.061022" lon="11.9567669"><ele>195.0</ele><time>2026-04-18T13:56:59.185Z</time></trkpt><trkpt lat="44.0608584" lon="11.9565579"><ele>194.0</ele><time>2026-04-18T13:57:00.185Z</time></trkpt><trkpt lat="44.0606846" lon="11.9563631"><ele>193.0</ele><time>2026-04-18T13:57:01.185Z</time></trkpt><trkpt lat="44.0605048" lon="11.9561793"><ele>193.0</ele><time>2026-04-18T13:57:02.185Z</time></trkpt><trkpt lat="44.0603281" lon="11.9560039"><ele>193.0</ele><time>2026-04-18T13:57:03.184Z</time></trkpt><trkpt lat="44.0601623" lon="11.9558424"><ele>193.0</ele><time>2026-04-18T13:57:04.185Z</time></trkpt><trkpt lat="44.0600052" lon="11.9556935"><ele>192.66666666666666</ele><time>2026-04-18T13:57:05.184Z</time></trkpt><trkpt lat="44.05987" lon="11.955557"><ele>192.33333333333331</ele><time>2026-04-18T13:57:06.185Z</time></trkpt><trkpt lat="44.0597508" lon="11.9554194"><ele>192.0</ele><time>2026-04-18T13:57:07.185Z</time></trkpt><trkpt lat="44.0596608" lon="11.9552657"><ele>192.0</ele><time>2026-04-18T13:57:08.185Z</time></trkpt><trkpt lat="44.0596014" lon="11.9550794"><ele>192.0</ele><time>2026-04-18T13:57:09.184Z</time></trkpt><trkpt lat="44.0595629" lon="11.954848"><ele>192.0</ele><time>2026-04-18T13:57:10.185Z</time></trkpt><trkpt lat="44.0595337" lon="11.9545931"><ele>193.0</ele><time>2026-04-18T13:57:11.184Z</time></trkpt><trkpt lat="44.0595058" lon="11.9543344"><ele>194.0</ele><time>2026-04-18T13:57:12.185Z</time></trkpt><trkpt lat="44.0594694" lon="11.9540604"><ele>195.0</ele><time>2026-04-18T13:57:13.184Z</time></trkpt><trkpt lat="44.0594166" lon="11.9537891"><ele>195.66666666666669</ele><time>2026-04-18T13:57:14.184Z</time></trkpt><trkpt lat="44.0593454" lon="11.9535243"><ele>196.33333333333334</ele><time>2026-04-18T13:57:15.185Z</time></trkpt><trkpt lat="44.0592622" lon="11.9532788"><ele>197.0</ele><time>2026-04-18T13:57:16.185Z</time></trkpt><trkpt lat="44.0591633" lon="11.9530402"><ele>198.0</ele><time>2026-04-18T13:57:17.185Z</time></trkpt><trkpt lat="44.0590401" lon="11.9528208"><ele>199.0</ele><time>2026-04-18T13:57:18.185Z</time></trkpt><trkpt lat="44.0588883" lon="11.9526275"><ele>200.0</ele><time>2026-04-18T13:57:19.185Z</time></trkpt><trkpt lat="44.0587214" lon="11.9524485"><ele>200.0</ele><time>2026-04-18T13:57:20.185Z</time></trkpt><trkpt lat="44.0585657" lon="11.9522921"><ele>200.0</ele><time>2026-04-18T13:57:21.185Z</time></trkpt><trkpt lat="44.0584165" lon="11.9521451"><ele>200.0</ele><time>2026-04-18T13:57:22.184Z</time></trkpt><trkpt lat="44.0582758" lon="11.9520082"><ele>199.5</ele><time>2026-04-18T13:57:23.184Z</time></trkpt><trkpt lat="44.0581485" lon="11.9518757"><ele>199.0</ele><time>2026-04-18T13:57:24.184Z</time></trkpt><trkpt lat="44.0580466" lon="11.9517495"><ele>198.5</ele><time>2026-04-18T13:57:25.185Z</time></trkpt><trkpt lat="44.0579696" lon="11.9516008"><ele>198.0</ele><time>2026-04-18T13:57:26.185Z</time></trkpt><trkpt lat="44.0579111" lon="11.9514185"><ele>198.0</ele><time>2026-04-18T13:57:27.185Z</time></trkpt><trkpt lat="44.0578687" lon="11.9512189"><ele>198.0</ele><time>2026-04-18T13:57:28.185Z</time></trkpt><trkpt lat="44.0578337" lon="11.9510134"><ele>198.0</ele><time>2026-04-18T13:57:29.185Z</time></trkpt><trkpt lat="44.0577992" lon="11.950807"><ele>198.33333333333331</ele><time>2026-04-18T13:57:30.185Z</time></trkpt><trkpt lat="44.0577629" lon="11.9505916"><ele>198.66666666666666</ele><time>2026-04-18T13:57:31.185Z</time></trkpt><trkpt lat="44.0577264" lon="11.9503795"><ele>199.0</ele><time>2026-04-18T13:57:32.184Z</time></trkpt><trkpt lat="44.0576904" lon="11.9501662"><ele>199.33333333333331</ele><time>2026-04-18T13:57:33.185Z</time></trkpt><trkpt lat="44.0576533" lon="11.9499559"><ele>199.66666666666669</ele><time>2026-04-18T13:57:34.185Z</time></trkpt><trkpt lat="44.0576158" lon="11.9497444"><ele>200.0</ele><time>2026-04-18T13:57:35.185Z</time></trkpt><trkpt lat="44.0575789" lon="11.9495307"><ele>200.0</ele><time>2026-04-18T13:57:36.185Z</time></trkpt><trkpt lat="44.0575423" lon="11.9493151"><ele>200.0</ele><time>2026-04-18T13:57:37.184Z</time></trkpt><trkpt lat="44.0575053" lon="11.9490968"><ele>200.0</ele><time>2026-04-18T13:57:38.185Z</time></trkpt><trkpt lat="44.0574701" lon="11.9488737"><ele>199.33333333333334</ele><time>2026-04-18T13:57:39.185Z</time></trkpt><trkpt lat="44.0574453" lon="11.9486531"><ele>198.66666666666669</ele><time>2026-04-18T13:57:40.185Z</time></trkpt><trkpt lat="44.0574376" lon="11.9484443"><ele>198.0</ele><time>2026-04-18T13:57:41.185Z</time></trkpt><trkpt lat="44.0574365" lon="11.9482372"><ele>198.0</ele><time>2026-04-18T13:57:42.185Z</time></trkpt><trkpt lat="44.05744" lon="11.9480326"><ele>198.0</ele><time>2026-04-18T13:57:43.185Z</time></trkpt><trkpt lat="44.0574418" lon="11.9478379"><ele>198.0</ele><time>2026-04-18T13:57:44.185Z</time></trkpt><trkpt lat="44.0574439" lon="11.9476344"><ele>198.0</ele><time>2026-04-18T13:57:45.185Z</time></trkpt><trkpt lat="44.0574454" lon="11.947432"><ele>198.0</ele><time>2026-04-18T13:57:46.185Z</time></trkpt><trkpt lat="44.0574481" lon="11.9472337"><ele>198.0</ele><time>2026-04-18T13:57:47.185Z</time></trkpt><trkpt lat="44.05745" lon="11.9470398"><ele>198.0</ele><time>2026-04-18T13:57:48.185Z</time></trkpt><trkpt lat="44.0574508" lon="11.9468444"><ele>198.0</ele><time>2026-04-18T13:57:49.185Z</time></trkpt><trkpt lat="44.0574541" lon="11.9466441"><ele>199.66666666666669</ele><time>2026-04-18T13:57:50.185Z</time></trkpt><trkpt lat="44.0574575" lon="11.9464387"><ele>201.33333333333334</ele><time>2026-04-18T13:57:51.185Z</time></trkpt><trkpt lat="44.0574625" lon="11.9462289"><ele>203.0</ele><time>2026-04-18T13:57:52.185Z</time></trkpt><trkpt lat="44.057467" lon="11.9460153"><ele>203.75</ele><time>2026-04-18T13:57:53.185Z</time></trkpt><trkpt lat="44.0574713" lon="11.9457989"><ele>204.5</ele><time>2026-04-18T13:57:54.184Z</time></trkpt><trkpt lat="44.0574733" lon="11.9455877"><ele>205.25</ele><time>2026-04-18T13:57:55.185Z</time></trkpt><trkpt lat="44.0574721" lon="11.9453993"><ele>206.0</ele><time>2026-04-18T13:57:56.185Z</time></trkpt><trkpt lat="44.057467" lon="11.9452256"><ele>204.5</ele><time>2026-04-18T13:57:57.185Z</time></trkpt><trkpt lat="44.0574426" lon="11.9450605"><ele>203.0</ele><time>2026-04-18T13:57:58.185Z</time></trkpt><trkpt lat="44.0573871" lon="11.9448946"><ele>201.5</ele><time>2026-04-18T13:57:59.185Z</time></trkpt><trkpt lat="44.0573073" lon="11.9447388"><ele>200.0</ele><time>2026-04-18T13:58:00.185Z</time></trkpt><trkpt lat="44.0572127" lon="11.9445897"><ele>200.0</ele><time>2026-04-18T13:58:01.185Z</time></trkpt><trkpt lat="44.0571249" lon="11.944455"><ele>200.0</ele><time>2026-04-18T13:58:02.185Z</time></trkpt><trkpt lat="44.0570434" lon="11.9443036"><ele>200.0</ele><time>2026-04-18T13:58:03.185Z</time></trkpt><trkpt lat="44.0569816" lon="11.9441328"><ele>200.0</ele><time>2026-04-18T13:58:04.185Z</time></trkpt><trkpt lat="44.0569405" lon="11.9439394"><ele>200.66666666666669</ele><time>2026-04-18T13:58:05.184Z</time></trkpt><trkpt lat="44.0569139" lon="11.9437308"><ele>201.33333333333331</ele><time>2026-04-18T13:58:06.185Z</time></trkpt><trkpt lat="44.0568946" lon="11.943512"><ele>202.0</ele><time>2026-04-18T13:58:07.185Z</time></trkpt><trkpt lat="44.0568784" lon="11.9432922"><ele>202.0</ele><time>2026-04-18T13:58:08.185Z</time></trkpt><trkpt lat="44.0568673" lon="11.9430766"><ele>202.0</ele><time>2026-04-18T13:58:09.185Z</time></trkpt><trkpt lat="44.0568686" lon="11.9428687"><ele>202.0</ele><time>2026-04-18T13:58:10.184Z</time></trkpt><trkpt lat="44.0568866" lon="11.9426809"><ele>202.0</ele><time>2026-04-18T13:58:11.185Z</time></trkpt><trkpt lat="44.0569269" lon="11.9425032"><ele>202.25</ele><time>2026-04-18T13:58:12.184Z</time></trkpt><trkpt lat="44.0569904" lon="11.9423384"><ele>202.5</ele><time>2026-04-18T13:58:13.185Z</time></trkpt><trkpt lat="44.0570708" lon="11.9421801"><ele>202.75</ele><time>2026-04-18T13:58:14.184Z</time></trkpt><trkpt lat="44.0571585" lon="11.942015"><ele>203.0</ele><time>2026-04-18T13:58:15.185Z</time></trkpt><trkpt lat="44.0572519" lon="11.9418473"><ele>203.33333333333334</ele><time>2026-04-18T13:58:16.184Z</time></trkpt><trkpt lat="44.0573485" lon="11.9416757"><ele>203.66666666666669</ele><time>2026-04-18T13:58:17.185Z</time></trkpt><trkpt lat="44.0574431" lon="11.9415057"><ele>204.0</ele><time>2026-04-18T13:58:18.184Z</time></trkpt><trkpt lat="44.057532" lon="11.9413463"><ele>205.25</ele><time>2026-04-18T13:58:19.185Z</time></trkpt><trkpt lat="44.0576246" lon="11.9411828"><ele>206.5</ele><time>2026-04-18T13:58:20.185Z</time></trkpt><trkpt lat="44.0577102" lon="11.9410275"><ele>207.75</ele><time>2026-04-18T13:58:21.184Z</time></trkpt><trkpt lat="44.0577863" lon="11.9408712"><ele>209.0</ele><time>2026-04-18T13:58:22.185Z</time></trkpt><trkpt lat="44.0578421" lon="11.940703"><ele>209.0</ele><time>2026-04-18T13:58:23.185Z</time></trkpt><trkpt lat="44.0578783" lon="11.9405252"><ele>209.0</ele><time>2026-04-18T13:58:24.185Z</time></trkpt><trkpt lat="44.0579049" lon="11.9403422"><ele>209.0</ele><time>2026-04-18T13:58:25.185Z</time></trkpt><trkpt lat="44.0579268" lon="11.9401679"><ele>209.0</ele><time>2026-04-18T13:58:26.185Z</time></trkpt><trkpt lat="44.0579474" lon="11.9399884"><ele>208.75</ele><time>2026-04-18T13:58:27.185Z</time></trkpt><trkpt lat="44.0579677" lon="11.9398142"><ele>208.5</ele><time>2026-04-18T13:58:28.185Z</time></trkpt><trkpt lat="44.0579864" lon="11.9396508"><ele>208.25</ele><time>2026-04-18T13:58:29.185Z</time></trkpt><trkpt lat="44.0580042" lon="11.9394922"><ele>208.0</ele><time>2026-04-18T13:58:30.184Z</time></trkpt><trkpt lat="44.0580226" lon="11.9393274"><ele>207.75</ele><time>2026-04-18T13:58:31.185Z</time></trkpt><trkpt lat="44.0580413" lon="11.9391528"><ele>207.5</ele><time>2026-04-18T13:58:32.185Z</time></trkpt><trkpt lat="44.058061" lon="11.9389668"><ele>207.25</ele><time>2026-04-18T13:58:33.185Z</time></trkpt><trkpt lat="44.0580832" lon="11.9387727"><ele>207.0</ele><time>2026-04-18T13:58:34.185Z</time></trkpt><trkpt lat="44.0581061" lon="11.9385708"><ele>206.0</ele><time>2026-04-18T13:58:35.185Z</time></trkpt><trkpt lat="44.0581281" lon="11.938363"><ele>205.0</ele><time>2026-04-18T13:58:36.185Z</time></trkpt><trkpt lat="44.0581508" lon="11.9381543"><ele>204.0</ele><time>2026-04-18T13:58:37.184Z</time></trkpt><trkpt lat="44.0581718" lon="11.9379466"><ele>204.0</ele><time>2026-04-18T13:58:38.185Z</time></trkpt><trkpt lat="44.0581851" lon="11.9377436"><ele>204.0</ele><time>2026-04-18T13:58:39.185Z</time></trkpt><trkpt lat="44.0581882" lon="11.937541"><ele>204.0</ele><time>2026-04-18T13:58:40.184Z</time></trkpt><trkpt lat="44.0581827" lon="11.9373394"><ele>204.0</ele><time>2026-04-18T13:58:41.185Z</time></trkpt><trkpt lat="44.0581668" lon="11.9371382"><ele>204.0</ele><time>2026-04-18T13:58:42.185Z</time></trkpt><trkpt lat="44.0581392" lon="11.9369376"><ele>204.0</ele><time>2026-04-18T13:58:43.185Z</time></trkpt><trkpt lat="44.0581039" lon="11.936739"><ele>204.0</ele><time>2026-04-18T13:58:44.185Z</time></trkpt><trkpt lat="44.058062" lon="11.936545"><ele>204.0</ele><time>2026-04-18T13:58:45.185Z</time></trkpt><trkpt lat="44.0580161" lon="11.9363505"><ele>204.75</ele><time>2026-04-18T13:58:46.185Z</time></trkpt><trkpt lat="44.0579705" lon="11.9361556"><ele>205.5</ele><time>2026-04-18T13:58:47.185Z</time></trkpt><trkpt lat="44.0579245" lon="11.9359637"><ele>206.25</ele><time>2026-04-18T13:58:48.185Z</time></trkpt><trkpt lat="44.0578787" lon="11.9357763"><ele>207.0</ele><time>2026-04-18T13:58:49.185Z</time></trkpt><trkpt lat="44.0578329" lon="11.9355834"><ele>207.75</ele><time>2026-04-18T13:58:50.185Z</time></trkpt><trkpt lat="44.0577876" lon="11.9353885"><ele>208.5</ele><time>2026-04-18T13:58:51.185Z</time></trkpt><trkpt lat="44.0577424" lon="11.9351907"><ele>209.25</ele><time>2026-04-18T13:58:52.184Z</time></trkpt><trkpt lat="44.0577011" lon="11.9349938"><ele>210.0</ele><time>2026-04-18T13:58:53.185Z</time></trkpt><trkpt lat="44.0576725" lon="11.934807"><ele>210.75</ele><time>2026-04-18T13:58:54.185Z</time></trkpt><trkpt lat="44.0576657" lon="11.9346238"><ele>211.5</ele><time>2026-04-18T13:58:55.185Z</time></trkpt><trkpt lat="44.0576809" lon="11.934426"><ele>212.25</ele><time>2026-04-18T13:58:56.185Z</time></trkpt><trkpt lat="44.057713" lon="11.9342229"><ele>213.0</ele><time>2026-04-18T13:58:57.184Z</time></trkpt><trkpt lat="44.0577501" lon="11.9340107"><ele>213.33333333333331</ele><time>2026-04-18T13:58:58.185Z</time></trkpt><trkpt lat="44.0577871" lon="11.9337984"><ele>213.66666666666666</ele><time>2026-04-18T13:58:59.185Z</time></trkpt><trkpt lat="44.0578249" lon="11.9335955"><ele>214.0</ele><time>2026-04-18T13:59:00.185Z</time></trkpt><trkpt lat="44.0578615" lon="11.9333932"><ele>214.66666666666666</ele><time>2026-04-18T13:59:01.185Z</time></trkpt><trkpt lat="44.0578905" lon="11.9331859"><ele>215.33333333333331</ele><time>2026-04-18T13:59:02.185Z</time></trkpt><trkpt lat="44.0579054" lon="11.9329766"><ele>216.0</ele><time>2026-04-18T13:59:03.184Z</time></trkpt><trkpt lat="44.0579045" lon="11.9327646"><ele>215.66666666666669</ele><time>2026-04-18T13:59:04.185Z</time></trkpt><trkpt lat="44.0578881" lon="11.932547"><ele>215.33333333333334</ele><time>2026-04-18T13:59:05.185Z</time></trkpt><trkpt lat="44.0578579" lon="11.9323252"><ele>215.0</ele><time>2026-04-18T13:59:06.185Z</time></trkpt><trkpt lat="44.0578108" lon="11.9321027"><ele>215.0</ele><time>2026-04-18T13:59:07.185Z</time></trkpt><trkpt lat="44.0577528" lon="11.9318911"><ele>215.0</ele><time>2026-04-18T13:59:08.185Z</time></trkpt><trkpt lat="44.057685" lon="11.9316831"><ele>215.0</ele><time>2026-04-18T13:59:09.185Z</time></trkpt><trkpt lat="44.0576084" lon="11.9314876"><ele>216.66666666666669</ele><time>2026-04-18T13:59:10.184Z</time></trkpt><trkpt lat="44.057521" lon="11.9313039"><ele>218.33333333333331</ele><time>2026-04-18T13:59:11.185Z</time></trkpt><trkpt lat="44.05743" lon="11.9311264"><ele>220.0</ele><time>2026-04-18T13:59:12.184Z</time></trkpt><trkpt lat="44.0573395" lon="11.9309548"><ele>218.66666666666666</ele><time>2026-04-18T13:59:13.185Z</time></trkpt><trkpt lat="44.0572478" lon="11.9307885"><ele>217.33333333333331</ele><time>2026-04-18T13:59:14.185Z</time></trkpt><trkpt lat="44.0571538" lon="11.9306203"><ele>216.0</ele><time>2026-04-18T13:59:15.184Z</time></trkpt><trkpt lat="44.0570608" lon="11.9304541"><ele>216.0</ele><time>2026-04-18T13:59:16.184Z</time></trkpt><trkpt lat="44.0569694" lon="11.930285"><ele>216.0</ele><time>2026-04-18T13:59:17.184Z</time></trkpt><trkpt lat="44.0568887" lon="11.9301247"><ele>216.0</ele><time>2026-04-18T13:59:18.185Z</time></trkpt><trkpt lat="44.056821" lon="11.9299595"><ele>216.0</ele><time>2026-04-18T13:59:19.185Z</time></trkpt><trkpt lat="44.0567664" lon="11.9297796"><ele>217.75</ele><time>2026-04-18T13:59:20.184Z</time></trkpt><trkpt lat="44.0567303" lon="11.9295914"><ele>219.5</ele><time>2026-04-18T13:59:21.185Z</time></trkpt><trkpt lat="44.0567144" lon="11.9294025"><ele>221.25</ele><time>2026-04-18T13:59:22.185Z</time></trkpt><trkpt lat="44.0567218" lon="11.9292089"><ele>223.0</ele><time>2026-04-18T13:59:23.185Z</time></trkpt><trkpt lat="44.0567511" lon="11.9290066"><ele>223.0</ele><time>2026-04-18T13:59:24.184Z</time></trkpt><trkpt lat="44.0567901" lon="11.9287985"><ele>223.0</ele><time>2026-04-18T13:59:25.185Z</time></trkpt><trkpt lat="44.0568314" lon="11.9285877"><ele>223.0</ele><time>2026-04-18T13:59:26.185Z</time></trkpt><trkpt lat="44.0568703" lon="11.9283815"><ele>223.0</ele><time>2026-04-18T13:59:27.184Z</time></trkpt><trkpt lat="44.0569123" lon="11.928167"><ele>223.0</ele><time>2026-04-18T13:59:28.185Z</time></trkpt><trkpt lat="44.0569548" lon="11.9279547"><ele>223.0</ele><time>2026-04-18T13:59:29.185Z</time></trkpt><trkpt lat="44.0569975" lon="11.9277419"><ele>222.5</ele><time>2026-04-18T13:59:30.185Z</time></trkpt><trkpt lat="44.0570377" lon="11.9275405"><ele>222.0</ele><time>2026-04-18T13:59:31.184Z</time></trkpt><trkpt lat="44.0570739" lon="11.9273517"><ele>221.5</ele><time>2026-04-18T13:59:32.184Z</time></trkpt><trkpt lat="44.0571078" lon="11.927165"><ele>221.0</ele><time>2026-04-18T13:59:33.184Z</time></trkpt><trkpt lat="44.0571403" lon="11.9269878"><ele>221.0</ele><time>2026-04-18T13:59:34.185Z</time></trkpt><trkpt lat="44.0571611" lon="11.9268243"><ele>221.0</ele><time>2026-04-18T13:59:35.185Z</time></trkpt><trkpt lat="44.0571522" lon="11.9266696"><ele>221.0</ele><time>2026-04-18T13:59:36.185Z</time></trkpt><trkpt lat="44.0571108" lon="11.9265116"><ele>221.0</ele><time>2026-04-18T13:59:37.185Z</time></trkpt><trkpt lat="44.057042" lon="11.9263457"><ele>220.33333333333334</ele><time>2026-04-18T13:59:38.185Z</time></trkpt><trkpt lat="44.0569551" lon="11.9261639"><ele>219.66666666666669</ele><time>2026-04-18T13:59:39.185Z</time></trkpt><trkpt lat="44.0568623" lon="11.925983"><ele>219.0</ele><time>2026-04-18T13:59:40.185Z</time></trkpt><trkpt lat="44.0567628" lon="11.9257975"><ele>218.33333333333331</ele><time>2026-04-18T13:59:41.185Z</time></trkpt><trkpt lat="44.0566588" lon="11.9256035"><ele>217.66666666666666</ele><time>2026-04-18T13:59:42.185Z</time></trkpt><trkpt lat="44.0565522" lon="11.9254044"><ele>217.0</ele><time>2026-04-18T13:59:43.185Z</time></trkpt><trkpt lat="44.0564443" lon="11.9252059"><ele>218.33333333333331</ele><time>2026-04-18T13:59:44.185Z</time></trkpt><trkpt lat="44.0563358" lon="11.9250053"><ele>219.66666666666669</ele><time>2026-04-18T13:59:45.185Z</time></trkpt><trkpt lat="44.0562276" lon="11.9247997"><ele>221.0</ele><time>2026-04-18T13:59:46.184Z</time></trkpt><trkpt lat="44.0561219" lon="11.924591"><ele>221.0</ele><time>2026-04-18T13:59:47.184Z</time></trkpt><trkpt lat="44.0560222" lon="11.9243759"><ele>221.0</ele><time>2026-04-18T13:59:48.185Z</time></trkpt><trkpt lat="44.0559307" lon="11.9241573"><ele>221.0</ele><time>2026-04-18T13:59:49.185Z</time></trkpt><trkpt lat="44.0558489" lon="11.9239299"><ele>220.33333333333334</ele><time>2026-04-18T13:59:50.185Z</time></trkpt><trkpt lat="44.0557739" lon="11.9236879"><ele>219.66666666666669</ele><time>2026-04-18T13:59:51.184Z</time></trkpt><trkpt lat="44.0557042" lon="11.9234296"><ele>219.0</ele><time>2026-04-18T13:59:52.185Z</time></trkpt><trkpt lat="44.0556408" lon="11.9231616"><ele>219.0</ele><time>2026-04-18T13:59:53.185Z</time></trkpt><trkpt lat="44.0555828" lon="11.9229015"><ele>219.0</ele><time>2026-04-18T13:59:54.185Z</time></trkpt><trkpt lat="44.0555277" lon="11.9226394"><ele>219.0</ele><time>2026-04-18T13:59:55.184Z</time></trkpt><trkpt lat="44.0554755" lon="11.9223753"><ele>219.33333333333331</ele><time>2026-04-18T13:59:56.185Z</time></trkpt><trkpt lat="44.0554255" lon="11.922113"><ele>219.66666666666666</ele><time>2026-04-18T13:59:57.185Z</time></trkpt><trkpt lat="44.0553772" lon="11.9218488"><ele>220.0</ele><time>2026-04-18T13:59:58.184Z</time></trkpt><trkpt lat="44.0553282" lon="11.9215884"><ele>220.66666666666666</ele><time>2026-04-18T13:59:59.184Z</time></trkpt><trkpt lat="44.0552826" lon="11.9213445"><ele>221.33333333333331</ele><time>2026-04-18T14:00:00.185Z</time></trkpt><trkpt lat="44.0552357" lon="11.9211141"><ele>222.0</ele><time>2026-04-18T14:00:01.185Z</time></trkpt><trkpt lat="44.0551738" lon="11.9209067"><ele>221.0</ele><time>2026-04-18T14:00:02.185Z</time></trkpt><trkpt lat="44.0550854" lon="11.9207195"><ele>220.0</ele><time>2026-04-18T14:00:03.185Z</time></trkpt><trkpt lat="44.0549749" lon="11.9205486"><ele>219.0</ele><time>2026-04-18T14:00:04.185Z</time></trkpt><trkpt lat="44.0548558" lon="11.9203807"><ele>219.0</ele><time>2026-04-18T14:00:05.185Z</time></trkpt><trkpt lat="44.0547448" lon="11.9202022"><ele>219.0</ele><time>2026-04-18T14:00:06.185Z</time></trkpt><trkpt lat="44.0546425" lon="11.9200153"><ele>219.0</ele><time>2026-04-18T14:00:07.185Z</time></trkpt><trkpt lat="44.0545391" lon="11.9198247"><ele>220.33333333333331</ele><time>2026-04-18T14:00:08.185Z</time></trkpt><trkpt lat="44.0544363" lon="11.9196414"><ele>221.66666666666666</ele><time>2026-04-18T14:00:09.184Z</time></trkpt><trkpt lat="44.054334" lon="11.919468"><ele>223.0</ele><time>2026-04-18T14:00:10.184Z</time></trkpt><trkpt lat="44.0542276" lon="11.9193061"><ele>223.75</ele><time>2026-04-18T14:00:11.184Z</time></trkpt><trkpt lat="44.0541175" lon="11.9191655"><ele>224.5</ele><time>2026-04-18T14:00:12.184Z</time></trkpt><trkpt lat="44.0540011" lon="11.9190386"><ele>225.25</ele><time>2026-04-18T14:00:13.185Z</time></trkpt><trkpt lat="44.0538845" lon="11.9189233"><ele>226.0</ele><time>2026-04-18T14:00:14.185Z</time></trkpt><trkpt lat="44.0537728" lon="11.9188239"><ele>226.0</ele><time>2026-04-18T14:00:15.185Z</time></trkpt><trkpt lat="44.0536642" lon="11.9187299"><ele>226.0</ele><time>2026-04-18T14:00:16.185Z</time></trkpt><trkpt lat="44.0535603" lon="11.9186343"><ele>226.0</ele><time>2026-04-18T14:00:17.184Z</time></trkpt><trkpt lat="44.0534567" lon="11.9185238"><ele>226.0</ele><time>2026-04-18T14:00:18.185Z</time></trkpt><trkpt lat="44.0533576" lon="11.9184006"><ele>227.0</ele><time>2026-04-18T14:00:19.185Z</time></trkpt><trkpt lat="44.0532592" lon="11.9182579"><ele>228.0</ele><time>2026-04-18T14:00:20.184Z</time></trkpt><trkpt lat="44.0531674" lon="11.9181004"><ele>229.0</ele><time>2026-04-18T14:00:21.184Z</time></trkpt><trkpt lat="44.0530844" lon="11.9179342"><ele>230.0</ele><time>2026-04-18T14:00:22.184Z</time></trkpt><trkpt lat="44.0530036" lon="11.9177603"><ele>230.0</ele><time>2026-04-18T14:00:23.185Z</time></trkpt><trkpt lat="44.0529244" lon="11.9175876"><ele>230.0</ele><time>2026-04-18T14:00:24.185Z</time></trkpt><trkpt lat="44.0528469" lon="11.9174148"><ele>230.0</ele><time>2026-04-18T14:00:25.184Z</time></trkpt><trkpt lat="44.0527711" lon="11.9172482"><ele>230.0</ele><time>2026-04-18T14:00:26.185Z</time></trkpt><trkpt lat="44.052698" lon="11.9170867"><ele>230.75</ele><time>2026-04-18T14:00:27.185Z</time></trkpt><trkpt lat="44.0526272" lon="11.9169352"><ele>231.5</ele><time>2026-04-18T14:00:28.185Z</time></trkpt><trkpt lat="44.0525568" lon="11.9167846"><ele>232.25</ele><time>2026-04-18T14:00:29.185Z</time></trkpt><trkpt lat="44.0524825" lon="11.916627"><ele>233.0</ele><time>2026-04-18T14:00:30.185Z</time></trkpt><trkpt lat="44.0524035" lon="11.9164599"><ele>230.66666666666669</ele><time>2026-04-18T14:00:31.185Z</time></trkpt><trkpt lat="44.0523215" lon="11.9162825"><ele>228.33333333333331</ele><time>2026-04-18T14:00:32.185Z</time></trkpt><trkpt lat="44.0522373" lon="11.9160992"><ele>226.0</ele><time>2026-04-18T14:00:33.185Z</time></trkpt><trkpt lat="44.0521528" lon="11.915917"><ele>228.0</ele><time>2026-04-18T14:00:34.185Z</time></trkpt><trkpt lat="44.0520678" lon="11.9157346"><ele>230.0</ele><time>2026-04-18T14:00:35.185Z</time></trkpt><trkpt lat="44.0519862" lon="11.915558"><ele>232.0</ele><time>2026-04-18T14:00:36.185Z</time></trkpt><trkpt lat="44.0519058" lon="11.9153795"><ele>232.0</ele><time>2026-04-18T14:00:37.185Z</time></trkpt><trkpt lat="44.0518237" lon="11.9151894"><ele>232.0</ele><time>2026-04-18T14:00:38.185Z</time></trkpt><trkpt lat="44.0517438" lon="11.9149886"><ele>232.0</ele><time>2026-04-18T14:00:39.185Z</time></trkpt><trkpt lat="44.0516674" lon="11.9147749"><ele>231.0</ele><time>2026-04-18T14:00:40.184Z</time></trkpt><trkpt lat="44.0516015" lon="11.9145502"><ele>230.0</ele><time>2026-04-18T14:00:41.185Z</time></trkpt><trkpt lat="44.051543" lon="11.9143169"><ele>229.0</ele><time>2026-04-18T14:00:42.185Z</time></trkpt><trkpt lat="44.051482" lon="11.9140848"><ele>229.0</ele><time>2026-04-18T14:00:43.185Z</time></trkpt><trkpt lat="44.0514065" lon="11.9138592"><ele>229.0</ele><time>2026-04-18T14:00:44.184Z</time></trkpt><trkpt lat="44.0513126" lon="11.9136447"><ele>229.0</ele><time>2026-04-18T14:00:45.185Z</time></trkpt><trkpt lat="44.0511947" lon="11.913436"><ele>229.33333333333331</ele><time>2026-04-18T14:00:46.185Z</time></trkpt><trkpt lat="44.0510558" lon="11.9132366"><ele>229.66666666666669</ele><time>2026-04-18T14:00:47.185Z</time></trkpt><trkpt lat="44.0508983" lon="11.913045"><ele>230.0</ele><time>2026-04-18T14:00:48.185Z</time></trkpt><trkpt lat="44.0507342" lon="11.9128523"><ele>230.0</ele><time>2026-04-18T14:00:49.184Z</time></trkpt><trkpt lat="44.0505679" lon="11.9126645"><ele>230.0</ele><time>2026-04-18T14:00:50.185Z</time></trkpt><trkpt lat="44.0504072" lon="11.9124843"><ele>230.0</ele><time>2026-04-18T14:00:51.185Z</time></trkpt><trkpt lat="44.0502542" lon="11.9123116"><ele>230.66666666666669</ele><time>2026-04-18T14:00:52.185Z</time></trkpt><trkpt lat="44.0501052" lon="11.9121454"><ele>231.33333333333331</ele><time>2026-04-18T14:00:53.185Z</time></trkpt><trkpt lat="44.0499564" lon="11.9119806"><ele>232.0</ele><time>2026-04-18T14:00:54.185Z</time></trkpt><trkpt lat="44.0498108" lon="11.9118216"><ele>235.33333333333331</ele><time>2026-04-18T14:00:55.184Z</time></trkpt><trkpt lat="44.0496691" lon="11.9116677"><ele>238.66666666666669</ele><time>2026-04-18T14:00:56.184Z</time></trkpt><trkpt lat="44.0495317" lon="11.9115172"><ele>242.0</ele><time>2026-04-18T14:00:57.185Z</time></trkpt><trkpt lat="44.0494015" lon="11.9113742"><ele>242.0</ele><time>2026-04-18T14:00:58.185Z</time></trkpt><trkpt lat="44.049285" lon="11.9112406"><ele>242.0</ele><time>2026-04-18T14:00:59.184Z</time></trkpt><trkpt lat="44.0491802" lon="11.9110956"><ele>242.0</ele><time>2026-04-18T14:01:00.185Z</time></trkpt><trkpt lat="44.0491069" lon="11.9109194"><ele>242.0</ele><time>2026-04-18T14:01:01.185Z</time></trkpt><trkpt lat="44.0490717" lon="11.9107085"><ele>241.33333333333334</ele><time>2026-04-18T14:01:02.185Z</time></trkpt><trkpt lat="44.0490466" lon="11.9104801"><ele>240.66666666666669</ele><time>2026-04-18T14:01:03.185Z</time></trkpt><trkpt lat="44.0490014" lon="11.9102348"><ele>240.0</ele><time>2026-04-18T14:01:04.185Z</time></trkpt><trkpt lat="44.0489161" lon="11.9099932"><ele>240.0</ele><time>2026-04-18T14:01:05.185Z</time></trkpt><trkpt lat="44.0488058" lon="11.9097463"><ele>240.0</ele><time>2026-04-18T14:01:06.185Z</time></trkpt><trkpt lat="44.0486996" lon="11.9095223"><ele>240.0</ele><time>2026-04-18T14:01:07.185Z</time></trkpt><trkpt lat="44.0485904" lon="11.9093023"><ele>241.0</ele><time>2026-04-18T14:01:08.185Z</time></trkpt><trkpt lat="44.0484895" lon="11.9091034"><ele>242.0</ele><time>2026-04-18T14:01:09.185Z</time></trkpt><trkpt lat="44.0483724" lon="11.9089251"><ele>243.0</ele><time>2026-04-18T14:01:10.185Z</time></trkpt><trkpt lat="44.048221" lon="11.9087635"><ele>243.0</ele><time>2026-04-18T14:01:11.184Z</time></trkpt><trkpt lat="44.0480466" lon="11.908615"><ele>243.0</ele><time>2026-04-18T14:01:12.185Z</time></trkpt><trkpt lat="44.0478766" lon="11.9084594"><ele>243.0</ele><time>2026-04-18T14:01:13.185Z</time></trkpt><trkpt lat="44.0477142" lon="11.9082803"><ele>245.0</ele><time>2026-04-18T14:01:14.185Z</time></trkpt><trkpt lat="44.0475517" lon="11.9080918"><ele>247.0</ele><time>2026-04-18T14:01:15.185Z</time></trkpt><trkpt lat="44.0474074" lon="11.9079175"><ele>249.0</ele><time>2026-04-18T14:01:16.185Z</time></trkpt><trkpt lat="44.0472772" lon="11.9077638"><ele>249.0</ele><time>2026-04-18T14:01:17.185Z</time></trkpt><trkpt lat="44.0471456" lon="11.9076547"><ele>249.0</ele><time>2026-04-18T14:01:18.185Z</time></trkpt><trkpt lat="44.0469889" lon="11.9075832"><ele>249.0</ele><time>2026-04-18T14:01:19.185Z</time></trkpt><trkpt lat="44.0468384" lon="11.9075186"><ele>247.0</ele><time>2026-04-18T14:01:20.185Z</time></trkpt><trkpt lat="44.0467099" lon="11.907441"><ele>245.0</ele><time>2026-04-18T14:01:21.185Z</time></trkpt><trkpt lat="44.0465849" lon="11.9073182"><ele>243.0</ele><time>2026-04-18T14:01:22.185Z</time></trkpt><trkpt lat="44.0464695" lon="11.9071599"><ele>243.0</ele><time>2026-04-18T14:01:23.185Z</time></trkpt><trkpt lat="44.0463424" lon="11.9069843"><ele>243.0</ele><time>2026-04-18T14:01:24.185Z</time></trkpt><trkpt lat="44.0462057" lon="11.9068216"><ele>243.0</ele><time>2026-04-18T14:01:25.185Z</time></trkpt><trkpt lat="44.046053" lon="11.9066728"><ele>245.33333333333331</ele><time>2026-04-18T14:01:26.185Z</time></trkpt><trkpt lat="44.0459014" lon="11.906555"><ele>247.66666666666666</ele><time>2026-04-18T14:01:27.185Z</time></trkpt><trkpt lat="44.0457602" lon="11.9064421"><ele>250.0</ele><time>2026-04-18T14:01:28.184Z</time></trkpt><trkpt lat="44.0456291" lon="11.9063171"><ele>250.0</ele><time>2026-04-18T14:01:29.185Z</time></trkpt><trkpt lat="44.0455039" lon="11.9062077"><ele>250.0</ele><time>2026-04-18T14:01:30.185Z</time></trkpt><trkpt lat="44.0453674" lon="11.9061448"><ele>250.0</ele><time>2026-04-18T14:01:31.185Z</time></trkpt><trkpt lat="44.0452167" lon="11.9061089"><ele>250.0</ele><time>2026-04-18T14:01:32.185Z</time></trkpt><trkpt lat="44.0450695" lon="11.9060569"><ele>250.66666666666666</ele><time>2026-04-18T14:01:33.185Z</time></trkpt><trkpt lat="44.0449077" lon="11.9059584"><ele>251.33333333333331</ele><time>2026-04-18T14:01:34.185Z</time></trkpt><trkpt lat="44.0447375" lon="11.9058181"><ele>252.0</ele><time>2026-04-18T14:01:35.185Z</time></trkpt><trkpt lat="44.0445698" lon="11.9056717"><ele>252.0</ele><time>2026-04-18T14:01:36.185Z</time></trkpt><trkpt lat="44.0443976" lon="11.9055188"><ele>252.0</ele><time>2026-04-18T14:01:37.185Z</time></trkpt><trkpt lat="44.04424" lon="11.9053788"><ele>252.0</ele><time>2026-04-18T14:01:38.185Z</time></trkpt><trkpt lat="44.0440878" lon="11.9052484"><ele>251.0</ele><time>2026-04-18T14:01:39.184Z</time></trkpt><trkpt lat="44.0439498" lon="11.9051289"><ele>250.0</ele><time>2026-04-18T14:01:40.185Z</time></trkpt><trkpt lat="44.0438396" lon="11.9050058"><ele>249.0</ele><time>2026-04-18T14:01:41.185Z</time></trkpt><trkpt lat="44.0437701" lon="11.9048589"><ele>248.0</ele><time>2026-04-18T14:01:42.185Z</time></trkpt><trkpt lat="44.0437425" lon="11.9046848"><ele>248.0</ele><time>2026-04-18T14:01:43.185Z</time></trkpt><trkpt lat="44.0437702" lon="11.9044938"><ele>248.0</ele><time>2026-04-18T14:01:44.184Z</time></trkpt><trkpt lat="44.0438121" lon="11.9043078"><ele>248.0</ele><time>2026-04-18T14:01:45.184Z</time></trkpt><trkpt lat="44.0438247" lon="11.9041272"><ele>248.0</ele><time>2026-04-18T14:01:46.184Z</time></trkpt><trkpt lat="44.0437908" lon="11.9039392"><ele>249.0</ele><time>2026-04-18T14:01:47.185Z</time></trkpt><trkpt lat="44.0437193" lon="11.9037424"><ele>250.0</ele><time>2026-04-18T14:01:48.185Z</time></trkpt><trkpt lat="44.0436263" lon="11.9035403"><ele>251.0</ele><time>2026-04-18T14:01:49.184Z</time></trkpt><trkpt lat="44.0435398" lon="11.9033497"><ele>252.75</ele><time>2026-04-18T14:01:50.185Z</time></trkpt><trkpt lat="44.0434664" lon="11.9031647"><ele>254.5</ele><time>2026-04-18T14:01:51.184Z</time></trkpt><trkpt lat="44.0434109" lon="11.9029778"><ele>256.25</ele><time>2026-04-18T14:01:52.185Z</time></trkpt><trkpt lat="44.0433834" lon="11.9027884"><ele>258.0</ele><time>2026-04-18T14:01:53.185Z</time></trkpt><trkpt lat="44.043367" lon="11.9026155"><ele>257.0</ele><time>2026-04-18T14:01:54.185Z</time></trkpt><trkpt lat="44.0433337" lon="11.9024629"><ele>256.0</ele><time>2026-04-18T14:01:55.185Z</time></trkpt><trkpt lat="44.0432696" lon="11.9023409"><ele>255.0</ele><time>2026-04-18T14:01:56.185Z</time></trkpt><trkpt lat="44.0431742" lon="11.9022601"><ele>254.0</ele><time>2026-04-18T14:01:57.185Z</time></trkpt><trkpt lat="44.0430516" lon="11.9021897"><ele>254.0</ele><time>2026-04-18T14:01:58.185Z</time></trkpt><trkpt lat="44.0429276" lon="11.902147"><ele>254.0</ele><time>2026-04-18T14:01:59.185Z</time></trkpt><trkpt lat="44.0427992" lon="11.9021681"><ele>254.0</ele><time>2026-04-18T14:02:00.185Z</time></trkpt><trkpt lat="44.0426814" lon="11.9022123"><ele>254.0</ele><time>2026-04-18T14:02:01.185Z</time></trkpt><trkpt lat="44.0425561" lon="11.9022232"><ele>252.0</ele><time>2026-04-18T14:02:02.184Z</time></trkpt><trkpt lat="44.0424282" lon="11.9021728"><ele>250.0</ele><time>2026-04-18T14:02:03.184Z</time></trkpt><trkpt lat="44.0422947" lon="11.9020594"><ele>248.0</ele><time>2026-04-18T14:02:04.185Z</time></trkpt><trkpt lat="44.0421562" lon="11.9019027"><ele>250.33333333333334</ele><time>2026-04-18T14:02:05.185Z</time></trkpt><trkpt lat="44.0420132" lon="11.9017429"><ele>252.66666666666669</ele><time>2026-04-18T14:02:06.185Z</time></trkpt><trkpt lat="44.0418527" lon="11.9015744"><ele>255.0</ele><time>2026-04-18T14:02:07.185Z</time></trkpt><trkpt lat="44.0416737" lon="11.9014253"><ele>253.0</ele><time>2026-04-18T14:02:08.185Z</time></trkpt><trkpt lat="44.041484" lon="11.9013015"><ele>251.0</ele><time>2026-04-18T14:02:09.185Z</time></trkpt><trkpt lat="44.0412956" lon="11.901205"><ele>249.0</ele><time>2026-04-18T14:02:10.185Z</time></trkpt><trkpt lat="44.0411145" lon="11.9011019"><ele>249.0</ele><time>2026-04-18T14:02:11.185Z</time></trkpt><trkpt lat="44.0409496" lon="11.9009727"><ele>249.0</ele><time>2026-04-18T14:02:12.185Z</time></trkpt><trkpt lat="44.0407961" lon="11.9008143"><ele>249.0</ele><time>2026-04-18T14:02:13.185Z</time></trkpt><trkpt lat="44.0406499" lon="11.9006368"><ele>248.66666666666669</ele><time>2026-04-18T14:02:14.185Z</time></trkpt><trkpt lat="44.0405021" lon="11.9004536"><ele>248.33333333333334</ele><time>2026-04-18T14:02:15.184Z</time></trkpt><trkpt lat="44.0403544" lon="11.9002736"><ele>248.0</ele><time>2026-04-18T14:02:16.185Z</time></trkpt><trkpt lat="44.0402076" lon="11.9000991"><ele>248.33333333333334</ele><time>2026-04-18T14:02:17.185Z</time></trkpt><trkpt lat="44.0400535" lon="11.8999444"><ele>248.66666666666669</ele><time>2026-04-18T14:02:18.184Z</time></trkpt><trkpt lat="44.0398823" lon="11.899827"><ele>249.0</ele><time>2026-04-18T14:02:19.185Z</time></trkpt><trkpt lat="44.0397006" lon="11.8997391"><ele>249.0</ele><time>2026-04-18T14:02:20.185Z</time></trkpt><trkpt lat="44.0395212" lon="11.8996709"><ele>249.0</ele><time>2026-04-18T14:02:21.185Z</time></trkpt><trkpt lat="44.0393469" lon="11.8995944"><ele>249.0</ele><time>2026-04-18T14:02:22.185Z</time></trkpt><trkpt lat="44.0391775" lon="11.8994891"><ele>249.0</ele><time>2026-04-18T14:02:23.185Z</time></trkpt><trkpt lat="44.0390201" lon="11.899355"><ele>249.0</ele><time>2026-04-18T14:02:24.185Z</time></trkpt><trkpt lat="44.038875" lon="11.8992016"><ele>249.0</ele><time>2026-04-18T14:02:25.185Z</time></trkpt><trkpt lat="44.0387322" lon="11.8990454"><ele>248.66666666666669</ele><time>2026-04-18T14:02:26.185Z</time></trkpt><trkpt lat="44.0385783" lon="11.8989023"><ele>248.33333333333334</ele><time>2026-04-18T14:02:27.185Z</time></trkpt><trkpt lat="44.0384123" lon="11.8987737"><ele>248.0</ele><time>2026-04-18T14:02:28.185Z</time></trkpt><trkpt lat="44.0382366" lon="11.8986562"><ele>248.0</ele><time>2026-04-18T14:02:29.184Z</time></trkpt><trkpt lat="44.0380521" lon="11.8985348"><ele>248.0</ele><time>2026-04-18T14:02:30.185Z</time></trkpt><trkpt lat="44.0378663" lon="11.898408"><ele>248.0</ele><time>2026-04-18T14:02:31.184Z</time></trkpt><trkpt lat="44.0376886" lon="11.8982853"><ele>249.0</ele><time>2026-04-18T14:02:32.185Z</time></trkpt><trkpt lat="44.0375061" lon="11.8981608"><ele>250.0</ele><time>2026-04-18T14:02:33.185Z</time></trkpt><trkpt lat="44.0373241" lon="11.8980386"><ele>251.0</ele><time>2026-04-18T14:02:34.185Z</time></trkpt><trkpt lat="44.037146" lon="11.8979182"><ele>251.0</ele><time>2026-04-18T14:02:35.184Z</time></trkpt><trkpt lat="44.0369715" lon="11.8978008"><ele>251.0</ele><time>2026-04-18T14:02:36.185Z</time></trkpt><trkpt lat="44.0368075" lon="11.8976926"><ele>251.0</ele><time>2026-04-18T14:02:37.185Z</time></trkpt><trkpt lat="44.0366526" lon="11.8975901"><ele>253.33333333333334</ele><time>2026-04-18T14:02:38.185Z</time></trkpt><trkpt lat="44.0365119" lon="11.8974945"><ele>255.66666666666669</ele><time>2026-04-18T14:02:39.185Z</time></trkpt><trkpt lat="44.0363787" lon="11.8973994"><ele>258.0</ele><time>2026-04-18T14:02:40.185Z</time></trkpt><trkpt lat="44.0362443" lon="11.8972997"><ele>258.0</ele><time>2026-04-18T14:02:41.185Z</time></trkpt><trkpt lat="44.0361098" lon="11.8971892"><ele>258.0</ele><time>2026-04-18T14:02:42.185Z</time></trkpt><trkpt lat="44.0359825" lon="11.8970615"><ele>258.0</ele><time>2026-04-18T14:02:43.185Z</time></trkpt><trkpt lat="44.0358625" lon="11.8969176"><ele>257.0</ele><time>2026-04-18T14:02:44.184Z</time></trkpt><trkpt lat="44.035752" lon="11.896756"><ele>256.0</ele><time>2026-04-18T14:02:45.185Z</time></trkpt><trkpt lat="44.0356524" lon="11.8965872"><ele>255.0</ele><time>2026-04-18T14:02:46.184Z</time></trkpt><trkpt lat="44.0355574" lon="11.8964364"><ele>255.0</ele><time>2026-04-18T14:02:47.185Z</time></trkpt><trkpt lat="44.0354457" lon="11.8962941"><ele>255.0</ele><time>2026-04-18T14:02:48.185Z</time></trkpt><trkpt lat="44.035309" lon="11.8961725"><ele>255.0</ele><time>2026-04-18T14:02:49.184Z</time></trkpt><trkpt lat="44.0351521" lon="11.8960666"><ele>255.0</ele><time>2026-04-18T14:02:50.185Z</time></trkpt><trkpt lat="44.0349873" lon="11.8959726"><ele>255.0</ele><time>2026-04-18T14:02:51.185Z</time></trkpt><trkpt lat="44.0348238" lon="11.8958782"><ele>255.0</ele><time>2026-04-18T14:02:52.184Z</time></trkpt><trkpt lat="44.0346603" lon="11.8957779"><ele>256.0</ele><time>2026-04-18T14:02:53.185Z</time></trkpt><trkpt lat="44.0345026" lon="11.8956789"><ele>257.0</ele><time>2026-04-18T14:02:54.185Z</time></trkpt><trkpt lat="44.0343466" lon="11.8955837"><ele>258.0</ele><time>2026-04-18T14:02:55.185Z</time></trkpt><trkpt lat="44.0341962" lon="11.8954931"><ele>256.6666666666667</ele><time>2026-04-18T14:02:56.184Z</time></trkpt><trkpt lat="44.034048" lon="11.8954057"><ele>255.33333333333334</ele><time>2026-04-18T14:02:57.185Z</time></trkpt><trkpt lat="44.0339007" lon="11.8953211"><ele>254.0</ele><time>2026-04-18T14:02:58.184Z</time></trkpt><trkpt lat="44.0337517" lon="11.8952355"><ele>254.0</ele><time>2026-04-18T14:02:59.185Z</time></trkpt><trkpt lat="44.033593" lon="11.8951466"><ele>254.0</ele><time>2026-04-18T14:03:00.185Z</time></trkpt><trkpt lat="44.0334254" lon="11.895049"><ele>254.0</ele><time>2026-04-18T14:03:01.185Z</time></trkpt><trkpt lat="44.03326" lon="11.8949483"><ele>256.0</ele><time>2026-04-18T14:03:02.185Z</time></trkpt><trkpt lat="44.0330999" lon="11.8948516"><ele>258.0</ele><time>2026-04-18T14:03:03.185Z</time></trkpt><trkpt lat="44.0329457" lon="11.8947618"><ele>260.0</ele><time>2026-04-18T14:03:04.185Z</time></trkpt><trkpt lat="44.032796" lon="11.894688"><ele>260.0</ele><time>2026-04-18T14:03:05.185Z</time></trkpt><trkpt lat="44.032641" lon="11.8946515"><ele>260.0</ele><time>2026-04-18T14:03:06.185Z</time></trkpt><trkpt lat="44.0324747" lon="11.8946511"><ele>260.0</ele><time>2026-04-18T14:03:07.184Z</time></trkpt><trkpt lat="44.0323064" lon="11.8946653"><ele>259.33333333333337</ele><time>2026-04-18T14:03:08.185Z</time></trkpt><trkpt lat="44.0321419" lon="11.8946768"><ele>258.6666666666667</ele><time>2026-04-18T14:03:09.184Z</time></trkpt><trkpt lat="44.0319769" lon="11.8946693"><ele>258.0</ele><time>2026-04-18T14:03:10.185Z</time></trkpt><trkpt lat="44.0318137" lon="11.89464"><ele>258.0</ele><time>2026-04-18T14:03:11.184Z</time></trkpt><trkpt lat="44.0316518" lon="11.8945869"><ele>258.0</ele><time>2026-04-18T14:03:12.185Z</time></trkpt><trkpt lat="44.0314946" lon="11.8945029"><ele>258.0</ele><time>2026-04-18T14:03:13.185Z</time></trkpt><trkpt lat="44.0313462" lon="11.8943875"><ele>259.6666666666667</ele><time>2026-04-18T14:03:14.185Z</time></trkpt><trkpt lat="44.0312004" lon="11.8942526"><ele>261.33333333333337</ele><time>2026-04-18T14:03:15.185Z</time></trkpt><trkpt lat="44.0310508" lon="11.8941132"><ele>263.0</ele><time>2026-04-18T14:03:16.185Z</time></trkpt><trkpt lat="44.0308933" lon="11.8939853"><ele>262.33333333333337</ele><time>2026-04-18T14:03:17.185Z</time></trkpt><trkpt lat="44.0307247" lon="11.8938811"><ele>261.6666666666667</ele><time>2026-04-18T14:03:18.184Z</time></trkpt><trkpt lat="44.0305412" lon="11.8938015"><ele>261.0</ele><time>2026-04-18T14:03:19.185Z</time></trkpt><trkpt lat="44.0303499" lon="11.893746"><ele>261.0</ele><time>2026-04-18T14:03:20.185Z</time></trkpt><trkpt lat="44.0301552" lon="11.8937084"><ele>261.0</ele><time>2026-04-18T14:03:21.185Z</time></trkpt><trkpt lat="44.0299636" lon="11.8936823"><ele>261.0</ele><time>2026-04-18T14:03:22.185Z</time></trkpt><trkpt lat="44.0297808" lon="11.8936684"><ele>260.3333333333333</ele><time>2026-04-18T14:03:23.185Z</time></trkpt><trkpt lat="44.0295913" lon="11.8936774"><ele>259.66666666666663</ele><time>2026-04-18T14:03:24.185Z</time></trkpt><trkpt lat="44.0294068" lon="11.8937159"><ele>259.0</ele><time>2026-04-18T14:03:25.185Z</time></trkpt><trkpt lat="44.0292401" lon="11.8937762"><ele>258.66666666666663</ele><time>2026-04-18T14:03:26.185Z</time></trkpt><trkpt lat="44.0290846" lon="11.8938371"><ele>258.3333333333333</ele><time>2026-04-18T14:03:27.185Z</time></trkpt><trkpt lat="44.0289394" lon="11.8938597"><ele>258.0</ele><time>2026-04-18T14:03:28.185Z</time></trkpt><trkpt lat="44.0287845" lon="11.8938312"><ele>258.0</ele><time>2026-04-18T14:03:29.185Z</time></trkpt><trkpt lat="44.0286267" lon="11.8937707"><ele>258.0</ele><time>2026-04-18T14:03:30.184Z</time></trkpt><trkpt lat="44.0284735" lon="11.8936724"><ele>258.0</ele><time>2026-04-18T14:03:31.185Z</time></trkpt><trkpt lat="44.0283169" lon="11.8935572"><ele>257.6666666666667</ele><time>2026-04-18T14:03:32.185Z</time></trkpt><trkpt lat="44.0281547" lon="11.8934513"><ele>257.33333333333337</ele><time>2026-04-18T14:03:33.185Z</time></trkpt><trkpt lat="44.0279683" lon="11.893357"><ele>257.0</ele><time>2026-04-18T14:03:34.185Z</time></trkpt><trkpt lat="44.0277677" lon="11.8932671"><ele>259.0</ele><time>2026-04-18T14:03:35.184Z</time></trkpt><trkpt lat="44.0275694" lon="11.8931729"><ele>261.0</ele><time>2026-04-18T14:03:36.184Z</time></trkpt><trkpt lat="44.0273748" lon="11.8930826"><ele>263.0</ele><time>2026-04-18T14:03:37.185Z</time></trkpt><trkpt lat="44.0271872" lon="11.8929978"><ele>263.0</ele><time>2026-04-18T14:03:38.185Z</time></trkpt><trkpt lat="44.0270074" lon="11.8929146"><ele>263.0</ele><time>2026-04-18T14:03:39.184Z</time></trkpt><trkpt lat="44.0268315" lon="11.8928309"><ele>263.0</ele><time>2026-04-18T14:03:40.185Z</time></trkpt><trkpt lat="44.0266599" lon="11.8927465"><ele>262.33333333333337</ele><time>2026-04-18T14:03:41.185Z</time></trkpt><trkpt lat="44.0264943" lon="11.8926471"><ele>261.6666666666667</ele><time>2026-04-18T14:03:42.185Z</time></trkpt><trkpt lat="44.026335" lon="11.89253"><ele>261.0</ele><time>2026-04-18T14:03:43.185Z</time></trkpt><trkpt lat="44.026181" lon="11.8924002"><ele>261.6666666666667</ele><time>2026-04-18T14:03:44.185Z</time></trkpt><trkpt lat="44.0260258" lon="11.8922674"><ele>262.33333333333337</ele><time>2026-04-18T14:03:45.184Z</time></trkpt><trkpt lat="44.0258676" lon="11.8921376"><ele>263.0</ele><time>2026-04-18T14:03:46.185Z</time></trkpt><trkpt lat="44.0257088" lon="11.892008"><ele>263.0</ele><time>2026-04-18T14:03:47.185Z</time></trkpt><trkpt lat="44.0255538" lon="11.8918799"><ele>263.0</ele><time>2026-04-18T14:03:48.185Z</time></trkpt><trkpt lat="44.0254075" lon="11.8917583"><ele>263.0</ele><time>2026-04-18T14:03:49.185Z</time></trkpt><trkpt lat="44.0252627" lon="11.8916371"><ele>263.33333333333337</ele><time>2026-04-18T14:03:50.184Z</time></trkpt><trkpt lat="44.0251247" lon="11.8915194"><ele>263.6666666666667</ele><time>2026-04-18T14:03:51.185Z</time></trkpt><trkpt lat="44.0249985" lon="11.8914001"><ele>264.0</ele><time>2026-04-18T14:03:52.185Z</time></trkpt><trkpt lat="44.0248828" lon="11.8912588"><ele>264.0</ele><time>2026-04-18T14:03:53.185Z</time></trkpt><trkpt lat="44.024786" lon="11.8910803"><ele>264.0</ele><time>2026-04-18T14:03:54.185Z</time></trkpt><trkpt lat="44.0247066" lon="11.8908686"><ele>264.0</ele><time>2026-04-18T14:03:55.185Z</time></trkpt><trkpt lat="44.0246375" lon="11.8906316"><ele>265.0</ele><time>2026-04-18T14:03:56.185Z</time></trkpt><trkpt lat="44.0245735" lon="11.8903781"><ele>266.0</ele><time>2026-04-18T14:03:57.185Z</time></trkpt><trkpt lat="44.0245112" lon="11.8901146"><ele>267.0</ele><time>2026-04-18T14:03:58.185Z</time></trkpt><trkpt lat="44.0244493" lon="11.8898548"><ele>268.0</ele><time>2026-04-18T14:03:59.185Z</time></trkpt><trkpt lat="44.0243846" lon="11.8895849"><ele>269.0</ele><time>2026-04-18T14:04:00.185Z</time></trkpt><trkpt lat="44.024319" lon="11.8893147"><ele>270.0</ele><time>2026-04-18T14:04:01.185Z</time></trkpt><trkpt lat="44.0242547" lon="11.8890552"><ele>271.0</ele><time>2026-04-18T14:04:02.185Z</time></trkpt><trkpt lat="44.024196" lon="11.8888176"><ele>272.0</ele><time>2026-04-18T14:04:03.184Z</time></trkpt><trkpt lat="44.0241445" lon="11.8886103"><ele>273.0</ele><time>2026-04-18T14:04:04.185Z</time></trkpt><trkpt lat="44.0240949" lon="11.8884077"><ele>271.5</ele><time>2026-04-18T14:04:05.185Z</time></trkpt><trkpt lat="44.0240476" lon="11.8882209"><ele>270.0</ele><time>2026-04-18T14:04:06.185Z</time></trkpt><trkpt lat="44.0240017" lon="11.8880424"><ele>268.5</ele><time>2026-04-18T14:04:07.185Z</time></trkpt><trkpt lat="44.0239559" lon="11.8878633"><ele>267.0</ele><time>2026-04-18T14:04:08.184Z</time></trkpt><trkpt lat="44.0239041" lon="11.8876712"><ele>268.3333333333333</ele><time>2026-04-18T14:04:09.184Z</time></trkpt><trkpt lat="44.0238414" lon="11.8874766"><ele>269.66666666666663</ele><time>2026-04-18T14:04:10.185Z</time></trkpt><trkpt lat="44.0237612" lon="11.8872758"><ele>271.0</ele><time>2026-04-18T14:04:11.184Z</time></trkpt><trkpt lat="44.023672" lon="11.8870727"><ele>271.0</ele><time>2026-04-18T14:04:12.185Z</time></trkpt><trkpt lat="44.0235821" lon="11.8868635"><ele>271.0</ele><time>2026-04-18T14:04:13.185Z</time></trkpt><trkpt lat="44.0234983" lon="11.8866467"><ele>271.0</ele><time>2026-04-18T14:04:14.185Z</time></trkpt><trkpt lat="44.023426" lon="11.8864273"><ele>270.3333333333333</ele><time>2026-04-18T14:04:15.185Z</time></trkpt><trkpt lat="44.0233696" lon="11.8862004"><ele>269.6666666666667</ele><time>2026-04-18T14:04:16.185Z</time></trkpt><trkpt lat="44.0233263" lon="11.8859671"><ele>269.0</ele><time>2026-04-18T14:04:17.185Z</time></trkpt><trkpt lat="44.0232976" lon="11.8857303"><ele>269.0</ele><time>2026-04-18T14:04:18.185Z</time></trkpt><trkpt lat="44.0232807" lon="11.8854909"><ele>269.0</ele><time>2026-04-18T14:04:19.185Z</time></trkpt><trkpt lat="44.0232732" lon="11.8852424"><ele>269.0</ele><time>2026-04-18T14:04:20.185Z</time></trkpt><trkpt lat="44.0232691" lon="11.8849877"><ele>269.33333333333337</ele><time>2026-04-18T14:04:21.185Z</time></trkpt><trkpt lat="44.0232669" lon="11.8847355"><ele>269.6666666666667</ele><time>2026-04-18T14:04:22.185Z</time></trkpt><trkpt lat="44.0232652" lon="11.8844812"><ele>270.0</ele><time>2026-04-18T14:04:23.184Z</time></trkpt><trkpt lat="44.0232647" lon="11.8842261"><ele>271.3333333333333</ele><time>2026-04-18T14:04:24.185Z</time></trkpt><trkpt lat="44.0232649" lon="11.8839751"><ele>272.66666666666663</ele><time>2026-04-18T14:04:25.184Z</time></trkpt><trkpt lat="44.0232652" lon="11.8837325"><ele>274.0</ele><time>2026-04-18T14:04:26.185Z</time></trkpt><trkpt lat="44.0232652" lon="11.8834955"><ele>274.66666666666663</ele><time>2026-04-18T14:04:27.185Z</time></trkpt><trkpt lat="44.0232648" lon="11.8832587"><ele>275.3333333333333</ele><time>2026-04-18T14:04:28.185Z</time></trkpt><trkpt lat="44.0232635" lon="11.8830208"><ele>276.0</ele><time>2026-04-18T14:04:29.185Z</time></trkpt><trkpt lat="44.0232638" lon="11.882781"><ele>275.6666666666667</ele><time>2026-04-18T14:04:30.185Z</time></trkpt><trkpt lat="44.0232645" lon="11.8825373"><ele>275.33333333333337</ele><time>2026-04-18T14:04:31.185Z</time></trkpt><trkpt lat="44.0232653" lon="11.8822921"><ele>275.0</ele><time>2026-04-18T14:04:32.185Z</time></trkpt><trkpt lat="44.0232632" lon="11.8820461"><ele>275.0</ele><time>2026-04-18T14:04:33.185Z</time></trkpt><trkpt lat="44.0232504" lon="11.8818065"><ele>275.0</ele><time>2026-04-18T14:04:34.185Z</time></trkpt><trkpt lat="44.0232195" lon="11.8815777"><ele>275.0</ele><time>2026-04-18T14:04:35.185Z</time></trkpt><trkpt lat="44.0231618" lon="11.8813565"><ele>275.33333333333337</ele><time>2026-04-18T14:04:36.184Z</time></trkpt><trkpt lat="44.023081" lon="11.881151"><ele>275.6666666666667</ele><time>2026-04-18T14:04:37.185Z</time></trkpt><trkpt lat="44.0229905" lon="11.8809477"><ele>276.0</ele><time>2026-04-18T14:04:38.185Z</time></trkpt><trkpt lat="44.0228972" lon="11.8807479"><ele>277.6666666666667</ele><time>2026-04-18T14:04:39.184Z</time></trkpt><trkpt lat="44.0228127" lon="11.8805591"><ele>279.33333333333337</ele><time>2026-04-18T14:04:40.184Z</time></trkpt><trkpt lat="44.0227331" lon="11.8803793"><ele>281.0</ele><time>2026-04-18T14:04:41.185Z</time></trkpt><trkpt lat="44.0226565" lon="11.8802083"><ele>280.5</ele><time>2026-04-18T14:04:42.185Z</time></trkpt><trkpt lat="44.0225851" lon="11.8800484"><ele>280.0</ele><time>2026-04-18T14:04:43.185Z</time></trkpt><trkpt lat="44.0225205" lon="11.8799024"><ele>279.5</ele><time>2026-04-18T14:04:44.185Z</time></trkpt><trkpt lat="44.022462" lon="11.8797642"><ele>279.0</ele><time>2026-04-18T14:04:45.185Z</time></trkpt><trkpt lat="44.0224107" lon="11.8796319"><ele>279.0</ele><time>2026-04-18T14:04:46.185Z</time></trkpt><trkpt lat="44.0223661" lon="11.8794987"><ele>279.0</ele><time>2026-04-18T14:04:47.184Z</time></trkpt><trkpt lat="44.0223268" lon="11.879356"><ele>279.0</ele><time>2026-04-18T14:04:48.185Z</time></trkpt><trkpt lat="44.0222888" lon="11.879204"><ele>279.0</ele><time>2026-04-18T14:04:49.185Z</time></trkpt><trkpt lat="44.0222515" lon="11.8790364"><ele>278.75</ele><time>2026-04-18T14:04:50.185Z</time></trkpt><trkpt lat="44.0222059" lon="11.8788635"><ele>278.5</ele><time>2026-04-18T14:04:51.185Z</time></trkpt><trkpt lat="44.0221349" lon="11.8786861"><ele>278.25</ele><time>2026-04-18T14:04:52.184Z</time></trkpt><trkpt lat="44.0220472" lon="11.8785051"><ele>278.0</ele><time>2026-04-18T14:04:53.185Z</time></trkpt><trkpt lat="44.0219552" lon="11.8783251"><ele>280.33333333333337</ele><time>2026-04-18T14:04:54.185Z</time></trkpt><trkpt lat="44.0218604" lon="11.8781476"><ele>282.6666666666667</ele><time>2026-04-18T14:04:55.185Z</time></trkpt><trkpt lat="44.0217616" lon="11.8779737"><ele>285.0</ele><time>2026-04-18T14:04:56.185Z</time></trkpt><trkpt lat="44.0216598" lon="11.8778023"><ele>284.5</ele><time>2026-04-18T14:04:57.185Z</time></trkpt><trkpt lat="44.0215569" lon="11.8776331"><ele>284.0</ele><time>2026-04-18T14:04:58.185Z</time></trkpt><trkpt lat="44.0214549" lon="11.8774715"><ele>283.5</ele><time>2026-04-18T14:04:59.185Z</time></trkpt><trkpt lat="44.021365" lon="11.8773319"><ele>283.0</ele><time>2026-04-18T14:05:00.185Z</time></trkpt><trkpt lat="44.0212814" lon="11.8772101"><ele>283.0</ele><time>2026-04-18T14:05:01.185Z</time></trkpt><trkpt lat="44.021211" lon="11.8771058"><ele>283.0</ele><time>2026-04-18T14:05:02.185Z</time></trkpt><trkpt lat="44.0211431" lon="11.8770022"><ele>283.0</ele><time>2026-04-18T14:05:03.185Z</time></trkpt><trkpt lat="44.0210946" lon="11.8769039"><ele>283.0</ele><time>2026-04-18T14:05:04.185Z</time></trkpt><trkpt lat="44.0210803" lon="11.8767908"><ele>283.0</ele><time>2026-04-18T14:05:05.185Z</time></trkpt><trkpt lat="44.0210999" lon="11.876649"><ele>285.66666666666663</ele><time>2026-04-18T14:05:06.184Z</time></trkpt><trkpt lat="44.021141" lon="11.8764864"><ele>288.3333333333333</ele><time>2026-04-18T14:05:07.185Z</time></trkpt><trkpt lat="44.0211963" lon="11.8762859"><ele>291.0</ele><time>2026-04-18T14:05:08.185Z</time></trkpt><trkpt lat="44.0212589" lon="11.8760474"><ele>291.0</ele><time>2026-04-18T14:05:09.185Z</time></trkpt><trkpt lat="44.0213281" lon="11.8757927"><ele>291.0</ele><time>2026-04-18T14:05:10.184Z</time></trkpt><trkpt lat="44.0213839" lon="11.8755504"><ele>291.0</ele><time>2026-04-18T14:05:11.185Z</time></trkpt><trkpt lat="44.021425" lon="11.8752799"><ele>292.3333333333333</ele><time>2026-04-18T14:05:12.185Z</time></trkpt><trkpt lat="44.0214523" lon="11.8750062"><ele>293.66666666666663</ele><time>2026-04-18T14:05:13.185Z</time></trkpt><trkpt lat="44.0214741" lon="11.8747512"><ele>295.0</ele><time>2026-04-18T14:05:14.185Z</time></trkpt><trkpt lat="44.0214857" lon="11.8745179"><ele>295.0</ele><time>2026-04-18T14:05:15.184Z</time></trkpt><trkpt lat="44.0214708" lon="11.8742831"><ele>295.0</ele><time>2026-04-18T14:05:16.185Z</time></trkpt><trkpt lat="44.0214133" lon="11.8740365"><ele>295.0</ele><time>2026-04-18T14:05:17.185Z</time></trkpt><trkpt lat="44.0213291" lon="11.8737899"><ele>297.0</ele><time>2026-04-18T14:05:18.185Z</time></trkpt><trkpt lat="44.0212431" lon="11.8735476"><ele>299.0</ele><time>2026-04-18T14:05:19.185Z</time></trkpt><trkpt lat="44.0211585" lon="11.8733129"><ele>301.0</ele><time>2026-04-18T14:05:20.185Z</time></trkpt><trkpt lat="44.0210846" lon="11.8731014"><ele>303.75</ele><time>2026-04-18T14:05:21.185Z</time></trkpt><trkpt lat="44.02102" lon="11.8729138"><ele>306.5</ele><time>2026-04-18T14:05:22.185Z</time></trkpt><trkpt lat="44.0209705" lon="11.8727503"><ele>309.25</ele><time>2026-04-18T14:05:23.185Z</time></trkpt><trkpt lat="44.0209544" lon="11.8725988"><ele>312.0</ele><time>2026-04-18T14:05:24.184Z</time></trkpt><trkpt lat="44.0209774" lon="11.8724467"><ele>313.0</ele><time>2026-04-18T14:05:25.185Z</time></trkpt><trkpt lat="44.0210112" lon="11.8722924"><ele>314.0</ele><time>2026-04-18T14:05:26.185Z</time></trkpt><trkpt lat="44.0210238" lon="11.8721428"><ele>315.0</ele><time>2026-04-18T14:05:27.185Z</time></trkpt><trkpt lat="44.0210139" lon="11.8719958"><ele>316.0</ele><time>2026-04-18T14:05:28.185Z</time></trkpt><trkpt lat="44.020971" lon="11.8718591"><ele>317.0</ele><time>2026-04-18T14:05:29.185Z</time></trkpt><trkpt lat="44.0208893" lon="11.8717536"><ele>313.2</ele><time>2026-04-18T14:05:30.183Z</time></trkpt><trkpt lat="44.0207876" lon="11.8716641"><ele>309.4</ele><time>2026-04-18T14:05:31.185Z</time></trkpt><trkpt lat="44.0206987" lon="11.8715834"><ele>305.6</ele><time>2026-04-18T14:05:32.185Z</time></trkpt><trkpt lat="44.0206265" lon="11.8714818"><ele>301.8</ele><time>2026-04-18T14:05:33.185Z</time></trkpt><trkpt lat="44.0205848" lon="11.8713522"><ele>298.0</ele><time>2026-04-18T14:05:34.185Z</time></trkpt><trkpt lat="44.0205622" lon="11.8711804"><ele>298.0</ele><time>2026-04-18T14:05:35.185Z</time></trkpt><trkpt lat="44.0205599" lon="11.8709741"><ele>298.0</ele><time>2026-04-18T14:05:36.185Z</time></trkpt><trkpt lat="44.0205696" lon="11.8707612"><ele>298.0</ele><time>2026-04-18T14:05:37.185Z</time></trkpt><trkpt lat="44.0205784" lon="11.8705378"><ele>299.0</ele><time>2026-04-18T14:05:38.185Z</time></trkpt><trkpt lat="44.0205782" lon="11.8703114"><ele>300.0</ele><time>2026-04-18T14:05:39.185Z</time></trkpt><trkpt lat="44.0205583" lon="11.8700895"><ele>301.0</ele><time>2026-04-18T14:05:40.185Z</time></trkpt><trkpt lat="44.0205272" lon="11.8698767"><ele>302.25</ele><time>2026-04-18T14:05:41.183Z</time></trkpt><trkpt lat="44.020478" lon="11.8696826"><ele>303.5</ele><time>2026-04-18T14:05:42.184Z</time></trkpt><trkpt lat="44.0204077" lon="11.8694963"><ele>304.75</ele><time>2026-04-18T14:05:43.184Z</time></trkpt><trkpt lat="44.020335" lon="11.8693144"><ele>306.0</ele><time>2026-04-18T14:05:44.185Z</time></trkpt><trkpt lat="44.0202661" lon="11.8691423"><ele>307.25</ele><time>2026-04-18T14:05:45.185Z</time></trkpt><trkpt lat="44.0202017" lon="11.8689778"><ele>308.5</ele><time>2026-04-18T14:05:46.185Z</time></trkpt><trkpt lat="44.020146" lon="11.8688186"><ele>309.75</ele><time>2026-04-18T14:05:47.185Z</time></trkpt><trkpt lat="44.0201103" lon="11.8686587"><ele>311.0</ele><time>2026-04-18T14:05:48.185Z</time></trkpt><trkpt lat="44.0200922" lon="11.8684702"><ele>311.0</ele><time>2026-04-18T14:05:49.184Z</time></trkpt><trkpt lat="44.02009" lon="11.868259"><ele>311.0</ele><time>2026-04-18T14:05:50.185Z</time></trkpt><trkpt lat="44.0200893" lon="11.8680356"><ele>311.0</ele><time>2026-04-18T14:05:51.185Z</time></trkpt><trkpt lat="44.0200791" lon="11.8678041"><ele>311.6666666666667</ele><time>2026-04-18T14:05:52.185Z</time></trkpt><trkpt lat="44.0200514" lon="11.8675567"><ele>312.3333333333333</ele><time>2026-04-18T14:05:53.183Z</time></trkpt><trkpt lat="44.0200044" lon="11.8673057"><ele>313.0</ele><time>2026-04-18T14:05:54.184Z</time></trkpt><trkpt lat="44.0199483" lon="11.8670569"><ele>305.66666666666663</ele><time>2026-04-18T14:05:55.185Z</time></trkpt><trkpt lat="44.019895" lon="11.8668251"><ele>298.3333333333333</ele><time>2026-04-18T14:05:56.185Z</time></trkpt><trkpt lat="44.0198526" lon="11.8665998"><ele>291.0</ele><time>2026-04-18T14:05:57.185Z</time></trkpt><trkpt lat="44.0198227" lon="11.8663765"><ele>291.0</ele><time>2026-04-18T14:05:58.185Z</time></trkpt><trkpt lat="44.0197963" lon="11.8661517"><ele>291.0</ele><time>2026-04-18T14:05:59.184Z</time></trkpt><trkpt lat="44.0197544" lon="11.8659239"><ele>291.0</ele><time>2026-04-18T14:06:00.185Z</time></trkpt><trkpt lat="44.0197021" lon="11.865697"><ele>292.3333333333333</ele><time>2026-04-18T14:06:01.184Z</time></trkpt><trkpt lat="44.0196479" lon="11.8654769"><ele>293.66666666666663</ele><time>2026-04-18T14:06:02.185Z</time></trkpt><trkpt lat="44.0195975" lon="11.8652593"><ele>295.0</ele><time>2026-04-18T14:06:03.185Z</time></trkpt><trkpt lat="44.0195549" lon="11.8650413"><ele>296.3333333333333</ele><time>2026-04-18T14:06:04.185Z</time></trkpt><trkpt lat="44.0195204" lon="11.8648227"><ele>297.6666666666667</ele><time>2026-04-18T14:06:05.185Z</time></trkpt><trkpt lat="44.0194972" lon="11.8646004"><ele>299.0</ele><time>2026-04-18T14:06:06.185Z</time></trkpt><trkpt lat="44.0194888" lon="11.8643757"><ele>300.0</ele><time>2026-04-18T14:06:07.185Z</time></trkpt><trkpt lat="44.019498" lon="11.8641457"><ele>301.0</ele><time>2026-04-18T14:06:08.184Z</time></trkpt><trkpt lat="44.0195245" lon="11.8639067"><ele>302.0</ele><time>2026-04-18T14:06:09.185Z</time></trkpt><trkpt lat="44.0195601" lon="11.8636571"><ele>301.33333333333337</ele><time>2026-04-18T14:06:10.185Z</time></trkpt><trkpt lat="44.0195984" lon="11.8633983"><ele>300.6666666666667</ele><time>2026-04-18T14:06:11.185Z</time></trkpt><trkpt lat="44.0196386" lon="11.8631531"><ele>300.0</ele><time>2026-04-18T14:06:12.183Z</time></trkpt><trkpt lat="44.0196803" lon="11.8629128"><ele>300.0</ele><time>2026-04-18T14:06:13.185Z</time></trkpt><trkpt lat="44.0197268" lon="11.8626717"><ele>300.0</ele><time>2026-04-18T14:06:14.185Z</time></trkpt><trkpt lat="44.0197851" lon="11.862433"><ele>300.0</ele><time>2026-04-18T14:06:15.185Z</time></trkpt><trkpt lat="44.0198538" lon="11.8622038"><ele>299.0</ele><time>2026-04-18T14:06:16.185Z</time></trkpt><trkpt lat="44.0199248" lon="11.8619802"><ele>298.0</ele><time>2026-04-18T14:06:17.185Z</time></trkpt><trkpt lat="44.0199917" lon="11.8617675"><ele>297.0</ele><time>2026-04-18T14:06:18.185Z</time></trkpt><trkpt lat="44.0200448" lon="11.8615618"><ele>298.0</ele><time>2026-04-18T14:06:19.185Z</time></trkpt><trkpt lat="44.0200912" lon="11.8613625"><ele>299.0</ele><time>2026-04-18T14:06:20.185Z</time></trkpt><trkpt lat="44.0201431" lon="11.8611796"><ele>300.0</ele><time>2026-04-18T14:06:21.184Z</time></trkpt><trkpt lat="44.0202182" lon="11.860992"><ele>301.0</ele><time>2026-04-18T14:06:22.185Z</time></trkpt><trkpt lat="44.0203142" lon="11.8608144"><ele>301.0</ele><time>2026-04-18T14:06:23.184Z</time></trkpt><trkpt lat="44.0204261" lon="11.8606329"><ele>301.0</ele><time>2026-04-18T14:06:24.185Z</time></trkpt><trkpt lat="44.0205421" lon="11.8604493"><ele>301.0</ele><time>2026-04-18T14:06:25.185Z</time></trkpt><trkpt lat="44.0206603" lon="11.8602625"><ele>300.3333333333333</ele><time>2026-04-18T14:06:26.185Z</time></trkpt><trkpt lat="44.0207774" lon="11.8600755"><ele>299.6666666666667</ele><time>2026-04-18T14:06:27.185Z</time></trkpt><trkpt lat="44.020892" lon="11.8598965"><ele>299.0</ele><time>2026-04-18T14:06:28.185Z</time></trkpt><trkpt lat="44.0209999" lon="11.8597213"><ele>300.33333333333337</ele><time>2026-04-18T14:06:29.185Z</time></trkpt><trkpt lat="44.0210937" lon="11.8595289"><ele>301.6666666666667</ele><time>2026-04-18T14:06:30.185Z</time></trkpt><trkpt lat="44.0211656" lon="11.8593108"><ele>303.0</ele><time>2026-04-18T14:06:31.185Z</time></trkpt><trkpt lat="44.0212056" lon="11.8590733"><ele>303.0</ele><time>2026-04-18T14:06:32.185Z</time></trkpt><trkpt lat="44.0212092" lon="11.8588201"><ele>303.0</ele><time>2026-04-18T14:06:33.185Z</time></trkpt><trkpt lat="44.0211757" lon="11.858552"><ele>303.0</ele><time>2026-04-18T14:06:34.185Z</time></trkpt><trkpt lat="44.0211068" lon="11.8582906"><ele>302.3333333333333</ele><time>2026-04-18T14:06:35.184Z</time></trkpt><trkpt lat="44.0210107" lon="11.8580352"><ele>301.66666666666663</ele><time>2026-04-18T14:06:36.184Z</time></trkpt><trkpt lat="44.0209136" lon="11.8577963"><ele>301.0</ele><time>2026-04-18T14:06:37.185Z</time></trkpt><trkpt lat="44.0208243" lon="11.8575747"><ele>301.0</ele><time>2026-04-18T14:06:38.184Z</time></trkpt><trkpt lat="44.0207456" lon="11.857363"><ele>301.0</ele><time>2026-04-18T14:06:39.185Z</time></trkpt><trkpt lat="44.0206881" lon="11.8571462"><ele>301.0</ele><time>2026-04-18T14:06:40.185Z</time></trkpt><trkpt lat="44.0206513" lon="11.85692"><ele>301.3333333333333</ele><time>2026-04-18T14:06:41.185Z</time></trkpt><trkpt lat="44.0206398" lon="11.8566794"><ele>301.6666666666667</ele><time>2026-04-18T14:06:42.185Z</time></trkpt><trkpt lat="44.0206451" lon="11.856427"><ele>302.0</ele><time>2026-04-18T14:06:43.185Z</time></trkpt><trkpt lat="44.0206594" lon="11.8561735"><ele>303.0</ele><time>2026-04-18T14:06:44.185Z</time></trkpt><trkpt lat="44.0206657" lon="11.8559195"><ele>304.0</ele><time>2026-04-18T14:06:45.185Z</time></trkpt><trkpt lat="44.0206632" lon="11.8556622"><ele>305.0</ele><time>2026-04-18T14:06:46.185Z</time></trkpt><trkpt lat="44.0206537" lon="11.8553984"><ele>305.0</ele><time>2026-04-18T14:06:47.185Z</time></trkpt><trkpt lat="44.0206387" lon="11.8551302"><ele>305.0</ele><time>2026-04-18T14:06:48.184Z</time></trkpt><trkpt lat="44.0206141" lon="11.8548636"><ele>305.0</ele><time>2026-04-18T14:06:49.185Z</time></trkpt><trkpt lat="44.0205833" lon="11.8545986"><ele>305.0</ele><time>2026-04-18T14:06:50.184Z</time></trkpt><trkpt lat="44.0205452" lon="11.8543377"><ele>305.0</ele><time>2026-04-18T14:06:51.185Z</time></trkpt><trkpt lat="44.0204999" lon="11.8540853"><ele>305.0</ele><time>2026-04-18T14:06:52.185Z</time></trkpt><trkpt lat="44.0204529" lon="11.8538552"><ele>305.5</ele><time>2026-04-18T14:06:53.185Z</time></trkpt><trkpt lat="44.0204104" lon="11.8536414"><ele>306.0</ele><time>2026-04-18T14:06:54.184Z</time></trkpt><trkpt lat="44.0203809" lon="11.8534418"><ele>306.5</ele><time>2026-04-18T14:06:55.184Z</time></trkpt><trkpt lat="44.020377" lon="11.853252"><ele>307.0</ele><time>2026-04-18T14:06:56.185Z</time></trkpt><trkpt lat="44.0204009" lon="11.8530539"><ele>307.0</ele><time>2026-04-18T14:06:57.185Z</time></trkpt><trkpt lat="44.0204541" lon="11.8528555"><ele>307.0</ele><time>2026-04-18T14:06:58.184Z</time></trkpt><trkpt lat="44.0205455" lon="11.8526432"><ele>307.0</ele><time>2026-04-18T14:06:59.185Z</time></trkpt><trkpt lat="44.020664" lon="11.8524315"><ele>307.0</ele><time>2026-04-18T14:07:00.184Z</time></trkpt><trkpt lat="44.0207781" lon="11.8522482"><ele>307.0</ele><time>2026-04-18T14:07:01.185Z</time></trkpt><trkpt lat="44.0208877" lon="11.8520658"><ele>307.0</ele><time>2026-04-18T14:07:02.185Z</time></trkpt><trkpt lat="44.0209869" lon="11.851872"><ele>308.66666666666663</ele><time>2026-04-18T14:07:03.184Z</time></trkpt><trkpt lat="44.0210648" lon="11.8516656"><ele>310.3333333333333</ele><time>2026-04-18T14:07:04.185Z</time></trkpt><trkpt lat="44.0211199" lon="11.8514426"><ele>312.0</ele><time>2026-04-18T14:07:05.185Z</time></trkpt><trkpt lat="44.021158" lon="11.8512135"><ele>312.0</ele><time>2026-04-18T14:07:06.185Z</time></trkpt><trkpt lat="44.0211904" lon="11.8509967"><ele>312.0</ele><time>2026-04-18T14:07:07.184Z</time></trkpt><trkpt lat="44.0212197" lon="11.8507807"><ele>312.0</ele><time>2026-04-18T14:07:08.185Z</time></trkpt><trkpt lat="44.0212471" lon="11.8505633"><ele>312.0</ele><time>2026-04-18T14:07:09.185Z</time></trkpt><trkpt lat="44.0212662" lon="11.8503444"><ele>312.0</ele><time>2026-04-18T14:07:10.184Z</time></trkpt><trkpt lat="44.0212755" lon="11.8501238"><ele>312.0</ele><time>2026-04-18T14:07:11.184Z</time></trkpt><trkpt lat="44.0212823" lon="11.8499034"><ele>312.0</ele><time>2026-04-18T14:07:12.185Z</time></trkpt><trkpt lat="44.0212844" lon="11.8496855"><ele>312.0</ele><time>2026-04-18T14:07:13.185Z</time></trkpt><trkpt lat="44.0212712" lon="11.849471"><ele>312.0</ele><time>2026-04-18T14:07:14.184Z</time></trkpt><trkpt lat="44.0212386" lon="11.8492557"><ele>313.3333333333333</ele><time>2026-04-18T14:07:15.185Z</time></trkpt><trkpt lat="44.0211848" lon="11.849043"><ele>314.66666666666663</ele><time>2026-04-18T14:07:16.185Z</time></trkpt><trkpt lat="44.0211108" lon="11.8488381"><ele>316.0</ele><time>2026-04-18T14:07:17.185Z</time></trkpt><trkpt lat="44.0210187" lon="11.8486378"><ele>316.0</ele><time>2026-04-18T14:07:18.185Z</time></trkpt><trkpt lat="44.0209197" lon="11.8484347"><ele>316.0</ele><time>2026-04-18T14:07:19.185Z</time></trkpt><trkpt lat="44.0208152" lon="11.848233"><ele>316.0</ele><time>2026-04-18T14:07:20.185Z</time></trkpt><trkpt lat="44.0207059" lon="11.8480326"><ele>316.0</ele><time>2026-04-18T14:07:21.185Z</time></trkpt><trkpt lat="44.0205998" lon="11.8478396"><ele>316.0</ele><time>2026-04-18T14:07:22.185Z</time></trkpt><trkpt lat="44.0204961" lon="11.8476506"><ele>316.0</ele><time>2026-04-18T14:07:23.185Z</time></trkpt><trkpt lat="44.0203917" lon="11.847465"><ele>317.3333333333333</ele><time>2026-04-18T14:07:24.185Z</time></trkpt><trkpt lat="44.0202839" lon="11.847283"><ele>318.6666666666667</ele><time>2026-04-18T14:07:25.185Z</time></trkpt><trkpt lat="44.0201791" lon="11.8471059"><ele>320.0</ele><time>2026-04-18T14:07:26.185Z</time></trkpt><trkpt lat="44.0200765" lon="11.8469327"><ele>319.25</ele><time>2026-04-18T14:07:27.185Z</time></trkpt><trkpt lat="44.0199802" lon="11.8467715"><ele>318.5</ele><time>2026-04-18T14:07:28.185Z</time></trkpt><trkpt lat="44.019893" lon="11.8466283"><ele>317.75</ele><time>2026-04-18T14:07:29.185Z</time></trkpt><trkpt lat="44.0198091" lon="11.8464962"><ele>317.0</ele><time>2026-04-18T14:07:30.184Z</time></trkpt><trkpt lat="44.0197209" lon="11.8463766"><ele>317.0</ele><time>2026-04-18T14:07:31.185Z</time></trkpt><trkpt lat="44.0196211" lon="11.8462763"><ele>317.0</ele><time>2026-04-18T14:07:32.185Z</time></trkpt><trkpt lat="44.0195068" lon="11.8461936"><ele>317.0</ele><time>2026-04-18T14:07:33.185Z</time></trkpt><trkpt lat="44.0193745" lon="11.8461268"><ele>317.0</ele><time>2026-04-18T14:07:34.185Z</time></trkpt><trkpt lat="44.0192308" lon="11.8460656"><ele>319.25</ele><time>2026-04-18T14:07:35.185Z</time></trkpt><trkpt lat="44.0190874" lon="11.8460069"><ele>321.5</ele><time>2026-04-18T14:07:36.184Z</time></trkpt><trkpt lat="44.0189492" lon="11.84595"><ele>323.75</ele><time>2026-04-18T14:07:37.185Z</time></trkpt><trkpt lat="44.0188169" lon="11.8458838"><ele>326.0</ele><time>2026-04-18T14:07:38.185Z</time></trkpt><trkpt lat="44.0186988" lon="11.8457909"><ele>326.0</ele><time>2026-04-18T14:07:39.185Z</time></trkpt><trkpt lat="44.0185962" lon="11.84568"><ele>326.0</ele><time>2026-04-18T14:07:40.184Z</time></trkpt><trkpt lat="44.018508" lon="11.8455491"><ele>326.0</ele><time>2026-04-18T14:07:41.185Z</time></trkpt><trkpt lat="44.0184357" lon="11.8453896"><ele>326.0</ele><time>2026-04-18T14:07:42.184Z</time></trkpt><trkpt lat="44.0183803" lon="11.8452081"><ele>325.5</ele><time>2026-04-18T14:07:43.185Z</time></trkpt><trkpt lat="44.0183489" lon="11.8450166"><ele>325.0</ele><time>2026-04-18T14:07:44.185Z</time></trkpt><trkpt lat="44.0183425" lon="11.8448144"><ele>324.5</ele><time>2026-04-18T14:07:45.184Z</time></trkpt><trkpt lat="44.018352" lon="11.844603"><ele>324.0</ele><time>2026-04-18T14:07:46.185Z</time></trkpt><trkpt lat="44.0183681" lon="11.8443947"><ele>325.3333333333333</ele><time>2026-04-18T14:07:47.185Z</time></trkpt><trkpt lat="44.0183869" lon="11.8441784"><ele>326.66666666666663</ele><time>2026-04-18T14:07:48.185Z</time></trkpt><trkpt lat="44.0184047" lon="11.8439555"><ele>328.0</ele><time>2026-04-18T14:07:49.185Z</time></trkpt><trkpt lat="44.0184228" lon="11.843732"><ele>328.0</ele><time>2026-04-18T14:07:50.184Z</time></trkpt><trkpt lat="44.0184429" lon="11.8435109"><ele>328.0</ele><time>2026-04-18T14:07:51.185Z</time></trkpt><trkpt lat="44.0184617" lon="11.8432955"><ele>328.0</ele><time>2026-04-18T14:07:52.184Z</time></trkpt><trkpt lat="44.0184751" lon="11.8430873"><ele>328.5</ele><time>2026-04-18T14:07:53.185Z</time></trkpt><trkpt lat="44.0184758" lon="11.8428847"><ele>329.0</ele><time>2026-04-18T14:07:54.185Z</time></trkpt><trkpt lat="44.0184571" lon="11.8426873"><ele>329.5</ele><time>2026-04-18T14:07:55.184Z</time></trkpt><trkpt lat="44.0184123" lon="11.8424972"><ele>330.0</ele><time>2026-04-18T14:07:56.185Z</time></trkpt><trkpt lat="44.0183427" lon="11.8423135"><ele>330.3333333333333</ele><time>2026-04-18T14:07:57.185Z</time></trkpt><trkpt lat="44.0182486" lon="11.8421309"><ele>330.66666666666663</ele><time>2026-04-18T14:07:58.185Z</time></trkpt><trkpt lat="44.0181437" lon="11.8419446"><ele>331.0</ele><time>2026-04-18T14:07:59.184Z</time></trkpt><trkpt lat="44.0180412" lon="11.841767"><ele>331.0</ele><time>2026-04-18T14:08:00.184Z</time></trkpt><trkpt lat="44.0179401" lon="11.8415943"><ele>331.0</ele><time>2026-04-18T14:08:01.185Z</time></trkpt><trkpt lat="44.0178448" lon="11.8414331"><ele>331.0</ele><time>2026-04-18T14:08:02.185Z</time></trkpt><trkpt lat="44.0177525" lon="11.8412774"><ele>331.0</ele><time>2026-04-18T14:08:03.185Z</time></trkpt><trkpt lat="44.0176567" lon="11.8411279"><ele>331.0</ele><time>2026-04-18T14:08:04.185Z</time></trkpt><trkpt lat="44.0175492" lon="11.8409903"><ele>331.0</ele><time>2026-04-18T14:08:05.185Z</time></trkpt><trkpt lat="44.0174217" lon="11.8408663"><ele>331.0</ele><time>2026-04-18T14:08:06.185Z</time></trkpt><trkpt lat="44.0172784" lon="11.8407547"><ele>332.0</ele><time>2026-04-18T14:08:07.185Z</time></trkpt><trkpt lat="44.0171347" lon="11.8406416"><ele>333.0</ele><time>2026-04-18T14:08:08.185Z</time></trkpt><trkpt lat="44.0170004" lon="11.8405009"><ele>334.0</ele><time>2026-04-18T14:08:09.185Z</time></trkpt><trkpt lat="44.0168793" lon="11.8403346"><ele>334.0</ele><time>2026-04-18T14:08:10.185Z</time></trkpt><trkpt lat="44.0167718" lon="11.8401454"><ele>334.0</ele><time>2026-04-18T14:08:11.185Z</time></trkpt><trkpt lat="44.0166818" lon="11.8399433"><ele>334.0</ele><time>2026-04-18T14:08:12.184Z</time></trkpt><trkpt lat="44.0166159" lon="11.8397339"><ele>333.66666666666663</ele><time>2026-04-18T14:08:13.185Z</time></trkpt><trkpt lat="44.0165691" lon="11.8395164"><ele>333.3333333333333</ele><time>2026-04-18T14:08:14.185Z</time></trkpt><trkpt lat="44.0165412" lon="11.8392882"><ele>333.0</ele><time>2026-04-18T14:08:15.185Z</time></trkpt><trkpt lat="44.0165235" lon="11.8390507"><ele>333.0</ele><time>2026-04-18T14:08:16.185Z</time></trkpt><trkpt lat="44.0165094" lon="11.8388118"><ele>333.0</ele><time>2026-04-18T14:08:17.185Z</time></trkpt><trkpt lat="44.0164995" lon="11.8385842"><ele>333.0</ele><time>2026-04-18T14:08:18.185Z</time></trkpt><trkpt lat="44.0164924" lon="11.8383758"><ele>332.6666666666667</ele><time>2026-04-18T14:08:19.185Z</time></trkpt><trkpt lat="44.0164912" lon="11.8381715"><ele>332.33333333333337</ele><time>2026-04-18T14:08:20.185Z</time></trkpt><trkpt lat="44.0165049" lon="11.8379645"><ele>332.0</ele><time>2026-04-18T14:08:21.184Z</time></trkpt><trkpt lat="44.0165355" lon="11.8377558"><ele>332.0</ele><time>2026-04-18T14:08:22.185Z</time></trkpt><trkpt lat="44.0165798" lon="11.8375398"><ele>332.0</ele><time>2026-04-18T14:08:23.184Z</time></trkpt><trkpt lat="44.0166281" lon="11.8373272"><ele>332.0</ele><time>2026-04-18T14:08:24.185Z</time></trkpt><trkpt lat="44.0166801" lon="11.8371024"><ele>336.33333333333337</ele><time>2026-04-18T14:08:25.185Z</time></trkpt><trkpt lat="44.0167292" lon="11.8368784"><ele>340.6666666666667</ele><time>2026-04-18T14:08:26.185Z</time></trkpt><trkpt lat="44.016774" lon="11.8366546"><ele>345.0</ele><time>2026-04-18T14:08:27.185Z</time></trkpt><trkpt lat="44.0167997" lon="11.8364287"><ele>345.6666666666667</ele><time>2026-04-18T14:08:28.184Z</time></trkpt><trkpt lat="44.0167946" lon="11.8362086"><ele>346.33333333333337</ele><time>2026-04-18T14:08:29.185Z</time></trkpt><trkpt lat="44.0167552" lon="11.8359846"><ele>347.0</ele><time>2026-04-18T14:08:30.184Z</time></trkpt><trkpt lat="44.0166862" lon="11.8357667"><ele>342.6666666666667</ele><time>2026-04-18T14:08:31.185Z</time></trkpt><trkpt lat="44.0165946" lon="11.8355835"><ele>338.3333333333333</ele><time>2026-04-18T14:08:32.184Z</time></trkpt><trkpt lat="44.0164758" lon="11.8354189"><ele>334.0</ele><time>2026-04-18T14:08:33.184Z</time></trkpt><trkpt lat="44.0163347" lon="11.8352892"><ele>334.0</ele><time>2026-04-18T14:08:34.185Z</time></trkpt><trkpt lat="44.0161844" lon="11.8351954"><ele>334.0</ele><time>2026-04-18T14:08:35.185Z</time></trkpt><trkpt lat="44.0160279" lon="11.835103"><ele>334.0</ele><time>2026-04-18T14:08:36.185Z</time></trkpt><trkpt lat="44.0158808" lon="11.8350048"><ele>337.0</ele><time>2026-04-18T14:08:37.185Z</time></trkpt><trkpt lat="44.0157444" lon="11.8348897"><ele>340.0</ele><time>2026-04-18T14:08:38.185Z</time></trkpt><trkpt lat="44.0156258" lon="11.8347516"><ele>343.0</ele><time>2026-04-18T14:08:39.185Z</time></trkpt><trkpt lat="44.0155208" lon="11.8345863"><ele>343.0</ele><time>2026-04-18T14:08:40.185Z</time></trkpt><trkpt lat="44.0154252" lon="11.8343965"><ele>343.0</ele><time>2026-04-18T14:08:41.185Z</time></trkpt><trkpt lat="44.0153329" lon="11.8341926"><ele>343.0</ele><time>2026-04-18T14:08:42.185Z</time></trkpt><trkpt lat="44.0152472" lon="11.8339784"><ele>344.3333333333333</ele><time>2026-04-18T14:08:43.185Z</time></trkpt><trkpt lat="44.0151695" lon="11.8337521"><ele>345.6666666666667</ele><time>2026-04-18T14:08:44.184Z</time></trkpt><trkpt lat="44.0151027" lon="11.8335175"><ele>347.0</ele><time>2026-04-18T14:08:45.185Z</time></trkpt><trkpt lat="44.0150487" lon="11.8332759"><ele>349.0</ele><time>2026-04-18T14:08:46.185Z</time></trkpt><trkpt lat="44.0150087" lon="11.8330283"><ele>351.0</ele><time>2026-04-18T14:08:47.185Z</time></trkpt><trkpt lat="44.0149772" lon="11.8327725"><ele>353.0</ele><time>2026-04-18T14:08:48.185Z</time></trkpt><trkpt lat="44.0149503" lon="11.8325068"><ele>349.33333333333337</ele><time>2026-04-18T14:08:49.184Z</time></trkpt><trkpt lat="44.0149264" lon="11.8322364"><ele>345.6666666666667</ele><time>2026-04-18T14:08:50.185Z</time></trkpt><trkpt lat="44.0149027" lon="11.8319687"><ele>342.0</ele><time>2026-04-18T14:08:51.185Z</time></trkpt><trkpt lat="44.0148754" lon="11.8317101"><ele>342.0</ele><time>2026-04-18T14:08:52.184Z</time></trkpt><trkpt lat="44.0148458" lon="11.8314594"><ele>342.0</ele><time>2026-04-18T14:08:53.185Z</time></trkpt><trkpt lat="44.0148126" lon="11.8312183"><ele>342.0</ele><time>2026-04-18T14:08:54.185Z</time></trkpt><trkpt lat="44.0147755" lon="11.8309863"><ele>343.0</ele><time>2026-04-18T14:08:55.185Z</time></trkpt><trkpt lat="44.0147333" lon="11.8307725"><ele>344.0</ele><time>2026-04-18T14:08:56.185Z</time></trkpt><trkpt lat="44.0146789" lon="11.8305817"><ele>345.0</ele><time>2026-04-18T14:08:57.185Z</time></trkpt><trkpt lat="44.0145997" lon="11.8303962"><ele>345.0</ele><time>2026-04-18T14:08:58.185Z</time></trkpt><trkpt lat="44.0144948" lon="11.8302252"><ele>345.0</ele><time>2026-04-18T14:08:59.184Z</time></trkpt><trkpt lat="44.0143673" lon="11.8300749"><ele>345.0</ele><time>2026-04-18T14:09:00.185Z</time></trkpt><trkpt lat="44.0142185" lon="11.8299556"><ele>348.0</ele><time>2026-04-18T14:09:01.185Z</time></trkpt><trkpt lat="44.0140567" lon="11.8298516"><ele>351.0</ele><time>2026-04-18T14:09:02.185Z</time></trkpt><trkpt lat="44.0139028" lon="11.8297643"><ele>354.0</ele><time>2026-04-18T14:09:03.185Z</time></trkpt><trkpt lat="44.0137478" lon="11.8296915"><ele>354.0</ele><time>2026-04-18T14:09:04.185Z</time></trkpt><trkpt lat="44.0135918" lon="11.8296278"><ele>354.0</ele><time>2026-04-18T14:09:05.185Z</time></trkpt><trkpt lat="44.0134316" lon="11.8295809"><ele>354.0</ele><time>2026-04-18T14:09:06.185Z</time></trkpt><trkpt lat="44.0132663" lon="11.8295615"><ele>353.0</ele><time>2026-04-18T14:09:07.185Z</time></trkpt><trkpt lat="44.0130994" lon="11.8295618"><ele>352.0</ele><time>2026-04-18T14:09:08.185Z</time></trkpt><trkpt lat="44.0129407" lon="11.8295573"><ele>351.0</ele><time>2026-04-18T14:09:09.185Z</time></trkpt><trkpt lat="44.0127986" lon="11.8295552"><ele>351.0</ele><time>2026-04-18T14:09:10.184Z</time></trkpt><trkpt lat="44.0126655" lon="11.8295493"><ele>351.0</ele><time>2026-04-18T14:09:11.184Z</time></trkpt><trkpt lat="44.0125361" lon="11.8295433"><ele>351.0</ele><time>2026-04-18T14:09:12.185Z</time></trkpt><trkpt lat="44.01242" lon="11.8295176"><ele>351.0</ele><time>2026-04-18T14:09:13.185Z</time></trkpt><trkpt lat="44.0123078" lon="11.8294521"><ele>350.75</ele><time>2026-04-18T14:09:14.185Z</time></trkpt><trkpt lat="44.0122105" lon="11.8293451"><ele>350.5</ele><time>2026-04-18T14:09:15.185Z</time></trkpt><trkpt lat="44.0121293" lon="11.8292006"><ele>350.25</ele><time>2026-04-18T14:09:16.185Z</time></trkpt><trkpt lat="44.012053" lon="11.8290218"><ele>350.0</ele><time>2026-04-18T14:09:17.185Z</time></trkpt><trkpt lat="44.0119762" lon="11.8288158"><ele>350.0</ele><time>2026-04-18T14:09:18.184Z</time></trkpt><trkpt lat="44.0118983" lon="11.8285967"><ele>350.0</ele><time>2026-04-18T14:09:19.185Z</time></trkpt><trkpt lat="44.0118258" lon="11.8283833"><ele>350.0</ele><time>2026-04-18T14:09:20.185Z</time></trkpt><trkpt lat="44.0117523" lon="11.8281594"><ele>350.6666666666667</ele><time>2026-04-18T14:09:21.185Z</time></trkpt><trkpt lat="44.0116787" lon="11.8279391"><ele>351.3333333333333</ele><time>2026-04-18T14:09:22.185Z</time></trkpt><trkpt lat="44.0116035" lon="11.8277192"><ele>352.0</ele><time>2026-04-18T14:09:23.185Z</time></trkpt><trkpt lat="44.0115319" lon="11.8274995"><ele>352.0</ele><time>2026-04-18T14:09:24.185Z</time></trkpt><trkpt lat="44.0114608" lon="11.8272842"><ele>352.0</ele><time>2026-04-18T14:09:25.185Z</time></trkpt><trkpt lat="44.0113889" lon="11.82707"><ele>352.0</ele><time>2026-04-18T14:09:26.185Z</time></trkpt><trkpt lat="44.0113158" lon="11.8268548"><ele>355.0</ele><time>2026-04-18T14:09:27.184Z</time></trkpt><trkpt lat="44.011238" lon="11.8266397"><ele>358.0</ele><time>2026-04-18T14:09:28.184Z</time></trkpt><trkpt lat="44.0111496" lon="11.8264259"><ele>361.0</ele><time>2026-04-18T14:09:29.185Z</time></trkpt><trkpt lat="44.0110515" lon="11.8262143"><ele>361.0</ele><time>2026-04-18T14:09:30.185Z</time></trkpt><trkpt lat="44.0109458" lon="11.8260065"><ele>361.0</ele><time>2026-04-18T14:09:31.185Z</time></trkpt><trkpt lat="44.0108339" lon="11.8258019"><ele>361.0</ele><time>2026-04-18T14:09:32.185Z</time></trkpt><trkpt lat="44.0107166" lon="11.8255933"><ele>360.0</ele><time>2026-04-18T14:09:33.185Z</time></trkpt><trkpt lat="44.0105958" lon="11.8253802"><ele>359.0</ele><time>2026-04-18T14:09:34.183Z</time></trkpt><trkpt lat="44.0104714" lon="11.8251699"><ele>358.0</ele><time>2026-04-18T14:09:35.184Z</time></trkpt><trkpt lat="44.0103437" lon="11.8249724"><ele>358.3333333333333</ele><time>2026-04-18T14:09:36.185Z</time></trkpt><trkpt lat="44.0102118" lon="11.8247899"><ele>358.6666666666667</ele><time>2026-04-18T14:09:37.184Z</time></trkpt><trkpt lat="44.0100797" lon="11.8246157"><ele>359.0</ele><time>2026-04-18T14:09:38.185Z</time></trkpt><trkpt lat="44.0099486" lon="11.8244484"><ele>361.6666666666667</ele><time>2026-04-18T14:09:39.185Z</time></trkpt><trkpt lat="44.0098194" lon="11.8242854"><ele>364.3333333333333</ele><time>2026-04-18T14:09:40.185Z</time></trkpt><trkpt lat="44.0096973" lon="11.8241316"><ele>367.0</ele><time>2026-04-18T14:09:41.185Z</time></trkpt><trkpt lat="44.0095701" lon="11.8239851"><ele>367.0</ele><time>2026-04-18T14:09:42.185Z</time></trkpt><trkpt lat="44.0094344" lon="11.8238583"><ele>367.0</ele><time>2026-04-18T14:09:43.185Z</time></trkpt><trkpt lat="44.009292" lon="11.8237454"><ele>367.0</ele><time>2026-04-18T14:09:44.183Z</time></trkpt><trkpt lat="44.0091603" lon="11.8236452"><ele>367.0</ele><time>2026-04-18T14:09:45.183Z</time></trkpt><trkpt lat="44.0090357" lon="11.8235504"><ele>367.0</ele><time>2026-04-18T14:09:46.185Z</time></trkpt><trkpt lat="44.0089211" lon="11.8234567"><ele>367.0</ele><time>2026-04-18T14:09:47.185Z</time></trkpt><trkpt lat="44.0088205" lon="11.8233352"><ele>367.0</ele><time>2026-04-18T14:09:48.184Z</time></trkpt><trkpt lat="44.0087262" lon="11.8231846"><ele>367.0</ele><time>2026-04-18T14:09:49.184Z</time></trkpt><trkpt lat="44.008622" lon="11.8230253"><ele>367.0</ele><time>2026-04-18T14:09:50.185Z</time></trkpt><trkpt lat="44.008494" lon="11.8228732"><ele>367.0</ele><time>2026-04-18T14:09:51.185Z</time></trkpt><trkpt lat="44.008352" lon="11.8227433"><ele>367.3333333333333</ele><time>2026-04-18T14:09:52.184Z</time></trkpt><trkpt lat="44.0082027" lon="11.8226385"><ele>367.6666666666667</ele><time>2026-04-18T14:09:53.185Z</time></trkpt><trkpt lat="44.008051" lon="11.8225573"><ele>368.0</ele><time>2026-04-18T14:09:54.185Z</time></trkpt><trkpt lat="44.0079111" lon="11.8224836"><ele>368.0</ele><time>2026-04-18T14:09:55.185Z</time></trkpt><trkpt lat="44.0077789" lon="11.8224027"><ele>368.0</ele><time>2026-04-18T14:09:56.184Z</time></trkpt><trkpt lat="44.0076579" lon="11.8222855"><ele>368.0</ele><time>2026-04-18T14:09:57.184Z</time></trkpt><trkpt lat="44.0075646" lon="11.8221292"><ele>368.0</ele><time>2026-04-18T14:09:58.185Z</time></trkpt><trkpt lat="44.0075026" lon="11.8219558"><ele>367.75</ele><time>2026-04-18T14:09:59.185Z</time></trkpt><trkpt lat="44.0074629" lon="11.8217848"><ele>367.5</ele><time>2026-04-18T14:10:00.185Z</time></trkpt><trkpt lat="44.0074081" lon="11.8216256"><ele>367.25</ele><time>2026-04-18T14:10:01.185Z</time></trkpt><trkpt lat="44.0073098" lon="11.821484"><ele>367.0</ele><time>2026-04-18T14:10:02.185Z</time></trkpt><trkpt lat="44.0071767" lon="11.8213561"><ele>367.0</ele><time>2026-04-18T14:10:03.185Z</time></trkpt><trkpt lat="44.0070146" lon="11.821226"><ele>367.0</ele><time>2026-04-18T14:10:04.185Z</time></trkpt><trkpt lat="44.0068397" lon="11.821087"><ele>367.0</ele><time>2026-04-18T14:10:05.184Z</time></trkpt><trkpt lat="44.0066609" lon="11.8209501"><ele>367.0</ele><time>2026-04-18T14:10:06.185Z</time></trkpt><trkpt lat="44.0064696" lon="11.8208136"><ele>367.0</ele><time>2026-04-18T14:10:07.185Z</time></trkpt><trkpt lat="44.0062814" lon="11.8206789"><ele>367.0</ele><time>2026-04-18T14:10:08.185Z</time></trkpt><trkpt lat="44.0061028" lon="11.8205571"><ele>367.0</ele><time>2026-04-18T14:10:09.185Z</time></trkpt><trkpt lat="44.0059363" lon="11.8204469"><ele>367.0</ele><time>2026-04-18T14:10:10.185Z</time></trkpt><trkpt lat="44.0057951" lon="11.8203409"><ele>367.0</ele><time>2026-04-18T14:10:11.184Z</time></trkpt><trkpt lat="44.0056811" lon="11.8202173"><ele>367.0</ele><time>2026-04-18T14:10:12.185Z</time></trkpt><trkpt lat="44.0055855" lon="11.8200526"><ele>367.0</ele><time>2026-04-18T14:10:13.184Z</time></trkpt><trkpt lat="44.0055022" lon="11.8198423"><ele>367.0</ele><time>2026-04-18T14:10:14.185Z</time></trkpt><trkpt lat="44.0054223" lon="11.8196097"><ele>367.0</ele><time>2026-04-18T14:10:15.185Z</time></trkpt><trkpt lat="44.0053452" lon="11.8193845"><ele>367.0</ele><time>2026-04-18T14:10:16.184Z</time></trkpt><trkpt lat="44.0052627" lon="11.8191541"><ele>367.0</ele><time>2026-04-18T14:10:17.184Z</time></trkpt><trkpt lat="44.0051685" lon="11.8189408"><ele>367.0</ele><time>2026-04-18T14:10:18.184Z</time></trkpt><trkpt lat="44.0050514" lon="11.8187419"><ele>367.0</ele><time>2026-04-18T14:10:19.185Z</time></trkpt><trkpt lat="44.0049236" lon="11.8185527"><ele>367.0</ele><time>2026-04-18T14:10:20.185Z</time></trkpt><trkpt lat="44.0047994" lon="11.8183845"><ele>369.66666666666663</ele><time>2026-04-18T14:10:21.184Z</time></trkpt><trkpt lat="44.0046608" lon="11.8182417"><ele>372.3333333333333</ele><time>2026-04-18T14:10:22.184Z</time></trkpt><trkpt lat="44.0044966" lon="11.8181252"><ele>375.0</ele><time>2026-04-18T14:10:23.185Z</time></trkpt><trkpt lat="44.0043231" lon="11.8180296"><ele>376.0</ele><time>2026-04-18T14:10:24.185Z</time></trkpt><trkpt lat="44.0041621" lon="11.8179576"><ele>377.0</ele><time>2026-04-18T14:10:25.185Z</time></trkpt><trkpt lat="44.0040159" lon="11.8179061"><ele>378.0</ele><time>2026-04-18T14:10:26.185Z</time></trkpt><trkpt lat="44.0038868" lon="11.8178528"><ele>378.0</ele><time>2026-04-18T14:10:27.185Z</time></trkpt><trkpt lat="44.0037717" lon="11.8177739"><ele>378.0</ele><time>2026-04-18T14:10:28.185Z</time></trkpt><trkpt lat="44.0036772" lon="11.8176607"><ele>378.0</ele><time>2026-04-18T14:10:29.185Z</time></trkpt><trkpt lat="44.003602" lon="11.8175183"><ele>378.0</ele><time>2026-04-18T14:10:30.185Z</time></trkpt><trkpt lat="44.0035506" lon="11.8173542"><ele>378.5</ele><time>2026-04-18T14:10:31.184Z</time></trkpt><trkpt lat="44.003526" lon="11.8171584"><ele>379.0</ele><time>2026-04-18T14:10:32.185Z</time></trkpt><trkpt lat="44.0035077" lon="11.8169447"><ele>379.5</ele><time>2026-04-18T14:10:33.185Z</time></trkpt><trkpt lat="44.0034816" lon="11.8167415"><ele>380.0</ele><time>2026-04-18T14:10:34.185Z</time></trkpt><trkpt lat="44.003438" lon="11.8165545"><ele>377.6666666666667</ele><time>2026-04-18T14:10:35.185Z</time></trkpt><trkpt lat="44.0033622" lon="11.8163837"><ele>375.3333333333333</ele><time>2026-04-18T14:10:36.184Z</time></trkpt><trkpt lat="44.0032534" lon="11.816232"><ele>373.0</ele><time>2026-04-18T14:10:37.184Z</time></trkpt><trkpt lat="44.0031302" lon="11.8160959"><ele>380.0</ele><time>2026-04-18T14:10:38.185Z</time></trkpt><trkpt lat="44.002995" lon="11.8159838"><ele>387.0</ele><time>2026-04-18T14:10:39.185Z</time></trkpt><trkpt lat="44.0028612" lon="11.8158806"><ele>394.0</ele><time>2026-04-18T14:10:40.185Z</time></trkpt><trkpt lat="44.0027252" lon="11.8157931"><ele>394.0</ele><time>2026-04-18T14:10:41.185Z</time></trkpt><trkpt lat="44.0025964" lon="11.8157104"><ele>394.0</ele><time>2026-04-18T14:10:42.185Z</time></trkpt><trkpt lat="44.0024846" lon="11.8156231"><ele>394.0</ele><time>2026-04-18T14:10:43.185Z</time></trkpt><trkpt lat="44.0023973" lon="11.815506"><ele>394.0</ele><time>2026-04-18T14:10:44.184Z</time></trkpt><trkpt lat="44.0023415" lon="11.8153499"><ele>391.25</ele><time>2026-04-18T14:10:45.185Z</time></trkpt><trkpt lat="44.0023077" lon="11.8151671"><ele>388.5</ele><time>2026-04-18T14:10:46.185Z</time></trkpt><trkpt lat="44.0022734" lon="11.8149645"><ele>385.75</ele><time>2026-04-18T14:10:47.184Z</time></trkpt><trkpt lat="44.0022323" lon="11.8147489"><ele>383.0</ele><time>2026-04-18T14:10:48.185Z</time></trkpt><trkpt lat="44.0021914" lon="11.8145301"><ele>386.0</ele><time>2026-04-18T14:10:49.185Z</time></trkpt><trkpt lat="44.0021487" lon="11.8142994"><ele>389.0</ele><time>2026-04-18T14:10:50.183Z</time></trkpt><trkpt lat="44.0021032" lon="11.8140656"><ele>392.0</ele><time>2026-04-18T14:10:51.185Z</time></trkpt><trkpt lat="44.0020554" lon="11.8138325"><ele>392.0</ele><time>2026-04-18T14:10:52.185Z</time></trkpt><trkpt lat="44.0020083" lon="11.8136059"><ele>392.0</ele><time>2026-04-18T14:10:53.185Z</time></trkpt><trkpt lat="44.0019645" lon="11.8133923"><ele>392.0</ele><time>2026-04-18T14:10:54.185Z</time></trkpt><trkpt lat="44.0019236" lon="11.8131888"><ele>392.25</ele><time>2026-04-18T14:10:55.185Z</time></trkpt><trkpt lat="44.0018812" lon="11.8129957"><ele>392.5</ele><time>2026-04-18T14:10:56.185Z</time></trkpt><trkpt lat="44.0018153" lon="11.8128223"><ele>392.75</ele><time>2026-04-18T14:10:57.185Z</time></trkpt><trkpt lat="44.0017074" lon="11.8126685"><ele>393.0</ele><time>2026-04-18T14:10:58.185Z</time></trkpt><trkpt lat="44.0015787" lon="11.8125636"><ele>393.0</ele><time>2026-04-18T14:10:59.185Z</time></trkpt><trkpt lat="44.0014495" lon="11.812482"><ele>393.0</ele><time>2026-04-18T14:11:00.185Z</time></trkpt><trkpt lat="44.0013295" lon="11.8124106"><ele>393.0</ele><time>2026-04-18T14:11:01.185Z</time></trkpt><trkpt lat="44.0012201" lon="11.8123259"><ele>393.0</ele><time>2026-04-18T14:11:02.185Z</time></trkpt><trkpt lat="44.0011363" lon="11.8122054"><ele>393.0</ele><time>2026-04-18T14:11:03.185Z</time></trkpt><trkpt lat="44.0010676" lon="11.8120403"><ele>393.0</ele><time>2026-04-18T14:11:04.185Z</time></trkpt><trkpt lat="44.001016" lon="11.8118299"><ele>393.0</ele><time>2026-04-18T14:11:05.184Z</time></trkpt><trkpt lat="44.0009676" lon="11.8115942"><ele>391.66666666666663</ele><time>2026-04-18T14:11:06.185Z</time></trkpt><trkpt lat="44.0009183" lon="11.811374"><ele>390.3333333333333</ele><time>2026-04-18T14:11:07.185Z</time></trkpt><trkpt lat="44.000864" lon="11.8111581"><ele>389.0</ele><time>2026-04-18T14:11:08.185Z</time></trkpt><trkpt lat="44.0007997" lon="11.8109653"><ele>389.0</ele><time>2026-04-18T14:11:09.185Z</time></trkpt><trkpt lat="44.000711" lon="11.8108011"><ele>389.0</ele><time>2026-04-18T14:11:10.185Z</time></trkpt><trkpt lat="44.0005996" lon="11.8106653"><ele>389.0</ele><time>2026-04-18T14:11:11.185Z</time></trkpt><trkpt lat="44.0004777" lon="11.8105728"><ele>389.0</ele><time>2026-04-18T14:11:12.185Z</time></trkpt><trkpt lat="44.0003496" lon="11.810515"><ele>389.0</ele><time>2026-04-18T14:11:13.183Z</time></trkpt><trkpt lat="44.0002192" lon="11.8104622"><ele>389.0</ele><time>2026-04-18T14:11:14.185Z</time></trkpt><trkpt lat="44.0001036" lon="11.8104104"><ele>389.0</ele><time>2026-04-18T14:11:15.185Z</time></trkpt><trkpt lat="44.0000046" lon="11.8103625"><ele>389.0</ele><time>2026-04-18T14:11:16.184Z</time></trkpt><trkpt lat="43.999907" lon="11.8103113"><ele>389.0</ele><time>2026-04-18T14:11:17.183Z</time></trkpt><trkpt lat="43.9998091" lon="11.8102447"><ele>389.0</ele><time>2026-04-18T14:11:18.185Z</time></trkpt><trkpt lat="43.9997155" lon="11.8101671"><ele>389.0</ele><time>2026-04-18T14:11:19.185Z</time></trkpt><trkpt lat="43.9996202" lon="11.8100735"><ele>389.0</ele><time>2026-04-18T14:11:20.185Z</time></trkpt><trkpt lat="43.9995255" lon="11.8099567"><ele>393.0</ele><time>2026-04-18T14:11:21.185Z</time></trkpt><trkpt lat="43.9994385" lon="11.809818"><ele>397.0</ele><time>2026-04-18T14:11:22.185Z</time></trkpt><trkpt lat="43.9993568" lon="11.8096544"><ele>401.0</ele><time>2026-04-18T14:11:23.185Z</time></trkpt><trkpt lat="43.9992784" lon="11.8094754"><ele>405.0</ele><time>2026-04-18T14:11:24.185Z</time></trkpt><trkpt lat="43.9992033" lon="11.8092857"><ele>402.66666666666663</ele><time>2026-04-18T14:11:25.185Z</time></trkpt><trkpt lat="43.9991319" lon="11.8090922"><ele>400.3333333333333</ele><time>2026-04-18T14:11:26.185Z</time></trkpt><trkpt lat="43.9990618" lon="11.8089017"><ele>398.0</ele><time>2026-04-18T14:11:27.185Z</time></trkpt><trkpt lat="43.9989881" lon="11.8087132"><ele>398.0</ele><time>2026-04-18T14:11:28.185Z</time></trkpt><trkpt lat="43.9988996" lon="11.8085316"><ele>398.0</ele><time>2026-04-18T14:11:29.185Z</time></trkpt><trkpt lat="43.9987951" lon="11.8083644"><ele>398.0</ele><time>2026-04-18T14:11:30.185Z</time></trkpt><trkpt lat="43.9986905" lon="11.8082127"><ele>400.75</ele><time>2026-04-18T14:11:31.185Z</time></trkpt><trkpt lat="43.9986027" lon="11.8080637"><ele>403.5</ele><time>2026-04-18T14:11:32.185Z</time></trkpt><trkpt lat="43.9985462" lon="11.8079021"><ele>406.25</ele><time>2026-04-18T14:11:33.185Z</time></trkpt><trkpt lat="43.9985136" lon="11.8077228"><ele>409.0</ele><time>2026-04-18T14:11:34.185Z</time></trkpt><trkpt lat="43.9984919" lon="11.8075353"><ele>412.0</ele><time>2026-04-18T14:11:35.185Z</time></trkpt><trkpt lat="43.998473" lon="11.8073617"><ele>415.0</ele><time>2026-04-18T14:11:36.185Z</time></trkpt><trkpt lat="43.998447" lon="11.8071873"><ele>418.0</ele><time>2026-04-18T14:11:37.185Z</time></trkpt><trkpt lat="43.9984029" lon="11.8070263"><ele>421.0</ele><time>2026-04-18T14:11:38.184Z</time></trkpt><trkpt lat="43.9983356" lon="11.8068917"><ele>417.0</ele><time>2026-04-18T14:11:39.185Z</time></trkpt><trkpt lat="43.9982468" lon="11.8067782"><ele>413.0</ele><time>2026-04-18T14:11:40.185Z</time></trkpt><trkpt lat="43.9981421" lon="11.806679"><ele>409.0</ele><time>2026-04-18T14:11:41.185Z</time></trkpt><trkpt lat="43.9980301" lon="11.8065801"><ele>405.0</ele><time>2026-04-18T14:11:42.185Z</time></trkpt><trkpt lat="43.9979151" lon="11.8064794"><ele>405.0</ele><time>2026-04-18T14:11:43.185Z</time></trkpt><trkpt lat="43.9978018" lon="11.8063754"><ele>405.0</ele><time>2026-04-18T14:11:44.185Z</time></trkpt><trkpt lat="43.9977067" lon="11.8062567"><ele>405.0</ele><time>2026-04-18T14:11:45.185Z</time></trkpt><trkpt lat="43.9976326" lon="11.8061206"><ele>405.0</ele><time>2026-04-18T14:11:46.185Z</time></trkpt><trkpt lat="43.9975715" lon="11.8059696"><ele>403.75</ele><time>2026-04-18T14:11:47.185Z</time></trkpt><trkpt lat="43.9975143" lon="11.8058053"><ele>402.5</ele><time>2026-04-18T14:11:48.185Z</time></trkpt><trkpt lat="43.9974552" lon="11.8056306"><ele>401.25</ele><time>2026-04-18T14:11:49.185Z</time></trkpt><trkpt lat="43.997392" lon="11.8054418"><ele>400.0</ele><time>2026-04-18T14:11:50.185Z</time></trkpt><trkpt lat="43.9973252" lon="11.8052506"><ele>402.6666666666667</ele><time>2026-04-18T14:11:51.185Z</time></trkpt><trkpt lat="43.997256" lon="11.8050569"><ele>405.33333333333337</ele><time>2026-04-18T14:11:52.185Z</time></trkpt><trkpt lat="43.9971845" lon="11.8048572"><ele>408.0</ele><time>2026-04-18T14:11:53.185Z</time></trkpt><trkpt lat="43.9971092" lon="11.8046573"><ele>408.0</ele><time>2026-04-18T14:11:54.184Z</time></trkpt><trkpt lat="43.9970272" lon="11.8044606"><ele>408.0</ele><time>2026-04-18T14:11:55.185Z</time></trkpt><trkpt lat="43.9969335" lon="11.8042724"><ele>408.0</ele><time>2026-04-18T14:11:56.184Z</time></trkpt><trkpt lat="43.9968273" lon="11.8040896"><ele>410.0</ele><time>2026-04-18T14:11:57.185Z</time></trkpt><trkpt lat="43.9967147" lon="11.8039092"><ele>412.0</ele><time>2026-04-18T14:11:58.185Z</time></trkpt><trkpt lat="43.9966038" lon="11.803734"><ele>414.0</ele><time>2026-04-18T14:11:59.185Z</time></trkpt><trkpt lat="43.9965004" lon="11.803569"><ele>413.5</ele><time>2026-04-18T14:12:00.185Z</time></trkpt><trkpt lat="43.9964048" lon="11.8034187"><ele>413.0</ele><time>2026-04-18T14:12:01.185Z</time></trkpt><trkpt lat="43.9963171" lon="11.8032792"><ele>412.5</ele><time>2026-04-18T14:12:02.185Z</time></trkpt><trkpt lat="43.9962373" lon="11.8031414"><ele>412.0</ele><time>2026-04-18T14:12:03.185Z</time></trkpt><trkpt lat="43.9961633" lon="11.8029756"><ele>412.0</ele><time>2026-04-18T14:12:04.185Z</time></trkpt><trkpt lat="43.9961005" lon="11.8027812"><ele>412.0</ele><time>2026-04-18T14:12:05.185Z</time></trkpt><trkpt lat="43.9960342" lon="11.8025885"><ele>412.0</ele><time>2026-04-18T14:12:06.185Z</time></trkpt><trkpt lat="43.9959456" lon="11.8024021"><ele>410.0</ele><time>2026-04-18T14:12:07.185Z</time></trkpt><trkpt lat="43.9958406" lon="11.8022138"><ele>408.0</ele><time>2026-04-18T14:12:08.185Z</time></trkpt><trkpt lat="43.9957343" lon="11.8020317"><ele>406.0</ele><time>2026-04-18T14:12:09.185Z</time></trkpt><trkpt lat="43.995629" lon="11.8018532"><ele>411.0</ele><time>2026-04-18T14:12:10.185Z</time></trkpt><trkpt lat="43.9955261" lon="11.801679"><ele>416.0</ele><time>2026-04-18T14:12:11.184Z</time></trkpt><trkpt lat="43.995428" lon="11.8015131"><ele>421.0</ele><time>2026-04-18T14:12:12.185Z</time></trkpt><trkpt lat="43.9953356" lon="11.8013544"><ele>421.0</ele><time>2026-04-18T14:12:13.184Z</time></trkpt><trkpt lat="43.9952409" lon="11.8011963"><ele>421.0</ele><time>2026-04-18T14:12:14.184Z</time></trkpt><trkpt lat="43.9951296" lon="11.8010492"><ele>421.0</ele><time>2026-04-18T14:12:15.185Z</time></trkpt><trkpt lat="43.9950012" lon="11.8009358"><ele>421.0</ele><time>2026-04-18T14:12:16.185Z</time></trkpt><trkpt lat="43.9948732" lon="11.8008558"><ele>421.0</ele><time>2026-04-18T14:12:17.185Z</time></trkpt><trkpt lat="43.9947515" lon="11.8007851"><ele>421.0</ele><time>2026-04-18T14:12:18.185Z</time></trkpt><trkpt lat="43.9946402" lon="11.800705"><ele>421.0</ele><time>2026-04-18T14:12:19.184Z</time></trkpt><trkpt lat="43.9945393" lon="11.8006002"><ele>421.0</ele><time>2026-04-18T14:12:20.185Z</time></trkpt><trkpt lat="43.9944546" lon="11.8004693"><ele>421.0</ele><time>2026-04-18T14:12:21.185Z</time></trkpt><trkpt lat="43.9943739" lon="11.8003131"><ele>421.0</ele><time>2026-04-18T14:12:22.185Z</time></trkpt><trkpt lat="43.9943006" lon="11.8001467"><ele>421.0</ele><time>2026-04-18T14:12:23.185Z</time></trkpt><trkpt lat="43.9942306" lon="11.7999749"><ele>422.0</ele><time>2026-04-18T14:12:24.185Z</time></trkpt><trkpt lat="43.9941607" lon="11.799807"><ele>423.0</ele><time>2026-04-18T14:12:25.185Z</time></trkpt><trkpt lat="43.9940967" lon="11.7996443"><ele>424.0</ele><time>2026-04-18T14:12:26.185Z</time></trkpt><trkpt lat="43.9940403" lon="11.7994695"><ele>425.0</ele><time>2026-04-18T14:12:27.185Z</time></trkpt><trkpt lat="43.9939998" lon="11.7992843"><ele>427.75</ele><time>2026-04-18T14:12:28.185Z</time></trkpt><trkpt lat="43.9939762" lon="11.7990985"><ele>430.5</ele><time>2026-04-18T14:12:29.185Z</time></trkpt><trkpt lat="43.993957" lon="11.7989001"><ele>433.25</ele><time>2026-04-18T14:12:30.185Z</time></trkpt><trkpt lat="43.9939345" lon="11.7986977"><ele>436.0</ele><time>2026-04-18T14:12:31.185Z</time></trkpt><trkpt lat="43.9939118" lon="11.7984988"><ele>437.25</ele><time>2026-04-18T14:12:32.185Z</time></trkpt><trkpt lat="43.9938881" lon="11.7983136"><ele>438.5</ele><time>2026-04-18T14:12:33.185Z</time></trkpt><trkpt lat="43.9938575" lon="11.7981347"><ele>439.75</ele><time>2026-04-18T14:12:34.184Z</time></trkpt><trkpt lat="43.9938091" lon="11.797975"><ele>441.0</ele><time>2026-04-18T14:12:35.185Z</time></trkpt><trkpt lat="43.9937373" lon="11.7978371"><ele>441.0</ele><time>2026-04-18T14:12:36.185Z</time></trkpt><trkpt lat="43.9936431" lon="11.7977289"><ele>441.0</ele><time>2026-04-18T14:12:37.185Z</time></trkpt><trkpt lat="43.9935349" lon="11.7976431"><ele>441.0</ele><time>2026-04-18T14:12:38.185Z</time></trkpt><trkpt lat="43.9934241" lon="11.7975792"><ele>441.0</ele><time>2026-04-18T14:12:39.185Z</time></trkpt><trkpt lat="43.993321" lon="11.7975199"><ele>438.25</ele><time>2026-04-18T14:12:40.185Z</time></trkpt><trkpt lat="43.9932211" lon="11.797445"><ele>435.5</ele><time>2026-04-18T14:12:41.184Z</time></trkpt><trkpt lat="43.9931308" lon="11.7973405"><ele>432.75</ele><time>2026-04-18T14:12:42.185Z</time></trkpt><trkpt lat="43.9930481" lon="11.7972128"><ele>430.0</ele><time>2026-04-18T14:12:43.185Z</time></trkpt><trkpt lat="43.9929756" lon="11.7970672"><ele>430.0</ele><time>2026-04-18T14:12:44.185Z</time></trkpt><trkpt lat="43.9929068" lon="11.7969071"><ele>430.0</ele><time>2026-04-18T14:12:45.185Z</time></trkpt><trkpt lat="43.9928469" lon="11.7967299"><ele>430.0</ele><time>2026-04-18T14:12:46.185Z</time></trkpt><trkpt lat="43.9927951" lon="11.7965476"><ele>430.0</ele><time>2026-04-18T14:12:47.185Z</time></trkpt><trkpt lat="43.9927544" lon="11.7963732"><ele>433.25</ele><time>2026-04-18T14:12:48.185Z</time></trkpt><trkpt lat="43.9927229" lon="11.7961944"><ele>436.5</ele><time>2026-04-18T14:12:49.185Z</time></trkpt><trkpt lat="43.9927073" lon="11.7960191"><ele>439.75</ele><time>2026-04-18T14:12:50.185Z</time></trkpt><trkpt lat="43.9926929" lon="11.7958496"><ele>443.0</ele><time>2026-04-18T14:12:51.185Z</time></trkpt><trkpt lat="43.9926543" lon="11.795683"><ele>443.5</ele><time>2026-04-18T14:12:52.185Z</time></trkpt><trkpt lat="43.9925908" lon="11.7955287"><ele>444.0</ele><time>2026-04-18T14:12:53.185Z</time></trkpt><trkpt lat="43.9924996" lon="11.7954037"><ele>444.5</ele><time>2026-04-18T14:12:54.185Z</time></trkpt><trkpt lat="43.9923791" lon="11.7952829"><ele>445.0</ele><time>2026-04-18T14:12:55.185Z</time></trkpt><trkpt lat="43.9922343" lon="11.7951692"><ele>445.0</ele><time>2026-04-18T14:12:56.185Z</time></trkpt><trkpt lat="43.9920986" lon="11.7950717"><ele>445.0</ele><time>2026-04-18T14:12:57.185Z</time></trkpt><trkpt lat="43.991968" lon="11.7949708"><ele>445.0</ele><time>2026-04-18T14:12:58.184Z</time></trkpt><trkpt lat="43.991835" lon="11.79487"><ele>445.0</ele><time>2026-04-18T14:12:59.185Z</time></trkpt><trkpt lat="43.9916966" lon="11.794762"><ele>445.0</ele><time>2026-04-18T14:13:00.185Z</time></trkpt><trkpt lat="43.9915717" lon="11.794664"><ele>445.0</ele><time>2026-04-18T14:13:01.185Z</time></trkpt><trkpt lat="43.9914578" lon="11.7945682"><ele>445.0</ele><time>2026-04-18T14:13:02.185Z</time></trkpt><trkpt lat="43.9913523" lon="11.7944595"><ele>445.75</ele><time>2026-04-18T14:13:03.185Z</time></trkpt><trkpt lat="43.9912653" lon="11.794336"><ele>446.5</ele><time>2026-04-18T14:13:04.185Z</time></trkpt><trkpt lat="43.9911946" lon="11.7941909"><ele>447.25</ele><time>2026-04-18T14:13:05.185Z</time></trkpt><trkpt lat="43.9911406" lon="11.7940311"><ele>448.0</ele><time>2026-04-18T14:13:06.185Z</time></trkpt><trkpt lat="43.9910823" lon="11.793891"><ele>448.0</ele><time>2026-04-18T14:13:07.185Z</time></trkpt><trkpt lat="43.9910093" lon="11.7937751"><ele>448.0</ele><time>2026-04-18T14:13:08.184Z</time></trkpt><trkpt lat="43.9909262" lon="11.7936856"><ele>448.0</ele><time>2026-04-18T14:13:09.185Z</time></trkpt><trkpt lat="43.9908182" lon="11.7936505"><ele>448.0</ele><time>2026-04-18T14:13:10.183Z</time></trkpt><trkpt lat="43.9906757" lon="11.7936701"><ele>439.0</ele><time>2026-04-18T14:13:11.185Z</time></trkpt><trkpt lat="43.9905041" lon="11.7937142"><ele>430.0</ele><time>2026-04-18T14:13:12.185Z</time></trkpt><trkpt lat="43.9903464" lon="11.7937391"><ele>421.0</ele><time>2026-04-18T14:13:13.185Z</time></trkpt><trkpt lat="43.9902015" lon="11.7937048"><ele>421.0</ele><time>2026-04-18T14:13:14.185Z</time></trkpt><trkpt lat="43.9900643" lon="11.7936118"><ele>421.0</ele><time>2026-04-18T14:13:15.185Z</time></trkpt><trkpt lat="43.989952" lon="11.7934681"><ele>421.0</ele><time>2026-04-18T14:13:16.185Z</time></trkpt><trkpt lat="43.9898277" lon="11.79333"><ele>425.33333333333337</ele><time>2026-04-18T14:13:17.185Z</time></trkpt><trkpt lat="43.9896719" lon="11.7932358"><ele>429.66666666666663</ele><time>2026-04-18T14:13:18.185Z</time></trkpt><trkpt lat="43.9894985" lon="11.793175"><ele>434.0</ele><time>2026-04-18T14:13:19.184Z</time></trkpt><trkpt lat="43.989333" lon="11.7931303"><ele>434.0</ele><time>2026-04-18T14:13:20.185Z</time></trkpt><trkpt lat="43.9891856" lon="11.7930686"><ele>434.0</ele><time>2026-04-18T14:13:21.185Z</time></trkpt><trkpt lat="43.9890485" lon="11.79295"><ele>434.0</ele><time>2026-04-18T14:13:22.185Z</time></trkpt><trkpt lat="43.9889145" lon="11.7927734"><ele>434.3333333333333</ele><time>2026-04-18T14:13:23.184Z</time></trkpt><trkpt lat="43.9887746" lon="11.7925558"><ele>434.66666666666663</ele><time>2026-04-18T14:13:24.184Z</time></trkpt><trkpt lat="43.9886325" lon="11.7923273"><ele>435.0</ele><time>2026-04-18T14:13:25.185Z</time></trkpt><trkpt lat="43.9884779" lon="11.7920825"><ele>434.5</ele><time>2026-04-18T14:13:26.185Z</time></trkpt><trkpt lat="43.9883194" lon="11.7918466"><ele>434.0</ele><time>2026-04-18T14:13:27.184Z</time></trkpt><trkpt lat="43.9881434" lon="11.7916269"><ele>434.0</ele><time>2026-04-18T14:13:28.185Z</time></trkpt><trkpt lat="43.9879429" lon="11.7914281"><ele>434.0</ele><time>2026-04-18T14:13:29.185Z</time></trkpt><trkpt lat="43.9877595" lon="11.7912548"><ele>434.0</ele><time>2026-04-18T14:13:30.185Z</time></trkpt><trkpt lat="43.9875969" lon="11.7911027"><ele>434.0</ele><time>2026-04-18T14:13:31.185Z</time></trkpt><trkpt lat="43.9874599" lon="11.7909575"><ele>434.0</ele><time>2026-04-18T14:13:32.185Z</time></trkpt><trkpt lat="43.9873581" lon="11.7908057"><ele>433.66666666666663</ele><time>2026-04-18T14:13:33.185Z</time></trkpt><trkpt lat="43.9872863" lon="11.790617"><ele>433.33333333333337</ele><time>2026-04-18T14:13:34.185Z</time></trkpt><trkpt lat="43.9872414" lon="11.7903992"><ele>433.0</ele><time>2026-04-18T14:13:35.185Z</time></trkpt><trkpt lat="43.9872098" lon="11.7901509"><ele>433.0</ele><time>2026-04-18T14:13:36.185Z</time></trkpt><trkpt lat="43.9871753" lon="11.789892"><ele>433.0</ele><time>2026-04-18T14:13:37.185Z</time></trkpt><trkpt lat="43.9871385" lon="11.7896358"><ele>433.0</ele><time>2026-04-18T14:13:38.185Z</time></trkpt><trkpt lat="43.9871016" lon="11.7893713"><ele>434.6666666666667</ele><time>2026-04-18T14:13:39.184Z</time></trkpt><trkpt lat="43.9870662" lon="11.7891149"><ele>436.33333333333337</ele><time>2026-04-18T14:13:40.185Z</time></trkpt><trkpt lat="43.9870355" lon="11.7888704"><ele>438.0</ele><time>2026-04-18T14:13:41.185Z</time></trkpt><trkpt lat="43.9870041" lon="11.7886273"><ele>441.33333333333337</ele><time>2026-04-18T14:13:42.185Z</time></trkpt><trkpt lat="43.9869733" lon="11.7883935"><ele>444.6666666666667</ele><time>2026-04-18T14:13:43.185Z</time></trkpt><trkpt lat="43.9869446" lon="11.7881723"><ele>448.0</ele><time>2026-04-18T14:13:44.185Z</time></trkpt><trkpt lat="43.986915" lon="11.7879621"><ele>448.0</ele><time>2026-04-18T14:13:45.185Z</time></trkpt><trkpt lat="43.9868786" lon="11.7877595"><ele>448.0</ele><time>2026-04-18T14:13:46.185Z</time></trkpt><trkpt lat="43.9868249" lon="11.7875568"><ele>448.0</ele><time>2026-04-18T14:13:47.184Z</time></trkpt><trkpt lat="43.9867537" lon="11.7873613"><ele>447.0</ele><time>2026-04-18T14:13:48.185Z</time></trkpt><trkpt lat="43.9866701" lon="11.78718"><ele>446.0</ele><time>2026-04-18T14:13:49.185Z</time></trkpt><trkpt lat="43.9865773" lon="11.787009"><ele>445.0</ele><time>2026-04-18T14:13:50.185Z</time></trkpt><trkpt lat="43.9864842" lon="11.7868387"><ele>445.0</ele><time>2026-04-18T14:13:51.185Z</time></trkpt><trkpt lat="43.9863917" lon="11.7866724"><ele>445.0</ele><time>2026-04-18T14:13:52.185Z</time></trkpt><trkpt lat="43.9862914" lon="11.7865143"><ele>445.0</ele><time>2026-04-18T14:13:53.185Z</time></trkpt><trkpt lat="43.9861805" lon="11.7863656"><ele>445.0</ele><time>2026-04-18T14:13:54.185Z</time></trkpt><trkpt lat="43.9860617" lon="11.7862262"><ele>445.0</ele><time>2026-04-18T14:13:55.185Z</time></trkpt><trkpt lat="43.985937" lon="11.7861028"><ele>445.0</ele><time>2026-04-18T14:13:56.184Z</time></trkpt><trkpt lat="43.9858187" lon="11.7859993"><ele>445.0</ele><time>2026-04-18T14:13:57.184Z</time></trkpt><trkpt lat="43.9857051" lon="11.785902"><ele>442.75</ele><time>2026-04-18T14:13:58.185Z</time></trkpt><trkpt lat="43.9855925" lon="11.7858039"><ele>440.5</ele><time>2026-04-18T14:13:59.185Z</time></trkpt><trkpt lat="43.9854765" lon="11.7857048"><ele>438.25</ele><time>2026-04-18T14:14:00.185Z</time></trkpt><trkpt lat="43.9853575" lon="11.7856097"><ele>436.0</ele><time>2026-04-18T14:14:01.185Z</time></trkpt><trkpt lat="43.9852293" lon="11.7855347"><ele>436.0</ele><time>2026-04-18T14:14:02.185Z</time></trkpt><trkpt lat="43.9850872" lon="11.7854903"><ele>436.0</ele><time>2026-04-18T14:14:03.185Z</time></trkpt><trkpt lat="43.984935" lon="11.7854697"><ele>436.0</ele><time>2026-04-18T14:14:04.185Z</time></trkpt><trkpt lat="43.984778" lon="11.7854584"><ele>432.33333333333337</ele><time>2026-04-18T14:14:05.185Z</time></trkpt><trkpt lat="43.984622" lon="11.7854447"><ele>428.66666666666663</ele><time>2026-04-18T14:14:06.185Z</time></trkpt><trkpt lat="43.9844692" lon="11.7854317"><ele>425.0</ele><time>2026-04-18T14:14:07.184Z</time></trkpt><trkpt lat="43.9843205" lon="11.7854215"><ele>424.75</ele><time>2026-04-18T14:14:08.185Z</time></trkpt><trkpt lat="43.9841745" lon="11.7854148"><ele>424.5</ele><time>2026-04-18T14:14:09.184Z</time></trkpt><trkpt lat="43.9840287" lon="11.7854097"><ele>424.25</ele><time>2026-04-18T14:14:10.185Z</time></trkpt><trkpt lat="43.9838814" lon="11.7854026"><ele>424.0</ele><time>2026-04-18T14:14:11.185Z</time></trkpt><trkpt lat="43.9837343" lon="11.7853869"><ele>424.0</ele><time>2026-04-18T14:14:12.184Z</time></trkpt><trkpt lat="43.9835855" lon="11.7853586"><ele>424.0</ele><time>2026-04-18T14:14:13.185Z</time></trkpt><trkpt lat="43.9834346" lon="11.7853169"><ele>424.0</ele><time>2026-04-18T14:14:14.185Z</time></trkpt><trkpt lat="43.9832787" lon="11.7852516"><ele>431.33333333333337</ele><time>2026-04-18T14:14:15.185Z</time></trkpt><trkpt lat="43.9831172" lon="11.7851621"><ele>438.66666666666663</ele><time>2026-04-18T14:14:16.185Z</time></trkpt><trkpt lat="43.9829523" lon="11.7850545"><ele>446.0</ele><time>2026-04-18T14:14:17.185Z</time></trkpt><trkpt lat="43.9827907" lon="11.7849399"><ele>446.0</ele><time>2026-04-18T14:14:18.184Z</time></trkpt><trkpt lat="43.9826339" lon="11.7848305"><ele>446.0</ele><time>2026-04-18T14:14:19.185Z</time></trkpt><trkpt lat="43.9824849" lon="11.7847249"><ele>446.0</ele><time>2026-04-18T14:14:20.185Z</time></trkpt><trkpt lat="43.9823499" lon="11.7846289"><ele>444.4</ele><time>2026-04-18T14:14:21.185Z</time></trkpt><trkpt lat="43.982227" lon="11.784543"><ele>442.8</ele><time>2026-04-18T14:14:22.185Z</time></trkpt><trkpt lat="43.9821206" lon="11.7844676"><ele>441.19999999999993</ele><time>2026-04-18T14:14:23.185Z</time></trkpt><trkpt lat="43.982028" lon="11.7844027"><ele>439.59999999999997</ele><time>2026-04-18T14:14:24.185Z</time></trkpt><trkpt lat="43.9819596" lon="11.7843535"><ele>438.0</ele><time>2026-04-18T14:14:25.185Z</time></trkpt><trkpt lat="43.9818964" lon="11.7842954"><ele>438.8333333333333</ele><time>2026-04-18T14:14:27.185Z</time></trkpt><trkpt lat="43.9818677" lon="11.7842118"><ele>439.66666666666663</ele><time>2026-04-18T14:14:29.185Z</time></trkpt><trkpt lat="43.9818206" lon="11.7841063"><ele>440.5</ele><time>2026-04-18T14:14:31.185Z</time></trkpt><trkpt lat="43.9817414" lon="11.7840526"><ele>441.3333333333333</ele><time>2026-04-18T14:23:20.185Z</time></trkpt><trkpt lat="43.9816727" lon="11.7840568"><ele>442.16666666666663</ele><time>2026-04-18T14:23:23.185Z</time></trkpt><trkpt lat="43.981586" lon="11.7840603"><ele>443.0</ele><time>2026-04-18T14:24:05.184Z</time></trkpt><trkpt lat="43.9815214" lon="11.7840305"><ele>443.0</ele><time>2026-04-18T14:24:06.185Z</time></trkpt><trkpt lat="43.9814445" lon="11.7839816"><ele>442.99999999999994</ele><time>2026-04-18T14:24:07.184Z</time></trkpt><trkpt lat="43.9813708" lon="11.7839319"><ele>442.99999999999994</ele><time>2026-04-18T14:24:08.185Z</time></trkpt><trkpt lat="43.9812725" lon="11.7838629"><ele>443.0</ele><time>2026-04-18T14:24:09.184Z</time></trkpt><trkpt lat="43.9811732" lon="11.7837955"><ele>443.0</ele><time>2026-04-18T14:24:10.185Z</time></trkpt><trkpt lat="43.9810676" lon="11.7837174"><ele>443.0</ele><time>2026-04-18T14:24:11.185Z</time></trkpt><trkpt lat="43.9809544" lon="11.7836378"><ele>443.0</ele><time>2026-04-18T14:24:12.185Z</time></trkpt><trkpt lat="43.9808379" lon="11.7835564"><ele>443.0</ele><time>2026-04-18T14:24:13.185Z</time></trkpt><trkpt lat="43.9807231" lon="11.7834791"><ele>443.0</ele><time>2026-04-18T14:24:14.185Z</time></trkpt><trkpt lat="43.9806083" lon="11.7834003"><ele>447.0</ele><time>2026-04-18T14:24:15.185Z</time></trkpt><trkpt lat="43.9804964" lon="11.783318"><ele>451.0</ele><time>2026-04-18T14:24:16.184Z</time></trkpt><trkpt lat="43.9803924" lon="11.7832302"><ele>455.0</ele><time>2026-04-18T14:24:17.185Z</time></trkpt><trkpt lat="43.980296" lon="11.7831274"><ele>459.0</ele><time>2026-04-18T14:24:18.184Z</time></trkpt><trkpt lat="43.9802097" lon="11.783008"><ele>459.0</ele><time>2026-04-18T14:24:19.185Z</time></trkpt><trkpt lat="43.9801323" lon="11.7828706"><ele>459.0</ele><time>2026-04-18T14:24:20.185Z</time></trkpt><trkpt lat="43.9800628" lon="11.7827136"><ele>459.0</ele><time>2026-04-18T14:24:21.185Z</time></trkpt><trkpt lat="43.9800002" lon="11.7825483"><ele>459.0</ele><time>2026-04-18T14:24:22.185Z</time></trkpt><trkpt lat="43.9799504" lon="11.7823918"><ele>456.25</ele><time>2026-04-18T14:24:23.184Z</time></trkpt><trkpt lat="43.9799223" lon="11.7822382"><ele>453.5</ele><time>2026-04-18T14:24:24.185Z</time></trkpt><trkpt lat="43.9799144" lon="11.7820803"><ele>450.75</ele><time>2026-04-18T14:24:25.185Z</time></trkpt><trkpt lat="43.9799295" lon="11.7819254"><ele>448.0</ele><time>2026-04-18T14:24:26.185Z</time></trkpt><trkpt lat="43.9799691" lon="11.7817739"><ele>455.0</ele><time>2026-04-18T14:24:27.184Z</time></trkpt><trkpt lat="43.9800223" lon="11.7816229"><ele>462.0</ele><time>2026-04-18T14:24:28.184Z</time></trkpt><trkpt lat="43.980076" lon="11.7814731"><ele>469.0</ele><time>2026-04-18T14:24:29.185Z</time></trkpt><trkpt lat="43.9801218" lon="11.7813205"><ele>476.0</ele><time>2026-04-18T14:24:30.185Z</time></trkpt><trkpt lat="43.9801605" lon="11.7811675"><ele>478.5</ele><time>2026-04-18T14:24:31.185Z</time></trkpt><trkpt lat="43.9801767" lon="11.7810077"><ele>481.0</ele><time>2026-04-18T14:24:32.185Z</time></trkpt><trkpt lat="43.980164" lon="11.7808245"><ele>483.5</ele><time>2026-04-18T14:24:33.185Z</time></trkpt><trkpt lat="43.9801229" lon="11.7806251"><ele>486.0</ele><time>2026-04-18T14:24:34.184Z</time></trkpt><trkpt lat="43.980072" lon="11.7804314"><ele>477.5</ele><time>2026-04-18T14:24:35.185Z</time></trkpt><trkpt lat="43.980016" lon="11.7802424"><ele>469.0</ele><time>2026-04-18T14:24:36.185Z</time></trkpt><trkpt lat="43.979951" lon="11.7800567"><ele>460.5</ele><time>2026-04-18T14:24:37.184Z</time></trkpt><trkpt lat="43.9798775" lon="11.7798777"><ele>452.0</ele><time>2026-04-18T14:24:38.185Z</time></trkpt><trkpt lat="43.9797945" lon="11.77972"><ele>452.0</ele><time>2026-04-18T14:24:39.185Z</time></trkpt><trkpt lat="43.9796994" lon="11.7795771"><ele>452.0</ele><time>2026-04-18T14:24:40.185Z</time></trkpt><trkpt lat="43.9795914" lon="11.7794508"><ele>452.0</ele><time>2026-04-18T14:24:41.185Z</time></trkpt><trkpt lat="43.9794719" lon="11.7793464"><ele>452.0</ele><time>2026-04-18T14:24:42.185Z</time></trkpt><trkpt lat="43.9793436" lon="11.7792432"><ele>451.66666666666663</ele><time>2026-04-18T14:24:43.185Z</time></trkpt><trkpt lat="43.97921" lon="11.7791432"><ele>451.33333333333337</ele><time>2026-04-18T14:24:44.184Z</time></trkpt><trkpt lat="43.9790727" lon="11.7790443"><ele>451.0</ele><time>2026-04-18T14:24:45.185Z</time></trkpt><trkpt lat="43.9789422" lon="11.7789462"><ele>451.0</ele><time>2026-04-18T14:24:46.185Z</time></trkpt><trkpt lat="43.9788207" lon="11.7788541"><ele>451.0</ele><time>2026-04-18T14:24:47.184Z</time></trkpt><trkpt lat="43.9787138" lon="11.7787558"><ele>451.0</ele><time>2026-04-18T14:24:48.185Z</time></trkpt><trkpt lat="43.9786364" lon="11.7786417"><ele>451.0</ele><time>2026-04-18T14:24:49.185Z</time></trkpt><trkpt lat="43.9785822" lon="11.7785125"><ele>454.5</ele><time>2026-04-18T14:24:50.185Z</time></trkpt><trkpt lat="43.9785483" lon="11.7783612"><ele>458.0</ele><time>2026-04-18T14:24:51.185Z</time></trkpt><trkpt lat="43.9785221" lon="11.7781949"><ele>461.5</ele><time>2026-04-18T14:24:52.185Z</time></trkpt><trkpt lat="43.9784973" lon="11.7780107"><ele>465.0</ele><time>2026-04-18T14:24:53.185Z</time></trkpt><trkpt lat="43.9784714" lon="11.7778194"><ele>468.0</ele><time>2026-04-18T14:24:54.185Z</time></trkpt><trkpt lat="43.9784452" lon="11.7776316"><ele>471.0</ele><time>2026-04-18T14:24:55.185Z</time></trkpt><trkpt lat="43.9784209" lon="11.777442"><ele>474.0</ele><time>2026-04-18T14:24:56.185Z</time></trkpt><trkpt lat="43.9783945" lon="11.7772578"><ele>477.0</ele><time>2026-04-18T14:24:57.185Z</time></trkpt><trkpt lat="43.9783701" lon="11.7770698"><ele>473.25</ele><time>2026-04-18T14:24:58.185Z</time></trkpt><trkpt lat="43.978345" lon="11.7768784"><ele>469.5</ele><time>2026-04-18T14:24:59.184Z</time></trkpt><trkpt lat="43.9783166" lon="11.7766777"><ele>465.75</ele><time>2026-04-18T14:25:00.185Z</time></trkpt><trkpt lat="43.9782864" lon="11.7764774"><ele>462.0</ele><time>2026-04-18T14:25:01.183Z</time></trkpt><trkpt lat="43.9782555" lon="11.776281"><ele>462.0</ele><time>2026-04-18T14:25:02.185Z</time></trkpt><trkpt lat="43.9782125" lon="11.7760914"><ele>462.0</ele><time>2026-04-18T14:25:03.185Z</time></trkpt><trkpt lat="43.9781429" lon="11.7759236"><ele>462.0</ele><time>2026-04-18T14:25:04.185Z</time></trkpt><trkpt lat="43.9780648" lon="11.7757659"><ele>462.0</ele><time>2026-04-18T14:25:05.185Z</time></trkpt><trkpt lat="43.9779773" lon="11.7756292"><ele>468.25</ele><time>2026-04-18T14:25:06.185Z</time></trkpt><trkpt lat="43.9778858" lon="11.7754992"><ele>474.5</ele><time>2026-04-18T14:25:07.185Z</time></trkpt><trkpt lat="43.9777927" lon="11.7753825"><ele>480.75</ele><time>2026-04-18T14:25:08.185Z</time></trkpt><trkpt lat="43.9776923" lon="11.7752777"><ele>487.0</ele><time>2026-04-18T14:25:09.185Z</time></trkpt><trkpt lat="43.9775807" lon="11.7751854"><ele>490.0</ele><time>2026-04-18T14:25:10.185Z</time></trkpt><trkpt lat="43.9774599" lon="11.7751213"><ele>493.0</ele><time>2026-04-18T14:25:11.184Z</time></trkpt><trkpt lat="43.9773389" lon="11.7750737"><ele>496.0</ele><time>2026-04-18T14:25:12.185Z</time></trkpt><trkpt lat="43.9772161" lon="11.7750373"><ele>499.0</ele><time>2026-04-18T14:25:13.185Z</time></trkpt><trkpt lat="43.9770948" lon="11.7750126"><ele>499.0</ele><time>2026-04-18T14:25:14.185Z</time></trkpt><trkpt lat="43.9769739" lon="11.7749886"><ele>499.0</ele><time>2026-04-18T14:25:15.185Z</time></trkpt><trkpt lat="43.9768514" lon="11.7749645"><ele>499.0</ele><time>2026-04-18T14:25:16.185Z</time></trkpt><trkpt lat="43.9767292" lon="11.7749432"><ele>499.0</ele><time>2026-04-18T14:25:17.185Z</time></trkpt><trkpt lat="43.9766041" lon="11.7749392"><ele>494.75</ele><time>2026-04-18T14:25:18.185Z</time></trkpt><trkpt lat="43.9764782" lon="11.7749559"><ele>490.5</ele><time>2026-04-18T14:25:19.185Z</time></trkpt><trkpt lat="43.9763603" lon="11.774997"><ele>486.25</ele><time>2026-04-18T14:25:20.184Z</time></trkpt><trkpt lat="43.9762456" lon="11.7750449"><ele>482.0</ele><time>2026-04-18T14:25:21.185Z</time></trkpt><trkpt lat="43.9761431" lon="11.7750998"><ele>482.0</ele><time>2026-04-18T14:25:22.185Z</time></trkpt><trkpt lat="43.9760453" lon="11.7751499"><ele>482.00000000000006</ele><time>2026-04-18T14:25:23.185Z</time></trkpt><trkpt lat="43.9759437" lon="11.7751679"><ele>482.00000000000006</ele><time>2026-04-18T14:25:24.185Z</time></trkpt><trkpt lat="43.9758413" lon="11.7751472"><ele>482.0</ele><time>2026-04-18T14:25:25.185Z</time></trkpt><trkpt lat="43.9757375" lon="11.7750888"><ele>482.0</ele><time>2026-04-18T14:25:26.185Z</time></trkpt><trkpt lat="43.9756308" lon="11.7750212"><ele>481.6</ele><time>2026-04-18T14:25:27.185Z</time></trkpt><trkpt lat="43.975539" lon="11.7749107"><ele>481.20000000000005</ele><time>2026-04-18T14:25:28.184Z</time></trkpt><trkpt lat="43.975454" lon="11.7748108"><ele>480.8</ele><time>2026-04-18T14:25:29.185Z</time></trkpt><trkpt lat="43.9753853" lon="11.7747025"><ele>480.4</ele><time>2026-04-18T14:25:30.185Z</time></trkpt><trkpt lat="43.9753348" lon="11.7745701"><ele>480.0</ele><time>2026-04-18T14:25:31.184Z</time></trkpt><trkpt lat="43.9753089" lon="11.77442"><ele>484.25</ele><time>2026-04-18T14:25:32.184Z</time></trkpt><trkpt lat="43.9753069" lon="11.7742509"><ele>488.5</ele><time>2026-04-18T14:25:33.185Z</time></trkpt><trkpt lat="43.9753065" lon="11.7740697"><ele>492.75</ele><time>2026-04-18T14:25:34.185Z</time></trkpt><trkpt lat="43.9752916" lon="11.7738725"><ele>497.0</ele><time>2026-04-18T14:25:35.185Z</time></trkpt><trkpt lat="43.9752551" lon="11.7736712"><ele>498.25</ele><time>2026-04-18T14:25:36.184Z</time></trkpt><trkpt lat="43.9752047" lon="11.773488"><ele>499.5</ele><time>2026-04-18T14:25:37.185Z</time></trkpt><trkpt lat="43.9751651" lon="11.7733046"><ele>500.75</ele><time>2026-04-18T14:25:38.185Z</time></trkpt><trkpt lat="43.9751503" lon="11.7731155"><ele>502.0</ele><time>2026-04-18T14:25:39.185Z</time></trkpt><trkpt lat="43.9751617" lon="11.7729218"><ele>502.0</ele><time>2026-04-18T14:25:40.185Z</time></trkpt><trkpt lat="43.9751977" lon="11.7727399"><ele>502.0</ele><time>2026-04-18T14:25:41.185Z</time></trkpt><trkpt lat="43.9752549" lon="11.7725531"><ele>502.0</ele><time>2026-04-18T14:25:42.184Z</time></trkpt><trkpt lat="43.9753297" lon="11.7723627"><ele>502.0</ele><time>2026-04-18T14:25:43.185Z</time></trkpt><trkpt lat="43.975408" lon="11.7721774"><ele>501.25</ele><time>2026-04-18T14:25:44.185Z</time></trkpt><trkpt lat="43.9754894" lon="11.7720011"><ele>500.5</ele><time>2026-04-18T14:25:45.184Z</time></trkpt><trkpt lat="43.9755712" lon="11.7718217"><ele>499.75</ele><time>2026-04-18T14:25:46.184Z</time></trkpt><trkpt lat="43.9756457" lon="11.7716658"><ele>499.0</ele><time>2026-04-18T14:25:47.184Z</time></trkpt><trkpt lat="43.9757131" lon="11.7715213"><ele>499.75</ele><time>2026-04-18T14:25:48.184Z</time></trkpt><trkpt lat="43.9757642" lon="11.7713722"><ele>500.5</ele><time>2026-04-18T14:25:49.185Z</time></trkpt><trkpt lat="43.9757766" lon="11.7712"><ele>501.25</ele><time>2026-04-18T14:25:50.185Z</time></trkpt><trkpt lat="43.9757498" lon="11.7709989"><ele>502.0</ele><time>2026-04-18T14:25:51.184Z</time></trkpt><trkpt lat="43.9756996" lon="11.770774"><ele>502.0</ele><time>2026-04-18T14:25:52.185Z</time></trkpt><trkpt lat="43.9756469" lon="11.7705462"><ele>502.0</ele><time>2026-04-18T14:25:53.185Z</time></trkpt><trkpt lat="43.975596" lon="11.7703168"><ele>502.0</ele><time>2026-04-18T14:25:54.185Z</time></trkpt><trkpt lat="43.9755369" lon="11.7700836"><ele>508.33333333333337</ele><time>2026-04-18T14:25:55.185Z</time></trkpt><trkpt lat="43.9754769" lon="11.7698536"><ele>514.6666666666666</ele><time>2026-04-18T14:25:56.185Z</time></trkpt><trkpt lat="43.9753896" lon="11.7696452"><ele>521.0</ele><time>2026-04-18T14:25:57.185Z</time></trkpt><trkpt lat="43.975299" lon="11.7694408"><ele>515.6666666666666</ele><time>2026-04-18T14:25:58.185Z</time></trkpt><trkpt lat="43.9751917" lon="11.7692493"><ele>510.33333333333337</ele><time>2026-04-18T14:25:59.185Z</time></trkpt><trkpt lat="43.9750687" lon="11.7690724"><ele>505.0</ele><time>2026-04-18T14:26:00.185Z</time></trkpt><trkpt lat="43.9749419" lon="11.7689066"><ele>505.0</ele><time>2026-04-18T14:26:01.184Z</time></trkpt><trkpt lat="43.9748116" lon="11.7687552"><ele>505.0</ele><time>2026-04-18T14:26:02.185Z</time></trkpt><trkpt lat="43.9746828" lon="11.7686094"><ele>505.0</ele><time>2026-04-18T14:26:03.185Z</time></trkpt><trkpt lat="43.9745597" lon="11.7684687"><ele>512.5</ele><time>2026-04-18T14:26:04.184Z</time></trkpt><trkpt lat="43.9744491" lon="11.76834"><ele>520.0</ele><time>2026-04-18T14:26:05.185Z</time></trkpt><trkpt lat="43.9743589" lon="11.768218"><ele>527.5</ele><time>2026-04-18T14:26:06.185Z</time></trkpt><trkpt lat="43.9742885" lon="11.7680898"><ele>535.0</ele><time>2026-04-18T14:26:07.185Z</time></trkpt><trkpt lat="43.9742421" lon="11.7679347"><ele>535.0</ele><time>2026-04-18T14:26:08.185Z</time></trkpt><trkpt lat="43.9742151" lon="11.7677568"><ele>535.0</ele><time>2026-04-18T14:26:09.185Z</time></trkpt><trkpt lat="43.974202" lon="11.7675731"><ele>535.0</ele><time>2026-04-18T14:26:10.185Z</time></trkpt><trkpt lat="43.9741839" lon="11.7674069"><ele>535.0</ele><time>2026-04-18T14:26:11.185Z</time></trkpt><trkpt lat="43.9741403" lon="11.7672711"><ele>530.0</ele><time>2026-04-18T14:26:12.185Z</time></trkpt><trkpt lat="43.9740631" lon="11.7671732"><ele>525.0</ele><time>2026-04-18T14:26:13.184Z</time></trkpt><trkpt lat="43.9739659" lon="11.7671358"><ele>520.0</ele><time>2026-04-18T14:26:14.185Z</time></trkpt><trkpt lat="43.9738543" lon="11.7671618"><ele>515.0</ele><time>2026-04-18T14:26:15.185Z</time></trkpt><trkpt lat="43.9737454" lon="11.7671979"><ele>510.0</ele><time>2026-04-18T14:26:16.184Z</time></trkpt><trkpt lat="43.973642" lon="11.7671732"><ele>510.0</ele><time>2026-04-18T14:26:17.185Z</time></trkpt><trkpt lat="43.9735187" lon="11.7671102"><ele>510.0</ele><time>2026-04-18T14:26:18.185Z</time></trkpt><trkpt lat="43.9733781" lon="11.7670323"><ele>510.0</ele><time>2026-04-18T14:26:19.185Z</time></trkpt><trkpt lat="43.9732215" lon="11.7669438"><ele>513.6666666666666</ele><time>2026-04-18T14:26:20.185Z</time></trkpt><trkpt lat="43.9730703" lon="11.7668605"><ele>517.3333333333333</ele><time>2026-04-18T14:26:21.185Z</time></trkpt><trkpt lat="43.9729152" lon="11.7667727"><ele>521.0</ele><time>2026-04-18T14:26:22.184Z</time></trkpt><trkpt lat="43.9727742" lon="11.766697"><ele>521.0</ele><time>2026-04-18T14:26:23.184Z</time></trkpt><trkpt lat="43.9726515" lon="11.7666287"><ele>521.0</ele><time>2026-04-18T14:26:24.185Z</time></trkpt><trkpt lat="43.9725538" lon="11.7665455"><ele>521.0</ele><time>2026-04-18T14:26:25.185Z</time></trkpt><trkpt lat="43.9724802" lon="11.7664188"><ele>521.0</ele><time>2026-04-18T14:26:26.185Z</time></trkpt><trkpt lat="43.972431" lon="11.7662545"><ele>521.0</ele><time>2026-04-18T14:26:27.184Z</time></trkpt><trkpt lat="43.9723944" lon="11.766061"><ele>521.0</ele><time>2026-04-18T14:26:28.185Z</time></trkpt><trkpt lat="43.9723661" lon="11.7658818"><ele>521.0</ele><time>2026-04-18T14:26:29.185Z</time></trkpt><trkpt lat="43.9723378" lon="11.7657143"><ele>521.0</ele><time>2026-04-18T14:26:30.185Z</time></trkpt><trkpt lat="43.9723019" lon="11.7655877"><ele>521.0</ele><time>2026-04-18T14:26:31.185Z</time></trkpt><trkpt lat="43.9722336" lon="11.7654969"><ele>521.0</ele><time>2026-04-18T14:26:32.185Z</time></trkpt><trkpt lat="43.9721412" lon="11.7654472"><ele>521.0</ele><time>2026-04-18T14:26:33.185Z</time></trkpt><trkpt lat="43.9720396" lon="11.7654789"><ele>521.0</ele><time>2026-04-18T14:26:34.184Z</time></trkpt><trkpt lat="43.9719412" lon="11.7655627"><ele>521.0</ele><time>2026-04-18T14:26:35.185Z</time></trkpt><trkpt lat="43.9718615" lon="11.765649"><ele>521.0</ele><time>2026-04-18T14:26:36.185Z</time></trkpt><trkpt lat="43.9717848" lon="11.7657672"><ele>521.0</ele><time>2026-04-18T14:26:37.185Z</time></trkpt><trkpt lat="43.9717999" lon="11.7659437"><ele>521.0</ele><time>2026-04-18T14:26:38.185Z</time></trkpt><trkpt lat="43.9717846" lon="11.766065"><ele>521.0</ele><time>2026-04-18T14:26:39.185Z</time></trkpt><trkpt lat="43.9717323" lon="11.7661596"><ele>521.0</ele><time>2026-04-18T14:26:40.184Z</time></trkpt><trkpt lat="43.971657" lon="11.7661863"><ele>517.75</ele><time>2026-04-18T14:26:41.185Z</time></trkpt><trkpt lat="43.9715727" lon="11.7661452"><ele>514.5</ele><time>2026-04-18T14:26:42.185Z</time></trkpt><trkpt lat="43.9714852" lon="11.7660364"><ele>511.25</ele><time>2026-04-18T14:26:43.184Z</time></trkpt><trkpt lat="43.97138" lon="11.7658982"><ele>508.0</ele><time>2026-04-18T14:26:44.185Z</time></trkpt><trkpt lat="43.9712634" lon="11.7657663"><ele>508.0</ele><time>2026-04-18T14:26:45.185Z</time></trkpt><trkpt lat="43.9711205" lon="11.7656526"><ele>508.0</ele><time>2026-04-18T14:26:46.184Z</time></trkpt><trkpt lat="43.970966" lon="11.7655516"><ele>508.0</ele><time>2026-04-18T14:26:47.185Z</time></trkpt><trkpt lat="43.9708117" lon="11.7654538"><ele>504.75</ele><time>2026-04-18T14:26:48.185Z</time></trkpt><trkpt lat="43.9706689" lon="11.7653616"><ele>501.5</ele><time>2026-04-18T14:26:49.185Z</time></trkpt><trkpt lat="43.9705374" lon="11.7652783"><ele>498.25</ele><time>2026-04-18T14:26:50.185Z</time></trkpt><trkpt lat="43.9704159" lon="11.7652008"><ele>495.0</ele><time>2026-04-18T14:26:51.185Z</time></trkpt><trkpt lat="43.970312" lon="11.7651248"><ele>505.5</ele><time>2026-04-18T14:26:52.185Z</time></trkpt><trkpt lat="43.9702428" lon="11.765024"><ele>516.0</ele><time>2026-04-18T14:26:53.185Z</time></trkpt><trkpt lat="43.9702195" lon="11.7648881"><ele>526.5</ele><time>2026-04-18T14:26:54.185Z</time></trkpt><trkpt lat="43.9702248" lon="11.76471"><ele>537.0</ele><time>2026-04-18T14:26:55.184Z</time></trkpt><trkpt lat="43.9702425" lon="11.7644916"><ele>543.0</ele><time>2026-04-18T14:26:56.185Z</time></trkpt><trkpt lat="43.9702589" lon="11.7642707"><ele>549.0</ele><time>2026-04-18T14:26:57.184Z</time></trkpt><trkpt lat="43.9702707" lon="11.7640431"><ele>555.0</ele><time>2026-04-18T14:26:58.185Z</time></trkpt><trkpt lat="43.9702664" lon="11.7638161"><ele>555.0</ele><time>2026-04-18T14:26:59.185Z</time></trkpt><trkpt lat="43.9702254" lon="11.763587"><ele>555.0</ele><time>2026-04-18T14:27:00.185Z</time></trkpt><trkpt lat="43.9701457" lon="11.7633392"><ele>555.0</ele><time>2026-04-18T14:27:01.185Z</time></trkpt><trkpt lat="43.9700353" lon="11.763102"><ele>546.0</ele><time>2026-04-18T14:27:02.185Z</time></trkpt><trkpt lat="43.9699117" lon="11.7628825"><ele>537.0</ele><time>2026-04-18T14:27:03.184Z</time></trkpt><trkpt lat="43.9697925" lon="11.7626803"><ele>528.0</ele><time>2026-04-18T14:27:04.185Z</time></trkpt><trkpt lat="43.9696815" lon="11.7624939"><ele>528.0</ele><time>2026-04-18T14:27:05.185Z</time></trkpt><trkpt lat="43.9695846" lon="11.7623369"><ele>528.0</ele><time>2026-04-18T14:27:06.185Z</time></trkpt><trkpt lat="43.9694881" lon="11.7621972"><ele>528.0</ele><time>2026-04-18T14:27:07.185Z</time></trkpt><trkpt lat="43.9693756" lon="11.7621009"><ele>528.0</ele><time>2026-04-18T14:27:08.184Z</time></trkpt><trkpt lat="43.9692407" lon="11.7620469"><ele>527.5</ele><time>2026-04-18T14:27:09.185Z</time></trkpt><trkpt lat="43.969117" lon="11.7620172"><ele>527.0</ele><time>2026-04-18T14:27:10.185Z</time></trkpt><trkpt lat="43.9690031" lon="11.7619579"><ele>526.5</ele><time>2026-04-18T14:27:11.185Z</time></trkpt><trkpt lat="43.968891" lon="11.7618557"><ele>526.0</ele><time>2026-04-18T14:27:12.185Z</time></trkpt><trkpt lat="43.9687807" lon="11.761721"><ele>526.0</ele><time>2026-04-18T14:27:13.185Z</time></trkpt><trkpt lat="43.9686682" lon="11.7615633"><ele>526.0</ele><time>2026-04-18T14:27:14.185Z</time></trkpt><trkpt lat="43.9685619" lon="11.7614058"><ele>526.0</ele><time>2026-04-18T14:27:15.184Z</time></trkpt><trkpt lat="43.9684486" lon="11.7612449"><ele>522.3333333333334</ele><time>2026-04-18T14:27:16.184Z</time></trkpt><trkpt lat="43.9683201" lon="11.7610937"><ele>518.6666666666666</ele><time>2026-04-18T14:27:17.185Z</time></trkpt><trkpt lat="43.9681745" lon="11.7609533"><ele>515.0</ele><time>2026-04-18T14:27:18.185Z</time></trkpt><trkpt lat="43.968026" lon="11.7608163"><ele>515.0</ele><time>2026-04-18T14:27:19.185Z</time></trkpt><trkpt lat="43.9678856" lon="11.7606862"><ele>515.0</ele><time>2026-04-18T14:27:20.185Z</time></trkpt><trkpt lat="43.9677524" lon="11.7605634"><ele>515.0</ele><time>2026-04-18T14:27:21.185Z</time></trkpt><trkpt lat="43.9676234" lon="11.7604402"><ele>512.5</ele><time>2026-04-18T14:27:22.185Z</time></trkpt><trkpt lat="43.9675023" lon="11.7603212"><ele>510.0</ele><time>2026-04-18T14:27:23.185Z</time></trkpt><trkpt lat="43.9673883" lon="11.7602115"><ele>507.5</ele><time>2026-04-18T14:27:24.185Z</time></trkpt><trkpt lat="43.9672792" lon="11.7601211"><ele>505.0</ele><time>2026-04-18T14:27:25.185Z</time></trkpt><trkpt lat="43.9671532" lon="11.7600737"><ele>510.5</ele><time>2026-04-18T14:27:26.184Z</time></trkpt><trkpt lat="43.9670272" lon="11.7600696"><ele>516.0</ele><time>2026-04-18T14:27:27.184Z</time></trkpt><trkpt lat="43.966917" lon="11.7600657"><ele>521.5</ele><time>2026-04-18T14:27:28.185Z</time></trkpt><trkpt lat="43.9668189" lon="11.7600063"><ele>527.0</ele><time>2026-04-18T14:27:29.185Z</time></trkpt><trkpt lat="43.9667263" lon="11.7598876"><ele>522.5</ele><time>2026-04-18T14:27:30.185Z</time></trkpt><trkpt lat="43.9666498" lon="11.7597369"><ele>518.0</ele><time>2026-04-18T14:27:31.185Z</time></trkpt><trkpt lat="43.9665723" lon="11.7595942"><ele>513.5</ele><time>2026-04-18T14:27:32.185Z</time></trkpt><trkpt lat="43.9664726" lon="11.7594736"><ele>509.0</ele><time>2026-04-18T14:27:33.185Z</time></trkpt><trkpt lat="43.9663554" lon="11.7593878"><ele>509.0</ele><time>2026-04-18T14:27:34.185Z</time></trkpt><trkpt lat="43.9662221" lon="11.759349"><ele>509.0</ele><time>2026-04-18T14:27:35.185Z</time></trkpt><trkpt lat="43.96609" lon="11.7593551"><ele>509.0</ele><time>2026-04-18T14:27:36.184Z</time></trkpt><trkpt lat="43.965969" lon="11.7593767"><ele>509.0</ele><time>2026-04-18T14:27:37.185Z</time></trkpt><trkpt lat="43.9658548" lon="11.7593706"><ele>513.5</ele><time>2026-04-18T14:27:38.185Z</time></trkpt><trkpt lat="43.9657417" lon="11.7593209"><ele>518.0</ele><time>2026-04-18T14:27:39.185Z</time></trkpt><trkpt lat="43.9656461" lon="11.7592466"><ele>522.5</ele><time>2026-04-18T14:27:40.185Z</time></trkpt><trkpt lat="43.9655337" lon="11.7592022"><ele>527.0</ele><time>2026-04-18T14:27:41.185Z</time></trkpt><trkpt lat="43.9654047" lon="11.7592102"><ele>527.0</ele><time>2026-04-18T14:27:42.185Z</time></trkpt><trkpt lat="43.9652713" lon="11.7592157"><ele>527.0</ele><time>2026-04-18T14:27:43.185Z</time></trkpt><trkpt lat="43.9651273" lon="11.7591744"><ele>527.0</ele><time>2026-04-18T14:27:44.184Z</time></trkpt><trkpt lat="43.9649745" lon="11.7591173"><ele>527.0</ele><time>2026-04-18T14:27:45.185Z</time></trkpt><trkpt lat="43.9648108" lon="11.7590737"><ele>525.3333333333333</ele><time>2026-04-18T14:27:46.185Z</time></trkpt><trkpt lat="43.9646247" lon="11.7590827"><ele>523.6666666666666</ele><time>2026-04-18T14:27:47.185Z</time></trkpt><trkpt lat="43.9644501" lon="11.7590978"><ele>522.0</ele><time>2026-04-18T14:27:48.185Z</time></trkpt><trkpt lat="43.9642891" lon="11.7591159"><ele>522.5</ele><time>2026-04-18T14:27:49.185Z</time></trkpt><trkpt lat="43.9641425" lon="11.7591266"><ele>523.0</ele><time>2026-04-18T14:27:50.185Z</time></trkpt><trkpt lat="43.9640192" lon="11.7591182"><ele>523.5</ele><time>2026-04-18T14:27:51.185Z</time></trkpt><trkpt lat="43.963912" lon="11.7590701"><ele>524.0</ele><time>2026-04-18T14:27:52.184Z</time></trkpt><trkpt lat="43.9638226" lon="11.7589707"><ele>524.0</ele><time>2026-04-18T14:27:53.185Z</time></trkpt><trkpt lat="43.9637599" lon="11.7588119"><ele>524.0</ele><time>2026-04-18T14:27:54.185Z</time></trkpt><trkpt lat="43.9637209" lon="11.7586115"><ele>524.0</ele><time>2026-04-18T14:27:55.185Z</time></trkpt><trkpt lat="43.9636904" lon="11.758395"><ele>524.0</ele><time>2026-04-18T14:27:56.185Z</time></trkpt><trkpt lat="43.9636565" lon="11.7581867"><ele>532.0</ele><time>2026-04-18T14:27:57.185Z</time></trkpt><trkpt lat="43.9636138" lon="11.7579719"><ele>540.0</ele><time>2026-04-18T14:27:58.185Z</time></trkpt><trkpt lat="43.9635573" lon="11.7577582"><ele>548.0</ele><time>2026-04-18T14:27:59.185Z</time></trkpt><trkpt lat="43.9634642" lon="11.7575396"><ele>541.3333333333333</ele><time>2026-04-18T14:28:00.185Z</time></trkpt><trkpt lat="43.9633485" lon="11.7573171"><ele>534.6666666666666</ele><time>2026-04-18T14:28:01.185Z</time></trkpt><trkpt lat="43.96323" lon="11.7571039"><ele>528.0</ele><time>2026-04-18T14:28:02.185Z</time></trkpt><trkpt lat="43.963115" lon="11.7568947"><ele>534.0</ele><time>2026-04-18T14:28:03.185Z</time></trkpt><trkpt lat="43.9630062" lon="11.7566917"><ele>540.0</ele><time>2026-04-18T14:28:04.185Z</time></trkpt><trkpt lat="43.9629079" lon="11.7564972"><ele>546.0</ele><time>2026-04-18T14:28:05.185Z</time></trkpt><trkpt lat="43.9628176" lon="11.7563207"><ele>546.0</ele><time>2026-04-18T14:28:06.185Z</time></trkpt><trkpt lat="43.9627298" lon="11.7561728"><ele>546.0</ele><time>2026-04-18T14:28:07.184Z</time></trkpt><trkpt lat="43.9626254" lon="11.7560704"><ele>546.0</ele><time>2026-04-18T14:28:08.185Z</time></trkpt><trkpt lat="43.9624854" lon="11.7559921"><ele>546.0</ele><time>2026-04-18T14:28:09.185Z</time></trkpt><trkpt lat="43.962324" lon="11.7559266"><ele>545.75</ele><time>2026-04-18T14:28:10.185Z</time></trkpt><trkpt lat="43.9621788" lon="11.7558696"><ele>545.5</ele><time>2026-04-18T14:28:11.184Z</time></trkpt><trkpt lat="43.9620517" lon="11.7557853"><ele>545.25</ele><time>2026-04-18T14:28:12.185Z</time></trkpt><trkpt lat="43.9619323" lon="11.7556606"><ele>545.0</ele><time>2026-04-18T14:28:13.185Z</time></trkpt><trkpt lat="43.9618238" lon="11.7555124"><ele>542.0</ele><time>2026-04-18T14:28:14.185Z</time></trkpt><trkpt lat="43.9616967" lon="11.7553299"><ele>539.0</ele><time>2026-04-18T14:28:15.185Z</time></trkpt><trkpt lat="43.9615773" lon="11.7551611"><ele>536.0</ele><time>2026-04-18T14:28:16.185Z</time></trkpt><trkpt lat="43.9614646" lon="11.7549886"><ele>536.0</ele><time>2026-04-18T14:28:17.184Z</time></trkpt><trkpt lat="43.9613567" lon="11.7547939"><ele>536.0</ele><time>2026-04-18T14:28:18.185Z</time></trkpt><trkpt lat="43.9612568" lon="11.7545867"><ele>536.0</ele><time>2026-04-18T14:28:19.185Z</time></trkpt><trkpt lat="43.9611574" lon="11.7543779"><ele>537.0</ele><time>2026-04-18T14:28:20.185Z</time></trkpt><trkpt lat="43.9610576" lon="11.7541756"><ele>538.0</ele><time>2026-04-18T14:28:21.185Z</time></trkpt><trkpt lat="43.960958" lon="11.7539852"><ele>539.0</ele><time>2026-04-18T14:28:22.185Z</time></trkpt><trkpt lat="43.9608508" lon="11.7538114"><ele>539.0</ele><time>2026-04-18T14:28:23.185Z</time></trkpt><trkpt lat="43.9607128" lon="11.7536656"><ele>539.0</ele><time>2026-04-18T14:28:24.183Z</time></trkpt><trkpt lat="43.9605571" lon="11.7535419"><ele>539.0</ele><time>2026-04-18T14:28:25.185Z</time></trkpt><trkpt lat="43.9603981" lon="11.7534417"><ele>538.75</ele><time>2026-04-18T14:28:26.185Z</time></trkpt><trkpt lat="43.960255" lon="11.7533504"><ele>538.5</ele><time>2026-04-18T14:28:27.185Z</time></trkpt><trkpt lat="43.960137" lon="11.7532561"><ele>538.25</ele><time>2026-04-18T14:28:28.185Z</time></trkpt><trkpt lat="43.9600458" lon="11.7531442"><ele>538.0</ele><time>2026-04-18T14:28:29.185Z</time></trkpt><trkpt lat="43.959982" lon="11.7530042"><ele>538.0</ele><time>2026-04-18T14:28:30.185Z</time></trkpt><trkpt lat="43.9599343" lon="11.7528445"><ele>538.0</ele><time>2026-04-18T14:28:31.185Z</time></trkpt><trkpt lat="43.9598963" lon="11.752703"><ele>538.0</ele><time>2026-04-18T14:28:32.184Z</time></trkpt><trkpt lat="43.9598385" lon="11.7526005"><ele>538.0</ele><time>2026-04-18T14:28:33.185Z</time></trkpt><trkpt lat="43.9597527" lon="11.7525484"><ele>538.0</ele><time>2026-04-18T14:28:34.185Z</time></trkpt><trkpt lat="43.9596199" lon="11.7525499"><ele>541.0</ele><time>2026-04-18T14:28:35.184Z</time></trkpt><trkpt lat="43.9594813" lon="11.7525709"><ele>544.0</ele><time>2026-04-18T14:28:36.184Z</time></trkpt><trkpt lat="43.9593469" lon="11.7525781"><ele>547.0</ele><time>2026-04-18T14:28:37.185Z</time></trkpt><trkpt lat="43.9592241" lon="11.7525622"><ele>550.0</ele><time>2026-04-18T14:28:38.185Z</time></trkpt><trkpt lat="43.9591047" lon="11.7525008"><ele>550.0</ele><time>2026-04-18T14:28:39.185Z</time></trkpt><trkpt lat="43.9589949" lon="11.7524007"><ele>550.0</ele><time>2026-04-18T14:28:40.185Z</time></trkpt><trkpt lat="43.958906" lon="11.7522738"><ele>550.0</ele><time>2026-04-18T14:28:41.185Z</time></trkpt><trkpt lat="43.9588513" lon="11.7521219"><ele>550.0</ele><time>2026-04-18T14:28:42.185Z</time></trkpt><trkpt lat="43.9588092" lon="11.7519347"><ele>560.6666666666667</ele><time>2026-04-18T14:28:43.185Z</time></trkpt><trkpt lat="43.9587641" lon="11.7517311"><ele>571.3333333333334</ele><time>2026-04-18T14:28:44.185Z</time></trkpt><trkpt lat="43.9587187" lon="11.7515411"><ele>582.0</ele><time>2026-04-18T14:28:45.185Z</time></trkpt><trkpt lat="43.9586598" lon="11.751344"><ele>582.0</ele><time>2026-04-18T14:28:46.185Z</time></trkpt><trkpt lat="43.9585859" lon="11.7511851"><ele>582.0</ele><time>2026-04-18T14:28:47.184Z</time></trkpt><trkpt lat="43.9585338" lon="11.7510304"><ele>582.0</ele><time>2026-04-18T14:28:48.185Z</time></trkpt><trkpt lat="43.9585031" lon="11.7508841"><ele>582.0</ele><time>2026-04-18T14:28:49.185Z</time></trkpt><trkpt lat="43.9585096" lon="11.7507282"><ele>586.6</ele><time>2026-04-18T14:28:50.185Z</time></trkpt><trkpt lat="43.9585445" lon="11.7505829"><ele>591.2</ele><time>2026-04-18T14:28:51.184Z</time></trkpt><trkpt lat="43.9585677" lon="11.7504423"><ele>595.8</ele><time>2026-04-18T14:28:52.185Z</time></trkpt><trkpt lat="43.9585615" lon="11.7503077"><ele>600.4</ele><time>2026-04-18T14:28:53.185Z</time></trkpt><trkpt lat="43.9585132" lon="11.7501837"><ele>605.0</ele><time>2026-04-18T14:28:54.185Z</time></trkpt><trkpt lat="43.9584186" lon="11.7501148"><ele>600.25</ele><time>2026-04-18T14:28:55.185Z</time></trkpt><trkpt lat="43.9582985" lon="11.7500579"><ele>595.5</ele><time>2026-04-18T14:28:56.185Z</time></trkpt><trkpt lat="43.9581509" lon="11.7500317"><ele>590.75</ele><time>2026-04-18T14:28:57.185Z</time></trkpt><trkpt lat="43.9580042" lon="11.7499655"><ele>586.0</ele><time>2026-04-18T14:28:58.185Z</time></trkpt><trkpt lat="43.9578681" lon="11.7498792"><ele>586.0</ele><time>2026-04-18T14:28:59.185Z</time></trkpt><trkpt lat="43.9577402" lon="11.7497973"><ele>586.0</ele><time>2026-04-18T14:29:00.185Z</time></trkpt><trkpt lat="43.9576162" lon="11.7497489"><ele>586.0</ele><time>2026-04-18T14:29:01.185Z</time></trkpt><trkpt lat="43.9574977" lon="11.7497566"><ele>586.0</ele><time>2026-04-18T14:29:02.185Z</time></trkpt><trkpt lat="43.9573856" lon="11.7497864"><ele>577.75</ele><time>2026-04-18T14:29:03.185Z</time></trkpt><trkpt lat="43.9572658" lon="11.7497783"><ele>569.5</ele><time>2026-04-18T14:29:04.185Z</time></trkpt><trkpt lat="43.9571384" lon="11.7497207"><ele>561.25</ele><time>2026-04-18T14:29:05.185Z</time></trkpt><trkpt lat="43.9570143" lon="11.7496294"><ele>553.0</ele><time>2026-04-18T14:29:06.185Z</time></trkpt><trkpt lat="43.9568915" lon="11.7495102"><ele>553.0</ele><time>2026-04-18T14:29:07.185Z</time></trkpt><trkpt lat="43.9567904" lon="11.7493935"><ele>553.0</ele><time>2026-04-18T14:29:08.185Z</time></trkpt><trkpt lat="43.9567208" lon="11.7492423"><ele>553.0</ele><time>2026-04-18T14:29:09.185Z</time></trkpt><trkpt lat="43.956679" lon="11.7490533"><ele>553.0</ele><time>2026-04-18T14:29:10.184Z</time></trkpt><trkpt lat="43.9566481" lon="11.7488582"><ele>553.0</ele><time>2026-04-18T14:29:11.183Z</time></trkpt><trkpt lat="43.9566116" lon="11.7486689"><ele>553.0</ele><time>2026-04-18T14:29:12.185Z</time></trkpt><trkpt lat="43.9565465" lon="11.7484946"><ele>553.0</ele><time>2026-04-18T14:29:13.184Z</time></trkpt><trkpt lat="43.9564284" lon="11.7483388"><ele>553.0</ele><time>2026-04-18T14:29:14.185Z</time></trkpt><trkpt lat="43.9563042" lon="11.74818"><ele>551.6666666666667</ele><time>2026-04-18T14:29:15.185Z</time></trkpt><trkpt lat="43.9560785" lon="11.7480599"><ele>550.3333333333334</ele><time>2026-04-18T14:29:16.185Z</time></trkpt><trkpt lat="43.9559014" lon="11.7479517"><ele>549.0</ele><time>2026-04-18T14:29:17.185Z</time></trkpt><trkpt lat="43.9556961" lon="11.7478877"><ele>549.0</ele><time>2026-04-18T14:29:18.185Z</time></trkpt><trkpt lat="43.9554972" lon="11.7478622"><ele>549.0</ele><time>2026-04-18T14:29:19.185Z</time></trkpt><trkpt lat="43.955311" lon="11.7478609"><ele>549.0</ele><time>2026-04-18T14:29:20.185Z</time></trkpt><trkpt lat="43.9551242" lon="11.7478891"><ele>549.0</ele><time>2026-04-18T14:29:21.184Z</time></trkpt><trkpt lat="43.954946" lon="11.7479487"><ele>549.0</ele><time>2026-04-18T14:29:22.185Z</time></trkpt><trkpt lat="43.9547765" lon="11.7479993"><ele>549.0</ele><time>2026-04-18T14:29:23.185Z</time></trkpt><trkpt lat="43.954606" lon="11.7480192"><ele>549.0</ele><time>2026-04-18T14:29:24.185Z</time></trkpt><trkpt lat="43.9544394" lon="11.7480193"><ele>549.0</ele><time>2026-04-18T14:29:25.184Z</time></trkpt><trkpt lat="43.9542719" lon="11.7480099"><ele>549.0</ele><time>2026-04-18T14:29:26.185Z</time></trkpt><trkpt lat="43.9541065" lon="11.7479796"><ele>551.0</ele><time>2026-04-18T14:29:27.185Z</time></trkpt><trkpt lat="43.953952" lon="11.7479187"><ele>553.0</ele><time>2026-04-18T14:29:28.185Z</time></trkpt><trkpt lat="43.9538117" lon="11.7478469"><ele>555.0</ele><time>2026-04-18T14:29:29.185Z</time></trkpt><trkpt lat="43.9536822" lon="11.74778"><ele>557.0</ele><time>2026-04-18T14:29:30.185Z</time></trkpt><trkpt lat="43.953556" lon="11.7477146"><ele>559.75</ele><time>2026-04-18T14:29:31.185Z</time></trkpt><trkpt lat="43.9534329" lon="11.7476508"><ele>562.5</ele><time>2026-04-18T14:29:32.185Z</time></trkpt><trkpt lat="43.9533152" lon="11.747587"><ele>565.25</ele><time>2026-04-18T14:29:33.185Z</time></trkpt><trkpt lat="43.953204" lon="11.74752"><ele>568.0</ele><time>2026-04-18T14:29:34.185Z</time></trkpt><trkpt lat="43.9530908" lon="11.7474524"><ele>568.0</ele><time>2026-04-18T14:29:35.185Z</time></trkpt><trkpt lat="43.9529948" lon="11.7473613"><ele>568.0</ele><time>2026-04-18T14:29:36.185Z</time></trkpt><trkpt lat="43.9529054" lon="11.747242"><ele>568.0</ele><time>2026-04-18T14:29:37.185Z</time></trkpt><trkpt lat="43.9528253" lon="11.7470935"><ele>568.0</ele><time>2026-04-18T14:29:38.185Z</time></trkpt><trkpt lat="43.9527566" lon="11.7469194"><ele>564.25</ele><time>2026-04-18T14:29:39.185Z</time></trkpt><trkpt lat="43.9526974" lon="11.7467308"><ele>560.5</ele><time>2026-04-18T14:29:40.183Z</time></trkpt><trkpt lat="43.9526458" lon="11.7465352"><ele>556.75</ele><time>2026-04-18T14:29:41.184Z</time></trkpt><trkpt lat="43.9525972" lon="11.7463411"><ele>553.0</ele><time>2026-04-18T14:29:42.184Z</time></trkpt><trkpt lat="43.9525385" lon="11.746151"><ele>560.6666666666667</ele><time>2026-04-18T14:29:43.184Z</time></trkpt><trkpt lat="43.952451" lon="11.7459691"><ele>568.3333333333334</ele><time>2026-04-18T14:29:44.184Z</time></trkpt><trkpt lat="43.9523506" lon="11.745804"><ele>576.0</ele><time>2026-04-18T14:29:45.184Z</time></trkpt><trkpt lat="43.9522488" lon="11.7456608"><ele>576.0</ele><time>2026-04-18T14:29:46.185Z</time></trkpt><trkpt lat="43.9521554" lon="11.7455295"><ele>576.0</ele><time>2026-04-18T14:29:47.185Z</time></trkpt><trkpt lat="43.9520782" lon="11.7453977"><ele>576.0</ele><time>2026-04-18T14:29:48.185Z</time></trkpt><trkpt lat="43.9520288" lon="11.7452585"><ele>576.0</ele><time>2026-04-18T14:29:49.185Z</time></trkpt><trkpt lat="43.9520158" lon="11.7451109"><ele>576.4</ele><time>2026-04-18T14:29:50.185Z</time></trkpt><trkpt lat="43.9520482" lon="11.7449603"><ele>576.8</ele><time>2026-04-18T14:29:51.185Z</time></trkpt><trkpt lat="43.9521151" lon="11.7448305"><ele>577.1999999999999</ele><time>2026-04-18T14:29:52.184Z</time></trkpt><trkpt lat="43.9522136" lon="11.7447554"><ele>577.6</ele><time>2026-04-18T14:29:53.185Z</time></trkpt><trkpt lat="43.952319" lon="11.7447347"><ele>578.0</ele><time>2026-04-18T14:29:54.185Z</time></trkpt><trkpt lat="43.9524285" lon="11.7447128"><ele>578.0</ele><time>2026-04-18T14:29:55.184Z</time></trkpt><trkpt lat="43.9525384" lon="11.7446375"><ele>578.0</ele><time>2026-04-18T14:29:56.185Z</time></trkpt><trkpt lat="43.952637" lon="11.7445216"><ele>578.0</ele><time>2026-04-18T14:29:57.185Z</time></trkpt><trkpt lat="43.9527123" lon="11.7443849"><ele>578.0</ele><time>2026-04-18T14:29:58.185Z</time></trkpt><trkpt lat="43.9527542" lon="11.7442134"><ele>587.75</ele><time>2026-04-18T14:29:59.185Z</time></trkpt><trkpt lat="43.9527785" lon="11.7440321"><ele>597.5</ele><time>2026-04-18T14:30:00.184Z</time></trkpt><trkpt lat="43.9527674" lon="11.7438584"><ele>607.25</ele><time>2026-04-18T14:30:01.185Z</time></trkpt><trkpt lat="43.9527421" lon="11.7437041"><ele>617.0</ele><time>2026-04-18T14:30:02.185Z</time></trkpt><trkpt lat="43.9526816" lon="11.7435565"><ele>613.6666666666666</ele><time>2026-04-18T14:30:03.184Z</time></trkpt><trkpt lat="43.9525717" lon="11.7434158"><ele>610.3333333333334</ele><time>2026-04-18T14:30:04.185Z</time></trkpt><trkpt lat="43.9524638" lon="11.7432756"><ele>607.0</ele><time>2026-04-18T14:30:05.185Z</time></trkpt><trkpt lat="43.9523411" lon="11.7431477"><ele>594.3333333333334</ele><time>2026-04-18T14:30:06.185Z</time></trkpt><trkpt lat="43.9521961" lon="11.743031"><ele>581.6666666666666</ele><time>2026-04-18T14:30:07.185Z</time></trkpt><trkpt lat="43.9520588" lon="11.7428849"><ele>569.0</ele><time>2026-04-18T14:30:08.185Z</time></trkpt><trkpt lat="43.9519435" lon="11.7427653"><ele>575.6666666666666</ele><time>2026-04-18T14:30:09.185Z</time></trkpt><trkpt lat="43.9518312" lon="11.7426421"><ele>582.3333333333334</ele><time>2026-04-18T14:30:10.185Z</time></trkpt><trkpt lat="43.9517285" lon="11.7425103"><ele>589.0</ele><time>2026-04-18T14:30:11.185Z</time></trkpt><trkpt lat="43.9517191" lon="11.7422741"><ele>585.75</ele><time>2026-04-18T14:30:12.184Z</time></trkpt><trkpt lat="43.9516765" lon="11.7420852"><ele>582.5</ele><time>2026-04-18T14:30:13.185Z</time></trkpt><trkpt lat="43.9516512" lon="11.7418881"><ele>579.25</ele><time>2026-04-18T14:30:14.185Z</time></trkpt><trkpt lat="43.9516458" lon="11.7416906"><ele>576.0</ele><time>2026-04-18T14:30:15.185Z</time></trkpt><trkpt lat="43.9516755" lon="11.741495"><ele>585.25</ele><time>2026-04-18T14:30:16.185Z</time></trkpt><trkpt lat="43.9517247" lon="11.7413079"><ele>594.5</ele><time>2026-04-18T14:30:17.185Z</time></trkpt><trkpt lat="43.951788" lon="11.7411171"><ele>603.75</ele><time>2026-04-18T14:30:18.185Z</time></trkpt><trkpt lat="43.9518505" lon="11.7409436"><ele>613.0</ele><time>2026-04-18T14:30:19.185Z</time></trkpt><trkpt lat="43.9518954" lon="11.7407852"><ele>613.75</ele><time>2026-04-18T14:30:20.185Z</time></trkpt><trkpt lat="43.9519269" lon="11.7406223"><ele>614.5</ele><time>2026-04-18T14:30:21.185Z</time></trkpt><trkpt lat="43.951875" lon="11.7404327"><ele>615.25</ele><time>2026-04-18T14:30:22.184Z</time></trkpt><trkpt lat="43.9518201" lon="11.7402151"><ele>616.0</ele><time>2026-04-18T14:30:23.185Z</time></trkpt><trkpt lat="43.9517805" lon="11.7399906"><ele>611.3333333333334</ele><time>2026-04-18T14:30:24.184Z</time></trkpt><trkpt lat="43.9517353" lon="11.7397716"><ele>606.6666666666666</ele><time>2026-04-18T14:30:25.184Z</time></trkpt><trkpt lat="43.9516894" lon="11.7395496"><ele>602.0</ele><time>2026-04-18T14:30:26.185Z</time></trkpt><trkpt lat="43.9516509" lon="11.7393212"><ele>595.3333333333333</ele><time>2026-04-18T14:30:27.184Z</time></trkpt><trkpt lat="43.9515996" lon="11.7391029"><ele>588.6666666666666</ele><time>2026-04-18T14:30:28.185Z</time></trkpt><trkpt lat="43.9515578" lon="11.7388865"><ele>582.0</ele><time>2026-04-18T14:30:29.185Z</time></trkpt><trkpt lat="43.9515132" lon="11.7386906"><ele>583.5</ele><time>2026-04-18T14:30:30.184Z</time></trkpt><trkpt lat="43.9514758" lon="11.7385019"><ele>585.0</ele><time>2026-04-18T14:30:31.185Z</time></trkpt><trkpt lat="43.9514482" lon="11.7383135"><ele>586.5</ele><time>2026-04-18T14:30:32.185Z</time></trkpt><trkpt lat="43.9513989" lon="11.7381368"><ele>588.0</ele><time>2026-04-18T14:30:33.185Z</time></trkpt><trkpt lat="43.9513646" lon="11.7379521"><ele>588.0</ele><time>2026-04-18T14:30:34.185Z</time></trkpt><trkpt lat="43.9513306" lon="11.7377736"><ele>588.0</ele><time>2026-04-18T14:30:35.185Z</time></trkpt><trkpt lat="43.9512935" lon="11.7375851"><ele>588.0</ele><time>2026-04-18T14:30:36.184Z</time></trkpt><trkpt lat="43.9512552" lon="11.7373965"><ele>588.0</ele><time>2026-04-18T14:30:37.185Z</time></trkpt><trkpt lat="43.951213" lon="11.7372056"><ele>593.0</ele><time>2026-04-18T14:30:38.185Z</time></trkpt><trkpt lat="43.9511579" lon="11.7370163"><ele>598.0</ele><time>2026-04-18T14:30:39.185Z</time></trkpt><trkpt lat="43.9510868" lon="11.7368344"><ele>603.0</ele><time>2026-04-18T14:30:40.185Z</time></trkpt><trkpt lat="43.9510101" lon="11.7366592"><ele>608.0</ele><time>2026-04-18T14:30:41.184Z</time></trkpt><trkpt lat="43.9509334" lon="11.736487"><ele>604.75</ele><time>2026-04-18T14:30:42.185Z</time></trkpt><trkpt lat="43.9508574" lon="11.7363149"><ele>601.5</ele><time>2026-04-18T14:30:43.184Z</time></trkpt><trkpt lat="43.950786" lon="11.7361457"><ele>598.25</ele><time>2026-04-18T14:30:44.185Z</time></trkpt><trkpt lat="43.9507295" lon="11.7359909"><ele>595.0</ele><time>2026-04-18T14:30:45.185Z</time></trkpt><trkpt lat="43.950698" lon="11.7358252"><ele>595.0</ele><time>2026-04-18T14:30:46.184Z</time></trkpt><trkpt lat="43.950692" lon="11.73564"><ele>595.0</ele><time>2026-04-18T14:30:47.185Z</time></trkpt><trkpt lat="43.9507007" lon="11.73544"><ele>595.0</ele><time>2026-04-18T14:30:48.185Z</time></trkpt><trkpt lat="43.9507118" lon="11.735231"><ele>595.0</ele><time>2026-04-18T14:30:49.185Z</time></trkpt><trkpt lat="43.9507262" lon="11.735018"><ele>598.3333333333334</ele><time>2026-04-18T14:30:50.185Z</time></trkpt><trkpt lat="43.9507414" lon="11.7348063"><ele>601.6666666666666</ele><time>2026-04-18T14:30:51.185Z</time></trkpt><trkpt lat="43.9507526" lon="11.7345984"><ele>605.0</ele><time>2026-04-18T14:30:52.185Z</time></trkpt><trkpt lat="43.9507489" lon="11.7343938"><ele>605.75</ele><time>2026-04-18T14:30:53.185Z</time></trkpt><trkpt lat="43.9507191" lon="11.7341987"><ele>606.5</ele><time>2026-04-18T14:30:54.185Z</time></trkpt><trkpt lat="43.9506694" lon="11.734015"><ele>607.25</ele><time>2026-04-18T14:30:55.184Z</time></trkpt><trkpt lat="43.9506107" lon="11.733845"><ele>608.0</ele><time>2026-04-18T14:30:56.185Z</time></trkpt><trkpt lat="43.9505696" lon="11.7336944"><ele>607.0</ele><time>2026-04-18T14:30:57.185Z</time></trkpt><trkpt lat="43.9505666" lon="11.7335537"><ele>606.0</ele><time>2026-04-18T14:30:58.185Z</time></trkpt><trkpt lat="43.9506028" lon="11.7334452"><ele>605.0</ele><time>2026-04-18T14:30:59.185Z</time></trkpt><trkpt lat="43.9506701" lon="11.7333836"><ele>604.0</ele><time>2026-04-18T14:31:00.184Z</time></trkpt><trkpt lat="43.9507632" lon="11.7333665"><ele>603.0</ele><time>2026-04-18T14:31:01.184Z</time></trkpt><trkpt lat="43.950871" lon="11.7333948"><ele>607.5</ele><time>2026-04-18T14:31:02.185Z</time></trkpt><trkpt lat="43.9509844" lon="11.733432"><ele>612.0</ele><time>2026-04-18T14:31:03.185Z</time></trkpt><trkpt lat="43.9511058" lon="11.7334611"><ele>616.5</ele><time>2026-04-18T14:31:04.185Z</time></trkpt><trkpt lat="43.9512269" lon="11.7334619"><ele>621.0</ele><time>2026-04-18T14:31:05.183Z</time></trkpt><trkpt lat="43.9513312" lon="11.7334414"><ele>621.0</ele><time>2026-04-18T14:31:06.184Z</time></trkpt><trkpt lat="43.951415" lon="11.7334008"><ele>621.0</ele><time>2026-04-18T14:31:07.185Z</time></trkpt><trkpt lat="43.95147" lon="11.7333248"><ele>621.0</ele><time>2026-04-18T14:31:08.185Z</time></trkpt><trkpt lat="43.9514863" lon="11.7332215"><ele>621.0</ele><time>2026-04-18T14:31:09.184Z</time></trkpt><trkpt lat="43.9514732" lon="11.7330767"><ele>621.0</ele><time>2026-04-18T14:31:10.185Z</time></trkpt><trkpt lat="43.9514357" lon="11.7329076"><ele>619.0</ele><time>2026-04-18T14:31:11.185Z</time></trkpt><trkpt lat="43.9513921" lon="11.7327215"><ele>617.0</ele><time>2026-04-18T14:31:12.185Z</time></trkpt><trkpt lat="43.9513482" lon="11.7325291"><ele>615.0</ele><time>2026-04-18T14:31:13.185Z</time></trkpt><trkpt lat="43.9512912" lon="11.7323425"><ele>613.0</ele><time>2026-04-18T14:31:14.185Z</time></trkpt><trkpt lat="43.9512081" lon="11.732172"><ele>613.0</ele><time>2026-04-18T14:31:15.185Z</time></trkpt><trkpt lat="43.9510939" lon="11.7320253"><ele>613.0</ele><time>2026-04-18T14:31:16.184Z</time></trkpt><trkpt lat="43.950953" lon="11.7319143"><ele>613.0</ele><time>2026-04-18T14:31:17.185Z</time></trkpt><trkpt lat="43.9507952" lon="11.7318217"><ele>618.0</ele><time>2026-04-18T14:31:18.184Z</time></trkpt><trkpt lat="43.9506591" lon="11.7317493"><ele>623.0</ele><time>2026-04-18T14:31:19.184Z</time></trkpt><trkpt lat="43.9505349" lon="11.7316851"><ele>628.0</ele><time>2026-04-18T14:31:20.184Z</time></trkpt><trkpt lat="43.9504171" lon="11.7316507"><ele>633.0</ele><time>2026-04-18T14:31:21.185Z</time></trkpt><trkpt lat="43.9502993" lon="11.7316834"><ele>633.0</ele><time>2026-04-18T14:31:22.185Z</time></trkpt><trkpt lat="43.9501799" lon="11.731749"><ele>633.0</ele><time>2026-04-18T14:31:23.185Z</time></trkpt><trkpt lat="43.9500938" lon="11.7318422"><ele>633.0</ele><time>2026-04-18T14:31:24.185Z</time></trkpt><trkpt lat="43.9499984" lon="11.7318905"><ele>633.0</ele><time>2026-04-18T14:31:25.185Z</time></trkpt><trkpt lat="43.9498946" lon="11.7319024"><ele>633.0</ele><time>2026-04-18T14:31:26.184Z</time></trkpt><trkpt lat="43.9497887" lon="11.7318658"><ele>631.8</ele><time>2026-04-18T14:31:27.185Z</time></trkpt><trkpt lat="43.9496907" lon="11.7317932"><ele>630.5999999999999</ele><time>2026-04-18T14:31:28.185Z</time></trkpt><trkpt lat="43.9496135" lon="11.731705"><ele>629.4000000000001</ele><time>2026-04-18T14:31:29.184Z</time></trkpt><trkpt lat="43.949563" lon="11.7315919"><ele>628.2</ele><time>2026-04-18T14:31:30.185Z</time></trkpt><trkpt lat="43.9495435" lon="11.7314491"><ele>627.0</ele><time>2026-04-18T14:31:31.185Z</time></trkpt><trkpt lat="43.9495678" lon="11.7313033"><ele>627.0</ele><time>2026-04-18T14:31:32.185Z</time></trkpt><trkpt lat="43.9496176" lon="11.7311337"><ele>627.0</ele><time>2026-04-18T14:31:33.184Z</time></trkpt><trkpt lat="43.9496717" lon="11.7309646"><ele>627.0</ele><time>2026-04-18T14:31:34.184Z</time></trkpt><trkpt lat="43.9497236" lon="11.7308052"><ele>627.0</ele><time>2026-04-18T14:31:35.185Z</time></trkpt><trkpt lat="43.9497532" lon="11.7306566"><ele>631.75</ele><time>2026-04-18T14:31:36.185Z</time></trkpt><trkpt lat="43.9497486" lon="11.7304867"><ele>636.5</ele><time>2026-04-18T14:31:37.185Z</time></trkpt><trkpt lat="43.9497014" lon="11.7303144"><ele>641.25</ele><time>2026-04-18T14:31:38.185Z</time></trkpt><trkpt lat="43.9496174" lon="11.7301276"><ele>646.0</ele><time>2026-04-18T14:31:39.184Z</time></trkpt><trkpt lat="43.9495261" lon="11.7299515"><ele>648.25</ele><time>2026-04-18T14:31:40.185Z</time></trkpt><trkpt lat="43.9494312" lon="11.7297746"><ele>650.5</ele><time>2026-04-18T14:31:41.185Z</time></trkpt><trkpt lat="43.9493445" lon="11.7296257"><ele>652.75</ele><time>2026-04-18T14:31:42.185Z</time></trkpt><trkpt lat="43.9492481" lon="11.7295193"><ele>655.0</ele><time>2026-04-18T14:31:43.185Z</time></trkpt><trkpt lat="43.9491378" lon="11.7294673"><ele>655.5</ele><time>2026-04-18T14:31:44.185Z</time></trkpt><trkpt lat="43.9490144" lon="11.7294644"><ele>656.0</ele><time>2026-04-18T14:31:45.185Z</time></trkpt><trkpt lat="43.9488956" lon="11.7294715"><ele>656.5</ele><time>2026-04-18T14:31:46.185Z</time></trkpt><trkpt lat="43.9487846" lon="11.7294447"><ele>657.0</ele><time>2026-04-18T14:31:47.185Z</time></trkpt><trkpt lat="43.948676" lon="11.7293766"><ele>657.0</ele><time>2026-04-18T14:31:48.185Z</time></trkpt><trkpt lat="43.9485903" lon="11.7292807"><ele>657.0</ele><time>2026-04-18T14:31:49.185Z</time></trkpt><trkpt lat="43.9485306" lon="11.7291422"><ele>657.0</ele><time>2026-04-18T14:31:50.185Z</time></trkpt><trkpt lat="43.9484857" lon="11.7289692"><ele>657.0</ele><time>2026-04-18T14:31:51.185Z</time></trkpt><trkpt lat="43.9484674" lon="11.7287695"><ele>657.0</ele><time>2026-04-18T14:31:52.185Z</time></trkpt><trkpt lat="43.9484537" lon="11.7285628"><ele>657.0</ele><time>2026-04-18T14:31:53.185Z</time></trkpt><trkpt lat="43.9484149" lon="11.7283734"><ele>657.0</ele><time>2026-04-18T14:31:54.185Z</time></trkpt><trkpt lat="43.94836" lon="11.7282142"><ele>657.0</ele><time>2026-04-18T14:31:55.185Z</time></trkpt><trkpt lat="43.9483136" lon="11.7280628"><ele>653.75</ele><time>2026-04-18T14:31:56.185Z</time></trkpt><trkpt lat="43.948315" lon="11.7279084"><ele>650.5</ele><time>2026-04-18T14:31:57.184Z</time></trkpt><trkpt lat="43.9483506" lon="11.7277448"><ele>647.25</ele><time>2026-04-18T14:31:58.185Z</time></trkpt><trkpt lat="43.9483861" lon="11.7275702"><ele>644.0</ele><time>2026-04-18T14:31:59.185Z</time></trkpt><trkpt lat="43.9483828" lon="11.727389"><ele>647.0</ele><time>2026-04-18T14:32:00.185Z</time></trkpt><trkpt lat="43.9483789" lon="11.7272082"><ele>650.0</ele><time>2026-04-18T14:32:01.185Z</time></trkpt><trkpt lat="43.9483798" lon="11.7270435"><ele>653.0</ele><time>2026-04-18T14:32:02.185Z</time></trkpt><trkpt lat="43.9483781" lon="11.7269103"><ele>656.0</ele><time>2026-04-18T14:32:03.185Z</time></trkpt><trkpt lat="43.9483539" lon="11.7267771"><ele>659.0</ele><time>2026-04-18T14:32:04.185Z</time></trkpt><trkpt lat="43.9482809" lon="11.7266749"><ele>659.0</ele><time>2026-04-18T14:32:05.185Z</time></trkpt><trkpt lat="43.9481802" lon="11.7265929"><ele>659.0</ele><time>2026-04-18T14:32:06.185Z</time></trkpt><trkpt lat="43.9480815" lon="11.7264945"><ele>659.0</ele><time>2026-04-18T14:32:07.185Z</time></trkpt><trkpt lat="43.948008" lon="11.7263447"><ele>659.0</ele><time>2026-04-18T14:32:08.185Z</time></trkpt><trkpt lat="43.9479579" lon="11.7261981"><ele>661.0</ele><time>2026-04-18T14:32:09.185Z</time></trkpt><trkpt lat="43.9479131" lon="11.7260378"><ele>663.0</ele><time>2026-04-18T14:32:10.184Z</time></trkpt><trkpt lat="43.9479021" lon="11.725853"><ele>665.0</ele><time>2026-04-18T14:32:11.185Z</time></trkpt><trkpt lat="43.9480414" lon="11.7256699"><ele>667.0</ele><time>2026-04-18T14:32:12.185Z</time></trkpt><trkpt lat="43.9480891" lon="11.7254799"><ele>667.0</ele><time>2026-04-18T14:32:13.185Z</time></trkpt><trkpt lat="43.9481173" lon="11.7252669"><ele>667.0</ele><time>2026-04-18T14:32:14.185Z</time></trkpt><trkpt lat="43.948106" lon="11.7250694"><ele>667.0</ele><time>2026-04-18T14:32:15.185Z</time></trkpt><trkpt lat="43.9480809" lon="11.7248842"><ele>667.0</ele><time>2026-04-18T14:32:16.184Z</time></trkpt><trkpt lat="43.9480809" lon="11.7247067"><ele>666.3333333333334</ele><time>2026-04-18T14:32:17.185Z</time></trkpt><trkpt lat="43.9481276" lon="11.7245134"><ele>665.6666666666666</ele><time>2026-04-18T14:32:18.185Z</time></trkpt><trkpt lat="43.9481841" lon="11.7243252"><ele>665.0</ele><time>2026-04-18T14:32:19.185Z</time></trkpt><trkpt lat="43.9481982" lon="11.7241052"><ele>664.0</ele><time>2026-04-18T14:32:20.185Z</time></trkpt><trkpt lat="43.9481973" lon="11.7238638"><ele>663.0</ele><time>2026-04-18T14:32:21.185Z</time></trkpt><trkpt lat="43.9482025" lon="11.7236248"><ele>662.0</ele><time>2026-04-18T14:32:22.184Z</time></trkpt><trkpt lat="43.9482169" lon="11.7233962"><ele>661.3333333333333</ele><time>2026-04-18T14:32:23.185Z</time></trkpt><trkpt lat="43.9482264" lon="11.723182"><ele>660.6666666666666</ele><time>2026-04-18T14:32:24.185Z</time></trkpt><trkpt lat="43.9482328" lon="11.7229784"><ele>660.0</ele><time>2026-04-18T14:32:25.185Z</time></trkpt><trkpt lat="43.9482595" lon="11.7227729"><ele>659.75</ele><time>2026-04-18T14:32:26.184Z</time></trkpt><trkpt lat="43.9483076" lon="11.7225847"><ele>659.5</ele><time>2026-04-18T14:32:27.184Z</time></trkpt><trkpt lat="43.9483603" lon="11.722425"><ele>659.25</ele><time>2026-04-18T14:32:28.185Z</time></trkpt><trkpt lat="43.9483911" lon="11.722272"><ele>659.0</ele><time>2026-04-18T14:32:29.185Z</time></trkpt><trkpt lat="43.9483788" lon="11.7221283"><ele>659.0</ele><time>2026-04-18T14:32:30.185Z</time></trkpt><trkpt lat="43.9483256" lon="11.7220102"><ele>659.0</ele><time>2026-04-18T14:32:31.185Z</time></trkpt><trkpt lat="43.9482336" lon="11.7219107"><ele>659.0</ele><time>2026-04-18T14:32:32.185Z</time></trkpt><trkpt lat="43.9481153" lon="11.7218206"><ele>659.0</ele><time>2026-04-18T14:32:33.185Z</time></trkpt><trkpt lat="43.9479962" lon="11.7217443"><ele>659.0</ele><time>2026-04-18T14:32:34.185Z</time></trkpt><trkpt lat="43.9478866" lon="11.7217025"><ele>659.0</ele><time>2026-04-18T14:32:35.185Z</time></trkpt><trkpt lat="43.9477781" lon="11.7217134"><ele>659.0</ele><time>2026-04-18T14:32:36.185Z</time></trkpt><trkpt lat="43.9476619" lon="11.7218028"><ele>659.0</ele><time>2026-04-18T14:32:37.185Z</time></trkpt><trkpt lat="43.947534" lon="11.7219329"><ele>659.5</ele><time>2026-04-18T14:32:38.185Z</time></trkpt><trkpt lat="43.9474171" lon="11.7220756"><ele>660.0</ele><time>2026-04-18T14:32:39.185Z</time></trkpt><trkpt lat="43.947307" lon="11.7222071"><ele>660.5</ele><time>2026-04-18T14:32:40.185Z</time></trkpt><trkpt lat="43.9472166" lon="11.7223282"><ele>661.0</ele><time>2026-04-18T14:32:41.185Z</time></trkpt><trkpt lat="43.9471506" lon="11.7224463"><ele>661.0</ele><time>2026-04-18T14:32:42.185Z</time></trkpt><trkpt lat="43.9471456" lon="11.7225899"><ele>661.0</ele><time>2026-04-18T14:32:43.185Z</time></trkpt><trkpt lat="43.9471626" lon="11.7227431"><ele>661.0</ele><time>2026-04-18T14:32:44.185Z</time></trkpt><trkpt lat="43.9472093" lon="11.7228873"><ele>661.0</ele><time>2026-04-18T14:32:45.185Z</time></trkpt><trkpt lat="43.9472379" lon="11.7230199"><ele>661.0</ele><time>2026-04-18T14:32:46.185Z</time></trkpt><trkpt lat="43.9472292" lon="11.7231565"><ele>658.0</ele><time>2026-04-18T14:32:47.185Z</time></trkpt><trkpt lat="43.9471895" lon="11.7232948"><ele>655.0</ele><time>2026-04-18T14:32:48.185Z</time></trkpt><trkpt lat="43.9471187" lon="11.7234157"><ele>652.0</ele><time>2026-04-18T14:32:49.185Z</time></trkpt><trkpt lat="43.9470164" lon="11.7235341"><ele>649.0</ele><time>2026-04-18T14:32:50.185Z</time></trkpt><trkpt lat="43.9469119" lon="11.7236653"><ele>646.0</ele><time>2026-04-18T14:32:51.185Z</time></trkpt><trkpt lat="43.9468041" lon="11.7237907"><ele>643.0</ele><time>2026-04-18T14:32:52.185Z</time></trkpt><trkpt lat="43.9466998" lon="11.723914"><ele>640.0</ele><time>2026-04-18T14:32:53.184Z</time></trkpt><trkpt lat="43.9466112" lon="11.7240412"><ele>637.0</ele><time>2026-04-18T14:32:54.184Z</time></trkpt><trkpt lat="43.9465422" lon="11.7242055"><ele>639.5</ele><time>2026-04-18T14:32:55.185Z</time></trkpt><trkpt lat="43.9464964" lon="11.7243944"><ele>642.0</ele><time>2026-04-18T14:32:56.185Z</time></trkpt><trkpt lat="43.9464629" lon="11.7245718"><ele>644.5</ele><time>2026-04-18T14:32:57.185Z</time></trkpt><trkpt lat="43.9464155" lon="11.7247193"><ele>647.0</ele><time>2026-04-18T14:32:58.185Z</time></trkpt><trkpt lat="43.9463451" lon="11.724849"><ele>647.0</ele><time>2026-04-18T14:32:59.185Z</time></trkpt><trkpt lat="43.9462528" lon="11.7249548"><ele>647.0</ele><time>2026-04-18T14:33:00.185Z</time></trkpt><trkpt lat="43.9461546" lon="11.7250511"><ele>647.0</ele><time>2026-04-18T14:33:01.185Z</time></trkpt><trkpt lat="43.9460582" lon="11.7251274"><ele>647.0</ele><time>2026-04-18T14:33:02.184Z</time></trkpt><trkpt lat="43.9459596" lon="11.7251606"><ele>656.75</ele><time>2026-04-18T14:33:03.184Z</time></trkpt><trkpt lat="43.9458463" lon="11.7251446"><ele>666.5</ele><time>2026-04-18T14:33:04.184Z</time></trkpt><trkpt lat="43.9457302" lon="11.7250933"><ele>676.25</ele><time>2026-04-18T14:33:05.185Z</time></trkpt><trkpt lat="43.9456164" lon="11.7250317"><ele>686.0</ele><time>2026-04-18T14:33:06.185Z</time></trkpt><trkpt lat="43.9455133" lon="11.7249625"><ele>686.0</ele><time>2026-04-18T14:33:07.185Z</time></trkpt><trkpt lat="43.9454319" lon="11.7248533"><ele>686.0</ele><time>2026-04-18T14:33:08.184Z</time></trkpt><trkpt lat="43.9453662" lon="11.724695"><ele>686.0</ele><time>2026-04-18T14:33:09.185Z</time></trkpt><trkpt lat="43.9453113" lon="11.7245344"><ele>686.0</ele><time>2026-04-18T14:33:10.184Z</time></trkpt><trkpt lat="43.9452565" lon="11.7244048"><ele>683.0</ele><time>2026-04-18T14:33:11.185Z</time></trkpt><trkpt lat="43.9451858" lon="11.7243177"><ele>680.0</ele><time>2026-04-18T14:33:12.185Z</time></trkpt><trkpt lat="43.9450918" lon="11.7242968"><ele>677.0</ele><time>2026-04-18T14:33:13.185Z</time></trkpt><trkpt lat="43.9449843" lon="11.7243254"><ele>674.0</ele><time>2026-04-18T14:33:14.185Z</time></trkpt><trkpt lat="43.9448603" lon="11.7244105"><ele>671.0</ele><time>2026-04-18T14:33:15.184Z</time></trkpt><trkpt lat="43.944719" lon="11.724444"><ele>671.0</ele><time>2026-04-18T14:33:16.185Z</time></trkpt><trkpt lat="43.9445701" lon="11.7244318"><ele>671.0</ele><time>2026-04-18T14:33:17.185Z</time></trkpt><trkpt lat="43.9444369" lon="11.7244179"><ele>671.0</ele><time>2026-04-18T14:33:18.185Z</time></trkpt><trkpt lat="43.9443141" lon="11.7244288"><ele>671.0</ele><time>2026-04-18T14:33:19.184Z</time></trkpt><trkpt lat="43.9442083" lon="11.724489"><ele>672.1999999999999</ele><time>2026-04-18T14:33:20.184Z</time></trkpt><trkpt lat="43.9441127" lon="11.7245768"><ele>673.4</ele><time>2026-04-18T14:33:21.185Z</time></trkpt><trkpt lat="43.9440264" lon="11.7246478"><ele>674.6</ele><time>2026-04-18T14:33:22.184Z</time></trkpt><trkpt lat="43.9439427" lon="11.7246849"><ele>675.8</ele><time>2026-04-18T14:33:23.185Z</time></trkpt><trkpt lat="43.9438605" lon="11.7246591"><ele>677.0</ele><time>2026-04-18T14:33:24.184Z</time></trkpt><trkpt lat="43.943812" lon="11.7245725"><ele>677.0</ele><time>2026-04-18T14:33:25.185Z</time></trkpt><trkpt lat="43.9438153" lon="11.7244369"><ele>677.0</ele><time>2026-04-18T14:33:26.184Z</time></trkpt><trkpt lat="43.9438395" lon="11.7242806"><ele>677.0</ele><time>2026-04-18T14:33:27.185Z</time></trkpt><trkpt lat="43.9438919" lon="11.7241151"><ele>677.0</ele><time>2026-04-18T14:33:28.185Z</time></trkpt><trkpt lat="43.9439415" lon="11.7239652"><ele>684.0</ele><time>2026-04-18T14:33:29.185Z</time></trkpt><trkpt lat="43.94398" lon="11.7238172"><ele>691.0</ele><time>2026-04-18T14:33:30.185Z</time></trkpt><trkpt lat="43.943983" lon="11.7236586"><ele>698.0</ele><time>2026-04-18T14:33:31.185Z</time></trkpt><trkpt lat="43.943952" lon="11.7234954"><ele>705.0</ele><time>2026-04-18T14:33:32.185Z</time></trkpt><trkpt lat="43.9438933" lon="11.7233154"><ele>712.0</ele><time>2026-04-18T14:33:33.185Z</time></trkpt><trkpt lat="43.9438523" lon="11.7230998"><ele>719.0</ele><time>2026-04-18T14:33:34.185Z</time></trkpt><trkpt lat="43.9438278" lon="11.7228493"><ele>726.0</ele><time>2026-04-18T14:33:35.185Z</time></trkpt><trkpt lat="43.9437871" lon="11.7225806"><ele>732.0</ele><time>2026-04-18T14:33:36.185Z</time></trkpt><trkpt lat="43.943724" lon="11.7223274"><ele>738.0</ele><time>2026-04-18T14:33:37.185Z</time></trkpt><trkpt lat="43.9436601" lon="11.7220979"><ele>744.0</ele><time>2026-04-18T14:33:38.185Z</time></trkpt><trkpt lat="43.9436072" lon="11.721888"><ele>751.0</ele><time>2026-04-18T14:33:39.185Z</time></trkpt><trkpt lat="43.943587" lon="11.7216929"><ele>758.0</ele><time>2026-04-18T14:33:40.184Z</time></trkpt><trkpt lat="43.9435641" lon="11.7215088"><ele>765.0</ele><time>2026-04-18T14:33:41.185Z</time></trkpt><trkpt lat="43.9434981" lon="11.7213376"><ele>772.0</ele><time>2026-04-18T14:33:42.185Z</time></trkpt><trkpt lat="43.943415" lon="11.7211904"><ele>760.75</ele><time>2026-04-18T14:33:43.185Z</time></trkpt><trkpt lat="43.9433595" lon="11.7210398"><ele>749.5</ele><time>2026-04-18T14:33:44.185Z</time></trkpt><trkpt lat="43.9433201" lon="11.7208441"><ele>738.25</ele><time>2026-04-18T14:33:45.185Z</time></trkpt><trkpt lat="43.9432558" lon="11.7206309"><ele>727.0</ele><time>2026-04-18T14:33:46.185Z</time></trkpt><trkpt lat="43.9431794" lon="11.7204016"><ele>733.3333333333334</ele><time>2026-04-18T14:33:47.185Z</time></trkpt><trkpt lat="43.9431082" lon="11.7201717"><ele>739.6666666666666</ele><time>2026-04-18T14:33:48.185Z</time></trkpt><trkpt lat="43.943046" lon="11.7199694"><ele>746.0</ele><time>2026-04-18T14:33:49.184Z</time></trkpt><trkpt lat="43.9429837" lon="11.7197637"><ele>746.0</ele><time>2026-04-18T14:33:50.184Z</time></trkpt><trkpt lat="43.9429346" lon="11.7195438"><ele>746.0</ele><time>2026-04-18T14:33:51.185Z</time></trkpt><trkpt lat="43.9429079" lon="11.7193123"><ele>746.0</ele><time>2026-04-18T14:33:52.185Z</time></trkpt><trkpt lat="43.9428995" lon="11.7190586"><ele>746.0</ele><time>2026-04-18T14:33:53.185Z</time></trkpt><trkpt lat="43.942898" lon="11.7188034"><ele>746.0</ele><time>2026-04-18T14:33:54.185Z</time></trkpt><trkpt lat="43.9428973" lon="11.7185495"><ele>746.0</ele><time>2026-04-18T14:33:55.185Z</time></trkpt><trkpt lat="43.9428956" lon="11.7183039"><ele>744.5</ele><time>2026-04-18T14:33:56.184Z</time></trkpt><trkpt lat="43.9428962" lon="11.7180765"><ele>743.0</ele><time>2026-04-18T14:33:57.184Z</time></trkpt><trkpt lat="43.9428961" lon="11.7178692"><ele>741.5</ele><time>2026-04-18T14:33:58.185Z</time></trkpt><trkpt lat="43.9429117" lon="11.7177057"><ele>740.0</ele><time>2026-04-18T14:33:59.184Z</time></trkpt><trkpt lat="43.9429542" lon="11.7175617"><ele>739.75</ele><time>2026-04-18T14:34:00.185Z</time></trkpt><trkpt lat="43.9430244" lon="11.7174213"><ele>739.5</ele><time>2026-04-18T14:34:01.185Z</time></trkpt><trkpt lat="43.9431382" lon="11.7172895"><ele>739.25</ele><time>2026-04-18T14:34:02.185Z</time></trkpt><trkpt lat="43.9432583" lon="11.7171631"><ele>739.0</ele><time>2026-04-18T14:34:03.185Z</time></trkpt><trkpt lat="43.9433734" lon="11.7170364"><ele>739.6666666666667</ele><time>2026-04-18T14:34:04.185Z</time></trkpt><trkpt lat="43.9434942" lon="11.7169062"><ele>740.3333333333334</ele><time>2026-04-18T14:34:05.185Z</time></trkpt><trkpt lat="43.9436171" lon="11.7167747"><ele>741.0</ele><time>2026-04-18T14:34:06.184Z</time></trkpt><trkpt lat="43.9437445" lon="11.7166337"><ele>741.0</ele><time>2026-04-18T14:34:07.185Z</time></trkpt><trkpt lat="43.9438692" lon="11.7164939"><ele>741.0</ele><time>2026-04-18T14:34:08.185Z</time></trkpt><trkpt lat="43.9439829" lon="11.7163697"><ele>741.0</ele><time>2026-04-18T14:34:09.185Z</time></trkpt><trkpt lat="43.9440795" lon="11.7162515"><ele>741.0</ele><time>2026-04-18T14:34:10.185Z</time></trkpt><trkpt lat="43.9441488" lon="11.7161191"><ele>741.0</ele><time>2026-04-18T14:34:11.185Z</time></trkpt><trkpt lat="43.9441818" lon="11.7159483"><ele>741.0</ele><time>2026-04-18T14:34:12.185Z</time></trkpt><trkpt lat="43.944171" lon="11.7157569"><ele>741.0</ele><time>2026-04-18T14:34:13.185Z</time></trkpt><trkpt lat="43.9441351" lon="11.7155645"><ele>741.0</ele><time>2026-04-18T14:34:14.185Z</time></trkpt><trkpt lat="43.9441047" lon="11.7153847"><ele>741.25</ele><time>2026-04-18T14:34:15.185Z</time></trkpt><trkpt lat="43.944109" lon="11.7152154"><ele>741.5</ele><time>2026-04-18T14:34:16.184Z</time></trkpt><trkpt lat="43.9441489" lon="11.7150458"><ele>741.75</ele><time>2026-04-18T14:34:17.185Z</time></trkpt><trkpt lat="43.944224" lon="11.7148591"><ele>742.0</ele><time>2026-04-18T14:34:18.185Z</time></trkpt><trkpt lat="43.9443183" lon="11.7146548"><ele>751.3333333333334</ele><time>2026-04-18T14:34:19.185Z</time></trkpt><trkpt lat="43.9444212" lon="11.7144247"><ele>760.6666666666667</ele><time>2026-04-18T14:34:20.185Z</time></trkpt><trkpt lat="43.9445197" lon="11.7142076"><ele>770.0</ele><time>2026-04-18T14:34:21.185Z</time></trkpt><trkpt lat="43.9446102" lon="11.7139976"><ele>770.0</ele><time>2026-04-18T14:34:22.185Z</time></trkpt><trkpt lat="43.9446758" lon="11.7137995"><ele>770.0</ele><time>2026-04-18T14:34:23.185Z</time></trkpt><trkpt lat="43.9447042" lon="11.7135887"><ele>770.0</ele><time>2026-04-18T14:34:24.185Z</time></trkpt><trkpt lat="43.944699" lon="11.7133812"><ele>768.0</ele><time>2026-04-18T14:34:25.185Z</time></trkpt><trkpt lat="43.9446935" lon="11.7131979"><ele>766.0</ele><time>2026-04-18T14:34:26.185Z</time></trkpt><trkpt lat="43.9447252" lon="11.7130116"><ele>764.0</ele><time>2026-04-18T14:34:27.185Z</time></trkpt><trkpt lat="43.9448001" lon="11.7128378"><ele>762.0</ele><time>2026-04-18T14:34:28.185Z</time></trkpt><trkpt lat="43.9448923" lon="11.712657"><ele>760.25</ele><time>2026-04-18T14:34:29.185Z</time></trkpt><trkpt lat="43.9449845" lon="11.7124943"><ele>758.5</ele><time>2026-04-18T14:34:30.185Z</time></trkpt><trkpt lat="43.9450566" lon="11.7123446"><ele>756.75</ele><time>2026-04-18T14:34:31.185Z</time></trkpt><trkpt lat="43.9451347" lon="11.7121932"><ele>755.0</ele><time>2026-04-18T14:34:32.185Z</time></trkpt><trkpt lat="43.945178" lon="11.712027"><ele>755.0</ele><time>2026-04-18T14:34:33.184Z</time></trkpt><trkpt lat="43.9451983" lon="11.711854"><ele>755.0</ele><time>2026-04-18T14:34:34.184Z</time></trkpt><trkpt lat="43.9449469" lon="11.7115141"><ele>755.0</ele><time>2026-04-18T14:34:35.185Z</time></trkpt><trkpt lat="43.9448597" lon="11.7112387"><ele>755.0</ele><time>2026-04-18T14:34:36.185Z</time></trkpt><trkpt lat="43.9447639" lon="11.7109821"><ele>755.0</ele><time>2026-04-18T14:34:37.184Z</time></trkpt><trkpt lat="43.9446806" lon="11.7107399"><ele>757.75</ele><time>2026-04-18T14:34:38.185Z</time></trkpt><trkpt lat="43.9446117" lon="11.7105265"><ele>760.5</ele><time>2026-04-18T14:34:39.185Z</time></trkpt><trkpt lat="43.944561" lon="11.7103475"><ele>763.25</ele><time>2026-04-18T14:34:40.185Z</time></trkpt><trkpt lat="43.9445475" lon="11.7101638"><ele>766.0</ele><time>2026-04-18T14:34:41.184Z</time></trkpt><trkpt lat="43.9445861" lon="11.7099793"><ele>769.0</ele><time>2026-04-18T14:34:42.185Z</time></trkpt><trkpt lat="43.9446621" lon="11.7097781"><ele>772.0</ele><time>2026-04-18T14:34:43.185Z</time></trkpt><trkpt lat="43.9447444" lon="11.709571"><ele>775.0</ele><time>2026-04-18T14:34:44.185Z</time></trkpt><trkpt lat="43.9448181" lon="11.7093787"><ele>775.5</ele><time>2026-04-18T14:34:45.184Z</time></trkpt><trkpt lat="43.9448789" lon="11.7092085"><ele>776.0</ele><time>2026-04-18T14:34:46.185Z</time></trkpt><trkpt lat="43.9449099" lon="11.7090582"><ele>776.5</ele><time>2026-04-18T14:34:47.185Z</time></trkpt><trkpt lat="43.9448884" lon="11.7088989"><ele>777.0</ele><time>2026-04-18T14:34:48.185Z</time></trkpt><trkpt lat="43.9448658" lon="11.7087276"><ele>777.0</ele><time>2026-04-18T14:34:49.185Z</time></trkpt><trkpt lat="43.9447124" lon="11.7085956"><ele>777.0</ele><time>2026-04-18T14:34:50.185Z</time></trkpt><trkpt lat="43.9445794" lon="11.7084392"><ele>777.0</ele><time>2026-04-18T14:34:51.185Z</time></trkpt><trkpt lat="43.9444003" lon="11.708308"><ele>771.3333333333334</ele><time>2026-04-18T14:34:52.184Z</time></trkpt><trkpt lat="43.9442391" lon="11.708218"><ele>765.6666666666667</ele><time>2026-04-18T14:34:53.185Z</time></trkpt><trkpt lat="43.9440902" lon="11.7081401"><ele>760.0</ele><time>2026-04-18T14:34:54.185Z</time></trkpt><trkpt lat="43.9439679" lon="11.7080635"><ele>760.0</ele><time>2026-04-18T14:34:55.185Z</time></trkpt><trkpt lat="43.9438868" lon="11.7079816"><ele>760.0</ele><time>2026-04-18T14:34:56.185Z</time></trkpt><trkpt lat="43.9438362" lon="11.7078649"><ele>760.0</ele><time>2026-04-18T14:34:57.185Z</time></trkpt><trkpt lat="43.9438287" lon="11.7077209"><ele>760.0</ele><time>2026-04-18T14:34:58.185Z</time></trkpt><trkpt lat="43.9438723" lon="11.7075515"><ele>760.0</ele><time>2026-04-18T14:34:59.185Z</time></trkpt><trkpt lat="43.9439448" lon="11.7073568"><ele>765.25</ele><time>2026-04-18T14:35:00.185Z</time></trkpt><trkpt lat="43.9440153" lon="11.7071684"><ele>770.5</ele><time>2026-04-18T14:35:01.185Z</time></trkpt><trkpt lat="43.9440772" lon="11.7069954"><ele>775.75</ele><time>2026-04-18T14:35:02.185Z</time></trkpt><trkpt lat="43.9441126" lon="11.7068445"><ele>781.0</ele><time>2026-04-18T14:35:03.185Z</time></trkpt><trkpt lat="43.9441105" lon="11.7067024"><ele>781.75</ele><time>2026-04-18T14:35:04.184Z</time></trkpt><trkpt lat="43.9440608" lon="11.7065827"><ele>782.5</ele><time>2026-04-18T14:35:05.185Z</time></trkpt><trkpt lat="43.9439795" lon="11.7065152"><ele>783.25</ele><time>2026-04-18T14:35:06.185Z</time></trkpt><trkpt lat="43.9439003" lon="11.7064538"><ele>784.0</ele><time>2026-04-18T14:35:07.185Z</time></trkpt><trkpt lat="43.9437453" lon="11.7065378"><ele>784.0</ele><time>2026-04-18T14:35:08.185Z</time></trkpt><trkpt lat="43.9436362" lon="11.7065661"><ele>784.0</ele><time>2026-04-18T14:35:09.185Z</time></trkpt><trkpt lat="43.9435369" lon="11.7065779"><ele>784.0</ele><time>2026-04-18T14:35:10.185Z</time></trkpt><trkpt lat="43.9434521" lon="11.7065051"><ele>784.0</ele><time>2026-04-18T14:35:11.185Z</time></trkpt><trkpt lat="43.9433912" lon="11.7064011"><ele>784.0</ele><time>2026-04-18T14:35:12.185Z</time></trkpt><trkpt lat="43.9433695" lon="11.706252"><ele>784.0</ele><time>2026-04-18T14:35:13.184Z</time></trkpt><trkpt lat="43.9433705" lon="11.7060789"><ele>784.0</ele><time>2026-04-18T14:35:14.185Z</time></trkpt><trkpt lat="43.943352" lon="11.7058912"><ele>784.0</ele><time>2026-04-18T14:35:15.185Z</time></trkpt><trkpt lat="43.9433016" lon="11.705697"><ele>784.0</ele><time>2026-04-18T14:35:16.185Z</time></trkpt><trkpt lat="43.9432305" lon="11.7055299"><ele>784.0</ele><time>2026-04-18T14:35:17.185Z</time></trkpt><trkpt lat="43.9431393" lon="11.7053757"><ele>784.0</ele><time>2026-04-18T14:35:18.184Z</time></trkpt><trkpt lat="43.942995" lon="11.7052643"><ele>784.0</ele><time>2026-04-18T14:35:19.185Z</time></trkpt><trkpt lat="43.9428268" lon="11.7051704"><ele>784.3333333333333</ele><time>2026-04-18T14:35:20.185Z</time></trkpt><trkpt lat="43.9426555" lon="11.7050938"><ele>784.6666666666667</ele><time>2026-04-18T14:35:21.185Z</time></trkpt><trkpt lat="43.9424906" lon="11.7050176"><ele>785.0</ele><time>2026-04-18T14:35:22.185Z</time></trkpt><trkpt lat="43.9423441" lon="11.7049524"><ele>785.0</ele><time>2026-04-18T14:35:23.185Z</time></trkpt><trkpt lat="43.9422174" lon="11.7048924"><ele>785.0</ele><time>2026-04-18T14:35:24.185Z</time></trkpt><trkpt lat="43.9421201" lon="11.7048244"><ele>785.0</ele><time>2026-04-18T14:35:25.185Z</time></trkpt><trkpt lat="43.9420472" lon="11.7047168"><ele>785.0</ele><time>2026-04-18T14:35:26.185Z</time></trkpt><trkpt lat="43.9420116" lon="11.7045615"><ele>790.0</ele><time>2026-04-18T14:35:27.184Z</time></trkpt><trkpt lat="43.9420025" lon="11.7043775"><ele>795.0</ele><time>2026-04-18T14:35:28.185Z</time></trkpt><trkpt lat="43.942001" lon="11.7042075"><ele>800.0</ele><time>2026-04-18T14:35:29.185Z</time></trkpt><trkpt lat="43.942021" lon="11.7040643"><ele>805.0</ele><time>2026-04-18T14:35:30.184Z</time></trkpt><trkpt lat="43.9420789" lon="11.7039457"><ele>805.0</ele><time>2026-04-18T14:35:31.184Z</time></trkpt><trkpt lat="43.9421719" lon="11.7038784"><ele>805.0</ele><time>2026-04-18T14:35:32.185Z</time></trkpt><trkpt lat="43.9422644" lon="11.7038489"><ele>805.0</ele><time>2026-04-18T14:35:33.185Z</time></trkpt><trkpt lat="43.9423417" lon="11.7037715"><ele>805.0</ele><time>2026-04-18T14:35:34.184Z</time></trkpt><trkpt lat="43.9423934" lon="11.7036369"><ele>805.0</ele><time>2026-04-18T14:35:35.185Z</time></trkpt><trkpt lat="43.942426" lon="11.7034951"><ele>803.6</ele><time>2026-04-18T14:35:36.185Z</time></trkpt><trkpt lat="43.9424342" lon="11.7033647"><ele>802.2</ele><time>2026-04-18T14:35:37.185Z</time></trkpt><trkpt lat="43.9424325" lon="11.7032279"><ele>800.8</ele><time>2026-04-18T14:35:38.185Z</time></trkpt><trkpt lat="43.9423133" lon="11.7031741"><ele>799.4</ele><time>2026-04-18T14:35:39.185Z</time></trkpt><trkpt lat="43.9422094" lon="11.7031202"><ele>798.0</ele><time>2026-04-18T14:35:40.184Z</time></trkpt><trkpt lat="43.9420803" lon="11.7030877"><ele>798.0</ele><time>2026-04-18T14:35:41.185Z</time></trkpt><trkpt lat="43.9419584" lon="11.7030454"><ele>798.0</ele><time>2026-04-18T14:35:42.185Z</time></trkpt><trkpt lat="43.9418482" lon="11.7030091"><ele>798.0</ele><time>2026-04-18T14:35:43.185Z</time></trkpt><trkpt lat="43.9417498" lon="11.702992"><ele>798.0</ele><time>2026-04-18T14:35:44.185Z</time></trkpt><trkpt lat="43.9416545" lon="11.7030303"><ele>798.0</ele><time>2026-04-18T14:35:45.185Z</time></trkpt><trkpt lat="43.9415798" lon="11.7031152"><ele>796.0</ele><time>2026-04-18T14:35:46.185Z</time></trkpt><trkpt lat="43.941501" lon="11.7032406"><ele>794.0</ele><time>2026-04-18T14:35:47.185Z</time></trkpt><trkpt lat="43.9414623" lon="11.7034143"><ele>792.0</ele><time>2026-04-18T14:35:48.184Z</time></trkpt><trkpt lat="43.9414089" lon="11.7035695"><ele>790.0</ele><time>2026-04-18T14:35:49.185Z</time></trkpt><trkpt lat="43.941351" lon="11.703716"><ele>788.2</ele><time>2026-04-18T14:35:50.184Z</time></trkpt><trkpt lat="43.9412906" lon="11.7038419"><ele>786.4</ele><time>2026-04-18T14:35:51.185Z</time></trkpt><trkpt lat="43.9412303" lon="11.7039557"><ele>784.5999999999999</ele><time>2026-04-18T14:35:52.185Z</time></trkpt><trkpt lat="43.9411745" lon="11.704053"><ele>782.8</ele><time>2026-04-18T14:35:53.185Z</time></trkpt><trkpt lat="43.9411053" lon="11.7041267"><ele>781.0</ele><time>2026-04-18T14:35:54.185Z</time></trkpt><trkpt lat="43.9410245" lon="11.704172"><ele>781.0</ele><time>2026-04-18T14:35:55.184Z</time></trkpt><trkpt lat="43.9409284" lon="11.7041747"><ele>781.0</ele><time>2026-04-18T14:35:56.185Z</time></trkpt><trkpt lat="43.940829" lon="11.7041603"><ele>781.0</ele><time>2026-04-18T14:35:57.185Z</time></trkpt><trkpt lat="43.9407293" lon="11.7041358"><ele>781.0</ele><time>2026-04-18T14:35:58.185Z</time></trkpt><trkpt lat="43.9406375" lon="11.7041034"><ele>781.0</ele><time>2026-04-18T14:35:59.185Z</time></trkpt><trkpt lat="43.9405482" lon="11.7040448"><ele>783.1999999999999</ele><time>2026-04-18T14:36:00.185Z</time></trkpt><trkpt lat="43.9404714" lon="11.7039523"><ele>785.4</ele><time>2026-04-18T14:36:01.183Z</time></trkpt><trkpt lat="43.9404211" lon="11.7038384"><ele>787.6</ele><time>2026-04-18T14:36:02.185Z</time></trkpt><trkpt lat="43.9403902" lon="11.7037083"><ele>789.8</ele><time>2026-04-18T14:36:03.185Z</time></trkpt><trkpt lat="43.9403772" lon="11.7035619"><ele>792.0</ele><time>2026-04-18T14:36:04.184Z</time></trkpt><trkpt lat="43.9403705" lon="11.703403"><ele>799.25</ele><time>2026-04-18T14:36:05.185Z</time></trkpt><trkpt lat="43.9403554" lon="11.7032483"><ele>806.5</ele><time>2026-04-18T14:36:06.184Z</time></trkpt><trkpt lat="43.9403232" lon="11.7030932"><ele>813.75</ele><time>2026-04-18T14:36:07.184Z</time></trkpt><trkpt lat="43.9402846" lon="11.7029376"><ele>821.0</ele><time>2026-04-18T14:36:08.185Z</time></trkpt><trkpt lat="43.9402369" lon="11.7027843"><ele>819.0</ele><time>2026-04-18T14:36:09.185Z</time></trkpt><trkpt lat="43.9401723" lon="11.7026534"><ele>817.0</ele><time>2026-04-18T14:36:10.185Z</time></trkpt><trkpt lat="43.9400865" lon="11.7025526"><ele>815.0</ele><time>2026-04-18T14:36:11.185Z</time></trkpt><trkpt lat="43.9399848" lon="11.7024803"><ele>813.0</ele><time>2026-04-18T14:36:12.185Z</time></trkpt><trkpt lat="43.9398796" lon="11.702423"><ele>813.0</ele><time>2026-04-18T14:36:13.185Z</time></trkpt><trkpt lat="43.9397803" lon="11.7023671"><ele>813.0</ele><time>2026-04-18T14:36:14.184Z</time></trkpt><trkpt lat="43.9396899" lon="11.702289"><ele>813.0</ele><time>2026-04-18T14:36:15.185Z</time></trkpt><trkpt lat="43.9396168" lon="11.7021763"><ele>813.0</ele><time>2026-04-18T14:36:16.184Z</time></trkpt><trkpt lat="43.939553" lon="11.7020363"><ele>813.0</ele><time>2026-04-18T14:36:17.184Z</time></trkpt><trkpt lat="43.9394924" lon="11.7018859"><ele>811.2</ele><time>2026-04-18T14:36:18.184Z</time></trkpt><trkpt lat="43.9394349" lon="11.7017383"><ele>809.4</ele><time>2026-04-18T14:36:19.185Z</time></trkpt><trkpt lat="43.9393791" lon="11.7015967"><ele>807.6</ele><time>2026-04-18T14:36:20.185Z</time></trkpt><trkpt lat="43.9393264" lon="11.7014716"><ele>805.8000000000001</ele><time>2026-04-18T14:36:21.185Z</time></trkpt><trkpt lat="43.939267" lon="11.7013541"><ele>804.0</ele><time>2026-04-18T14:36:22.185Z</time></trkpt><trkpt lat="43.9391907" lon="11.7012584"><ele>804.0</ele><time>2026-04-18T14:36:23.184Z</time></trkpt><trkpt lat="43.9390963" lon="11.7011942"><ele>804.0</ele><time>2026-04-18T14:36:24.185Z</time></trkpt><trkpt lat="43.9389926" lon="11.7011554"><ele>804.0</ele><time>2026-04-18T14:36:25.185Z</time></trkpt><trkpt lat="43.9388916" lon="11.7011118"><ele>804.0</ele><time>2026-04-18T14:36:26.184Z</time></trkpt><trkpt lat="43.9388077" lon="11.7010449"><ele>804.0</ele><time>2026-04-18T14:36:27.185Z</time></trkpt><trkpt lat="43.9387332" lon="11.7009461"><ele>809.8000000000001</ele><time>2026-04-18T14:36:28.185Z</time></trkpt><trkpt lat="43.9386797" lon="11.7008228"><ele>815.6</ele><time>2026-04-18T14:36:29.185Z</time></trkpt><trkpt lat="43.9386589" lon="11.7006914"><ele>821.4</ele><time>2026-04-18T14:36:30.185Z</time></trkpt><trkpt lat="43.9386623" lon="11.7005589"><ele>827.2</ele><time>2026-04-18T14:36:31.185Z</time></trkpt><trkpt lat="43.9386803" lon="11.7004362"><ele>833.0</ele><time>2026-04-18T14:36:32.185Z</time></trkpt><trkpt lat="43.9386853" lon="11.7003336"><ele>832.2</ele><time>2026-04-18T14:36:33.185Z</time></trkpt><trkpt lat="43.9386681" lon="11.7002236"><ele>831.4</ele><time>2026-04-18T14:36:34.185Z</time></trkpt><trkpt lat="43.9386223" lon="11.7001224"><ele>830.6</ele><time>2026-04-18T14:36:35.185Z</time></trkpt><trkpt lat="43.9385467" lon="11.7000407"><ele>829.8000000000001</ele><time>2026-04-18T14:36:36.185Z</time></trkpt><trkpt lat="43.9384435" lon="11.6999893"><ele>829.0</ele><time>2026-04-18T14:36:37.184Z</time></trkpt><trkpt lat="43.9383324" lon="11.6999653"><ele>829.0</ele><time>2026-04-18T14:36:38.184Z</time></trkpt><trkpt lat="43.9382232" lon="11.6999445"><ele>829.0</ele><time>2026-04-18T14:36:39.185Z</time></trkpt><trkpt lat="43.9381121" lon="11.6999198"><ele>829.0</ele><time>2026-04-18T14:36:40.185Z</time></trkpt><trkpt lat="43.9380027" lon="11.6998762"><ele>829.0</ele><time>2026-04-18T14:36:41.185Z</time></trkpt><trkpt lat="43.9379073" lon="11.6998066"><ele>829.0</ele><time>2026-04-18T14:36:42.185Z</time></trkpt><trkpt lat="43.9378097" lon="11.6997532"><ele>828.9999999999999</ele><time>2026-04-18T14:36:43.185Z</time></trkpt><trkpt lat="43.9377143" lon="11.6997307"><ele>829.0</ele><time>2026-04-18T14:36:44.185Z</time></trkpt><trkpt lat="43.9376238" lon="11.6997167"><ele>829.0</ele><time>2026-04-18T14:36:45.185Z</time></trkpt><trkpt lat="43.937545" lon="11.6996908"><ele>829.0</ele><time>2026-04-18T14:36:46.184Z</time></trkpt><trkpt lat="43.9374729" lon="11.6996288"><ele>828.9999999999999</ele><time>2026-04-18T14:36:47.185Z</time></trkpt><trkpt lat="43.9374144" lon="11.6995369"><ele>829.0</ele><time>2026-04-18T14:36:48.185Z</time></trkpt><trkpt lat="43.9373779" lon="11.6994179"><ele>829.8000000000001</ele><time>2026-04-18T14:36:49.185Z</time></trkpt><trkpt lat="43.9373409" lon="11.6992966"><ele>830.6</ele><time>2026-04-18T14:36:50.185Z</time></trkpt><trkpt lat="43.937278" lon="11.6991812"><ele>831.4</ele><time>2026-04-18T14:36:51.185Z</time></trkpt><trkpt lat="43.9371934" lon="11.6990978"><ele>832.2</ele><time>2026-04-18T14:36:52.185Z</time></trkpt><trkpt lat="43.9370992" lon="11.6990517"><ele>833.0</ele><time>2026-04-18T14:36:53.185Z</time></trkpt><trkpt lat="43.9369954" lon="11.6990399"><ele>833.0</ele><time>2026-04-18T14:36:54.185Z</time></trkpt><trkpt lat="43.9368948" lon="11.6990194"><ele>833.0</ele><time>2026-04-18T14:36:55.184Z</time></trkpt><trkpt lat="43.9368035" lon="11.6989627"><ele>833.0</ele><time>2026-04-18T14:36:56.185Z</time></trkpt><trkpt lat="43.9367211" lon="11.6988735"><ele>833.0</ele><time>2026-04-18T14:36:57.185Z</time></trkpt><trkpt lat="43.9366528" lon="11.6987533"><ele>833.0</ele><time>2026-04-18T14:36:58.185Z</time></trkpt><trkpt lat="43.9366039" lon="11.6986098"><ele>833.5</ele><time>2026-04-18T14:36:59.185Z</time></trkpt><trkpt lat="43.9365705" lon="11.6984498"><ele>834.0</ele><time>2026-04-18T14:37:00.184Z</time></trkpt><trkpt lat="43.9365422" lon="11.6982797"><ele>834.5</ele><time>2026-04-18T14:37:01.185Z</time></trkpt><trkpt lat="43.9365179" lon="11.698115"><ele>835.0</ele><time>2026-04-18T14:37:02.185Z</time></trkpt><trkpt lat="43.9364834" lon="11.6979717"><ele>834.9999999999999</ele><time>2026-04-18T14:37:03.185Z</time></trkpt><trkpt lat="43.9364437" lon="11.6978423"><ele>835.0</ele><time>2026-04-18T14:37:04.185Z</time></trkpt><trkpt lat="43.9364146" lon="11.697725"><ele>835.0</ele><time>2026-04-18T14:37:05.185Z</time></trkpt><trkpt lat="43.9364168" lon="11.6976141"><ele>835.0</ele><time>2026-04-18T14:37:06.185Z</time></trkpt><trkpt lat="43.9364328" lon="11.6975208"><ele>834.9999999999999</ele><time>2026-04-18T14:37:07.185Z</time></trkpt><trkpt lat="43.9364427" lon="11.6974286"><ele>835.0</ele><time>2026-04-18T14:37:08.185Z</time></trkpt><trkpt lat="43.9364155" lon="11.6972295"><ele>839.75</ele><time>2026-04-18T14:37:10.185Z</time></trkpt><trkpt lat="43.9362721" lon="11.6971379"><ele>844.5</ele><time>2026-04-18T14:37:11.185Z</time></trkpt><trkpt lat="43.9361211" lon="11.6971024"><ele>849.25</ele><time>2026-04-18T14:37:12.185Z</time></trkpt><trkpt lat="43.9360197" lon="11.6970009"><ele>854.0</ele><time>2026-04-18T14:37:13.185Z</time></trkpt><trkpt lat="43.9359237" lon="11.6969298"><ele>853.2</ele><time>2026-04-18T14:37:14.185Z</time></trkpt><trkpt lat="43.9358206" lon="11.6968882"><ele>852.4000000000001</ele><time>2026-04-18T14:37:15.185Z</time></trkpt><trkpt lat="43.9357219" lon="11.6968349"><ele>851.6</ele><time>2026-04-18T14:37:16.185Z</time></trkpt><trkpt lat="43.9356304" lon="11.6967694"><ele>850.8</ele><time>2026-04-18T14:37:17.184Z</time></trkpt><trkpt lat="43.9355572" lon="11.6966878"><ele>850.0</ele><time>2026-04-18T14:37:18.185Z</time></trkpt><trkpt lat="43.9354934" lon="11.6965784"><ele>850.0</ele><time>2026-04-18T14:37:19.185Z</time></trkpt><trkpt lat="43.9354512" lon="11.6964381"><ele>850.0</ele><time>2026-04-18T14:37:20.185Z</time></trkpt><trkpt lat="43.9354056" lon="11.6962887"><ele>850.0</ele><time>2026-04-18T14:37:21.185Z</time></trkpt><trkpt lat="43.9353301" lon="11.6961193"><ele>850.0</ele><time>2026-04-18T14:37:22.185Z</time></trkpt><trkpt lat="43.935203" lon="11.6959532"><ele>847.0</ele><time>2026-04-18T14:37:23.184Z</time></trkpt><trkpt lat="43.9350624" lon="11.6958032"><ele>844.0</ele><time>2026-04-18T14:37:24.185Z</time></trkpt><trkpt lat="43.9349425" lon="11.6956633"><ele>841.0</ele><time>2026-04-18T14:37:25.185Z</time></trkpt><trkpt lat="43.9348435" lon="11.6955114"><ele>841.0</ele><time>2026-04-18T14:37:26.184Z</time></trkpt><trkpt lat="43.9347835" lon="11.6953535"><ele>841.0</ele><time>2026-04-18T14:37:27.185Z</time></trkpt><trkpt lat="43.9347809" lon="11.6951996"><ele>841.0</ele><time>2026-04-18T14:37:28.185Z</time></trkpt><trkpt lat="43.9348296" lon="11.6950722"><ele>841.0</ele><time>2026-04-18T14:37:29.185Z</time></trkpt><trkpt lat="43.9349228" lon="11.6949823"><ele>842.25</ele><time>2026-04-18T14:37:30.184Z</time></trkpt><trkpt lat="43.9350451" lon="11.6949144"><ele>843.5</ele><time>2026-04-18T14:37:31.185Z</time></trkpt><trkpt lat="43.9351657" lon="11.6948195"><ele>844.75</ele><time>2026-04-18T14:37:32.185Z</time></trkpt><trkpt lat="43.9352787" lon="11.6946994"><ele>846.0</ele><time>2026-04-18T14:37:33.185Z</time></trkpt><trkpt lat="43.9353727" lon="11.6945616"><ele>849.5</ele><time>2026-04-18T14:37:34.184Z</time></trkpt><trkpt lat="43.935467" lon="11.6944369"><ele>853.0</ele><time>2026-04-18T14:37:35.185Z</time></trkpt><trkpt lat="43.9355713" lon="11.6943294"><ele>856.5</ele><time>2026-04-18T14:37:36.185Z</time></trkpt><trkpt lat="43.9357396" lon="11.6943598"><ele>860.0</ele><time>2026-04-18T14:37:37.185Z</time></trkpt><trkpt lat="43.9358743" lon="11.6942777"><ele>864.5</ele><time>2026-04-18T14:37:38.185Z</time></trkpt><trkpt lat="43.9360038" lon="11.6941825"><ele>869.0</ele><time>2026-04-18T14:37:39.185Z</time></trkpt><trkpt lat="43.9361116" lon="11.6940873"><ele>873.5</ele><time>2026-04-18T14:37:40.185Z</time></trkpt><trkpt lat="43.9362067" lon="11.6940069"><ele>878.0</ele><time>2026-04-18T14:37:41.185Z</time></trkpt><trkpt lat="43.9362876" lon="11.6939308"><ele>878.0</ele><time>2026-04-18T14:37:42.185Z</time></trkpt><trkpt lat="43.9363433" lon="11.6938055"><ele>878.0</ele><time>2026-04-18T14:37:43.185Z</time></trkpt><trkpt lat="43.9363459" lon="11.6936616"><ele>878.0</ele><time>2026-04-18T14:37:44.185Z</time></trkpt><trkpt lat="43.9362236" lon="11.6935711"><ele>878.0</ele><time>2026-04-18T14:37:45.185Z</time></trkpt><trkpt lat="43.9361788" lon="11.6934738"><ele>878.0</ele><time>2026-04-18T14:37:46.184Z</time></trkpt><trkpt lat="43.9360829" lon="11.6934315"><ele>878.0</ele><time>2026-04-18T14:37:47.185Z</time></trkpt><trkpt lat="43.9359448" lon="11.6935923"><ele>878.0</ele><time>2026-04-18T14:37:48.185Z</time></trkpt><trkpt lat="43.9358285" lon="11.6936889"><ele>878.0</ele><time>2026-04-18T14:37:49.184Z</time></trkpt><trkpt lat="43.9357103" lon="11.6937175"><ele>878.0</ele><time>2026-04-18T14:37:50.185Z</time></trkpt><trkpt lat="43.9355817" lon="11.6936922"><ele>875.5999999999999</ele><time>2026-04-18T14:37:51.185Z</time></trkpt><trkpt lat="43.9354864" lon="11.6936175"><ele>873.1999999999999</ele><time>2026-04-18T14:37:52.185Z</time></trkpt><trkpt lat="43.9354195" lon="11.6935209"><ele>870.8</ele><time>2026-04-18T14:37:53.185Z</time></trkpt><trkpt lat="43.9353468" lon="11.693457"><ele>868.4</ele><time>2026-04-18T14:37:54.185Z</time></trkpt><trkpt lat="43.9352526" lon="11.6934433"><ele>866.0</ele><time>2026-04-18T14:37:55.185Z</time></trkpt><trkpt lat="43.9351497" lon="11.6934868"><ele>861.25</ele><time>2026-04-18T14:37:56.185Z</time></trkpt><trkpt lat="43.9350345" lon="11.6935966"><ele>856.5</ele><time>2026-04-18T14:37:57.185Z</time></trkpt><trkpt lat="43.9349245" lon="11.69369"><ele>851.75</ele><time>2026-04-18T14:37:58.185Z</time></trkpt><trkpt lat="43.9347955" lon="11.6937547"><ele>847.0</ele><time>2026-04-18T14:37:59.185Z</time></trkpt><trkpt lat="43.9346464" lon="11.6937807"><ele>847.0</ele><time>2026-04-18T14:38:00.184Z</time></trkpt><trkpt lat="43.9345113" lon="11.6938071"><ele>847.0</ele><time>2026-04-18T14:38:01.185Z</time></trkpt><trkpt lat="43.9344041" lon="11.6938876"><ele>847.0</ele><time>2026-04-18T14:38:02.185Z</time></trkpt><trkpt lat="43.93432" lon="11.6939955"><ele>847.0</ele><time>2026-04-18T14:38:03.185Z</time></trkpt><trkpt lat="43.9342429" lon="11.6940844"><ele>849.0</ele><time>2026-04-18T14:38:04.185Z</time></trkpt><trkpt lat="43.9341467" lon="11.6941268"><ele>851.0</ele><time>2026-04-18T14:38:05.184Z</time></trkpt><trkpt lat="43.934027" lon="11.6941037"><ele>853.0</ele><time>2026-04-18T14:38:06.185Z</time></trkpt><trkpt lat="43.9338984" lon="11.6940226"><ele>855.0</ele><time>2026-04-18T14:38:07.185Z</time></trkpt><trkpt lat="43.9337835" lon="11.6939208"><ele>855.0</ele><time>2026-04-18T14:38:08.184Z</time></trkpt><trkpt lat="43.9336853" lon="11.6938156"><ele>855.0</ele><time>2026-04-18T14:38:09.184Z</time></trkpt><trkpt lat="43.9336246" lon="11.6936773"><ele>855.0</ele><time>2026-04-18T14:38:10.185Z</time></trkpt><trkpt lat="43.9336093" lon="11.6935129"><ele>855.0</ele><time>2026-04-18T14:38:11.185Z</time></trkpt><trkpt lat="43.9336282" lon="11.6933215"><ele>863.0</ele><time>2026-04-18T14:38:12.185Z</time></trkpt><trkpt lat="43.9336631" lon="11.6931066"><ele>871.0</ele><time>2026-04-18T14:38:13.184Z</time></trkpt><trkpt lat="43.9337004" lon="11.6928757"><ele>879.0</ele><time>2026-04-18T14:38:14.184Z</time></trkpt><trkpt lat="43.9337375" lon="11.6926461"><ele>882.6666666666667</ele><time>2026-04-18T14:38:15.184Z</time></trkpt><trkpt lat="43.9337742" lon="11.6924177"><ele>886.3333333333334</ele><time>2026-04-18T14:38:16.185Z</time></trkpt><trkpt lat="43.9338099" lon="11.6922132"><ele>890.0</ele><time>2026-04-18T14:38:17.185Z</time></trkpt><trkpt lat="43.9338586" lon="11.6920268"><ele>890.4</ele><time>2026-04-18T14:38:18.184Z</time></trkpt><trkpt lat="43.9339262" lon="11.691874"><ele>890.8</ele><time>2026-04-18T14:38:19.185Z</time></trkpt><trkpt lat="43.933996" lon="11.6917471"><ele>891.2</ele><time>2026-04-18T14:38:20.184Z</time></trkpt><trkpt lat="43.9340399" lon="11.6916163"><ele>891.6</ele><time>2026-04-18T14:38:21.185Z</time></trkpt><trkpt lat="43.9340454" lon="11.6914806"><ele>892.0</ele><time>2026-04-18T14:38:22.185Z</time></trkpt><trkpt lat="43.9339878" lon="11.6913848"><ele>892.0</ele><time>2026-04-18T14:38:23.185Z</time></trkpt><trkpt lat="43.933903" lon="11.691311"><ele>892.0</ele><time>2026-04-18T14:38:24.185Z</time></trkpt><trkpt lat="43.933799" lon="11.6912698"><ele>892.0</ele><time>2026-04-18T14:38:25.185Z</time></trkpt><trkpt lat="43.9337116" lon="11.6912106"><ele>892.0</ele><time>2026-04-18T14:38:26.185Z</time></trkpt><trkpt lat="43.9336412" lon="11.6910907"><ele>892.0</ele><time>2026-04-18T14:38:27.185Z</time></trkpt><trkpt lat="43.933578" lon="11.6909305"><ele>894.6666666666666</ele><time>2026-04-18T14:38:28.185Z</time></trkpt><trkpt lat="43.9335636" lon="11.6907196"><ele>897.3333333333333</ele><time>2026-04-18T14:38:29.184Z</time></trkpt><trkpt lat="43.9335553" lon="11.6905064"><ele>900.0</ele><time>2026-04-18T14:38:30.185Z</time></trkpt><trkpt lat="43.9335748" lon="11.690287"><ele>900.3333333333333</ele><time>2026-04-18T14:38:31.185Z</time></trkpt><trkpt lat="43.9336254" lon="11.6900542"><ele>900.6666666666666</ele><time>2026-04-18T14:38:32.185Z</time></trkpt><trkpt lat="43.9336955" lon="11.6898025"><ele>901.0</ele><time>2026-04-18T14:38:33.185Z</time></trkpt><trkpt lat="43.9337661" lon="11.6895649"><ele>898.0</ele><time>2026-04-18T14:38:34.185Z</time></trkpt><trkpt lat="43.9338451" lon="11.6893078"><ele>895.0</ele><time>2026-04-18T14:38:35.185Z</time></trkpt><trkpt lat="43.9339109" lon="11.6890404"><ele>892.0</ele><time>2026-04-18T14:38:36.185Z</time></trkpt><trkpt lat="43.9339481" lon="11.6887941"><ele>888.75</ele><time>2026-04-18T14:38:37.185Z</time></trkpt><trkpt lat="43.9339573" lon="11.6885736"><ele>885.5</ele><time>2026-04-18T14:38:38.185Z</time></trkpt><trkpt lat="43.9339652" lon="11.6883993"><ele>882.25</ele><time>2026-04-18T14:38:39.185Z</time></trkpt><trkpt lat="43.9339937" lon="11.6882465"><ele>879.0</ele><time>2026-04-18T14:38:40.185Z</time></trkpt><trkpt lat="43.9340726" lon="11.6881201"><ele>879.0</ele><time>2026-04-18T14:38:41.185Z</time></trkpt><trkpt lat="43.9341867" lon="11.6880065"><ele>879.0</ele><time>2026-04-18T14:38:42.184Z</time></trkpt><trkpt lat="43.9343053" lon="11.6878957"><ele>879.0</ele><time>2026-04-18T14:38:43.186Z</time></trkpt><trkpt lat="43.9344086" lon="11.6877876"><ele>879.0</ele><time>2026-04-18T14:38:44.186Z</time></trkpt><trkpt lat="43.9344889" lon="11.6876799"><ele>884.4000000000001</ele><time>2026-04-18T14:38:45.186Z</time></trkpt><trkpt lat="43.9345383" lon="11.6875568"><ele>889.8000000000001</ele><time>2026-04-18T14:38:46.186Z</time></trkpt><trkpt lat="43.9345212" lon="11.6873976"><ele>895.1999999999999</ele><time>2026-04-18T14:38:47.186Z</time></trkpt><trkpt lat="43.9344844" lon="11.6872523"><ele>900.5999999999999</ele><time>2026-04-18T14:38:48.186Z</time></trkpt><trkpt lat="43.9344594" lon="11.6871215"><ele>906.0</ele><time>2026-04-18T14:38:49.185Z</time></trkpt><trkpt lat="43.9344819" lon="11.6869804"><ele>905.5</ele><time>2026-04-18T14:38:50.186Z</time></trkpt><trkpt lat="43.9345518" lon="11.6868425"><ele>905.0</ele><time>2026-04-18T14:38:51.185Z</time></trkpt><trkpt lat="43.9346666" lon="11.6867096"><ele>904.5</ele><time>2026-04-18T14:38:52.186Z</time></trkpt><trkpt lat="43.9347884" lon="11.6865917"><ele>904.0</ele><time>2026-04-18T14:38:53.186Z</time></trkpt><trkpt lat="43.9348981" lon="11.6864787"><ele>904.0</ele><time>2026-04-18T14:38:54.186Z</time></trkpt><trkpt lat="43.9349787" lon="11.6863739"><ele>904.0000000000001</ele><time>2026-04-18T14:38:55.186Z</time></trkpt><trkpt lat="43.9350211" lon="11.686253"><ele>904.0000000000001</ele><time>2026-04-18T14:38:56.186Z</time></trkpt><trkpt lat="43.9350162" lon="11.6861304"><ele>904.0</ele><time>2026-04-18T14:38:57.186Z</time></trkpt><trkpt lat="43.9349664" lon="11.686013"><ele>904.0</ele><time>2026-04-18T14:38:58.186Z</time></trkpt><trkpt lat="43.9348737" lon="11.6859125"><ele>900.6666666666666</ele><time>2026-04-18T14:38:59.186Z</time></trkpt><trkpt lat="43.9347378" lon="11.6858076"><ele>897.3333333333333</ele><time>2026-04-18T14:39:00.186Z</time></trkpt><trkpt lat="43.9346086" lon="11.6857033"><ele>894.0</ele><time>2026-04-18T14:39:01.186Z</time></trkpt><trkpt lat="43.9344705" lon="11.6856189"><ele>894.0</ele><time>2026-04-18T14:39:02.186Z</time></trkpt><trkpt lat="43.9343267" lon="11.6855921"><ele>894.0</ele><time>2026-04-18T14:39:03.186Z</time></trkpt><trkpt lat="43.9341735" lon="11.6856036"><ele>894.0</ele><time>2026-04-18T14:39:04.185Z</time></trkpt><trkpt lat="43.9339979" lon="11.6857029"><ele>893.6666666666667</ele><time>2026-04-18T14:39:05.186Z</time></trkpt><trkpt lat="43.9338288" lon="11.6857825"><ele>893.3333333333334</ele><time>2026-04-18T14:39:06.186Z</time></trkpt><trkpt lat="43.9336811" lon="11.6858607"><ele>893.0</ele><time>2026-04-18T14:39:07.186Z</time></trkpt><trkpt lat="43.9335513" lon="11.6859522"><ele>893.0</ele><time>2026-04-18T14:39:08.186Z</time></trkpt><trkpt lat="43.9334424" lon="11.6860713"><ele>893.0</ele><time>2026-04-18T14:39:09.186Z</time></trkpt><trkpt lat="43.9333663" lon="11.6862474"><ele>893.0</ele><time>2026-04-18T14:39:10.186Z</time></trkpt><trkpt lat="43.933382" lon="11.6864477"><ele>893.0</ele><time>2026-04-18T14:39:11.186Z</time></trkpt><trkpt lat="43.9333873" lon="11.6866428"><ele>892.25</ele><time>2026-04-18T14:39:12.186Z</time></trkpt><trkpt lat="43.9333767" lon="11.6868289"><ele>891.5</ele><time>2026-04-18T14:39:13.186Z</time></trkpt><trkpt lat="43.9333324" lon="11.6870039"><ele>890.75</ele><time>2026-04-18T14:39:14.185Z</time></trkpt><trkpt lat="43.9332287" lon="11.6871647"><ele>890.0</ele><time>2026-04-18T14:39:15.186Z</time></trkpt><trkpt lat="43.93311" lon="11.6873374"><ele>890.0</ele><time>2026-04-18T14:39:16.186Z</time></trkpt><trkpt lat="43.9329888" lon="11.6875403"><ele>890.0</ele><time>2026-04-18T14:39:17.185Z</time></trkpt><trkpt lat="43.9328751" lon="11.6877397"><ele>890.0</ele><time>2026-04-18T14:39:18.186Z</time></trkpt><trkpt lat="43.9327481" lon="11.6879196"><ele>892.75</ele><time>2026-04-18T14:39:19.186Z</time></trkpt><trkpt lat="43.9326158" lon="11.6880595"><ele>895.5</ele><time>2026-04-18T14:39:20.186Z</time></trkpt><trkpt lat="43.9324867" lon="11.688164"><ele>898.25</ele><time>2026-04-18T14:39:21.186Z</time></trkpt><trkpt lat="43.932366" lon="11.6882373"><ele>901.0</ele><time>2026-04-18T14:39:22.185Z</time></trkpt><trkpt lat="43.9322621" lon="11.6882921"><ele>901.0</ele><time>2026-04-18T14:39:23.186Z</time></trkpt><trkpt lat="43.932171" lon="11.6883051"><ele>901.0</ele><time>2026-04-18T14:39:24.186Z</time></trkpt><trkpt lat="43.9320866" lon="11.6882462"><ele>901.0</ele><time>2026-04-18T14:39:25.186Z</time></trkpt><trkpt lat="43.9320088" lon="11.6881147"><ele>901.0</ele><time>2026-04-18T14:39:26.185Z</time></trkpt><trkpt lat="43.9319402" lon="11.6879308"><ele>908.6666666666666</ele><time>2026-04-18T14:39:27.186Z</time></trkpt><trkpt lat="43.9318898" lon="11.6877051"><ele>916.3333333333333</ele><time>2026-04-18T14:39:28.185Z</time></trkpt><trkpt lat="43.931856" lon="11.6874484"><ele>924.0</ele><time>2026-04-18T14:39:29.185Z</time></trkpt><trkpt lat="43.9318109" lon="11.6871793"><ele>924.0</ele><time>2026-04-18T14:39:30.185Z</time></trkpt><trkpt lat="43.9317635" lon="11.6869514"><ele>924.0</ele><time>2026-04-18T14:39:31.186Z</time></trkpt><trkpt lat="43.9317408" lon="11.6867029"><ele>924.0</ele><time>2026-04-18T14:39:32.186Z</time></trkpt><trkpt lat="43.9317556" lon="11.6864269"><ele>927.6666666666667</ele><time>2026-04-18T14:39:33.186Z</time></trkpt><trkpt lat="43.9317823" lon="11.6861416"><ele>931.3333333333334</ele><time>2026-04-18T14:39:34.186Z</time></trkpt><trkpt lat="43.931807" lon="11.6858819"><ele>935.0</ele><time>2026-04-18T14:39:35.186Z</time></trkpt><trkpt lat="43.9318316" lon="11.6856427"><ele>936.3333333333334</ele><time>2026-04-18T14:39:36.186Z</time></trkpt><trkpt lat="43.931857" lon="11.6854272"><ele>937.6666666666667</ele><time>2026-04-18T14:39:37.186Z</time></trkpt><trkpt lat="43.9318568" lon="11.6852265"><ele>939.0</ele><time>2026-04-18T14:39:38.186Z</time></trkpt><trkpt lat="43.9318166" lon="11.6850129"><ele>942.0</ele><time>2026-04-18T14:39:39.185Z</time></trkpt><trkpt lat="43.9317537" lon="11.6848387"><ele>945.0</ele><time>2026-04-18T14:39:40.186Z</time></trkpt><trkpt lat="43.9316582" lon="11.6847054"><ele>948.0</ele><time>2026-04-18T14:39:41.186Z</time></trkpt><trkpt lat="43.9315418" lon="11.684614"><ele>951.0</ele><time>2026-04-18T14:39:42.186Z</time></trkpt><trkpt lat="43.9314308" lon="11.6845318"><ele>948.0</ele><time>2026-04-18T14:39:43.186Z</time></trkpt><trkpt lat="43.9313567" lon="11.6844189"><ele>945.0</ele><time>2026-04-18T14:39:44.186Z</time></trkpt><trkpt lat="43.9313002" lon="11.68427"><ele>942.0</ele><time>2026-04-18T14:39:45.186Z</time></trkpt><trkpt lat="43.9312764" lon="11.6841016"><ele>939.0</ele><time>2026-04-18T14:39:46.186Z</time></trkpt><trkpt lat="43.931292" lon="11.6839266"><ele>939.0</ele><time>2026-04-18T14:39:47.186Z</time></trkpt><trkpt lat="43.9313054" lon="11.6837462"><ele>939.0</ele><time>2026-04-18T14:39:48.186Z</time></trkpt><trkpt lat="43.9312844" lon="11.6835513"><ele>939.0</ele><time>2026-04-18T14:39:49.186Z</time></trkpt><trkpt lat="43.9312302" lon="11.6833522"><ele>939.0</ele><time>2026-04-18T14:39:50.186Z</time></trkpt><trkpt lat="43.931159" lon="11.6831529"><ele>937.0</ele><time>2026-04-18T14:39:51.186Z</time></trkpt><trkpt lat="43.9310634" lon="11.6829538"><ele>935.0</ele><time>2026-04-18T14:39:52.185Z</time></trkpt><trkpt lat="43.9309528" lon="11.6827458"><ele>933.0</ele><time>2026-04-18T14:39:53.186Z</time></trkpt><trkpt lat="43.9308525" lon="11.6825296"><ele>933.0</ele><time>2026-04-18T14:39:54.186Z</time></trkpt><trkpt lat="43.9307746" lon="11.6823119"><ele>933.0</ele><time>2026-04-18T14:39:55.184Z</time></trkpt><trkpt lat="43.9307189" lon="11.6821005"><ele>933.0</ele><time>2026-04-18T14:39:56.186Z</time></trkpt><trkpt lat="43.9306841" lon="11.6818761"><ele>935.3333333333333</ele><time>2026-04-18T14:39:57.185Z</time></trkpt><trkpt lat="43.9306676" lon="11.681664"><ele>937.6666666666666</ele><time>2026-04-18T14:39:58.186Z</time></trkpt><trkpt lat="43.9306774" lon="11.6814525"><ele>940.0</ele><time>2026-04-18T14:39:59.186Z</time></trkpt><trkpt lat="43.9307231" lon="11.6812241"><ele>941.3333333333333</ele><time>2026-04-18T14:40:00.186Z</time></trkpt><trkpt lat="43.9307908" lon="11.6809932"><ele>942.6666666666667</ele><time>2026-04-18T14:40:01.186Z</time></trkpt><trkpt lat="43.9308557" lon="11.6807502"><ele>944.0</ele><time>2026-04-18T14:40:02.185Z</time></trkpt><trkpt lat="43.9309176" lon="11.6804763"><ele>954.3333333333334</ele><time>2026-04-18T14:40:03.186Z</time></trkpt><trkpt lat="43.9309564" lon="11.6801928"><ele>964.6666666666667</ele><time>2026-04-18T14:40:04.186Z</time></trkpt><trkpt lat="43.9310062" lon="11.6798712"><ele>975.0</ele><time>2026-04-18T14:40:05.186Z</time></trkpt><trkpt lat="43.9310211" lon="11.6795566"><ele>973.6666666666667</ele><time>2026-04-18T14:40:06.186Z</time></trkpt><trkpt lat="43.9310632" lon="11.6792785"><ele>972.3333333333334</ele><time>2026-04-18T14:40:07.186Z</time></trkpt><trkpt lat="43.9311188" lon="11.6790193"><ele>971.0</ele><time>2026-04-18T14:40:08.186Z</time></trkpt><trkpt lat="43.9311772" lon="11.6787849"><ele>970.25</ele><time>2026-04-18T14:40:09.186Z</time></trkpt><trkpt lat="43.931234" lon="11.6785644"><ele>969.5</ele><time>2026-04-18T14:40:10.186Z</time></trkpt><trkpt lat="43.9312804" lon="11.6783718"><ele>968.75</ele><time>2026-04-18T14:40:11.186Z</time></trkpt><trkpt lat="43.9313163" lon="11.6781956"><ele>968.0</ele><time>2026-04-18T14:40:12.186Z</time></trkpt><trkpt lat="43.9313177" lon="11.6780217"><ele>968.0</ele><time>2026-04-18T14:40:13.186Z</time></trkpt><trkpt lat="43.931267" lon="11.6778466"><ele>968.0</ele><time>2026-04-18T14:40:14.185Z</time></trkpt><trkpt lat="43.9312149" lon="11.6776644"><ele>968.0</ele><time>2026-04-18T14:40:15.186Z</time></trkpt><trkpt lat="43.9311199" lon="11.6775084"><ele>968.0</ele><time>2026-04-18T14:40:16.186Z</time></trkpt><trkpt lat="43.9310843" lon="11.6773237"><ele>970.25</ele><time>2026-04-18T14:40:17.186Z</time></trkpt><trkpt lat="43.9310826" lon="11.6771301"><ele>972.5</ele><time>2026-04-18T14:40:18.186Z</time></trkpt><trkpt lat="43.9311101" lon="11.6769417"><ele>974.75</ele><time>2026-04-18T14:40:19.186Z</time></trkpt><trkpt lat="43.9311374" lon="11.6767843"><ele>977.0</ele><time>2026-04-18T14:40:20.186Z</time></trkpt><trkpt lat="43.9311327" lon="11.6766385"><ele>977.8</ele><time>2026-04-18T14:40:21.185Z</time></trkpt><trkpt lat="43.9310904" lon="11.6765231"><ele>978.6</ele><time>2026-04-18T14:40:22.186Z</time></trkpt><trkpt lat="43.9310106" lon="11.676453"><ele>979.3999999999999</ele><time>2026-04-18T14:40:23.186Z</time></trkpt><trkpt lat="43.9309371" lon="11.6763836"><ele>980.1999999999999</ele><time>2026-04-18T14:40:24.186Z</time></trkpt><trkpt lat="43.930831" lon="11.6765125"><ele>981.0</ele><time>2026-04-18T14:40:25.184Z</time></trkpt><trkpt lat="43.9307497" lon="11.6765345"><ele>976.25</ele><time>2026-04-18T14:40:26.186Z</time></trkpt><trkpt lat="43.9306473" lon="11.6765072"><ele>971.5</ele><time>2026-04-18T14:40:27.186Z</time></trkpt><trkpt lat="43.9305346" lon="11.676419"><ele>966.75</ele><time>2026-04-18T14:40:28.186Z</time></trkpt><trkpt lat="43.9304332" lon="11.6763243"><ele>962.0</ele><time>2026-04-18T14:40:29.186Z</time></trkpt><trkpt lat="43.9303397" lon="11.6762693"><ele>962.0</ele><time>2026-04-18T14:40:30.186Z</time></trkpt><trkpt lat="43.9302396" lon="11.6762626"><ele>962.0</ele><time>2026-04-18T14:40:31.186Z</time></trkpt><trkpt lat="43.9301505" lon="11.6763145"><ele>962.0</ele><time>2026-04-18T14:40:32.186Z</time></trkpt><trkpt lat="43.9300667" lon="11.6763988"><ele>962.0</ele><time>2026-04-18T14:40:33.186Z</time></trkpt><trkpt lat="43.9300194" lon="11.676551"><ele>962.0</ele><time>2026-04-18T14:40:34.185Z</time></trkpt><trkpt lat="43.9301124" lon="11.676731"><ele>962.0</ele><time>2026-04-18T14:40:35.186Z</time></trkpt><trkpt lat="43.9301647" lon="11.6769349"><ele>962.0</ele><time>2026-04-18T14:40:36.186Z</time></trkpt><trkpt lat="43.9302277" lon="11.6771723"><ele>962.0</ele><time>2026-04-18T14:40:37.186Z</time></trkpt><trkpt lat="43.9302732" lon="11.6774388"><ele>960.6666666666667</ele><time>2026-04-18T14:40:38.186Z</time></trkpt><trkpt lat="43.930304" lon="11.6776725"><ele>959.3333333333333</ele><time>2026-04-18T14:40:39.186Z</time></trkpt><trkpt lat="43.9303401" lon="11.6778867"><ele>958.0</ele><time>2026-04-18T14:40:40.186Z</time></trkpt><trkpt lat="43.9303645" lon="11.6780786"><ele>957.5999999999999</ele><time>2026-04-18T14:40:41.186Z</time></trkpt><trkpt lat="43.9303652" lon="11.6782354"><ele>957.1999999999999</ele><time>2026-04-18T14:40:42.186Z</time></trkpt><trkpt lat="43.9303028" lon="11.6783464"><ele>956.8</ele><time>2026-04-18T14:40:43.186Z</time></trkpt><trkpt lat="43.9302061" lon="11.6784216"><ele>956.4</ele><time>2026-04-18T14:40:44.185Z</time></trkpt><trkpt lat="43.9300886" lon="11.6784619"><ele>956.0</ele><time>2026-04-18T14:40:45.186Z</time></trkpt><trkpt lat="43.9299939" lon="11.6785326"><ele>957.0</ele><time>2026-04-18T14:40:46.186Z</time></trkpt><trkpt lat="43.9299188" lon="11.6786532"><ele>957.9999999999999</ele><time>2026-04-18T14:40:47.185Z</time></trkpt><trkpt lat="43.929849" lon="11.6787796"><ele>958.9999999999999</ele><time>2026-04-18T14:40:48.186Z</time></trkpt><trkpt lat="43.9298491" lon="11.678934"><ele>960.0</ele><time>2026-04-18T14:40:49.186Z</time></trkpt><trkpt lat="43.9297938" lon="11.6790345"><ele>961.0</ele><time>2026-04-18T14:40:50.186Z</time></trkpt><trkpt lat="43.9296928" lon="11.6790913"><ele>961.0</ele><time>2026-04-18T14:40:51.186Z</time></trkpt><trkpt lat="43.9295743" lon="11.6790797"><ele>961.0</ele><time>2026-04-18T14:40:52.186Z</time></trkpt><trkpt lat="43.9294295" lon="11.6790029"><ele>961.0</ele><time>2026-04-18T14:40:53.186Z</time></trkpt><trkpt lat="43.9293017" lon="11.6788884"><ele>961.0</ele><time>2026-04-18T14:40:54.186Z</time></trkpt><trkpt lat="43.9291901" lon="11.678759"><ele>962.5999999999999</ele><time>2026-04-18T14:40:55.185Z</time></trkpt><trkpt lat="43.9291079" lon="11.6786367"><ele>964.1999999999999</ele><time>2026-04-18T14:40:56.186Z</time></trkpt><trkpt lat="43.9290171" lon="11.6785497"><ele>965.8000000000001</ele><time>2026-04-18T14:40:57.186Z</time></trkpt><trkpt lat="43.9289152" lon="11.6785133"><ele>967.4000000000001</ele><time>2026-04-18T14:40:58.185Z</time></trkpt><trkpt lat="43.9288126" lon="11.6785157"><ele>969.0</ele><time>2026-04-18T14:40:59.185Z</time></trkpt><trkpt lat="43.9287207" lon="11.6785302"><ele>973.6</ele><time>2026-04-18T14:41:00.186Z</time></trkpt><trkpt lat="43.9286223" lon="11.6785272"><ele>978.2</ele><time>2026-04-18T14:41:01.186Z</time></trkpt><trkpt lat="43.9285209" lon="11.6784891"><ele>982.8000000000001</ele><time>2026-04-18T14:41:02.186Z</time></trkpt><trkpt lat="43.9284197" lon="11.6784389"><ele>987.4000000000001</ele><time>2026-04-18T14:41:03.185Z</time></trkpt><trkpt lat="43.9283225" lon="11.6783945"><ele>992.0</ele><time>2026-04-18T14:41:04.186Z</time></trkpt><trkpt lat="43.9282266" lon="11.678355"><ele>992.0000000000001</ele><time>2026-04-18T14:41:05.185Z</time></trkpt><trkpt lat="43.9281411" lon="11.6783191"><ele>992.0</ele><time>2026-04-18T14:41:06.185Z</time></trkpt><trkpt lat="43.92806" lon="11.6782798"><ele>992.0</ele><time>2026-04-18T14:41:07.186Z</time></trkpt><trkpt lat="43.9279807" lon="11.6782413"><ele>992.0</ele><time>2026-04-18T14:41:08.186Z</time></trkpt><trkpt lat="43.9278977" lon="11.6782072"><ele>992.0000000000001</ele><time>2026-04-18T14:41:09.186Z</time></trkpt><trkpt lat="43.9278181" lon="11.6781721"><ele>992.0</ele><time>2026-04-18T14:41:10.186Z</time></trkpt><trkpt lat="43.9277392" lon="11.6781377"><ele>992.0</ele><time>2026-04-18T14:41:11.186Z</time></trkpt><trkpt lat="43.927663" lon="11.6781077"><ele>992.0000000000001</ele><time>2026-04-18T14:41:12.186Z</time></trkpt><trkpt lat="43.9275886" lon="11.6780827"><ele>992.0</ele><time>2026-04-18T14:41:13.186Z</time></trkpt><trkpt lat="43.927518" lon="11.6780734"><ele>992.0</ele><time>2026-04-18T14:41:14.186Z</time></trkpt><trkpt lat="43.9274484" lon="11.6780787"><ele>992.0000000000001</ele><time>2026-04-18T14:41:15.186Z</time></trkpt><trkpt lat="43.9273791" lon="11.678107"><ele>992.0</ele><time>2026-04-18T14:41:16.186Z</time></trkpt><trkpt lat="43.9273147" lon="11.6781444"><ele>992.0</ele><time>2026-04-18T14:41:17.186Z</time></trkpt><trkpt lat="43.9272479" lon="11.6781909"><ele>990.8333333333334</ele><time>2026-04-18T14:41:18.185Z</time></trkpt><trkpt lat="43.9271737" lon="11.6782468"><ele>989.6666666666667</ele><time>2026-04-18T14:41:19.186Z</time></trkpt><trkpt lat="43.9270938" lon="11.6783095"><ele>988.5</ele><time>2026-04-18T14:41:20.186Z</time></trkpt><trkpt lat="43.927014" lon="11.6783704"><ele>987.3333333333333</ele><time>2026-04-18T14:41:21.186Z</time></trkpt><trkpt lat="43.9269361" lon="11.6784281"><ele>986.1666666666666</ele><time>2026-04-18T14:41:22.186Z</time></trkpt><trkpt lat="43.9268566" lon="11.6784805"><ele>985.0</ele><time>2026-04-18T14:41:23.186Z</time></trkpt><trkpt lat="43.926784" lon="11.6785355"><ele>985.6666666666666</ele><time>2026-04-18T14:41:24.186Z</time></trkpt><trkpt lat="43.9267183" lon="11.6785871"><ele>986.3333333333333</ele><time>2026-04-18T14:41:25.186Z</time></trkpt><trkpt lat="43.9266519" lon="11.678636"><ele>987.0</ele><time>2026-04-18T14:41:26.185Z</time></trkpt><trkpt lat="43.926587" lon="11.6786899"><ele>987.6666666666667</ele><time>2026-04-18T14:41:27.186Z</time></trkpt><trkpt lat="43.9265111" lon="11.6787642"><ele>988.3333333333334</ele><time>2026-04-18T14:41:28.186Z</time></trkpt><trkpt lat="43.9264332" lon="11.6788674"><ele>989.0</ele><time>2026-04-18T14:41:29.186Z</time></trkpt><trkpt lat="43.9263636" lon="11.678962"><ele>989.0000000000001</ele><time>2026-04-18T14:41:30.185Z</time></trkpt><trkpt lat="43.9263095" lon="11.6790447"><ele>989.0</ele><time>2026-04-18T14:41:31.186Z</time></trkpt><trkpt lat="43.9262562" lon="11.6791223"><ele>989.0</ele><time>2026-04-18T14:41:32.186Z</time></trkpt><trkpt lat="43.9262031" lon="11.6792011"><ele>989.0</ele><time>2026-04-18T14:41:33.186Z</time></trkpt><trkpt lat="43.9261457" lon="11.6792801"><ele>989.0000000000001</ele><time>2026-04-18T14:41:34.185Z</time></trkpt><trkpt lat="43.9260874" lon="11.6793657"><ele>989.0</ele><time>2026-04-18T14:41:35.185Z</time></trkpt><trkpt lat="43.9260292" lon="11.6794469"><ele>987.6666666666667</ele><time>2026-04-18T14:41:36.186Z</time></trkpt><trkpt lat="43.9259671" lon="11.6795215"><ele>986.3333333333334</ele><time>2026-04-18T14:41:37.186Z</time></trkpt><trkpt lat="43.925902" lon="11.6795871"><ele>985.0</ele><time>2026-04-18T14:41:38.186Z</time></trkpt><trkpt lat="43.9258397" lon="11.6796449"><ele>983.6666666666667</ele><time>2026-04-18T14:41:39.186Z</time></trkpt><trkpt lat="43.9257786" lon="11.6797033"><ele>982.3333333333334</ele><time>2026-04-18T14:41:40.186Z</time></trkpt><trkpt lat="43.9257251" lon="11.6797618"><ele>981.0</ele><time>2026-04-18T14:41:41.186Z</time></trkpt><trkpt lat="43.9256232" lon="11.6798571"><ele>981.0</ele><time>2026-04-18T14:41:43.186Z</time></trkpt><trkpt lat="43.9255087" lon="11.679911"><ele>981.0</ele><time>2026-04-18T14:41:45.186Z</time></trkpt><trkpt lat="43.9254387" lon="11.6798927"><ele>981.0</ele><time>2026-04-18T14:41:46.186Z</time></trkpt><trkpt lat="43.9253899" lon="11.6798315"><ele>981.0</ele><time>2026-04-18T14:41:47.186Z</time></trkpt><trkpt lat="43.9253761" lon="11.6797383"><ele>981.0</ele><time>2026-04-18T14:41:48.186Z</time></trkpt><trkpt lat="43.9254027" lon="11.6796436"><ele>981.0</ele><time>2026-04-18T14:41:49.185Z</time></trkpt><trkpt lat="43.9254657" lon="11.6795506"><ele>981.0</ele><time>2026-04-18T14:41:50.186Z</time></trkpt><trkpt lat="43.9255482" lon="11.6794601"><ele>981.0</ele><time>2026-04-18T14:41:51.186Z</time></trkpt><trkpt lat="43.9256401" lon="11.6793511"><ele>981.0</ele><time>2026-04-18T14:41:52.186Z</time></trkpt><trkpt lat="43.9257268" lon="11.6792072"><ele>981.0</ele><time>2026-04-18T14:41:53.186Z</time></trkpt><trkpt lat="43.9257887" lon="11.6790272"><ele>978.6666666666667</ele><time>2026-04-18T14:41:54.185Z</time></trkpt><trkpt lat="43.9258368" lon="11.6788137"><ele>976.3333333333334</ele><time>2026-04-18T14:41:55.185Z</time></trkpt><trkpt lat="43.9258781" lon="11.6785931"><ele>974.0</ele><time>2026-04-18T14:41:56.186Z</time></trkpt><trkpt lat="43.9259308" lon="11.6783692"><ele>974.0</ele><time>2026-04-18T14:41:57.186Z</time></trkpt><trkpt lat="43.9260016" lon="11.6781463"><ele>974.0</ele><time>2026-04-18T14:41:58.185Z</time></trkpt><trkpt lat="43.9260795" lon="11.6779311"><ele>974.0</ele><time>2026-04-18T14:41:59.185Z</time></trkpt><trkpt lat="43.9261589" lon="11.6777198"><ele>970.0</ele><time>2026-04-18T14:42:00.186Z</time></trkpt><trkpt lat="43.9262409" lon="11.6775165"><ele>966.0</ele><time>2026-04-18T14:42:01.185Z</time></trkpt><trkpt lat="43.9263187" lon="11.6773025"><ele>962.0</ele><time>2026-04-18T14:42:02.186Z</time></trkpt><trkpt lat="43.9264063" lon="11.6770976"><ele>957.6666666666667</ele><time>2026-04-18T14:42:03.186Z</time></trkpt><trkpt lat="43.926493" lon="11.6768989"><ele>953.3333333333333</ele><time>2026-04-18T14:42:04.186Z</time></trkpt><trkpt lat="43.9265892" lon="11.6767111"><ele>949.0</ele><time>2026-04-18T14:42:05.186Z</time></trkpt><trkpt lat="43.9266775" lon="11.6765159"><ele>952.3333333333333</ele><time>2026-04-18T14:42:06.186Z</time></trkpt><trkpt lat="43.9267591" lon="11.6763126"><ele>955.6666666666667</ele><time>2026-04-18T14:42:07.185Z</time></trkpt><trkpt lat="43.9268242" lon="11.6761027"><ele>959.0</ele><time>2026-04-18T14:42:08.186Z</time></trkpt><trkpt lat="43.9268798" lon="11.6758927"><ele>959.0</ele><time>2026-04-18T14:42:09.186Z</time></trkpt><trkpt lat="43.9269309" lon="11.6756856"><ele>959.0</ele><time>2026-04-18T14:42:10.186Z</time></trkpt><trkpt lat="43.9269815" lon="11.6754787"><ele>959.0</ele><time>2026-04-18T14:42:11.186Z</time></trkpt><trkpt lat="43.9270299" lon="11.6752806"><ele>955.3333333333334</ele><time>2026-04-18T14:42:12.186Z</time></trkpt><trkpt lat="43.9270642" lon="11.6750787"><ele>951.6666666666667</ele><time>2026-04-18T14:42:13.186Z</time></trkpt><trkpt lat="43.9270698" lon="11.674865"><ele>948.0</ele><time>2026-04-18T14:42:14.186Z</time></trkpt><trkpt lat="43.9270599" lon="11.674646"><ele>946.75</ele><time>2026-04-18T14:42:15.186Z</time></trkpt><trkpt lat="43.9270525" lon="11.6744363"><ele>945.5</ele><time>2026-04-18T14:42:16.186Z</time></trkpt><trkpt lat="43.9270467" lon="11.6742391"><ele>944.25</ele><time>2026-04-18T14:42:17.186Z</time></trkpt><trkpt lat="43.927039" lon="11.6740754"><ele>943.0</ele><time>2026-04-18T14:42:18.185Z</time></trkpt><trkpt lat="43.9270165" lon="11.6739301"><ele>943.0</ele><time>2026-04-18T14:42:19.186Z</time></trkpt><trkpt lat="43.9269565" lon="11.6738188"><ele>943.0</ele><time>2026-04-18T14:42:20.186Z</time></trkpt><trkpt lat="43.9268672" lon="11.67376"><ele>943.0</ele><time>2026-04-18T14:42:21.186Z</time></trkpt><trkpt lat="43.9267478" lon="11.6737514"><ele>943.0</ele><time>2026-04-18T14:42:22.186Z</time></trkpt><trkpt lat="43.9266052" lon="11.6737823"><ele>939.0</ele><time>2026-04-18T14:42:23.185Z</time></trkpt><trkpt lat="43.9264636" lon="11.673826"><ele>935.0</ele><time>2026-04-18T14:42:24.186Z</time></trkpt><trkpt lat="43.9263193" lon="11.6738641"><ele>931.0</ele><time>2026-04-18T14:42:25.186Z</time></trkpt><trkpt lat="43.9261687" lon="11.6738763"><ele>927.0</ele><time>2026-04-18T14:42:26.186Z</time></trkpt><trkpt lat="43.9260165" lon="11.6738567"><ele>927.25</ele><time>2026-04-18T14:42:27.185Z</time></trkpt><trkpt lat="43.9258625" lon="11.6738051"><ele>927.5</ele><time>2026-04-18T14:42:28.186Z</time></trkpt><trkpt lat="43.9257252" lon="11.6737349"><ele>927.75</ele><time>2026-04-18T14:42:29.186Z</time></trkpt><trkpt lat="43.9256045" lon="11.6736487"><ele>928.0</ele><time>2026-04-18T14:42:30.186Z</time></trkpt><trkpt lat="43.9255039" lon="11.6735402"><ele>928.0</ele><time>2026-04-18T14:42:31.186Z</time></trkpt><trkpt lat="43.92546" lon="11.6733813"><ele>928.0</ele><time>2026-04-18T14:42:32.186Z</time></trkpt><trkpt lat="43.9254299" lon="11.6731902"><ele>928.0</ele><time>2026-04-18T14:42:33.185Z</time></trkpt><trkpt lat="43.9254" lon="11.672983"><ele>928.0</ele><time>2026-04-18T14:42:34.186Z</time></trkpt><trkpt lat="43.9253766" lon="11.672785"><ele>928.25</ele><time>2026-04-18T14:42:35.186Z</time></trkpt><trkpt lat="43.9253826" lon="11.6726154"><ele>928.5</ele><time>2026-04-18T14:42:36.186Z</time></trkpt><trkpt lat="43.9254355" lon="11.6724747"><ele>928.75</ele><time>2026-04-18T14:42:37.186Z</time></trkpt><trkpt lat="43.9255282" lon="11.6723464"><ele>929.0</ele><time>2026-04-18T14:42:38.185Z</time></trkpt><trkpt lat="43.9256343" lon="11.6722296"><ele>929.0</ele><time>2026-04-18T14:42:39.185Z</time></trkpt><trkpt lat="43.9257229" lon="11.6721152"><ele>929.0000000000001</ele><time>2026-04-18T14:42:40.186Z</time></trkpt><trkpt lat="43.9257725" lon="11.6719842"><ele>929.0000000000001</ele><time>2026-04-18T14:42:41.186Z</time></trkpt><trkpt lat="43.9257752" lon="11.6718405"><ele>929.0</ele><time>2026-04-18T14:42:42.186Z</time></trkpt><trkpt lat="43.925731" lon="11.6717059"><ele>929.0</ele><time>2026-04-18T14:42:43.186Z</time></trkpt><trkpt lat="43.9256512" lon="11.6715554"><ele>929.25</ele><time>2026-04-18T14:42:44.186Z</time></trkpt><trkpt lat="43.9255629" lon="11.6713933"><ele>929.5</ele><time>2026-04-18T14:42:45.185Z</time></trkpt><trkpt lat="43.9254852" lon="11.6712315"><ele>929.75</ele><time>2026-04-18T14:42:46.186Z</time></trkpt><trkpt lat="43.9254363" lon="11.6710556"><ele>930.0</ele><time>2026-04-18T14:42:47.186Z</time></trkpt><trkpt lat="43.92543" lon="11.6708473"><ele>930.0</ele><time>2026-04-18T14:42:48.186Z</time></trkpt><trkpt lat="43.9254514" lon="11.6706181"><ele>930.0</ele><time>2026-04-18T14:42:49.186Z</time></trkpt><trkpt lat="43.9254811" lon="11.670397"><ele>930.0</ele><time>2026-04-18T14:42:50.185Z</time></trkpt><trkpt lat="43.9255116" lon="11.6701889"><ele>925.75</ele><time>2026-04-18T14:42:51.186Z</time></trkpt><trkpt lat="43.9255571" lon="11.6700194"><ele>921.5</ele><time>2026-04-18T14:42:52.186Z</time></trkpt><trkpt lat="43.9256454" lon="11.669871"><ele>917.25</ele><time>2026-04-18T14:42:53.186Z</time></trkpt><trkpt lat="43.9257496" lon="11.6697617"><ele>913.0</ele><time>2026-04-18T14:42:54.186Z</time></trkpt><trkpt lat="43.9258685" lon="11.6697135"><ele>916.25</ele><time>2026-04-18T14:42:55.186Z</time></trkpt><trkpt lat="43.9259967" lon="11.6697089"><ele>919.5</ele><time>2026-04-18T14:42:56.186Z</time></trkpt><trkpt lat="43.9261165" lon="11.6697061"><ele>922.75</ele><time>2026-04-18T14:42:57.186Z</time></trkpt><trkpt lat="43.9262313" lon="11.6696643"><ele>926.0</ele><time>2026-04-18T14:42:58.186Z</time></trkpt><trkpt lat="43.9263269" lon="11.6695553"><ele>918.0</ele><time>2026-04-18T14:42:59.186Z</time></trkpt><trkpt lat="43.926412" lon="11.6693957"><ele>910.0</ele><time>2026-04-18T14:43:00.186Z</time></trkpt><trkpt lat="43.9264961" lon="11.6692112"><ele>902.0</ele><time>2026-04-18T14:43:01.186Z</time></trkpt><trkpt lat="43.9265799" lon="11.6690365"><ele>902.0</ele><time>2026-04-18T14:43:02.185Z</time></trkpt><trkpt lat="43.9266613" lon="11.6688706"><ele>902.0</ele><time>2026-04-18T14:43:03.186Z</time></trkpt><trkpt lat="43.9267438" lon="11.6687266"><ele>902.0</ele><time>2026-04-18T14:43:04.186Z</time></trkpt><trkpt lat="43.926845" lon="11.6686335"><ele>902.0</ele><time>2026-04-18T14:43:05.186Z</time></trkpt><trkpt lat="43.9269682" lon="11.6685932"><ele>905.75</ele><time>2026-04-18T14:43:06.186Z</time></trkpt><trkpt lat="43.9270953" lon="11.6686125"><ele>909.5</ele><time>2026-04-18T14:43:07.185Z</time></trkpt><trkpt lat="43.9272209" lon="11.6686561"><ele>913.25</ele><time>2026-04-18T14:43:08.186Z</time></trkpt><trkpt lat="43.9273432" lon="11.6686936"><ele>917.0</ele><time>2026-04-18T14:43:09.186Z</time></trkpt><trkpt lat="43.9274713" lon="11.6687009"><ele>916.25</ele><time>2026-04-18T14:43:10.186Z</time></trkpt><trkpt lat="43.9276007" lon="11.6686554"><ele>915.5</ele><time>2026-04-18T14:43:11.186Z</time></trkpt><trkpt lat="43.9277216" lon="11.6685524"><ele>914.75</ele><time>2026-04-18T14:43:12.186Z</time></trkpt><trkpt lat="43.927843" lon="11.6684114"><ele>914.0</ele><time>2026-04-18T14:43:13.186Z</time></trkpt><trkpt lat="43.9279618" lon="11.6682537"><ele>914.0</ele><time>2026-04-18T14:43:14.186Z</time></trkpt><trkpt lat="43.928089" lon="11.6680883"><ele>914.0</ele><time>2026-04-18T14:43:15.186Z</time></trkpt><trkpt lat="43.9282119" lon="11.6679334"><ele>914.0</ele><time>2026-04-18T14:43:16.186Z</time></trkpt><trkpt lat="43.9283287" lon="11.667784"><ele>916.75</ele><time>2026-04-18T14:43:17.186Z</time></trkpt><trkpt lat="43.9284327" lon="11.6676535"><ele>919.5</ele><time>2026-04-18T14:43:18.185Z</time></trkpt><trkpt lat="43.9285083" lon="11.6675393"><ele>922.25</ele><time>2026-04-18T14:43:19.186Z</time></trkpt><trkpt lat="43.9285461" lon="11.6674106"><ele>925.0</ele><time>2026-04-18T14:43:20.186Z</time></trkpt><trkpt lat="43.92854" lon="11.6672585"><ele>925.0</ele><time>2026-04-18T14:43:21.186Z</time></trkpt><trkpt lat="43.928487" lon="11.6671067"><ele>925.0</ele><time>2026-04-18T14:43:22.186Z</time></trkpt><trkpt lat="43.9284213" lon="11.6669723"><ele>925.0</ele><time>2026-04-18T14:43:23.185Z</time></trkpt><trkpt lat="43.9283863" lon="11.6668246"><ele>925.0</ele><time>2026-04-18T14:43:24.186Z</time></trkpt><trkpt lat="43.9283865" lon="11.6666605"><ele>920.6</ele><time>2026-04-18T14:43:25.185Z</time></trkpt><trkpt lat="43.9283928" lon="11.666508"><ele>916.2</ele><time>2026-04-18T14:43:26.186Z</time></trkpt><trkpt lat="43.9283628" lon="11.6663711"><ele>911.8</ele><time>2026-04-18T14:43:27.186Z</time></trkpt><trkpt lat="43.928293" lon="11.6662562"><ele>907.4</ele><time>2026-04-18T14:43:28.186Z</time></trkpt><trkpt lat="43.9282051" lon="11.6661476"><ele>903.0</ele><time>2026-04-18T14:43:29.186Z</time></trkpt><trkpt lat="43.9281374" lon="11.6660113"><ele>903.0</ele><time>2026-04-18T14:43:30.186Z</time></trkpt><trkpt lat="43.9280961" lon="11.665861"><ele>903.0</ele><time>2026-04-18T14:43:31.186Z</time></trkpt><trkpt lat="43.928066" lon="11.6657269"><ele>903.0</ele><time>2026-04-18T14:43:32.186Z</time></trkpt><trkpt lat="43.9280217" lon="11.6656295"><ele>903.0</ele><time>2026-04-18T14:43:33.185Z</time></trkpt><trkpt lat="43.9279503" lon="11.6655786"><ele>903.0</ele><time>2026-04-18T14:43:34.186Z</time></trkpt><trkpt lat="43.9278712" lon="11.6655929"><ele>903.0</ele><time>2026-04-18T14:43:35.186Z</time></trkpt><trkpt lat="43.9277819" lon="11.6656659"><ele>903.0</ele><time>2026-04-18T14:43:36.186Z</time></trkpt><trkpt lat="43.9276895" lon="11.665771"><ele>903.0</ele><time>2026-04-18T14:43:37.186Z</time></trkpt><trkpt lat="43.9276034" lon="11.6658674"><ele>903.0</ele><time>2026-04-18T14:43:38.186Z</time></trkpt><trkpt lat="43.9275162" lon="11.6659435"><ele>903.0</ele><time>2026-04-18T14:43:39.186Z</time></trkpt><trkpt lat="43.9274281" lon="11.6659754"><ele>895.75</ele><time>2026-04-18T14:43:40.186Z</time></trkpt><trkpt lat="43.9273312" lon="11.6659299"><ele>888.5</ele><time>2026-04-18T14:43:41.186Z</time></trkpt><trkpt lat="43.9272489" lon="11.6658171"><ele>881.25</ele><time>2026-04-18T14:43:42.186Z</time></trkpt><trkpt lat="43.9271845" lon="11.6656455"><ele>874.0</ele><time>2026-04-18T14:43:43.185Z</time></trkpt><trkpt lat="43.9271547" lon="11.6654612"><ele>880.25</ele><time>2026-04-18T14:43:44.186Z</time></trkpt><trkpt lat="43.9271338" lon="11.6652731"><ele>886.5</ele><time>2026-04-18T14:43:45.186Z</time></trkpt><trkpt lat="43.9270852" lon="11.6650995"><ele>892.75</ele><time>2026-04-18T14:43:46.186Z</time></trkpt><trkpt lat="43.9270063" lon="11.6649576"><ele>899.0</ele><time>2026-04-18T14:43:47.186Z</time></trkpt><trkpt lat="43.9269154" lon="11.6648343"><ele>899.0</ele><time>2026-04-18T14:43:48.186Z</time></trkpt><trkpt lat="43.926851" lon="11.6646896"><ele>899.0</ele><time>2026-04-18T14:43:49.186Z</time></trkpt><trkpt lat="43.9268208" lon="11.6645184"><ele>899.0</ele><time>2026-04-18T14:43:50.185Z</time></trkpt><trkpt lat="43.9268023" lon="11.6643553"><ele>899.0</ele><time>2026-04-18T14:43:51.186Z</time></trkpt><trkpt lat="43.9267804" lon="11.6641928"><ele>903.5</ele><time>2026-04-18T14:43:52.186Z</time></trkpt><trkpt lat="43.9267589" lon="11.6640269"><ele>908.0</ele><time>2026-04-18T14:43:53.186Z</time></trkpt><trkpt lat="43.9267499" lon="11.663861"><ele>912.5</ele><time>2026-04-18T14:43:54.185Z</time></trkpt><trkpt lat="43.9267679" lon="11.6637079"><ele>917.0</ele><time>2026-04-18T14:43:55.186Z</time></trkpt><trkpt lat="43.9267894" lon="11.6635616"><ele>917.0</ele><time>2026-04-18T14:43:56.186Z</time></trkpt><trkpt lat="43.9267734" lon="11.6634085"><ele>917.0</ele><time>2026-04-18T14:43:57.185Z</time></trkpt><trkpt lat="43.926722" lon="11.6632625"><ele>917.0</ele><time>2026-04-18T14:43:58.186Z</time></trkpt><trkpt lat="43.92665" lon="11.6631226"><ele>917.0</ele><time>2026-04-18T14:43:59.186Z</time></trkpt><trkpt lat="43.9265712" lon="11.6629812"><ele>906.5</ele><time>2026-04-18T14:44:00.186Z</time></trkpt><trkpt lat="43.926501" lon="11.6628333"><ele>896.0</ele><time>2026-04-18T14:44:01.186Z</time></trkpt><trkpt lat="43.9264438" lon="11.6626801"><ele>885.5</ele><time>2026-04-18T14:44:02.185Z</time></trkpt><trkpt lat="43.9264011" lon="11.6625295"><ele>875.0</ele><time>2026-04-18T14:44:03.185Z</time></trkpt><trkpt lat="43.9263587" lon="11.662387"><ele>875.0</ele><time>2026-04-18T14:44:04.186Z</time></trkpt><trkpt lat="43.9262881" lon="11.6622768"><ele>875.0</ele><time>2026-04-18T14:44:05.186Z</time></trkpt><trkpt lat="43.9261975" lon="11.6622182"><ele>875.0</ele><time>2026-04-18T14:44:06.186Z</time></trkpt><trkpt lat="43.9260858" lon="11.6622049"><ele>875.0</ele><time>2026-04-18T14:44:07.186Z</time></trkpt><trkpt lat="43.9259577" lon="11.6622144"><ele>875.0</ele><time>2026-04-18T14:44:08.186Z</time></trkpt><trkpt lat="43.9258274" lon="11.6622075"><ele>867.75</ele><time>2026-04-18T14:44:09.186Z</time></trkpt><trkpt lat="43.9256978" lon="11.6621836"><ele>860.5</ele><time>2026-04-18T14:44:10.186Z</time></trkpt><trkpt lat="43.9255746" lon="11.6621641"><ele>853.25</ele><time>2026-04-18T14:44:11.186Z</time></trkpt><trkpt lat="43.9254579" lon="11.6621804"><ele>846.0</ele><time>2026-04-18T14:44:12.186Z</time></trkpt><trkpt lat="43.9253458" lon="11.6622192"><ele>846.0</ele><time>2026-04-18T14:44:13.185Z</time></trkpt><trkpt lat="43.9252326" lon="11.6622475"><ele>846.0</ele><time>2026-04-18T14:44:14.185Z</time></trkpt><trkpt lat="43.9251154" lon="11.6622358"><ele>846.0</ele><time>2026-04-18T14:44:15.186Z</time></trkpt><trkpt lat="43.9249948" lon="11.6621974"><ele>846.0</ele><time>2026-04-18T14:44:16.186Z</time></trkpt><trkpt lat="43.9248758" lon="11.6621522"><ele>843.25</ele><time>2026-04-18T14:44:17.186Z</time></trkpt><trkpt lat="43.9247553" lon="11.6621141"><ele>840.5</ele><time>2026-04-18T14:44:18.186Z</time></trkpt><trkpt lat="43.9246315" lon="11.6620882"><ele>837.75</ele><time>2026-04-18T14:44:19.185Z</time></trkpt><trkpt lat="43.9245067" lon="11.6620715"><ele>835.0</ele><time>2026-04-18T14:44:20.185Z</time></trkpt><trkpt lat="43.9243866" lon="11.6620518"><ele>835.0</ele><time>2026-04-18T14:44:21.186Z</time></trkpt><trkpt lat="43.9242702" lon="11.6620307"><ele>835.0</ele><time>2026-04-18T14:44:22.186Z</time></trkpt><trkpt lat="43.9241584" lon="11.6620031"><ele>835.0</ele><time>2026-04-18T14:44:23.186Z</time></trkpt><trkpt lat="43.9240524" lon="11.6619794"><ele>835.0</ele><time>2026-04-18T14:44:24.186Z</time></trkpt><trkpt lat="43.9239584" lon="11.6619557"><ele>835.0</ele><time>2026-04-18T14:44:25.185Z</time></trkpt><trkpt lat="43.9238747" lon="11.6619301"><ele>834.8333333333333</ele><time>2026-04-18T14:44:26.186Z</time></trkpt><trkpt lat="43.9238132" lon="11.6618626"><ele>834.6666666666666</ele><time>2026-04-18T14:44:27.186Z</time></trkpt><trkpt lat="43.9237821" lon="11.661766"><ele>834.5</ele><time>2026-04-18T14:44:28.186Z</time></trkpt><trkpt lat="43.9237887" lon="11.6616593"><ele>834.3333333333333</ele><time>2026-04-18T14:44:29.185Z</time></trkpt><trkpt lat="43.9238365" lon="11.6615867"><ele>834.1666666666666</ele><time>2026-04-18T14:44:30.186Z</time></trkpt><trkpt lat="43.9239152" lon="11.6615707"><ele>834.0</ele><time>2026-04-18T14:44:31.185Z</time></trkpt><trkpt lat="43.9240209" lon="11.66159"><ele>834.0</ele><time>2026-04-18T14:44:32.185Z</time></trkpt><trkpt lat="43.9241329" lon="11.6616077"><ele>834.0</ele><time>2026-04-18T14:44:33.186Z</time></trkpt><trkpt lat="43.9242633" lon="11.661596"><ele>834.0</ele><time>2026-04-18T14:44:34.186Z</time></trkpt><trkpt lat="43.9244024" lon="11.6615432"><ele>834.0</ele><time>2026-04-18T14:44:35.186Z</time></trkpt><trkpt lat="43.9245382" lon="11.6614652"><ele>834.25</ele><time>2026-04-18T14:44:36.185Z</time></trkpt><trkpt lat="43.9246636" lon="11.6613938"><ele>834.5</ele><time>2026-04-18T14:44:37.186Z</time></trkpt><trkpt lat="43.9247882" lon="11.6613541"><ele>834.75</ele><time>2026-04-18T14:44:38.185Z</time></trkpt><trkpt lat="43.9249178" lon="11.6613647"><ele>835.0</ele><time>2026-04-18T14:44:39.186Z</time></trkpt><trkpt lat="43.9250334" lon="11.6614164"><ele>837.25</ele><time>2026-04-18T14:44:40.186Z</time></trkpt><trkpt lat="43.9251356" lon="11.6614891"><ele>839.5</ele><time>2026-04-18T14:44:41.186Z</time></trkpt><trkpt lat="43.9252445" lon="11.6615448"><ele>841.75</ele><time>2026-04-18T14:44:42.186Z</time></trkpt><trkpt lat="43.9253637" lon="11.6615552"><ele>844.0</ele><time>2026-04-18T14:44:43.186Z</time></trkpt><trkpt lat="43.9254896" lon="11.6615118"><ele>844.0</ele><time>2026-04-18T14:44:44.186Z</time></trkpt><trkpt lat="43.9256101" lon="11.6614161"><ele>844.0</ele><time>2026-04-18T14:44:45.186Z</time></trkpt><trkpt lat="43.9257274" lon="11.6612732"><ele>844.0</ele><time>2026-04-18T14:44:46.186Z</time></trkpt><trkpt lat="43.9258469" lon="11.6611332"><ele>842.0</ele><time>2026-04-18T14:44:47.186Z</time></trkpt><trkpt lat="43.9259747" lon="11.6610259"><ele>840.0</ele><time>2026-04-18T14:44:48.186Z</time></trkpt><trkpt lat="43.9261123" lon="11.6609528"><ele>838.0</ele><time>2026-04-18T14:44:49.186Z</time></trkpt><trkpt lat="43.9262498" lon="11.6608922"><ele>836.0</ele><time>2026-04-18T14:44:50.186Z</time></trkpt><trkpt lat="43.9263821" lon="11.6608362"><ele>836.0</ele><time>2026-04-18T14:44:51.186Z</time></trkpt><trkpt lat="43.9265039" lon="11.6607691"><ele>836.0</ele><time>2026-04-18T14:44:52.186Z</time></trkpt><trkpt lat="43.9266104" lon="11.660673"><ele>836.0</ele><time>2026-04-18T14:44:53.186Z</time></trkpt><trkpt lat="43.9267028" lon="11.6605437"><ele>836.0</ele><time>2026-04-18T14:44:54.186Z</time></trkpt><trkpt lat="43.9267847" lon="11.6603887"><ele>834.25</ele><time>2026-04-18T14:44:55.185Z</time></trkpt><trkpt lat="43.926869" lon="11.6602286"><ele>832.5</ele><time>2026-04-18T14:44:56.186Z</time></trkpt><trkpt lat="43.92696" lon="11.6600777"><ele>830.75</ele><time>2026-04-18T14:44:57.186Z</time></trkpt><trkpt lat="43.9270616" lon="11.6599441"><ele>829.0</ele><time>2026-04-18T14:44:58.186Z</time></trkpt><trkpt lat="43.9271757" lon="11.6598315"><ele>829.0</ele><time>2026-04-18T14:44:59.186Z</time></trkpt><trkpt lat="43.9273008" lon="11.6597382"><ele>829.0</ele><time>2026-04-18T14:45:00.185Z</time></trkpt><trkpt lat="43.9274321" lon="11.6596501"><ele>829.0</ele><time>2026-04-18T14:45:01.186Z</time></trkpt><trkpt lat="43.9275714" lon="11.659575"><ele>829.0</ele><time>2026-04-18T14:45:02.186Z</time></trkpt><trkpt lat="43.9277167" lon="11.659522"><ele>833.25</ele><time>2026-04-18T14:45:03.185Z</time></trkpt><trkpt lat="43.9278602" lon="11.659494"><ele>837.5</ele><time>2026-04-18T14:45:04.186Z</time></trkpt><trkpt lat="43.9279796" lon="11.6594792"><ele>841.75</ele><time>2026-04-18T14:45:05.186Z</time></trkpt><trkpt lat="43.9280973" lon="11.6594568"><ele>846.0</ele><time>2026-04-18T14:45:06.186Z</time></trkpt><trkpt lat="43.9282097" lon="11.6594139"><ele>842.5</ele><time>2026-04-18T14:45:07.185Z</time></trkpt><trkpt lat="43.9283149" lon="11.6593394"><ele>839.0</ele><time>2026-04-18T14:45:08.186Z</time></trkpt><trkpt lat="43.9284157" lon="11.6592442"><ele>835.5</ele><time>2026-04-18T14:45:09.185Z</time></trkpt><trkpt lat="43.9285192" lon="11.659133"><ele>832.0</ele><time>2026-04-18T14:45:10.186Z</time></trkpt><trkpt lat="43.9286311" lon="11.6590192"><ele>832.0</ele><time>2026-04-18T14:45:11.185Z</time></trkpt><trkpt lat="43.9287473" lon="11.6589007"><ele>832.0</ele><time>2026-04-18T14:45:12.186Z</time></trkpt><trkpt lat="43.9288621" lon="11.6587746"><ele>832.0</ele><time>2026-04-18T14:45:13.186Z</time></trkpt><trkpt lat="43.9289689" lon="11.6586371"><ele>832.0</ele><time>2026-04-18T14:45:14.186Z</time></trkpt><trkpt lat="43.9290737" lon="11.6585024"><ele>825.0</ele><time>2026-04-18T14:45:15.185Z</time></trkpt><trkpt lat="43.9291647" lon="11.6583241"><ele>818.0</ele><time>2026-04-18T14:45:16.186Z</time></trkpt><trkpt lat="43.929209" lon="11.6580759"><ele>811.0</ele><time>2026-04-18T14:45:17.186Z</time></trkpt><trkpt lat="43.9292502" lon="11.6578718"><ele>820.0</ele><time>2026-04-18T14:45:18.186Z</time></trkpt><trkpt lat="43.9292738" lon="11.6576244"><ele>829.0</ele><time>2026-04-18T14:45:19.186Z</time></trkpt><trkpt lat="43.9292732" lon="11.6574036"><ele>838.0</ele><time>2026-04-18T14:45:20.186Z</time></trkpt><trkpt lat="43.9292762" lon="11.6571674"><ele>832.0</ele><time>2026-04-18T14:45:21.186Z</time></trkpt><trkpt lat="43.9292824" lon="11.6569444"><ele>826.0</ele><time>2026-04-18T14:45:22.186Z</time></trkpt><trkpt lat="43.9292958" lon="11.6567141"><ele>820.0</ele><time>2026-04-18T14:45:23.186Z</time></trkpt><trkpt lat="43.9293258" lon="11.6564822"><ele>820.0</ele><time>2026-04-18T14:45:24.185Z</time></trkpt><trkpt lat="43.929367" lon="11.6562545"><ele>820.0</ele><time>2026-04-18T14:45:25.186Z</time></trkpt><trkpt lat="43.9294121" lon="11.6560326"><ele>820.0</ele><time>2026-04-18T14:45:26.186Z</time></trkpt><trkpt lat="43.9294533" lon="11.6558094"><ele>818.75</ele><time>2026-04-18T14:45:27.186Z</time></trkpt><trkpt lat="43.9294939" lon="11.6555929"><ele>817.5</ele><time>2026-04-18T14:45:28.185Z</time></trkpt><trkpt lat="43.929533" lon="11.6553904"><ele>816.25</ele><time>2026-04-18T14:45:29.186Z</time></trkpt><trkpt lat="43.9295673" lon="11.6552079"><ele>815.0</ele><time>2026-04-18T14:45:30.186Z</time></trkpt><trkpt lat="43.9295923" lon="11.6550422"><ele>815.0</ele><time>2026-04-18T14:45:31.185Z</time></trkpt><trkpt lat="43.9295836" lon="11.6548944"><ele>815.0</ele><time>2026-04-18T14:45:32.186Z</time></trkpt><trkpt lat="43.9295359" lon="11.6547494"><ele>815.0</ele><time>2026-04-18T14:45:33.186Z</time></trkpt><trkpt lat="43.929488" lon="11.6546127"><ele>815.0</ele><time>2026-04-18T14:45:34.186Z</time></trkpt><trkpt lat="43.9293387" lon="11.6545167"><ele>808.5</ele><time>2026-04-18T14:45:35.186Z</time></trkpt><trkpt lat="43.9292099" lon="11.6544143"><ele>802.0</ele><time>2026-04-18T14:45:36.185Z</time></trkpt><trkpt lat="43.9290769" lon="11.6543203"><ele>795.5</ele><time>2026-04-18T14:45:37.186Z</time></trkpt><trkpt lat="43.9289548" lon="11.6542355"><ele>789.0</ele><time>2026-04-18T14:45:38.186Z</time></trkpt><trkpt lat="43.9288354" lon="11.6541607"><ele>789.0</ele><time>2026-04-18T14:45:39.186Z</time></trkpt><trkpt lat="43.9287236" lon="11.6540909"><ele>789.0</ele><time>2026-04-18T14:45:40.186Z</time></trkpt><trkpt lat="43.9286222" lon="11.6540218"><ele>789.0</ele><time>2026-04-18T14:45:41.186Z</time></trkpt><trkpt lat="43.9285486" lon="11.6539328"><ele>789.0</ele><time>2026-04-18T14:45:42.186Z</time></trkpt><trkpt lat="43.9285144" lon="11.6538131"><ele>789.0</ele><time>2026-04-18T14:45:43.186Z</time></trkpt><trkpt lat="43.9285155" lon="11.6536592"><ele>792.5</ele><time>2026-04-18T14:45:44.186Z</time></trkpt><trkpt lat="43.9285425" lon="11.6534937"><ele>796.0</ele><time>2026-04-18T14:45:45.185Z</time></trkpt><trkpt lat="43.9285844" lon="11.6533323"><ele>799.5</ele><time>2026-04-18T14:45:46.186Z</time></trkpt><trkpt lat="43.9286431" lon="11.6531796"><ele>803.0</ele><time>2026-04-18T14:45:47.186Z</time></trkpt><trkpt lat="43.9287221" lon="11.6530445"><ele>803.0</ele><time>2026-04-18T14:45:48.186Z</time></trkpt><trkpt lat="43.9288028" lon="11.6529177"><ele>803.0</ele><time>2026-04-18T14:45:49.185Z</time></trkpt><trkpt lat="43.928875" lon="11.6527931"><ele>803.0</ele><time>2026-04-18T14:45:50.186Z</time></trkpt><trkpt lat="43.9289253" lon="11.6526526"><ele>803.0</ele><time>2026-04-18T14:45:51.186Z</time></trkpt><trkpt lat="43.9289441" lon="11.6524958"><ele>799.2</ele><time>2026-04-18T14:45:52.186Z</time></trkpt><trkpt lat="43.9289313" lon="11.6523401"><ele>795.4</ele><time>2026-04-18T14:45:53.185Z</time></trkpt><trkpt lat="43.9289115" lon="11.6521883"><ele>791.6</ele><time>2026-04-18T14:45:54.185Z</time></trkpt><trkpt lat="43.9289253" lon="11.6520403"><ele>787.8000000000001</ele><time>2026-04-18T14:45:55.186Z</time></trkpt><trkpt lat="43.9289806" lon="11.6519079"><ele>784.0</ele><time>2026-04-18T14:45:56.186Z</time></trkpt><trkpt lat="43.9290688" lon="11.6518089"><ele>780.0</ele><time>2026-04-18T14:45:57.186Z</time></trkpt><trkpt lat="43.9291649" lon="11.6517317"><ele>776.0</ele><time>2026-04-18T14:45:58.186Z</time></trkpt><trkpt lat="43.9292482" lon="11.6516218"><ele>772.0</ele><time>2026-04-18T14:45:59.186Z</time></trkpt><trkpt lat="43.9293115" lon="11.6514656"><ele>768.0</ele><time>2026-04-18T14:46:00.186Z</time></trkpt><trkpt lat="43.9293702" lon="11.6512771"><ele>772.0</ele><time>2026-04-18T14:46:01.186Z</time></trkpt><trkpt lat="43.9294289" lon="11.6510773"><ele>776.0</ele><time>2026-04-18T14:46:02.186Z</time></trkpt><trkpt lat="43.9294801" lon="11.6508869"><ele>780.0</ele><time>2026-04-18T14:46:03.186Z</time></trkpt><trkpt lat="43.9295261" lon="11.6506948"><ele>784.0</ele><time>2026-04-18T14:46:04.186Z</time></trkpt><trkpt lat="43.9295635" lon="11.6505061"><ele>784.0</ele><time>2026-04-18T14:46:05.185Z</time></trkpt><trkpt lat="43.9295912" lon="11.650319"><ele>784.0</ele><time>2026-04-18T14:46:06.185Z</time></trkpt><trkpt lat="43.9296259" lon="11.6501522"><ele>784.0</ele><time>2026-04-18T14:46:07.186Z</time></trkpt><trkpt lat="43.9296829" lon="11.6499982"><ele>784.0</ele><time>2026-04-18T14:46:08.186Z</time></trkpt><trkpt lat="43.9297633" lon="11.6498795"><ele>782.5</ele><time>2026-04-18T14:46:09.186Z</time></trkpt><trkpt lat="43.9298698" lon="11.6498026"><ele>781.0</ele><time>2026-04-18T14:46:10.186Z</time></trkpt><trkpt lat="43.9299865" lon="11.6497434"><ele>779.5</ele><time>2026-04-18T14:46:11.186Z</time></trkpt><trkpt lat="43.9300922" lon="11.6496623"><ele>778.0</ele><time>2026-04-18T14:46:12.186Z</time></trkpt><trkpt lat="43.9301774" lon="11.6495435"><ele>771.5</ele><time>2026-04-18T14:46:13.186Z</time></trkpt><trkpt lat="43.9302519" lon="11.6494012"><ele>765.0</ele><time>2026-04-18T14:46:14.186Z</time></trkpt><trkpt lat="43.930328" lon="11.6492587"><ele>758.5</ele><time>2026-04-18T14:46:15.186Z</time></trkpt><trkpt lat="43.9304131" lon="11.6491235"><ele>752.0</ele><time>2026-04-18T14:46:16.186Z</time></trkpt><trkpt lat="43.9305059" lon="11.648995"><ele>752.0</ele><time>2026-04-18T14:46:17.186Z</time></trkpt><trkpt lat="43.9305969" lon="11.6488671"><ele>752.0</ele><time>2026-04-18T14:46:18.185Z</time></trkpt><trkpt lat="43.9306804" lon="11.6487721"><ele>752.0</ele><time>2026-04-18T14:46:19.186Z</time></trkpt><trkpt lat="43.9307735" lon="11.6487154"><ele>752.0</ele><time>2026-04-18T14:46:20.186Z</time></trkpt><trkpt lat="43.9308746" lon="11.6487144"><ele>752.0</ele><time>2026-04-18T14:46:21.186Z</time></trkpt><trkpt lat="43.9309788" lon="11.648762"><ele>747.75</ele><time>2026-04-18T14:46:22.186Z</time></trkpt><trkpt lat="43.9310936" lon="11.6488385"><ele>743.5</ele><time>2026-04-18T14:46:23.185Z</time></trkpt><trkpt lat="43.9312075" lon="11.6489167"><ele>739.25</ele><time>2026-04-18T14:46:24.186Z</time></trkpt><trkpt lat="43.9313143" lon="11.6489862"><ele>735.0</ele><time>2026-04-18T14:46:25.186Z</time></trkpt><trkpt lat="43.9314158" lon="11.6490613"><ele>735.0</ele><time>2026-04-18T14:46:26.186Z</time></trkpt><trkpt lat="43.9315009" lon="11.6491614"><ele>735.0</ele><time>2026-04-18T14:46:27.184Z</time></trkpt><trkpt lat="43.9315649" lon="11.6492815"><ele>735.0</ele><time>2026-04-18T14:46:28.186Z</time></trkpt><trkpt lat="43.9316067" lon="11.6494116"><ele>735.0</ele><time>2026-04-18T14:46:29.185Z</time></trkpt><trkpt lat="43.9316343" lon="11.6495344"><ele>735.0</ele><time>2026-04-18T14:46:30.186Z</time></trkpt><trkpt lat="43.9316746" lon="11.649645"><ele>737.6</ele><time>2026-04-18T14:46:31.186Z</time></trkpt><trkpt lat="43.9317417" lon="11.6497233"><ele>740.2</ele><time>2026-04-18T14:46:32.186Z</time></trkpt><trkpt lat="43.9318232" lon="11.6497602"><ele>742.8</ele><time>2026-04-18T14:46:33.186Z</time></trkpt><trkpt lat="43.9319118" lon="11.649747"><ele>745.4</ele><time>2026-04-18T14:46:34.186Z</time></trkpt><trkpt lat="43.9319982" lon="11.6496824"><ele>748.0</ele><time>2026-04-18T14:46:35.186Z</time></trkpt><trkpt lat="43.9320837" lon="11.6495865"><ele>748.0</ele><time>2026-04-18T14:46:36.186Z</time></trkpt><trkpt lat="43.9321741" lon="11.6494856"><ele>748.0</ele><time>2026-04-18T14:46:37.185Z</time></trkpt><trkpt lat="43.9322628" lon="11.6493863"><ele>748.0</ele><time>2026-04-18T14:46:38.186Z</time></trkpt><trkpt lat="43.9323451" lon="11.6492892"><ele>748.0</ele><time>2026-04-18T14:46:39.186Z</time></trkpt><trkpt lat="43.9324209" lon="11.6491998"><ele>748.0</ele><time>2026-04-18T14:46:40.186Z</time></trkpt><trkpt lat="43.9324845" lon="11.6491135"><ele>747.6666666666667</ele><time>2026-04-18T14:46:41.186Z</time></trkpt><trkpt lat="43.9325242" lon="11.6490099"><ele>747.3333333333334</ele><time>2026-04-18T14:46:42.186Z</time></trkpt><trkpt lat="43.9325299" lon="11.6488882"><ele>747.0</ele><time>2026-04-18T14:46:43.185Z</time></trkpt><trkpt lat="43.9325122" lon="11.6487783"><ele>746.6666666666666</ele><time>2026-04-18T14:46:44.186Z</time></trkpt><trkpt lat="43.9324702" lon="11.6486671"><ele>746.3333333333333</ele><time>2026-04-18T14:46:45.186Z</time></trkpt><trkpt lat="43.9324218" lon="11.6485593"><ele>746.0</ele><time>2026-04-18T14:46:46.186Z</time></trkpt><trkpt lat="43.9323712" lon="11.6484366"><ele>746.0</ele><time>2026-04-18T14:46:47.186Z</time></trkpt><trkpt lat="43.9323059" lon="11.648328"><ele>746.0</ele><time>2026-04-18T14:46:48.186Z</time></trkpt><trkpt lat="43.9322206" lon="11.6482448"><ele>746.0</ele><time>2026-04-18T14:46:49.186Z</time></trkpt><trkpt lat="43.9321177" lon="11.6481892"><ele>746.0</ele><time>2026-04-18T14:46:50.184Z</time></trkpt><trkpt lat="43.9320213" lon="11.648125"><ele>746.0</ele><time>2026-04-18T14:46:51.186Z</time></trkpt><trkpt lat="43.9319371" lon="11.6480236"><ele>746.0</ele><time>2026-04-18T14:46:52.186Z</time></trkpt><trkpt lat="43.9318582" lon="11.6478935"><ele>746.0</ele><time>2026-04-18T14:46:53.186Z</time></trkpt><trkpt lat="43.9317887" lon="11.6477492"><ele>746.0</ele><time>2026-04-18T14:46:54.185Z</time></trkpt><trkpt lat="43.9317321" lon="11.6475998"><ele>746.0</ele><time>2026-04-18T14:46:55.186Z</time></trkpt><trkpt lat="43.9316912" lon="11.6474351"><ele>743.5999999999999</ele><time>2026-04-18T14:46:56.186Z</time></trkpt><trkpt lat="43.9316727" lon="11.6472784"><ele>741.2</ele><time>2026-04-18T14:46:57.184Z</time></trkpt><trkpt lat="43.9316858" lon="11.6471327"><ele>738.8</ele><time>2026-04-18T14:46:58.186Z</time></trkpt><trkpt lat="43.9317378" lon="11.6470128"><ele>736.4000000000001</ele><time>2026-04-18T14:46:59.185Z</time></trkpt><trkpt lat="43.9318063" lon="11.6468952"><ele>734.0</ele><time>2026-04-18T14:47:00.186Z</time></trkpt><trkpt lat="43.9318692" lon="11.6467875"><ele>734.6</ele><time>2026-04-18T14:47:01.186Z</time></trkpt><trkpt lat="43.9319098" lon="11.6466787"><ele>735.2</ele><time>2026-04-18T14:47:02.186Z</time></trkpt><trkpt lat="43.9319044" lon="11.646562"><ele>735.8000000000001</ele><time>2026-04-18T14:47:03.186Z</time></trkpt><trkpt lat="43.9319036" lon="11.6464485"><ele>736.4000000000001</ele><time>2026-04-18T14:47:04.186Z</time></trkpt><trkpt lat="43.9318032" lon="11.6463572"><ele>737.0</ele><time>2026-04-18T14:47:05.186Z</time></trkpt><trkpt lat="43.9317233" lon="11.6462806"><ele>737.0</ele><time>2026-04-18T14:47:06.186Z</time></trkpt><trkpt lat="43.9316332" lon="11.6462092"><ele>737.0</ele><time>2026-04-18T14:47:07.186Z</time></trkpt><trkpt lat="43.9315263" lon="11.6461924"><ele>737.0</ele><time>2026-04-18T14:47:08.186Z</time></trkpt><trkpt lat="43.9314192" lon="11.6461869"><ele>737.0</ele><time>2026-04-18T14:47:09.186Z</time></trkpt><trkpt lat="43.9313157" lon="11.6461716"><ele>737.0</ele><time>2026-04-18T14:47:10.186Z</time></trkpt><trkpt lat="43.9312253" lon="11.6461314"><ele>740.4000000000001</ele><time>2026-04-18T14:47:11.184Z</time></trkpt><trkpt lat="43.9311582" lon="11.6460548"><ele>743.8000000000001</ele><time>2026-04-18T14:47:12.185Z</time></trkpt><trkpt lat="43.9311202" lon="11.6459409"><ele>747.2</ele><time>2026-04-18T14:47:13.186Z</time></trkpt><trkpt lat="43.9311108" lon="11.6458108"><ele>750.6</ele><time>2026-04-18T14:47:14.186Z</time></trkpt><trkpt lat="43.9311224" lon="11.6456736"><ele>754.0</ele><time>2026-04-18T14:47:15.185Z</time></trkpt><trkpt lat="43.9311486" lon="11.6455326"><ele>754.0</ele><time>2026-04-18T14:47:16.186Z</time></trkpt><trkpt lat="43.9311754" lon="11.6453963"><ele>754.0</ele><time>2026-04-18T14:47:17.186Z</time></trkpt><trkpt lat="43.9311853" lon="11.6452456"><ele>754.0</ele><time>2026-04-18T14:47:18.186Z</time></trkpt><trkpt lat="43.9311477" lon="11.64508"><ele>754.0</ele><time>2026-04-18T14:47:19.186Z</time></trkpt><trkpt lat="43.9311128" lon="11.6449533"><ele>754.0</ele><time>2026-04-18T14:47:20.186Z</time></trkpt><trkpt lat="43.9310898" lon="11.6448535"><ele>754.3333333333334</ele><time>2026-04-18T14:47:21.186Z</time></trkpt><trkpt lat="43.9310801" lon="11.6447609"><ele>754.6666666666667</ele><time>2026-04-18T14:47:22.186Z</time></trkpt><trkpt lat="43.9310851" lon="11.6446606"><ele>755.0</ele><time>2026-04-18T14:47:23.184Z</time></trkpt><trkpt lat="43.9311099" lon="11.6445697"><ele>755.3333333333334</ele><time>2026-04-18T14:47:24.186Z</time></trkpt><trkpt lat="43.9312027" lon="11.6444474"><ele>755.6666666666666</ele><time>2026-04-18T14:47:26.186Z</time></trkpt><trkpt lat="43.9312649" lon="11.6444118"><ele>756.0</ele><time>2026-04-18T14:47:27.185Z</time></trkpt><trkpt lat="43.9313335" lon="11.6443848"><ele>752.5</ele><time>2026-04-18T14:47:28.186Z</time></trkpt><trkpt lat="43.9314059" lon="11.6443631"><ele>749.0</ele><time>2026-04-18T14:47:29.186Z</time></trkpt><trkpt lat="43.9314865" lon="11.6443588"><ele>745.5</ele><time>2026-04-18T14:47:30.186Z</time></trkpt><trkpt lat="43.9315831" lon="11.6443643"><ele>742.0</ele><time>2026-04-18T14:47:31.185Z</time></trkpt><trkpt lat="43.9316727" lon="11.6443528"><ele>738.5</ele><time>2026-04-18T14:47:32.185Z</time></trkpt><trkpt lat="43.9317604" lon="11.6442928"><ele>735.0</ele><time>2026-04-18T14:47:33.186Z</time></trkpt><trkpt lat="43.9318209" lon="11.644183"><ele>744.0</ele><time>2026-04-18T14:47:34.186Z</time></trkpt><trkpt lat="43.9318682" lon="11.6440365"><ele>753.0</ele><time>2026-04-18T14:47:35.186Z</time></trkpt><trkpt lat="43.9319169" lon="11.6438706"><ele>762.0</ele><time>2026-04-18T14:47:36.186Z</time></trkpt><trkpt lat="43.9319658" lon="11.6437052"><ele>771.0</ele><time>2026-04-18T14:47:37.185Z</time></trkpt><trkpt lat="43.9320029" lon="11.6435709"><ele>771.0</ele><time>2026-04-18T14:47:38.186Z</time></trkpt><trkpt lat="43.9320093" lon="11.6434449"><ele>771.0</ele><time>2026-04-18T14:47:39.186Z</time></trkpt><trkpt lat="43.931981" lon="11.6433307"><ele>771.0</ele><time>2026-04-18T14:47:40.186Z</time></trkpt><trkpt lat="43.9319351" lon="11.6432245"><ele>771.0</ele><time>2026-04-18T14:47:41.186Z</time></trkpt><trkpt lat="43.9318894" lon="11.6431469"><ele>771.0</ele><time>2026-04-18T14:47:42.186Z</time></trkpt><trkpt lat="43.931848" lon="11.6430494"><ele>771.0</ele><time>2026-04-18T14:47:44.186Z</time></trkpt><trkpt lat="43.9318573" lon="11.6429564"><ele>771.0</ele><time>2026-04-18T14:47:52.186Z</time></trkpt><trkpt lat="43.931921" lon="11.6430294"><ele>771.0</ele><time>2026-04-18T14:47:55.186Z</time></trkpt><trkpt lat="43.9319689" lon="11.6430962"><ele>771.0</ele><time>2026-04-18T14:47:56.186Z</time></trkpt><trkpt lat="43.9320157" lon="11.6432125"><ele>771.0</ele><time>2026-04-18T14:47:57.186Z</time></trkpt><trkpt lat="43.9320576" lon="11.6433279"><ele>771.0</ele><time>2026-04-18T14:47:58.186Z</time></trkpt><trkpt lat="43.9320843" lon="11.6434426"><ele>771.0</ele><time>2026-04-18T14:47:59.186Z</time></trkpt><trkpt lat="43.932087" lon="11.6435633"><ele>772.1999999999999</ele><time>2026-04-18T14:48:00.185Z</time></trkpt><trkpt lat="43.9320514" lon="11.64369"><ele>773.4</ele><time>2026-04-18T14:48:01.185Z</time></trkpt><trkpt lat="43.9320126" lon="11.6438317"><ele>774.6</ele><time>2026-04-18T14:48:02.186Z</time></trkpt><trkpt lat="43.9320023" lon="11.6439917"><ele>775.8</ele><time>2026-04-18T14:48:03.186Z</time></trkpt><trkpt lat="43.9320118" lon="11.6441348"><ele>777.0</ele><time>2026-04-18T14:48:04.186Z</time></trkpt><trkpt lat="43.9319951" lon="11.6442537"><ele>777.0</ele><time>2026-04-18T14:48:05.186Z</time></trkpt><trkpt lat="43.9319384" lon="11.6443422"><ele>777.0</ele><time>2026-04-18T14:48:06.186Z</time></trkpt><trkpt lat="43.9318449" lon="11.6444105"><ele>777.0</ele><time>2026-04-18T14:48:07.185Z</time></trkpt><trkpt lat="43.9317262" lon="11.6444652"><ele>777.0</ele><time>2026-04-18T14:48:08.186Z</time></trkpt><trkpt lat="43.9316045" lon="11.6444956"><ele>777.0</ele><time>2026-04-18T14:48:09.186Z</time></trkpt><trkpt lat="43.9315037" lon="11.6445241"><ele>772.8</ele><time>2026-04-18T14:48:10.185Z</time></trkpt><trkpt lat="43.9314145" lon="11.644577"><ele>768.6</ele><time>2026-04-18T14:48:11.186Z</time></trkpt><trkpt lat="43.9313612" lon="11.6446682"><ele>764.4</ele><time>2026-04-18T14:48:12.186Z</time></trkpt><trkpt lat="43.9313475" lon="11.6448102"><ele>760.1999999999999</ele><time>2026-04-18T14:48:13.186Z</time></trkpt><trkpt lat="43.9313538" lon="11.6449996"><ele>756.0</ele><time>2026-04-18T14:48:14.186Z</time></trkpt><trkpt lat="43.93136" lon="11.6451915"><ele>755.5999999999999</ele><time>2026-04-18T14:48:15.186Z</time></trkpt><trkpt lat="43.9313543" lon="11.6453844"><ele>755.2</ele><time>2026-04-18T14:48:16.186Z</time></trkpt><trkpt lat="43.9313491" lon="11.6455478"><ele>754.8</ele><time>2026-04-18T14:48:17.185Z</time></trkpt><trkpt lat="43.9313563" lon="11.6456873"><ele>754.4000000000001</ele><time>2026-04-18T14:48:18.186Z</time></trkpt><trkpt lat="43.9313927" lon="11.6457883"><ele>754.0</ele><time>2026-04-18T14:48:19.185Z</time></trkpt><trkpt lat="43.9314687" lon="11.6458505"><ele>754.0</ele><time>2026-04-18T14:48:20.186Z</time></trkpt><trkpt lat="43.9315809" lon="11.6458784"><ele>754.0</ele><time>2026-04-18T14:48:21.186Z</time></trkpt><trkpt lat="43.9317032" lon="11.6459101"><ele>754.0</ele><time>2026-04-18T14:48:22.186Z</time></trkpt><trkpt lat="43.9318417" lon="11.6459979"><ele>754.0</ele><time>2026-04-18T14:48:23.186Z</time></trkpt><trkpt lat="43.9319692" lon="11.6461053"><ele>756.5</ele><time>2026-04-18T14:48:24.186Z</time></trkpt><trkpt lat="43.9321091" lon="11.6462037"><ele>759.0</ele><time>2026-04-18T14:48:25.185Z</time></trkpt><trkpt lat="43.9322526" lon="11.6462698"><ele>761.5</ele><time>2026-04-18T14:48:26.186Z</time></trkpt><trkpt lat="43.9323783" lon="11.6463032"><ele>764.0</ele><time>2026-04-18T14:48:27.186Z</time></trkpt><trkpt lat="43.9324836" lon="11.6463375"><ele>764.0</ele><time>2026-04-18T14:48:28.186Z</time></trkpt><trkpt lat="43.9325564" lon="11.6464076"><ele>764.0</ele><time>2026-04-18T14:48:29.186Z</time></trkpt><trkpt lat="43.9326095" lon="11.6465102"><ele>764.0</ele><time>2026-04-18T14:48:30.186Z</time></trkpt><trkpt lat="43.9326192" lon="11.6466196"><ele>764.0</ele><time>2026-04-18T14:48:31.186Z</time></trkpt><trkpt lat="43.932589" lon="11.6467363"><ele>764.0</ele><time>2026-04-18T14:48:32.186Z</time></trkpt><trkpt lat="43.9325171" lon="11.6468425"><ele>764.0</ele><time>2026-04-18T14:48:33.186Z</time></trkpt><trkpt lat="43.9324305" lon="11.646933"><ele>764.0</ele><time>2026-04-18T14:48:34.186Z</time></trkpt><trkpt lat="43.9323492" lon="11.6470189"><ele>764.0</ele><time>2026-04-18T14:48:35.186Z</time></trkpt><trkpt lat="43.9322925" lon="11.6471263"><ele>764.0</ele><time>2026-04-18T14:48:36.185Z</time></trkpt><trkpt lat="43.9322734" lon="11.6472492"><ele>764.0</ele><time>2026-04-18T14:48:37.186Z</time></trkpt><trkpt lat="43.9323022" lon="11.6473662"><ele>763.2</ele><time>2026-04-18T14:48:38.186Z</time></trkpt><trkpt lat="43.9323746" lon="11.6474523"><ele>762.4000000000001</ele><time>2026-04-18T14:48:39.186Z</time></trkpt><trkpt lat="43.9324641" lon="11.6474693"><ele>761.6</ele><time>2026-04-18T14:48:40.186Z</time></trkpt><trkpt lat="43.9325475" lon="11.6474137"><ele>760.8</ele><time>2026-04-18T14:48:41.186Z</time></trkpt><trkpt lat="43.9326101" lon="11.6472906"><ele>760.0</ele><time>2026-04-18T14:48:42.185Z</time></trkpt><trkpt lat="43.9326591" lon="11.6471012"><ele>768.75</ele><time>2026-04-18T14:48:43.186Z</time></trkpt><trkpt lat="43.932711" lon="11.6469266"><ele>777.5</ele><time>2026-04-18T14:48:44.185Z</time></trkpt><trkpt lat="43.9327927" lon="11.6467665"><ele>786.25</ele><time>2026-04-18T14:48:45.186Z</time></trkpt><trkpt lat="43.9328723" lon="11.6466359"><ele>795.0</ele><time>2026-04-18T14:48:46.186Z</time></trkpt><trkpt lat="43.9329346" lon="11.646511"><ele>795.0</ele><time>2026-04-18T14:48:47.185Z</time></trkpt><trkpt lat="43.9329519" lon="11.6463941"><ele>795.0</ele><time>2026-04-18T14:48:48.186Z</time></trkpt><trkpt lat="43.9329647" lon="11.6462771"><ele>795.0</ele><time>2026-04-18T14:48:49.186Z</time></trkpt><trkpt lat="43.9328392" lon="11.6461765"><ele>795.0</ele><time>2026-04-18T14:48:50.186Z</time></trkpt><trkpt lat="43.9327178" lon="11.6460799"><ele>793.0</ele><time>2026-04-18T14:48:51.186Z</time></trkpt><trkpt lat="43.9325859" lon="11.6459846"><ele>791.0</ele><time>2026-04-18T14:48:52.186Z</time></trkpt><trkpt lat="43.9324526" lon="11.6458812"><ele>789.0</ele><time>2026-04-18T14:48:53.186Z</time></trkpt><trkpt lat="43.9323436" lon="11.6457879"><ele>787.0</ele><time>2026-04-18T14:48:54.186Z</time></trkpt><trkpt lat="43.9322482" lon="11.6456972"><ele>787.0</ele><time>2026-04-18T14:48:55.186Z</time></trkpt><trkpt lat="43.9321593" lon="11.6456063"><ele>787.0</ele><time>2026-04-18T14:48:56.185Z</time></trkpt><trkpt lat="43.9320883" lon="11.6455292"><ele>787.0</ele><time>2026-04-18T14:48:57.186Z</time></trkpt><trkpt lat="43.9320612" lon="11.6454359"><ele>787.0</ele><time>2026-04-18T14:48:58.186Z</time></trkpt><trkpt lat="43.9320662" lon="11.6453345"><ele>787.0</ele><time>2026-04-18T14:48:59.186Z</time></trkpt><trkpt lat="43.9321582" lon="11.6452489"><ele>788.25</ele><time>2026-04-18T14:49:00.186Z</time></trkpt><trkpt lat="43.932274" lon="11.6451718"><ele>789.5</ele><time>2026-04-18T14:49:01.186Z</time></trkpt><trkpt lat="43.9323962" lon="11.6451007"><ele>790.75</ele><time>2026-04-18T14:49:02.186Z</time></trkpt><trkpt lat="43.9325216" lon="11.6450058"><ele>792.0</ele><time>2026-04-18T14:49:03.186Z</time></trkpt><trkpt lat="43.932641" lon="11.6448851"><ele>800.5</ele><time>2026-04-18T14:49:04.186Z</time></trkpt><trkpt lat="43.9327442" lon="11.6447595"><ele>809.0</ele><time>2026-04-18T14:49:05.186Z</time></trkpt><trkpt lat="43.9328188" lon="11.6446324"><ele>817.5</ele><time>2026-04-18T14:49:06.185Z</time></trkpt><trkpt lat="43.9328575" lon="11.6444775"><ele>826.0</ele><time>2026-04-18T14:49:07.186Z</time></trkpt><trkpt lat="43.9328598" lon="11.6443131"><ele>826.0</ele><time>2026-04-18T14:49:08.186Z</time></trkpt><trkpt lat="43.9328692" lon="11.6441528"><ele>826.0</ele><time>2026-04-18T14:49:09.186Z</time></trkpt><trkpt lat="43.9329176" lon="11.6439835"><ele>826.0</ele><time>2026-04-18T14:49:10.186Z</time></trkpt><trkpt lat="43.932983" lon="11.6438021"><ele>826.0</ele><time>2026-04-18T14:49:11.186Z</time></trkpt><trkpt lat="43.9330286" lon="11.6436172"><ele>822.0</ele><time>2026-04-18T14:49:12.186Z</time></trkpt><trkpt lat="43.9330423" lon="11.6434226"><ele>818.0</ele><time>2026-04-18T14:49:13.186Z</time></trkpt><trkpt lat="43.9330395" lon="11.6432299"><ele>814.0</ele><time>2026-04-18T14:49:14.186Z</time></trkpt><trkpt lat="43.9330091" lon="11.6430659"><ele>810.0</ele><time>2026-04-18T14:49:15.186Z</time></trkpt><trkpt lat="43.9329859" lon="11.6429296"><ele>810.0</ele><time>2026-04-18T14:49:16.185Z</time></trkpt><trkpt lat="43.9329952" lon="11.6428382"><ele>810.0</ele><time>2026-04-18T14:49:17.186Z</time></trkpt><trkpt lat="43.9331082" lon="11.6428074"><ele>810.0</ele><time>2026-04-18T14:49:19.186Z</time></trkpt><trkpt lat="43.9331851" lon="11.642901"><ele>810.0</ele><time>2026-04-18T14:49:20.186Z</time></trkpt><trkpt lat="43.9332731" lon="11.6430551"><ele>810.0</ele><time>2026-04-18T14:49:21.186Z</time></trkpt><trkpt lat="43.9333853" lon="11.643243"><ele>808.3333333333333</ele><time>2026-04-18T14:49:22.186Z</time></trkpt><trkpt lat="43.9335201" lon="11.643439"><ele>806.6666666666666</ele><time>2026-04-18T14:49:23.185Z</time></trkpt><trkpt lat="43.9336927" lon="11.6436366"><ele>805.0</ele><time>2026-04-18T14:49:24.186Z</time></trkpt><trkpt lat="43.9338811" lon="11.6438252"><ele>810.3333333333333</ele><time>2026-04-18T14:49:25.185Z</time></trkpt><trkpt lat="43.9340666" lon="11.6440106"><ele>815.6666666666667</ele><time>2026-04-18T14:49:26.186Z</time></trkpt><trkpt lat="43.9342335" lon="11.6441848"><ele>821.0</ele><time>2026-04-18T14:49:27.186Z</time></trkpt><trkpt lat="43.9343941" lon="11.6443244"><ele>821.0</ele><time>2026-04-18T14:49:28.186Z</time></trkpt><trkpt lat="43.934575" lon="11.6444316"><ele>821.0</ele><time>2026-04-18T14:49:29.186Z</time></trkpt><trkpt lat="43.9347575" lon="11.6445206"><ele>821.0</ele><time>2026-04-18T14:49:30.185Z</time></trkpt><trkpt lat="43.9349211" lon="11.6445957"><ele>831.75</ele><time>2026-04-18T14:49:31.186Z</time></trkpt><trkpt lat="43.9350598" lon="11.6446576"><ele>842.5</ele><time>2026-04-18T14:49:32.186Z</time></trkpt><trkpt lat="43.9351787" lon="11.6446965"><ele>853.25</ele><time>2026-04-18T14:49:33.186Z</time></trkpt><trkpt lat="43.9352932" lon="11.6447337"><ele>864.0</ele><time>2026-04-18T14:49:34.186Z</time></trkpt><trkpt lat="43.9353938" lon="11.6446302"><ele>864.0</ele><time>2026-04-18T14:49:35.186Z</time></trkpt><trkpt lat="43.9354805" lon="11.6445356"><ele>864.0000000000001</ele><time>2026-04-18T14:49:36.186Z</time></trkpt><trkpt lat="43.9355892" lon="11.6445131"><ele>864.0000000000001</ele><time>2026-04-18T14:49:37.186Z</time></trkpt><trkpt lat="43.935697" lon="11.6445533"><ele>864.0</ele><time>2026-04-18T14:49:38.186Z</time></trkpt><trkpt lat="43.935778" lon="11.6446329"><ele>864.0</ele><time>2026-04-18T14:49:39.185Z</time></trkpt><trkpt lat="43.9358622" lon="11.6447097"><ele>865.8000000000001</ele><time>2026-04-18T14:49:40.186Z</time></trkpt><trkpt lat="43.9359549" lon="11.6447309"><ele>867.6000000000001</ele><time>2026-04-18T14:49:41.186Z</time></trkpt><trkpt lat="43.9360482" lon="11.6446814"><ele>869.4</ele><time>2026-04-18T14:49:42.186Z</time></trkpt><trkpt lat="43.9361196" lon="11.6445658"><ele>871.2</ele><time>2026-04-18T14:49:43.186Z</time></trkpt><trkpt lat="43.9361723" lon="11.644403"><ele>873.0</ele><time>2026-04-18T14:49:44.186Z</time></trkpt><trkpt lat="43.9362182" lon="11.6442256"><ele>873.0</ele><time>2026-04-18T14:49:45.186Z</time></trkpt><trkpt lat="43.9362562" lon="11.644049"><ele>873.0</ele><time>2026-04-18T14:49:46.186Z</time></trkpt><trkpt lat="43.9362657" lon="11.6438884"><ele>873.0</ele><time>2026-04-18T14:49:47.186Z</time></trkpt><trkpt lat="43.9362483" lon="11.6437362"><ele>873.0</ele><time>2026-04-18T14:49:48.185Z</time></trkpt><trkpt lat="43.9361784" lon="11.6436106"><ele>870.2</ele><time>2026-04-18T14:49:49.185Z</time></trkpt><trkpt lat="43.9360941" lon="11.6435045"><ele>867.4</ele><time>2026-04-18T14:49:50.186Z</time></trkpt><trkpt lat="43.9360105" lon="11.6434147"><ele>864.6000000000001</ele><time>2026-04-18T14:49:51.186Z</time></trkpt><trkpt lat="43.9359648" lon="11.6433143"><ele>861.8000000000001</ele><time>2026-04-18T14:49:52.186Z</time></trkpt><trkpt lat="43.9359627" lon="11.6432072"><ele>859.0</ele><time>2026-04-18T14:49:53.186Z</time></trkpt><trkpt lat="43.936011" lon="11.6431254"><ele>859.0</ele><time>2026-04-18T14:49:54.186Z</time></trkpt><trkpt lat="43.9360848" lon="11.6430905"><ele>859.0000000000001</ele><time>2026-04-18T14:49:55.186Z</time></trkpt><trkpt lat="43.9361618" lon="11.6431409"><ele>859.0000000000001</ele><time>2026-04-18T14:49:56.186Z</time></trkpt><trkpt lat="43.9362435" lon="11.6432617"><ele>859.0</ele><time>2026-04-18T14:49:57.185Z</time></trkpt><trkpt lat="43.93632" lon="11.6434285"><ele>859.0</ele><time>2026-04-18T14:49:58.186Z</time></trkpt><trkpt lat="43.9363833" lon="11.6436083"><ele>863.6666666666666</ele><time>2026-04-18T14:49:59.185Z</time></trkpt><trkpt lat="43.9364325" lon="11.6438124"><ele>868.3333333333333</ele><time>2026-04-18T14:50:00.186Z</time></trkpt><trkpt lat="43.9364635" lon="11.6440259"><ele>873.0</ele><time>2026-04-18T14:50:01.186Z</time></trkpt><trkpt lat="43.9365034" lon="11.6442319"><ele>873.0</ele><time>2026-04-18T14:50:02.186Z</time></trkpt><trkpt lat="43.9365528" lon="11.6444377"><ele>873.0</ele><time>2026-04-18T14:50:03.186Z</time></trkpt><trkpt lat="43.936633" lon="11.6445935"><ele>873.0</ele><time>2026-04-18T14:50:04.186Z</time></trkpt><trkpt lat="43.9366956" lon="11.6447397"><ele>873.0</ele><time>2026-04-18T14:50:05.186Z</time></trkpt><trkpt lat="43.9367316" lon="11.6448722"><ele>873.8</ele><time>2026-04-18T14:50:06.185Z</time></trkpt><trkpt lat="43.9367259" lon="11.6449924"><ele>874.5999999999999</ele><time>2026-04-18T14:50:07.186Z</time></trkpt><trkpt lat="43.9366835" lon="11.6450924"><ele>875.4000000000001</ele><time>2026-04-18T14:50:08.185Z</time></trkpt><trkpt lat="43.9365885" lon="11.6451652"><ele>876.2</ele><time>2026-04-18T14:50:09.186Z</time></trkpt><trkpt lat="43.936458" lon="11.6452266"><ele>877.0</ele><time>2026-04-18T14:50:10.186Z</time></trkpt><trkpt lat="43.9362897" lon="11.6452791"><ele>880.3333333333333</ele><time>2026-04-18T14:50:11.186Z</time></trkpt><trkpt lat="43.9361163" lon="11.6453439"><ele>883.6666666666667</ele><time>2026-04-18T14:50:12.186Z</time></trkpt><trkpt lat="43.9359213" lon="11.6454246"><ele>887.0</ele><time>2026-04-18T14:50:13.186Z</time></trkpt><trkpt lat="43.935754" lon="11.6455152"><ele>887.0</ele><time>2026-04-18T14:50:14.186Z</time></trkpt><trkpt lat="43.9355995" lon="11.6455946"><ele>887.0</ele><time>2026-04-18T14:50:15.186Z</time></trkpt><trkpt lat="43.9354541" lon="11.6456366"><ele>887.0</ele><time>2026-04-18T14:50:16.186Z</time></trkpt><trkpt lat="43.9353163" lon="11.6456569"><ele>887.0</ele><time>2026-04-18T14:50:17.186Z</time></trkpt><trkpt lat="43.9351933" lon="11.6456648"><ele>887.0</ele><time>2026-04-18T14:50:18.186Z</time></trkpt><trkpt lat="43.9350865" lon="11.6456729"><ele>887.0</ele><time>2026-04-18T14:50:19.186Z</time></trkpt><trkpt lat="43.9350041" lon="11.6457106"><ele>887.0</ele><time>2026-04-18T14:50:20.186Z</time></trkpt><trkpt lat="43.9349563" lon="11.645788"><ele>887.0</ele><time>2026-04-18T14:50:21.186Z</time></trkpt><trkpt lat="43.9349644" lon="11.6458907"><ele>884.0</ele><time>2026-04-18T14:50:22.186Z</time></trkpt><trkpt lat="43.9350225" lon="11.6460285"><ele>881.0</ele><time>2026-04-18T14:50:23.186Z</time></trkpt><trkpt lat="43.9351155" lon="11.6461689"><ele>878.0</ele><time>2026-04-18T14:50:24.186Z</time></trkpt><trkpt lat="43.9352133" lon="11.6462914"><ele>875.0</ele><time>2026-04-18T14:50:25.185Z</time></trkpt><trkpt lat="43.9353142" lon="11.6463865"><ele>882.25</ele><time>2026-04-18T14:50:26.185Z</time></trkpt><trkpt lat="43.9354107" lon="11.6464529"><ele>889.5</ele><time>2026-04-18T14:50:27.186Z</time></trkpt><trkpt lat="43.9354987" lon="11.6465407"><ele>896.75</ele><time>2026-04-18T14:50:28.186Z</time></trkpt><trkpt lat="43.9355677" lon="11.64668"><ele>904.0</ele><time>2026-04-18T14:50:29.186Z</time></trkpt><trkpt lat="43.9356083" lon="11.6468649"><ele>901.3333333333333</ele><time>2026-04-18T14:50:30.186Z</time></trkpt><trkpt lat="43.9356511" lon="11.6470641"><ele>898.6666666666667</ele><time>2026-04-18T14:50:31.186Z</time></trkpt><trkpt lat="43.9357218" lon="11.6472563"><ele>896.0</ele><time>2026-04-18T14:50:32.186Z</time></trkpt><trkpt lat="43.9358123" lon="11.6474374"><ele>909.0</ele><time>2026-04-18T14:50:33.186Z</time></trkpt><trkpt lat="43.9359378" lon="11.6475855"><ele>922.0</ele><time>2026-04-18T14:50:34.186Z</time></trkpt><trkpt lat="43.9360422" lon="11.6477494"><ele>935.0</ele><time>2026-04-18T14:50:35.184Z</time></trkpt><trkpt lat="43.936122" lon="11.6479158"><ele>935.0</ele><time>2026-04-18T14:50:36.186Z</time></trkpt><trkpt lat="43.9361717" lon="11.6480829"><ele>935.0</ele><time>2026-04-18T14:50:37.186Z</time></trkpt><trkpt lat="43.9361754" lon="11.6482464"><ele>935.0</ele><time>2026-04-18T14:50:38.186Z</time></trkpt><trkpt lat="43.9361394" lon="11.6483986"><ele>935.0</ele><time>2026-04-18T14:50:39.186Z</time></trkpt><trkpt lat="43.9361001" lon="11.6485288"><ele>936.0</ele><time>2026-04-18T14:50:40.186Z</time></trkpt><trkpt lat="43.9361022" lon="11.6486712"><ele>937.0</ele><time>2026-04-18T14:50:41.186Z</time></trkpt><trkpt lat="43.9361522" lon="11.6488217"><ele>938.0</ele><time>2026-04-18T14:50:42.186Z</time></trkpt><trkpt lat="43.9362147" lon="11.6489798"><ele>939.0</ele><time>2026-04-18T14:50:43.185Z</time></trkpt><trkpt lat="43.9362588" lon="11.6491529"><ele>939.0</ele><time>2026-04-18T14:50:44.186Z</time></trkpt><trkpt lat="43.9362741" lon="11.6493532"><ele>939.0</ele><time>2026-04-18T14:50:45.186Z</time></trkpt><trkpt lat="43.9362701" lon="11.6495422"><ele>939.0</ele><time>2026-04-18T14:50:46.185Z</time></trkpt><trkpt lat="43.9362394" lon="11.6497203"><ele>939.0</ele><time>2026-04-18T14:50:47.186Z</time></trkpt><trkpt lat="43.9361659" lon="11.649865"><ele>940.25</ele><time>2026-04-18T14:50:48.186Z</time></trkpt><trkpt lat="43.9360695" lon="11.6499491"><ele>941.5</ele><time>2026-04-18T14:50:49.186Z</time></trkpt><trkpt lat="43.9359657" lon="11.6500064"><ele>942.75</ele><time>2026-04-18T14:50:50.186Z</time></trkpt><trkpt lat="43.9358759" lon="11.6501132"><ele>944.0</ele><time>2026-04-18T14:50:51.186Z</time></trkpt><trkpt lat="43.9357978" lon="11.650274"><ele>931.6666666666667</ele><time>2026-04-18T14:50:52.186Z</time></trkpt><trkpt lat="43.935731" lon="11.6504745"><ele>919.3333333333333</ele><time>2026-04-18T14:50:53.185Z</time></trkpt><trkpt lat="43.9356899" lon="11.6506902"><ele>907.0</ele><time>2026-04-18T14:50:54.186Z</time></trkpt><trkpt lat="43.9356646" lon="11.6508925"><ele>907.0</ele><time>2026-04-18T14:50:55.186Z</time></trkpt><trkpt lat="43.9356199" lon="11.6510876"><ele>907.0</ele><time>2026-04-18T14:50:56.186Z</time></trkpt><trkpt lat="43.9355331" lon="11.6512903"><ele>907.0</ele><time>2026-04-18T14:50:57.186Z</time></trkpt><trkpt lat="43.9354261" lon="11.6515036"><ele>915.3333333333333</ele><time>2026-04-18T14:50:58.186Z</time></trkpt><trkpt lat="43.9353186" lon="11.6517062"><ele>923.6666666666667</ele><time>2026-04-18T14:50:59.186Z</time></trkpt><trkpt lat="43.9352124" lon="11.65191"><ele>932.0</ele><time>2026-04-18T14:51:00.186Z</time></trkpt><trkpt lat="43.9351141" lon="11.6520944"><ele>926.6666666666667</ele><time>2026-04-18T14:51:01.186Z</time></trkpt><trkpt lat="43.9350077" lon="11.6522547"><ele>921.3333333333333</ele><time>2026-04-18T14:51:02.186Z</time></trkpt><trkpt lat="43.934867" lon="11.6523838"><ele>916.0</ele><time>2026-04-18T14:51:03.185Z</time></trkpt><trkpt lat="43.9347126" lon="11.6524963"><ele>916.0</ele><time>2026-04-18T14:51:04.185Z</time></trkpt><trkpt lat="43.9345588" lon="11.6525838"><ele>916.0</ele><time>2026-04-18T14:51:05.186Z</time></trkpt><trkpt lat="43.9344165" lon="11.6526455"><ele>916.0</ele><time>2026-04-18T14:51:06.185Z</time></trkpt><trkpt lat="43.9342968" lon="11.652716"><ele>916.0</ele><time>2026-04-18T14:51:07.186Z</time></trkpt><trkpt lat="43.9341966" lon="11.6528416"><ele>915.6666666666666</ele><time>2026-04-18T14:51:08.186Z</time></trkpt><trkpt lat="43.9341044" lon="11.6530097"><ele>915.3333333333333</ele><time>2026-04-18T14:51:09.186Z</time></trkpt><trkpt lat="43.9340162" lon="11.6531983"><ele>915.0</ele><time>2026-04-18T14:51:10.185Z</time></trkpt><trkpt lat="43.9339355" lon="11.6533818"><ele>915.0</ele><time>2026-04-18T14:51:11.186Z</time></trkpt><trkpt lat="43.933853" lon="11.6535415"><ele>915.0</ele><time>2026-04-18T14:51:12.186Z</time></trkpt><trkpt lat="43.9337443" lon="11.6536732"><ele>915.0</ele><time>2026-04-18T14:51:13.185Z</time></trkpt><trkpt lat="43.9336099" lon="11.6537749"><ele>915.0</ele><time>2026-04-18T14:51:14.186Z</time></trkpt><trkpt lat="43.9334728" lon="11.6538758"><ele>912.5</ele><time>2026-04-18T14:51:15.186Z</time></trkpt><trkpt lat="43.9333583" lon="11.6539884"><ele>910.0</ele><time>2026-04-18T14:51:16.186Z</time></trkpt><trkpt lat="43.9332626" lon="11.6541288"><ele>907.5</ele><time>2026-04-18T14:51:17.186Z</time></trkpt><trkpt lat="43.9331883" lon="11.6542711"><ele>905.0</ele><time>2026-04-18T14:51:18.186Z</time></trkpt><trkpt lat="43.9331304" lon="11.6543904"><ele>906.0000000000001</ele><time>2026-04-18T14:51:19.186Z</time></trkpt><trkpt lat="43.9330762" lon="11.6544943"><ele>907.0</ele><time>2026-04-18T14:51:20.186Z</time></trkpt><trkpt lat="43.9330314" lon="11.6545792"><ele>908.0</ele><time>2026-04-18T14:51:21.186Z</time></trkpt><trkpt lat="43.9329933" lon="11.6546504"><ele>909.0</ele><time>2026-04-18T14:51:22.186Z</time></trkpt><trkpt lat="43.9329389" lon="11.6547672"><ele>910.0000000000001</ele><time>2026-04-18T14:51:24.186Z</time></trkpt><trkpt lat="43.932896" lon="11.6548574"><ele>911.0</ele><time>2026-04-18T14:51:26.185Z</time></trkpt><trkpt lat="43.932856" lon="11.6549266"><ele>911.0000000000001</ele><time>2026-04-18T14:51:28.185Z</time></trkpt><trkpt lat="43.9327989" lon="11.6550298"><ele>911.0</ele><time>2026-04-18T14:51:31.186Z</time></trkpt><trkpt lat="43.9327551" lon="11.6551054"><ele>911.0</ele><time>2026-04-18T14:51:33.186Z</time></trkpt><trkpt lat="43.9327071" lon="11.6551973"><ele>911.0</ele><time>2026-04-18T14:51:36.185Z</time></trkpt><trkpt lat="43.9326673" lon="11.65528"><ele>911.0000000000001</ele><time>2026-04-18T14:51:41.186Z</time></trkpt><trkpt lat="43.932603" lon="11.6553728"><ele>911.0</ele><time>2026-04-18T14:51:44.186Z</time></trkpt><trkpt lat="43.9325685" lon="11.6554764"><ele>909.1428571428571</ele><time>2026-04-18T14:51:47.186Z</time></trkpt><trkpt lat="43.9325863" lon="11.6553777"><ele>907.2857142857142</ele><time>2026-04-18T14:53:37.186Z</time></trkpt><trkpt lat="43.9326478" lon="11.655414"><ele>905.4285714285713</ele><time>2026-04-18T15:02:27.19Z</time></trkpt><trkpt lat="43.9326949" lon="11.6554773"><ele>903.5714285714286</ele><time>2026-04-18T15:03:13.192Z</time></trkpt><trkpt lat="43.9326504" lon="11.6554048"><ele>901.7142857142856</ele><time>2026-04-18T15:03:22.19Z</time></trkpt><trkpt lat="43.9325966" lon="11.6553351"><ele>899.8571428571428</ele><time>2026-04-18T15:03:27.181Z</time></trkpt><trkpt lat="43.9326574" lon="11.6554041"><ele>898.0</ele><time>2026-04-18T15:04:24.185Z</time></trkpt><trkpt lat="43.9327078" lon="11.6554674"><ele>897.9999999999999</ele><time>2026-04-18T15:04:32.192Z</time></trkpt><trkpt lat="43.9326131" lon="11.6554023"><ele>898.0</ele><time>2026-04-18T15:07:38.188Z</time></trkpt><trkpt lat="43.9325841" lon="11.6553229"><ele>898.0</ele><time>2026-04-18T15:07:42.147Z</time></trkpt><trkpt lat="43.9325301" lon="11.6552671"><ele>898.0</ele><time>2026-04-18T15:07:48.188Z</time></trkpt><trkpt lat="43.9325331" lon="11.6553886"><ele>897.9999999999999</ele><time>2026-04-18T15:25:47.188Z</time></trkpt><trkpt lat="43.9325382" lon="11.6554951"><ele>898.0</ele><time>2026-04-18T15:25:53.188Z</time></trkpt><trkpt lat="43.9325416" lon="11.6554042"><ele>898.0</ele><time>2026-04-18T15:27:00.188Z</time></trkpt><trkpt lat="43.932606" lon="11.6553508"><ele>898.0</ele><time>2026-04-18T15:32:08.188Z</time></trkpt><trkpt lat="43.9326974" lon="11.6553061"><ele>898.0</ele><time>2026-04-18T15:32:51.188Z</time></trkpt><trkpt lat="43.932788" lon="11.6550945"><ele>898.0</ele><time>2026-04-18T15:32:53.188Z</time></trkpt><trkpt lat="43.932868" lon="11.6549322"><ele>900.3333333333333</ele><time>2026-04-18T15:32:54.188Z</time></trkpt><trkpt lat="43.9329754" lon="11.65474"><ele>902.6666666666667</ele><time>2026-04-18T15:32:55.187Z</time></trkpt><trkpt lat="43.9330884" lon="11.6545099"><ele>905.0</ele><time>2026-04-18T15:32:56.188Z</time></trkpt><trkpt lat="43.9331877" lon="11.6543013"><ele>905.0</ele><time>2026-04-18T15:32:57.188Z</time></trkpt><trkpt lat="43.9332898" lon="11.6541229"><ele>905.0</ele><time>2026-04-18T15:32:58.188Z</time></trkpt><trkpt lat="43.9334059" lon="11.6539836"><ele>905.0</ele><time>2026-04-18T15:32:59.188Z</time></trkpt><trkpt lat="43.9335327" lon="11.6538834"><ele>907.5</ele><time>2026-04-18T15:33:00.188Z</time></trkpt><trkpt lat="43.9336653" lon="11.6537779"><ele>910.0</ele><time>2026-04-18T15:33:01.188Z</time></trkpt><trkpt lat="43.9337793" lon="11.653668"><ele>912.5</ele><time>2026-04-18T15:33:02.188Z</time></trkpt><trkpt lat="43.9338792" lon="11.653518"><ele>915.0</ele><time>2026-04-18T15:33:03.188Z</time></trkpt><trkpt lat="43.9339657" lon="11.6533423"><ele>915.0</ele><time>2026-04-18T15:33:04.188Z</time></trkpt><trkpt lat="43.9340389" lon="11.6531755"><ele>915.0</ele><time>2026-04-18T15:33:05.187Z</time></trkpt><trkpt lat="43.9341077" lon="11.6530206"><ele>915.0</ele><time>2026-04-18T15:33:06.188Z</time></trkpt><trkpt lat="43.9341781" lon="11.6528846"><ele>915.0</ele><time>2026-04-18T15:33:07.188Z</time></trkpt><trkpt lat="43.9342586" lon="11.6527798"><ele>915.25</ele><time>2026-04-18T15:33:08.187Z</time></trkpt><trkpt lat="43.934358" lon="11.6527152"><ele>915.5</ele><time>2026-04-18T15:33:09.188Z</time></trkpt><trkpt lat="43.9344646" lon="11.6526643"><ele>915.75</ele><time>2026-04-18T15:33:10.188Z</time></trkpt><trkpt lat="43.9345751" lon="11.6526064"><ele>916.0</ele><time>2026-04-18T15:33:11.188Z</time></trkpt><trkpt lat="43.9346804" lon="11.6525334"><ele>916.0</ele><time>2026-04-18T15:33:12.188Z</time></trkpt><trkpt lat="43.9347864" lon="11.6524647"><ele>916.0</ele><time>2026-04-18T15:33:13.188Z</time></trkpt><trkpt lat="43.9348879" lon="11.6523935"><ele>916.0</ele><time>2026-04-18T15:33:14.188Z</time></trkpt><trkpt lat="43.9349812" lon="11.6523003"><ele>916.0</ele><time>2026-04-18T15:33:15.188Z</time></trkpt><trkpt lat="43.9350614" lon="11.652187"><ele>920.0</ele><time>2026-04-18T15:33:16.188Z</time></trkpt><trkpt lat="43.9351323" lon="11.6520597"><ele>924.0</ele><time>2026-04-18T15:33:17.187Z</time></trkpt><trkpt lat="43.9352031" lon="11.651931"><ele>928.0</ele><time>2026-04-18T15:33:18.188Z</time></trkpt><trkpt lat="43.9352763" lon="11.6518052"><ele>932.0</ele><time>2026-04-18T15:33:19.188Z</time></trkpt><trkpt lat="43.9353485" lon="11.6516757"><ele>932.0</ele><time>2026-04-18T15:33:20.188Z</time></trkpt><trkpt lat="43.9354188" lon="11.6515423"><ele>932.0</ele><time>2026-04-18T15:33:21.188Z</time></trkpt><trkpt lat="43.9354899" lon="11.6514107"><ele>932.0</ele><time>2026-04-18T15:33:22.188Z</time></trkpt><trkpt lat="43.9355561" lon="11.6512756"><ele>932.0</ele><time>2026-04-18T15:33:23.188Z</time></trkpt><trkpt lat="43.935612" lon="11.651139"><ele>925.75</ele><time>2026-04-18T15:33:24.188Z</time></trkpt><trkpt lat="43.9356514" lon="11.6509944"><ele>919.5</ele><time>2026-04-18T15:33:25.187Z</time></trkpt><trkpt lat="43.9356712" lon="11.6508384"><ele>913.25</ele><time>2026-04-18T15:33:26.188Z</time></trkpt><trkpt lat="43.9356929" lon="11.6506779"><ele>907.0</ele><time>2026-04-18T15:33:27.188Z</time></trkpt><trkpt lat="43.935736" lon="11.6505223"><ele>907.0</ele><time>2026-04-18T15:33:28.188Z</time></trkpt><trkpt lat="43.9357816" lon="11.6503743"><ele>907.0</ele><time>2026-04-18T15:33:29.188Z</time></trkpt><trkpt lat="43.9358294" lon="11.650238"><ele>907.0</ele><time>2026-04-18T15:33:30.188Z</time></trkpt><trkpt lat="43.9358938" lon="11.6501265"><ele>907.0</ele><time>2026-04-18T15:33:31.188Z</time></trkpt><trkpt lat="43.9359791" lon="11.6500472"><ele>907.0</ele><time>2026-04-18T15:33:32.187Z</time></trkpt><trkpt lat="43.9360691" lon="11.6499854"><ele>913.4000000000001</ele><time>2026-04-18T15:33:33.188Z</time></trkpt><trkpt lat="43.936155" lon="11.6499062"><ele>919.8000000000001</ele><time>2026-04-18T15:33:34.187Z</time></trkpt><trkpt lat="43.9362219" lon="11.6497948"><ele>926.2</ele><time>2026-04-18T15:33:35.188Z</time></trkpt><trkpt lat="43.936265" lon="11.6496542"><ele>932.6</ele><time>2026-04-18T15:33:36.188Z</time></trkpt><trkpt lat="43.936284" lon="11.6494867"><ele>939.0</ele><time>2026-04-18T15:33:37.187Z</time></trkpt><trkpt lat="43.9362871" lon="11.6493153"><ele>939.0</ele><time>2026-04-18T15:33:38.188Z</time></trkpt><trkpt lat="43.9362656" lon="11.6491439"><ele>939.0</ele><time>2026-04-18T15:33:39.188Z</time></trkpt><trkpt lat="43.9362171" lon="11.6489834"><ele>939.0</ele><time>2026-04-18T15:33:40.188Z</time></trkpt><trkpt lat="43.9361608" lon="11.6488314"><ele>939.0</ele><time>2026-04-18T15:33:41.187Z</time></trkpt><trkpt lat="43.9361333" lon="11.648688"><ele>938.2</ele><time>2026-04-18T15:33:42.188Z</time></trkpt><trkpt lat="43.9361362" lon="11.648538"><ele>937.4000000000001</ele><time>2026-04-18T15:33:43.188Z</time></trkpt><trkpt lat="43.9361727" lon="11.6484019"><ele>936.6</ele><time>2026-04-18T15:33:44.188Z</time></trkpt><trkpt lat="43.9362014" lon="11.6482636"><ele>935.8</ele><time>2026-04-18T15:33:45.188Z</time></trkpt><trkpt lat="43.9361973" lon="11.6481167"><ele>935.0</ele><time>2026-04-18T15:33:46.188Z</time></trkpt><trkpt lat="43.9361679" lon="11.6479735"><ele>935.0</ele><time>2026-04-18T15:33:47.188Z</time></trkpt><trkpt lat="43.9361155" lon="11.6478449"><ele>935.0</ele><time>2026-04-18T15:33:48.187Z</time></trkpt><trkpt lat="43.936052" lon="11.6477279"><ele>935.0</ele><time>2026-04-18T15:33:49.188Z</time></trkpt><trkpt lat="43.9359784" lon="11.647621"><ele>935.0</ele><time>2026-04-18T15:33:50.188Z</time></trkpt><trkpt lat="43.9359021" lon="11.6475187"><ele>935.0</ele><time>2026-04-18T15:33:51.188Z</time></trkpt><trkpt lat="43.9358267" lon="11.6474132"><ele>928.8</ele><time>2026-04-18T15:33:52.188Z</time></trkpt><trkpt lat="43.9357619" lon="11.6472926"><ele>922.6</ele><time>2026-04-18T15:33:53.188Z</time></trkpt><trkpt lat="43.9357147" lon="11.6471575"><ele>916.4000000000001</ele><time>2026-04-18T15:33:54.188Z</time></trkpt><trkpt lat="43.935685" lon="11.6470211"><ele>910.2</ele><time>2026-04-18T15:33:55.188Z</time></trkpt><trkpt lat="43.9356566" lon="11.6468892"><ele>904.0</ele><time>2026-04-18T15:33:56.187Z</time></trkpt><trkpt lat="43.9356278" lon="11.6467672"><ele>903.9999999999999</ele><time>2026-04-18T15:33:57.188Z</time></trkpt><trkpt lat="43.9355965" lon="11.6466586"><ele>904.0</ele><time>2026-04-18T15:33:58.188Z</time></trkpt><trkpt lat="43.9355547" lon="11.6465637"><ele>904.0</ele><time>2026-04-18T15:33:59.188Z</time></trkpt><trkpt lat="43.9355005" lon="11.6464922"><ele>904.0</ele><time>2026-04-18T15:34:00.188Z</time></trkpt><trkpt lat="43.9354399" lon="11.6464405"><ele>903.9999999999999</ele><time>2026-04-18T15:34:01.188Z</time></trkpt><trkpt lat="43.9353732" lon="11.6464005"><ele>904.0</ele><time>2026-04-18T15:34:02.187Z</time></trkpt><trkpt lat="43.9353075" lon="11.6463491"><ele>903.9999999999999</ele><time>2026-04-18T15:34:03.188Z</time></trkpt><trkpt lat="43.9352443" lon="11.6462815"><ele>904.0</ele><time>2026-04-18T15:34:04.187Z</time></trkpt><trkpt lat="43.9351848" lon="11.646197"><ele>904.0</ele><time>2026-04-18T15:34:05.188Z</time></trkpt><trkpt lat="43.935119" lon="11.6461103"><ele>904.0</ele><time>2026-04-18T15:34:06.188Z</time></trkpt><trkpt lat="43.9350535" lon="11.6460291"><ele>903.9999999999999</ele><time>2026-04-18T15:34:07.188Z</time></trkpt><trkpt lat="43.9349963" lon="11.6459492"><ele>904.0</ele><time>2026-04-18T15:34:08.188Z</time></trkpt><trkpt lat="43.9349744" lon="11.6458644"><ele>900.6</ele><time>2026-04-18T15:34:09.188Z</time></trkpt><trkpt lat="43.9350457" lon="11.6457442"><ele>897.2</ele><time>2026-04-18T15:34:11.187Z</time></trkpt><trkpt lat="43.9351278" lon="11.6457261"><ele>893.8000000000001</ele><time>2026-04-18T15:34:12.188Z</time></trkpt><trkpt lat="43.9352346" lon="11.6457219"><ele>890.4000000000001</ele><time>2026-04-18T15:34:13.188Z</time></trkpt><trkpt lat="43.9353433" lon="11.6457087"><ele>887.0</ele><time>2026-04-18T15:34:14.187Z</time></trkpt><trkpt lat="43.9354651" lon="11.6456813"><ele>887.0</ele><time>2026-04-18T15:34:15.188Z</time></trkpt><trkpt lat="43.9355894" lon="11.6456371"><ele>887.0</ele><time>2026-04-18T15:34:16.187Z</time></trkpt><trkpt lat="43.9357133" lon="11.6455624"><ele>887.0</ele><time>2026-04-18T15:34:17.188Z</time></trkpt><trkpt lat="43.9358436" lon="11.645487"><ele>887.0</ele><time>2026-04-18T15:34:18.188Z</time></trkpt><trkpt lat="43.9359837" lon="11.6454241"><ele>884.5</ele><time>2026-04-18T15:34:19.188Z</time></trkpt><trkpt lat="43.9361316" lon="11.6453711"><ele>882.0</ele><time>2026-04-18T15:34:20.187Z</time></trkpt><trkpt lat="43.9362721" lon="11.6453203"><ele>879.5</ele><time>2026-04-18T15:34:21.188Z</time></trkpt><trkpt lat="43.9364081" lon="11.6452767"><ele>877.0</ele><time>2026-04-18T15:34:22.187Z</time></trkpt><trkpt lat="43.9365342" lon="11.6452376"><ele>877.0</ele><time>2026-04-18T15:34:23.188Z</time></trkpt><trkpt lat="43.9366342" lon="11.6451952"><ele>877.0</ele><time>2026-04-18T15:34:24.188Z</time></trkpt><trkpt lat="43.936708" lon="11.6451173"><ele>877.0</ele><time>2026-04-18T15:34:25.187Z</time></trkpt><trkpt lat="43.9367869" lon="11.6450447"><ele>877.0</ele><time>2026-04-18T15:34:26.188Z</time></trkpt><trkpt lat="43.936737" lon="11.6448612"><ele>877.0</ele><time>2026-04-18T15:34:27.188Z</time></trkpt><trkpt lat="43.9366922" lon="11.6447188"><ele>877.0</ele><time>2026-04-18T15:34:28.188Z</time></trkpt><trkpt lat="43.9366256" lon="11.6445695"><ele>877.0</ele><time>2026-04-18T15:34:29.188Z</time></trkpt><trkpt lat="43.9365669" lon="11.6443901"><ele>877.0</ele><time>2026-04-18T15:34:30.188Z</time></trkpt><trkpt lat="43.9365253" lon="11.6441866"><ele>877.0</ele><time>2026-04-18T15:34:31.188Z</time></trkpt><trkpt lat="43.9364922" lon="11.6439703"><ele>876.0</ele><time>2026-04-18T15:34:32.188Z</time></trkpt><trkpt lat="43.936456" lon="11.643769"><ele>875.0</ele><time>2026-04-18T15:34:33.188Z</time></trkpt><trkpt lat="43.9364024" lon="11.6435835"><ele>874.0</ele><time>2026-04-18T15:34:34.188Z</time></trkpt><trkpt lat="43.9363389" lon="11.6434152"><ele>873.0</ele><time>2026-04-18T15:34:35.188Z</time></trkpt><trkpt lat="43.9362791" lon="11.6432578"><ele>870.6666666666666</ele><time>2026-04-18T15:34:36.187Z</time></trkpt><trkpt lat="43.9362223" lon="11.6431296"><ele>868.3333333333333</ele><time>2026-04-18T15:34:37.188Z</time></trkpt><trkpt lat="43.9361522" lon="11.6430417"><ele>866.0</ele><time>2026-04-18T15:34:38.188Z</time></trkpt><trkpt lat="43.9360728" lon="11.643012"><ele>863.6666666666666</ele><time>2026-04-18T15:34:39.188Z</time></trkpt><trkpt lat="43.9359982" lon="11.6430461"><ele>861.3333333333333</ele><time>2026-04-18T15:34:40.188Z</time></trkpt><trkpt lat="43.9359405" lon="11.6431266"><ele>859.0</ele><time>2026-04-18T15:34:41.188Z</time></trkpt><trkpt lat="43.9359192" lon="11.6432339"><ele>859.0</ele><time>2026-04-18T15:34:42.188Z</time></trkpt><trkpt lat="43.935941" lon="11.6433452"><ele>859.0000000000001</ele><time>2026-04-18T15:34:43.188Z</time></trkpt><trkpt lat="43.9360031" lon="11.6434409"><ele>859.0000000000001</ele><time>2026-04-18T15:34:44.188Z</time></trkpt><trkpt lat="43.9360854" lon="11.6435234"><ele>859.0</ele><time>2026-04-18T15:34:45.188Z</time></trkpt><trkpt lat="43.9361617" lon="11.6436034"><ele>859.0</ele><time>2026-04-18T15:34:46.188Z</time></trkpt><trkpt lat="43.9362158" lon="11.64371"><ele>862.5</ele><time>2026-04-18T15:34:47.188Z</time></trkpt><trkpt lat="43.9362321" lon="11.6438448"><ele>866.0</ele><time>2026-04-18T15:34:48.188Z</time></trkpt><trkpt lat="43.9362188" lon="11.6440068"><ele>869.5</ele><time>2026-04-18T15:34:49.188Z</time></trkpt><trkpt lat="43.9361905" lon="11.6441706"><ele>873.0</ele><time>2026-04-18T15:34:50.188Z</time></trkpt><trkpt lat="43.9361506" lon="11.644345"><ele>873.8</ele><time>2026-04-18T15:34:51.188Z</time></trkpt><trkpt lat="43.9361101" lon="11.6444962"><ele>874.5999999999999</ele><time>2026-04-18T15:34:52.188Z</time></trkpt><trkpt lat="43.9360555" lon="11.6446101"><ele>875.4000000000001</ele><time>2026-04-18T15:34:53.188Z</time></trkpt><trkpt lat="43.9359796" lon="11.6446767"><ele>876.2</ele><time>2026-04-18T15:34:54.188Z</time></trkpt><trkpt lat="43.9358955" lon="11.6446736"><ele>877.0</ele><time>2026-04-18T15:34:55.188Z</time></trkpt><trkpt lat="43.9358146" lon="11.6446051"><ele>874.4000000000001</ele><time>2026-04-18T15:34:56.188Z</time></trkpt><trkpt lat="43.9357436" lon="11.6445218"><ele>871.8000000000001</ele><time>2026-04-18T15:34:57.188Z</time></trkpt><trkpt lat="43.9356532" lon="11.6444661"><ele>869.2</ele><time>2026-04-18T15:34:58.188Z</time></trkpt><trkpt lat="43.9355508" lon="11.644466"><ele>866.6</ele><time>2026-04-18T15:34:59.187Z</time></trkpt><trkpt lat="43.9354439" lon="11.6444647"><ele>864.0</ele><time>2026-04-18T15:35:00.188Z</time></trkpt><trkpt lat="43.935356" lon="11.6446034"><ele>864.0</ele><time>2026-04-18T15:35:01.188Z</time></trkpt><trkpt lat="43.9352496" lon="11.6446511"><ele>864.0</ele><time>2026-04-18T15:35:02.188Z</time></trkpt><trkpt lat="43.9351341" lon="11.6446439"><ele>864.0</ele><time>2026-04-18T15:35:03.188Z</time></trkpt><trkpt lat="43.9350071" lon="11.6445859"><ele>864.0</ele><time>2026-04-18T15:35:04.188Z</time></trkpt><trkpt lat="43.9348624" lon="11.6445265"><ele>861.6666666666667</ele><time>2026-04-18T15:35:05.188Z</time></trkpt><trkpt lat="43.9347127" lon="11.6444677"><ele>859.3333333333334</ele><time>2026-04-18T15:35:06.188Z</time></trkpt><trkpt lat="43.9345641" lon="11.6444005"><ele>857.0</ele><time>2026-04-18T15:35:07.187Z</time></trkpt><trkpt lat="43.9344236" lon="11.6443118"><ele>848.6666666666667</ele><time>2026-04-18T15:35:08.188Z</time></trkpt><trkpt lat="43.9342819" lon="11.6441927"><ele>840.3333333333333</ele><time>2026-04-18T15:35:09.188Z</time></trkpt><trkpt lat="43.9341423" lon="11.6440585"><ele>832.0</ele><time>2026-04-18T15:35:10.188Z</time></trkpt><trkpt lat="43.9340027" lon="11.6439205"><ele>832.0</ele><time>2026-04-18T15:35:11.188Z</time></trkpt><trkpt lat="43.9338577" lon="11.6437784"><ele>832.0</ele><time>2026-04-18T15:35:12.188Z</time></trkpt><trkpt lat="43.9337225" lon="11.6436399"><ele>832.0</ele><time>2026-04-18T15:35:13.188Z</time></trkpt><trkpt lat="43.9335948" lon="11.6434907"><ele>826.5</ele><time>2026-04-18T15:35:14.188Z</time></trkpt><trkpt lat="43.9334852" lon="11.6433293"><ele>821.0</ele><time>2026-04-18T15:35:15.187Z</time></trkpt><trkpt lat="43.9333877" lon="11.6431692"><ele>815.5</ele><time>2026-04-18T15:35:16.188Z</time></trkpt><trkpt lat="43.9333028" lon="11.6430209"><ele>810.0</ele><time>2026-04-18T15:35:17.188Z</time></trkpt><trkpt lat="43.9332324" lon="11.642899"><ele>810.0</ele><time>2026-04-18T15:35:18.188Z</time></trkpt><trkpt lat="43.9331712" lon="11.6428054"><ele>810.0</ele><time>2026-04-18T15:35:19.188Z</time></trkpt><trkpt lat="43.9331125" lon="11.642748"><ele>810.0</ele><time>2026-04-18T15:35:20.188Z</time></trkpt><trkpt lat="43.9330485" lon="11.6427395"><ele>810.0</ele><time>2026-04-18T15:35:21.188Z</time></trkpt><trkpt lat="43.9329721" lon="11.6428633"><ele>810.0</ele><time>2026-04-18T15:35:23.188Z</time></trkpt><trkpt lat="43.9329766" lon="11.6429728"><ele>810.0</ele><time>2026-04-18T15:35:24.188Z</time></trkpt><trkpt lat="43.9330055" lon="11.6430973"><ele>810.0</ele><time>2026-04-18T15:35:25.188Z</time></trkpt><trkpt lat="43.9330273" lon="11.6432417"><ele>810.0</ele><time>2026-04-18T15:35:26.188Z</time></trkpt><trkpt lat="43.9330316" lon="11.6433929"><ele>810.0</ele><time>2026-04-18T15:35:27.188Z</time></trkpt><trkpt lat="43.9330143" lon="11.6435588"><ele>810.0</ele><time>2026-04-18T15:35:28.188Z</time></trkpt><trkpt lat="43.9329727" lon="11.6437218"><ele>814.0</ele><time>2026-04-18T15:35:29.187Z</time></trkpt><trkpt lat="43.9329155" lon="11.6438873"><ele>818.0</ele><time>2026-04-18T15:35:30.188Z</time></trkpt><trkpt lat="43.9328627" lon="11.6440498"><ele>822.0</ele><time>2026-04-18T15:35:31.188Z</time></trkpt><trkpt lat="43.9328429" lon="11.6442169"><ele>826.0</ele><time>2026-04-18T15:35:32.188Z</time></trkpt><trkpt lat="43.9328438" lon="11.6443704"><ele>827.4</ele><time>2026-04-18T15:35:33.188Z</time></trkpt><trkpt lat="43.9328397" lon="11.6444974"><ele>828.8</ele><time>2026-04-18T15:35:34.188Z</time></trkpt><trkpt lat="43.9327928" lon="11.644619"><ele>830.1999999999999</ele><time>2026-04-18T15:35:35.188Z</time></trkpt><trkpt lat="43.9327147" lon="11.6447386"><ele>831.5999999999999</ele><time>2026-04-18T15:35:36.187Z</time></trkpt><trkpt lat="43.9326164" lon="11.6448622"><ele>833.0</ele><time>2026-04-18T15:35:37.188Z</time></trkpt><trkpt lat="43.9325074" lon="11.6449689"><ele>824.8</ele><time>2026-04-18T15:35:38.188Z</time></trkpt><trkpt lat="43.9323893" lon="11.6450508"><ele>816.5999999999999</ele><time>2026-04-18T15:35:39.188Z</time></trkpt><trkpt lat="43.9322705" lon="11.6451133"><ele>808.4000000000001</ele><time>2026-04-18T15:35:40.188Z</time></trkpt><trkpt lat="43.9321695" lon="11.6451649"><ele>800.2</ele><time>2026-04-18T15:35:41.188Z</time></trkpt><trkpt lat="43.9320952" lon="11.6452119"><ele>792.0</ele><time>2026-04-18T15:35:42.188Z</time></trkpt><trkpt lat="43.9320403" lon="11.6452753"><ele>791.1666666666666</ele><time>2026-04-18T15:35:43.187Z</time></trkpt><trkpt lat="43.9320161" lon="11.6453625"><ele>790.3333333333333</ele><time>2026-04-18T15:35:44.188Z</time></trkpt><trkpt lat="43.9320243" lon="11.6454622"><ele>789.5</ele><time>2026-04-18T15:35:45.187Z</time></trkpt><trkpt lat="43.9320691" lon="11.6455609"><ele>788.6666666666666</ele><time>2026-04-18T15:35:46.188Z</time></trkpt><trkpt lat="43.9321403" lon="11.6456516"><ele>787.8333333333333</ele><time>2026-04-18T15:35:47.188Z</time></trkpt><trkpt lat="43.9322263" lon="11.645729"><ele>787.0</ele><time>2026-04-18T15:35:48.188Z</time></trkpt><trkpt lat="43.9323234" lon="11.6458137"><ele>787.0</ele><time>2026-04-18T15:35:49.188Z</time></trkpt><trkpt lat="43.9324217" lon="11.6459006"><ele>787.0</ele><time>2026-04-18T15:35:50.188Z</time></trkpt><trkpt lat="43.9325247" lon="11.6459804"><ele>787.0</ele><time>2026-04-18T15:35:51.188Z</time></trkpt><trkpt lat="43.9326245" lon="11.6460512"><ele>787.0</ele><time>2026-04-18T15:35:52.188Z</time></trkpt><trkpt lat="43.9327252" lon="11.6461211"><ele>788.3333333333333</ele><time>2026-04-18T15:35:53.188Z</time></trkpt><trkpt lat="43.9328182" lon="11.6461913"><ele>789.6666666666666</ele><time>2026-04-18T15:35:54.187Z</time></trkpt><trkpt lat="43.932882" lon="11.646254"><ele>791.0</ele><time>2026-04-18T15:35:55.188Z</time></trkpt><trkpt lat="43.9329182" lon="11.6463469"><ele>792.3333333333333</ele><time>2026-04-18T15:35:56.187Z</time></trkpt><trkpt lat="43.9329112" lon="11.6464507"><ele>793.6666666666666</ele><time>2026-04-18T15:35:57.188Z</time></trkpt><trkpt lat="43.9328676" lon="11.6465492"><ele>795.0</ele><time>2026-04-18T15:35:58.187Z</time></trkpt><trkpt lat="43.9328078" lon="11.6466476"><ele>795.0</ele><time>2026-04-18T15:35:59.188Z</time></trkpt><trkpt lat="43.9327437" lon="11.6467542"><ele>795.0</ele><time>2026-04-18T15:36:00.188Z</time></trkpt><trkpt lat="43.9326834" lon="11.6468743"><ele>795.0</ele><time>2026-04-18T15:36:01.187Z</time></trkpt><trkpt lat="43.9326435" lon="11.6469937"><ele>795.0</ele><time>2026-04-18T15:36:02.188Z</time></trkpt><trkpt lat="43.9326172" lon="11.647121"><ele>795.0</ele><time>2026-04-18T15:36:03.187Z</time></trkpt><trkpt lat="43.9325951" lon="11.6472491"><ele>789.1666666666666</ele><time>2026-04-18T15:36:04.188Z</time></trkpt><trkpt lat="43.9325547" lon="11.6473514"><ele>783.3333333333334</ele><time>2026-04-18T15:36:05.188Z</time></trkpt><trkpt lat="43.9324887" lon="11.6474182"><ele>777.5</ele><time>2026-04-18T15:36:06.188Z</time></trkpt><trkpt lat="43.93241" lon="11.647424"><ele>771.6666666666667</ele><time>2026-04-18T15:36:07.188Z</time></trkpt><trkpt lat="43.9323468" lon="11.6473666"><ele>765.8333333333334</ele><time>2026-04-18T15:36:08.188Z</time></trkpt><trkpt lat="43.9323176" lon="11.6472611"><ele>760.0</ele><time>2026-04-18T15:36:09.188Z</time></trkpt><trkpt lat="43.9323354" lon="11.6471409"><ele>760.0</ele><time>2026-04-18T15:36:10.188Z</time></trkpt><trkpt lat="43.9323938" lon="11.6470456"><ele>760.0</ele><time>2026-04-18T15:36:11.188Z</time></trkpt><trkpt lat="43.9324759" lon="11.6469651"><ele>760.0</ele><time>2026-04-18T15:36:12.188Z</time></trkpt><trkpt lat="43.9325553" lon="11.6468743"><ele>760.0</ele><time>2026-04-18T15:36:13.188Z</time></trkpt><trkpt lat="43.9326202" lon="11.6467655"><ele>760.0</ele><time>2026-04-18T15:36:14.187Z</time></trkpt><trkpt lat="43.9326567" lon="11.6466503"><ele>760.8</ele><time>2026-04-18T15:36:15.188Z</time></trkpt><trkpt lat="43.9326567" lon="11.6465299"><ele>761.6</ele><time>2026-04-18T15:36:16.188Z</time></trkpt><trkpt lat="43.9326151" lon="11.646422"><ele>762.4000000000001</ele><time>2026-04-18T15:36:17.188Z</time></trkpt><trkpt lat="43.9325387" lon="11.646348"><ele>763.2</ele><time>2026-04-18T15:36:18.188Z</time></trkpt><trkpt lat="43.9324273" lon="11.6463042"><ele>764.0</ele><time>2026-04-18T15:36:19.187Z</time></trkpt><trkpt lat="43.932306" lon="11.6462741"><ele>764.0</ele><time>2026-04-18T15:36:20.187Z</time></trkpt><trkpt lat="43.9321762" lon="11.6462175"><ele>764.0</ele><time>2026-04-18T15:36:21.188Z</time></trkpt><trkpt lat="43.9320468" lon="11.6461239"><ele>764.0</ele><time>2026-04-18T15:36:22.188Z</time></trkpt><trkpt lat="43.9319287" lon="11.6460197"><ele>764.0</ele><time>2026-04-18T15:36:23.188Z</time></trkpt><trkpt lat="43.9318098" lon="11.6459278"><ele>762.0</ele><time>2026-04-18T15:36:24.188Z</time></trkpt><trkpt lat="43.9316887" lon="11.6458725"><ele>760.0</ele><time>2026-04-18T15:36:25.187Z</time></trkpt><trkpt lat="43.9315781" lon="11.6458507"><ele>758.0</ele><time>2026-04-18T15:36:26.188Z</time></trkpt><trkpt lat="43.9314908" lon="11.6458356"><ele>756.0</ele><time>2026-04-18T15:36:27.187Z</time></trkpt><trkpt lat="43.9314237" lon="11.6457763"><ele>754.0</ele><time>2026-04-18T15:36:28.188Z</time></trkpt><trkpt lat="43.9313918" lon="11.645674"><ele>754.0</ele><time>2026-04-18T15:36:29.188Z</time></trkpt><trkpt lat="43.931391" lon="11.6455455"><ele>754.0</ele><time>2026-04-18T15:36:30.188Z</time></trkpt><trkpt lat="43.9313951" lon="11.6454003"><ele>754.0</ele><time>2026-04-18T15:36:31.188Z</time></trkpt><trkpt lat="43.9313955" lon="11.6452388"><ele>754.0</ele><time>2026-04-18T15:36:32.188Z</time></trkpt><trkpt lat="43.9313877" lon="11.6450764"><ele>754.0</ele><time>2026-04-18T15:36:33.188Z</time></trkpt><trkpt lat="43.931373" lon="11.6449167"><ele>754.4000000000001</ele><time>2026-04-18T15:36:34.188Z</time></trkpt><trkpt lat="43.9313639" lon="11.6447858"><ele>754.8</ele><time>2026-04-18T15:36:35.188Z</time></trkpt><trkpt lat="43.9313937" lon="11.6446717"><ele>755.2</ele><time>2026-04-18T15:36:36.188Z</time></trkpt><trkpt lat="43.9314574" lon="11.6446063"><ele>755.5999999999999</ele><time>2026-04-18T15:36:37.188Z</time></trkpt><trkpt lat="43.9315454" lon="11.6445687"><ele>756.0</ele><time>2026-04-18T15:36:38.188Z</time></trkpt><trkpt lat="43.931646" lon="11.6445388"><ele>760.1999999999999</ele><time>2026-04-18T15:36:39.188Z</time></trkpt><trkpt lat="43.9317486" lon="11.6445049"><ele>764.4</ele><time>2026-04-18T15:36:40.187Z</time></trkpt><trkpt lat="43.9318534" lon="11.6444533"><ele>768.6</ele><time>2026-04-18T15:36:41.188Z</time></trkpt><trkpt lat="43.9319444" lon="11.6443854"><ele>772.8</ele><time>2026-04-18T15:36:42.188Z</time></trkpt><trkpt lat="43.9320034" lon="11.6442849"><ele>777.0</ele><time>2026-04-18T15:36:43.188Z</time></trkpt><trkpt lat="43.9320287" lon="11.6441614"><ele>777.0</ele><time>2026-04-18T15:36:44.188Z</time></trkpt><trkpt lat="43.9320206" lon="11.6440283"><ele>777.0</ele><time>2026-04-18T15:36:45.187Z</time></trkpt><trkpt lat="43.9320186" lon="11.6438947"><ele>777.0</ele><time>2026-04-18T15:36:46.188Z</time></trkpt><trkpt lat="43.9320491" lon="11.6437597"><ele>777.0</ele><time>2026-04-18T15:36:47.188Z</time></trkpt><trkpt lat="43.9320922" lon="11.6436329"><ele>777.0</ele><time>2026-04-18T15:36:48.188Z</time></trkpt><trkpt lat="43.9321082" lon="11.6435071"><ele>775.8</ele><time>2026-04-18T15:36:49.188Z</time></trkpt><trkpt lat="43.932094" lon="11.6433741"><ele>774.6</ele><time>2026-04-18T15:36:50.188Z</time></trkpt><trkpt lat="43.9320557" lon="11.6432449"><ele>773.4</ele><time>2026-04-18T15:36:51.188Z</time></trkpt><trkpt lat="43.9320126" lon="11.6431256"><ele>772.1999999999999</ele><time>2026-04-18T15:36:52.187Z</time></trkpt><trkpt lat="43.9319798" lon="11.6430116"><ele>771.0</ele><time>2026-04-18T15:36:53.187Z</time></trkpt><trkpt lat="43.9319489" lon="11.6429135"><ele>769.5999999999999</ele><time>2026-04-18T15:36:54.188Z</time></trkpt><trkpt lat="43.9319102" lon="11.6427888"><ele>768.2</ele><time>2026-04-18T15:36:56.188Z</time></trkpt><trkpt lat="43.9318831" lon="11.6426977"><ele>766.8</ele><time>2026-04-18T15:38:52.188Z</time></trkpt><trkpt lat="43.9318485" lon="11.6425342"><ele>765.4000000000001</ele><time>2026-04-18T15:38:55.188Z</time></trkpt><trkpt lat="43.9318594" lon="11.6424173"><ele>764.0</ele><time>2026-04-18T15:38:56.188Z</time></trkpt><trkpt lat="43.9318864" lon="11.6422926"><ele>764.0</ele><time>2026-04-18T15:38:57.188Z</time></trkpt><trkpt lat="43.9319358" lon="11.6421651"><ele>764.0</ele><time>2026-04-18T15:38:58.188Z</time></trkpt><trkpt lat="43.9320078" lon="11.6420475"><ele>764.0</ele><time>2026-04-18T15:38:59.188Z</time></trkpt><trkpt lat="43.9320924" lon="11.6419469"><ele>764.0</ele><time>2026-04-18T15:39:00.188Z</time></trkpt><trkpt lat="43.9321798" lon="11.6418444"><ele>764.0</ele><time>2026-04-18T15:39:01.188Z</time></trkpt><trkpt lat="43.9322577" lon="11.6417145"><ele>759.5</ele><time>2026-04-18T15:39:02.188Z</time></trkpt><trkpt lat="43.9323149" lon="11.6415599"><ele>755.0</ele><time>2026-04-18T15:39:03.188Z</time></trkpt><trkpt lat="43.9323441" lon="11.6414019"><ele>750.5</ele><time>2026-04-18T15:39:04.187Z</time></trkpt><trkpt lat="43.9323553" lon="11.6412444"><ele>746.0</ele><time>2026-04-18T15:39:05.188Z</time></trkpt><trkpt lat="43.9323487" lon="11.6410963"><ele>742.5999999999999</ele><time>2026-04-18T15:39:06.188Z</time></trkpt><trkpt lat="43.9323207" lon="11.6409622"><ele>739.2</ele><time>2026-04-18T15:39:07.188Z</time></trkpt><trkpt lat="43.9322722" lon="11.640843"><ele>735.8</ele><time>2026-04-18T15:39:08.188Z</time></trkpt><trkpt lat="43.9322064" lon="11.6407409"><ele>732.4000000000001</ele><time>2026-04-18T15:39:09.188Z</time></trkpt><trkpt lat="43.9321253" lon="11.6406461"><ele>729.0</ele><time>2026-04-18T15:39:10.188Z</time></trkpt><trkpt lat="43.932046" lon="11.6405289"><ele>729.0</ele><time>2026-04-18T15:39:11.188Z</time></trkpt><trkpt lat="43.9319725" lon="11.6403684"><ele>729.0</ele><time>2026-04-18T15:39:12.188Z</time></trkpt><trkpt lat="43.9319139" lon="11.6401888"><ele>729.0</ele><time>2026-04-18T15:39:13.188Z</time></trkpt><trkpt lat="43.931853" lon="11.6400092"><ele>729.0</ele><time>2026-04-18T15:39:14.188Z</time></trkpt><trkpt lat="43.931795" lon="11.6398381"><ele>727.8000000000001</ele><time>2026-04-18T15:39:15.188Z</time></trkpt><trkpt lat="43.9317431" lon="11.6396807"><ele>726.6</ele><time>2026-04-18T15:39:16.188Z</time></trkpt><trkpt lat="43.9316975" lon="11.639543"><ele>725.4</ele><time>2026-04-18T15:39:17.188Z</time></trkpt><trkpt lat="43.9316568" lon="11.6394145"><ele>724.2</ele><time>2026-04-18T15:39:18.188Z</time></trkpt><trkpt lat="43.9316306" lon="11.6392798"><ele>723.0</ele><time>2026-04-18T15:39:19.188Z</time></trkpt><trkpt lat="43.9316312" lon="11.6391401"><ele>720.5</ele><time>2026-04-18T15:39:20.188Z</time></trkpt><trkpt lat="43.9316599" lon="11.6389986"><ele>718.0</ele><time>2026-04-18T15:39:21.188Z</time></trkpt><trkpt lat="43.9317027" lon="11.6388449"><ele>715.5</ele><time>2026-04-18T15:39:22.188Z</time></trkpt><trkpt lat="43.9317499" lon="11.6386925"><ele>713.0</ele><time>2026-04-18T15:39:23.188Z</time></trkpt><trkpt lat="43.9317991" lon="11.6385252"><ele>710.75</ele><time>2026-04-18T15:39:24.188Z</time></trkpt><trkpt lat="43.9318377" lon="11.6383569"><ele>708.5</ele><time>2026-04-18T15:39:25.188Z</time></trkpt><trkpt lat="43.9318689" lon="11.638189"><ele>706.25</ele><time>2026-04-18T15:39:26.188Z</time></trkpt><trkpt lat="43.9318943" lon="11.6380224"><ele>704.0</ele><time>2026-04-18T15:39:27.188Z</time></trkpt><trkpt lat="43.9319105" lon="11.6378599"><ele>701.4000000000001</ele><time>2026-04-18T15:39:28.188Z</time></trkpt><trkpt lat="43.9319234" lon="11.637707"><ele>698.8</ele><time>2026-04-18T15:39:29.188Z</time></trkpt><trkpt lat="43.9319282" lon="11.637558"><ele>696.2</ele><time>2026-04-18T15:39:30.188Z</time></trkpt><trkpt lat="43.931931" lon="11.637425"><ele>693.5999999999999</ele><time>2026-04-18T15:39:31.188Z</time></trkpt><trkpt lat="43.9319389" lon="11.6373189"><ele>691.0</ele><time>2026-04-18T15:39:32.188Z</time></trkpt><trkpt lat="43.9319812" lon="11.637247"><ele>691.0</ele><time>2026-04-18T15:39:33.188Z</time></trkpt><trkpt lat="43.9320439" lon="11.637227"><ele>691.0</ele><time>2026-04-18T15:39:34.188Z</time></trkpt><trkpt lat="43.9320994" lon="11.6372766"><ele>691.0</ele><time>2026-04-18T15:39:35.188Z</time></trkpt><trkpt lat="43.9321356" lon="11.637387"><ele>691.0</ele><time>2026-04-18T15:39:36.188Z</time></trkpt><trkpt lat="43.9321484" lon="11.6375434"><ele>691.0</ele><time>2026-04-18T15:39:37.188Z</time></trkpt><trkpt lat="43.9321626" lon="11.637706"><ele>691.0</ele><time>2026-04-18T15:39:38.188Z</time></trkpt><trkpt lat="43.9321931" lon="11.6378812"><ele>694.25</ele><time>2026-04-18T15:39:39.188Z</time></trkpt><trkpt lat="43.9322526" lon="11.6380601"><ele>697.5</ele><time>2026-04-18T15:39:40.187Z</time></trkpt><trkpt lat="43.9323378" lon="11.6382205"><ele>700.75</ele><time>2026-04-18T15:39:41.188Z</time></trkpt><trkpt lat="43.9324274" lon="11.6383646"><ele>704.0</ele><time>2026-04-18T15:39:42.188Z</time></trkpt><trkpt lat="43.9325173" lon="11.6385047"><ele>701.0</ele><time>2026-04-18T15:39:43.188Z</time></trkpt><trkpt lat="43.9325988" lon="11.6386311"><ele>698.0</ele><time>2026-04-18T15:39:44.188Z</time></trkpt><trkpt lat="43.9326827" lon="11.6387537"><ele>695.0</ele><time>2026-04-18T15:39:45.188Z</time></trkpt><trkpt lat="43.9327555" lon="11.638882"><ele>692.0</ele><time>2026-04-18T15:39:46.188Z</time></trkpt><trkpt lat="43.9328168" lon="11.6390309"><ele>692.0</ele><time>2026-04-18T15:39:47.188Z</time></trkpt><trkpt lat="43.932867" lon="11.6391917"><ele>692.0</ele><time>2026-04-18T15:39:48.188Z</time></trkpt><trkpt lat="43.9328831" lon="11.6393745"><ele>692.0</ele><time>2026-04-18T15:39:49.188Z</time></trkpt><trkpt lat="43.9328973" lon="11.6395547"><ele>692.0</ele><time>2026-04-18T15:39:50.188Z</time></trkpt><trkpt lat="43.9329198" lon="11.6397323"><ele>694.8</ele><time>2026-04-18T15:39:51.188Z</time></trkpt><trkpt lat="43.9329742" lon="11.6398931"><ele>697.6</ele><time>2026-04-18T15:39:52.188Z</time></trkpt><trkpt lat="43.9330415" lon="11.640042"><ele>700.4</ele><time>2026-04-18T15:39:53.188Z</time></trkpt><trkpt lat="43.9330994" lon="11.6401592"><ele>703.1999999999999</ele><time>2026-04-18T15:39:54.187Z</time></trkpt><trkpt lat="43.9331589" lon="11.6402468"><ele>706.0</ele><time>2026-04-18T15:39:55.187Z</time></trkpt><trkpt lat="43.9332347" lon="11.6402933"><ele>706.0</ele><time>2026-04-18T15:39:56.188Z</time></trkpt><trkpt lat="43.9333222" lon="11.6403082"><ele>706.0</ele><time>2026-04-18T15:39:57.188Z</time></trkpt><trkpt lat="43.9333537" lon="11.6401949"><ele>706.0</ele><time>2026-04-18T15:39:58.188Z</time></trkpt><trkpt lat="43.9333774" lon="11.64008"><ele>706.0</ele><time>2026-04-18T15:39:59.188Z</time></trkpt><trkpt lat="43.9333884" lon="11.6399296"><ele>706.0</ele><time>2026-04-18T15:40:00.188Z</time></trkpt><trkpt lat="43.9334221" lon="11.6397794"><ele>704.0</ele><time>2026-04-18T15:40:01.188Z</time></trkpt><trkpt lat="43.9334963" lon="11.6396431"><ele>702.0</ele><time>2026-04-18T15:40:02.188Z</time></trkpt><trkpt lat="43.9335728" lon="11.639504"><ele>700.0</ele><time>2026-04-18T15:40:03.187Z</time></trkpt><trkpt lat="43.9336394" lon="11.6393315"><ele>698.0</ele><time>2026-04-18T15:40:04.187Z</time></trkpt><trkpt lat="43.933697" lon="11.6391535"><ele>698.0</ele><time>2026-04-18T15:40:05.188Z</time></trkpt><trkpt lat="43.9337466" lon="11.6389833"><ele>698.0</ele><time>2026-04-18T15:40:06.188Z</time></trkpt><trkpt lat="43.9337885" lon="11.6388196"><ele>698.0</ele><time>2026-04-18T15:40:07.188Z</time></trkpt><trkpt lat="43.9338326" lon="11.6386852"><ele>698.0</ele><time>2026-04-18T15:40:08.188Z</time></trkpt><trkpt lat="43.9339029" lon="11.6385722"><ele>692.75</ele><time>2026-04-18T15:40:09.188Z</time></trkpt><trkpt lat="43.934009" lon="11.638502"><ele>687.5</ele><time>2026-04-18T15:40:10.187Z</time></trkpt><trkpt lat="43.9341304" lon="11.6384668"><ele>682.25</ele><time>2026-04-18T15:40:11.188Z</time></trkpt><trkpt lat="43.9342615" lon="11.6384554"><ele>677.0</ele><time>2026-04-18T15:40:12.188Z</time></trkpt><trkpt lat="43.9343982" lon="11.6384709"><ele>677.0</ele><time>2026-04-18T15:40:13.187Z</time></trkpt><trkpt lat="43.934527" lon="11.63851"><ele>677.0</ele><time>2026-04-18T15:40:14.188Z</time></trkpt><trkpt lat="43.9346512" lon="11.6385603"><ele>677.0</ele><time>2026-04-18T15:40:15.188Z</time></trkpt><trkpt lat="43.9347664" lon="11.6386289"><ele>677.0</ele><time>2026-04-18T15:40:16.188Z</time></trkpt><trkpt lat="43.9348683" lon="11.638721"><ele>679.6666666666666</ele><time>2026-04-18T15:40:17.188Z</time></trkpt><trkpt lat="43.9349522" lon="11.6388179"><ele>682.3333333333333</ele><time>2026-04-18T15:40:18.188Z</time></trkpt><trkpt lat="43.9350284" lon="11.6388765"><ele>685.0</ele><time>2026-04-18T15:40:19.188Z</time></trkpt><trkpt lat="43.9351106" lon="11.6388887"><ele>687.6666666666666</ele><time>2026-04-18T15:40:20.188Z</time></trkpt><trkpt lat="43.9351793" lon="11.6388389"><ele>690.3333333333334</ele><time>2026-04-18T15:40:21.188Z</time></trkpt><trkpt lat="43.9352436" lon="11.6387765"><ele>693.0</ele><time>2026-04-18T15:40:22.188Z</time></trkpt><trkpt lat="43.935284" lon="11.6386195"><ele>695.0</ele><time>2026-04-18T15:40:23.188Z</time></trkpt><trkpt lat="43.9352389" lon="11.6384214"><ele>697.0</ele><time>2026-04-18T15:40:24.188Z</time></trkpt><trkpt lat="43.9352409" lon="11.6382573"><ele>699.0</ele><time>2026-04-18T15:40:25.188Z</time></trkpt><trkpt lat="43.935186" lon="11.6380897"><ele>701.0</ele><time>2026-04-18T15:40:26.187Z</time></trkpt><trkpt lat="43.9351396" lon="11.6379408"><ele>695.1999999999999</ele><time>2026-04-18T15:40:27.188Z</time></trkpt><trkpt lat="43.935104" lon="11.6377982"><ele>689.4</ele><time>2026-04-18T15:40:28.187Z</time></trkpt><trkpt lat="43.9351114" lon="11.63767"><ele>683.6</ele><time>2026-04-18T15:40:29.188Z</time></trkpt><trkpt lat="43.9351556" lon="11.6375571"><ele>677.8</ele><time>2026-04-18T15:40:30.188Z</time></trkpt><trkpt lat="43.9352381" lon="11.6374434"><ele>672.0</ele><time>2026-04-18T15:40:31.188Z</time></trkpt><trkpt lat="43.9353414" lon="11.6373331"><ele>672.0</ele><time>2026-04-18T15:40:32.188Z</time></trkpt><trkpt lat="43.9354573" lon="11.637244"><ele>672.0</ele><time>2026-04-18T15:40:33.188Z</time></trkpt><trkpt lat="43.9355896" lon="11.6371824"><ele>672.0</ele><time>2026-04-18T15:40:34.188Z</time></trkpt><trkpt lat="43.9357214" lon="11.6371489"><ele>672.0</ele><time>2026-04-18T15:40:35.188Z</time></trkpt><trkpt lat="43.9358467" lon="11.6371295"><ele>673.6</ele><time>2026-04-18T15:40:36.187Z</time></trkpt><trkpt lat="43.9359628" lon="11.6371191"><ele>675.2</ele><time>2026-04-18T15:40:37.188Z</time></trkpt><trkpt lat="43.9360718" lon="11.637119"><ele>676.8</ele><time>2026-04-18T15:40:38.188Z</time></trkpt><trkpt lat="43.9361749" lon="11.6371249"><ele>678.4</ele><time>2026-04-18T15:40:39.188Z</time></trkpt><trkpt lat="43.9362734" lon="11.6371149"><ele>680.0</ele><time>2026-04-18T15:40:40.188Z</time></trkpt><trkpt lat="43.9363775" lon="11.6370615"><ele>676.6</ele><time>2026-04-18T15:40:41.188Z</time></trkpt><trkpt lat="43.9364542" lon="11.6369613"><ele>673.2</ele><time>2026-04-18T15:40:42.187Z</time></trkpt><trkpt lat="43.9365137" lon="11.6368259"><ele>669.8</ele><time>2026-04-18T15:40:43.188Z</time></trkpt><trkpt lat="43.9365463" lon="11.636681"><ele>666.4</ele><time>2026-04-18T15:40:44.188Z</time></trkpt><trkpt lat="43.9365468" lon="11.6365356"><ele>663.0</ele><time>2026-04-18T15:40:45.188Z</time></trkpt><trkpt lat="43.9365063" lon="11.636388"><ele>663.0</ele><time>2026-04-18T15:40:46.187Z</time></trkpt><trkpt lat="43.9364316" lon="11.6362561"><ele>663.0</ele><time>2026-04-18T15:40:47.188Z</time></trkpt><trkpt lat="43.9363299" lon="11.6361301"><ele>663.0</ele><time>2026-04-18T15:40:48.188Z</time></trkpt><trkpt lat="43.9362141" lon="11.6360193"><ele>663.0</ele><time>2026-04-18T15:40:49.188Z</time></trkpt><trkpt lat="43.9360873" lon="11.6359241"><ele>664.5</ele><time>2026-04-18T15:40:50.188Z</time></trkpt><trkpt lat="43.9359563" lon="11.6358492"><ele>666.0</ele><time>2026-04-18T15:40:51.188Z</time></trkpt><trkpt lat="43.9358111" lon="11.635802"><ele>667.5</ele><time>2026-04-18T15:40:52.188Z</time></trkpt><trkpt lat="43.9356553" lon="11.6357792"><ele>669.0</ele><time>2026-04-18T15:40:53.188Z</time></trkpt><trkpt lat="43.9354969" lon="11.6357797"><ele>663.0</ele><time>2026-04-18T15:40:54.187Z</time></trkpt><trkpt lat="43.9353402" lon="11.6357917"><ele>657.0</ele><time>2026-04-18T15:40:55.188Z</time></trkpt><trkpt lat="43.9351923" lon="11.6358069"><ele>651.0</ele><time>2026-04-18T15:40:56.188Z</time></trkpt><trkpt lat="43.935054" lon="11.6358324"><ele>645.0</ele><time>2026-04-18T15:40:57.188Z</time></trkpt><trkpt lat="43.934931" lon="11.6358726"><ele>642.75</ele><time>2026-04-18T15:40:58.188Z</time></trkpt><trkpt lat="43.9348248" lon="11.6358914"><ele>640.5</ele><time>2026-04-18T15:40:59.188Z</time></trkpt><trkpt lat="43.9347284" lon="11.6358281"><ele>638.25</ele><time>2026-04-18T15:41:00.187Z</time></trkpt><trkpt lat="43.9346404" lon="11.6357166"><ele>636.0</ele><time>2026-04-18T15:41:01.187Z</time></trkpt><trkpt lat="43.9345523" lon="11.6355901"><ele>636.0</ele><time>2026-04-18T15:41:02.188Z</time></trkpt><trkpt lat="43.9344667" lon="11.6354648"><ele>636.0</ele><time>2026-04-18T15:41:03.187Z</time></trkpt><trkpt lat="43.9343936" lon="11.6353438"><ele>636.0</ele><time>2026-04-18T15:41:04.188Z</time></trkpt><trkpt lat="43.9343568" lon="11.6352258"><ele>636.0</ele><time>2026-04-18T15:41:05.188Z</time></trkpt><trkpt lat="43.9343598" lon="11.6350946"><ele>636.0</ele><time>2026-04-18T15:41:06.188Z</time></trkpt><trkpt lat="43.9343867" lon="11.6349372"><ele>634.8</ele><time>2026-04-18T15:41:07.187Z</time></trkpt><trkpt lat="43.9344204" lon="11.634767"><ele>633.6</ele><time>2026-04-18T15:41:08.187Z</time></trkpt><trkpt lat="43.9344495" lon="11.6346071"><ele>632.4</ele><time>2026-04-18T15:41:09.188Z</time></trkpt><trkpt lat="43.9344827" lon="11.6344741"><ele>631.2</ele><time>2026-04-18T15:41:10.188Z</time></trkpt><trkpt lat="43.9345409" lon="11.6343855"><ele>630.0</ele><time>2026-04-18T15:41:11.188Z</time></trkpt><trkpt lat="43.9346248" lon="11.6343462"><ele>630.0</ele><time>2026-04-18T15:41:12.188Z</time></trkpt><trkpt lat="43.9347081" lon="11.6343794"><ele>630.0</ele><time>2026-04-18T15:41:13.188Z</time></trkpt><trkpt lat="43.934786" lon="11.6344557"><ele>630.0</ele><time>2026-04-18T15:41:14.187Z</time></trkpt><trkpt lat="43.9348735" lon="11.6345459"><ele>630.0</ele><time>2026-04-18T15:41:15.188Z</time></trkpt><trkpt lat="43.9349818" lon="11.6346205"><ele>630.0</ele><time>2026-04-18T15:41:16.188Z</time></trkpt><trkpt lat="43.935103" lon="11.6346564"><ele>632.0</ele><time>2026-04-18T15:41:17.188Z</time></trkpt><trkpt lat="43.9352381" lon="11.6346515"><ele>634.0</ele><time>2026-04-18T15:41:18.188Z</time></trkpt><trkpt lat="43.9353719" lon="11.6346148"><ele>636.0</ele><time>2026-04-18T15:41:19.188Z</time></trkpt><trkpt lat="43.9354935" lon="11.634564"><ele>638.0</ele><time>2026-04-18T15:41:20.188Z</time></trkpt><trkpt lat="43.935604" lon="11.6345038"><ele>634.6666666666666</ele><time>2026-04-18T15:41:21.188Z</time></trkpt><trkpt lat="43.9356858" lon="11.6344354"><ele>631.3333333333333</ele><time>2026-04-18T15:41:22.188Z</time></trkpt><trkpt lat="43.9357399" lon="11.6343563"><ele>628.0</ele><time>2026-04-18T15:41:23.188Z</time></trkpt><trkpt lat="43.935755" lon="11.6342636"><ele>624.6666666666666</ele><time>2026-04-18T15:41:24.187Z</time></trkpt><trkpt lat="43.9357257" lon="11.634178"><ele>621.3333333333334</ele><time>2026-04-18T15:41:25.188Z</time></trkpt><trkpt lat="43.9356628" lon="11.6341141"><ele>618.0</ele><time>2026-04-18T15:41:26.188Z</time></trkpt><trkpt lat="43.9355843" lon="11.6340752"><ele>618.0</ele><time>2026-04-18T15:41:27.188Z</time></trkpt><trkpt lat="43.9355123" lon="11.6340103"><ele>618.0</ele><time>2026-04-18T15:41:28.188Z</time></trkpt><trkpt lat="43.935454" lon="11.633891"><ele>618.0</ele><time>2026-04-18T15:41:29.187Z</time></trkpt><trkpt lat="43.9354234" lon="11.6337326"><ele>618.0</ele><time>2026-04-18T15:41:30.188Z</time></trkpt><trkpt lat="43.935421" lon="11.6335612"><ele>618.0</ele><time>2026-04-18T15:41:31.188Z</time></trkpt><trkpt lat="43.9354119" lon="11.6333712"><ele>618.25</ele><time>2026-04-18T15:41:32.188Z</time></trkpt><trkpt lat="43.9353816" lon="11.6332014"><ele>618.5</ele><time>2026-04-18T15:41:33.187Z</time></trkpt><trkpt lat="43.9353419" lon="11.633038"><ele>618.75</ele><time>2026-04-18T15:41:34.188Z</time></trkpt><trkpt lat="43.9353121" lon="11.6328922"><ele>619.0</ele><time>2026-04-18T15:41:35.188Z</time></trkpt><trkpt lat="43.9353117" lon="11.6327624"><ele>615.8</ele><time>2026-04-18T15:41:36.188Z</time></trkpt><trkpt lat="43.9353513" lon="11.6326463"><ele>612.5999999999999</ele><time>2026-04-18T15:41:37.188Z</time></trkpt><trkpt lat="43.9354347" lon="11.6325592"><ele>609.4</ele><time>2026-04-18T15:41:38.188Z</time></trkpt><trkpt lat="43.9355469" lon="11.6324881"><ele>606.1999999999999</ele><time>2026-04-18T15:41:39.188Z</time></trkpt><trkpt lat="43.9356647" lon="11.6324224"><ele>603.0</ele><time>2026-04-18T15:41:40.188Z</time></trkpt><trkpt lat="43.9357823" lon="11.6323521"><ele>609.25</ele><time>2026-04-18T15:41:41.188Z</time></trkpt><trkpt lat="43.9358926" lon="11.6322781"><ele>615.5</ele><time>2026-04-18T15:41:42.187Z</time></trkpt><trkpt lat="43.9359906" lon="11.6321888"><ele>621.75</ele><time>2026-04-18T15:41:43.188Z</time></trkpt><trkpt lat="43.9360565" lon="11.632066"><ele>628.0</ele><time>2026-04-18T15:41:44.188Z</time></trkpt><trkpt lat="43.9360806" lon="11.6319253"><ele>628.0</ele><time>2026-04-18T15:41:45.188Z</time></trkpt><trkpt lat="43.9360976" lon="11.6317942"><ele>628.0</ele><time>2026-04-18T15:41:46.188Z</time></trkpt><trkpt lat="43.9360017" lon="11.6316909"><ele>628.0</ele><time>2026-04-18T15:41:47.188Z</time></trkpt><trkpt lat="43.9359494" lon="11.6315815"><ele>628.0</ele><time>2026-04-18T15:41:48.188Z</time></trkpt><trkpt lat="43.9359178" lon="11.631448"><ele>628.0</ele><time>2026-04-18T15:41:49.188Z</time></trkpt><trkpt lat="43.9359236" lon="11.6312962"><ele>624.5</ele><time>2026-04-18T15:41:50.188Z</time></trkpt><trkpt lat="43.9359648" lon="11.631132"><ele>621.0</ele><time>2026-04-18T15:41:51.188Z</time></trkpt><trkpt lat="43.9360364" lon="11.6309615"><ele>617.5</ele><time>2026-04-18T15:41:52.187Z</time></trkpt><trkpt lat="43.9361235" lon="11.6307844"><ele>614.0</ele><time>2026-04-18T15:41:53.188Z</time></trkpt><trkpt lat="43.9362059" lon="11.6306078"><ele>614.0</ele><time>2026-04-18T15:41:54.188Z</time></trkpt><trkpt lat="43.9362796" lon="11.6304393"><ele>614.0</ele><time>2026-04-18T15:41:55.188Z</time></trkpt><trkpt lat="43.93633" lon="11.6302785"><ele>614.0</ele><time>2026-04-18T15:41:56.188Z</time></trkpt><trkpt lat="43.9363453" lon="11.6301108"><ele>614.0</ele><time>2026-04-18T15:41:57.188Z</time></trkpt><trkpt lat="43.9363435" lon="11.6299491"><ele>609.4</ele><time>2026-04-18T15:41:58.188Z</time></trkpt><trkpt lat="43.9363611" lon="11.6297959"><ele>604.8</ele><time>2026-04-18T15:41:59.188Z</time></trkpt><trkpt lat="43.9364163" lon="11.6296608"><ele>600.2</ele><time>2026-04-18T15:42:00.187Z</time></trkpt><trkpt lat="43.9364904" lon="11.6295491"><ele>595.6</ele><time>2026-04-18T15:42:01.188Z</time></trkpt><trkpt lat="43.9365532" lon="11.6294297"><ele>591.0</ele><time>2026-04-18T15:42:02.187Z</time></trkpt><trkpt lat="43.9365729" lon="11.6292791"><ele>588.0</ele><time>2026-04-18T15:42:03.188Z</time></trkpt><trkpt lat="43.9365624" lon="11.629113"><ele>585.0</ele><time>2026-04-18T15:42:04.187Z</time></trkpt><trkpt lat="43.936546" lon="11.6289506"><ele>582.0</ele><time>2026-04-18T15:42:05.188Z</time></trkpt><trkpt lat="43.9365468" lon="11.6287973"><ele>579.0</ele><time>2026-04-18T15:42:06.188Z</time></trkpt><trkpt lat="43.9365776" lon="11.6286705"><ele>576.0</ele><time>2026-04-18T15:42:07.188Z</time></trkpt><trkpt lat="43.9366447" lon="11.6285694"><ele>583.0</ele><time>2026-04-18T15:42:08.188Z</time></trkpt><trkpt lat="43.9367316" lon="11.6284707"><ele>590.0</ele><time>2026-04-18T15:42:09.188Z</time></trkpt><trkpt lat="43.9368003" lon="11.6283595"><ele>597.0</ele><time>2026-04-18T15:42:10.188Z</time></trkpt><trkpt lat="43.9368469" lon="11.6282074"><ele>604.0</ele><time>2026-04-18T15:42:11.188Z</time></trkpt><trkpt lat="43.9368741" lon="11.6280393"><ele>604.0</ele><time>2026-04-18T15:42:12.188Z</time></trkpt><trkpt lat="43.9368969" lon="11.627868"><ele>604.0</ele><time>2026-04-18T15:42:13.188Z</time></trkpt><trkpt lat="43.9369225" lon="11.6277122"><ele>604.0</ele><time>2026-04-18T15:42:14.188Z</time></trkpt><trkpt lat="43.9369573" lon="11.6275678"><ele>604.0</ele><time>2026-04-18T15:42:15.187Z</time></trkpt><trkpt lat="43.9370162" lon="11.6274379"><ele>597.0</ele><time>2026-04-18T15:42:16.188Z</time></trkpt><trkpt lat="43.9370948" lon="11.6273167"><ele>590.0</ele><time>2026-04-18T15:42:17.188Z</time></trkpt><trkpt lat="43.9371831" lon="11.6272019"><ele>583.0</ele><time>2026-04-18T15:42:18.188Z</time></trkpt><trkpt lat="43.9372719" lon="11.6270839"><ele>576.0</ele><time>2026-04-18T15:42:19.188Z</time></trkpt><trkpt lat="43.9373417" lon="11.6269502"><ele>570.0</ele><time>2026-04-18T15:42:20.188Z</time></trkpt><trkpt lat="43.9373854" lon="11.6267889"><ele>564.0</ele><time>2026-04-18T15:42:21.188Z</time></trkpt><trkpt lat="43.937408" lon="11.6266246"><ele>558.0</ele><time>2026-04-18T15:42:22.188Z</time></trkpt><trkpt lat="43.9374209" lon="11.6264683"><ele>552.0</ele><time>2026-04-18T15:42:23.188Z</time></trkpt><trkpt lat="43.9374464" lon="11.626319"><ele>552.0</ele><time>2026-04-18T15:42:24.187Z</time></trkpt><trkpt lat="43.9375066" lon="11.6261869"><ele>552.0</ele><time>2026-04-18T15:42:25.188Z</time></trkpt><trkpt lat="43.9375823" lon="11.626077"><ele>552.0</ele><time>2026-04-18T15:42:26.188Z</time></trkpt><trkpt lat="43.937637" lon="11.6259497"><ele>552.0</ele><time>2026-04-18T15:42:27.188Z</time></trkpt><trkpt lat="43.9376674" lon="11.6258116"><ele>552.0</ele><time>2026-04-18T15:42:28.188Z</time></trkpt><trkpt lat="43.9377071" lon="11.6256916"><ele>552.2</ele><time>2026-04-18T15:42:29.188Z</time></trkpt><trkpt lat="43.9377766" lon="11.6255985"><ele>552.4000000000001</ele><time>2026-04-18T15:42:30.187Z</time></trkpt><trkpt lat="43.9378683" lon="11.6255356"><ele>552.5999999999999</ele><time>2026-04-18T15:42:31.188Z</time></trkpt><trkpt lat="43.9379786" lon="11.6254884"><ele>552.8</ele><time>2026-04-18T15:42:32.188Z</time></trkpt><trkpt lat="43.9380981" lon="11.625462"><ele>553.0</ele><time>2026-04-18T15:42:33.188Z</time></trkpt><trkpt lat="43.9382114" lon="11.6254486"><ele>553.0</ele><time>2026-04-18T15:42:34.188Z</time></trkpt><trkpt lat="43.9383243" lon="11.6254411"><ele>553.0</ele><time>2026-04-18T15:42:35.187Z</time></trkpt><trkpt lat="43.9384287" lon="11.625428"><ele>553.0</ele><time>2026-04-18T15:42:36.188Z</time></trkpt><trkpt lat="43.9385159" lon="11.6253857"><ele>553.0</ele><time>2026-04-18T15:42:37.188Z</time></trkpt><trkpt lat="43.9385708" lon="11.6252986"><ele>553.0</ele><time>2026-04-18T15:42:38.188Z</time></trkpt><trkpt lat="43.9386045" lon="11.6251805"><ele>553.4</ele><time>2026-04-18T15:42:39.187Z</time></trkpt><trkpt lat="43.9386252" lon="11.6250581"><ele>553.8</ele><time>2026-04-18T15:42:40.188Z</time></trkpt><trkpt lat="43.9386286" lon="11.6249399"><ele>554.2</ele><time>2026-04-18T15:42:41.188Z</time></trkpt><trkpt lat="43.9386019" lon="11.624815"><ele>554.6</ele><time>2026-04-18T15:42:42.188Z</time></trkpt><trkpt lat="43.9385504" lon="11.624688"><ele>555.0</ele><time>2026-04-18T15:42:43.188Z</time></trkpt><trkpt lat="43.9384848" lon="11.6245575"><ele>556.0</ele><time>2026-04-18T15:42:44.187Z</time></trkpt><trkpt lat="43.9384135" lon="11.6244364"><ele>557.0</ele><time>2026-04-18T15:42:45.188Z</time></trkpt><trkpt lat="43.9383255" lon="11.6243309"><ele>558.0</ele><time>2026-04-18T15:42:46.188Z</time></trkpt><trkpt lat="43.9382158" lon="11.6242546"><ele>559.0</ele><time>2026-04-18T15:42:47.188Z</time></trkpt><trkpt lat="43.9381022" lon="11.6241937"><ele>554.5</ele><time>2026-04-18T15:42:48.188Z</time></trkpt><trkpt lat="43.9379791" lon="11.6241434"><ele>550.0</ele><time>2026-04-18T15:42:49.188Z</time></trkpt><trkpt lat="43.9378567" lon="11.6240859"><ele>545.5</ele><time>2026-04-18T15:42:50.188Z</time></trkpt><trkpt lat="43.9377368" lon="11.6240317"><ele>541.0</ele><time>2026-04-18T15:42:51.187Z</time></trkpt><trkpt lat="43.9376228" lon="11.6239889"><ele>537.0</ele><time>2026-04-18T15:42:52.188Z</time></trkpt><trkpt lat="43.9375092" lon="11.6239765"><ele>533.0</ele><time>2026-04-18T15:42:53.188Z</time></trkpt><trkpt lat="43.9373963" lon="11.6240102"><ele>529.0</ele><time>2026-04-18T15:42:54.188Z</time></trkpt><trkpt lat="43.937288" lon="11.6240743"><ele>525.0</ele><time>2026-04-18T15:42:55.188Z</time></trkpt><trkpt lat="43.9371869" lon="11.6241476"><ele>525.0</ele><time>2026-04-18T15:42:56.187Z</time></trkpt><trkpt lat="43.9370868" lon="11.6241919"><ele>525.0</ele><time>2026-04-18T15:42:57.187Z</time></trkpt><trkpt lat="43.9369778" lon="11.624177"><ele>525.0</ele><time>2026-04-18T15:42:58.188Z</time></trkpt><trkpt lat="43.9368718" lon="11.6241173"><ele>525.0</ele><time>2026-04-18T15:42:59.188Z</time></trkpt><trkpt lat="43.9367522" lon="11.6240579"><ele>522.75</ele><time>2026-04-18T15:43:00.188Z</time></trkpt><trkpt lat="43.9366254" lon="11.624031"><ele>520.5</ele><time>2026-04-18T15:43:01.188Z</time></trkpt><trkpt lat="43.9364954" lon="11.62405"><ele>518.25</ele><time>2026-04-18T15:43:02.188Z</time></trkpt><trkpt lat="43.9363672" lon="11.6240964"><ele>516.0</ele><time>2026-04-18T15:43:03.188Z</time></trkpt><trkpt lat="43.9362396" lon="11.6241534"><ele>516.0</ele><time>2026-04-18T15:43:04.188Z</time></trkpt><trkpt lat="43.9361155" lon="11.6242163"><ele>516.0</ele><time>2026-04-18T15:43:05.188Z</time></trkpt><trkpt lat="43.9359992" lon="11.6243002"><ele>516.0</ele><time>2026-04-18T15:43:06.188Z</time></trkpt><trkpt lat="43.9358893" lon="11.6244069"><ele>516.0</ele><time>2026-04-18T15:43:07.188Z</time></trkpt><trkpt lat="43.9357912" lon="11.6245314"><ele>512.0</ele><time>2026-04-18T15:43:08.188Z</time></trkpt><trkpt lat="43.9357071" lon="11.6246775"><ele>508.0</ele><time>2026-04-18T15:43:09.188Z</time></trkpt><trkpt lat="43.9356385" lon="11.6248356"><ele>504.0</ele><time>2026-04-18T15:43:10.188Z</time></trkpt><trkpt lat="43.93558" lon="11.6249997"><ele>500.0</ele><time>2026-04-18T15:43:11.188Z</time></trkpt><trkpt lat="43.9355306" lon="11.6251598"><ele>500.0</ele><time>2026-04-18T15:43:12.188Z</time></trkpt><trkpt lat="43.9354781" lon="11.625301"><ele>500.0</ele><time>2026-04-18T15:43:13.188Z</time></trkpt><trkpt lat="43.9354067" lon="11.625417"><ele>500.0</ele><time>2026-04-18T15:43:14.188Z</time></trkpt><trkpt lat="43.9353176" lon="11.6254886"><ele>500.0</ele><time>2026-04-18T15:43:15.188Z</time></trkpt><trkpt lat="43.935215" lon="11.6255238"><ele>500.0</ele><time>2026-04-18T15:43:16.187Z</time></trkpt><trkpt lat="43.9350948" lon="11.6255328"><ele>497.25</ele><time>2026-04-18T15:43:17.188Z</time></trkpt><trkpt lat="43.9349711" lon="11.6255194"><ele>494.5</ele><time>2026-04-18T15:43:18.188Z</time></trkpt><trkpt lat="43.9348405" lon="11.6254975"><ele>491.75</ele><time>2026-04-18T15:43:19.188Z</time></trkpt><trkpt lat="43.9347091" lon="11.6254749"><ele>489.0</ele><time>2026-04-18T15:43:20.188Z</time></trkpt><trkpt lat="43.9345844" lon="11.625459"><ele>489.0</ele><time>2026-04-18T15:43:21.188Z</time></trkpt><trkpt lat="43.9344647" lon="11.6254404"><ele>489.0</ele><time>2026-04-18T15:43:22.187Z</time></trkpt><trkpt lat="43.9343517" lon="11.6254046"><ele>489.0</ele><time>2026-04-18T15:43:23.188Z</time></trkpt><trkpt lat="43.9342529" lon="11.6253299"><ele>489.0</ele><time>2026-04-18T15:43:24.188Z</time></trkpt><trkpt lat="43.9341724" lon="11.6252244"><ele>490.0</ele><time>2026-04-18T15:43:25.188Z</time></trkpt><trkpt lat="43.9341122" lon="11.6250959"><ele>491.0</ele><time>2026-04-18T15:43:26.188Z</time></trkpt><trkpt lat="43.9340773" lon="11.6249469"><ele>492.0</ele><time>2026-04-18T15:43:27.188Z</time></trkpt><trkpt lat="43.9340638" lon="11.6247814"><ele>493.0</ele><time>2026-04-18T15:43:28.188Z</time></trkpt><trkpt lat="43.9340323" lon="11.6246106"><ele>499.75</ele><time>2026-04-18T15:43:29.188Z</time></trkpt><trkpt lat="43.9339554" lon="11.624448"><ele>506.5</ele><time>2026-04-18T15:43:30.188Z</time></trkpt><trkpt lat="43.9338697" lon="11.6242894"><ele>513.25</ele><time>2026-04-18T15:43:31.188Z</time></trkpt><trkpt lat="43.9337852" lon="11.6241474"><ele>520.0</ele><time>2026-04-18T15:43:32.188Z</time></trkpt><trkpt lat="43.9337005" lon="11.624017"><ele>520.0</ele><time>2026-04-18T15:43:33.188Z</time></trkpt><trkpt lat="43.9336007" lon="11.6239166"><ele>520.0</ele><time>2026-04-18T15:43:34.188Z</time></trkpt><trkpt lat="43.9334894" lon="11.6238674"><ele>520.0</ele><time>2026-04-18T15:43:35.188Z</time></trkpt><trkpt lat="43.9333779" lon="11.6238592"><ele>520.0</ele><time>2026-04-18T15:43:36.188Z</time></trkpt><trkpt lat="43.9332648" lon="11.6238577"><ele>515.5</ele><time>2026-04-18T15:43:37.188Z</time></trkpt><trkpt lat="43.93314" lon="11.6238257"><ele>511.0</ele><time>2026-04-18T15:43:38.187Z</time></trkpt><trkpt lat="43.9330083" lon="11.6237578"><ele>506.5</ele><time>2026-04-18T15:43:39.187Z</time></trkpt><trkpt lat="43.9328783" lon="11.6236837"><ele>502.0</ele><time>2026-04-18T15:43:40.188Z</time></trkpt><trkpt lat="43.9327557" lon="11.6236128"><ele>502.0</ele><time>2026-04-18T15:43:41.188Z</time></trkpt><trkpt lat="43.9326449" lon="11.6235508"><ele>502.00000000000006</ele><time>2026-04-18T15:43:42.188Z</time></trkpt><trkpt lat="43.93255" lon="11.6234987"><ele>502.00000000000006</ele><time>2026-04-18T15:43:43.188Z</time></trkpt><trkpt lat="43.9324762" lon="11.62345"><ele>502.0</ele><time>2026-04-18T15:43:44.188Z</time></trkpt><trkpt lat="43.9324223" lon="11.6233669"><ele>502.0</ele><time>2026-04-18T15:43:45.188Z</time></trkpt><trkpt lat="43.9324005" lon="11.6232589"><ele>503.40000000000003</ele><time>2026-04-18T15:43:46.188Z</time></trkpt><trkpt lat="43.9324167" lon="11.6231445"><ele>504.80000000000007</ele><time>2026-04-18T15:43:47.188Z</time></trkpt><trkpt lat="43.9324638" lon="11.6230238"><ele>506.2</ele><time>2026-04-18T15:43:48.188Z</time></trkpt><trkpt lat="43.9325164" lon="11.6229166"><ele>507.6</ele><time>2026-04-18T15:43:49.188Z</time></trkpt><trkpt lat="43.932558" lon="11.6228041"><ele>509.0</ele><time>2026-04-18T15:43:50.188Z</time></trkpt><trkpt lat="43.932569" lon="11.6226838"><ele>501.79999999999995</ele><time>2026-04-18T15:43:51.187Z</time></trkpt><trkpt lat="43.9325551" lon="11.6225613"><ele>494.59999999999997</ele><time>2026-04-18T15:43:52.188Z</time></trkpt><trkpt lat="43.9325153" lon="11.6224499"><ele>487.4</ele><time>2026-04-18T15:43:53.188Z</time></trkpt><trkpt lat="43.932452" lon="11.6223523"><ele>480.2</ele><time>2026-04-18T15:43:54.188Z</time></trkpt><trkpt lat="43.9323709" lon="11.6222919"><ele>473.0</ele><time>2026-04-18T15:43:55.188Z</time></trkpt><trkpt lat="43.9322795" lon="11.6222657"><ele>473.0</ele><time>2026-04-18T15:43:56.188Z</time></trkpt><trkpt lat="43.9321863" lon="11.6222652"><ele>472.99999999999994</ele><time>2026-04-18T15:43:57.188Z</time></trkpt><trkpt lat="43.9320908" lon="11.6222814"><ele>472.99999999999994</ele><time>2026-04-18T15:43:58.188Z</time></trkpt><trkpt lat="43.931992" lon="11.6223105"><ele>473.0</ele><time>2026-04-18T15:43:59.188Z</time></trkpt><trkpt lat="43.9318849" lon="11.6223547"><ele>473.0</ele><time>2026-04-18T15:44:00.188Z</time></trkpt><trkpt lat="43.9317804" lon="11.6224067"><ele>469.59999999999997</ele><time>2026-04-18T15:44:01.188Z</time></trkpt><trkpt lat="43.9316822" lon="11.6224625"><ele>466.19999999999993</ele><time>2026-04-18T15:44:02.188Z</time></trkpt><trkpt lat="43.9315839" lon="11.6225135"><ele>462.8</ele><time>2026-04-18T15:44:03.188Z</time></trkpt><trkpt lat="43.9314879" lon="11.6225491"><ele>459.4</ele><time>2026-04-18T15:44:04.187Z</time></trkpt><trkpt lat="43.9313916" lon="11.6225612"><ele>456.0</ele><time>2026-04-18T15:44:05.188Z</time></trkpt><trkpt lat="43.9312902" lon="11.6225549"><ele>456.0</ele><time>2026-04-18T15:44:06.188Z</time></trkpt><trkpt lat="43.9311827" lon="11.6225442"><ele>456.0</ele><time>2026-04-18T15:44:07.188Z</time></trkpt><trkpt lat="43.9310667" lon="11.6225286"><ele>456.0</ele><time>2026-04-18T15:44:08.188Z</time></trkpt><trkpt lat="43.9309515" lon="11.6225152"><ele>456.0</ele><time>2026-04-18T15:44:09.188Z</time></trkpt><trkpt lat="43.9308525" lon="11.6225067"><ele>456.0</ele><time>2026-04-18T15:44:10.187Z</time></trkpt><trkpt lat="43.9307807" lon="11.6224938"><ele>454.4</ele><time>2026-04-18T15:44:11.188Z</time></trkpt><trkpt lat="43.9307227" lon="11.6224582"><ele>452.8</ele><time>2026-04-18T15:44:12.188Z</time></trkpt><trkpt lat="43.9306647" lon="11.622306"><ele>451.19999999999993</ele><time>2026-04-18T15:44:14.188Z</time></trkpt><trkpt lat="43.9306753" lon="11.6222014"><ele>449.59999999999997</ele><time>2026-04-18T15:44:15.188Z</time></trkpt><trkpt lat="43.9307147" lon="11.6220864"><ele>448.0</ele><time>2026-04-18T15:44:16.188Z</time></trkpt><trkpt lat="43.9307668" lon="11.6219769"><ele>448.00000000000006</ele><time>2026-04-18T15:44:17.188Z</time></trkpt><trkpt lat="43.9308141" lon="11.621868"><ele>448.0</ele><time>2026-04-18T15:44:18.188Z</time></trkpt><trkpt lat="43.9308453" lon="11.6217539"><ele>448.0</ele><time>2026-04-18T15:44:19.188Z</time></trkpt><trkpt lat="43.9308516" lon="11.6216385"><ele>448.0</ele><time>2026-04-18T15:44:20.187Z</time></trkpt><trkpt lat="43.9308274" lon="11.6215375"><ele>448.00000000000006</ele><time>2026-04-18T15:44:21.188Z</time></trkpt><trkpt lat="43.9307679" lon="11.6214688"><ele>448.0</ele><time>2026-04-18T15:44:22.188Z</time></trkpt><trkpt lat="43.9306934" lon="11.6214212"><ele>448.0</ele><time>2026-04-18T15:44:23.188Z</time></trkpt><trkpt lat="43.9306046" lon="11.6214006"><ele>447.99999999999994</ele><time>2026-04-18T15:44:24.188Z</time></trkpt><trkpt lat="43.9305093" lon="11.6214096"><ele>447.99999999999994</ele><time>2026-04-18T15:44:25.187Z</time></trkpt><trkpt lat="43.9304071" lon="11.6214334"><ele>448.0</ele><time>2026-04-18T15:44:26.188Z</time></trkpt><trkpt lat="43.9303141" lon="11.6214492"><ele>448.0</ele><time>2026-04-18T15:44:27.188Z</time></trkpt><trkpt lat="43.9302208" lon="11.6214487"><ele>448.00000000000006</ele><time>2026-04-18T15:44:28.188Z</time></trkpt><trkpt lat="43.930135" lon="11.6214113"><ele>448.0</ele><time>2026-04-18T15:44:29.188Z</time></trkpt><trkpt lat="43.9300636" lon="11.6213433"><ele>448.0</ele><time>2026-04-18T15:44:30.188Z</time></trkpt><trkpt lat="43.9300077" lon="11.6212484"><ele>448.0</ele><time>2026-04-18T15:44:31.188Z</time></trkpt><trkpt lat="43.9299734" lon="11.6211399"><ele>448.00000000000006</ele><time>2026-04-18T15:44:32.188Z</time></trkpt><trkpt lat="43.9299611" lon="11.6210184"><ele>448.0</ele><time>2026-04-18T15:44:33.188Z</time></trkpt><trkpt lat="43.9299669" lon="11.620893"><ele>445.0</ele><time>2026-04-18T15:44:34.187Z</time></trkpt><trkpt lat="43.9299771" lon="11.6207733"><ele>441.99999999999994</ele><time>2026-04-18T15:44:35.188Z</time></trkpt><trkpt lat="43.9299756" lon="11.6206616"><ele>438.99999999999994</ele><time>2026-04-18T15:44:36.188Z</time></trkpt><trkpt lat="43.9299559" lon="11.6205739"><ele>436.0</ele><time>2026-04-18T15:44:37.188Z</time></trkpt><trkpt lat="43.9298653" lon="11.620464"><ele>433.0</ele><time>2026-04-18T15:44:39.188Z</time></trkpt><trkpt lat="43.9297419" lon="11.620489"><ele>433.0</ele><time>2026-04-18T15:44:41.188Z</time></trkpt><trkpt lat="43.9297012" lon="11.6205711"><ele>432.99999999999994</ele><time>2026-04-18T15:44:42.188Z</time></trkpt><trkpt lat="43.9296836" lon="11.6206931"><ele>432.99999999999994</ele><time>2026-04-18T15:44:43.188Z</time></trkpt><trkpt lat="43.9296926" lon="11.6208317"><ele>433.0</ele><time>2026-04-18T15:44:44.188Z</time></trkpt><trkpt lat="43.9297341" lon="11.6209893"><ele>433.0</ele><time>2026-04-18T15:44:45.187Z</time></trkpt><trkpt lat="43.9298054" lon="11.6211658"><ele>429.5</ele><time>2026-04-18T15:44:46.188Z</time></trkpt><trkpt lat="43.9298879" lon="11.6213508"><ele>426.0</ele><time>2026-04-18T15:44:47.188Z</time></trkpt><trkpt lat="43.9299481" lon="11.621534"><ele>422.5</ele><time>2026-04-18T15:44:48.188Z</time></trkpt><trkpt lat="43.9299834" lon="11.6217186"><ele>419.0</ele><time>2026-04-18T15:44:49.188Z</time></trkpt><trkpt lat="43.9299891" lon="11.621899"><ele>418.25</ele><time>2026-04-18T15:44:50.188Z</time></trkpt><trkpt lat="43.9299761" lon="11.6220702"><ele>417.5</ele><time>2026-04-18T15:44:51.188Z</time></trkpt><trkpt lat="43.9299336" lon="11.6222129"><ele>416.75</ele><time>2026-04-18T15:44:52.187Z</time></trkpt><trkpt lat="43.9298563" lon="11.6223403"><ele>416.0</ele><time>2026-04-18T15:44:53.188Z</time></trkpt><trkpt lat="43.9297676" lon="11.6224445"><ele>416.0</ele><time>2026-04-18T15:44:54.188Z</time></trkpt><trkpt lat="43.9296789" lon="11.6225401"><ele>416.0</ele><time>2026-04-18T15:44:55.188Z</time></trkpt><trkpt lat="43.9295918" lon="11.6226229"><ele>416.0</ele><time>2026-04-18T15:44:56.188Z</time></trkpt><trkpt lat="43.929501" lon="11.6226623"><ele>416.0</ele><time>2026-04-18T15:44:57.188Z</time></trkpt><trkpt lat="43.9294062" lon="11.6226499"><ele>416.0</ele><time>2026-04-18T15:44:58.188Z</time></trkpt><trkpt lat="43.9293078" lon="11.622583"><ele>416.25</ele><time>2026-04-18T15:44:59.188Z</time></trkpt><trkpt lat="43.9292186" lon="11.6224783"><ele>416.5</ele><time>2026-04-18T15:45:00.187Z</time></trkpt><trkpt lat="43.929144" lon="11.6223336"><ele>416.75</ele><time>2026-04-18T15:45:01.188Z</time></trkpt><trkpt lat="43.9290798" lon="11.6221625"><ele>417.0</ele><time>2026-04-18T15:45:02.188Z</time></trkpt><trkpt lat="43.9290023" lon="11.6220052"><ele>413.75</ele><time>2026-04-18T15:45:03.187Z</time></trkpt><trkpt lat="43.9289172" lon="11.6218578"><ele>410.5</ele><time>2026-04-18T15:45:04.188Z</time></trkpt><trkpt lat="43.9288254" lon="11.6217134"><ele>407.25</ele><time>2026-04-18T15:45:05.188Z</time></trkpt><trkpt lat="43.9287381" lon="11.6215824"><ele>404.0</ele><time>2026-04-18T15:45:06.188Z</time></trkpt><trkpt lat="43.9286547" lon="11.6214536"><ele>404.0</ele><time>2026-04-18T15:45:07.188Z</time></trkpt><trkpt lat="43.9285743" lon="11.6213294"><ele>404.0</ele><time>2026-04-18T15:45:08.187Z</time></trkpt><trkpt lat="43.928494" lon="11.6212074"><ele>404.0</ele><time>2026-04-18T15:45:09.188Z</time></trkpt><trkpt lat="43.9284161" lon="11.6210919"><ele>404.0</ele><time>2026-04-18T15:45:10.188Z</time></trkpt><trkpt lat="43.92834" lon="11.6209787"><ele>403.5</ele><time>2026-04-18T15:45:11.188Z</time></trkpt><trkpt lat="43.9282623" lon="11.6208597"><ele>403.0</ele><time>2026-04-18T15:45:12.188Z</time></trkpt><trkpt lat="43.928182" lon="11.6207419"><ele>402.5</ele><time>2026-04-18T15:45:13.188Z</time></trkpt><trkpt lat="43.9281006" lon="11.6206232"><ele>402.0</ele><time>2026-04-18T15:45:14.188Z</time></trkpt><trkpt lat="43.9280182" lon="11.6205009"><ele>402.0</ele><time>2026-04-18T15:45:15.188Z</time></trkpt><trkpt lat="43.9279341" lon="11.6203789"><ele>402.0</ele><time>2026-04-18T15:45:16.187Z</time></trkpt><trkpt lat="43.9278498" lon="11.6202468"><ele>402.0</ele><time>2026-04-18T15:45:17.188Z</time></trkpt><trkpt lat="43.927765" lon="11.6201124"><ele>402.0</ele><time>2026-04-18T15:45:18.188Z</time></trkpt><trkpt lat="43.9276764" lon="11.6199827"><ele>403.25</ele><time>2026-04-18T15:45:19.188Z</time></trkpt><trkpt lat="43.9275849" lon="11.619856"><ele>404.5</ele><time>2026-04-18T15:45:20.187Z</time></trkpt><trkpt lat="43.9275011" lon="11.6197388"><ele>405.75</ele><time>2026-04-18T15:45:21.188Z</time></trkpt><trkpt lat="43.9274027" lon="11.6196446"><ele>407.0</ele><time>2026-04-18T15:45:22.188Z</time></trkpt><trkpt lat="43.9272948" lon="11.6195681"><ele>407.0</ele><time>2026-04-18T15:45:23.187Z</time></trkpt><trkpt lat="43.9271861" lon="11.6195033"><ele>407.0</ele><time>2026-04-18T15:45:24.188Z</time></trkpt><trkpt lat="43.9270753" lon="11.6194422"><ele>407.0</ele><time>2026-04-18T15:45:25.188Z</time></trkpt><trkpt lat="43.9269622" lon="11.6193818"><ele>407.0</ele><time>2026-04-18T15:45:26.188Z</time></trkpt><trkpt lat="43.9268515" lon="11.6193069"><ele>405.5</ele><time>2026-04-18T15:45:27.188Z</time></trkpt><trkpt lat="43.9267501" lon="11.6192134"><ele>404.0</ele><time>2026-04-18T15:45:28.188Z</time></trkpt><trkpt lat="43.9266495" lon="11.6191058"><ele>402.5</ele><time>2026-04-18T15:45:29.188Z</time></trkpt><trkpt lat="43.9265592" lon="11.6189951"><ele>401.0</ele><time>2026-04-18T15:45:30.188Z</time></trkpt><trkpt lat="43.9264865" lon="11.6188742"><ele>401.0</ele><time>2026-04-18T15:45:31.188Z</time></trkpt><trkpt lat="43.9264319" lon="11.6187448"><ele>401.0</ele><time>2026-04-18T15:45:32.188Z</time></trkpt><trkpt lat="43.9263955" lon="11.6186124"><ele>401.0</ele><time>2026-04-18T15:45:33.188Z</time></trkpt><trkpt lat="43.9263684" lon="11.618482"><ele>401.0</ele><time>2026-04-18T15:45:34.188Z</time></trkpt><trkpt lat="43.9263494" lon="11.6183614"><ele>401.0</ele><time>2026-04-18T15:45:35.188Z</time></trkpt><trkpt lat="43.9263318" lon="11.6182498"><ele>398.6</ele><time>2026-04-18T15:45:36.188Z</time></trkpt><trkpt lat="43.9263013" lon="11.6181492"><ele>396.20000000000005</ele><time>2026-04-18T15:45:37.188Z</time></trkpt><trkpt lat="43.9262504" lon="11.6180783"><ele>393.79999999999995</ele><time>2026-04-18T15:45:38.188Z</time></trkpt><trkpt lat="43.9261396" lon="11.6179799"><ele>391.4</ele><time>2026-04-18T15:45:40.188Z</time></trkpt><trkpt lat="43.9260757" lon="11.6179666"><ele>389.0</ele><time>2026-04-18T15:45:41.187Z</time></trkpt><trkpt lat="43.9259551" lon="11.6179132"><ele>390.8333333333333</ele><time>2026-04-18T15:45:43.188Z</time></trkpt><trkpt lat="43.9258878" lon="11.6178848"><ele>392.66666666666663</ele><time>2026-04-18T15:45:44.188Z</time></trkpt><trkpt lat="43.9258102" lon="11.6178702"><ele>394.5</ele><time>2026-04-18T15:45:45.188Z</time></trkpt><trkpt lat="43.9257281" lon="11.6178942"><ele>396.33333333333337</ele><time>2026-04-18T15:45:46.188Z</time></trkpt><trkpt lat="43.9256389" lon="11.617961"><ele>398.1666666666667</ele><time>2026-04-18T15:45:47.188Z</time></trkpt><trkpt lat="43.9255542" lon="11.6180635"><ele>400.0</ele><time>2026-04-18T15:45:48.188Z</time></trkpt><trkpt lat="43.9254668" lon="11.6181814"><ele>400.0</ele><time>2026-04-18T15:45:49.188Z</time></trkpt><trkpt lat="43.9253857" lon="11.6182958"><ele>400.0</ele><time>2026-04-18T15:45:50.188Z</time></trkpt><trkpt lat="43.9253214" lon="11.6184162"><ele>400.0</ele><time>2026-04-18T15:45:51.188Z</time></trkpt><trkpt lat="43.9252724" lon="11.6185416"><ele>400.0</ele><time>2026-04-18T15:45:52.188Z</time></trkpt><trkpt lat="43.9252887" lon="11.618693"><ele>400.0</ele><time>2026-04-18T15:45:53.188Z</time></trkpt><trkpt lat="43.9252908" lon="11.6188275"><ele>401.00000000000006</ele><time>2026-04-18T15:45:54.188Z</time></trkpt><trkpt lat="43.9252795" lon="11.6189532"><ele>402.0</ele><time>2026-04-18T15:45:55.188Z</time></trkpt><trkpt lat="43.9252402" lon="11.6190628"><ele>403.0</ele><time>2026-04-18T15:45:56.188Z</time></trkpt><trkpt lat="43.925184" lon="11.6191455"><ele>404.0</ele><time>2026-04-18T15:45:57.187Z</time></trkpt><trkpt lat="43.9251364" lon="11.6192144"><ele>405.00000000000006</ele><time>2026-04-18T15:45:58.188Z</time></trkpt><trkpt lat="43.9250288" lon="11.6192396"><ele>406.0</ele><time>2026-04-18T15:46:00.187Z</time></trkpt><trkpt lat="43.9249806" lon="11.6190892"><ele>402.0</ele><time>2026-04-18T15:46:02.188Z</time></trkpt><trkpt lat="43.9249881" lon="11.6189542"><ele>398.0</ele><time>2026-04-18T15:46:03.188Z</time></trkpt><trkpt lat="43.9250049" lon="11.6188009"><ele>394.0</ele><time>2026-04-18T15:46:04.188Z</time></trkpt><trkpt lat="43.9250245" lon="11.6186481"><ele>390.0</ele><time>2026-04-18T15:46:05.188Z</time></trkpt><trkpt lat="43.9250421" lon="11.6185053"><ele>386.0</ele><time>2026-04-18T15:46:06.188Z</time></trkpt><trkpt lat="43.9250554" lon="11.6183705"><ele>386.6</ele><time>2026-04-18T15:46:07.188Z</time></trkpt><trkpt lat="43.9250695" lon="11.6182396"><ele>387.20000000000005</ele><time>2026-04-18T15:46:08.187Z</time></trkpt><trkpt lat="43.9250936" lon="11.6181163"><ele>387.79999999999995</ele><time>2026-04-18T15:46:09.187Z</time></trkpt><trkpt lat="43.9251389" lon="11.6179956"><ele>388.4</ele><time>2026-04-18T15:46:10.188Z</time></trkpt><trkpt lat="43.9252058" lon="11.6178772"><ele>389.0</ele><time>2026-04-18T15:46:11.187Z</time></trkpt><trkpt lat="43.9252897" lon="11.617755"><ele>389.0</ele><time>2026-04-18T15:46:12.188Z</time></trkpt><trkpt lat="43.9253779" lon="11.6176206"><ele>389.0</ele><time>2026-04-18T15:46:13.188Z</time></trkpt><trkpt lat="43.9254688" lon="11.6174765"><ele>389.0</ele><time>2026-04-18T15:46:14.188Z</time></trkpt><trkpt lat="43.9255539" lon="11.6173349"><ele>389.0</ele><time>2026-04-18T15:46:15.188Z</time></trkpt><trkpt lat="43.9256259" lon="11.6171913"><ele>389.0</ele><time>2026-04-18T15:46:16.188Z</time></trkpt><trkpt lat="43.9256834" lon="11.6170427"><ele>389.0</ele><time>2026-04-18T15:46:17.188Z</time></trkpt><trkpt lat="43.9257263" lon="11.6168928"><ele>389.0</ele><time>2026-04-18T15:46:18.188Z</time></trkpt><trkpt lat="43.925763" lon="11.6167422"><ele>389.0</ele><time>2026-04-18T15:46:19.188Z</time></trkpt><trkpt lat="43.9257883" lon="11.6165929"><ele>386.0</ele><time>2026-04-18T15:46:20.187Z</time></trkpt><trkpt lat="43.9258019" lon="11.6164433"><ele>383.0</ele><time>2026-04-18T15:46:21.188Z</time></trkpt><trkpt lat="43.9258109" lon="11.6162936"><ele>380.0</ele><time>2026-04-18T15:46:22.188Z</time></trkpt><trkpt lat="43.9258174" lon="11.6161392"><ele>377.0</ele><time>2026-04-18T15:46:23.188Z</time></trkpt><trkpt lat="43.9258225" lon="11.6159814"><ele>374.0</ele><time>2026-04-18T15:46:24.188Z</time></trkpt><trkpt lat="43.9258294" lon="11.6158188"><ele>372.25</ele><time>2026-04-18T15:46:25.188Z</time></trkpt><trkpt lat="43.9258323" lon="11.6156545"><ele>370.5</ele><time>2026-04-18T15:46:26.188Z</time></trkpt><trkpt lat="43.9258307" lon="11.6154898"><ele>368.75</ele><time>2026-04-18T15:46:27.188Z</time></trkpt><trkpt lat="43.9258193" lon="11.6153305"><ele>367.0</ele><time>2026-04-18T15:46:28.188Z</time></trkpt><trkpt lat="43.9257981" lon="11.6151743"><ele>365.75</ele><time>2026-04-18T15:46:29.188Z</time></trkpt><trkpt lat="43.9257716" lon="11.6150146"><ele>364.5</ele><time>2026-04-18T15:46:30.188Z</time></trkpt><trkpt lat="43.9257424" lon="11.6148504"><ele>363.25</ele><time>2026-04-18T15:46:31.188Z</time></trkpt><trkpt lat="43.9257175" lon="11.6146953"><ele>362.0</ele><time>2026-04-18T15:46:32.188Z</time></trkpt><trkpt lat="43.9256987" lon="11.6145409"><ele>361.25</ele><time>2026-04-18T15:46:33.188Z</time></trkpt><trkpt lat="43.9256906" lon="11.6143841"><ele>360.5</ele><time>2026-04-18T15:46:34.187Z</time></trkpt><trkpt lat="43.9256854" lon="11.6142271"><ele>359.75</ele><time>2026-04-18T15:46:35.188Z</time></trkpt><trkpt lat="43.9256798" lon="11.6140694"><ele>359.0</ele><time>2026-04-18T15:46:36.188Z</time></trkpt><trkpt lat="43.9256733" lon="11.6139069"><ele>359.0</ele><time>2026-04-18T15:46:37.188Z</time></trkpt><trkpt lat="43.9256674" lon="11.613747"><ele>359.0</ele><time>2026-04-18T15:46:38.188Z</time></trkpt><trkpt lat="43.9256614" lon="11.6135913"><ele>359.0</ele><time>2026-04-18T15:46:39.188Z</time></trkpt><trkpt lat="43.9256602" lon="11.6134447"><ele>359.0</ele><time>2026-04-18T15:46:40.187Z</time></trkpt><trkpt lat="43.92567" lon="11.6133034"><ele>359.0</ele><time>2026-04-18T15:46:41.188Z</time></trkpt><trkpt lat="43.925706" lon="11.6131707"><ele>357.0</ele><time>2026-04-18T15:46:42.188Z</time></trkpt><trkpt lat="43.9257711" lon="11.6130591"><ele>355.0</ele><time>2026-04-18T15:46:43.188Z</time></trkpt><trkpt lat="43.9258505" lon="11.6129815"><ele>353.0</ele><time>2026-04-18T15:46:44.188Z</time></trkpt><trkpt lat="43.9259384" lon="11.6129552"><ele>351.0</ele><time>2026-04-18T15:46:45.188Z</time></trkpt><trkpt lat="43.9260221" lon="11.6129814"><ele>349.0</ele><time>2026-04-18T15:46:46.188Z</time></trkpt><trkpt lat="43.9261053" lon="11.6130604"><ele>348.79999999999995</ele><time>2026-04-18T15:46:47.187Z</time></trkpt><trkpt lat="43.9261861" lon="11.6131547"><ele>348.59999999999997</ele><time>2026-04-18T15:46:48.188Z</time></trkpt><trkpt lat="43.9262604" lon="11.6132492"><ele>348.4</ele><time>2026-04-18T15:46:49.188Z</time></trkpt><trkpt lat="43.9263308" lon="11.6133244"><ele>348.2</ele><time>2026-04-18T15:46:50.188Z</time></trkpt><trkpt lat="43.9264069" lon="11.6133785"><ele>348.0</ele><time>2026-04-18T15:46:51.188Z</time></trkpt><trkpt lat="43.9264891" lon="11.6133889"><ele>348.0</ele><time>2026-04-18T15:46:52.188Z</time></trkpt><trkpt lat="43.9265584" lon="11.6133405"><ele>348.0</ele><time>2026-04-18T15:46:53.188Z</time></trkpt><trkpt lat="43.9266113" lon="11.6132433"><ele>348.0</ele><time>2026-04-18T15:46:54.188Z</time></trkpt><trkpt lat="43.9266455" lon="11.6131084"><ele>348.0</ele><time>2026-04-18T15:46:55.187Z</time></trkpt><trkpt lat="43.9266765" lon="11.6129555"><ele>348.0</ele><time>2026-04-18T15:46:56.187Z</time></trkpt><trkpt lat="43.9267101" lon="11.612794"><ele>346.2</ele><time>2026-04-18T15:46:57.188Z</time></trkpt><trkpt lat="43.9267403" lon="11.6126451"><ele>344.4</ele><time>2026-04-18T15:46:58.188Z</time></trkpt><trkpt lat="43.9267636" lon="11.6125039"><ele>342.59999999999997</ele><time>2026-04-18T15:46:59.188Z</time></trkpt><trkpt lat="43.9267675" lon="11.6123599"><ele>340.79999999999995</ele><time>2026-04-18T15:47:00.187Z</time></trkpt><trkpt lat="43.9267426" lon="11.6122156"><ele>339.0</ele><time>2026-04-18T15:47:01.187Z</time></trkpt><trkpt lat="43.9266908" lon="11.6120818"><ele>340.0</ele><time>2026-04-18T15:47:02.187Z</time></trkpt><trkpt lat="43.9266147" lon="11.6119796"><ele>341.0</ele><time>2026-04-18T15:47:03.188Z</time></trkpt><trkpt lat="43.926527" lon="11.6119137"><ele>342.0</ele><time>2026-04-18T15:47:04.188Z</time></trkpt><trkpt lat="43.9264279" lon="11.6118878"><ele>343.0</ele><time>2026-04-18T15:47:05.188Z</time></trkpt><trkpt lat="43.9263307" lon="11.6118919"><ele>344.0</ele><time>2026-04-18T15:47:06.187Z</time></trkpt><trkpt lat="43.9262373" lon="11.611907"><ele>344.0</ele><time>2026-04-18T15:47:07.188Z</time></trkpt><trkpt lat="43.9261492" lon="11.6118894"><ele>344.0</ele><time>2026-04-18T15:47:08.187Z</time></trkpt><trkpt lat="43.9260729" lon="11.6118262"><ele>344.0</ele><time>2026-04-18T15:47:09.188Z</time></trkpt><trkpt lat="43.9260247" lon="11.611726"><ele>344.0</ele><time>2026-04-18T15:47:10.188Z</time></trkpt><trkpt lat="43.9260088" lon="11.6116095"><ele>344.0</ele><time>2026-04-18T15:47:11.188Z</time></trkpt><trkpt lat="43.9260306" lon="11.6114849"><ele>344.0</ele><time>2026-04-18T15:47:12.188Z</time></trkpt><trkpt lat="43.926088" lon="11.6113611"><ele>344.0</ele><time>2026-04-18T15:47:13.188Z</time></trkpt><trkpt lat="43.9261689" lon="11.6112473"><ele>344.0</ele><time>2026-04-18T15:47:14.188Z</time></trkpt><trkpt lat="43.9262566" lon="11.6111451"><ele>344.0</ele><time>2026-04-18T15:47:15.188Z</time></trkpt><trkpt lat="43.9263592" lon="11.6110713"><ele>344.0</ele><time>2026-04-18T15:47:16.188Z</time></trkpt><trkpt lat="43.926478" lon="11.6110425"><ele>341.75</ele><time>2026-04-18T15:47:17.188Z</time></trkpt><trkpt lat="43.9266077" lon="11.6110464"><ele>339.5</ele><time>2026-04-18T15:47:18.188Z</time></trkpt><trkpt lat="43.9267424" lon="11.6110547"><ele>337.25</ele><time>2026-04-18T15:47:19.188Z</time></trkpt><trkpt lat="43.9268901" lon="11.6110343"><ele>335.0</ele><time>2026-04-18T15:47:20.188Z</time></trkpt><trkpt lat="43.9270434" lon="11.6109899"><ele>335.0</ele><time>2026-04-18T15:47:21.188Z</time></trkpt><trkpt lat="43.9271886" lon="11.6109359"><ele>335.0</ele><time>2026-04-18T15:47:22.188Z</time></trkpt><trkpt lat="43.9273309" lon="11.6108797"><ele>335.0</ele><time>2026-04-18T15:47:23.188Z</time></trkpt><trkpt lat="43.9274669" lon="11.6108235"><ele>335.0</ele><time>2026-04-18T15:47:24.188Z</time></trkpt><trkpt lat="43.9275859" lon="11.6107511"><ele>338.0</ele><time>2026-04-18T15:47:25.187Z</time></trkpt><trkpt lat="43.9276841" lon="11.6106454"><ele>341.0</ele><time>2026-04-18T15:47:26.188Z</time></trkpt><trkpt lat="43.9277566" lon="11.610507"><ele>344.0</ele><time>2026-04-18T15:47:27.188Z</time></trkpt><trkpt lat="43.9278027" lon="11.6103368"><ele>347.0</ele><time>2026-04-18T15:47:28.187Z</time></trkpt><trkpt lat="43.927809" lon="11.6101495"><ele>347.0</ele><time>2026-04-18T15:47:29.188Z</time></trkpt><trkpt lat="43.9277834" lon="11.6099489"><ele>347.0</ele><time>2026-04-18T15:47:30.188Z</time></trkpt><trkpt lat="43.9277382" lon="11.6097359"><ele>347.0</ele><time>2026-04-18T15:47:31.188Z</time></trkpt><trkpt lat="43.9276916" lon="11.6095295"><ele>342.75</ele><time>2026-04-18T15:47:32.188Z</time></trkpt><trkpt lat="43.9276476" lon="11.6093192"><ele>338.5</ele><time>2026-04-18T15:47:33.188Z</time></trkpt><trkpt lat="43.9276075" lon="11.6091249"><ele>334.25</ele><time>2026-04-18T15:47:34.188Z</time></trkpt><trkpt lat="43.9275654" lon="11.6089445"><ele>330.0</ele><time>2026-04-18T15:47:35.188Z</time></trkpt><trkpt lat="43.9275085" lon="11.6087772"><ele>327.75</ele><time>2026-04-18T15:47:36.188Z</time></trkpt><trkpt lat="43.9274248" lon="11.6086255"><ele>325.5</ele><time>2026-04-18T15:47:37.188Z</time></trkpt><trkpt lat="43.927331" lon="11.6084799"><ele>323.25</ele><time>2026-04-18T15:47:38.188Z</time></trkpt><trkpt lat="43.9272346" lon="11.6083347"><ele>321.0</ele><time>2026-04-18T15:47:39.188Z</time></trkpt><trkpt lat="43.92714" lon="11.6081899"><ele>321.0</ele><time>2026-04-18T15:47:40.188Z</time></trkpt><trkpt lat="43.9270563" lon="11.6080508"><ele>321.0</ele><time>2026-04-18T15:47:41.188Z</time></trkpt><trkpt lat="43.9269829" lon="11.6079018"><ele>321.0</ele><time>2026-04-18T15:47:42.188Z</time></trkpt><trkpt lat="43.9269196" lon="11.6077353"><ele>321.0</ele><time>2026-04-18T15:47:43.188Z</time></trkpt><trkpt lat="43.9268665" lon="11.607555"><ele>320.3333333333333</ele><time>2026-04-18T15:47:44.188Z</time></trkpt><trkpt lat="43.9268118" lon="11.6073636"><ele>319.66666666666663</ele><time>2026-04-18T15:47:45.188Z</time></trkpt><trkpt lat="43.926753" lon="11.6071647"><ele>319.0</ele><time>2026-04-18T15:47:46.188Z</time></trkpt><trkpt lat="43.9266931" lon="11.6069599"><ele>319.0</ele><time>2026-04-18T15:47:47.188Z</time></trkpt><trkpt lat="43.9266329" lon="11.6067516"><ele>319.0</ele><time>2026-04-18T15:47:48.188Z</time></trkpt><trkpt lat="43.9265766" lon="11.6065397"><ele>319.0</ele><time>2026-04-18T15:47:49.188Z</time></trkpt><trkpt lat="43.9265238" lon="11.6063236"><ele>319.3333333333333</ele><time>2026-04-18T15:47:50.188Z</time></trkpt><trkpt lat="43.9264801" lon="11.6061001"><ele>319.6666666666667</ele><time>2026-04-18T15:47:51.188Z</time></trkpt><trkpt lat="43.9264529" lon="11.6058702"><ele>320.0</ele><time>2026-04-18T15:47:52.187Z</time></trkpt><trkpt lat="43.926435" lon="11.6056353"><ele>320.0</ele><time>2026-04-18T15:47:53.188Z</time></trkpt><trkpt lat="43.9264163" lon="11.6053945"><ele>320.0</ele><time>2026-04-18T15:47:54.188Z</time></trkpt><trkpt lat="43.9263994" lon="11.6051478"><ele>320.0</ele><time>2026-04-18T15:47:55.188Z</time></trkpt><trkpt lat="43.9263856" lon="11.6048989"><ele>320.0</ele><time>2026-04-18T15:47:56.188Z</time></trkpt><trkpt lat="43.9263734" lon="11.6046544"><ele>320.0</ele><time>2026-04-18T15:47:57.188Z</time></trkpt><trkpt lat="43.9263653" lon="11.6044144"><ele>320.0</ele><time>2026-04-18T15:47:58.188Z</time></trkpt><trkpt lat="43.9263592" lon="11.6041792"><ele>320.0</ele><time>2026-04-18T15:47:59.188Z</time></trkpt><trkpt lat="43.9263593" lon="11.6039385"><ele>320.0</ele><time>2026-04-18T15:48:00.188Z</time></trkpt><trkpt lat="43.926358" lon="11.6036948"><ele>320.0</ele><time>2026-04-18T15:48:01.188Z</time></trkpt><trkpt lat="43.9263581" lon="11.6034502"><ele>320.0</ele><time>2026-04-18T15:48:02.188Z</time></trkpt><trkpt lat="43.926359" lon="11.6032013"><ele>320.0</ele><time>2026-04-18T15:48:03.188Z</time></trkpt><trkpt lat="43.9263598" lon="11.6029527"><ele>320.0</ele><time>2026-04-18T15:48:04.188Z</time></trkpt><trkpt lat="43.9263626" lon="11.602701"><ele>322.0</ele><time>2026-04-18T15:48:05.188Z</time></trkpt><trkpt lat="43.9263659" lon="11.6024528"><ele>324.0</ele><time>2026-04-18T15:48:06.187Z</time></trkpt><trkpt lat="43.9263698" lon="11.6022018"><ele>326.0</ele><time>2026-04-18T15:48:07.188Z</time></trkpt><trkpt lat="43.9263718" lon="11.6019505"><ele>326.0</ele><time>2026-04-18T15:48:08.188Z</time></trkpt><trkpt lat="43.926371" lon="11.6017003"><ele>326.0</ele><time>2026-04-18T15:48:09.188Z</time></trkpt><trkpt lat="43.9263655" lon="11.6014503"><ele>326.0</ele><time>2026-04-18T15:48:10.188Z</time></trkpt><trkpt lat="43.9263498" lon="11.6012077"><ele>329.0</ele><time>2026-04-18T15:48:11.188Z</time></trkpt><trkpt lat="43.9263293" lon="11.6009776"><ele>332.0</ele><time>2026-04-18T15:48:12.187Z</time></trkpt><trkpt lat="43.9263079" lon="11.6007628"><ele>335.0</ele><time>2026-04-18T15:48:13.188Z</time></trkpt><trkpt lat="43.9262812" lon="11.6005625"><ele>335.0</ele><time>2026-04-18T15:48:14.188Z</time></trkpt><trkpt lat="43.9262318" lon="11.6003867"><ele>335.0</ele><time>2026-04-18T15:48:15.188Z</time></trkpt><trkpt lat="43.9261386" lon="11.6002265"><ele>335.0</ele><time>2026-04-18T15:48:16.188Z</time></trkpt><trkpt lat="43.92603" lon="11.6000595"><ele>335.0</ele><time>2026-04-18T15:48:17.188Z</time></trkpt><trkpt lat="43.9259148" lon="11.5998894"><ele>332.0</ele><time>2026-04-18T15:48:18.188Z</time></trkpt><trkpt lat="43.9257999" lon="11.5997179"><ele>329.0</ele><time>2026-04-18T15:48:19.188Z</time></trkpt><trkpt lat="43.9256885" lon="11.5995495"><ele>326.0</ele><time>2026-04-18T15:48:20.187Z</time></trkpt><trkpt lat="43.925583" lon="11.5993868"><ele>326.0</ele><time>2026-04-18T15:48:21.188Z</time></trkpt><trkpt lat="43.9254805" lon="11.5992305"><ele>326.0</ele><time>2026-04-18T15:48:22.187Z</time></trkpt><trkpt lat="43.9253838" lon="11.5990732"><ele>326.0</ele><time>2026-04-18T15:48:23.188Z</time></trkpt><trkpt lat="43.925298" lon="11.5989033"><ele>326.0</ele><time>2026-04-18T15:48:24.188Z</time></trkpt><trkpt lat="43.9252294" lon="11.5987287"><ele>326.0</ele><time>2026-04-18T15:48:25.188Z</time></trkpt><trkpt lat="43.9251754" lon="11.5985571"><ele>326.0</ele><time>2026-04-18T15:48:26.188Z</time></trkpt><trkpt lat="43.9251466" lon="11.5983806"><ele>326.0</ele><time>2026-04-18T15:48:27.187Z</time></trkpt><trkpt lat="43.9251472" lon="11.5981948"><ele>324.75</ele><time>2026-04-18T15:48:28.188Z</time></trkpt><trkpt lat="43.9251735" lon="11.5980173"><ele>323.5</ele><time>2026-04-18T15:48:29.188Z</time></trkpt><trkpt lat="43.9252262" lon="11.5978497"><ele>322.25</ele><time>2026-04-18T15:48:30.188Z</time></trkpt><trkpt lat="43.9253082" lon="11.5977015"><ele>321.0</ele><time>2026-04-18T15:48:31.188Z</time></trkpt><trkpt lat="43.9254191" lon="11.5975713"><ele>315.0</ele><time>2026-04-18T15:48:32.187Z</time></trkpt><trkpt lat="43.9255484" lon="11.5974576"><ele>309.0</ele><time>2026-04-18T15:48:33.188Z</time></trkpt><trkpt lat="43.9256805" lon="11.597348"><ele>303.0</ele><time>2026-04-18T15:48:34.188Z</time></trkpt><trkpt lat="43.9258162" lon="11.5972308"><ele>306.0</ele><time>2026-04-18T15:48:35.188Z</time></trkpt><trkpt lat="43.9259448" lon="11.5970998"><ele>309.0</ele><time>2026-04-18T15:48:36.188Z</time></trkpt><trkpt lat="43.9260585" lon="11.5969413"><ele>312.0</ele><time>2026-04-18T15:48:37.188Z</time></trkpt><trkpt lat="43.9261571" lon="11.5967564"><ele>312.0</ele><time>2026-04-18T15:48:38.188Z</time></trkpt><trkpt lat="43.9262427" lon="11.5965654"><ele>312.0</ele><time>2026-04-18T15:48:39.188Z</time></trkpt><trkpt lat="43.9263163" lon="11.5963726"><ele>312.0</ele><time>2026-04-18T15:48:40.188Z</time></trkpt><trkpt lat="43.9263723" lon="11.59618"><ele>311.75</ele><time>2026-04-18T15:48:41.188Z</time></trkpt><trkpt lat="43.9264078" lon="11.5959889"><ele>311.5</ele><time>2026-04-18T15:48:42.188Z</time></trkpt><trkpt lat="43.9264276" lon="11.5958035"><ele>311.25</ele><time>2026-04-18T15:48:43.188Z</time></trkpt><trkpt lat="43.9264269" lon="11.5956204"><ele>311.0</ele><time>2026-04-18T15:48:44.188Z</time></trkpt><trkpt lat="43.9264077" lon="11.5954382"><ele>314.5</ele><time>2026-04-18T15:48:45.188Z</time></trkpt><trkpt lat="43.9263594" lon="11.5952725"><ele>318.0</ele><time>2026-04-18T15:48:46.188Z</time></trkpt><trkpt lat="43.926281" lon="11.595136"><ele>321.5</ele><time>2026-04-18T15:48:47.188Z</time></trkpt><trkpt lat="43.9262012" lon="11.5950212"><ele>325.0</ele><time>2026-04-18T15:48:48.188Z</time></trkpt><trkpt lat="43.9261453" lon="11.594889"><ele>325.0</ele><time>2026-04-18T15:48:49.188Z</time></trkpt><trkpt lat="43.9261279" lon="11.5947277"><ele>325.0</ele><time>2026-04-18T15:48:50.187Z</time></trkpt><trkpt lat="43.9261368" lon="11.5945546"><ele>325.0</ele><time>2026-04-18T15:48:51.188Z</time></trkpt><trkpt lat="43.9261539" lon="11.5943471"><ele>325.0</ele><time>2026-04-18T15:48:52.188Z</time></trkpt><trkpt lat="43.9261783" lon="11.5941098"><ele>324.66666666666663</ele><time>2026-04-18T15:48:53.188Z</time></trkpt><trkpt lat="43.9262039" lon="11.5938716"><ele>324.3333333333333</ele><time>2026-04-18T15:48:54.188Z</time></trkpt><trkpt lat="43.926232" lon="11.5936025"><ele>324.0</ele><time>2026-04-18T15:48:55.187Z</time></trkpt><trkpt lat="43.926257" lon="11.5933416"><ele>322.0</ele><time>2026-04-18T15:48:56.188Z</time></trkpt><trkpt lat="43.9262859" lon="11.5930787"><ele>320.0</ele><time>2026-04-18T15:48:57.188Z</time></trkpt><trkpt lat="43.9263201" lon="11.5928176"><ele>318.0</ele><time>2026-04-18T15:48:58.188Z</time></trkpt><trkpt lat="43.9263631" lon="11.5925663"><ele>313.6666666666667</ele><time>2026-04-18T15:48:59.188Z</time></trkpt><trkpt lat="43.9264077" lon="11.5923324"><ele>309.33333333333337</ele><time>2026-04-18T15:49:00.188Z</time></trkpt><trkpt lat="43.9264499" lon="11.5921173"><ele>305.0</ele><time>2026-04-18T15:49:01.188Z</time></trkpt><trkpt lat="43.9264709" lon="11.5919152"><ele>304.0</ele><time>2026-04-18T15:49:02.188Z</time></trkpt><trkpt lat="43.9264619" lon="11.5917302"><ele>303.0</ele><time>2026-04-18T15:49:03.188Z</time></trkpt><trkpt lat="43.9264359" lon="11.5915452"><ele>302.0</ele><time>2026-04-18T15:49:04.188Z</time></trkpt><trkpt lat="43.9264173" lon="11.5913626"><ele>301.0</ele><time>2026-04-18T15:49:05.188Z</time></trkpt><trkpt lat="43.9264201" lon="11.5911931"><ele>300.25</ele><time>2026-04-18T15:49:06.188Z</time></trkpt><trkpt lat="43.9264516" lon="11.5910281"><ele>299.5</ele><time>2026-04-18T15:49:07.188Z</time></trkpt><trkpt lat="43.9265079" lon="11.5908666"><ele>298.75</ele><time>2026-04-18T15:49:08.188Z</time></trkpt><trkpt lat="43.9265816" lon="11.5907161"><ele>298.0</ele><time>2026-04-18T15:49:09.188Z</time></trkpt><trkpt lat="43.926672" lon="11.5905906"><ele>303.6</ele><time>2026-04-18T15:49:10.187Z</time></trkpt><trkpt lat="43.9267604" lon="11.5904674"><ele>309.20000000000005</ele><time>2026-04-18T15:49:11.188Z</time></trkpt><trkpt lat="43.9268223" lon="11.5903516"><ele>314.8</ele><time>2026-04-18T15:49:12.188Z</time></trkpt><trkpt lat="43.9268641" lon="11.5902542"><ele>320.40000000000003</ele><time>2026-04-18T15:49:13.188Z</time></trkpt><trkpt lat="43.9268914" lon="11.5901683"><ele>326.0</ele><time>2026-04-18T15:49:14.188Z</time></trkpt><trkpt lat="43.9269028" lon="11.5900627"><ele>326.0</ele><time>2026-04-18T15:49:16.188Z</time></trkpt><trkpt lat="43.9269097" lon="11.5899731"><ele>326.0</ele><time>2026-04-18T15:49:20.188Z</time></trkpt><trkpt lat="43.9269064" lon="11.5898129"><ele>326.0</ele><time>2026-04-18T15:49:37.188Z</time></trkpt><trkpt lat="43.9269091" lon="11.5897093"><ele>326.0</ele><time>2026-04-18T15:49:38.188Z</time></trkpt><trkpt lat="43.9269104" lon="11.5895876"><ele>326.0</ele><time>2026-04-18T15:49:39.187Z</time></trkpt><trkpt lat="43.9269071" lon="11.5894516"><ele>326.0</ele><time>2026-04-18T15:49:40.188Z</time></trkpt><trkpt lat="43.926897" lon="11.5893"><ele>327.0</ele><time>2026-04-18T15:49:41.187Z</time></trkpt><trkpt lat="43.9268741" lon="11.5891443"><ele>328.0</ele><time>2026-04-18T15:49:42.188Z</time></trkpt><trkpt lat="43.9268346" lon="11.5889902"><ele>329.0</ele><time>2026-04-18T15:49:43.188Z</time></trkpt><trkpt lat="43.9267695" lon="11.5888442"><ele>330.0</ele><time>2026-04-18T15:49:44.187Z</time></trkpt><trkpt lat="43.9266877" lon="11.5887202"><ele>322.0</ele><time>2026-04-18T15:49:45.188Z</time></trkpt><trkpt lat="43.9265919" lon="11.5886149"><ele>314.0</ele><time>2026-04-18T15:49:46.188Z</time></trkpt><trkpt lat="43.9264989" lon="11.5885135"><ele>306.0</ele><time>2026-04-18T15:49:47.188Z</time></trkpt><trkpt lat="43.9264149" lon="11.588413"><ele>298.0</ele><time>2026-04-18T15:49:48.188Z</time></trkpt><trkpt lat="43.926337" lon="11.5883118"><ele>298.0</ele><time>2026-04-18T15:49:49.188Z</time></trkpt><trkpt lat="43.9262686" lon="11.5882084"><ele>298.0</ele><time>2026-04-18T15:49:50.187Z</time></trkpt><trkpt lat="43.9262108" lon="11.5881007"><ele>298.0</ele><time>2026-04-18T15:49:51.188Z</time></trkpt><trkpt lat="43.9261583" lon="11.5879814"><ele>298.0</ele><time>2026-04-18T15:49:52.188Z</time></trkpt><trkpt lat="43.9261126" lon="11.5878456"><ele>298.0</ele><time>2026-04-18T15:49:53.187Z</time></trkpt><trkpt lat="43.9260731" lon="11.587704"><ele>297.75</ele><time>2026-04-18T15:49:54.188Z</time></trkpt><trkpt lat="43.9260422" lon="11.5875572"><ele>297.5</ele><time>2026-04-18T15:49:55.188Z</time></trkpt><trkpt lat="43.9260126" lon="11.5874041"><ele>297.25</ele><time>2026-04-18T15:49:56.188Z</time></trkpt><trkpt lat="43.9259875" lon="11.5872389"><ele>297.0</ele><time>2026-04-18T15:49:57.188Z</time></trkpt><trkpt lat="43.9259697" lon="11.5870671"><ele>296.75</ele><time>2026-04-18T15:49:58.187Z</time></trkpt><trkpt lat="43.9259529" lon="11.5868921"><ele>296.5</ele><time>2026-04-18T15:49:59.188Z</time></trkpt><trkpt lat="43.9259326" lon="11.5867192"><ele>296.25</ele><time>2026-04-18T15:50:00.188Z</time></trkpt><trkpt lat="43.9259131" lon="11.586542"><ele>296.0</ele><time>2026-04-18T15:50:01.188Z</time></trkpt><trkpt lat="43.9258957" lon="11.5863702"><ele>299.25</ele><time>2026-04-18T15:50:02.188Z</time></trkpt><trkpt lat="43.9258831" lon="11.5862014"><ele>302.5</ele><time>2026-04-18T15:50:03.188Z</time></trkpt><trkpt lat="43.9258773" lon="11.5860353"><ele>305.75</ele><time>2026-04-18T15:50:04.188Z</time></trkpt><trkpt lat="43.9258819" lon="11.5858597"><ele>309.0</ele><time>2026-04-18T15:50:05.188Z</time></trkpt><trkpt lat="43.925904" lon="11.5856819"><ele>309.0</ele><time>2026-04-18T15:50:06.188Z</time></trkpt><trkpt lat="43.9259399" lon="11.5855079"><ele>309.0</ele><time>2026-04-18T15:50:07.187Z</time></trkpt><trkpt lat="43.925986" lon="11.5853469"><ele>309.0</ele><time>2026-04-18T15:50:08.188Z</time></trkpt><trkpt lat="43.9260456" lon="11.5851925"><ele>309.0</ele><time>2026-04-18T15:50:09.188Z</time></trkpt><trkpt lat="43.9261239" lon="11.5850441"><ele>305.75</ele><time>2026-04-18T15:50:10.188Z</time></trkpt><trkpt lat="43.9262224" lon="11.5849121"><ele>302.5</ele><time>2026-04-18T15:50:11.187Z</time></trkpt><trkpt lat="43.926327" lon="11.5847877"><ele>299.25</ele><time>2026-04-18T15:50:12.188Z</time></trkpt><trkpt lat="43.9264311" lon="11.5846604"><ele>296.0</ele><time>2026-04-18T15:50:13.188Z</time></trkpt><trkpt lat="43.9265346" lon="11.584535"><ele>296.5</ele><time>2026-04-18T15:50:14.188Z</time></trkpt><trkpt lat="43.9266372" lon="11.5844039"><ele>297.0</ele><time>2026-04-18T15:50:15.188Z</time></trkpt><trkpt lat="43.9267379" lon="11.5842663"><ele>297.5</ele><time>2026-04-18T15:50:16.188Z</time></trkpt><trkpt lat="43.9268407" lon="11.5841273"><ele>298.0</ele><time>2026-04-18T15:50:17.188Z</time></trkpt><trkpt lat="43.9269394" lon="11.5839907"><ele>298.0</ele><time>2026-04-18T15:50:18.188Z</time></trkpt><trkpt lat="43.9270344" lon="11.5838569"><ele>298.0</ele><time>2026-04-18T15:50:19.188Z</time></trkpt><trkpt lat="43.9271166" lon="11.5837187"><ele>298.0</ele><time>2026-04-18T15:50:20.188Z</time></trkpt><trkpt lat="43.9271863" lon="11.5835783"><ele>298.0</ele><time>2026-04-18T15:50:21.188Z</time></trkpt><trkpt lat="43.9272443" lon="11.5834373"><ele>297.4</ele><time>2026-04-18T15:50:22.188Z</time></trkpt><trkpt lat="43.9272911" lon="11.5833009"><ele>296.8</ele><time>2026-04-18T15:50:23.188Z</time></trkpt><trkpt lat="43.9273158" lon="11.5831597"><ele>296.2</ele><time>2026-04-18T15:50:24.188Z</time></trkpt><trkpt lat="43.927298" lon="11.5830032"><ele>295.6</ele><time>2026-04-18T15:50:25.188Z</time></trkpt><trkpt lat="43.9272383" lon="11.5828601"><ele>295.0</ele><time>2026-04-18T15:50:26.188Z</time></trkpt><trkpt lat="43.9271487" lon="11.5827318"><ele>295.0</ele><time>2026-04-18T15:50:27.188Z</time></trkpt><trkpt lat="43.9270438" lon="11.5826124"><ele>295.0</ele><time>2026-04-18T15:50:28.188Z</time></trkpt><trkpt lat="43.926939" lon="11.582489"><ele>295.0</ele><time>2026-04-18T15:50:29.188Z</time></trkpt><trkpt lat="43.9268408" lon="11.5823489"><ele>295.0</ele><time>2026-04-18T15:50:30.188Z</time></trkpt><trkpt lat="43.9267489" lon="11.5821952"><ele>287.0</ele><time>2026-04-18T15:50:31.188Z</time></trkpt><trkpt lat="43.9266569" lon="11.5820395"><ele>279.0</ele><time>2026-04-18T15:50:32.188Z</time></trkpt><trkpt lat="43.9265552" lon="11.5818837"><ele>271.0</ele><time>2026-04-18T15:50:33.188Z</time></trkpt><trkpt lat="43.9264502" lon="11.5817254"><ele>270.3333333333333</ele><time>2026-04-18T15:50:34.188Z</time></trkpt><trkpt lat="43.9263434" lon="11.5815753"><ele>269.6666666666667</ele><time>2026-04-18T15:50:35.188Z</time></trkpt><trkpt lat="43.9262352" lon="11.5814182"><ele>269.0</ele><time>2026-04-18T15:50:36.188Z</time></trkpt><trkpt lat="43.9261385" lon="11.5812446"><ele>268.33333333333337</ele><time>2026-04-18T15:50:37.188Z</time></trkpt><trkpt lat="43.926054" lon="11.581063"><ele>267.6666666666667</ele><time>2026-04-18T15:50:38.188Z</time></trkpt><trkpt lat="43.9259726" lon="11.5808848"><ele>267.0</ele><time>2026-04-18T15:50:39.188Z</time></trkpt><trkpt lat="43.9258892" lon="11.5807195"><ele>267.0</ele><time>2026-04-18T15:50:40.188Z</time></trkpt><trkpt lat="43.925793" lon="11.5805799"><ele>267.0</ele><time>2026-04-18T15:50:41.188Z</time></trkpt><trkpt lat="43.9256821" lon="11.5804605"><ele>267.0</ele><time>2026-04-18T15:50:42.188Z</time></trkpt><trkpt lat="43.9255626" lon="11.5803532"><ele>267.0</ele><time>2026-04-18T15:50:43.188Z</time></trkpt><trkpt lat="43.9254484" lon="11.5802424"><ele>269.0</ele><time>2026-04-18T15:50:44.188Z</time></trkpt><trkpt lat="43.925348" lon="11.5801185"><ele>271.0</ele><time>2026-04-18T15:50:45.187Z</time></trkpt><trkpt lat="43.9252784" lon="11.5799708"><ele>273.0</ele><time>2026-04-18T15:50:46.187Z</time></trkpt><trkpt lat="43.9252315" lon="11.5797942"><ele>275.0</ele><time>2026-04-18T15:50:47.187Z</time></trkpt><trkpt lat="43.9252012" lon="11.5796048"><ele>278.5</ele><time>2026-04-18T15:50:48.188Z</time></trkpt><trkpt lat="43.925176" lon="11.579405"><ele>282.0</ele><time>2026-04-18T15:50:49.188Z</time></trkpt><trkpt lat="43.9251491" lon="11.5791991"><ele>285.5</ele><time>2026-04-18T15:50:50.188Z</time></trkpt><trkpt lat="43.9251221" lon="11.578995"><ele>289.0</ele><time>2026-04-18T15:50:51.188Z</time></trkpt><trkpt lat="43.9250948" lon="11.5787863"><ele>293.0</ele><time>2026-04-18T15:50:52.188Z</time></trkpt><trkpt lat="43.9250669" lon="11.5785761"><ele>297.0</ele><time>2026-04-18T15:50:53.187Z</time></trkpt><trkpt lat="43.9250392" lon="11.5783703"><ele>301.0</ele><time>2026-04-18T15:50:54.188Z</time></trkpt><trkpt lat="43.9250138" lon="11.5781618"><ele>292.5</ele><time>2026-04-18T15:50:55.188Z</time></trkpt><trkpt lat="43.9249863" lon="11.5779579"><ele>284.0</ele><time>2026-04-18T15:50:56.188Z</time></trkpt><trkpt lat="43.9249482" lon="11.5777571"><ele>275.5</ele><time>2026-04-18T15:50:57.187Z</time></trkpt><trkpt lat="43.9248865" lon="11.5775684"><ele>267.0</ele><time>2026-04-18T15:50:58.188Z</time></trkpt><trkpt lat="43.9247997" lon="11.5774"><ele>267.0</ele><time>2026-04-18T15:50:59.188Z</time></trkpt><trkpt lat="43.9246995" lon="11.5772431"><ele>267.0</ele><time>2026-04-18T15:51:00.188Z</time></trkpt><trkpt lat="43.9246023" lon="11.5770893"><ele>267.0</ele><time>2026-04-18T15:51:01.188Z</time></trkpt><trkpt lat="43.9245125" lon="11.5769441"><ele>267.0</ele><time>2026-04-18T15:51:02.188Z</time></trkpt><trkpt lat="43.9244296" lon="11.5768026"><ele>267.0</ele><time>2026-04-18T15:51:03.188Z</time></trkpt><trkpt lat="43.9243504" lon="11.576667"><ele>267.0</ele><time>2026-04-18T15:51:04.188Z</time></trkpt><trkpt lat="43.9242764" lon="11.5765411"><ele>267.0</ele><time>2026-04-18T15:51:05.188Z</time></trkpt><trkpt lat="43.9242056" lon="11.5764283"><ele>267.0</ele><time>2026-04-18T15:51:06.188Z</time></trkpt><trkpt lat="43.9241409" lon="11.576329"><ele>267.0</ele><time>2026-04-18T15:51:07.188Z</time></trkpt><trkpt lat="43.9240803" lon="11.5762302"><ele>265.2</ele><time>2026-04-18T15:51:08.188Z</time></trkpt><trkpt lat="43.9240166" lon="11.5761278"><ele>263.4</ele><time>2026-04-18T15:51:09.188Z</time></trkpt><trkpt lat="43.9239476" lon="11.5760171"><ele>261.6</ele><time>2026-04-18T15:51:10.188Z</time></trkpt><trkpt lat="43.9238686" lon="11.5759"><ele>259.8</ele><time>2026-04-18T15:51:11.188Z</time></trkpt><trkpt lat="43.9237832" lon="11.5757779"><ele>258.0</ele><time>2026-04-18T15:51:12.188Z</time></trkpt><trkpt lat="43.9236855" lon="11.5756492"><ele>258.0</ele><time>2026-04-18T15:51:13.188Z</time></trkpt><trkpt lat="43.9235874" lon="11.5755165"><ele>258.0</ele><time>2026-04-18T15:51:14.188Z</time></trkpt><trkpt lat="43.9234911" lon="11.5753838"><ele>258.0</ele><time>2026-04-18T15:51:15.188Z</time></trkpt><trkpt lat="43.9233947" lon="11.5752555"><ele>258.0</ele><time>2026-04-18T15:51:16.187Z</time></trkpt><trkpt lat="43.9233051" lon="11.5751324"><ele>257.25</ele><time>2026-04-18T15:51:17.188Z</time></trkpt><trkpt lat="43.9232175" lon="11.5750162"><ele>256.5</ele><time>2026-04-18T15:51:18.188Z</time></trkpt><trkpt lat="43.9231328" lon="11.5749057"><ele>255.75</ele><time>2026-04-18T15:51:19.188Z</time></trkpt><trkpt lat="43.9230491" lon="11.5747964"><ele>255.0</ele><time>2026-04-18T15:51:20.188Z</time></trkpt><trkpt lat="43.9229663" lon="11.5746877"><ele>255.0</ele><time>2026-04-18T15:51:21.188Z</time></trkpt><trkpt lat="43.9228788" lon="11.5745788"><ele>255.0</ele><time>2026-04-18T15:51:22.187Z</time></trkpt><trkpt lat="43.9227851" lon="11.5744814"><ele>255.0</ele><time>2026-04-18T15:51:23.187Z</time></trkpt><trkpt lat="43.9226822" lon="11.574394"><ele>255.0</ele><time>2026-04-18T15:51:24.188Z</time></trkpt><trkpt lat="43.9225742" lon="11.5743129"><ele>255.0</ele><time>2026-04-18T15:51:25.188Z</time></trkpt><trkpt lat="43.9224695" lon="11.5742369"><ele>255.0</ele><time>2026-04-18T15:51:26.188Z</time></trkpt><trkpt lat="43.9223734" lon="11.5741611"><ele>255.0</ele><time>2026-04-18T15:51:27.188Z</time></trkpt><trkpt lat="43.9222831" lon="11.5740779"><ele>255.0</ele><time>2026-04-18T15:51:28.188Z</time></trkpt><trkpt lat="43.9221969" lon="11.5739784"><ele>255.0</ele><time>2026-04-18T15:51:29.188Z</time></trkpt><trkpt lat="43.922108" lon="11.5738704"><ele>255.0</ele><time>2026-04-18T15:51:30.188Z</time></trkpt><trkpt lat="43.9220187" lon="11.5737558"><ele>255.0</ele><time>2026-04-18T15:51:31.188Z</time></trkpt><trkpt lat="43.9219274" lon="11.5736376"><ele>255.0</ele><time>2026-04-18T15:51:32.188Z</time></trkpt><trkpt lat="43.9218354" lon="11.573521"><ele>255.0</ele><time>2026-04-18T15:51:33.188Z</time></trkpt><trkpt lat="43.9217483" lon="11.5733993"><ele>255.25</ele><time>2026-04-18T15:51:34.188Z</time></trkpt><trkpt lat="43.9216685" lon="11.5732625"><ele>255.5</ele><time>2026-04-18T15:51:35.188Z</time></trkpt><trkpt lat="43.921596" lon="11.5731208"><ele>255.75</ele><time>2026-04-18T15:51:36.188Z</time></trkpt><trkpt lat="43.921539" lon="11.5729742"><ele>256.0</ele><time>2026-04-18T15:51:37.187Z</time></trkpt><trkpt lat="43.9214921" lon="11.5728199"><ele>256.0</ele><time>2026-04-18T15:51:38.188Z</time></trkpt><trkpt lat="43.92145" lon="11.5726625"><ele>256.0</ele><time>2026-04-18T15:51:39.187Z</time></trkpt><trkpt lat="43.9214023" lon="11.5725033"><ele>256.0</ele><time>2026-04-18T15:51:40.188Z</time></trkpt><trkpt lat="43.9213491" lon="11.572347"><ele>256.0</ele><time>2026-04-18T15:51:41.187Z</time></trkpt><trkpt lat="43.9212875" lon="11.5721948"><ele>256.0</ele><time>2026-04-18T15:51:42.188Z</time></trkpt><trkpt lat="43.921226" lon="11.5720458"><ele>256.0</ele><time>2026-04-18T15:51:43.188Z</time></trkpt><trkpt lat="43.9211621" lon="11.5719016"><ele>256.0</ele><time>2026-04-18T15:51:44.187Z</time></trkpt><trkpt lat="43.921097" lon="11.5717675"><ele>256.0</ele><time>2026-04-18T15:51:45.188Z</time></trkpt><trkpt lat="43.9210282" lon="11.5716381"><ele>256.40000000000003</ele><time>2026-04-18T15:51:46.188Z</time></trkpt><trkpt lat="43.9209548" lon="11.571514"><ele>256.8</ele><time>2026-04-18T15:51:47.188Z</time></trkpt><trkpt lat="43.9208753" lon="11.571398"><ele>257.20000000000005</ele><time>2026-04-18T15:51:48.188Z</time></trkpt><trkpt lat="43.9207957" lon="11.5712901"><ele>257.6</ele><time>2026-04-18T15:51:49.188Z</time></trkpt><trkpt lat="43.9207165" lon="11.5711925"><ele>258.0</ele><time>2026-04-18T15:51:50.188Z</time></trkpt><trkpt lat="43.9206383" lon="11.571101"><ele>258.0</ele><time>2026-04-18T15:51:51.188Z</time></trkpt><trkpt lat="43.9205565" lon="11.5710123"><ele>258.0</ele><time>2026-04-18T15:51:52.188Z</time></trkpt><trkpt lat="43.9204775" lon="11.5709312"><ele>258.0</ele><time>2026-04-18T15:51:53.187Z</time></trkpt><trkpt lat="43.920394" lon="11.5708575"><ele>258.0</ele><time>2026-04-18T15:51:54.188Z</time></trkpt><trkpt lat="43.9202976" lon="11.570787"><ele>258.0</ele><time>2026-04-18T15:51:55.188Z</time></trkpt><trkpt lat="43.9201894" lon="11.5707213"><ele>258.0</ele><time>2026-04-18T15:51:56.188Z</time></trkpt><trkpt lat="43.9200696" lon="11.5706643"><ele>258.0</ele><time>2026-04-18T15:51:57.188Z</time></trkpt><trkpt lat="43.9199447" lon="11.5706109"><ele>258.0</ele><time>2026-04-18T15:51:58.188Z</time></trkpt><trkpt lat="43.9198106" lon="11.5705699"><ele>258.0</ele><time>2026-04-18T15:51:59.187Z</time></trkpt><trkpt lat="43.9196739" lon="11.5705395"><ele>255.75</ele><time>2026-04-18T15:52:00.188Z</time></trkpt><trkpt lat="43.9195361" lon="11.5705178"><ele>253.5</ele><time>2026-04-18T15:52:01.188Z</time></trkpt><trkpt lat="43.9194094" lon="11.5705023"><ele>251.25</ele><time>2026-04-18T15:52:02.187Z</time></trkpt><trkpt lat="43.9192888" lon="11.5704878"><ele>249.0</ele><time>2026-04-18T15:52:03.187Z</time></trkpt><trkpt lat="43.919179" lon="11.5704535"><ele>248.5</ele><time>2026-04-18T15:52:04.188Z</time></trkpt><trkpt lat="43.9190773" lon="11.5703908"><ele>248.0</ele><time>2026-04-18T15:52:05.187Z</time></trkpt><trkpt lat="43.9189788" lon="11.570295"><ele>247.5</ele><time>2026-04-18T15:52:06.188Z</time></trkpt><trkpt lat="43.9188744" lon="11.5701815"><ele>247.0</ele><time>2026-04-18T15:52:07.188Z</time></trkpt><trkpt lat="43.918761" lon="11.5700601"><ele>246.33333333333331</ele><time>2026-04-18T15:52:08.188Z</time></trkpt><trkpt lat="43.9186333" lon="11.5699227"><ele>245.66666666666669</ele><time>2026-04-18T15:52:09.188Z</time></trkpt><trkpt lat="43.9184877" lon="11.5697699"><ele>245.0</ele><time>2026-04-18T15:52:10.188Z</time></trkpt><trkpt lat="43.9183191" lon="11.5695962"><ele>251.5</ele><time>2026-04-18T15:52:11.188Z</time></trkpt><trkpt lat="43.9181362" lon="11.5694013"><ele>258.0</ele><time>2026-04-18T15:52:12.188Z</time></trkpt><trkpt lat="43.9179568" lon="11.5692139"><ele>258.0</ele><time>2026-04-18T15:52:13.188Z</time></trkpt><trkpt lat="43.9177866" lon="11.5690316"><ele>258.0</ele><time>2026-04-18T15:52:14.188Z</time></trkpt><trkpt lat="43.9176295" lon="11.568859"><ele>258.0</ele><time>2026-04-18T15:52:15.188Z</time></trkpt><trkpt lat="43.9174877" lon="11.5686875"><ele>258.0</ele><time>2026-04-18T15:52:16.187Z</time></trkpt><trkpt lat="43.9173624" lon="11.5685108"><ele>258.0</ele><time>2026-04-18T15:52:17.188Z</time></trkpt><trkpt lat="43.9172576" lon="11.5683145"><ele>258.0</ele><time>2026-04-18T15:52:18.188Z</time></trkpt><trkpt lat="43.9171759" lon="11.5681012"><ele>258.0</ele><time>2026-04-18T15:52:19.187Z</time></trkpt><trkpt lat="43.917114" lon="11.5678721"><ele>258.0</ele><time>2026-04-18T15:52:20.188Z</time></trkpt><trkpt lat="43.9170666" lon="11.5676292"><ele>258.0</ele><time>2026-04-18T15:52:21.188Z</time></trkpt><trkpt lat="43.91702" lon="11.5673829"><ele>257.0</ele><time>2026-04-18T15:52:22.188Z</time></trkpt><trkpt lat="43.9169703" lon="11.5671301"><ele>256.0</ele><time>2026-04-18T15:52:23.188Z</time></trkpt><trkpt lat="43.9169137" lon="11.5668773"><ele>255.0</ele><time>2026-04-18T15:52:24.188Z</time></trkpt><trkpt lat="43.9168522" lon="11.5666301"><ele>252.0</ele><time>2026-04-18T15:52:25.188Z</time></trkpt><trkpt lat="43.9167719" lon="11.5663744"><ele>249.0</ele><time>2026-04-18T15:52:26.188Z</time></trkpt><trkpt lat="43.9166624" lon="11.5661032"><ele>246.0</ele><time>2026-04-18T15:52:27.187Z</time></trkpt><trkpt lat="43.9165461" lon="11.5658486"><ele>246.0</ele><time>2026-04-18T15:52:28.188Z</time></trkpt><trkpt lat="43.9164302" lon="11.5655914"><ele>246.0</ele><time>2026-04-18T15:52:29.188Z</time></trkpt><trkpt lat="43.9163401" lon="11.5653667"><ele>246.0</ele><time>2026-04-18T15:52:30.188Z</time></trkpt><trkpt lat="43.9162491" lon="11.5651271"><ele>250.0</ele><time>2026-04-18T15:52:31.188Z</time></trkpt><trkpt lat="43.9161606" lon="11.5648767"><ele>254.0</ele><time>2026-04-18T15:52:32.188Z</time></trkpt><trkpt lat="43.91607" lon="11.5646263"><ele>258.0</ele><time>2026-04-18T15:52:33.188Z</time></trkpt><trkpt lat="43.9159737" lon="11.5643764"><ele>253.33333333333331</ele><time>2026-04-18T15:52:34.188Z</time></trkpt><trkpt lat="43.9158788" lon="11.5641451"><ele>248.66666666666666</ele><time>2026-04-18T15:52:35.188Z</time></trkpt><trkpt lat="43.9157891" lon="11.5639237"><ele>244.0</ele><time>2026-04-18T15:52:36.187Z</time></trkpt><trkpt lat="43.9157014" lon="11.5637065"><ele>248.66666666666666</ele><time>2026-04-18T15:52:37.188Z</time></trkpt><trkpt lat="43.9156146" lon="11.5634965"><ele>253.33333333333331</ele><time>2026-04-18T15:52:38.188Z</time></trkpt><trkpt lat="43.9155322" lon="11.5632991"><ele>258.0</ele><time>2026-04-18T15:52:39.188Z</time></trkpt><trkpt lat="43.9154359" lon="11.5631158"><ele>258.0</ele><time>2026-04-18T15:52:40.188Z</time></trkpt><trkpt lat="43.9153133" lon="11.5629547"><ele>258.0</ele><time>2026-04-18T15:52:41.188Z</time></trkpt><trkpt lat="43.9151723" lon="11.5628016"><ele>258.0</ele><time>2026-04-18T15:52:42.188Z</time></trkpt><trkpt lat="43.9150295" lon="11.5626514"><ele>253.33333333333331</ele><time>2026-04-18T15:52:43.187Z</time></trkpt><trkpt lat="43.91489" lon="11.5625034"><ele>248.66666666666666</ele><time>2026-04-18T15:52:44.188Z</time></trkpt><trkpt lat="43.9147514" lon="11.5623609"><ele>244.0</ele><time>2026-04-18T15:52:45.188Z</time></trkpt><trkpt lat="43.9146105" lon="11.5622207"><ele>244.0</ele><time>2026-04-18T15:52:46.187Z</time></trkpt><trkpt lat="43.9144644" lon="11.5620972"><ele>244.0</ele><time>2026-04-18T15:52:47.187Z</time></trkpt><trkpt lat="43.9143119" lon="11.5620155"><ele>244.0</ele><time>2026-04-18T15:52:48.188Z</time></trkpt><trkpt lat="43.9141578" lon="11.5619544"><ele>247.0</ele><time>2026-04-18T15:52:49.188Z</time></trkpt><trkpt lat="43.913997" lon="11.5619029"><ele>250.0</ele><time>2026-04-18T15:52:50.188Z</time></trkpt><trkpt lat="43.9138342" lon="11.561852"><ele>253.0</ele><time>2026-04-18T15:52:51.188Z</time></trkpt><trkpt lat="43.9136697" lon="11.5617953"><ele>253.0</ele><time>2026-04-18T15:52:52.188Z</time></trkpt><trkpt lat="43.9135054" lon="11.561737"><ele>253.0</ele><time>2026-04-18T15:52:53.188Z</time></trkpt><trkpt lat="43.9133406" lon="11.5616804"><ele>253.0</ele><time>2026-04-18T15:52:54.188Z</time></trkpt><trkpt lat="43.9131807" lon="11.5616255"><ele>250.0</ele><time>2026-04-18T15:52:55.188Z</time></trkpt><trkpt lat="43.9130287" lon="11.5615744"><ele>247.0</ele><time>2026-04-18T15:52:56.188Z</time></trkpt><trkpt lat="43.9128828" lon="11.5615256"><ele>244.0</ele><time>2026-04-18T15:52:57.188Z</time></trkpt><trkpt lat="43.9127384" lon="11.561488"><ele>244.0</ele><time>2026-04-18T15:52:58.187Z</time></trkpt><trkpt lat="43.9125974" lon="11.5614818"><ele>244.0</ele><time>2026-04-18T15:52:59.188Z</time></trkpt><trkpt lat="43.9124522" lon="11.5615078"><ele>244.0</ele><time>2026-04-18T15:53:00.188Z</time></trkpt><trkpt lat="43.9123044" lon="11.5615525"><ele>244.0</ele><time>2026-04-18T15:53:01.188Z</time></trkpt><trkpt lat="43.912168" lon="11.5615883"><ele>242.25</ele><time>2026-04-18T15:53:02.188Z</time></trkpt><trkpt lat="43.9120305" lon="11.5615977"><ele>240.5</ele><time>2026-04-18T15:53:03.188Z</time></trkpt><trkpt lat="43.9118858" lon="11.5615672"><ele>238.75</ele><time>2026-04-18T15:53:04.188Z</time></trkpt><trkpt lat="43.9117492" lon="11.5614942"><ele>237.0</ele><time>2026-04-18T15:53:05.188Z</time></trkpt><trkpt lat="43.9116282" lon="11.5613864"><ele>235.33333333333331</ele><time>2026-04-18T15:53:06.188Z</time></trkpt><trkpt lat="43.9115171" lon="11.5612521"><ele>233.66666666666666</ele><time>2026-04-18T15:53:07.188Z</time></trkpt><trkpt lat="43.9114136" lon="11.5610911"><ele>232.0</ele><time>2026-04-18T15:53:08.188Z</time></trkpt><trkpt lat="43.9113229" lon="11.5609011"><ele>237.33333333333331</ele><time>2026-04-18T15:53:09.187Z</time></trkpt><trkpt lat="43.9112348" lon="11.5606994"><ele>242.66666666666669</ele><time>2026-04-18T15:53:10.188Z</time></trkpt><trkpt lat="43.9111504" lon="11.5604915"><ele>248.0</ele><time>2026-04-18T15:53:11.188Z</time></trkpt><trkpt lat="43.9110715" lon="11.5602781"><ele>242.33333333333334</ele><time>2026-04-18T15:53:12.187Z</time></trkpt><trkpt lat="43.9109978" lon="11.5600573"><ele>236.66666666666669</ele><time>2026-04-18T15:53:13.188Z</time></trkpt><trkpt lat="43.9109278" lon="11.5598286"><ele>231.0</ele><time>2026-04-18T15:53:14.188Z</time></trkpt><trkpt lat="43.9108631" lon="11.5595982"><ele>232.66666666666669</ele><time>2026-04-18T15:53:15.188Z</time></trkpt><trkpt lat="43.9107929" lon="11.5593702"><ele>234.33333333333334</ele><time>2026-04-18T15:53:16.187Z</time></trkpt><trkpt lat="43.9107134" lon="11.5591475"><ele>236.0</ele><time>2026-04-18T15:53:17.188Z</time></trkpt><trkpt lat="43.9106258" lon="11.5589341"><ele>236.0</ele><time>2026-04-18T15:53:18.188Z</time></trkpt><trkpt lat="43.9105328" lon="11.5587388"><ele>236.0</ele><time>2026-04-18T15:53:19.188Z</time></trkpt><trkpt lat="43.9104414" lon="11.5585615"><ele>236.0</ele><time>2026-04-18T15:53:20.188Z</time></trkpt><trkpt lat="43.9103376" lon="11.5583966"><ele>231.66666666666669</ele><time>2026-04-18T15:53:21.188Z</time></trkpt><trkpt lat="43.9102243" lon="11.5582564"><ele>227.33333333333331</ele><time>2026-04-18T15:53:22.187Z</time></trkpt><trkpt lat="43.9101024" lon="11.5581199"><ele>223.0</ele><time>2026-04-18T15:53:23.188Z</time></trkpt><trkpt lat="43.9099807" lon="11.5579988"><ele>223.0</ele><time>2026-04-18T15:53:24.188Z</time></trkpt><trkpt lat="43.9098537" lon="11.5579033"><ele>223.0</ele><time>2026-04-18T15:53:25.188Z</time></trkpt><trkpt lat="43.9097267" lon="11.5578286"><ele>223.0</ele><time>2026-04-18T15:53:26.188Z</time></trkpt><trkpt lat="43.9096017" lon="11.5577732"><ele>223.0</ele><time>2026-04-18T15:53:27.188Z</time></trkpt><trkpt lat="43.9094694" lon="11.5577447"><ele>224.0</ele><time>2026-04-18T15:53:28.188Z</time></trkpt><trkpt lat="43.9093402" lon="11.5577595"><ele>225.0</ele><time>2026-04-18T15:53:29.187Z</time></trkpt><trkpt lat="43.9092211" lon="11.5577999"><ele>226.0</ele><time>2026-04-18T15:53:30.188Z</time></trkpt><trkpt lat="43.9091053" lon="11.5578395"><ele>227.0</ele><time>2026-04-18T15:53:31.188Z</time></trkpt><trkpt lat="43.9089891" lon="11.5578682"><ele>227.0</ele><time>2026-04-18T15:53:32.188Z</time></trkpt><trkpt lat="43.9088703" lon="11.557865"><ele>227.0</ele><time>2026-04-18T15:53:33.188Z</time></trkpt><trkpt lat="43.9087623" lon="11.5578169"><ele>227.0</ele><time>2026-04-18T15:53:34.187Z</time></trkpt><trkpt lat="43.9086633" lon="11.5577154"><ele>227.0</ele><time>2026-04-18T15:53:35.188Z</time></trkpt><trkpt lat="43.9085678" lon="11.5575643"><ele>227.0</ele><time>2026-04-18T15:53:36.188Z</time></trkpt><trkpt lat="43.908475" lon="11.5573877"><ele>227.0</ele><time>2026-04-18T15:53:37.188Z</time></trkpt><trkpt lat="43.9083883" lon="11.5572201"><ele>227.0</ele><time>2026-04-18T15:53:38.188Z</time></trkpt><trkpt lat="43.908306" lon="11.5570566"><ele>226.0</ele><time>2026-04-18T15:53:39.187Z</time></trkpt><trkpt lat="43.9082327" lon="11.5569079"><ele>225.0</ele><time>2026-04-18T15:53:40.188Z</time></trkpt><trkpt lat="43.9081763" lon="11.5567744"><ele>224.0</ele><time>2026-04-18T15:53:41.188Z</time></trkpt><trkpt lat="43.9081223" lon="11.5566547"><ele>223.0</ele><time>2026-04-18T15:53:42.188Z</time></trkpt><trkpt lat="43.9080588" lon="11.5565561"><ele>222.0</ele><time>2026-04-18T15:53:43.187Z</time></trkpt><trkpt lat="43.9079762" lon="11.5564997"><ele>222.0</ele><time>2026-04-18T15:53:44.188Z</time></trkpt><trkpt lat="43.9078809" lon="11.5564899"><ele>222.0</ele><time>2026-04-18T15:53:45.188Z</time></trkpt><trkpt lat="43.9077747" lon="11.5565089"><ele>222.0</ele><time>2026-04-18T15:53:46.188Z</time></trkpt><trkpt lat="43.9076665" lon="11.5565282"><ele>222.0</ele><time>2026-04-18T15:53:47.188Z</time></trkpt><trkpt lat="43.9075575" lon="11.5565368"><ele>222.0</ele><time>2026-04-18T15:53:48.188Z</time></trkpt><trkpt lat="43.9074538" lon="11.5565222"><ele>220.25</ele><time>2026-04-18T15:53:49.188Z</time></trkpt><trkpt lat="43.9073581" lon="11.5564807"><ele>218.5</ele><time>2026-04-18T15:53:50.188Z</time></trkpt><trkpt lat="43.9072561" lon="11.5564126"><ele>216.75</ele><time>2026-04-18T15:53:51.188Z</time></trkpt><trkpt lat="43.9071407" lon="11.5563106"><ele>215.0</ele><time>2026-04-18T15:53:52.188Z</time></trkpt><trkpt lat="43.9070207" lon="11.5561737"><ele>214.66666666666669</ele><time>2026-04-18T15:53:53.188Z</time></trkpt><trkpt lat="43.9069108" lon="11.5560237"><ele>214.33333333333331</ele><time>2026-04-18T15:53:54.188Z</time></trkpt><trkpt lat="43.9067932" lon="11.5558541"><ele>214.0</ele><time>2026-04-18T15:53:55.188Z</time></trkpt><trkpt lat="43.9066677" lon="11.555689"><ele>214.0</ele><time>2026-04-18T15:53:56.188Z</time></trkpt><trkpt lat="43.9065466" lon="11.5555313"><ele>214.0</ele><time>2026-04-18T15:53:57.188Z</time></trkpt><trkpt lat="43.9064381" lon="11.5553813"><ele>214.0</ele><time>2026-04-18T15:53:58.188Z</time></trkpt><trkpt lat="43.9063319" lon="11.5552388"><ele>214.5</ele><time>2026-04-18T15:53:59.188Z</time></trkpt><trkpt lat="43.9062254" lon="11.5551"><ele>215.0</ele><time>2026-04-18T15:54:00.188Z</time></trkpt><trkpt lat="43.9061196" lon="11.554957"><ele>215.5</ele><time>2026-04-18T15:54:01.187Z</time></trkpt><trkpt lat="43.9060116" lon="11.5548063"><ele>216.0</ele><time>2026-04-18T15:54:02.188Z</time></trkpt><trkpt lat="43.9059006" lon="11.5546537"><ele>213.66666666666669</ele><time>2026-04-18T15:54:03.188Z</time></trkpt><trkpt lat="43.9057905" lon="11.5544996"><ele>211.33333333333334</ele><time>2026-04-18T15:54:04.187Z</time></trkpt><trkpt lat="43.9056738" lon="11.5543409"><ele>209.0</ele><time>2026-04-18T15:54:05.187Z</time></trkpt><trkpt lat="43.9055428" lon="11.5541819"><ele>209.0</ele><time>2026-04-18T15:54:06.188Z</time></trkpt><trkpt lat="43.9053965" lon="11.5540352"><ele>209.0</ele><time>2026-04-18T15:54:07.188Z</time></trkpt><trkpt lat="43.9052398" lon="11.5539068"><ele>209.0</ele><time>2026-04-18T15:54:08.188Z</time></trkpt><trkpt lat="43.9050858" lon="11.553794"><ele>209.0</ele><time>2026-04-18T15:54:09.188Z</time></trkpt><trkpt lat="43.904927" lon="11.553709"><ele>209.0</ele><time>2026-04-18T15:54:10.188Z</time></trkpt><trkpt lat="43.9047491" lon="11.5536563"><ele>209.0</ele><time>2026-04-18T15:54:11.188Z</time></trkpt><trkpt lat="43.904549" lon="11.5536252"><ele>209.0</ele><time>2026-04-18T15:54:12.188Z</time></trkpt><trkpt lat="43.9043511" lon="11.5535919"><ele>209.0</ele><time>2026-04-18T15:54:13.188Z</time></trkpt><trkpt lat="43.904148" lon="11.5535558"><ele>209.0</ele><time>2026-04-18T15:54:14.188Z</time></trkpt><trkpt lat="43.9039421" lon="11.5535195"><ele>208.66666666666669</ele><time>2026-04-18T15:54:15.188Z</time></trkpt><trkpt lat="43.9037475" lon="11.5534805"><ele>208.33333333333331</ele><time>2026-04-18T15:54:16.188Z</time></trkpt><trkpt lat="43.9035608" lon="11.5534432"><ele>208.0</ele><time>2026-04-18T15:54:17.188Z</time></trkpt><trkpt lat="43.9033786" lon="11.5534129"><ele>207.0</ele><time>2026-04-18T15:54:18.188Z</time></trkpt><trkpt lat="43.9032002" lon="11.5533863"><ele>206.0</ele><time>2026-04-18T15:54:19.188Z</time></trkpt><trkpt lat="43.9030311" lon="11.5533601"><ele>205.0</ele><time>2026-04-18T15:54:20.188Z</time></trkpt><trkpt lat="43.9028675" lon="11.5533343"><ele>205.0</ele><time>2026-04-18T15:54:21.187Z</time></trkpt><trkpt lat="43.9027074" lon="11.5532968"><ele>205.0</ele><time>2026-04-18T15:54:22.188Z</time></trkpt><trkpt lat="43.9025538" lon="11.5532187"><ele>205.0</ele><time>2026-04-18T15:54:23.188Z</time></trkpt><trkpt lat="43.9023971" lon="11.5531071"><ele>206.33333333333331</ele><time>2026-04-18T15:54:24.188Z</time></trkpt><trkpt lat="43.9022387" lon="11.5529795"><ele>207.66666666666669</ele><time>2026-04-18T15:54:25.188Z</time></trkpt><trkpt lat="43.9020776" lon="11.5528559"><ele>209.0</ele><time>2026-04-18T15:54:26.188Z</time></trkpt><trkpt lat="43.9019191" lon="11.5527322"><ele>207.0</ele><time>2026-04-18T15:54:27.188Z</time></trkpt><trkpt lat="43.9017653" lon="11.5526073"><ele>205.0</ele><time>2026-04-18T15:54:28.188Z</time></trkpt><trkpt lat="43.901616" lon="11.5524839"><ele>203.0</ele><time>2026-04-18T15:54:29.188Z</time></trkpt><trkpt lat="43.9014772" lon="11.552363"><ele>203.0</ele><time>2026-04-18T15:54:30.188Z</time></trkpt><trkpt lat="43.9013552" lon="11.5522348"><ele>203.0</ele><time>2026-04-18T15:54:31.188Z</time></trkpt><trkpt lat="43.9012562" lon="11.5521094"><ele>203.0</ele><time>2026-04-18T15:54:32.188Z</time></trkpt><trkpt lat="43.9011647" lon="11.551989"><ele>203.0</ele><time>2026-04-18T15:54:33.188Z</time></trkpt><trkpt lat="43.9010817" lon="11.5518769"><ele>202.25</ele><time>2026-04-18T15:54:34.187Z</time></trkpt><trkpt lat="43.9009957" lon="11.5517619"><ele>201.5</ele><time>2026-04-18T15:54:35.187Z</time></trkpt><trkpt lat="43.9009041" lon="11.5516418"><ele>200.75</ele><time>2026-04-18T15:54:36.188Z</time></trkpt><trkpt lat="43.9008125" lon="11.5515216"><ele>200.0</ele><time>2026-04-18T15:54:37.188Z</time></trkpt><trkpt lat="43.9007267" lon="11.5514018"><ele>200.0</ele><time>2026-04-18T15:54:38.187Z</time></trkpt><trkpt lat="43.9006489" lon="11.5512719"><ele>200.0</ele><time>2026-04-18T15:54:39.188Z</time></trkpt><trkpt lat="43.9005842" lon="11.5511222"><ele>200.0</ele><time>2026-04-18T15:54:40.188Z</time></trkpt><trkpt lat="43.9005314" lon="11.550953"><ele>200.0</ele><time>2026-04-18T15:54:41.187Z</time></trkpt><trkpt lat="43.9004818" lon="11.5507805"><ele>199.5</ele><time>2026-04-18T15:54:42.188Z</time></trkpt><trkpt lat="43.9004265" lon="11.5505929"><ele>199.0</ele><time>2026-04-18T15:54:43.188Z</time></trkpt><trkpt lat="43.9003675" lon="11.5503996"><ele>198.5</ele><time>2026-04-18T15:54:44.188Z</time></trkpt><trkpt lat="43.9003022" lon="11.5502099"><ele>198.0</ele><time>2026-04-18T15:54:45.187Z</time></trkpt><trkpt lat="43.9002169" lon="11.5500347"><ele>198.0</ele><time>2026-04-18T15:54:46.188Z</time></trkpt><trkpt lat="43.9001123" lon="11.5498677"><ele>198.0</ele><time>2026-04-18T15:54:47.188Z</time></trkpt><trkpt lat="43.8999929" lon="11.5497"><ele>198.0</ele><time>2026-04-18T15:54:48.188Z</time></trkpt><trkpt lat="43.8998685" lon="11.5495388"><ele>196.33333333333331</ele><time>2026-04-18T15:54:49.188Z</time></trkpt><trkpt lat="43.8997408" lon="11.5493815"><ele>194.66666666666666</ele><time>2026-04-18T15:54:50.188Z</time></trkpt><trkpt lat="43.8996131" lon="11.5492206"><ele>193.0</ele><time>2026-04-18T15:54:51.187Z</time></trkpt><trkpt lat="43.8994894" lon="11.5490605"><ele>193.0</ele><time>2026-04-18T15:54:52.188Z</time></trkpt><trkpt lat="43.8993649" lon="11.548906"><ele>193.0</ele><time>2026-04-18T15:54:53.188Z</time></trkpt><trkpt lat="43.8992415" lon="11.5487563"><ele>193.0</ele><time>2026-04-18T15:54:54.188Z</time></trkpt><trkpt lat="43.8991162" lon="11.5486164"><ele>199.0</ele><time>2026-04-18T15:54:55.188Z</time></trkpt><trkpt lat="43.8989808" lon="11.5484944"><ele>205.0</ele><time>2026-04-18T15:54:56.187Z</time></trkpt><trkpt lat="43.8988312" lon="11.5484"><ele>211.0</ele><time>2026-04-18T15:54:57.188Z</time></trkpt><trkpt lat="43.8986654" lon="11.5483339"><ele>211.0</ele><time>2026-04-18T15:54:58.188Z</time></trkpt><trkpt lat="43.8984918" lon="11.5482843"><ele>211.0</ele><time>2026-04-18T15:54:59.188Z</time></trkpt><trkpt lat="43.898326" lon="11.5482471"><ele>211.0</ele><time>2026-04-18T15:55:00.188Z</time></trkpt><trkpt lat="43.898172" lon="11.5482118"><ele>210.0</ele><time>2026-04-18T15:55:01.188Z</time></trkpt><trkpt lat="43.8980364" lon="11.5481722"><ele>209.0</ele><time>2026-04-18T15:55:02.188Z</time></trkpt><trkpt lat="43.8979082" lon="11.5480927"><ele>208.0</ele><time>2026-04-18T15:55:03.188Z</time></trkpt><trkpt lat="43.8977865" lon="11.5479802"><ele>207.0</ele><time>2026-04-18T15:55:04.188Z</time></trkpt><trkpt lat="43.8976858" lon="11.5478418"><ele>203.33333333333331</ele><time>2026-04-18T15:55:05.188Z</time></trkpt><trkpt lat="43.8975986" lon="11.5476762"><ele>199.66666666666666</ele><time>2026-04-18T15:55:06.188Z</time></trkpt><trkpt lat="43.8975261" lon="11.5474897"><ele>196.0</ele><time>2026-04-18T15:55:07.188Z</time></trkpt><trkpt lat="43.8974558" lon="11.5472997"><ele>196.0</ele><time>2026-04-18T15:55:08.188Z</time></trkpt><trkpt lat="43.8973838" lon="11.5471019"><ele>196.0</ele><time>2026-04-18T15:55:09.188Z</time></trkpt><trkpt lat="43.897307" lon="11.5468898"><ele>196.0</ele><time>2026-04-18T15:55:10.188Z</time></trkpt><trkpt lat="43.8972298" lon="11.5466669"><ele>198.66666666666666</ele><time>2026-04-18T15:55:11.188Z</time></trkpt><trkpt lat="43.8971549" lon="11.5464412"><ele>201.33333333333331</ele><time>2026-04-18T15:55:12.187Z</time></trkpt><trkpt lat="43.8970811" lon="11.5462162"><ele>204.0</ele><time>2026-04-18T15:55:13.188Z</time></trkpt><trkpt lat="43.8970068" lon="11.5459926"><ele>207.0</ele><time>2026-04-18T15:55:14.188Z</time></trkpt><trkpt lat="43.8969377" lon="11.5457774"><ele>210.0</ele><time>2026-04-18T15:55:15.188Z</time></trkpt><trkpt lat="43.8968729" lon="11.5455706"><ele>213.0</ele><time>2026-04-18T15:55:16.188Z</time></trkpt><trkpt lat="43.8968109" lon="11.5453717"><ele>215.0</ele><time>2026-04-18T15:55:17.188Z</time></trkpt><trkpt lat="43.8967535" lon="11.5451838"><ele>217.0</ele><time>2026-04-18T15:55:18.188Z</time></trkpt><trkpt lat="43.8966968" lon="11.5449994"><ele>219.0</ele><time>2026-04-18T15:55:19.188Z</time></trkpt><trkpt lat="43.8966357" lon="11.5448157"><ele>221.0</ele><time>2026-04-18T15:55:20.188Z</time></trkpt><trkpt lat="43.8965661" lon="11.544647"><ele>218.0</ele><time>2026-04-18T15:55:21.188Z</time></trkpt><trkpt lat="43.8964821" lon="11.5445031"><ele>215.0</ele><time>2026-04-18T15:55:22.188Z</time></trkpt><trkpt lat="43.8963798" lon="11.5443959"><ele>212.0</ele><time>2026-04-18T15:55:23.187Z</time></trkpt><trkpt lat="43.8962623" lon="11.5443181"><ele>209.0</ele><time>2026-04-18T15:55:24.188Z</time></trkpt><trkpt lat="43.8961434" lon="11.5442515"><ele>209.0</ele><time>2026-04-18T15:55:25.188Z</time></trkpt><trkpt lat="43.8960256" lon="11.5441879"><ele>209.0</ele><time>2026-04-18T15:55:26.188Z</time></trkpt><trkpt lat="43.8959078" lon="11.5441257"><ele>209.0</ele><time>2026-04-18T15:55:27.188Z</time></trkpt><trkpt lat="43.8957919" lon="11.54405"><ele>209.0</ele><time>2026-04-18T15:55:28.188Z</time></trkpt><trkpt lat="43.8956776" lon="11.5439559"><ele>208.5</ele><time>2026-04-18T15:55:29.187Z</time></trkpt><trkpt lat="43.8955683" lon="11.5438454"><ele>208.0</ele><time>2026-04-18T15:55:30.187Z</time></trkpt><trkpt lat="43.8954745" lon="11.5437229"><ele>207.5</ele><time>2026-04-18T15:55:31.187Z</time></trkpt><trkpt lat="43.8953907" lon="11.5435858"><ele>207.0</ele><time>2026-04-18T15:55:32.188Z</time></trkpt><trkpt lat="43.8953164" lon="11.5434303"><ele>207.0</ele><time>2026-04-18T15:55:33.187Z</time></trkpt><trkpt lat="43.895249" lon="11.5432574"><ele>207.0</ele><time>2026-04-18T15:55:34.188Z</time></trkpt><trkpt lat="43.8951827" lon="11.5430734"><ele>207.0</ele><time>2026-04-18T15:55:35.187Z</time></trkpt><trkpt lat="43.8951135" lon="11.5428887"><ele>207.0</ele><time>2026-04-18T15:55:36.188Z</time></trkpt><trkpt lat="43.8950476" lon="11.5427069"><ele>203.5</ele><time>2026-04-18T15:55:37.188Z</time></trkpt><trkpt lat="43.8949921" lon="11.5425269"><ele>200.0</ele><time>2026-04-18T15:55:38.187Z</time></trkpt><trkpt lat="43.8949435" lon="11.5423418"><ele>196.5</ele><time>2026-04-18T15:55:39.188Z</time></trkpt><trkpt lat="43.8949101" lon="11.5421439"><ele>193.0</ele><time>2026-04-18T15:55:40.188Z</time></trkpt><trkpt lat="43.8948832" lon="11.5419399"><ele>193.0</ele><time>2026-04-18T15:55:41.188Z</time></trkpt><trkpt lat="43.8948609" lon="11.5417342"><ele>193.0</ele><time>2026-04-18T15:55:42.187Z</time></trkpt><trkpt lat="43.8948399" lon="11.5415237"><ele>193.0</ele><time>2026-04-18T15:55:43.188Z</time></trkpt><trkpt lat="43.8948201" lon="11.5413136"><ele>194.0</ele><time>2026-04-18T15:55:44.188Z</time></trkpt><trkpt lat="43.8947995" lon="11.5410956"><ele>195.0</ele><time>2026-04-18T15:55:45.188Z</time></trkpt><trkpt lat="43.8947758" lon="11.5408788"><ele>196.0</ele><time>2026-04-18T15:55:46.188Z</time></trkpt><trkpt lat="43.8947526" lon="11.54066"><ele>196.0</ele><time>2026-04-18T15:55:47.188Z</time></trkpt><trkpt lat="43.8947295" lon="11.5404397"><ele>196.0</ele><time>2026-04-18T15:55:48.187Z</time></trkpt><trkpt lat="43.8947061" lon="11.5402187"><ele>196.0</ele><time>2026-04-18T15:55:49.188Z</time></trkpt><trkpt lat="43.8946792" lon="11.5399948"><ele>196.33333333333331</ele><time>2026-04-18T15:55:50.187Z</time></trkpt><trkpt lat="43.8946466" lon="11.5397693"><ele>196.66666666666669</ele><time>2026-04-18T15:55:51.188Z</time></trkpt><trkpt lat="43.894611" lon="11.5395404"><ele>197.0</ele><time>2026-04-18T15:55:52.188Z</time></trkpt><trkpt lat="43.8945686" lon="11.5393107"><ele>196.66666666666669</ele><time>2026-04-18T15:55:53.188Z</time></trkpt><trkpt lat="43.8945212" lon="11.5390799"><ele>196.33333333333331</ele><time>2026-04-18T15:55:54.188Z</time></trkpt><trkpt lat="43.8944712" lon="11.5388517"><ele>196.0</ele><time>2026-04-18T15:55:55.188Z</time></trkpt><trkpt lat="43.8944248" lon="11.5386343"><ele>196.0</ele><time>2026-04-18T15:55:56.188Z</time></trkpt><trkpt lat="43.8943814" lon="11.5384255"><ele>196.0</ele><time>2026-04-18T15:55:57.188Z</time></trkpt><trkpt lat="43.8943385" lon="11.5382235"><ele>196.0</ele><time>2026-04-18T15:55:58.188Z</time></trkpt><trkpt lat="43.894295" lon="11.5380297"><ele>191.75</ele><time>2026-04-18T15:55:59.188Z</time></trkpt><trkpt lat="43.8942524" lon="11.5378409"><ele>187.5</ele><time>2026-04-18T15:56:00.188Z</time></trkpt><trkpt lat="43.89421" lon="11.5376492"><ele>183.25</ele><time>2026-04-18T15:56:01.188Z</time></trkpt><trkpt lat="43.8941691" lon="11.5374574"><ele>179.0</ele><time>2026-04-18T15:56:02.188Z</time></trkpt><trkpt lat="43.8941313" lon="11.5372723"><ele>179.0</ele><time>2026-04-18T15:56:03.188Z</time></trkpt><trkpt lat="43.8940948" lon="11.5370926"><ele>179.0</ele><time>2026-04-18T15:56:04.188Z</time></trkpt><trkpt lat="43.8940558" lon="11.5369236"><ele>179.0</ele><time>2026-04-18T15:56:05.187Z</time></trkpt><trkpt lat="43.8940056" lon="11.5367673"><ele>179.0</ele><time>2026-04-18T15:56:06.188Z</time></trkpt><trkpt lat="43.8939308" lon="11.5366351"><ele>179.25</ele><time>2026-04-18T15:56:07.188Z</time></trkpt><trkpt lat="43.893833" lon="11.5365238"><ele>179.5</ele><time>2026-04-18T15:56:08.188Z</time></trkpt><trkpt lat="43.8937136" lon="11.536438"><ele>179.75</ele><time>2026-04-18T15:56:09.187Z</time></trkpt><trkpt lat="43.8935912" lon="11.5363609"><ele>180.0</ele><time>2026-04-18T15:56:10.188Z</time></trkpt><trkpt lat="43.8934844" lon="11.5362807"><ele>178.75</ele><time>2026-04-18T15:56:11.188Z</time></trkpt><trkpt lat="43.8933846" lon="11.5361919"><ele>177.5</ele><time>2026-04-18T15:56:12.188Z</time></trkpt><trkpt lat="43.8933023" lon="11.5360831"><ele>176.25</ele><time>2026-04-18T15:56:13.188Z</time></trkpt><trkpt lat="43.8932398" lon="11.5359499"><ele>175.0</ele><time>2026-04-18T15:56:14.188Z</time></trkpt><trkpt lat="43.893183" lon="11.5358044"><ele>175.0</ele><time>2026-04-18T15:56:15.188Z</time></trkpt><trkpt lat="43.8931227" lon="11.5356521"><ele>175.0</ele><time>2026-04-18T15:56:16.188Z</time></trkpt><trkpt lat="43.8930636" lon="11.5354952"><ele>175.0</ele><time>2026-04-18T15:56:17.188Z</time></trkpt><trkpt lat="43.8930056" lon="11.5353445"><ele>175.0</ele><time>2026-04-18T15:56:18.188Z</time></trkpt><trkpt lat="43.8929538" lon="11.5351959"><ele>176.5</ele><time>2026-04-18T15:56:19.188Z</time></trkpt><trkpt lat="43.8929105" lon="11.5350349"><ele>178.0</ele><time>2026-04-18T15:56:20.188Z</time></trkpt><trkpt lat="43.892878" lon="11.5348594"><ele>179.5</ele><time>2026-04-18T15:56:21.188Z</time></trkpt><trkpt lat="43.8928601" lon="11.5346795"><ele>181.0</ele><time>2026-04-18T15:56:22.188Z</time></trkpt><trkpt lat="43.8928515" lon="11.5344943"><ele>182.5</ele><time>2026-04-18T15:56:23.188Z</time></trkpt><trkpt lat="43.8928433" lon="11.5343068"><ele>184.0</ele><time>2026-04-18T15:56:24.188Z</time></trkpt><trkpt lat="43.8928339" lon="11.5341149"><ele>185.5</ele><time>2026-04-18T15:56:25.188Z</time></trkpt><trkpt lat="43.8928235" lon="11.5339232"><ele>187.0</ele><time>2026-04-18T15:56:26.188Z</time></trkpt><trkpt lat="43.8928112" lon="11.5337323"><ele>187.5</ele><time>2026-04-18T15:56:27.188Z</time></trkpt><trkpt lat="43.8927803" lon="11.5335465"><ele>188.0</ele><time>2026-04-18T15:56:28.188Z</time></trkpt><trkpt lat="43.892732" lon="11.5333635"><ele>188.5</ele><time>2026-04-18T15:56:29.187Z</time></trkpt><trkpt lat="43.8926711" lon="11.5331851"><ele>189.0</ele><time>2026-04-18T15:56:30.188Z</time></trkpt><trkpt lat="43.8926022" lon="11.5330118"><ele>184.0</ele><time>2026-04-18T15:56:31.188Z</time></trkpt><trkpt lat="43.8925297" lon="11.5328372"><ele>179.0</ele><time>2026-04-18T15:56:32.188Z</time></trkpt><trkpt lat="43.8924605" lon="11.5326687"><ele>174.0</ele><time>2026-04-18T15:56:33.188Z</time></trkpt><trkpt lat="43.8923966" lon="11.5325117"><ele>169.0</ele><time>2026-04-18T15:56:34.188Z</time></trkpt><trkpt lat="43.8923369" lon="11.5323568"><ele>169.0</ele><time>2026-04-18T15:56:35.188Z</time></trkpt><trkpt lat="43.8922966" lon="11.5321943"><ele>169.0</ele><time>2026-04-18T15:56:36.188Z</time></trkpt><trkpt lat="43.8922819" lon="11.5320214"><ele>169.0</ele><time>2026-04-18T15:56:37.188Z</time></trkpt><trkpt lat="43.8922895" lon="11.5318438"><ele>169.0</ele><time>2026-04-18T15:56:38.188Z</time></trkpt><trkpt lat="43.8923085" lon="11.5316649"><ele>169.0</ele><time>2026-04-18T15:56:39.188Z</time></trkpt><trkpt lat="43.8923244" lon="11.5314919"><ele>169.0</ele><time>2026-04-18T15:56:40.188Z</time></trkpt><trkpt lat="43.8923391" lon="11.5313259"><ele>169.0</ele><time>2026-04-18T15:56:41.188Z</time></trkpt><trkpt lat="43.8923547" lon="11.531167"><ele>169.0</ele><time>2026-04-18T15:56:42.188Z</time></trkpt><trkpt lat="43.8923683" lon="11.531018"><ele>169.0</ele><time>2026-04-18T15:56:43.188Z</time></trkpt><trkpt lat="43.8923786" lon="11.5308626"><ele>169.0</ele><time>2026-04-18T15:56:44.187Z</time></trkpt><trkpt lat="43.8923847" lon="11.5306996"><ele>169.0</ele><time>2026-04-18T15:56:45.188Z</time></trkpt><trkpt lat="43.8923879" lon="11.5305313"><ele>169.0</ele><time>2026-04-18T15:56:46.188Z</time></trkpt><trkpt lat="43.8923908" lon="11.5303517"><ele>169.25</ele><time>2026-04-18T15:56:47.188Z</time></trkpt><trkpt lat="43.8923955" lon="11.5301542"><ele>169.5</ele><time>2026-04-18T15:56:48.188Z</time></trkpt><trkpt lat="43.8924005" lon="11.5299573"><ele>169.75</ele><time>2026-04-18T15:56:49.188Z</time></trkpt><trkpt lat="43.8924033" lon="11.529755"><ele>170.0</ele><time>2026-04-18T15:56:50.188Z</time></trkpt><trkpt lat="43.8924069" lon="11.529551"><ele>170.25</ele><time>2026-04-18T15:56:51.187Z</time></trkpt><trkpt lat="43.8924051" lon="11.529346"><ele>170.5</ele><time>2026-04-18T15:56:52.187Z</time></trkpt><trkpt lat="43.8923957" lon="11.5291415"><ele>170.75</ele><time>2026-04-18T15:56:53.187Z</time></trkpt><trkpt lat="43.8923858" lon="11.5289395"><ele>171.0</ele><time>2026-04-18T15:56:54.188Z</time></trkpt><trkpt lat="43.8923747" lon="11.5287435"><ele>171.75</ele><time>2026-04-18T15:56:55.188Z</time></trkpt><trkpt lat="43.892359" lon="11.5285545"><ele>172.5</ele><time>2026-04-18T15:56:56.188Z</time></trkpt><trkpt lat="43.8923399" lon="11.5283771"><ele>173.25</ele><time>2026-04-18T15:56:57.188Z</time></trkpt><trkpt lat="43.8923187" lon="11.5282019"><ele>174.0</ele><time>2026-04-18T15:56:58.188Z</time></trkpt><trkpt lat="43.8922937" lon="11.5280373"><ele>175.0</ele><time>2026-04-18T15:56:59.188Z</time></trkpt><trkpt lat="43.892265" lon="11.5278792"><ele>176.0</ele><time>2026-04-18T15:57:00.188Z</time></trkpt><trkpt lat="43.8922353" lon="11.5277218"><ele>177.0</ele><time>2026-04-18T15:57:01.188Z</time></trkpt><trkpt lat="43.8921993" lon="11.52756"><ele>178.0</ele><time>2026-04-18T15:57:02.188Z</time></trkpt><trkpt lat="43.8921616" lon="11.5273911"><ele>178.0</ele><time>2026-04-18T15:57:03.188Z</time></trkpt><trkpt lat="43.8921181" lon="11.5272198"><ele>178.0</ele><time>2026-04-18T15:57:04.188Z</time></trkpt><trkpt lat="43.8920776" lon="11.5270455"><ele>178.0</ele><time>2026-04-18T15:57:05.188Z</time></trkpt><trkpt lat="43.8920472" lon="11.5268684"><ele>178.0</ele><time>2026-04-18T15:57:06.188Z</time></trkpt><trkpt lat="43.8920195" lon="11.5266966"><ele>178.25</ele><time>2026-04-18T15:57:07.187Z</time></trkpt><trkpt lat="43.8919973" lon="11.5265206"><ele>178.5</ele><time>2026-04-18T15:57:08.188Z</time></trkpt><trkpt lat="43.8919805" lon="11.5263442"><ele>178.75</ele><time>2026-04-18T15:57:09.188Z</time></trkpt><trkpt lat="43.8919644" lon="11.526167"><ele>179.0</ele><time>2026-04-18T15:57:10.188Z</time></trkpt><trkpt lat="43.891948" lon="11.5259909"><ele>179.0</ele><time>2026-04-18T15:57:11.188Z</time></trkpt><trkpt lat="43.8919323" lon="11.5258145"><ele>179.0</ele><time>2026-04-18T15:57:12.188Z</time></trkpt><trkpt lat="43.8919167" lon="11.5256438"><ele>179.0</ele><time>2026-04-18T15:57:13.188Z</time></trkpt><trkpt lat="43.8919013" lon="11.5254766"><ele>179.0</ele><time>2026-04-18T15:57:14.187Z</time></trkpt><trkpt lat="43.8918884" lon="11.525314"><ele>179.39999999999998</ele><time>2026-04-18T15:57:15.188Z</time></trkpt><trkpt lat="43.8918777" lon="11.5251556"><ele>179.8</ele><time>2026-04-18T15:57:16.187Z</time></trkpt><trkpt lat="43.8918666" lon="11.5250029"><ele>180.2</ele><time>2026-04-18T15:57:17.188Z</time></trkpt><trkpt lat="43.8918522" lon="11.5248592"><ele>180.60000000000002</ele><time>2026-04-18T15:57:18.188Z</time></trkpt><trkpt lat="43.8918395" lon="11.5247138"><ele>181.0</ele><time>2026-04-18T15:57:19.188Z</time></trkpt><trkpt lat="43.8918256" lon="11.5245551"><ele>179.83333333333334</ele><time>2026-04-18T15:57:20.188Z</time></trkpt><trkpt lat="43.8918128" lon="11.5243995"><ele>178.66666666666669</ele><time>2026-04-18T15:57:21.188Z</time></trkpt><trkpt lat="43.8918011" lon="11.5242501"><ele>177.5</ele><time>2026-04-18T15:57:22.188Z</time></trkpt><trkpt lat="43.891792" lon="11.5241326"><ele>176.33333333333334</ele><time>2026-04-18T15:57:23.187Z</time></trkpt><trkpt lat="43.8917857" lon="11.5240448"><ele>175.16666666666666</ele><time>2026-04-18T15:57:24.188Z</time></trkpt><trkpt lat="43.891772" lon="11.5239585"><ele>174.0</ele><time>2026-04-18T15:57:26.188Z</time></trkpt><trkpt lat="43.8917442" lon="11.523829"><ele>171.79999999999998</ele><time>2026-04-18T15:57:28.188Z</time></trkpt><trkpt lat="43.8917397" lon="11.5237197"><ele>169.6</ele><time>2026-04-18T15:57:29.188Z</time></trkpt><trkpt lat="43.8917255" lon="11.5235884"><ele>167.4</ele><time>2026-04-18T15:57:30.188Z</time></trkpt><trkpt lat="43.8916879" lon="11.5234582"><ele>165.2</ele><time>2026-04-18T15:57:31.188Z</time></trkpt><trkpt lat="43.8916294" lon="11.5233381"><ele>163.0</ele><time>2026-04-18T15:57:32.187Z</time></trkpt><trkpt lat="43.8915594" lon="11.5232503"><ele>163.0</ele><time>2026-04-18T15:57:33.188Z</time></trkpt><trkpt lat="43.8914739" lon="11.5231878"><ele>163.0</ele><time>2026-04-18T15:57:34.188Z</time></trkpt><trkpt lat="43.8913882" lon="11.523155"><ele>163.0</ele><time>2026-04-18T15:57:35.187Z</time></trkpt><trkpt lat="43.8913094" lon="11.5231441"><ele>163.0</ele><time>2026-04-18T15:57:36.188Z</time></trkpt><trkpt lat="43.8912429" lon="11.5231497"><ele>163.0</ele><time>2026-04-18T15:57:37.187Z</time></trkpt><trkpt lat="43.8911571" lon="11.5231713"><ele>163.0</ele><time>2026-04-18T15:57:39.188Z</time></trkpt><trkpt lat="43.8910909" lon="11.5231892"><ele>163.0</ele><time>2026-04-18T15:57:42.188Z</time></trkpt><trkpt lat="43.8910286" lon="11.5232106"><ele>163.0</ele><time>2026-04-18T15:57:45.188Z</time></trkpt><trkpt lat="43.8909472" lon="11.5232277"><ele>163.0</ele><time>2026-04-18T15:57:47.188Z</time></trkpt><trkpt lat="43.8908462" lon="11.5232365"><ele>163.0</ele><time>2026-04-18T15:57:49.188Z</time></trkpt><trkpt lat="43.8907226" lon="11.523244"><ele>163.0</ele><time>2026-04-18T15:57:51.188Z</time></trkpt><trkpt lat="43.8906563" lon="11.5232509"><ele>163.0</ele><time>2026-04-18T15:57:52.188Z</time></trkpt><trkpt lat="43.8905878" lon="11.5232569"><ele>162.5</ele><time>2026-04-18T15:57:53.188Z</time></trkpt><trkpt lat="43.8905179" lon="11.5232665"><ele>162.0</ele><time>2026-04-18T15:57:54.188Z</time></trkpt><trkpt lat="43.8904445" lon="11.5232882"><ele>161.5</ele><time>2026-04-18T15:57:55.188Z</time></trkpt><trkpt lat="43.8903689" lon="11.5233226"><ele>161.0</ele><time>2026-04-18T15:57:56.187Z</time></trkpt><trkpt lat="43.8903015" lon="11.5233744"><ele>160.5</ele><time>2026-04-18T15:57:57.188Z</time></trkpt><trkpt lat="43.8902332" lon="11.5234431"><ele>160.0</ele><time>2026-04-18T15:57:58.188Z</time></trkpt><trkpt lat="43.8901693" lon="11.523526"><ele>160.0</ele><time>2026-04-18T15:57:59.188Z</time></trkpt><trkpt lat="43.8901112" lon="11.5236168"><ele>160.0</ele><time>2026-04-18T15:58:00.188Z</time></trkpt><trkpt lat="43.8900567" lon="11.5237104"><ele>160.0</ele><time>2026-04-18T15:58:01.188Z</time></trkpt><trkpt lat="43.8900019" lon="11.523803"><ele>160.0</ele><time>2026-04-18T15:58:02.187Z</time></trkpt><trkpt lat="43.8899413" lon="11.5238984"><ele>160.0</ele><time>2026-04-18T15:58:03.188Z</time></trkpt><trkpt lat="43.8898779" lon="11.5239953"><ele>160.0</ele><time>2026-04-18T15:58:04.188Z</time></trkpt><trkpt lat="43.8898097" lon="11.5240935"><ele>158.5</ele><time>2026-04-18T15:58:05.188Z</time></trkpt><trkpt lat="43.8897355" lon="11.524196"><ele>157.0</ele><time>2026-04-18T15:58:06.188Z</time></trkpt><trkpt lat="43.8896561" lon="11.5243052"><ele>155.5</ele><time>2026-04-18T15:58:07.188Z</time></trkpt><trkpt lat="43.8895616" lon="11.5244029"><ele>154.0</ele><time>2026-04-18T15:58:08.188Z</time></trkpt><trkpt lat="43.8894617" lon="11.5244955"><ele>154.0</ele><time>2026-04-18T15:58:09.188Z</time></trkpt><trkpt lat="43.8893603" lon="11.524585"><ele>154.0</ele><time>2026-04-18T15:58:10.188Z</time></trkpt><trkpt lat="43.8892594" lon="11.5246771"><ele>154.0</ele><time>2026-04-18T15:58:11.187Z</time></trkpt><trkpt lat="43.8891586" lon="11.5247621"><ele>154.0</ele><time>2026-04-18T15:58:12.188Z</time></trkpt><trkpt lat="43.8890561" lon="11.5248439"><ele>153.5</ele><time>2026-04-18T15:58:13.188Z</time></trkpt><trkpt lat="43.8889497" lon="11.5249169"><ele>153.0</ele><time>2026-04-18T15:58:14.188Z</time></trkpt><trkpt lat="43.8888406" lon="11.5249843"><ele>152.5</ele><time>2026-04-18T15:58:15.188Z</time></trkpt><trkpt lat="43.8887308" lon="11.5250436"><ele>152.0</ele><time>2026-04-18T15:58:16.187Z</time></trkpt><trkpt lat="43.8886226" lon="11.5250953"><ele>152.0</ele><time>2026-04-18T15:58:17.188Z</time></trkpt><trkpt lat="43.8885207" lon="11.5251485"><ele>152.0</ele><time>2026-04-18T15:58:18.188Z</time></trkpt><trkpt lat="43.8884209" lon="11.5252006"><ele>152.0</ele><time>2026-04-18T15:58:19.188Z</time></trkpt><trkpt lat="43.8883241" lon="11.525252"><ele>152.0</ele><time>2026-04-18T15:58:20.188Z</time></trkpt><trkpt lat="43.8882237" lon="11.5253015"><ele>152.0</ele><time>2026-04-18T15:58:21.188Z</time></trkpt><trkpt lat="43.888119" lon="11.5253445"><ele>151.25</ele><time>2026-04-18T15:58:22.188Z</time></trkpt><trkpt lat="43.8880117" lon="11.5253823"><ele>150.5</ele><time>2026-04-18T15:58:23.188Z</time></trkpt><trkpt lat="43.8879001" lon="11.5254091"><ele>149.75</ele><time>2026-04-18T15:58:24.188Z</time></trkpt><trkpt lat="43.8877851" lon="11.5254331"><ele>149.0</ele><time>2026-04-18T15:58:25.188Z</time></trkpt><trkpt lat="43.8876673" lon="11.5254576"><ele>151.25</ele><time>2026-04-18T15:58:26.188Z</time></trkpt><trkpt lat="43.8875505" lon="11.5254842"><ele>153.5</ele><time>2026-04-18T15:58:27.188Z</time></trkpt><trkpt lat="43.8874326" lon="11.5255091"><ele>155.75</ele><time>2026-04-18T15:58:28.188Z</time></trkpt><trkpt lat="43.8873136" lon="11.5255323"><ele>158.0</ele><time>2026-04-18T15:58:29.188Z</time></trkpt><trkpt lat="43.8871968" lon="11.5255535"><ele>158.0</ele><time>2026-04-18T15:58:30.188Z</time></trkpt><trkpt lat="43.8870759" lon="11.5255772"><ele>158.0</ele><time>2026-04-18T15:58:31.188Z</time></trkpt><trkpt lat="43.8869537" lon="11.5256088"><ele>158.0</ele><time>2026-04-18T15:58:32.188Z</time></trkpt><trkpt lat="43.8868303" lon="11.5256431"><ele>158.0</ele><time>2026-04-18T15:58:33.188Z</time></trkpt><trkpt lat="43.8867005" lon="11.525683"><ele>158.25</ele><time>2026-04-18T15:58:34.188Z</time></trkpt><trkpt lat="43.8865684" lon="11.5257255"><ele>158.5</ele><time>2026-04-18T15:58:35.187Z</time></trkpt><trkpt lat="43.8864327" lon="11.5257725"><ele>158.75</ele><time>2026-04-18T15:58:36.188Z</time></trkpt><trkpt lat="43.8862948" lon="11.5258233"><ele>159.0</ele><time>2026-04-18T15:58:37.188Z</time></trkpt><trkpt lat="43.8861527" lon="11.5258786"><ele>159.0</ele><time>2026-04-18T15:58:38.188Z</time></trkpt><trkpt lat="43.8860065" lon="11.5259355"><ele>159.0</ele><time>2026-04-18T15:58:39.188Z</time></trkpt><trkpt lat="43.8858614" lon="11.5259915"><ele>159.0</ele><time>2026-04-18T15:58:40.187Z</time></trkpt><trkpt lat="43.8857149" lon="11.5260479"><ele>156.33333333333334</ele><time>2026-04-18T15:58:41.188Z</time></trkpt><trkpt lat="43.8855687" lon="11.5261059"><ele>153.66666666666669</ele><time>2026-04-18T15:58:42.187Z</time></trkpt><trkpt lat="43.8854232" lon="11.5261651"><ele>151.0</ele><time>2026-04-18T15:58:43.188Z</time></trkpt><trkpt lat="43.8852769" lon="11.5262262"><ele>154.33333333333334</ele><time>2026-04-18T15:58:44.188Z</time></trkpt><trkpt lat="43.885132" lon="11.5262855"><ele>157.66666666666666</ele><time>2026-04-18T15:58:45.188Z</time></trkpt><trkpt lat="43.8849851" lon="11.5263477"><ele>161.0</ele><time>2026-04-18T15:58:46.188Z</time></trkpt><trkpt lat="43.8848408" lon="11.526413"><ele>161.0</ele><time>2026-04-18T15:58:47.188Z</time></trkpt><trkpt lat="43.8846978" lon="11.5264821"><ele>161.0</ele><time>2026-04-18T15:58:48.188Z</time></trkpt><trkpt lat="43.8845578" lon="11.5265675"><ele>161.0</ele><time>2026-04-18T15:58:49.187Z</time></trkpt><trkpt lat="43.8844249" lon="11.5266637"><ele>161.0</ele><time>2026-04-18T15:58:50.187Z</time></trkpt><trkpt lat="43.8842968" lon="11.5267623"><ele>161.0</ele><time>2026-04-18T15:58:51.188Z</time></trkpt><trkpt lat="43.8841756" lon="11.5268755"><ele>161.0</ele><time>2026-04-18T15:58:52.188Z</time></trkpt><trkpt lat="43.8840594" lon="11.5269989"><ele>161.0</ele><time>2026-04-18T15:58:53.188Z</time></trkpt><trkpt lat="43.8839512" lon="11.5271357"><ele>161.25</ele><time>2026-04-18T15:58:54.188Z</time></trkpt><trkpt lat="43.8838466" lon="11.5272824"><ele>161.5</ele><time>2026-04-18T15:58:55.188Z</time></trkpt><trkpt lat="43.8837556" lon="11.5274251"><ele>161.75</ele><time>2026-04-18T15:58:56.188Z</time></trkpt><trkpt lat="43.8836762" lon="11.5275506"><ele>162.0</ele><time>2026-04-18T15:58:57.188Z</time></trkpt><trkpt lat="43.883602" lon="11.5276709"><ele>162.0</ele><time>2026-04-18T15:58:58.188Z</time></trkpt><trkpt lat="43.8835362" lon="11.5277766"><ele>162.0</ele><time>2026-04-18T15:58:59.188Z</time></trkpt><trkpt lat="43.8834773" lon="11.5278754"><ele>162.0</ele><time>2026-04-18T15:59:00.188Z</time></trkpt><trkpt lat="43.8834235" lon="11.5279625"><ele>162.0</ele><time>2026-04-18T15:59:01.188Z</time></trkpt><trkpt lat="43.883373" lon="11.5280442"><ele>162.0</ele><time>2026-04-18T15:59:02.187Z</time></trkpt><trkpt lat="43.8833203" lon="11.5281289"><ele>162.0</ele><time>2026-04-18T15:59:03.188Z</time></trkpt><trkpt lat="43.8832625" lon="11.5282124"><ele>161.4</ele><time>2026-04-18T15:59:04.188Z</time></trkpt><trkpt lat="43.8831986" lon="11.5282994"><ele>160.79999999999998</ele><time>2026-04-18T15:59:05.188Z</time></trkpt><trkpt lat="43.883126" lon="11.528381"><ele>160.2</ele><time>2026-04-18T15:59:06.188Z</time></trkpt><trkpt lat="43.8830481" lon="11.5284595"><ele>159.6</ele><time>2026-04-18T15:59:07.188Z</time></trkpt><trkpt lat="43.8829562" lon="11.5285356"><ele>159.0</ele><time>2026-04-18T15:59:08.188Z</time></trkpt><trkpt lat="43.882858" lon="11.5286078"><ele>159.0</ele><time>2026-04-18T15:59:09.188Z</time></trkpt><trkpt lat="43.882751" lon="11.5286732"><ele>159.0</ele><time>2026-04-18T15:59:10.187Z</time></trkpt><trkpt lat="43.8826389" lon="11.5287412"><ele>159.0</ele><time>2026-04-18T15:59:11.188Z</time></trkpt><trkpt lat="43.8825187" lon="11.5288159"><ele>159.0</ele><time>2026-04-18T15:59:12.188Z</time></trkpt><trkpt lat="43.8823939" lon="11.5288867"><ele>160.25</ele><time>2026-04-18T15:59:13.187Z</time></trkpt><trkpt lat="43.8822658" lon="11.5289566"><ele>161.5</ele><time>2026-04-18T15:59:14.188Z</time></trkpt><trkpt lat="43.882132" lon="11.5290253"><ele>162.75</ele><time>2026-04-18T15:59:15.188Z</time></trkpt><trkpt lat="43.8819955" lon="11.5290941"><ele>164.0</ele><time>2026-04-18T15:59:16.188Z</time></trkpt><trkpt lat="43.881861" lon="11.5291645"><ele>162.75</ele><time>2026-04-18T15:59:17.188Z</time></trkpt><trkpt lat="43.8817234" lon="11.5292343"><ele>161.5</ele><time>2026-04-18T15:59:18.188Z</time></trkpt><trkpt lat="43.8815839" lon="11.5293044"><ele>160.25</ele><time>2026-04-18T15:59:19.187Z</time></trkpt><trkpt lat="43.8814471" lon="11.5293695"><ele>159.0</ele><time>2026-04-18T15:59:20.188Z</time></trkpt><trkpt lat="43.8813123" lon="11.5294298"><ele>159.0</ele><time>2026-04-18T15:59:21.188Z</time></trkpt><trkpt lat="43.8811794" lon="11.5294867"><ele>159.0</ele><time>2026-04-18T15:59:22.188Z</time></trkpt><trkpt lat="43.8810469" lon="11.5295312"><ele>159.0</ele><time>2026-04-18T15:59:23.188Z</time></trkpt><trkpt lat="43.8809135" lon="11.5295558"><ele>159.0</ele><time>2026-04-18T15:59:24.188Z</time></trkpt><trkpt lat="43.8807752" lon="11.5295707"><ele>158.25</ele><time>2026-04-18T15:59:25.188Z</time></trkpt><trkpt lat="43.8806336" lon="11.5295793"><ele>157.5</ele><time>2026-04-18T15:59:26.188Z</time></trkpt><trkpt lat="43.8804877" lon="11.5295824"><ele>156.75</ele><time>2026-04-18T15:59:27.188Z</time></trkpt><trkpt lat="43.8803385" lon="11.5295591"><ele>156.0</ele><time>2026-04-18T15:59:28.188Z</time></trkpt><trkpt lat="43.8801971" lon="11.5294987"><ele>155.75</ele><time>2026-04-18T15:59:29.188Z</time></trkpt><trkpt lat="43.8800611" lon="11.5294194"><ele>155.5</ele><time>2026-04-18T15:59:30.188Z</time></trkpt><trkpt lat="43.8799232" lon="11.5293365"><ele>155.25</ele><time>2026-04-18T15:59:31.188Z</time></trkpt><trkpt lat="43.8797878" lon="11.5292622"><ele>155.0</ele><time>2026-04-18T15:59:32.188Z</time></trkpt><trkpt lat="43.8796529" lon="11.5292071"><ele>155.0</ele><time>2026-04-18T15:59:33.188Z</time></trkpt><trkpt lat="43.8795193" lon="11.529192"><ele>155.0</ele><time>2026-04-18T15:59:34.187Z</time></trkpt><trkpt lat="43.87939" lon="11.5292218"><ele>155.0</ele><time>2026-04-18T15:59:35.188Z</time></trkpt><trkpt lat="43.8792565" lon="11.5292832"><ele>155.0</ele><time>2026-04-18T15:59:36.188Z</time></trkpt><trkpt lat="43.8791169" lon="11.5293625"><ele>154.75</ele><time>2026-04-18T15:59:37.187Z</time></trkpt><trkpt lat="43.878977" lon="11.5294348"><ele>154.5</ele><time>2026-04-18T15:59:38.188Z</time></trkpt><trkpt lat="43.8788372" lon="11.5294917"><ele>154.25</ele><time>2026-04-18T15:59:39.188Z</time></trkpt><trkpt lat="43.8787024" lon="11.5295044"><ele>154.0</ele><time>2026-04-18T15:59:40.188Z</time></trkpt><trkpt lat="43.8785694" lon="11.5294717"><ele>153.75</ele><time>2026-04-18T15:59:41.188Z</time></trkpt><trkpt lat="43.8784335" lon="11.5294214"><ele>153.5</ele><time>2026-04-18T15:59:42.188Z</time></trkpt><trkpt lat="43.8782962" lon="11.5293758"><ele>153.25</ele><time>2026-04-18T15:59:43.188Z</time></trkpt><trkpt lat="43.8781624" lon="11.5293488"><ele>153.0</ele><time>2026-04-18T15:59:44.188Z</time></trkpt><trkpt lat="43.8780228" lon="11.5293512"><ele>153.0</ele><time>2026-04-18T15:59:45.188Z</time></trkpt><trkpt lat="43.8778806" lon="11.5293705"><ele>153.0</ele><time>2026-04-18T15:59:46.188Z</time></trkpt><trkpt lat="43.877733" lon="11.5293889"><ele>153.0</ele><time>2026-04-18T15:59:47.187Z</time></trkpt><trkpt lat="43.8775829" lon="11.5294042"><ele>153.0</ele><time>2026-04-18T15:59:48.188Z</time></trkpt><trkpt lat="43.8774327" lon="11.5294242"><ele>152.25</ele><time>2026-04-18T15:59:49.188Z</time></trkpt><trkpt lat="43.8772886" lon="11.5294469"><ele>151.5</ele><time>2026-04-18T15:59:50.188Z</time></trkpt><trkpt lat="43.8771528" lon="11.529467"><ele>150.75</ele><time>2026-04-18T15:59:51.187Z</time></trkpt><trkpt lat="43.8770228" lon="11.5294858"><ele>150.0</ele><time>2026-04-18T15:59:52.188Z</time></trkpt><trkpt lat="43.8768936" lon="11.5295096"><ele>150.0</ele><time>2026-04-18T15:59:53.188Z</time></trkpt><trkpt lat="43.8767701" lon="11.5295335"><ele>150.0</ele><time>2026-04-18T15:59:54.188Z</time></trkpt><trkpt lat="43.8766494" lon="11.529563"><ele>150.0</ele><time>2026-04-18T15:59:55.188Z</time></trkpt><trkpt lat="43.8765295" lon="11.5295993"><ele>150.0</ele><time>2026-04-18T15:59:56.187Z</time></trkpt><trkpt lat="43.8764048" lon="11.5296407"><ele>150.5</ele><time>2026-04-18T15:59:57.187Z</time></trkpt><trkpt lat="43.8762792" lon="11.5296829"><ele>151.0</ele><time>2026-04-18T15:59:58.187Z</time></trkpt><trkpt lat="43.8761516" lon="11.5297265"><ele>151.5</ele><time>2026-04-18T15:59:59.188Z</time></trkpt><trkpt lat="43.8760216" lon="11.5297694"><ele>152.0</ele><time>2026-04-18T16:00:00.188Z</time></trkpt><trkpt lat="43.875888" lon="11.529814"><ele>152.0</ele><time>2026-04-18T16:00:01.188Z</time></trkpt><trkpt lat="43.8757525" lon="11.5298581"><ele>152.0</ele><time>2026-04-18T16:00:02.187Z</time></trkpt><trkpt lat="43.8756163" lon="11.5299013"><ele>152.0</ele><time>2026-04-18T16:00:03.188Z</time></trkpt><trkpt lat="43.8754781" lon="11.5299341"><ele>152.0</ele><time>2026-04-18T16:00:04.188Z</time></trkpt><trkpt lat="43.8753388" lon="11.5299471"><ele>152.0</ele><time>2026-04-18T16:00:05.188Z</time></trkpt><trkpt lat="43.8752015" lon="11.5299447"><ele>152.0</ele><time>2026-04-18T16:00:06.188Z</time></trkpt><trkpt lat="43.8750637" lon="11.529931"><ele>152.0</ele><time>2026-04-18T16:00:07.188Z</time></trkpt><trkpt lat="43.8749303" lon="11.5299033"><ele>152.0</ele><time>2026-04-18T16:00:08.188Z</time></trkpt><trkpt lat="43.8748008" lon="11.5298644"><ele>152.0</ele><time>2026-04-18T16:00:09.188Z</time></trkpt><trkpt lat="43.8746745" lon="11.5298194"><ele>152.0</ele><time>2026-04-18T16:00:10.188Z</time></trkpt><trkpt lat="43.8745515" lon="11.5297655"><ele>152.0</ele><time>2026-04-18T16:00:11.188Z</time></trkpt><trkpt lat="43.874434" lon="11.5296986"><ele>152.0</ele><time>2026-04-18T16:00:12.188Z</time></trkpt><trkpt lat="43.8743208" lon="11.5296233"><ele>150.0</ele><time>2026-04-18T16:00:13.187Z</time></trkpt><trkpt lat="43.8742072" lon="11.5295474"><ele>148.0</ele><time>2026-04-18T16:00:14.188Z</time></trkpt><trkpt lat="43.8740891" lon="11.5294691"><ele>146.0</ele><time>2026-04-18T16:00:15.188Z</time></trkpt><trkpt lat="43.8739716" lon="11.529388"><ele>144.0</ele><time>2026-04-18T16:00:16.188Z</time></trkpt><trkpt lat="43.8738549" lon="11.5293094"><ele>144.0</ele><time>2026-04-18T16:00:17.188Z</time></trkpt><trkpt lat="43.8737417" lon="11.529235"><ele>144.0</ele><time>2026-04-18T16:00:18.188Z</time></trkpt><trkpt lat="43.8736311" lon="11.5291709"><ele>144.0</ele><time>2026-04-18T16:00:19.188Z</time></trkpt><trkpt lat="43.8735151" lon="11.5291307"><ele>144.0</ele><time>2026-04-18T16:00:20.188Z</time></trkpt><trkpt lat="43.8733952" lon="11.5291203"><ele>145.0</ele><time>2026-04-18T16:00:21.188Z</time></trkpt><trkpt lat="43.8732604" lon="11.5291448"><ele>146.0</ele><time>2026-04-18T16:00:22.188Z</time></trkpt><trkpt lat="43.8730947" lon="11.5292115"><ele>147.0</ele><time>2026-04-18T16:00:23.187Z</time></trkpt><trkpt lat="43.8729064" lon="11.5292939"><ele>147.0</ele><time>2026-04-18T16:00:24.188Z</time></trkpt><trkpt lat="43.8726878" lon="11.5293733"><ele>147.0</ele><time>2026-04-18T16:00:25.188Z</time></trkpt><trkpt lat="43.8724709" lon="11.5294419"><ele>147.0</ele><time>2026-04-18T16:00:26.188Z</time></trkpt><trkpt lat="43.8722631" lon="11.529509"><ele>148.0</ele><time>2026-04-18T16:00:27.187Z</time></trkpt><trkpt lat="43.8720729" lon="11.5295751"><ele>149.0</ele><time>2026-04-18T16:00:28.187Z</time></trkpt><trkpt lat="43.8718932" lon="11.5296408"><ele>150.0</ele><time>2026-04-18T16:00:29.188Z</time></trkpt><trkpt lat="43.8717181" lon="11.5297084"><ele>150.0</ele><time>2026-04-18T16:00:30.188Z</time></trkpt><trkpt lat="43.8715509" lon="11.5297717"><ele>150.0</ele><time>2026-04-18T16:00:31.187Z</time></trkpt><trkpt lat="43.8713928" lon="11.5298311"><ele>150.0</ele><time>2026-04-18T16:00:32.187Z</time></trkpt><trkpt lat="43.8712357" lon="11.5298914"><ele>150.0</ele><time>2026-04-18T16:00:33.188Z</time></trkpt><trkpt lat="43.8710812" lon="11.5299511"><ele>150.0</ele><time>2026-04-18T16:00:34.188Z</time></trkpt><trkpt lat="43.8709296" lon="11.5300081"><ele>150.0</ele><time>2026-04-18T16:00:35.187Z</time></trkpt><trkpt lat="43.8707855" lon="11.5300625"><ele>149.0</ele><time>2026-04-18T16:00:36.188Z</time></trkpt><trkpt lat="43.870651" lon="11.5301163"><ele>148.0</ele><time>2026-04-18T16:00:37.188Z</time></trkpt><trkpt lat="43.8705229" lon="11.5301622"><ele>147.0</ele><time>2026-04-18T16:00:38.188Z</time></trkpt><trkpt lat="43.8703988" lon="11.5301866"><ele>146.0</ele><time>2026-04-18T16:00:39.188Z</time></trkpt><trkpt lat="43.8702848" lon="11.5301897"><ele>146.0</ele><time>2026-04-18T16:00:40.188Z</time></trkpt><trkpt lat="43.8701703" lon="11.5301738"><ele>146.0</ele><time>2026-04-18T16:00:41.188Z</time></trkpt><trkpt lat="43.8700571" lon="11.5301365"><ele>146.0</ele><time>2026-04-18T16:00:42.188Z</time></trkpt><trkpt lat="43.8699523" lon="11.5300774"><ele>146.0</ele><time>2026-04-18T16:00:43.187Z</time></trkpt><trkpt lat="43.8698529" lon="11.5300004"><ele>146.4</ele><time>2026-04-18T16:00:44.188Z</time></trkpt><trkpt lat="43.8697562" lon="11.5299215"><ele>146.8</ele><time>2026-04-18T16:00:45.188Z</time></trkpt><trkpt lat="43.8696585" lon="11.5298431"><ele>147.20000000000002</ele><time>2026-04-18T16:00:46.188Z</time></trkpt><trkpt lat="43.8695644" lon="11.5297693"><ele>147.6</ele><time>2026-04-18T16:00:47.188Z</time></trkpt><trkpt lat="43.8694636" lon="11.5297096"><ele>148.0</ele><time>2026-04-18T16:00:48.188Z</time></trkpt><trkpt lat="43.8693489" lon="11.529682"><ele>149.0</ele><time>2026-04-18T16:00:49.188Z</time></trkpt><trkpt lat="43.8692248" lon="11.5296985"><ele>150.0</ele><time>2026-04-18T16:00:50.188Z</time></trkpt><trkpt lat="43.8690954" lon="11.5297369"><ele>151.0</ele><time>2026-04-18T16:00:51.188Z</time></trkpt><trkpt lat="43.8689668" lon="11.5297843"><ele>152.0</ele><time>2026-04-18T16:00:52.188Z</time></trkpt><trkpt lat="43.8688418" lon="11.5298328"><ele>152.0</ele><time>2026-04-18T16:00:53.188Z</time></trkpt><trkpt lat="43.8687326" lon="11.5298714"><ele>152.0</ele><time>2026-04-18T16:00:54.188Z</time></trkpt><trkpt lat="43.8686356" lon="11.5299045"><ele>152.0</ele><time>2026-04-18T16:00:55.188Z</time></trkpt><trkpt lat="43.8685408" lon="11.5299397"><ele>152.0</ele><time>2026-04-18T16:00:56.188Z</time></trkpt><trkpt lat="43.8684491" lon="11.5299733"><ele>152.0</ele><time>2026-04-18T16:00:57.188Z</time></trkpt><trkpt lat="43.8683466" lon="11.5299975"><ele>150.79999999999998</ele><time>2026-04-18T16:00:58.187Z</time></trkpt><trkpt lat="43.8682428" lon="11.5300097"><ele>149.6</ele><time>2026-04-18T16:00:59.188Z</time></trkpt><trkpt lat="43.8681419" lon="11.5300094"><ele>148.39999999999998</ele><time>2026-04-18T16:01:00.187Z</time></trkpt><trkpt lat="43.8680402" lon="11.5300019"><ele>147.2</ele><time>2026-04-18T16:01:01.188Z</time></trkpt><trkpt lat="43.8679304" lon="11.5299896"><ele>146.0</ele><time>2026-04-18T16:01:02.188Z</time></trkpt><trkpt lat="43.8678107" lon="11.5299843"><ele>146.0</ele><time>2026-04-18T16:01:03.188Z</time></trkpt><trkpt lat="43.8676803" lon="11.5299762"><ele>146.0</ele><time>2026-04-18T16:01:04.188Z</time></trkpt><trkpt lat="43.8675505" lon="11.529968"><ele>146.0</ele><time>2026-04-18T16:01:05.187Z</time></trkpt><trkpt lat="43.8674281" lon="11.5299594"><ele>146.0</ele><time>2026-04-18T16:01:06.188Z</time></trkpt><trkpt lat="43.8673126" lon="11.5299508"><ele>145.0</ele><time>2026-04-18T16:01:07.188Z</time></trkpt><trkpt lat="43.8672015" lon="11.529943"><ele>144.0</ele><time>2026-04-18T16:01:08.188Z</time></trkpt><trkpt lat="43.8670916" lon="11.5299388"><ele>143.0</ele><time>2026-04-18T16:01:09.187Z</time></trkpt><trkpt lat="43.8669762" lon="11.5299349"><ele>142.0</ele><time>2026-04-18T16:01:10.188Z</time></trkpt><trkpt lat="43.8668569" lon="11.5299373"><ele>142.0</ele><time>2026-04-18T16:01:11.188Z</time></trkpt><trkpt lat="43.8667367" lon="11.529949"><ele>142.0</ele><time>2026-04-18T16:01:12.188Z</time></trkpt><trkpt lat="43.8666157" lon="11.5299725"><ele>142.0</ele><time>2026-04-18T16:01:13.188Z</time></trkpt><trkpt lat="43.8664997" lon="11.5300032"><ele>142.0</ele><time>2026-04-18T16:01:14.188Z</time></trkpt><trkpt lat="43.8663825" lon="11.5300416"><ele>142.0</ele><time>2026-04-18T16:01:15.188Z</time></trkpt><trkpt lat="43.8662661" lon="11.5300795"><ele>142.0</ele><time>2026-04-18T16:01:16.188Z</time></trkpt><trkpt lat="43.8661484" lon="11.530122"><ele>142.0</ele><time>2026-04-18T16:01:17.188Z</time></trkpt><trkpt lat="43.8660307" lon="11.5301676"><ele>142.0</ele><time>2026-04-18T16:01:18.188Z</time></trkpt><trkpt lat="43.8659158" lon="11.5302157"><ele>141.75</ele><time>2026-04-18T16:01:19.187Z</time></trkpt><trkpt lat="43.8658018" lon="11.5302684"><ele>141.5</ele><time>2026-04-18T16:01:20.188Z</time></trkpt><trkpt lat="43.8656885" lon="11.5303183"><ele>141.25</ele><time>2026-04-18T16:01:21.188Z</time></trkpt><trkpt lat="43.8655778" lon="11.530369"><ele>141.0</ele><time>2026-04-18T16:01:22.188Z</time></trkpt><trkpt lat="43.8654707" lon="11.5304262"><ele>141.0</ele><time>2026-04-18T16:01:23.188Z</time></trkpt><trkpt lat="43.8653704" lon="11.5304933"><ele>141.0</ele><time>2026-04-18T16:01:24.187Z</time></trkpt><trkpt lat="43.8652774" lon="11.5305605"><ele>141.0</ele><time>2026-04-18T16:01:25.187Z</time></trkpt><trkpt lat="43.8651831" lon="11.5306295"><ele>141.0</ele><time>2026-04-18T16:01:26.188Z</time></trkpt><trkpt lat="43.8650859" lon="11.530697"><ele>141.0</ele><time>2026-04-18T16:01:27.188Z</time></trkpt><trkpt lat="43.8649822" lon="11.5307499"><ele>141.0</ele><time>2026-04-18T16:01:28.187Z</time></trkpt><trkpt lat="43.86487" lon="11.5307797"><ele>141.0</ele><time>2026-04-18T16:01:29.188Z</time></trkpt><trkpt lat="43.8647519" lon="11.5307864"><ele>141.0</ele><time>2026-04-18T16:01:30.188Z</time></trkpt><trkpt lat="43.8646287" lon="11.5307864"><ele>141.0</ele><time>2026-04-18T16:01:31.188Z</time></trkpt><trkpt lat="43.8645074" lon="11.530788"><ele>141.0</ele><time>2026-04-18T16:01:32.188Z</time></trkpt><trkpt lat="43.8643876" lon="11.5307894"><ele>141.0</ele><time>2026-04-18T16:01:33.188Z</time></trkpt><trkpt lat="43.8642694" lon="11.5307879"><ele>141.0</ele><time>2026-04-18T16:01:34.188Z</time></trkpt><trkpt lat="43.8641512" lon="11.5307944"><ele>141.0</ele><time>2026-04-18T16:01:35.188Z</time></trkpt><trkpt lat="43.8640353" lon="11.5308143"><ele>140.75</ele><time>2026-04-18T16:01:36.187Z</time></trkpt><trkpt lat="43.8639199" lon="11.5308537"><ele>140.5</ele><time>2026-04-18T16:01:37.188Z</time></trkpt><trkpt lat="43.8638039" lon="11.5308981"><ele>140.25</ele><time>2026-04-18T16:01:38.188Z</time></trkpt><trkpt lat="43.8636855" lon="11.530944"><ele>140.0</ele><time>2026-04-18T16:01:39.188Z</time></trkpt><trkpt lat="43.8635671" lon="11.5309902"><ele>140.0</ele><time>2026-04-18T16:01:40.187Z</time></trkpt><trkpt lat="43.863455" lon="11.5310312"><ele>140.0</ele><time>2026-04-18T16:01:41.188Z</time></trkpt><trkpt lat="43.8633469" lon="11.5310587"><ele>140.0</ele><time>2026-04-18T16:01:42.188Z</time></trkpt><trkpt lat="43.8632399" lon="11.5310816"><ele>140.0</ele><time>2026-04-18T16:01:43.188Z</time></trkpt><trkpt lat="43.8631337" lon="11.5310978"><ele>140.0</ele><time>2026-04-18T16:01:44.188Z</time></trkpt><trkpt lat="43.8630315" lon="11.5311118"><ele>140.0</ele><time>2026-04-18T16:01:45.188Z</time></trkpt><trkpt lat="43.8629253" lon="11.5311119"><ele>140.0</ele><time>2026-04-18T16:01:46.187Z</time></trkpt><trkpt lat="43.8628202" lon="11.5311011"><ele>140.0</ele><time>2026-04-18T16:01:47.187Z</time></trkpt><trkpt lat="43.8627138" lon="11.5310909"><ele>140.0</ele><time>2026-04-18T16:01:48.188Z</time></trkpt><trkpt lat="43.8626072" lon="11.5310781"><ele>140.0</ele><time>2026-04-18T16:01:49.187Z</time></trkpt><trkpt lat="43.8625033" lon="11.5310616"><ele>140.2</ele><time>2026-04-18T16:01:50.188Z</time></trkpt><trkpt lat="43.8623983" lon="11.5310409"><ele>140.4</ele><time>2026-04-18T16:01:51.188Z</time></trkpt><trkpt lat="43.8622901" lon="11.531012"><ele>140.6</ele><time>2026-04-18T16:01:52.188Z</time></trkpt><trkpt lat="43.8621889" lon="11.5309736"><ele>140.8</ele><time>2026-04-18T16:01:53.188Z</time></trkpt><trkpt lat="43.8620943" lon="11.5309345"><ele>141.0</ele><time>2026-04-18T16:01:54.188Z</time></trkpt><trkpt lat="43.8620044" lon="11.5308915"><ele>141.0</ele><time>2026-04-18T16:01:55.188Z</time></trkpt><trkpt lat="43.8619112" lon="11.5308424"><ele>141.0</ele><time>2026-04-18T16:01:56.188Z</time></trkpt><trkpt lat="43.8618199" lon="11.5307689"><ele>141.0</ele><time>2026-04-18T16:01:57.188Z</time></trkpt><trkpt lat="43.8617346" lon="11.5306639"><ele>141.0</ele><time>2026-04-18T16:01:58.188Z</time></trkpt><trkpt lat="43.8616464" lon="11.5305429"><ele>141.0</ele><time>2026-04-18T16:01:59.188Z</time></trkpt><trkpt lat="43.8615557" lon="11.5304167"><ele>140.75</ele><time>2026-04-18T16:02:00.188Z</time></trkpt><trkpt lat="43.8614616" lon="11.5302961"><ele>140.5</ele><time>2026-04-18T16:02:01.188Z</time></trkpt><trkpt lat="43.8613647" lon="11.5301719"><ele>140.25</ele><time>2026-04-18T16:02:02.188Z</time></trkpt><trkpt lat="43.8612684" lon="11.5300481"><ele>140.0</ele><time>2026-04-18T16:02:03.188Z</time></trkpt><trkpt lat="43.861174" lon="11.5299197"><ele>140.0</ele><time>2026-04-18T16:02:04.188Z</time></trkpt><trkpt lat="43.8610815" lon="11.5297967"><ele>140.0</ele><time>2026-04-18T16:02:05.188Z</time></trkpt><trkpt lat="43.86098" lon="11.5296788"><ele>140.0</ele><time>2026-04-18T16:02:06.188Z</time></trkpt><trkpt lat="43.8608728" lon="11.5295678"><ele>140.0</ele><time>2026-04-18T16:02:07.187Z</time></trkpt><trkpt lat="43.8607586" lon="11.5294608"><ele>139.5</ele><time>2026-04-18T16:02:08.188Z</time></trkpt><trkpt lat="43.8606389" lon="11.5293587"><ele>139.0</ele><time>2026-04-18T16:02:09.188Z</time></trkpt><trkpt lat="43.8605205" lon="11.5292568"><ele>138.5</ele><time>2026-04-18T16:02:10.187Z</time></trkpt><trkpt lat="43.8604128" lon="11.5291614"><ele>138.0</ele><time>2026-04-18T16:02:11.188Z</time></trkpt><trkpt lat="43.8603093" lon="11.5290747"><ele>138.0</ele><time>2026-04-18T16:02:12.188Z</time></trkpt><trkpt lat="43.8602147" lon="11.5289922"><ele>138.0</ele><time>2026-04-18T16:02:13.188Z</time></trkpt><trkpt lat="43.8601284" lon="11.528914"><ele>138.0</ele><time>2026-04-18T16:02:14.188Z</time></trkpt><trkpt lat="43.8600532" lon="11.528847"><ele>138.0</ele><time>2026-04-18T16:02:15.188Z</time></trkpt><trkpt lat="43.8599835" lon="11.5287838"><ele>138.0</ele><time>2026-04-18T16:02:16.188Z</time></trkpt><trkpt lat="43.8599159" lon="11.5287264"><ele>138.16666666666666</ele><time>2026-04-18T16:02:17.188Z</time></trkpt><trkpt lat="43.8598551" lon="11.528675"><ele>138.33333333333334</ele><time>2026-04-18T16:02:18.188Z</time></trkpt><trkpt lat="43.8597931" lon="11.5286174"><ele>138.5</ele><time>2026-04-18T16:02:19.188Z</time></trkpt><trkpt lat="43.8597322" lon="11.5285572"><ele>138.66666666666669</ele><time>2026-04-18T16:02:20.188Z</time></trkpt><trkpt lat="43.8596659" lon="11.5284883"><ele>138.83333333333334</ele><time>2026-04-18T16:02:21.187Z</time></trkpt><trkpt lat="43.8596022" lon="11.5284113"><ele>139.0</ele><time>2026-04-18T16:02:22.188Z</time></trkpt><trkpt lat="43.8595425" lon="11.5283355"><ele>139.0</ele><time>2026-04-18T16:02:23.188Z</time></trkpt><trkpt lat="43.8594948" lon="11.5282688"><ele>139.0</ele><time>2026-04-18T16:02:24.188Z</time></trkpt><trkpt lat="43.8594459" lon="11.5282011"><ele>139.0</ele><time>2026-04-18T16:02:26.188Z</time></trkpt><trkpt lat="43.8593918" lon="11.5281201"><ele>139.0</ele><time>2026-04-18T16:02:36.188Z</time></trkpt><trkpt lat="43.8593113" lon="11.5280018"><ele>139.0</ele><time>2026-04-18T16:02:38.188Z</time></trkpt><trkpt lat="43.8592547" lon="11.5279163"><ele>139.0</ele><time>2026-04-18T16:02:39.188Z</time></trkpt><trkpt lat="43.8591839" lon="11.527804"><ele>138.33333333333334</ele><time>2026-04-18T16:02:40.188Z</time></trkpt><trkpt lat="43.8591" lon="11.5276677"><ele>137.66666666666666</ele><time>2026-04-18T16:02:41.187Z</time></trkpt><trkpt lat="43.8590036" lon="11.5275093"><ele>137.0</ele><time>2026-04-18T16:02:42.188Z</time></trkpt><trkpt lat="43.85889" lon="11.5273278"><ele>137.0</ele><time>2026-04-18T16:02:43.188Z</time></trkpt><trkpt lat="43.8587707" lon="11.5271368"><ele>137.0</ele><time>2026-04-18T16:02:44.188Z</time></trkpt><trkpt lat="43.8586374" lon="11.5269129"><ele>137.0</ele><time>2026-04-18T16:02:45.188Z</time></trkpt><trkpt lat="43.8584867" lon="11.5266676"><ele>137.0</ele><time>2026-04-18T16:02:46.188Z</time></trkpt><trkpt lat="43.8583354" lon="11.5264161"><ele>137.0</ele><time>2026-04-18T16:02:47.188Z</time></trkpt><trkpt lat="43.8581789" lon="11.5261613"><ele>135.5</ele><time>2026-04-18T16:02:48.188Z</time></trkpt><trkpt lat="43.858025" lon="11.5259096"><ele>134.0</ele><time>2026-04-18T16:02:49.188Z</time></trkpt><trkpt lat="43.8578792" lon="11.5256693"><ele>134.0</ele><time>2026-04-18T16:02:50.188Z</time></trkpt><trkpt lat="43.8577382" lon="11.5254299"><ele>134.0</ele><time>2026-04-18T16:02:51.188Z</time></trkpt><trkpt lat="43.8575999" lon="11.5251906"><ele>134.0</ele><time>2026-04-18T16:02:52.188Z</time></trkpt><trkpt lat="43.8574725" lon="11.5249463"><ele>134.66666666666666</ele><time>2026-04-18T16:02:53.188Z</time></trkpt><trkpt lat="43.8573587" lon="11.5247073"><ele>135.33333333333334</ele><time>2026-04-18T16:02:54.188Z</time></trkpt><trkpt lat="43.8572581" lon="11.5244725"><ele>136.0</ele><time>2026-04-18T16:02:55.188Z</time></trkpt><trkpt lat="43.8571894" lon="11.5242305"><ele>136.0</ele><time>2026-04-18T16:02:56.188Z</time></trkpt><trkpt lat="43.8571407" lon="11.5239694"><ele>136.0</ele><time>2026-04-18T16:02:57.188Z</time></trkpt><trkpt lat="43.8570988" lon="11.5237067"><ele>136.0</ele><time>2026-04-18T16:02:58.188Z</time></trkpt><trkpt lat="43.8570602" lon="11.5234609"><ele>135.66666666666669</ele><time>2026-04-18T16:02:59.188Z</time></trkpt><trkpt lat="43.8570205" lon="11.5232201"><ele>135.33333333333334</ele><time>2026-04-18T16:03:00.188Z</time></trkpt><trkpt lat="43.8569812" lon="11.5229887"><ele>135.0</ele><time>2026-04-18T16:03:01.188Z</time></trkpt><trkpt lat="43.8569437" lon="11.5227664"><ele>135.0</ele><time>2026-04-18T16:03:02.188Z</time></trkpt><trkpt lat="43.856908" lon="11.5225538"><ele>135.0</ele><time>2026-04-18T16:03:03.188Z</time></trkpt><trkpt lat="43.8568714" lon="11.5223349"><ele>135.0</ele><time>2026-04-18T16:03:04.188Z</time></trkpt><trkpt lat="43.8568348" lon="11.5221244"><ele>135.0</ele><time>2026-04-18T16:03:05.188Z</time></trkpt><trkpt lat="43.8568009" lon="11.5219258"><ele>135.0</ele><time>2026-04-18T16:03:06.188Z</time></trkpt><trkpt lat="43.856766" lon="11.5217298"><ele>135.0</ele><time>2026-04-18T16:03:07.188Z</time></trkpt><trkpt lat="43.8567343" lon="11.5215413"><ele>135.0</ele><time>2026-04-18T16:03:08.188Z</time></trkpt><trkpt lat="43.8566959" lon="11.5213701"><ele>134.75</ele><time>2026-04-18T16:03:09.188Z</time></trkpt><trkpt lat="43.8566391" lon="11.5212081"><ele>134.5</ele><time>2026-04-18T16:03:10.188Z</time></trkpt><trkpt lat="43.8565585" lon="11.5210593"><ele>134.25</ele><time>2026-04-18T16:03:11.188Z</time></trkpt><trkpt lat="43.8564585" lon="11.520934"><ele>134.0</ele><time>2026-04-18T16:03:12.188Z</time></trkpt><trkpt lat="43.856342" lon="11.5208286"><ele>134.0</ele><time>2026-04-18T16:03:13.188Z</time></trkpt><trkpt lat="43.8562195" lon="11.5207368"><ele>134.0</ele><time>2026-04-18T16:03:14.188Z</time></trkpt><trkpt lat="43.8560963" lon="11.5206473"><ele>134.0</ele><time>2026-04-18T16:03:15.188Z</time></trkpt><trkpt lat="43.8559813" lon="11.5205626"><ele>134.0</ele><time>2026-04-18T16:03:16.187Z</time></trkpt><trkpt lat="43.8558703" lon="11.5204813"><ele>134.25</ele><time>2026-04-18T16:03:17.188Z</time></trkpt><trkpt lat="43.8557626" lon="11.5204023"><ele>134.5</ele><time>2026-04-18T16:03:18.188Z</time></trkpt><trkpt lat="43.8556555" lon="11.5203182"><ele>134.75</ele><time>2026-04-18T16:03:19.188Z</time></trkpt><trkpt lat="43.8555553" lon="11.5202282"><ele>135.0</ele><time>2026-04-18T16:03:20.187Z</time></trkpt><trkpt lat="43.8554523" lon="11.520141"><ele>135.0</ele><time>2026-04-18T16:03:21.188Z</time></trkpt><trkpt lat="43.8553654" lon="11.5200287"><ele>135.0</ele><time>2026-04-18T16:03:22.188Z</time></trkpt><trkpt lat="43.8552809" lon="11.5199213"><ele>135.0</ele><time>2026-04-18T16:03:23.188Z</time></trkpt><trkpt lat="43.8551897" lon="11.5198222"><ele>135.0</ele><time>2026-04-18T16:03:24.188Z</time></trkpt><trkpt lat="43.8550793" lon="11.5197443"><ele>137.0</ele><time>2026-04-18T16:03:25.188Z</time></trkpt><trkpt lat="43.8549254" lon="11.5196902"><ele>139.0</ele><time>2026-04-18T16:03:26.188Z</time></trkpt><trkpt lat="43.8547437" lon="11.5196349"><ele>141.0</ele><time>2026-04-18T16:03:27.188Z</time></trkpt><trkpt lat="43.8545804" lon="11.5195721"><ele>139.5</ele><time>2026-04-18T16:03:28.188Z</time></trkpt><trkpt lat="43.8544393" lon="11.5195271"><ele>138.0</ele><time>2026-04-18T16:03:29.188Z</time></trkpt><trkpt lat="43.8543162" lon="11.5194812"><ele>136.5</ele><time>2026-04-18T16:03:30.188Z</time></trkpt><trkpt lat="43.8542031" lon="11.5194358"><ele>135.0</ele><time>2026-04-18T16:03:31.188Z</time></trkpt><trkpt lat="43.8540955" lon="11.5193949"><ele>135.0</ele><time>2026-04-18T16:03:32.188Z</time></trkpt><trkpt lat="43.8539929" lon="11.5193543"><ele>135.0</ele><time>2026-04-18T16:03:33.188Z</time></trkpt><trkpt lat="43.8538899" lon="11.5192679"><ele>135.0</ele><time>2026-04-18T16:03:34.188Z</time></trkpt><trkpt lat="43.8537778" lon="11.5191834"><ele>135.0</ele><time>2026-04-18T16:03:35.188Z</time></trkpt><trkpt lat="43.853664" lon="11.5190895"><ele>135.0</ele><time>2026-04-18T16:03:36.188Z</time></trkpt><trkpt lat="43.8535549" lon="11.5189984"><ele>135.0</ele><time>2026-04-18T16:03:37.188Z</time></trkpt><trkpt lat="43.8534507" lon="11.5189108"><ele>135.0</ele><time>2026-04-18T16:03:38.188Z</time></trkpt><trkpt lat="43.853341" lon="11.5188182"><ele>135.0</ele><time>2026-04-18T16:03:39.188Z</time></trkpt><trkpt lat="43.8532335" lon="11.5187311"><ele>134.75</ele><time>2026-04-18T16:03:40.188Z</time></trkpt><trkpt lat="43.8531256" lon="11.518642"><ele>134.5</ele><time>2026-04-18T16:03:41.188Z</time></trkpt><trkpt lat="43.853017" lon="11.5185548"><ele>134.25</ele><time>2026-04-18T16:03:42.188Z</time></trkpt><trkpt lat="43.8528957" lon="11.5184635"><ele>134.0</ele><time>2026-04-18T16:03:43.188Z</time></trkpt><trkpt lat="43.8527607" lon="11.5183642"><ele>134.0</ele><time>2026-04-18T16:03:44.188Z</time></trkpt><trkpt lat="43.8526261" lon="11.518259"><ele>134.0</ele><time>2026-04-18T16:03:45.188Z</time></trkpt><trkpt lat="43.8524991" lon="11.5181576"><ele>134.0</ele><time>2026-04-18T16:03:46.187Z</time></trkpt><trkpt lat="43.8523756" lon="11.5180611"><ele>134.0</ele><time>2026-04-18T16:03:47.188Z</time></trkpt><trkpt lat="43.8522585" lon="11.5179635"><ele>134.0</ele><time>2026-04-18T16:03:48.187Z</time></trkpt><trkpt lat="43.8521451" lon="11.517861"><ele>134.0</ele><time>2026-04-18T16:03:49.187Z</time></trkpt><trkpt lat="43.8520342" lon="11.5177449"><ele>134.0</ele><time>2026-04-18T16:03:50.187Z</time></trkpt><trkpt lat="43.8519221" lon="11.5176174"><ele>134.0</ele><time>2026-04-18T16:03:51.188Z</time></trkpt><trkpt lat="43.851808" lon="11.5174877"><ele>134.0</ele><time>2026-04-18T16:03:52.188Z</time></trkpt><trkpt lat="43.8516805" lon="11.517355"><ele>134.0</ele><time>2026-04-18T16:03:53.188Z</time></trkpt><trkpt lat="43.8515157" lon="11.5172066"><ele>134.0</ele><time>2026-04-18T16:03:54.188Z</time></trkpt><trkpt lat="43.8513221" lon="11.5170427"><ele>132.5</ele><time>2026-04-18T16:03:55.188Z</time></trkpt><trkpt lat="43.8511139" lon="11.5168746"><ele>131.0</ele><time>2026-04-18T16:03:56.188Z</time></trkpt><trkpt lat="43.8509003" lon="11.5167023"><ele>130.66666666666666</ele><time>2026-04-18T16:03:57.188Z</time></trkpt><trkpt lat="43.8507062" lon="11.5165461"><ele>130.33333333333334</ele><time>2026-04-18T16:03:58.188Z</time></trkpt><trkpt lat="43.8505211" lon="11.5163988"><ele>130.0</ele><time>2026-04-18T16:03:59.187Z</time></trkpt><trkpt lat="43.8503415" lon="11.5162594"><ele>130.33333333333334</ele><time>2026-04-18T16:04:00.188Z</time></trkpt><trkpt lat="43.8501739" lon="11.5161137"><ele>130.66666666666666</ele><time>2026-04-18T16:04:01.188Z</time></trkpt><trkpt lat="43.8500425" lon="11.5159388"><ele>131.0</ele><time>2026-04-18T16:04:02.188Z</time></trkpt><trkpt lat="43.849942" lon="11.5157302"><ele>132.0</ele><time>2026-04-18T16:04:03.188Z</time></trkpt><trkpt lat="43.8498715" lon="11.5155005"><ele>133.0</ele><time>2026-04-18T16:04:04.188Z</time></trkpt><trkpt lat="43.8498152" lon="11.51527"><ele>134.0</ele><time>2026-04-18T16:04:05.188Z</time></trkpt><trkpt lat="43.8497636" lon="11.5150456"><ele>134.0</ele><time>2026-04-18T16:04:06.188Z</time></trkpt><trkpt lat="43.8497192" lon="11.5148098"><ele>134.0</ele><time>2026-04-18T16:04:07.188Z</time></trkpt><trkpt lat="43.8497184" lon="11.5145483"><ele>134.0</ele><time>2026-04-18T16:04:08.188Z</time></trkpt><trkpt lat="43.8497497" lon="11.5142595"><ele>133.33333333333331</ele><time>2026-04-18T16:04:09.187Z</time></trkpt><trkpt lat="43.8497869" lon="11.5139504"><ele>132.66666666666666</ele><time>2026-04-18T16:04:10.188Z</time></trkpt><trkpt lat="43.8498308" lon="11.5136668"><ele>132.0</ele><time>2026-04-18T16:04:11.188Z</time></trkpt><trkpt lat="43.8498949" lon="11.5134016"><ele>133.33333333333334</ele><time>2026-04-18T16:04:12.188Z</time></trkpt><trkpt lat="43.8499878" lon="11.5131514"><ele>134.66666666666669</ele><time>2026-04-18T16:04:13.187Z</time></trkpt><trkpt lat="43.8500894" lon="11.5129024"><ele>136.0</ele><time>2026-04-18T16:04:14.188Z</time></trkpt><trkpt lat="43.8501751" lon="11.5126527"><ele>137.66666666666669</ele><time>2026-04-18T16:04:15.188Z</time></trkpt><trkpt lat="43.8502482" lon="11.5123907"><ele>139.33333333333334</ele><time>2026-04-18T16:04:16.188Z</time></trkpt><trkpt lat="43.8503045" lon="11.5121128"><ele>141.0</ele><time>2026-04-18T16:04:17.188Z</time></trkpt><trkpt lat="43.8503474" lon="11.511806"><ele>141.0</ele><time>2026-04-18T16:04:18.187Z</time></trkpt><trkpt lat="43.8503835" lon="11.511481"><ele>141.0</ele><time>2026-04-18T16:04:19.188Z</time></trkpt><trkpt lat="43.8504159" lon="11.511154"><ele>138.66666666666666</ele><time>2026-04-18T16:04:20.188Z</time></trkpt><trkpt lat="43.8504504" lon="11.5108408"><ele>136.33333333333331</ele><time>2026-04-18T16:04:21.188Z</time></trkpt><trkpt lat="43.8504829" lon="11.5105415"><ele>134.0</ele><time>2026-04-18T16:04:22.188Z</time></trkpt><trkpt lat="43.8505127" lon="11.5102611"><ele>133.33333333333331</ele><time>2026-04-18T16:04:23.188Z</time></trkpt><trkpt lat="43.8505219" lon="11.5099904"><ele>132.66666666666666</ele><time>2026-04-18T16:04:24.187Z</time></trkpt><trkpt lat="43.8505063" lon="11.5097055"><ele>132.0</ele><time>2026-04-18T16:04:25.188Z</time></trkpt><trkpt lat="43.8504825" lon="11.5093861"><ele>130.5</ele><time>2026-04-18T16:04:26.188Z</time></trkpt><trkpt lat="43.8504543" lon="11.5090384"><ele>129.0</ele><time>2026-04-18T16:04:27.188Z</time></trkpt><trkpt lat="43.8504232" lon="11.508671"><ele>128.5</ele><time>2026-04-18T16:04:28.187Z</time></trkpt><trkpt lat="43.8503956" lon="11.5083279"><ele>128.0</ele><time>2026-04-18T16:04:29.188Z</time></trkpt><trkpt lat="43.8503689" lon="11.5080008"><ele>127.66666666666666</ele><time>2026-04-18T16:04:30.187Z</time></trkpt><trkpt lat="43.8503432" lon="11.5076911"><ele>127.33333333333334</ele><time>2026-04-18T16:04:31.188Z</time></trkpt><trkpt lat="43.8503191" lon="11.5073962"><ele>127.0</ele><time>2026-04-18T16:04:32.188Z</time></trkpt><trkpt lat="43.8502981" lon="11.5071185"><ele>126.33333333333334</ele><time>2026-04-18T16:04:33.188Z</time></trkpt><trkpt lat="43.8502747" lon="11.5068534"><ele>125.66666666666666</ele><time>2026-04-18T16:04:34.188Z</time></trkpt><trkpt lat="43.8502365" lon="11.5065868"><ele>125.0</ele><time>2026-04-18T16:04:35.188Z</time></trkpt><trkpt lat="43.8501653" lon="11.5063214"><ele>126.66666666666666</ele><time>2026-04-18T16:04:36.187Z</time></trkpt><trkpt lat="43.8500731" lon="11.5060541"><ele>128.33333333333334</ele><time>2026-04-18T16:04:37.188Z</time></trkpt><trkpt lat="43.8499771" lon="11.5057854"><ele>130.0</ele><time>2026-04-18T16:04:38.188Z</time></trkpt><trkpt lat="43.8498777" lon="11.5055108"><ele>129.33333333333334</ele><time>2026-04-18T16:04:39.188Z</time></trkpt><trkpt lat="43.8497793" lon="11.5052388"><ele>128.66666666666666</ele><time>2026-04-18T16:04:40.188Z</time></trkpt><trkpt lat="43.8496814" lon="11.5049684"><ele>128.0</ele><time>2026-04-18T16:04:41.188Z</time></trkpt><trkpt lat="43.8495864" lon="11.5047035"><ele>128.0</ele><time>2026-04-18T16:04:42.188Z</time></trkpt><trkpt lat="43.8494933" lon="11.5044455"><ele>128.0</ele><time>2026-04-18T16:04:43.188Z</time></trkpt><trkpt lat="43.8493955" lon="11.5041936"><ele>128.0</ele><time>2026-04-18T16:04:44.187Z</time></trkpt><trkpt lat="43.84928" lon="11.5039372"><ele>129.33333333333331</ele><time>2026-04-18T16:04:45.188Z</time></trkpt><trkpt lat="43.8491536" lon="11.5036852"><ele>130.66666666666666</ele><time>2026-04-18T16:04:46.188Z</time></trkpt><trkpt lat="43.8490237" lon="11.5034338"><ele>132.0</ele><time>2026-04-18T16:04:47.188Z</time></trkpt><trkpt lat="43.8488943" lon="11.5031838"><ele>132.0</ele><time>2026-04-18T16:04:48.188Z</time></trkpt><trkpt lat="43.8487716" lon="11.5029493"><ele>132.0</ele><time>2026-04-18T16:04:49.188Z</time></trkpt><trkpt lat="43.8486593" lon="11.5027329"><ele>132.0</ele><time>2026-04-18T16:04:50.188Z</time></trkpt><trkpt lat="43.8485583" lon="11.5025352"><ele>132.66666666666666</ele><time>2026-04-18T16:04:51.188Z</time></trkpt><trkpt lat="43.8484635" lon="11.5023517"><ele>133.33333333333331</ele><time>2026-04-18T16:04:52.188Z</time></trkpt><trkpt lat="43.8483725" lon="11.5021828"><ele>134.0</ele><time>2026-04-18T16:04:53.188Z</time></trkpt><trkpt lat="43.8482796" lon="11.502027"><ele>134.0</ele><time>2026-04-18T16:04:54.188Z</time></trkpt><trkpt lat="43.8481799" lon="11.5018856"><ele>134.0</ele><time>2026-04-18T16:04:55.188Z</time></trkpt><trkpt lat="43.8480708" lon="11.5017549"><ele>134.0</ele><time>2026-04-18T16:04:56.188Z</time></trkpt><trkpt lat="43.8479581" lon="11.5016251"><ele>134.0</ele><time>2026-04-18T16:04:57.188Z</time></trkpt><trkpt lat="43.847842" lon="11.5014935"><ele>134.0</ele><time>2026-04-18T16:04:58.188Z</time></trkpt><trkpt lat="43.8477335" lon="11.5013696"><ele>134.0</ele><time>2026-04-18T16:04:59.188Z</time></trkpt><trkpt lat="43.8476332" lon="11.5012545"><ele>134.0</ele><time>2026-04-18T16:05:00.188Z</time></trkpt><trkpt lat="43.8475378" lon="11.501149"><ele>134.0</ele><time>2026-04-18T16:05:01.188Z</time></trkpt><trkpt lat="43.8474448" lon="11.5010443"><ele>134.25</ele><time>2026-04-18T16:05:02.187Z</time></trkpt><trkpt lat="43.8473503" lon="11.50094"><ele>134.5</ele><time>2026-04-18T16:05:03.188Z</time></trkpt><trkpt lat="43.8472558" lon="11.5008333"><ele>134.75</ele><time>2026-04-18T16:05:04.188Z</time></trkpt><trkpt lat="43.8471572" lon="11.5007228"><ele>135.0</ele><time>2026-04-18T16:05:05.187Z</time></trkpt><trkpt lat="43.8470542" lon="11.5006079"><ele>135.0</ele><time>2026-04-18T16:05:06.188Z</time></trkpt><trkpt lat="43.8469467" lon="11.5004841"><ele>135.0</ele><time>2026-04-18T16:05:07.188Z</time></trkpt><trkpt lat="43.8468364" lon="11.5003572"><ele>135.0</ele><time>2026-04-18T16:05:08.188Z</time></trkpt><trkpt lat="43.8467294" lon="11.5002373"><ele>135.0</ele><time>2026-04-18T16:05:09.188Z</time></trkpt><trkpt lat="43.8466206" lon="11.5001116"><ele>135.25</ele><time>2026-04-18T16:05:10.188Z</time></trkpt><trkpt lat="43.8465082" lon="11.4999844"><ele>135.5</ele><time>2026-04-18T16:05:11.188Z</time></trkpt><trkpt lat="43.8463939" lon="11.4998567"><ele>135.75</ele><time>2026-04-18T16:05:12.188Z</time></trkpt><trkpt lat="43.846279" lon="11.4997326"><ele>136.0</ele><time>2026-04-18T16:05:13.188Z</time></trkpt><trkpt lat="43.8461602" lon="11.4996252"><ele>135.5</ele><time>2026-04-18T16:05:14.188Z</time></trkpt><trkpt lat="43.8460377" lon="11.4995323"><ele>135.0</ele><time>2026-04-18T16:05:15.188Z</time></trkpt><trkpt lat="43.8459127" lon="11.4994537"><ele>134.5</ele><time>2026-04-18T16:05:16.188Z</time></trkpt><trkpt lat="43.8457882" lon="11.4993956"><ele>134.0</ele><time>2026-04-18T16:05:17.188Z</time></trkpt><trkpt lat="43.8456701" lon="11.4993579"><ele>134.0</ele><time>2026-04-18T16:05:18.188Z</time></trkpt><trkpt lat="43.8455512" lon="11.4993373"><ele>134.0</ele><time>2026-04-18T16:05:19.188Z</time></trkpt><trkpt lat="43.845432" lon="11.4993312"><ele>134.0</ele><time>2026-04-18T16:05:20.188Z</time></trkpt><trkpt lat="43.8453039" lon="11.4993316"><ele>134.0</ele><time>2026-04-18T16:05:21.188Z</time></trkpt><trkpt lat="43.8451709" lon="11.4993345"><ele>134.5</ele><time>2026-04-18T16:05:22.188Z</time></trkpt><trkpt lat="43.8450352" lon="11.4993407"><ele>135.0</ele><time>2026-04-18T16:05:23.188Z</time></trkpt><trkpt lat="43.8448998" lon="11.4993471"><ele>135.5</ele><time>2026-04-18T16:05:24.188Z</time></trkpt><trkpt lat="43.8447686" lon="11.4993533"><ele>136.0</ele><time>2026-04-18T16:05:25.188Z</time></trkpt><trkpt lat="43.8446385" lon="11.4993636"><ele>136.0</ele><time>2026-04-18T16:05:26.188Z</time></trkpt><trkpt lat="43.8445134" lon="11.4993746"><ele>136.0</ele><time>2026-04-18T16:05:27.187Z</time></trkpt><trkpt lat="43.8443875" lon="11.4993803"><ele>136.0</ele><time>2026-04-18T16:05:28.188Z</time></trkpt><trkpt lat="43.8442572" lon="11.4993854"><ele>136.0</ele><time>2026-04-18T16:05:29.188Z</time></trkpt><trkpt lat="43.8441164" lon="11.4993955"><ele>135.5</ele><time>2026-04-18T16:05:30.188Z</time></trkpt><trkpt lat="43.8439727" lon="11.4994044"><ele>135.0</ele><time>2026-04-18T16:05:31.188Z</time></trkpt><trkpt lat="43.8438307" lon="11.4994132"><ele>134.5</ele><time>2026-04-18T16:05:32.188Z</time></trkpt><trkpt lat="43.8436961" lon="11.4994198"><ele>134.0</ele><time>2026-04-18T16:05:33.188Z</time></trkpt><trkpt lat="43.8435692" lon="11.4994294"><ele>134.25</ele><time>2026-04-18T16:05:34.188Z</time></trkpt><trkpt lat="43.8434374" lon="11.4994432"><ele>134.5</ele><time>2026-04-18T16:05:35.188Z</time></trkpt><trkpt lat="43.8433049" lon="11.4994511"><ele>134.75</ele><time>2026-04-18T16:05:36.187Z</time></trkpt><trkpt lat="43.8431672" lon="11.4994586"><ele>135.0</ele><time>2026-04-18T16:05:37.188Z</time></trkpt><trkpt lat="43.8430283" lon="11.4994679"><ele>135.0</ele><time>2026-04-18T16:05:38.188Z</time></trkpt><trkpt lat="43.8428916" lon="11.4994761"><ele>135.0</ele><time>2026-04-18T16:05:39.188Z</time></trkpt><trkpt lat="43.8427549" lon="11.4994823"><ele>135.0</ele><time>2026-04-18T16:05:40.188Z</time></trkpt><trkpt lat="43.8426111" lon="11.4994934"><ele>135.0</ele><time>2026-04-18T16:05:41.188Z</time></trkpt><trkpt lat="43.8424696" lon="11.4995047"><ele>135.25</ele><time>2026-04-18T16:05:42.188Z</time></trkpt><trkpt lat="43.8423334" lon="11.4995224"><ele>135.5</ele><time>2026-04-18T16:05:43.188Z</time></trkpt><trkpt lat="43.8421964" lon="11.4995404"><ele>135.75</ele><time>2026-04-18T16:05:44.188Z</time></trkpt><trkpt lat="43.8420617" lon="11.4995698"><ele>136.0</ele><time>2026-04-18T16:05:45.188Z</time></trkpt><trkpt lat="43.8419256" lon="11.4996101"><ele>138.0</ele><time>2026-04-18T16:05:46.187Z</time></trkpt><trkpt lat="43.8417887" lon="11.4996541"><ele>140.0</ele><time>2026-04-18T16:05:47.188Z</time></trkpt><trkpt lat="43.8416497" lon="11.4996977"><ele>142.0</ele><time>2026-04-18T16:05:48.187Z</time></trkpt><trkpt lat="43.8415148" lon="11.4997431"><ele>144.0</ele><time>2026-04-18T16:05:49.188Z</time></trkpt><trkpt lat="43.841388" lon="11.4998119"><ele>144.0</ele><time>2026-04-18T16:05:50.188Z</time></trkpt><trkpt lat="43.841262" lon="11.4999087"><ele>144.0</ele><time>2026-04-18T16:05:51.188Z</time></trkpt><trkpt lat="43.8411391" lon="11.5000189"><ele>144.0</ele><time>2026-04-18T16:05:52.188Z</time></trkpt><trkpt lat="43.8410165" lon="11.5001366"><ele>144.0</ele><time>2026-04-18T16:05:53.188Z</time></trkpt><trkpt lat="43.8408994" lon="11.500244"><ele>143.0</ele><time>2026-04-18T16:05:54.188Z</time></trkpt><trkpt lat="43.8407848" lon="11.5003544"><ele>142.0</ele><time>2026-04-18T16:05:55.188Z</time></trkpt><trkpt lat="43.8406723" lon="11.5004613"><ele>141.0</ele><time>2026-04-18T16:05:56.187Z</time></trkpt><trkpt lat="43.8405663" lon="11.5005579"><ele>140.0</ele><time>2026-04-18T16:05:57.188Z</time></trkpt><trkpt lat="43.8404545" lon="11.5006417"><ele>141.25</ele><time>2026-04-18T16:05:58.188Z</time></trkpt><trkpt lat="43.8403375" lon="11.5007041"><ele>142.5</ele><time>2026-04-18T16:05:59.188Z</time></trkpt><trkpt lat="43.8402199" lon="11.5007413"><ele>143.75</ele><time>2026-04-18T16:06:00.188Z</time></trkpt><trkpt lat="43.8401022" lon="11.5007642"><ele>145.0</ele><time>2026-04-18T16:06:01.187Z</time></trkpt><trkpt lat="43.8399934" lon="11.5007727"><ele>145.0</ele><time>2026-04-18T16:06:02.188Z</time></trkpt><trkpt lat="43.8398835" lon="11.5007696"><ele>145.0</ele><time>2026-04-18T16:06:03.188Z</time></trkpt><trkpt lat="43.83978" lon="11.5007519"><ele>145.0</ele><time>2026-04-18T16:06:04.188Z</time></trkpt><trkpt lat="43.8396985" lon="11.5007333"><ele>145.0</ele><time>2026-04-18T16:06:05.188Z</time></trkpt><trkpt lat="43.8396322" lon="11.5007189"><ele>145.0</ele><time>2026-04-18T16:06:06.188Z</time></trkpt><trkpt lat="43.8395552" lon="11.500724"><ele>145.0</ele><time>2026-04-18T16:06:08.188Z</time></trkpt><trkpt lat="43.8395152" lon="11.5008663"><ele>145.0</ele><time>2026-04-18T16:06:11.188Z</time></trkpt><trkpt lat="43.839493" lon="11.5009666"><ele>145.0</ele><time>2026-04-18T16:06:12.188Z</time></trkpt><trkpt lat="43.8394851" lon="11.5010903"><ele>145.0</ele><time>2026-04-18T16:06:13.188Z</time></trkpt><trkpt lat="43.839504" lon="11.5012091"><ele>145.0</ele><time>2026-04-18T16:06:14.188Z</time></trkpt><trkpt lat="43.8395545" lon="11.5013535"><ele>145.0</ele><time>2026-04-18T16:06:15.188Z</time></trkpt><trkpt lat="43.8396306" lon="11.5015288"><ele>146.33333333333334</ele><time>2026-04-18T16:06:16.188Z</time></trkpt><trkpt lat="43.839728" lon="11.5017391"><ele>147.66666666666666</ele><time>2026-04-18T16:06:17.188Z</time></trkpt><trkpt lat="43.8398317" lon="11.5019705"><ele>149.0</ele><time>2026-04-18T16:06:18.188Z</time></trkpt><trkpt lat="43.8399318" lon="11.5021939"><ele>150.5</ele><time>2026-04-18T16:06:19.188Z</time></trkpt><trkpt lat="43.8400208" lon="11.5023814"><ele>152.0</ele><time>2026-04-18T16:06:20.188Z</time></trkpt><trkpt lat="43.8400928" lon="11.5025376"><ele>153.5</ele><time>2026-04-18T16:06:21.188Z</time></trkpt><trkpt lat="43.8401485" lon="11.5026738"><ele>155.0</ele><time>2026-04-18T16:06:22.188Z</time></trkpt><trkpt lat="43.8401796" lon="11.502794"><ele>157.8</ele><time>2026-04-18T16:06:23.188Z</time></trkpt><trkpt lat="43.8401823" lon="11.5029154"><ele>160.6</ele><time>2026-04-18T16:06:24.188Z</time></trkpt><trkpt lat="43.8401526" lon="11.5030329"><ele>163.39999999999998</ele><time>2026-04-18T16:06:25.188Z</time></trkpt><trkpt lat="43.8400878" lon="11.5031578"><ele>166.2</ele><time>2026-04-18T16:06:26.188Z</time></trkpt><trkpt lat="43.8400068" lon="11.5032867"><ele>169.0</ele><time>2026-04-18T16:06:27.187Z</time></trkpt><trkpt lat="43.839925" lon="11.5034179"><ele>169.0</ele><time>2026-04-18T16:06:28.188Z</time></trkpt><trkpt lat="43.8398529" lon="11.5035325"><ele>169.0</ele><time>2026-04-18T16:06:29.188Z</time></trkpt><trkpt lat="43.8397908" lon="11.5036269"><ele>169.0</ele><time>2026-04-18T16:06:30.188Z</time></trkpt><trkpt lat="43.839743" lon="11.5037205"><ele>169.0</ele><time>2026-04-18T16:06:31.188Z</time></trkpt><trkpt lat="43.8397221" lon="11.5038338"><ele>169.0</ele><time>2026-04-18T16:06:32.188Z</time></trkpt><trkpt lat="43.839734" lon="11.5039415"><ele>169.0</ele><time>2026-04-18T16:06:33.187Z</time></trkpt><trkpt lat="43.839774" lon="11.5040119"><ele>170.0</ele><time>2026-04-18T16:06:34.188Z</time></trkpt><trkpt lat="43.8398979" lon="11.5039835"><ele>171.0</ele><time>2026-04-18T16:06:36.187Z</time></trkpt><trkpt lat="43.8399875" lon="11.5038902"><ele>172.0</ele><time>2026-04-18T16:06:37.188Z</time></trkpt><trkpt lat="43.8400838" lon="11.5037575"><ele>173.0</ele><time>2026-04-18T16:06:38.188Z</time></trkpt><trkpt lat="43.840167" lon="11.5036376"><ele>173.0</ele><time>2026-04-18T16:06:39.188Z</time></trkpt><trkpt lat="43.8402405" lon="11.5035392"><ele>173.0</ele><time>2026-04-18T16:06:40.188Z</time></trkpt><trkpt lat="43.8403027" lon="11.5034657"><ele>173.0</ele><time>2026-04-18T16:06:41.188Z</time></trkpt><trkpt lat="43.8403986" lon="11.5034826"><ele>173.0</ele><time>2026-04-18T16:06:43.188Z</time></trkpt><trkpt lat="43.8403726" lon="11.5036318"><ele>173.0</ele><time>2026-04-18T16:06:45.188Z</time></trkpt><trkpt lat="43.8403178" lon="11.5037384"><ele>174.60000000000002</ele><time>2026-04-18T16:06:46.188Z</time></trkpt><trkpt lat="43.8402441" lon="11.5038705"><ele>176.20000000000002</ele><time>2026-04-18T16:06:47.188Z</time></trkpt><trkpt lat="43.8401767" lon="11.5039929"><ele>177.8</ele><time>2026-04-18T16:06:48.188Z</time></trkpt><trkpt lat="43.8401237" lon="11.5040962"><ele>179.4</ele><time>2026-04-18T16:06:49.188Z</time></trkpt><trkpt lat="43.8400885" lon="11.5041936"><ele>181.0</ele><time>2026-04-18T16:06:50.188Z</time></trkpt><trkpt lat="43.8400809" lon="11.5042884"><ele>183.25</ele><time>2026-04-18T16:06:51.188Z</time></trkpt><trkpt lat="43.8401524" lon="11.504393"><ele>185.5</ele><time>2026-04-18T16:06:53.188Z</time></trkpt><trkpt lat="43.8402773" lon="11.5042984"><ele>187.75</ele><time>2026-04-18T16:06:55.188Z</time></trkpt><trkpt lat="43.8403534" lon="11.5041872"><ele>190.0</ele><time>2026-04-18T16:06:56.188Z</time></trkpt><trkpt lat="43.8404203" lon="11.5040973"><ele>190.0</ele><time>2026-04-18T16:06:57.188Z</time></trkpt><trkpt lat="43.8404917" lon="11.5040347"><ele>190.0</ele><time>2026-04-18T16:06:58.188Z</time></trkpt><trkpt lat="43.8405613" lon="11.50402"><ele>190.0</ele><time>2026-04-18T16:06:59.188Z</time></trkpt><trkpt lat="43.8406192" lon="11.5040719"><ele>190.0</ele><time>2026-04-18T16:07:00.188Z</time></trkpt><trkpt lat="43.8406634" lon="11.5041753"><ele>190.0</ele><time>2026-04-18T16:07:01.188Z</time></trkpt><trkpt lat="43.8406902" lon="11.504317"><ele>190.0</ele><time>2026-04-18T16:07:02.188Z</time></trkpt><trkpt lat="43.8407045" lon="11.5044772"><ele>191.75</ele><time>2026-04-18T16:07:03.188Z</time></trkpt><trkpt lat="43.8407196" lon="11.5046484"><ele>193.5</ele><time>2026-04-18T16:07:04.188Z</time></trkpt><trkpt lat="43.840731" lon="11.504804"><ele>195.25</ele><time>2026-04-18T16:07:05.187Z</time></trkpt><trkpt lat="43.8407337" lon="11.5049573"><ele>197.0</ele><time>2026-04-18T16:07:06.188Z</time></trkpt><trkpt lat="43.8407193" lon="11.5051101"><ele>197.0</ele><time>2026-04-18T16:07:07.188Z</time></trkpt><trkpt lat="43.8406875" lon="11.5052669"><ele>197.0</ele><time>2026-04-18T16:07:08.188Z</time></trkpt><trkpt lat="43.8406402" lon="11.5054252"><ele>197.0</ele><time>2026-04-18T16:07:09.188Z</time></trkpt><trkpt lat="43.8405829" lon="11.5055929"><ele>197.0</ele><time>2026-04-18T16:07:10.188Z</time></trkpt><trkpt lat="43.8405355" lon="11.5057748"><ele>197.5</ele><time>2026-04-18T16:07:11.188Z</time></trkpt><trkpt lat="43.8404924" lon="11.5059581"><ele>198.0</ele><time>2026-04-18T16:07:12.188Z</time></trkpt><trkpt lat="43.8404578" lon="11.5061359"><ele>198.5</ele><time>2026-04-18T16:07:13.188Z</time></trkpt><trkpt lat="43.840449" lon="11.5063144"><ele>199.0</ele><time>2026-04-18T16:07:14.188Z</time></trkpt><trkpt lat="43.8404725" lon="11.506498"><ele>201.33333333333331</ele><time>2026-04-18T16:07:15.188Z</time></trkpt><trkpt lat="43.8405279" lon="11.5066977"><ele>203.66666666666669</ele><time>2026-04-18T16:07:16.188Z</time></trkpt><trkpt lat="43.8405905" lon="11.5068968"><ele>206.0</ele><time>2026-04-18T16:07:17.188Z</time></trkpt><trkpt lat="43.8406464" lon="11.5070768"><ele>208.75</ele><time>2026-04-18T16:07:18.188Z</time></trkpt><trkpt lat="43.8406931" lon="11.5072331"><ele>211.5</ele><time>2026-04-18T16:07:19.188Z</time></trkpt><trkpt lat="43.8407247" lon="11.5073851"><ele>214.25</ele><time>2026-04-18T16:07:20.188Z</time></trkpt><trkpt lat="43.8407278" lon="11.5075338"><ele>217.0</ele><time>2026-04-18T16:07:21.188Z</time></trkpt><trkpt lat="43.840712" lon="11.5077202"><ele>219.66666666666666</ele><time>2026-04-18T16:07:22.188Z</time></trkpt><trkpt lat="43.8406837" lon="11.5079223"><ele>222.33333333333331</ele><time>2026-04-18T16:07:23.188Z</time></trkpt><trkpt lat="43.840648" lon="11.5081346"><ele>225.0</ele><time>2026-04-18T16:07:24.188Z</time></trkpt><trkpt lat="43.8406096" lon="11.508363"><ele>225.0</ele><time>2026-04-18T16:07:25.188Z</time></trkpt><trkpt lat="43.8405815" lon="11.5085769"><ele>225.0</ele><time>2026-04-18T16:07:26.188Z</time></trkpt><trkpt lat="43.8405603" lon="11.5087624"><ele>225.0</ele><time>2026-04-18T16:07:27.188Z</time></trkpt><trkpt lat="43.8405439" lon="11.5089224"><ele>225.0</ele><time>2026-04-18T16:07:28.187Z</time></trkpt><trkpt lat="43.8405389" lon="11.5090503"><ele>226.4</ele><time>2026-04-18T16:07:29.187Z</time></trkpt><trkpt lat="43.8405636" lon="11.5091694"><ele>227.8</ele><time>2026-04-18T16:07:30.188Z</time></trkpt><trkpt lat="43.8406165" lon="11.5092797"><ele>229.2</ele><time>2026-04-18T16:07:31.188Z</time></trkpt><trkpt lat="43.8406788" lon="11.5093783"><ele>230.6</ele><time>2026-04-18T16:07:32.188Z</time></trkpt><trkpt lat="43.8407407" lon="11.5094558"><ele>232.0</ele><time>2026-04-18T16:07:33.188Z</time></trkpt><trkpt lat="43.8408177" lon="11.5095213"><ele>233.75</ele><time>2026-04-18T16:07:34.188Z</time></trkpt><trkpt lat="43.8409019" lon="11.5095783"><ele>235.5</ele><time>2026-04-18T16:07:35.188Z</time></trkpt><trkpt lat="43.8410059" lon="11.5095929"><ele>237.25</ele><time>2026-04-18T16:07:36.188Z</time></trkpt><trkpt lat="43.8411424" lon="11.509569"><ele>239.0</ele><time>2026-04-18T16:07:37.188Z</time></trkpt><trkpt lat="43.8412844" lon="11.5095229"><ele>239.0</ele><time>2026-04-18T16:07:38.187Z</time></trkpt><trkpt lat="43.8414484" lon="11.5094562"><ele>239.0</ele><time>2026-04-18T16:07:39.187Z</time></trkpt><trkpt lat="43.8415983" lon="11.5093742"><ele>239.0</ele><time>2026-04-18T16:07:40.188Z</time></trkpt><trkpt lat="43.8417362" lon="11.50926"><ele>246.33333333333334</ele><time>2026-04-18T16:07:41.188Z</time></trkpt><trkpt lat="43.8418748" lon="11.5091045"><ele>253.66666666666669</ele><time>2026-04-18T16:07:42.188Z</time></trkpt><trkpt lat="43.8419973" lon="11.5089281"><ele>261.0</ele><time>2026-04-18T16:07:43.188Z</time></trkpt><trkpt lat="43.8421072" lon="11.5087617"><ele>258.5</ele><time>2026-04-18T16:07:44.188Z</time></trkpt><trkpt lat="43.8422101" lon="11.5086041"><ele>256.0</ele><time>2026-04-18T16:07:45.188Z</time></trkpt><trkpt lat="43.8423108" lon="11.5084537"><ele>253.5</ele><time>2026-04-18T16:07:46.187Z</time></trkpt><trkpt lat="43.8424046" lon="11.5083116"><ele>251.0</ele><time>2026-04-18T16:07:47.188Z</time></trkpt><trkpt lat="43.8424871" lon="11.5081837"><ele>251.0</ele><time>2026-04-18T16:07:48.188Z</time></trkpt><trkpt lat="43.8425554" lon="11.5080773"><ele>251.00000000000003</ele><time>2026-04-18T16:07:49.187Z</time></trkpt><trkpt lat="43.8426173" lon="11.5079842"><ele>251.00000000000003</ele><time>2026-04-18T16:07:50.187Z</time></trkpt><trkpt lat="43.8426734" lon="11.5079197"><ele>251.0</ele><time>2026-04-18T16:07:51.188Z</time></trkpt><trkpt lat="43.8427974" lon="11.507881"><ele>251.0</ele><time>2026-04-18T16:07:53.188Z</time></trkpt><trkpt lat="43.8428715" lon="11.5079267"><ele>251.83333333333334</ele><time>2026-04-18T16:07:54.188Z</time></trkpt><trkpt lat="43.8429399" lon="11.5080034"><ele>252.66666666666669</ele><time>2026-04-18T16:07:55.188Z</time></trkpt><trkpt lat="43.8430121" lon="11.5081033"><ele>253.5</ele><time>2026-04-18T16:07:56.188Z</time></trkpt><trkpt lat="43.8430803" lon="11.5081976"><ele>254.33333333333331</ele><time>2026-04-18T16:07:57.187Z</time></trkpt><trkpt lat="43.8431349" lon="11.5082894"><ele>255.16666666666666</ele><time>2026-04-18T16:07:58.187Z</time></trkpt><trkpt lat="43.8431695" lon="11.5083777"><ele>256.0</ele><time>2026-04-18T16:07:59.188Z</time></trkpt><trkpt lat="43.8431826" lon="11.5084756"><ele>256.0</ele><time>2026-04-18T16:08:00.188Z</time></trkpt><trkpt lat="43.8431763" lon="11.5085864"><ele>256.0</ele><time>2026-04-18T16:08:01.188Z</time></trkpt><trkpt lat="43.8431456" lon="11.5087147"><ele>256.0</ele><time>2026-04-18T16:08:02.187Z</time></trkpt><trkpt lat="43.8430894" lon="11.5088668"><ele>256.0</ele><time>2026-04-18T16:08:03.188Z</time></trkpt><trkpt lat="43.843014" lon="11.5090561"><ele>257.66666666666663</ele><time>2026-04-18T16:08:04.188Z</time></trkpt><trkpt lat="43.8429232" lon="11.5092731"><ele>259.3333333333333</ele><time>2026-04-18T16:08:05.188Z</time></trkpt><trkpt lat="43.8428261" lon="11.5095"><ele>261.0</ele><time>2026-04-18T16:08:06.188Z</time></trkpt><trkpt lat="43.8427244" lon="11.5097363"><ele>264.3333333333333</ele><time>2026-04-18T16:08:07.188Z</time></trkpt><trkpt lat="43.8426026" lon="11.5099352"><ele>267.66666666666663</ele><time>2026-04-18T16:08:08.187Z</time></trkpt><trkpt lat="43.8424844" lon="11.5101251"><ele>271.0</ele><time>2026-04-18T16:08:09.188Z</time></trkpt><trkpt lat="43.8423587" lon="11.5102765"><ele>271.0</ele><time>2026-04-18T16:08:10.188Z</time></trkpt><trkpt lat="43.8422431" lon="11.5103917"><ele>271.0</ele><time>2026-04-18T16:08:11.188Z</time></trkpt><trkpt lat="43.8421352" lon="11.5104809"><ele>271.0</ele><time>2026-04-18T16:08:12.188Z</time></trkpt><trkpt lat="43.8420378" lon="11.5105688"><ele>271.0</ele><time>2026-04-18T16:08:13.188Z</time></trkpt><trkpt lat="43.841961" lon="11.5106862"><ele>275.0</ele><time>2026-04-18T16:08:14.188Z</time></trkpt><trkpt lat="43.841894" lon="11.5108737"><ele>279.0</ele><time>2026-04-18T16:08:15.188Z</time></trkpt><trkpt lat="43.8418396" lon="11.5110801"><ele>283.0</ele><time>2026-04-18T16:08:16.188Z</time></trkpt><trkpt lat="43.8417918" lon="11.511275"><ele>284.3333333333333</ele><time>2026-04-18T16:08:17.188Z</time></trkpt><trkpt lat="43.841744" lon="11.5114571"><ele>285.6666666666667</ele><time>2026-04-18T16:08:18.188Z</time></trkpt><trkpt lat="43.8416755" lon="11.5116454"><ele>287.0</ele><time>2026-04-18T16:08:19.187Z</time></trkpt><trkpt lat="43.8415781" lon="11.5118183"><ele>287.0</ele><time>2026-04-18T16:08:20.188Z</time></trkpt><trkpt lat="43.8414817" lon="11.511956"><ele>287.0</ele><time>2026-04-18T16:08:21.188Z</time></trkpt><trkpt lat="43.8414004" lon="11.5120612"><ele>287.0</ele><time>2026-04-18T16:08:22.188Z</time></trkpt><trkpt lat="43.8413386" lon="11.5121444"><ele>287.0</ele><time>2026-04-18T16:08:23.187Z</time></trkpt><trkpt lat="43.841305" lon="11.5122184"><ele>287.0</ele><time>2026-04-18T16:08:24.188Z</time></trkpt><trkpt lat="43.8413383" lon="11.5123418"><ele>289.0</ele><time>2026-04-18T16:08:26.188Z</time></trkpt><trkpt lat="43.8414735" lon="11.5123057"><ele>291.0</ele><time>2026-04-18T16:08:28.188Z</time></trkpt><trkpt lat="43.8415649" lon="11.5122238"><ele>293.0</ele><time>2026-04-18T16:08:29.188Z</time></trkpt><trkpt lat="43.8416488" lon="11.512165"><ele>295.0</ele><time>2026-04-18T16:08:30.187Z</time></trkpt><trkpt lat="43.8417392" lon="11.5121456"><ele>297.0</ele><time>2026-04-18T16:08:31.188Z</time></trkpt><trkpt lat="43.8418307" lon="11.5121679"><ele>297.0</ele><time>2026-04-18T16:08:32.188Z</time></trkpt><trkpt lat="43.8419195" lon="11.5122281"><ele>297.0</ele><time>2026-04-18T16:08:33.188Z</time></trkpt><trkpt lat="43.8420065" lon="11.5123121"><ele>297.0</ele><time>2026-04-18T16:08:34.188Z</time></trkpt><trkpt lat="43.8420844" lon="11.5124118"><ele>297.0</ele><time>2026-04-18T16:08:35.188Z</time></trkpt><trkpt lat="43.8421412" lon="11.5125222"><ele>297.0</ele><time>2026-04-18T16:08:36.188Z</time></trkpt><trkpt lat="43.8421667" lon="11.512632"><ele>297.0</ele><time>2026-04-18T16:08:37.188Z</time></trkpt><trkpt lat="43.8421504" lon="11.5127413"><ele>297.0</ele><time>2026-04-18T16:08:38.188Z</time></trkpt><trkpt lat="43.842089" lon="11.5128597"><ele>297.0</ele><time>2026-04-18T16:08:39.188Z</time></trkpt><trkpt lat="43.8420077" lon="11.5129706"><ele>297.0</ele><time>2026-04-18T16:08:40.187Z</time></trkpt><trkpt lat="43.8419202" lon="11.5130826"><ele>297.0</ele><time>2026-04-18T16:08:41.187Z</time></trkpt><trkpt lat="43.841834" lon="11.5131829"><ele>300.0</ele><time>2026-04-18T16:08:42.188Z</time></trkpt><trkpt lat="43.8417433" lon="11.5132445"><ele>303.0</ele><time>2026-04-18T16:08:43.188Z</time></trkpt><trkpt lat="43.8416423" lon="11.513257"><ele>306.0</ele><time>2026-04-18T16:08:44.188Z</time></trkpt><trkpt lat="43.8415569" lon="11.5132665"><ele>309.0</ele><time>2026-04-18T16:08:45.187Z</time></trkpt><trkpt lat="43.8414711" lon="11.5131738"><ele>312.0</ele><time>2026-04-18T16:08:46.188Z</time></trkpt><trkpt lat="43.8413835" lon="11.5131318"><ele>312.0</ele><time>2026-04-18T16:08:47.188Z</time></trkpt><trkpt lat="43.8412879" lon="11.5131101"><ele>312.0</ele><time>2026-04-18T16:08:48.188Z</time></trkpt><trkpt lat="43.8412088" lon="11.5131175"><ele>312.0</ele><time>2026-04-18T16:08:49.188Z</time></trkpt><trkpt lat="43.8411297" lon="11.5131815"><ele>312.0</ele><time>2026-04-18T16:08:50.188Z</time></trkpt><trkpt lat="43.8410441" lon="11.5132991"><ele>312.0</ele><time>2026-04-18T16:08:51.187Z</time></trkpt><trkpt lat="43.8409686" lon="11.513427"><ele>312.2</ele><time>2026-04-18T16:08:52.188Z</time></trkpt><trkpt lat="43.8409057" lon="11.5135375"><ele>312.4</ele><time>2026-04-18T16:08:53.188Z</time></trkpt><trkpt lat="43.8408511" lon="11.5136435"><ele>312.6</ele><time>2026-04-18T16:08:54.188Z</time></trkpt><trkpt lat="43.8408009" lon="11.5137688"><ele>312.8</ele><time>2026-04-18T16:08:55.187Z</time></trkpt><trkpt lat="43.8407602" lon="11.5139119"><ele>313.0</ele><time>2026-04-18T16:08:56.188Z</time></trkpt><trkpt lat="43.8407295" lon="11.5140563"><ele>314.6</ele><time>2026-04-18T16:08:57.188Z</time></trkpt><trkpt lat="43.8406959" lon="11.5141948"><ele>316.20000000000005</ele><time>2026-04-18T16:08:58.188Z</time></trkpt><trkpt lat="43.8406528" lon="11.5143186"><ele>317.8</ele><time>2026-04-18T16:08:59.187Z</time></trkpt><trkpt lat="43.8406008" lon="11.5144328"><ele>319.40000000000003</ele><time>2026-04-18T16:09:00.188Z</time></trkpt><trkpt lat="43.8405357" lon="11.5145253"><ele>321.0</ele><time>2026-04-18T16:09:01.188Z</time></trkpt><trkpt lat="43.8404598" lon="11.5146016"><ele>321.0</ele><time>2026-04-18T16:09:02.188Z</time></trkpt><trkpt lat="43.8403801" lon="11.5146638"><ele>321.0</ele><time>2026-04-18T16:09:03.188Z</time></trkpt><trkpt lat="43.8403053" lon="11.5147385"><ele>321.0</ele><time>2026-04-18T16:09:04.188Z</time></trkpt><trkpt lat="43.8402334" lon="11.5148577"><ele>321.0</ele><time>2026-04-18T16:09:05.188Z</time></trkpt><trkpt lat="43.8401727" lon="11.5149704"><ele>321.0</ele><time>2026-04-18T16:09:06.187Z</time></trkpt><trkpt lat="43.8401159" lon="11.5150724"><ele>321.8333333333333</ele><time>2026-04-18T16:09:07.188Z</time></trkpt><trkpt lat="43.8400619" lon="11.5151759"><ele>322.6666666666667</ele><time>2026-04-18T16:09:08.188Z</time></trkpt><trkpt lat="43.8400072" lon="11.5152739"><ele>323.5</ele><time>2026-04-18T16:09:09.188Z</time></trkpt><trkpt lat="43.8399507" lon="11.5153678"><ele>324.33333333333337</ele><time>2026-04-18T16:09:10.188Z</time></trkpt><trkpt lat="43.8398993" lon="11.5154587"><ele>325.1666666666667</ele><time>2026-04-18T16:09:11.188Z</time></trkpt><trkpt lat="43.839859" lon="11.5155486"><ele>326.0</ele><time>2026-04-18T16:09:12.188Z</time></trkpt><trkpt lat="43.8398381" lon="11.5156479"><ele>327.1666666666667</ele><time>2026-04-18T16:09:13.188Z</time></trkpt><trkpt lat="43.8398493" lon="11.5157556"><ele>328.33333333333337</ele><time>2026-04-18T16:09:14.188Z</time></trkpt><trkpt lat="43.8398796" lon="11.51587"><ele>329.5</ele><time>2026-04-18T16:09:15.188Z</time></trkpt><trkpt lat="43.8399144" lon="11.5159942"><ele>330.6666666666667</ele><time>2026-04-18T16:09:16.188Z</time></trkpt><trkpt lat="43.8399453" lon="11.5161194"><ele>331.8333333333333</ele><time>2026-04-18T16:09:17.188Z</time></trkpt><trkpt lat="43.8399679" lon="11.5162406"><ele>333.0</ele><time>2026-04-18T16:09:18.188Z</time></trkpt><trkpt lat="43.8399888" lon="11.5163596"><ele>334.2</ele><time>2026-04-18T16:09:19.188Z</time></trkpt><trkpt lat="43.8400101" lon="11.5164757"><ele>335.4</ele><time>2026-04-18T16:09:20.188Z</time></trkpt><trkpt lat="43.8400435" lon="11.5165866"><ele>336.59999999999997</ele><time>2026-04-18T16:09:21.188Z</time></trkpt><trkpt lat="43.840096" lon="11.5166882"><ele>337.79999999999995</ele><time>2026-04-18T16:09:22.188Z</time></trkpt><trkpt lat="43.8401642" lon="11.5167806"><ele>339.0</ele><time>2026-04-18T16:09:23.188Z</time></trkpt><trkpt lat="43.8402329" lon="11.5168668"><ele>339.0</ele><time>2026-04-18T16:09:24.187Z</time></trkpt><trkpt lat="43.8402947" lon="11.5169482"><ele>339.0</ele><time>2026-04-18T16:09:25.188Z</time></trkpt><trkpt lat="43.84035" lon="11.5170352"><ele>339.0</ele><time>2026-04-18T16:09:26.188Z</time></trkpt><trkpt lat="43.8403851" lon="11.5171287"><ele>339.0</ele><time>2026-04-18T16:09:27.188Z</time></trkpt><trkpt lat="43.8403944" lon="11.517221"><ele>339.0</ele><time>2026-04-18T16:09:28.188Z</time></trkpt><trkpt lat="43.8403845" lon="11.5173135"><ele>339.0</ele><time>2026-04-18T16:09:29.188Z</time></trkpt><trkpt lat="43.8403456" lon="11.5173883"><ele>339.0</ele><time>2026-04-18T16:09:30.188Z</time></trkpt><trkpt lat="43.8402777" lon="11.5174295"><ele>341.0</ele><time>2026-04-18T16:09:31.188Z</time></trkpt><trkpt lat="43.840184" lon="11.5174382"><ele>343.0</ele><time>2026-04-18T16:09:32.188Z</time></trkpt><trkpt lat="43.8400707" lon="11.517432"><ele>345.0</ele><time>2026-04-18T16:09:33.188Z</time></trkpt><trkpt lat="43.8399489" lon="11.5174247"><ele>347.0</ele><time>2026-04-18T16:09:34.187Z</time></trkpt><trkpt lat="43.839846" lon="11.5174156"><ele>349.0</ele><time>2026-04-18T16:09:35.187Z</time></trkpt><trkpt lat="43.8397541" lon="11.5174068"><ele>350.2</ele><time>2026-04-18T16:09:36.188Z</time></trkpt><trkpt lat="43.8396571" lon="11.5174003"><ele>351.4</ele><time>2026-04-18T16:09:37.187Z</time></trkpt><trkpt lat="43.8395572" lon="11.5173935"><ele>352.6</ele><time>2026-04-18T16:09:38.188Z</time></trkpt><trkpt lat="43.8394587" lon="11.5173962"><ele>353.8</ele><time>2026-04-18T16:09:39.188Z</time></trkpt><trkpt lat="43.8393646" lon="11.5174111"><ele>355.0</ele><time>2026-04-18T16:09:40.188Z</time></trkpt><trkpt lat="43.8392781" lon="11.5174381"><ele>355.66666666666663</ele><time>2026-04-18T16:09:41.188Z</time></trkpt><trkpt lat="43.8391928" lon="11.5174732"><ele>356.3333333333333</ele><time>2026-04-18T16:09:42.187Z</time></trkpt><trkpt lat="43.8391105" lon="11.5175268"><ele>357.0</ele><time>2026-04-18T16:09:43.188Z</time></trkpt><trkpt lat="43.8390351" lon="11.5176016"><ele>357.6666666666667</ele><time>2026-04-18T16:09:44.187Z</time></trkpt><trkpt lat="43.8389637" lon="11.5176794"><ele>358.33333333333337</ele><time>2026-04-18T16:09:45.188Z</time></trkpt><trkpt lat="43.8389018" lon="11.5177553"><ele>359.0</ele><time>2026-04-18T16:09:46.188Z</time></trkpt><trkpt lat="43.8388443" lon="11.5178272"><ele>359.0</ele><time>2026-04-18T16:09:47.188Z</time></trkpt><trkpt lat="43.8387858" lon="11.5178875"><ele>359.0</ele><time>2026-04-18T16:09:48.188Z</time></trkpt><trkpt lat="43.8387178" lon="11.5179172"><ele>359.0</ele><time>2026-04-18T16:09:49.187Z</time></trkpt><trkpt lat="43.8386398" lon="11.517895"><ele>359.0</ele><time>2026-04-18T16:09:50.187Z</time></trkpt><trkpt lat="43.8385703" lon="11.5178206"><ele>359.0</ele><time>2026-04-18T16:09:51.187Z</time></trkpt><trkpt lat="43.8385142" lon="11.5177092"><ele>359.0</ele><time>2026-04-18T16:09:52.188Z</time></trkpt><trkpt lat="43.838468" lon="11.5175758"><ele>366.0</ele><time>2026-04-18T16:09:53.188Z</time></trkpt><trkpt lat="43.8384179" lon="11.5174158"><ele>373.0</ele><time>2026-04-18T16:09:54.188Z</time></trkpt><trkpt lat="43.8383859" lon="11.5171976"><ele>380.0</ele><time>2026-04-18T16:09:55.188Z</time></trkpt><trkpt lat="43.8383604" lon="11.5169553"><ele>380.0</ele><time>2026-04-18T16:09:56.188Z</time></trkpt><trkpt lat="43.838334" lon="11.5167144"><ele>380.0</ele><time>2026-04-18T16:09:57.188Z</time></trkpt><trkpt lat="43.8383042" lon="11.5165114"><ele>380.0</ele><time>2026-04-18T16:09:58.187Z</time></trkpt><trkpt lat="43.8382719" lon="11.5163448"><ele>378.8</ele><time>2026-04-18T16:09:59.188Z</time></trkpt><trkpt lat="43.8382193" lon="11.5162214"><ele>377.6</ele><time>2026-04-18T16:10:00.188Z</time></trkpt><trkpt lat="43.8381393" lon="11.516125"><ele>376.4</ele><time>2026-04-18T16:10:01.188Z</time></trkpt><trkpt lat="43.8380328" lon="11.5160737"><ele>375.2</ele><time>2026-04-18T16:10:02.188Z</time></trkpt><trkpt lat="43.8379169" lon="11.5160552"><ele>374.0</ele><time>2026-04-18T16:10:03.188Z</time></trkpt><trkpt lat="43.8377904" lon="11.5160725"><ele>374.0</ele><time>2026-04-18T16:10:04.188Z</time></trkpt><trkpt lat="43.8376529" lon="11.5161192"><ele>374.0</ele><time>2026-04-18T16:10:05.187Z</time></trkpt><trkpt lat="43.8375103" lon="11.5161971"><ele>374.0</ele><time>2026-04-18T16:10:06.188Z</time></trkpt><trkpt lat="43.8373617" lon="11.5163158"><ele>378.25</ele><time>2026-04-18T16:10:07.188Z</time></trkpt><trkpt lat="43.8372322" lon="11.5164523"><ele>382.5</ele><time>2026-04-18T16:10:08.187Z</time></trkpt><trkpt lat="43.8371171" lon="11.5165663"><ele>386.75</ele><time>2026-04-18T16:10:09.188Z</time></trkpt><trkpt lat="43.8369856" lon="11.5166437"><ele>391.0</ele><time>2026-04-18T16:10:10.188Z</time></trkpt><trkpt lat="43.8368286" lon="11.5166967"><ele>391.0</ele><time>2026-04-18T16:10:11.188Z</time></trkpt><trkpt lat="43.8366615" lon="11.5167405"><ele>391.0</ele><time>2026-04-18T16:10:12.187Z</time></trkpt><trkpt lat="43.8365037" lon="11.5167848"><ele>391.0</ele><time>2026-04-18T16:10:13.188Z</time></trkpt><trkpt lat="43.8363646" lon="11.516808"><ele>391.0</ele><time>2026-04-18T16:10:14.187Z</time></trkpt><trkpt lat="43.8362383" lon="11.5167909"><ele>391.0</ele><time>2026-04-18T16:10:15.188Z</time></trkpt><trkpt lat="43.8361076" lon="11.5167291"><ele>391.0</ele><time>2026-04-18T16:10:16.187Z</time></trkpt><trkpt lat="43.8359777" lon="11.5166384"><ele>391.0</ele><time>2026-04-18T16:10:17.187Z</time></trkpt><trkpt lat="43.8358395" lon="11.5165456"><ele>393.25</ele><time>2026-04-18T16:10:18.188Z</time></trkpt><trkpt lat="43.8357156" lon="11.5164657"><ele>395.5</ele><time>2026-04-18T16:10:19.188Z</time></trkpt><trkpt lat="43.8355867" lon="11.5164007"><ele>397.75</ele><time>2026-04-18T16:10:20.188Z</time></trkpt><trkpt lat="43.8354521" lon="11.5163486"><ele>400.0</ele><time>2026-04-18T16:10:21.188Z</time></trkpt><trkpt lat="43.8353177" lon="11.5163171"><ele>400.0</ele><time>2026-04-18T16:10:22.187Z</time></trkpt><trkpt lat="43.8351923" lon="11.5162934"><ele>400.0</ele><time>2026-04-18T16:10:23.187Z</time></trkpt><trkpt lat="43.8350848" lon="11.5162835"><ele>400.0</ele><time>2026-04-18T16:10:24.188Z</time></trkpt><trkpt lat="43.8349965" lon="11.5162847"><ele>400.0</ele><time>2026-04-18T16:10:25.188Z</time></trkpt><trkpt lat="43.8349209" lon="11.5162961"><ele>400.0</ele><time>2026-04-18T16:10:26.188Z</time></trkpt><trkpt lat="43.8348469" lon="11.5163191"><ele>402.00000000000006</ele><time>2026-04-18T16:10:27.188Z</time></trkpt><trkpt lat="43.8347719" lon="11.5163543"><ele>404.0</ele><time>2026-04-18T16:10:28.188Z</time></trkpt><trkpt lat="43.8347024" lon="11.5163914"><ele>406.0</ele><time>2026-04-18T16:10:29.187Z</time></trkpt><trkpt lat="43.8346267" lon="11.5164173"><ele>408.0</ele><time>2026-04-18T16:10:30.188Z</time></trkpt><trkpt lat="43.8345427" lon="11.5164101"><ele>410.00000000000006</ele><time>2026-04-18T16:10:31.186Z</time></trkpt><trkpt lat="43.8344648" lon="11.5163601"><ele>412.0</ele><time>2026-04-18T16:10:32.188Z</time></trkpt><trkpt lat="43.8343901" lon="11.5163009"><ele>412.0</ele><time>2026-04-18T16:10:33.188Z</time></trkpt><trkpt lat="43.8343063" lon="11.5162766"><ele>412.0</ele><time>2026-04-18T16:10:34.188Z</time></trkpt><trkpt lat="43.8342089" lon="11.5162876"><ele>412.0</ele><time>2026-04-18T16:10:35.188Z</time></trkpt><trkpt lat="43.8341125" lon="11.5163128"><ele>412.0</ele><time>2026-04-18T16:10:36.188Z</time></trkpt><trkpt lat="43.8340249" lon="11.5163381"><ele>412.0</ele><time>2026-04-18T16:10:37.187Z</time></trkpt><trkpt lat="43.833939" lon="11.5163669"><ele>412.50000000000006</ele><time>2026-04-18T16:10:38.188Z</time></trkpt><trkpt lat="43.8338489" lon="11.5164051"><ele>413.0</ele><time>2026-04-18T16:10:39.188Z</time></trkpt><trkpt lat="43.8337655" lon="11.5164483"><ele>413.5</ele><time>2026-04-18T16:10:40.188Z</time></trkpt><trkpt lat="43.8336893" lon="11.5164942"><ele>414.0</ele><time>2026-04-18T16:10:41.188Z</time></trkpt><trkpt lat="43.83362" lon="11.5165466"><ele>414.50000000000006</ele><time>2026-04-18T16:10:42.188Z</time></trkpt><trkpt lat="43.8335519" lon="11.5166118"><ele>415.0</ele><time>2026-04-18T16:10:43.187Z</time></trkpt><trkpt lat="43.8334845" lon="11.5166853"><ele>415.33333333333337</ele><time>2026-04-18T16:10:44.188Z</time></trkpt><trkpt lat="43.8334161" lon="11.5167552"><ele>415.6666666666667</ele><time>2026-04-18T16:10:45.188Z</time></trkpt><trkpt lat="43.8333452" lon="11.5168148"><ele>416.0</ele><time>2026-04-18T16:10:46.188Z</time></trkpt><trkpt lat="43.8332729" lon="11.5168507"><ele>416.33333333333337</ele><time>2026-04-18T16:10:47.188Z</time></trkpt><trkpt lat="43.8332036" lon="11.5168419"><ele>416.6666666666667</ele><time>2026-04-18T16:10:48.188Z</time></trkpt><trkpt lat="43.8331371" lon="11.5167927"><ele>417.0</ele><time>2026-04-18T16:10:49.187Z</time></trkpt><trkpt lat="43.8330874" lon="11.5167179"><ele>417.0</ele><time>2026-04-18T16:10:50.188Z</time></trkpt><trkpt lat="43.8330622" lon="11.5166204"><ele>417.0</ele><time>2026-04-18T16:10:51.186Z</time></trkpt><trkpt lat="43.8330579" lon="11.5165168"><ele>417.0</ele><time>2026-04-18T16:10:52.188Z</time></trkpt><trkpt lat="43.83305" lon="11.5164067"><ele>417.0</ele><time>2026-04-18T16:10:53.188Z</time></trkpt><trkpt lat="43.8330398" lon="11.5162969"><ele>417.0</ele><time>2026-04-18T16:10:54.187Z</time></trkpt><trkpt lat="43.833017" lon="11.5161856"><ele>417.0</ele><time>2026-04-18T16:10:55.187Z</time></trkpt><trkpt lat="43.8329519" lon="11.5161022"><ele>416.0</ele><time>2026-04-18T16:10:56.188Z</time></trkpt><trkpt lat="43.8328905" lon="11.5160269"><ele>415.0</ele><time>2026-04-18T16:10:57.188Z</time></trkpt><trkpt lat="43.8328135" lon="11.515985"><ele>414.0</ele><time>2026-04-18T16:10:58.187Z</time></trkpt><trkpt lat="43.832706" lon="11.515954"><ele>413.0</ele><time>2026-04-18T16:10:59.187Z</time></trkpt><trkpt lat="43.8325962" lon="11.5159355"><ele>412.0</ele><time>2026-04-18T16:11:00.187Z</time></trkpt><trkpt lat="43.8324936" lon="11.5159102"><ele>412.0</ele><time>2026-04-18T16:11:01.188Z</time></trkpt><trkpt lat="43.8323876" lon="11.5158758"><ele>412.0</ele><time>2026-04-18T16:11:02.187Z</time></trkpt><trkpt lat="43.8322844" lon="11.5158406"><ele>412.0</ele><time>2026-04-18T16:11:03.188Z</time></trkpt><trkpt lat="43.8321831" lon="11.5158029"><ele>412.0</ele><time>2026-04-18T16:11:04.188Z</time></trkpt><trkpt lat="43.8320903" lon="11.5157585"><ele>412.0</ele><time>2026-04-18T16:11:05.188Z</time></trkpt><trkpt lat="43.8320023" lon="11.515709"><ele>412.0</ele><time>2026-04-18T16:11:06.187Z</time></trkpt><trkpt lat="43.8319159" lon="11.5156606"><ele>412.0</ele><time>2026-04-18T16:11:07.187Z</time></trkpt><trkpt lat="43.831828" lon="11.5156238"><ele>412.0</ele><time>2026-04-18T16:11:08.188Z</time></trkpt><trkpt lat="43.8317396" lon="11.5156125"><ele>412.0</ele><time>2026-04-18T16:11:09.188Z</time></trkpt><trkpt lat="43.8316485" lon="11.5156401"><ele>412.0</ele><time>2026-04-18T16:11:10.187Z</time></trkpt><trkpt lat="43.8315506" lon="11.5156888"><ele>413.6</ele><time>2026-04-18T16:11:11.188Z</time></trkpt><trkpt lat="43.8314511" lon="11.5157125"><ele>415.20000000000005</ele><time>2026-04-18T16:11:12.188Z</time></trkpt><trkpt lat="43.831348" lon="11.5156923"><ele>416.8</ele><time>2026-04-18T16:11:13.188Z</time></trkpt><trkpt lat="43.8312467" lon="11.5156351"><ele>418.4</ele><time>2026-04-18T16:11:14.188Z</time></trkpt><trkpt lat="43.8311447" lon="11.5155644"><ele>420.0</ele><time>2026-04-18T16:11:15.188Z</time></trkpt><trkpt lat="43.8310489" lon="11.5155038"><ele>420.3333333333333</ele><time>2026-04-18T16:11:16.187Z</time></trkpt><trkpt lat="43.8309596" lon="11.5154443"><ele>420.66666666666663</ele><time>2026-04-18T16:11:17.188Z</time></trkpt><trkpt lat="43.8308781" lon="11.5153881"><ele>421.0</ele><time>2026-04-18T16:11:18.188Z</time></trkpt><trkpt lat="43.8308017" lon="11.5153374"><ele>421.3333333333333</ele><time>2026-04-18T16:11:19.187Z</time></trkpt><trkpt lat="43.8307303" lon="11.5152928"><ele>421.66666666666663</ele><time>2026-04-18T16:11:20.187Z</time></trkpt><trkpt lat="43.8306528" lon="11.515256"><ele>422.0</ele><time>2026-04-18T16:11:21.188Z</time></trkpt><trkpt lat="43.8305653" lon="11.5152385"><ele>422.0</ele><time>2026-04-18T16:11:22.187Z</time></trkpt><trkpt lat="43.8304775" lon="11.5152593"><ele>422.0</ele><time>2026-04-18T16:11:23.188Z</time></trkpt><trkpt lat="43.8304031" lon="11.5153363"><ele>422.0</ele><time>2026-04-18T16:11:24.188Z</time></trkpt><trkpt lat="43.8303363" lon="11.5154512"><ele>422.0</ele><time>2026-04-18T16:11:25.187Z</time></trkpt><trkpt lat="43.8302799" lon="11.5155788"><ele>422.0</ele><time>2026-04-18T16:11:26.187Z</time></trkpt><trkpt lat="43.8302281" lon="11.5157143"><ele>423.0</ele><time>2026-04-18T16:11:27.188Z</time></trkpt><trkpt lat="43.8301838" lon="11.5158484"><ele>424.0</ele><time>2026-04-18T16:11:28.188Z</time></trkpt><trkpt lat="43.8301403" lon="11.5159736"><ele>425.00000000000006</ele><time>2026-04-18T16:11:29.187Z</time></trkpt><trkpt lat="43.8300957" lon="11.5161003"><ele>426.0</ele><time>2026-04-18T16:11:30.188Z</time></trkpt><trkpt lat="43.8300472" lon="11.516228"><ele>427.0</ele><time>2026-04-18T16:11:31.188Z</time></trkpt><trkpt lat="43.8299907" lon="11.5163497"><ele>431.20000000000005</ele><time>2026-04-18T16:11:32.188Z</time></trkpt><trkpt lat="43.8299282" lon="11.5164555"><ele>435.40000000000003</ele><time>2026-04-18T16:11:33.188Z</time></trkpt><trkpt lat="43.8298613" lon="11.5165515"><ele>439.59999999999997</ele><time>2026-04-18T16:11:34.187Z</time></trkpt><trkpt lat="43.8297881" lon="11.5166436"><ele>443.79999999999995</ele><time>2026-04-18T16:11:35.188Z</time></trkpt><trkpt lat="43.8297204" lon="11.5167344"><ele>448.0</ele><time>2026-04-18T16:11:36.187Z</time></trkpt><trkpt lat="43.829653" lon="11.5168153"><ele>448.00000000000006</ele><time>2026-04-18T16:11:37.188Z</time></trkpt><trkpt lat="43.829589" lon="11.5169027"><ele>448.0</ele><time>2026-04-18T16:11:38.188Z</time></trkpt><trkpt lat="43.8295287" lon="11.5169837"><ele>448.0</ele><time>2026-04-18T16:11:39.187Z</time></trkpt><trkpt lat="43.8294861" lon="11.5170732"><ele>448.0</ele><time>2026-04-18T16:11:40.188Z</time></trkpt><trkpt lat="43.8294498" lon="11.517167"><ele>448.00000000000006</ele><time>2026-04-18T16:11:41.187Z</time></trkpt><trkpt lat="43.8294276" lon="11.5172616"><ele>448.0</ele><time>2026-04-18T16:11:42.187Z</time></trkpt><trkpt lat="43.8294241" lon="11.5173699"><ele>449.6666666666667</ele><time>2026-04-18T16:11:43.188Z</time></trkpt><trkpt lat="43.8294501" lon="11.5174784"><ele>451.33333333333337</ele><time>2026-04-18T16:11:44.188Z</time></trkpt><trkpt lat="43.8294983" lon="11.517573"><ele>453.0</ele><time>2026-04-18T16:11:45.188Z</time></trkpt><trkpt lat="43.8295714" lon="11.5176546"><ele>454.66666666666663</ele><time>2026-04-18T16:11:46.187Z</time></trkpt><trkpt lat="43.8296518" lon="11.5177327"><ele>456.3333333333333</ele><time>2026-04-18T16:11:47.188Z</time></trkpt><trkpt lat="43.8297309" lon="11.5177957"><ele>458.0</ele><time>2026-04-18T16:11:48.187Z</time></trkpt><trkpt lat="43.829803" lon="11.5178509"><ele>458.16666666666663</ele><time>2026-04-18T16:11:49.188Z</time></trkpt><trkpt lat="43.8298682" lon="11.5179075"><ele>458.3333333333333</ele><time>2026-04-18T16:11:50.188Z</time></trkpt><trkpt lat="43.8299339" lon="11.5179705"><ele>458.5</ele><time>2026-04-18T16:11:51.188Z</time></trkpt><trkpt lat="43.829965" lon="11.5180922"><ele>458.66666666666663</ele><time>2026-04-18T16:11:52.188Z</time></trkpt><trkpt lat="43.8299781" lon="11.5182154"><ele>458.8333333333333</ele><time>2026-04-18T16:11:53.188Z</time></trkpt><trkpt lat="43.8299786" lon="11.5183428"><ele>459.0</ele><time>2026-04-18T16:11:54.187Z</time></trkpt><trkpt lat="43.8299702" lon="11.5184749"><ele>459.0</ele><time>2026-04-18T16:11:55.188Z</time></trkpt><trkpt lat="43.8299656" lon="11.518603"><ele>459.0</ele><time>2026-04-18T16:11:56.188Z</time></trkpt><trkpt lat="43.8299668" lon="11.5187194"><ele>459.0</ele><time>2026-04-18T16:11:57.188Z</time></trkpt><trkpt lat="43.8299557" lon="11.5188299"><ele>459.0</ele><time>2026-04-18T16:11:58.188Z</time></trkpt><trkpt lat="43.8299275" lon="11.5189226"><ele>459.0</ele><time>2026-04-18T16:11:59.188Z</time></trkpt><trkpt lat="43.8298487" lon="11.5190243"><ele>459.0</ele><time>2026-04-18T16:12:01.188Z</time></trkpt><trkpt lat="43.8297281" lon="11.5190912"><ele>459.57142857142856</ele><time>2026-04-18T16:12:03.188Z</time></trkpt><trkpt lat="43.8296619" lon="11.5191473"><ele>460.1428571428571</ele><time>2026-04-18T16:12:04.188Z</time></trkpt><trkpt lat="43.8296034" lon="11.5192186"><ele>460.71428571428567</ele><time>2026-04-18T16:12:05.187Z</time></trkpt><trkpt lat="43.8295591" lon="11.5192922"><ele>461.2857142857143</ele><time>2026-04-18T16:12:06.187Z</time></trkpt><trkpt lat="43.8295305" lon="11.519377"><ele>461.8571428571428</ele><time>2026-04-18T16:12:07.186Z</time></trkpt><trkpt lat="43.8295144" lon="11.5194705"><ele>462.4285714285714</ele><time>2026-04-18T16:12:08.187Z</time></trkpt><trkpt lat="43.8295074" lon="11.5195912"><ele>463.0</ele><time>2026-04-18T16:12:09.188Z</time></trkpt><trkpt lat="43.8295091" lon="11.5197281"><ele>464.2</ele><time>2026-04-18T16:12:10.188Z</time></trkpt><trkpt lat="43.8295212" lon="11.5198722"><ele>465.4</ele><time>2026-04-18T16:12:11.188Z</time></trkpt><trkpt lat="43.829545" lon="11.5200159"><ele>466.59999999999997</ele><time>2026-04-18T16:12:12.188Z</time></trkpt><trkpt lat="43.8295776" lon="11.5201626"><ele>467.79999999999995</ele><time>2026-04-18T16:12:13.188Z</time></trkpt><trkpt lat="43.8296145" lon="11.5203134"><ele>469.0</ele><time>2026-04-18T16:12:14.188Z</time></trkpt><trkpt lat="43.8296626" lon="11.5204686"><ele>469.0</ele><time>2026-04-18T16:12:15.188Z</time></trkpt><trkpt lat="43.8297234" lon="11.5206147"><ele>469.0</ele><time>2026-04-18T16:12:16.188Z</time></trkpt><trkpt lat="43.8297882" lon="11.5207557"><ele>469.0</ele><time>2026-04-18T16:12:17.188Z</time></trkpt><trkpt lat="43.8298591" lon="11.5208954"><ele>469.0</ele><time>2026-04-18T16:12:18.188Z</time></trkpt><trkpt lat="43.8299248" lon="11.5210226"><ele>469.0</ele><time>2026-04-18T16:12:19.187Z</time></trkpt><trkpt lat="43.8299815" lon="11.521148"><ele>469.0</ele><time>2026-04-18T16:12:20.188Z</time></trkpt><trkpt lat="43.8300043" lon="11.5212773"><ele>469.0</ele><time>2026-04-18T16:12:21.188Z</time></trkpt><trkpt lat="43.8299828" lon="11.5214075"><ele>469.0</ele><time>2026-04-18T16:12:22.188Z</time></trkpt><trkpt lat="43.8299384" lon="11.5215321"><ele>469.0</ele><time>2026-04-18T16:12:23.188Z</time></trkpt><trkpt lat="43.8298955" lon="11.5216495"><ele>468.0</ele><time>2026-04-18T16:12:24.188Z</time></trkpt><trkpt lat="43.8298842" lon="11.5217811"><ele>467.0</ele><time>2026-04-18T16:12:25.187Z</time></trkpt><trkpt lat="43.8299047" lon="11.5219291"><ele>466.0</ele><time>2026-04-18T16:12:26.187Z</time></trkpt><trkpt lat="43.8299546" lon="11.5220657"><ele>465.0</ele><time>2026-04-18T16:12:27.188Z</time></trkpt><trkpt lat="43.8300107" lon="11.5221858"><ele>464.0</ele><time>2026-04-18T16:12:28.187Z</time></trkpt><trkpt lat="43.8300684" lon="11.5223078"><ele>462.5</ele><time>2026-04-18T16:12:29.188Z</time></trkpt><trkpt lat="43.8301293" lon="11.5224314"><ele>461.0</ele><time>2026-04-18T16:12:30.187Z</time></trkpt><trkpt lat="43.8301933" lon="11.5225487"><ele>459.5</ele><time>2026-04-18T16:12:31.187Z</time></trkpt><trkpt lat="43.8302765" lon="11.5226569"><ele>458.0</ele><time>2026-04-18T16:12:32.188Z</time></trkpt><trkpt lat="43.8303965" lon="11.5227777"><ele>461.66666666666663</ele><time>2026-04-18T16:12:33.188Z</time></trkpt><trkpt lat="43.8305254" lon="11.5228831"><ele>465.33333333333337</ele><time>2026-04-18T16:12:34.187Z</time></trkpt><trkpt lat="43.8306625" lon="11.5229825"><ele>469.0</ele><time>2026-04-18T16:12:35.188Z</time></trkpt><trkpt lat="43.8307923" lon="11.5230751"><ele>469.0</ele><time>2026-04-18T16:12:36.188Z</time></trkpt><trkpt lat="43.8309067" lon="11.5231572"><ele>469.0</ele><time>2026-04-18T16:12:37.188Z</time></trkpt><trkpt lat="43.8310053" lon="11.523232"><ele>469.0</ele><time>2026-04-18T16:12:38.187Z</time></trkpt><trkpt lat="43.8310862" lon="11.523309"><ele>469.0</ele><time>2026-04-18T16:12:39.187Z</time></trkpt><trkpt lat="43.8311467" lon="11.5234109"><ele>469.0</ele><time>2026-04-18T16:12:40.188Z</time></trkpt><trkpt lat="43.8311699" lon="11.5235383"><ele>469.5</ele><time>2026-04-18T16:12:41.188Z</time></trkpt><trkpt lat="43.8311572" lon="11.5236696"><ele>470.0</ele><time>2026-04-18T16:12:42.188Z</time></trkpt><trkpt lat="43.8311092" lon="11.5237969"><ele>470.5</ele><time>2026-04-18T16:12:43.188Z</time></trkpt><trkpt lat="43.8310582" lon="11.5239561"><ele>471.0</ele><time>2026-04-18T16:12:44.188Z</time></trkpt><trkpt lat="43.8309399" lon="11.5241215"><ele>471.0</ele><time>2026-04-18T16:12:45.187Z</time></trkpt><trkpt lat="43.8307536" lon="11.5244586"><ele>471.0</ele><time>2026-04-18T16:12:47.188Z</time></trkpt><trkpt lat="43.8306583" lon="11.5246275"><ele>475.66666666666663</ele><time>2026-04-18T16:12:48.188Z</time></trkpt><trkpt lat="43.8305631" lon="11.5247969"><ele>480.3333333333333</ele><time>2026-04-18T16:12:49.188Z</time></trkpt><trkpt lat="43.8304692" lon="11.5249661"><ele>485.0</ele><time>2026-04-18T16:12:50.187Z</time></trkpt><trkpt lat="43.8303776" lon="11.5251269"><ele>485.0</ele><time>2026-04-18T16:12:51.187Z</time></trkpt><trkpt lat="43.8302885" lon="11.5252829"><ele>485.0</ele><time>2026-04-18T16:12:52.188Z</time></trkpt><trkpt lat="43.8302078" lon="11.5254378"><ele>485.0</ele><time>2026-04-18T16:12:53.188Z</time></trkpt><trkpt lat="43.8301364" lon="11.5255931"><ele>485.0</ele><time>2026-04-18T16:12:54.188Z</time></trkpt><trkpt lat="43.8300778" lon="11.5257432"><ele>482.8</ele><time>2026-04-18T16:12:55.188Z</time></trkpt><trkpt lat="43.8300289" lon="11.5259022"><ele>480.6</ele><time>2026-04-18T16:12:56.188Z</time></trkpt><trkpt lat="43.8299954" lon="11.5260455"><ele>478.4</ele><time>2026-04-18T16:12:57.187Z</time></trkpt><trkpt lat="43.8299752" lon="11.5261769"><ele>476.2</ele><time>2026-04-18T16:12:58.188Z</time></trkpt><trkpt lat="43.8299816" lon="11.5263179"><ele>474.0</ele><time>2026-04-18T16:12:59.188Z</time></trkpt><trkpt lat="43.8300045" lon="11.5264787"><ele>474.0</ele><time>2026-04-18T16:13:00.187Z</time></trkpt><trkpt lat="43.8300287" lon="11.5266309"><ele>474.0</ele><time>2026-04-18T16:13:01.188Z</time></trkpt><trkpt lat="43.8301335" lon="11.5267505"><ele>474.0</ele><time>2026-04-18T16:13:02.187Z</time></trkpt><trkpt lat="43.8301844" lon="11.5269093"><ele>474.0</ele><time>2026-04-18T16:13:03.188Z</time></trkpt><trkpt lat="43.8302139" lon="11.5270894"><ele>480.0</ele><time>2026-04-18T16:13:04.188Z</time></trkpt><trkpt lat="43.8302399" lon="11.5272749"><ele>486.0</ele><time>2026-04-18T16:13:05.187Z</time></trkpt><trkpt lat="43.8302673" lon="11.5274548"><ele>492.0</ele><time>2026-04-18T16:13:06.188Z</time></trkpt><trkpt lat="43.8302896" lon="11.527623"><ele>498.0</ele><time>2026-04-18T16:13:07.188Z</time></trkpt><trkpt lat="43.8303138" lon="11.5277922"><ele>497.25</ele><time>2026-04-18T16:13:08.188Z</time></trkpt><trkpt lat="43.830331" lon="11.5279711"><ele>496.5</ele><time>2026-04-18T16:13:09.188Z</time></trkpt><trkpt lat="43.8303409" lon="11.5281606"><ele>495.75</ele><time>2026-04-18T16:13:10.188Z</time></trkpt><trkpt lat="43.8303396" lon="11.5283527"><ele>495.0</ele><time>2026-04-18T16:13:11.188Z</time></trkpt><trkpt lat="43.8303256" lon="11.5285471"><ele>496.0</ele><time>2026-04-18T16:13:12.188Z</time></trkpt><trkpt lat="43.8303121" lon="11.5287484"><ele>497.0</ele><time>2026-04-18T16:13:13.188Z</time></trkpt><trkpt lat="43.8302799" lon="11.5289358"><ele>498.0</ele><time>2026-04-18T16:13:14.188Z</time></trkpt><trkpt lat="43.8302137" lon="11.5290762"><ele>499.0</ele><time>2026-04-18T16:13:15.188Z</time></trkpt><trkpt lat="43.8301204" lon="11.5291794"><ele>496.79999999999995</ele><time>2026-04-18T16:13:16.188Z</time></trkpt><trkpt lat="43.8300122" lon="11.5292477"><ele>494.59999999999997</ele><time>2026-04-18T16:13:17.188Z</time></trkpt><trkpt lat="43.8299065" lon="11.5292987"><ele>492.4</ele><time>2026-04-18T16:13:18.187Z</time></trkpt><trkpt lat="43.8298143" lon="11.5293476"><ele>490.2</ele><time>2026-04-18T16:13:19.188Z</time></trkpt><trkpt lat="43.8297239" lon="11.5294176"><ele>488.0</ele><time>2026-04-18T16:13:20.188Z</time></trkpt><trkpt lat="43.8296522" lon="11.529525"><ele>489.4</ele><time>2026-04-18T16:13:21.188Z</time></trkpt><trkpt lat="43.829595" lon="11.5296737"><ele>490.79999999999995</ele><time>2026-04-18T16:13:22.187Z</time></trkpt><trkpt lat="43.8295534" lon="11.5298253"><ele>492.2</ele><time>2026-04-18T16:13:23.188Z</time></trkpt><trkpt lat="43.8295182" lon="11.5299629"><ele>493.6</ele><time>2026-04-18T16:13:24.188Z</time></trkpt><trkpt lat="43.8294835" lon="11.5300962"><ele>495.0</ele><time>2026-04-18T16:13:25.188Z</time></trkpt><trkpt lat="43.8294449" lon="11.5302318"><ele>495.0</ele><time>2026-04-18T16:13:26.187Z</time></trkpt><trkpt lat="43.8294077" lon="11.530362"><ele>495.0</ele><time>2026-04-18T16:13:27.188Z</time></trkpt><trkpt lat="43.829379" lon="11.5304832"><ele>495.0</ele><time>2026-04-18T16:13:28.187Z</time></trkpt><trkpt lat="43.8293684" lon="11.530615"><ele>495.0</ele><time>2026-04-18T16:13:29.188Z</time></trkpt><trkpt lat="43.8293716" lon="11.5307653"><ele>495.0</ele><time>2026-04-18T16:13:30.188Z</time></trkpt><trkpt lat="43.829384" lon="11.5309266"><ele>495.75</ele><time>2026-04-18T16:13:31.187Z</time></trkpt><trkpt lat="43.8293951" lon="11.5310956"><ele>496.5</ele><time>2026-04-18T16:13:32.187Z</time></trkpt><trkpt lat="43.8293891" lon="11.5312598"><ele>497.25</ele><time>2026-04-18T16:13:33.186Z</time></trkpt><trkpt lat="43.8293591" lon="11.531415"><ele>498.0</ele><time>2026-04-18T16:13:34.187Z</time></trkpt><trkpt lat="43.8293102" lon="11.5315665"><ele>496.75</ele><time>2026-04-18T16:13:35.188Z</time></trkpt><trkpt lat="43.8292538" lon="11.5317263"><ele>495.5</ele><time>2026-04-18T16:13:36.188Z</time></trkpt><trkpt lat="43.8291937" lon="11.5318996"><ele>494.25</ele><time>2026-04-18T16:13:37.187Z</time></trkpt><trkpt lat="43.82913" lon="11.5320777"><ele>493.0</ele><time>2026-04-18T16:13:38.188Z</time></trkpt><trkpt lat="43.8290646" lon="11.5322583"><ele>493.0</ele><time>2026-04-18T16:13:39.188Z</time></trkpt><trkpt lat="43.8289983" lon="11.5324293"><ele>493.0</ele><time>2026-04-18T16:13:40.188Z</time></trkpt><trkpt lat="43.8289328" lon="11.5325962"><ele>493.0</ele><time>2026-04-18T16:13:41.187Z</time></trkpt><trkpt lat="43.8288696" lon="11.53276"><ele>493.0</ele><time>2026-04-18T16:13:42.188Z</time></trkpt><trkpt lat="43.8288116" lon="11.5329103"><ele>493.0</ele><time>2026-04-18T16:13:43.188Z</time></trkpt><trkpt lat="43.828753" lon="11.5330468"><ele>492.99999999999994</ele><time>2026-04-18T16:13:44.188Z</time></trkpt><trkpt lat="43.8287058" lon="11.5331827"><ele>492.99999999999994</ele><time>2026-04-18T16:13:45.188Z</time></trkpt><trkpt lat="43.8286905" lon="11.5333073"><ele>493.0</ele><time>2026-04-18T16:13:46.188Z</time></trkpt><trkpt lat="43.8287156" lon="11.5334202"><ele>493.0</ele><time>2026-04-18T16:13:47.188Z</time></trkpt><trkpt lat="43.8287615" lon="11.5335338"><ele>493.0</ele><time>2026-04-18T16:13:48.187Z</time></trkpt><trkpt lat="43.8288132" lon="11.5336643"><ele>492.99999999999994</ele><time>2026-04-18T16:13:49.188Z</time></trkpt><trkpt lat="43.8288616" lon="11.5337999"><ele>492.99999999999994</ele><time>2026-04-18T16:13:50.187Z</time></trkpt><trkpt lat="43.8288993" lon="11.5339212"><ele>493.0</ele><time>2026-04-18T16:13:51.187Z</time></trkpt><trkpt lat="43.828914" lon="11.5340422"><ele>493.0</ele><time>2026-04-18T16:13:52.188Z</time></trkpt><trkpt lat="43.8288853" lon="11.5341611"><ele>494.25</ele><time>2026-04-18T16:13:53.188Z</time></trkpt><trkpt lat="43.8288362" lon="11.534291"><ele>495.5</ele><time>2026-04-18T16:13:54.187Z</time></trkpt><trkpt lat="43.8287897" lon="11.5344443"><ele>496.75</ele><time>2026-04-18T16:13:55.188Z</time></trkpt><trkpt lat="43.8287448" lon="11.5346015"><ele>498.0</ele><time>2026-04-18T16:13:56.188Z</time></trkpt><trkpt lat="43.828695" lon="11.5347511"><ele>500.5</ele><time>2026-04-18T16:13:57.188Z</time></trkpt><trkpt lat="43.8286388" lon="11.5348995"><ele>503.0</ele><time>2026-04-18T16:13:58.187Z</time></trkpt><trkpt lat="43.8285807" lon="11.53504"><ele>505.5</ele><time>2026-04-18T16:13:59.188Z</time></trkpt><trkpt lat="43.8285237" lon="11.5351786"><ele>508.0</ele><time>2026-04-18T16:14:00.188Z</time></trkpt><trkpt lat="43.8284659" lon="11.5353152"><ele>506.2</ele><time>2026-04-18T16:14:01.188Z</time></trkpt><trkpt lat="43.8284154" lon="11.53544"><ele>504.4</ele><time>2026-04-18T16:14:02.188Z</time></trkpt><trkpt lat="43.8283646" lon="11.5355661"><ele>502.59999999999997</ele><time>2026-04-18T16:14:03.188Z</time></trkpt><trkpt lat="43.828291" lon="11.5356409"><ele>500.79999999999995</ele><time>2026-04-18T16:14:04.188Z</time></trkpt><trkpt lat="43.828203" lon="11.5356719"><ele>499.0</ele><time>2026-04-18T16:14:05.188Z</time></trkpt><trkpt lat="43.8281108" lon="11.5356678"><ele>499.0</ele><time>2026-04-18T16:14:06.186Z</time></trkpt><trkpt lat="43.8280149" lon="11.5356702"><ele>499.0</ele><time>2026-04-18T16:14:07.188Z</time></trkpt><trkpt lat="43.8279166" lon="11.5357014"><ele>499.0</ele><time>2026-04-18T16:14:08.187Z</time></trkpt><trkpt lat="43.8278183" lon="11.5357642"><ele>499.0</ele><time>2026-04-18T16:14:09.188Z</time></trkpt><trkpt lat="43.827738" lon="11.5358668"><ele>499.0</ele><time>2026-04-18T16:14:10.188Z</time></trkpt><trkpt lat="43.827646" lon="11.5360068"><ele>499.0</ele><time>2026-04-18T16:14:11.187Z</time></trkpt><trkpt lat="43.8275486" lon="11.5361514"><ele>499.0</ele><time>2026-04-18T16:14:12.187Z</time></trkpt><trkpt lat="43.8274593" lon="11.5362763"><ele>499.0</ele><time>2026-04-18T16:14:13.188Z</time></trkpt><trkpt lat="43.8273746" lon="11.5363984"><ele>499.0</ele><time>2026-04-18T16:14:14.187Z</time></trkpt><trkpt lat="43.827283" lon="11.5365153"><ele>499.0</ele><time>2026-04-18T16:14:15.188Z</time></trkpt><trkpt lat="43.8271917" lon="11.5366317"><ele>499.0</ele><time>2026-04-18T16:14:16.188Z</time></trkpt><trkpt lat="43.8270993" lon="11.5367483"><ele>499.0</ele><time>2026-04-18T16:14:17.188Z</time></trkpt><trkpt lat="43.8270092" lon="11.5368732"><ele>499.0</ele><time>2026-04-18T16:14:18.188Z</time></trkpt><trkpt lat="43.8269168" lon="11.5370143"><ele>497.75</ele><time>2026-04-18T16:14:19.187Z</time></trkpt><trkpt lat="43.826824" lon="11.5371594"><ele>496.5</ele><time>2026-04-18T16:14:20.188Z</time></trkpt><trkpt lat="43.8267295" lon="11.5373039"><ele>495.25</ele><time>2026-04-18T16:14:21.187Z</time></trkpt><trkpt lat="43.8266374" lon="11.5374507"><ele>494.0</ele><time>2026-04-18T16:14:22.188Z</time></trkpt><trkpt lat="43.8265463" lon="11.5375938"><ele>494.0</ele><time>2026-04-18T16:14:23.188Z</time></trkpt><trkpt lat="43.8264593" lon="11.5377347"><ele>494.0</ele><time>2026-04-18T16:14:24.188Z</time></trkpt><trkpt lat="43.8263808" lon="11.5378783"><ele>494.0</ele><time>2026-04-18T16:14:25.188Z</time></trkpt><trkpt lat="43.8263093" lon="11.5380208"><ele>494.0</ele><time>2026-04-18T16:14:26.187Z</time></trkpt><trkpt lat="43.8262456" lon="11.5381517"><ele>498.5</ele><time>2026-04-18T16:14:27.187Z</time></trkpt><trkpt lat="43.8261857" lon="11.5382817"><ele>503.0</ele><time>2026-04-18T16:14:28.188Z</time></trkpt><trkpt lat="43.8261237" lon="11.5384176"><ele>507.5</ele><time>2026-04-18T16:14:29.188Z</time></trkpt><trkpt lat="43.8260628" lon="11.5385583"><ele>512.0</ele><time>2026-04-18T16:14:30.186Z</time></trkpt><trkpt lat="43.8259985" lon="11.5386984"><ele>509.0</ele><time>2026-04-18T16:14:31.188Z</time></trkpt><trkpt lat="43.8259361" lon="11.5388294"><ele>506.00000000000006</ele><time>2026-04-18T16:14:32.188Z</time></trkpt><trkpt lat="43.8258878" lon="11.5389611"><ele>503.00000000000006</ele><time>2026-04-18T16:14:33.187Z</time></trkpt><trkpt lat="43.8258571" lon="11.5391048"><ele>500.0</ele><time>2026-04-18T16:14:34.188Z</time></trkpt><trkpt lat="43.8258248" lon="11.5392428"><ele>497.0</ele><time>2026-04-18T16:14:35.188Z</time></trkpt><trkpt lat="43.8257779" lon="11.5393468"><ele>497.0</ele><time>2026-04-18T16:14:36.188Z</time></trkpt><trkpt lat="43.8256981" lon="11.5394239"><ele>497.00000000000006</ele><time>2026-04-18T16:14:37.188Z</time></trkpt><trkpt lat="43.8256089" lon="11.5394951"><ele>497.00000000000006</ele><time>2026-04-18T16:14:38.187Z</time></trkpt><trkpt lat="43.8255232" lon="11.539594"><ele>497.0</ele><time>2026-04-18T16:14:39.188Z</time></trkpt><trkpt lat="43.8254445" lon="11.5397196"><ele>497.0</ele><time>2026-04-18T16:14:40.188Z</time></trkpt><trkpt lat="43.8253689" lon="11.5398598"><ele>495.5</ele><time>2026-04-18T16:14:41.188Z</time></trkpt><trkpt lat="43.8252947" lon="11.5400051"><ele>494.0</ele><time>2026-04-18T16:14:42.187Z</time></trkpt><trkpt lat="43.825215" lon="11.5401572"><ele>492.5</ele><time>2026-04-18T16:14:43.188Z</time></trkpt><trkpt lat="43.8251359" lon="11.5403222"><ele>491.0</ele><time>2026-04-18T16:14:44.188Z</time></trkpt><trkpt lat="43.8250575" lon="11.5404962"><ele>495.75</ele><time>2026-04-18T16:14:45.188Z</time></trkpt><trkpt lat="43.8249764" lon="11.5406706"><ele>500.5</ele><time>2026-04-18T16:14:46.186Z</time></trkpt><trkpt lat="43.8248931" lon="11.540839"><ele>505.25</ele><time>2026-04-18T16:14:47.187Z</time></trkpt><trkpt lat="43.8248114" lon="11.5409949"><ele>510.0</ele><time>2026-04-18T16:14:48.188Z</time></trkpt><trkpt lat="43.8247295" lon="11.5411424"><ele>509.5</ele><time>2026-04-18T16:14:49.188Z</time></trkpt><trkpt lat="43.8246373" lon="11.5412714"><ele>509.0</ele><time>2026-04-18T16:14:50.188Z</time></trkpt><trkpt lat="43.8245304" lon="11.5413911"><ele>508.5</ele><time>2026-04-18T16:14:51.188Z</time></trkpt><trkpt lat="43.8244055" lon="11.5415137"><ele>508.0</ele><time>2026-04-18T16:14:52.188Z</time></trkpt><trkpt lat="43.8242696" lon="11.5416403"><ele>508.0</ele><time>2026-04-18T16:14:53.188Z</time></trkpt><trkpt lat="43.8241379" lon="11.5417652"><ele>508.0</ele><time>2026-04-18T16:14:54.188Z</time></trkpt><trkpt lat="43.8240047" lon="11.5418881"><ele>508.0</ele><time>2026-04-18T16:14:55.187Z</time></trkpt><trkpt lat="43.8238831" lon="11.5419999"><ele>508.75</ele><time>2026-04-18T16:14:56.188Z</time></trkpt><trkpt lat="43.8237707" lon="11.5421016"><ele>509.5</ele><time>2026-04-18T16:14:57.188Z</time></trkpt><trkpt lat="43.8236621" lon="11.5422024"><ele>510.25</ele><time>2026-04-18T16:14:58.188Z</time></trkpt><trkpt lat="43.8235569" lon="11.5422993"><ele>511.0</ele><time>2026-04-18T16:14:59.188Z</time></trkpt><trkpt lat="43.8234575" lon="11.5423903"><ele>511.0</ele><time>2026-04-18T16:15:00.188Z</time></trkpt><trkpt lat="43.823362" lon="11.5424964"><ele>511.0</ele><time>2026-04-18T16:15:01.188Z</time></trkpt><trkpt lat="43.8232775" lon="11.5426241"><ele>511.0</ele><time>2026-04-18T16:15:02.188Z</time></trkpt><trkpt lat="43.8231944" lon="11.5427581"><ele>511.0</ele><time>2026-04-18T16:15:03.187Z</time></trkpt><trkpt lat="43.8231067" lon="11.5428926"><ele>514.25</ele><time>2026-04-18T16:15:04.188Z</time></trkpt><trkpt lat="43.8230182" lon="11.5430339"><ele>517.5</ele><time>2026-04-18T16:15:05.187Z</time></trkpt><trkpt lat="43.8229235" lon="11.5431719"><ele>520.75</ele><time>2026-04-18T16:15:06.188Z</time></trkpt><trkpt lat="43.8228192" lon="11.5433061"><ele>524.0</ele><time>2026-04-18T16:15:07.188Z</time></trkpt><trkpt lat="43.822703" lon="11.5434371"><ele>523.3333333333333</ele><time>2026-04-18T16:15:08.187Z</time></trkpt><trkpt lat="43.8225842" lon="11.543566"><ele>522.6666666666666</ele><time>2026-04-18T16:15:09.188Z</time></trkpt><trkpt lat="43.8224682" lon="11.5436974"><ele>522.0</ele><time>2026-04-18T16:15:10.187Z</time></trkpt><trkpt lat="43.8223549" lon="11.5438346"><ele>522.0</ele><time>2026-04-18T16:15:11.187Z</time></trkpt><trkpt lat="43.8222426" lon="11.5439778"><ele>522.0</ele><time>2026-04-18T16:15:12.188Z</time></trkpt><trkpt lat="43.8221297" lon="11.5441286"><ele>522.0</ele><time>2026-04-18T16:15:13.188Z</time></trkpt><trkpt lat="43.822016" lon="11.5442845"><ele>522.0</ele><time>2026-04-18T16:15:14.188Z</time></trkpt><trkpt lat="43.8219027" lon="11.544445"><ele>522.0</ele><time>2026-04-18T16:15:15.188Z</time></trkpt><trkpt lat="43.8217937" lon="11.544614"><ele>522.0</ele><time>2026-04-18T16:15:16.188Z</time></trkpt><trkpt lat="43.8216862" lon="11.544797"><ele>522.0</ele><time>2026-04-18T16:15:17.188Z</time></trkpt><trkpt lat="43.8215786" lon="11.5449955"><ele>522.0</ele><time>2026-04-18T16:15:18.188Z</time></trkpt><trkpt lat="43.8214637" lon="11.5452154"><ele>522.0</ele><time>2026-04-18T16:15:19.187Z</time></trkpt><trkpt lat="43.8213506" lon="11.5454298"><ele>527.0</ele><time>2026-04-18T16:15:20.188Z</time></trkpt><trkpt lat="43.8212307" lon="11.5456574"><ele>532.0</ele><time>2026-04-18T16:15:21.188Z</time></trkpt><trkpt lat="43.8211165" lon="11.5458791"><ele>537.0</ele><time>2026-04-18T16:15:22.188Z</time></trkpt><trkpt lat="43.8210131" lon="11.5460794"><ele>537.6666666666666</ele><time>2026-04-18T16:15:23.188Z</time></trkpt><trkpt lat="43.8209175" lon="11.546268"><ele>538.3333333333333</ele><time>2026-04-18T16:15:24.188Z</time></trkpt><trkpt lat="43.8208296" lon="11.5464391"><ele>539.0</ele><time>2026-04-18T16:15:25.188Z</time></trkpt><trkpt lat="43.8207425" lon="11.5465919"><ele>539.0</ele><time>2026-04-18T16:15:26.188Z</time></trkpt><trkpt lat="43.8206521" lon="11.5467146"><ele>539.0</ele><time>2026-04-18T16:15:27.188Z</time></trkpt><trkpt lat="43.820556" lon="11.5467793"><ele>539.0</ele><time>2026-04-18T16:15:28.188Z</time></trkpt><trkpt lat="43.8204463" lon="11.5467963"><ele>539.0</ele><time>2026-04-18T16:15:29.188Z</time></trkpt><trkpt lat="43.8203352" lon="11.5467621"><ele>539.0</ele><time>2026-04-18T16:15:30.188Z</time></trkpt><trkpt lat="43.8202143" lon="11.5467207"><ele>539.0</ele><time>2026-04-18T16:15:31.187Z</time></trkpt><trkpt lat="43.8200959" lon="11.5466806"><ele>539.0</ele><time>2026-04-18T16:15:32.188Z</time></trkpt><trkpt lat="43.8199742" lon="11.5466362"><ele>539.0</ele><time>2026-04-18T16:15:33.188Z</time></trkpt><trkpt lat="43.8198505" lon="11.5465956"><ele>538.25</ele><time>2026-04-18T16:15:34.187Z</time></trkpt><trkpt lat="43.819728" lon="11.5465543"><ele>537.5</ele><time>2026-04-18T16:15:35.188Z</time></trkpt><trkpt lat="43.8196052" lon="11.5465175"><ele>536.75</ele><time>2026-04-18T16:15:36.187Z</time></trkpt><trkpt lat="43.8194804" lon="11.546489"><ele>536.0</ele><time>2026-04-18T16:15:37.188Z</time></trkpt><trkpt lat="43.8193537" lon="11.5464717"><ele>537.0</ele><time>2026-04-18T16:15:38.188Z</time></trkpt><trkpt lat="43.8192219" lon="11.5464582"><ele>538.0</ele><time>2026-04-18T16:15:39.187Z</time></trkpt><trkpt lat="43.8190874" lon="11.5464474"><ele>539.0</ele><time>2026-04-18T16:15:40.188Z</time></trkpt><trkpt lat="43.8189609" lon="11.5464245"><ele>540.0</ele><time>2026-04-18T16:15:41.188Z</time></trkpt><trkpt lat="43.8188475" lon="11.5463807"><ele>540.0</ele><time>2026-04-18T16:15:42.187Z</time></trkpt><trkpt lat="43.8187575" lon="11.5462979"><ele>540.0</ele><time>2026-04-18T16:15:43.187Z</time></trkpt><trkpt lat="43.8186857" lon="11.546188"><ele>540.0</ele><time>2026-04-18T16:15:44.187Z</time></trkpt><trkpt lat="43.8186279" lon="11.5460655"><ele>540.0</ele><time>2026-04-18T16:15:45.188Z</time></trkpt><trkpt lat="43.8185802" lon="11.5459363"><ele>540.0</ele><time>2026-04-18T16:15:46.188Z</time></trkpt><trkpt lat="43.8185368" lon="11.5458011"><ele>540.5</ele><time>2026-04-18T16:15:47.188Z</time></trkpt><trkpt lat="43.8184914" lon="11.5456516"><ele>541.0</ele><time>2026-04-18T16:15:48.188Z</time></trkpt><trkpt lat="43.8184411" lon="11.5454907"><ele>541.5</ele><time>2026-04-18T16:15:49.187Z</time></trkpt><trkpt lat="43.8183928" lon="11.5453296"><ele>542.0</ele><time>2026-04-18T16:15:50.188Z</time></trkpt><trkpt lat="43.8183507" lon="11.5451819"><ele>542.0</ele><time>2026-04-18T16:15:51.187Z</time></trkpt><trkpt lat="43.8183092" lon="11.5450549"><ele>542.0</ele><time>2026-04-18T16:15:52.188Z</time></trkpt><trkpt lat="43.81825" lon="11.5449596"><ele>542.0</ele><time>2026-04-18T16:15:53.188Z</time></trkpt><trkpt lat="43.8181765" lon="11.5449113"><ele>542.0</ele><time>2026-04-18T16:15:54.187Z</time></trkpt><trkpt lat="43.8181045" lon="11.5449237"><ele>542.0</ele><time>2026-04-18T16:15:55.188Z</time></trkpt><trkpt lat="43.8180372" lon="11.544999"><ele>542.0</ele><time>2026-04-18T16:15:56.188Z</time></trkpt><trkpt lat="43.8179747" lon="11.5451312"><ele>542.0</ele><time>2026-04-18T16:15:57.188Z</time></trkpt><trkpt lat="43.817924" lon="11.5452961"><ele>542.0</ele><time>2026-04-18T16:15:58.187Z</time></trkpt><trkpt lat="43.8178906" lon="11.5454488"><ele>542.0</ele><time>2026-04-18T16:15:59.188Z</time></trkpt><trkpt lat="43.8178691" lon="11.5455983"><ele>542.0</ele><time>2026-04-18T16:16:00.187Z</time></trkpt><trkpt lat="43.8178734" lon="11.5457817"><ele>542.5</ele><time>2026-04-18T16:16:01.188Z</time></trkpt><trkpt lat="43.8179039" lon="11.5459624"><ele>543.0</ele><time>2026-04-18T16:16:02.188Z</time></trkpt><trkpt lat="43.8179487" lon="11.5461338"><ele>543.5</ele><time>2026-04-18T16:16:03.188Z</time></trkpt><trkpt lat="43.8180037" lon="11.5462912"><ele>544.0</ele><time>2026-04-18T16:16:04.188Z</time></trkpt><trkpt lat="43.8180664" lon="11.5464447"><ele>546.0</ele><time>2026-04-18T16:16:05.187Z</time></trkpt><trkpt lat="43.8181233" lon="11.546591"><ele>548.0</ele><time>2026-04-18T16:16:06.188Z</time></trkpt><trkpt lat="43.8181792" lon="11.5467364"><ele>550.0</ele><time>2026-04-18T16:16:07.188Z</time></trkpt><trkpt lat="43.8182297" lon="11.5468836"><ele>552.0</ele><time>2026-04-18T16:16:08.188Z</time></trkpt><trkpt lat="43.8182715" lon="11.5470403"><ele>554.2</ele><time>2026-04-18T16:16:09.188Z</time></trkpt><trkpt lat="43.8182849" lon="11.5471922"><ele>556.4000000000001</ele><time>2026-04-18T16:16:10.188Z</time></trkpt><trkpt lat="43.8182662" lon="11.547335"><ele>558.5999999999999</ele><time>2026-04-18T16:16:11.187Z</time></trkpt><trkpt lat="43.8182263" lon="11.5474717"><ele>560.8</ele><time>2026-04-18T16:16:12.188Z</time></trkpt><trkpt lat="43.818167" lon="11.5475934"><ele>563.0</ele><time>2026-04-18T16:16:13.188Z</time></trkpt><trkpt lat="43.8181001" lon="11.5476839"><ele>563.0</ele><time>2026-04-18T16:16:14.188Z</time></trkpt><trkpt lat="43.8180138" lon="11.5477466"><ele>563.0</ele><time>2026-04-18T16:16:15.188Z</time></trkpt><trkpt lat="43.817925" lon="11.5477719"><ele>563.0</ele><time>2026-04-18T16:16:16.188Z</time></trkpt><trkpt lat="43.8178253" lon="11.5477286"><ele>563.0</ele><time>2026-04-18T16:16:17.187Z</time></trkpt><trkpt lat="43.8177306" lon="11.547659"><ele>563.0</ele><time>2026-04-18T16:16:18.188Z</time></trkpt><trkpt lat="43.8176332" lon="11.547571"><ele>563.6</ele><time>2026-04-18T16:16:19.187Z</time></trkpt><trkpt lat="43.8175371" lon="11.547493"><ele>564.1999999999999</ele><time>2026-04-18T16:16:20.187Z</time></trkpt><trkpt lat="43.817438" lon="11.5474278"><ele>564.8</ele><time>2026-04-18T16:16:21.187Z</time></trkpt><trkpt lat="43.8173336" lon="11.5473823"><ele>565.4</ele><time>2026-04-18T16:16:22.187Z</time></trkpt><trkpt lat="43.8172323" lon="11.5473702"><ele>566.0</ele><time>2026-04-18T16:16:23.186Z</time></trkpt><trkpt lat="43.8171349" lon="11.5474008"><ele>566.0</ele><time>2026-04-18T16:16:24.188Z</time></trkpt><trkpt lat="43.8170355" lon="11.5474724"><ele>566.0</ele><time>2026-04-18T16:16:25.187Z</time></trkpt><trkpt lat="43.8169338" lon="11.5475591"><ele>566.0</ele><time>2026-04-18T16:16:26.188Z</time></trkpt><trkpt lat="43.8168346" lon="11.5476505"><ele>566.0</ele><time>2026-04-18T16:16:27.187Z</time></trkpt><trkpt lat="43.8167363" lon="11.547747"><ele>564.5</ele><time>2026-04-18T16:16:28.188Z</time></trkpt><trkpt lat="43.816644" lon="11.5478417"><ele>563.0</ele><time>2026-04-18T16:16:29.187Z</time></trkpt><trkpt lat="43.8165616" lon="11.5479421"><ele>561.5</ele><time>2026-04-18T16:16:30.188Z</time></trkpt><trkpt lat="43.8165031" lon="11.5480688"><ele>560.0</ele><time>2026-04-18T16:16:31.188Z</time></trkpt><trkpt lat="43.816459" lon="11.5482184"><ele>563.8</ele><time>2026-04-18T16:16:32.188Z</time></trkpt><trkpt lat="43.8164203" lon="11.5483646"><ele>567.6</ele><time>2026-04-18T16:16:33.188Z</time></trkpt><trkpt lat="43.8163578" lon="11.5484866"><ele>571.4</ele><time>2026-04-18T16:16:34.187Z</time></trkpt><trkpt lat="43.8162695" lon="11.5485745"><ele>575.2</ele><time>2026-04-18T16:16:35.188Z</time></trkpt><trkpt lat="43.8161785" lon="11.5486486"><ele>579.0</ele><time>2026-04-18T16:16:36.187Z</time></trkpt><trkpt lat="43.8160997" lon="11.5487351"><ele>579.25</ele><time>2026-04-18T16:16:37.188Z</time></trkpt><trkpt lat="43.8160277" lon="11.548853"><ele>579.5</ele><time>2026-04-18T16:16:38.187Z</time></trkpt><trkpt lat="43.8159417" lon="11.5490076"><ele>579.75</ele><time>2026-04-18T16:16:39.188Z</time></trkpt><trkpt lat="43.8158499" lon="11.5491568"><ele>580.0</ele><time>2026-04-18T16:16:40.186Z</time></trkpt><trkpt lat="43.815755" lon="11.5493125"><ele>580.0</ele><time>2026-04-18T16:16:41.187Z</time></trkpt><trkpt lat="43.8156596" lon="11.5494681"><ele>580.0</ele><time>2026-04-18T16:16:42.188Z</time></trkpt><trkpt lat="43.8155637" lon="11.5496172"><ele>580.0</ele><time>2026-04-18T16:16:43.187Z</time></trkpt><trkpt lat="43.8154674" lon="11.5497646"><ele>580.0</ele><time>2026-04-18T16:16:44.188Z</time></trkpt><trkpt lat="43.8153729" lon="11.5499099"><ele>580.25</ele><time>2026-04-18T16:16:45.188Z</time></trkpt><trkpt lat="43.8152773" lon="11.5500483"><ele>580.5</ele><time>2026-04-18T16:16:46.187Z</time></trkpt><trkpt lat="43.8151888" lon="11.5501752"><ele>580.75</ele><time>2026-04-18T16:16:47.187Z</time></trkpt><trkpt lat="43.8151121" lon="11.5502885"><ele>581.0</ele><time>2026-04-18T16:16:48.187Z</time></trkpt><trkpt lat="43.8150462" lon="11.5503903"><ele>582.4</ele><time>2026-04-18T16:16:49.188Z</time></trkpt><trkpt lat="43.8149922" lon="11.5504958"><ele>583.8</ele><time>2026-04-18T16:16:50.188Z</time></trkpt><trkpt lat="43.8149568" lon="11.5506266"><ele>585.1999999999999</ele><time>2026-04-18T16:16:51.188Z</time></trkpt><trkpt lat="43.8149367" lon="11.5507744"><ele>586.6</ele><time>2026-04-18T16:16:52.188Z</time></trkpt><trkpt lat="43.8149118" lon="11.5509218"><ele>588.0</ele><time>2026-04-18T16:16:53.187Z</time></trkpt><trkpt lat="43.8148864" lon="11.5510628"><ele>588.0</ele><time>2026-04-18T16:16:54.187Z</time></trkpt><trkpt lat="43.8148574" lon="11.5511977"><ele>588.0</ele><time>2026-04-18T16:16:55.188Z</time></trkpt><trkpt lat="43.8148183" lon="11.5513201"><ele>588.0</ele><time>2026-04-18T16:16:56.187Z</time></trkpt><trkpt lat="43.8147678" lon="11.551421"><ele>588.0</ele><time>2026-04-18T16:16:57.187Z</time></trkpt><trkpt lat="43.8147012" lon="11.5514918"><ele>588.0</ele><time>2026-04-18T16:16:58.188Z</time></trkpt><trkpt lat="43.8146258" lon="11.5515214"><ele>588.0</ele><time>2026-04-18T16:16:59.188Z</time></trkpt><trkpt lat="43.8145482" lon="11.5515056"><ele>587.6</ele><time>2026-04-18T16:17:00.188Z</time></trkpt><trkpt lat="43.8144684" lon="11.5514968"><ele>587.1999999999999</ele><time>2026-04-18T16:17:01.187Z</time></trkpt><trkpt lat="43.8143894" lon="11.551526"><ele>586.8</ele><time>2026-04-18T16:17:02.187Z</time></trkpt><trkpt lat="43.8143208" lon="11.5515931"><ele>586.4</ele><time>2026-04-18T16:17:03.187Z</time></trkpt><trkpt lat="43.8142572" lon="11.5517012"><ele>586.0</ele><time>2026-04-18T16:17:04.188Z</time></trkpt><trkpt lat="43.8141905" lon="11.5518365"><ele>586.0</ele><time>2026-04-18T16:17:05.188Z</time></trkpt><trkpt lat="43.8141144" lon="11.5519829"><ele>586.0</ele><time>2026-04-18T16:17:06.188Z</time></trkpt><trkpt lat="43.8140453" lon="11.5521201"><ele>586.0</ele><time>2026-04-18T16:17:07.188Z</time></trkpt><trkpt lat="43.8139759" lon="11.5522548"><ele>586.0</ele><time>2026-04-18T16:17:08.187Z</time></trkpt><trkpt lat="43.8138997" lon="11.5523856"><ele>584.25</ele><time>2026-04-18T16:17:09.188Z</time></trkpt><trkpt lat="43.8138039" lon="11.5525026"><ele>582.5</ele><time>2026-04-18T16:17:10.188Z</time></trkpt><trkpt lat="43.8136957" lon="11.5526062"><ele>580.75</ele><time>2026-04-18T16:17:11.188Z</time></trkpt><trkpt lat="43.8135744" lon="11.552706"><ele>579.0</ele><time>2026-04-18T16:17:12.188Z</time></trkpt><trkpt lat="43.8134496" lon="11.5528058"><ele>583.0</ele><time>2026-04-18T16:17:13.188Z</time></trkpt><trkpt lat="43.8133265" lon="11.5528923"><ele>587.0</ele><time>2026-04-18T16:17:14.187Z</time></trkpt><trkpt lat="43.8132061" lon="11.5529566"><ele>591.0</ele><time>2026-04-18T16:17:15.188Z</time></trkpt><trkpt lat="43.8130954" lon="11.5530068"><ele>595.0</ele><time>2026-04-18T16:17:16.188Z</time></trkpt><trkpt lat="43.8129923" lon="11.5530479"><ele>595.0</ele><time>2026-04-18T16:17:17.187Z</time></trkpt><trkpt lat="43.8129007" lon="11.5530881"><ele>595.0</ele><time>2026-04-18T16:17:18.188Z</time></trkpt><trkpt lat="43.8128094" lon="11.5531479"><ele>595.0</ele><time>2026-04-18T16:17:19.188Z</time></trkpt><trkpt lat="43.8127208" lon="11.553242"><ele>595.0</ele><time>2026-04-18T16:17:20.188Z</time></trkpt><trkpt lat="43.8126361" lon="11.5533806"><ele>595.0</ele><time>2026-04-18T16:17:21.188Z</time></trkpt><trkpt lat="43.812553" lon="11.5535357"><ele>596.0</ele><time>2026-04-18T16:17:22.188Z</time></trkpt><trkpt lat="43.8124741" lon="11.553689"><ele>597.0</ele><time>2026-04-18T16:17:23.188Z</time></trkpt><trkpt lat="43.8123979" lon="11.5538387"><ele>598.0</ele><time>2026-04-18T16:17:24.188Z</time></trkpt><trkpt lat="43.8123312" lon="11.5539681"><ele>599.0</ele><time>2026-04-18T16:17:25.188Z</time></trkpt><trkpt lat="43.8122673" lon="11.5540784"><ele>599.0</ele><time>2026-04-18T16:17:26.187Z</time></trkpt><trkpt lat="43.8121938" lon="11.5541589"><ele>599.0</ele><time>2026-04-18T16:17:27.187Z</time></trkpt><trkpt lat="43.8121045" lon="11.5542219"><ele>599.0</ele><time>2026-04-18T16:17:28.188Z</time></trkpt><trkpt lat="43.8120117" lon="11.5542753"><ele>599.0</ele><time>2026-04-18T16:17:29.187Z</time></trkpt><trkpt lat="43.8119165" lon="11.554326"><ele>599.0</ele><time>2026-04-18T16:17:30.187Z</time></trkpt><trkpt lat="43.8118234" lon="11.5543663"><ele>598.8</ele><time>2026-04-18T16:17:31.188Z</time></trkpt><trkpt lat="43.8117347" lon="11.5543725"><ele>598.5999999999999</ele><time>2026-04-18T16:17:32.188Z</time></trkpt><trkpt lat="43.8116453" lon="11.554338"><ele>598.4</ele><time>2026-04-18T16:17:33.188Z</time></trkpt><trkpt lat="43.8115503" lon="11.5542773"><ele>598.1999999999999</ele><time>2026-04-18T16:17:34.187Z</time></trkpt><trkpt lat="43.8114639" lon="11.554172"><ele>598.0</ele><time>2026-04-18T16:17:35.187Z</time></trkpt><trkpt lat="43.8113747" lon="11.5540824"><ele>598.0</ele><time>2026-04-18T16:17:36.188Z</time></trkpt><trkpt lat="43.8112796" lon="11.5539946"><ele>598.0</ele><time>2026-04-18T16:17:37.188Z</time></trkpt><trkpt lat="43.8111805" lon="11.5539195"><ele>598.0</ele><time>2026-04-18T16:17:38.188Z</time></trkpt><trkpt lat="43.8110684" lon="11.5538534"><ele>598.0</ele><time>2026-04-18T16:17:39.188Z</time></trkpt><trkpt lat="43.8109485" lon="11.5537953"><ele>599.0</ele><time>2026-04-18T16:17:40.188Z</time></trkpt><trkpt lat="43.8108266" lon="11.5537465"><ele>600.0</ele><time>2026-04-18T16:17:41.188Z</time></trkpt><trkpt lat="43.8107082" lon="11.5537084"><ele>601.0</ele><time>2026-04-18T16:17:42.188Z</time></trkpt><trkpt lat="43.8105936" lon="11.5536816"><ele>602.0</ele><time>2026-04-18T16:17:43.187Z</time></trkpt><trkpt lat="43.8104787" lon="11.553663"><ele>602.0</ele><time>2026-04-18T16:17:44.188Z</time></trkpt><trkpt lat="43.8103682" lon="11.553657"><ele>602.0</ele><time>2026-04-18T16:17:45.188Z</time></trkpt><trkpt lat="43.8102637" lon="11.5536749"><ele>602.0</ele><time>2026-04-18T16:17:46.188Z</time></trkpt><trkpt lat="43.8101614" lon="11.5537283"><ele>602.0</ele><time>2026-04-18T16:17:47.188Z</time></trkpt><trkpt lat="43.8100639" lon="11.5538166"><ele>602.0</ele><time>2026-04-18T16:17:48.187Z</time></trkpt><trkpt lat="43.8099528" lon="11.5539561"><ele>602.0</ele><time>2026-04-18T16:17:49.187Z</time></trkpt><trkpt lat="43.8098311" lon="11.554143"><ele>602.0</ele><time>2026-04-18T16:17:50.188Z</time></trkpt><trkpt lat="43.809703" lon="11.554361"><ele>602.0</ele><time>2026-04-18T16:17:51.188Z</time></trkpt><trkpt lat="43.8095636" lon="11.55461"><ele>602.6666666666666</ele><time>2026-04-18T16:17:52.188Z</time></trkpt><trkpt lat="43.8094322" lon="11.5548506"><ele>603.3333333333334</ele><time>2026-04-18T16:17:53.188Z</time></trkpt><trkpt lat="43.8093121" lon="11.5550722"><ele>604.0</ele><time>2026-04-18T16:17:54.187Z</time></trkpt><trkpt lat="43.8092011" lon="11.5552748"><ele>612.0</ele><time>2026-04-18T16:17:55.188Z</time></trkpt><trkpt lat="43.8090911" lon="11.5554547"><ele>620.0</ele><time>2026-04-18T16:17:56.188Z</time></trkpt><trkpt lat="43.8089812" lon="11.5556064"><ele>628.0</ele><time>2026-04-18T16:17:57.188Z</time></trkpt><trkpt lat="43.8088575" lon="11.5557053"><ele>628.0</ele><time>2026-04-18T16:17:58.188Z</time></trkpt><trkpt lat="43.8087114" lon="11.5557629"><ele>628.0</ele><time>2026-04-18T16:17:59.188Z</time></trkpt><trkpt lat="43.8085337" lon="11.555802"><ele>628.0</ele><time>2026-04-18T16:18:00.186Z</time></trkpt><trkpt lat="43.8083369" lon="11.5558944"><ele>621.6666666666667</ele><time>2026-04-18T16:18:01.188Z</time></trkpt><trkpt lat="43.8081317" lon="11.556005"><ele>615.3333333333334</ele><time>2026-04-18T16:18:02.186Z</time></trkpt><trkpt lat="43.8079201" lon="11.556102"><ele>609.0</ele><time>2026-04-18T16:18:03.187Z</time></trkpt><trkpt lat="43.8077279" lon="11.5561681"><ele>613.3333333333334</ele><time>2026-04-18T16:18:04.187Z</time></trkpt><trkpt lat="43.8075565" lon="11.5562056"><ele>617.6666666666667</ele><time>2026-04-18T16:18:05.188Z</time></trkpt><trkpt lat="43.8074032" lon="11.5562265"><ele>622.0</ele><time>2026-04-18T16:18:06.188Z</time></trkpt><trkpt lat="43.8072627" lon="11.5562461"><ele>622.0</ele><time>2026-04-18T16:18:07.188Z</time></trkpt><trkpt lat="43.8071541" lon="11.5562884"><ele>622.0</ele><time>2026-04-18T16:18:08.188Z</time></trkpt><trkpt lat="43.8070794" lon="11.556357"><ele>622.0</ele><time>2026-04-18T16:18:09.188Z</time></trkpt><trkpt lat="43.8070308" lon="11.5564506"><ele>622.0</ele><time>2026-04-18T16:18:10.188Z</time></trkpt><trkpt lat="43.807009" lon="11.5565593"><ele>622.0</ele><time>2026-04-18T16:18:11.187Z</time></trkpt><trkpt lat="43.8070126" lon="11.5567071"><ele>622.0</ele><time>2026-04-18T16:18:12.188Z</time></trkpt><trkpt lat="43.8070372" lon="11.5568817"><ele>622.0</ele><time>2026-04-18T16:18:13.188Z</time></trkpt><trkpt lat="43.807067" lon="11.5570402"><ele>622.0</ele><time>2026-04-18T16:18:14.187Z</time></trkpt><trkpt lat="43.8070957" lon="11.5571796"><ele>622.0</ele><time>2026-04-18T16:18:15.187Z</time></trkpt><trkpt lat="43.8071125" lon="11.5572932"><ele>622.0</ele><time>2026-04-18T16:18:16.187Z</time></trkpt><trkpt lat="43.8070726" lon="11.5574425"><ele>624.8000000000001</ele><time>2026-04-18T16:18:18.188Z</time></trkpt><trkpt lat="43.8069796" lon="11.5574668"><ele>627.6</ele><time>2026-04-18T16:18:20.188Z</time></trkpt><trkpt lat="43.8068796" lon="11.5573906"><ele>630.4000000000001</ele><time>2026-04-18T16:18:22.187Z</time></trkpt><trkpt lat="43.8068182" lon="11.5573328"><ele>633.2</ele><time>2026-04-18T16:18:23.188Z</time></trkpt><trkpt lat="43.8067499" lon="11.5572632"><ele>636.0</ele><time>2026-04-18T16:18:24.188Z</time></trkpt><trkpt lat="43.8066796" lon="11.5571931"><ele>636.0</ele><time>2026-04-18T16:18:25.187Z</time></trkpt><trkpt lat="43.8066053" lon="11.5571213"><ele>636.0</ele><time>2026-04-18T16:18:26.188Z</time></trkpt><trkpt lat="43.806519" lon="11.5570433"><ele>636.0</ele><time>2026-04-18T16:18:27.188Z</time></trkpt><trkpt lat="43.8064296" lon="11.5569601"><ele>636.0</ele><time>2026-04-18T16:18:28.188Z</time></trkpt><trkpt lat="43.8063331" lon="11.5568648"><ele>636.0</ele><time>2026-04-18T16:18:29.188Z</time></trkpt><trkpt lat="43.8062429" lon="11.5567759"><ele>632.2</ele><time>2026-04-18T16:18:30.187Z</time></trkpt><trkpt lat="43.8061525" lon="11.5566936"><ele>628.4000000000001</ele><time>2026-04-18T16:18:31.187Z</time></trkpt><trkpt lat="43.8060636" lon="11.5566157"><ele>624.6</ele><time>2026-04-18T16:18:32.188Z</time></trkpt><trkpt lat="43.8059733" lon="11.5565508"><ele>620.8000000000001</ele><time>2026-04-18T16:18:33.188Z</time></trkpt><trkpt lat="43.8058824" lon="11.5565018"><ele>617.0</ele><time>2026-04-18T16:18:34.188Z</time></trkpt><trkpt lat="43.805788" lon="11.5564649"><ele>617.0</ele><time>2026-04-18T16:18:35.188Z</time></trkpt><trkpt lat="43.8056901" lon="11.556447"><ele>617.0</ele><time>2026-04-18T16:18:36.188Z</time></trkpt><trkpt lat="43.8056032" lon="11.5564409"><ele>617.0</ele><time>2026-04-18T16:18:37.188Z</time></trkpt><trkpt lat="43.80552" lon="11.5564355"><ele>617.0</ele><time>2026-04-18T16:18:38.188Z</time></trkpt><trkpt lat="43.8054344" lon="11.5564342"><ele>617.0</ele><time>2026-04-18T16:18:39.187Z</time></trkpt><trkpt lat="43.8053525" lon="11.5564314"><ele>617.0</ele><time>2026-04-18T16:18:40.187Z</time></trkpt><trkpt lat="43.8052669" lon="11.5564297"><ele>617.0</ele><time>2026-04-18T16:18:41.188Z</time></trkpt><trkpt lat="43.8051832" lon="11.5564306"><ele>617.0</ele><time>2026-04-18T16:18:42.188Z</time></trkpt><trkpt lat="43.805096" lon="11.5564307"><ele>617.0</ele><time>2026-04-18T16:18:43.188Z</time></trkpt><trkpt lat="43.8049916" lon="11.5564287"><ele>617.0</ele><time>2026-04-18T16:18:44.188Z</time></trkpt><trkpt lat="43.8048849" lon="11.5564335"><ele>617.0</ele><time>2026-04-18T16:18:45.188Z</time></trkpt><trkpt lat="43.8047025" lon="11.5564259"><ele>616.3333333333333</ele><time>2026-04-18T16:18:46.187Z</time></trkpt><trkpt lat="43.8045373" lon="11.5564312"><ele>615.6666666666666</ele><time>2026-04-18T16:18:47.187Z</time></trkpt><trkpt lat="43.8043666" lon="11.5564716"><ele>615.0</ele><time>2026-04-18T16:18:48.188Z</time></trkpt><trkpt lat="43.8041934" lon="11.5565271"><ele>614.3333333333334</ele><time>2026-04-18T16:18:49.187Z</time></trkpt><trkpt lat="43.8040379" lon="11.5565755"><ele>613.6666666666667</ele><time>2026-04-18T16:18:50.188Z</time></trkpt><trkpt lat="43.8038878" lon="11.5566279"><ele>613.0</ele><time>2026-04-18T16:18:51.188Z</time></trkpt><trkpt lat="43.8037458" lon="11.5566937"><ele>613.0</ele><time>2026-04-18T16:18:52.188Z</time></trkpt><trkpt lat="43.8036167" lon="11.5567824"><ele>613.0</ele><time>2026-04-18T16:18:53.188Z</time></trkpt><trkpt lat="43.8034968" lon="11.5569027"><ele>613.0</ele><time>2026-04-18T16:18:54.187Z</time></trkpt><trkpt lat="43.8033835" lon="11.5570433"><ele>613.0</ele><time>2026-04-18T16:18:55.188Z</time></trkpt><trkpt lat="43.8032758" lon="11.5571929"><ele>614.0</ele><time>2026-04-18T16:18:56.187Z</time></trkpt><trkpt lat="43.803164" lon="11.5573434"><ele>615.0</ele><time>2026-04-18T16:18:57.188Z</time></trkpt><trkpt lat="43.8030483" lon="11.557496"><ele>616.0</ele><time>2026-04-18T16:18:58.188Z</time></trkpt><trkpt lat="43.8029297" lon="11.5576517"><ele>616.0</ele><time>2026-04-18T16:18:59.188Z</time></trkpt><trkpt lat="43.8028102" lon="11.5578123"><ele>616.0</ele><time>2026-04-18T16:19:00.187Z</time></trkpt><trkpt lat="43.8026911" lon="11.5579708"><ele>616.0</ele><time>2026-04-18T16:19:01.188Z</time></trkpt><trkpt lat="43.8025744" lon="11.5581191"><ele>613.5</ele><time>2026-04-18T16:19:02.187Z</time></trkpt><trkpt lat="43.802469" lon="11.5582572"><ele>611.0</ele><time>2026-04-18T16:19:03.188Z</time></trkpt><trkpt lat="43.8023688" lon="11.558394"><ele>608.5</ele><time>2026-04-18T16:19:04.188Z</time></trkpt><trkpt lat="43.802268" lon="11.558534"><ele>606.0</ele><time>2026-04-18T16:19:05.188Z</time></trkpt><trkpt lat="43.8021712" lon="11.5586891"><ele>608.25</ele><time>2026-04-18T16:19:06.188Z</time></trkpt><trkpt lat="43.8020765" lon="11.5588397"><ele>610.5</ele><time>2026-04-18T16:19:07.188Z</time></trkpt><trkpt lat="43.8019849" lon="11.5589848"><ele>612.75</ele><time>2026-04-18T16:19:08.186Z</time></trkpt><trkpt lat="43.8019039" lon="11.5591173"><ele>615.0</ele><time>2026-04-18T16:19:09.187Z</time></trkpt><trkpt lat="43.8018285" lon="11.559234"><ele>610.8333333333334</ele><time>2026-04-18T16:19:10.187Z</time></trkpt><trkpt lat="43.8017699" lon="11.5593271"><ele>606.6666666666666</ele><time>2026-04-18T16:19:11.188Z</time></trkpt><trkpt lat="43.8017227" lon="11.559392"><ele>602.5</ele><time>2026-04-18T16:19:12.187Z</time></trkpt><trkpt lat="43.8016352" lon="11.5593764"><ele>598.3333333333333</ele><time>2026-04-18T16:19:14.188Z</time></trkpt><trkpt lat="43.8015957" lon="11.5593033"><ele>594.1666666666666</ele><time>2026-04-18T16:19:15.186Z</time></trkpt><trkpt lat="43.8015536" lon="11.5591818"><ele>590.0</ele><time>2026-04-18T16:19:16.188Z</time></trkpt><trkpt lat="43.8015037" lon="11.5590326"><ele>590.0</ele><time>2026-04-18T16:19:17.187Z</time></trkpt><trkpt lat="43.8014419" lon="11.5588634"><ele>590.0</ele><time>2026-04-18T16:19:18.186Z</time></trkpt><trkpt lat="43.8013742" lon="11.558705"><ele>590.0</ele><time>2026-04-18T16:19:19.187Z</time></trkpt><trkpt lat="43.8012972" lon="11.5585349"><ele>590.0</ele><time>2026-04-18T16:19:20.187Z</time></trkpt><trkpt lat="43.8012174" lon="11.5583644"><ele>591.3333333333333</ele><time>2026-04-18T16:19:21.186Z</time></trkpt><trkpt lat="43.8011374" lon="11.5581872"><ele>592.6666666666666</ele><time>2026-04-18T16:19:22.187Z</time></trkpt><trkpt lat="43.801063" lon="11.5580018"><ele>594.0</ele><time>2026-04-18T16:19:23.188Z</time></trkpt><trkpt lat="43.800993" lon="11.5578225"><ele>594.0</ele><time>2026-04-18T16:19:24.187Z</time></trkpt><trkpt lat="43.8009195" lon="11.5576509"><ele>594.0</ele><time>2026-04-18T16:19:25.187Z</time></trkpt><trkpt lat="43.8008472" lon="11.5574809"><ele>594.0</ele><time>2026-04-18T16:19:26.188Z</time></trkpt><trkpt lat="43.8007791" lon="11.5573164"><ele>594.0</ele><time>2026-04-18T16:19:27.187Z</time></trkpt><trkpt lat="43.8007226" lon="11.5571575"><ele>592.25</ele><time>2026-04-18T16:19:28.186Z</time></trkpt><trkpt lat="43.8006836" lon="11.556998"><ele>590.5</ele><time>2026-04-18T16:19:29.186Z</time></trkpt><trkpt lat="43.8006614" lon="11.5568341"><ele>588.75</ele><time>2026-04-18T16:19:30.188Z</time></trkpt><trkpt lat="43.8006556" lon="11.5566579"><ele>587.0</ele><time>2026-04-18T16:19:31.187Z</time></trkpt><trkpt lat="43.8006629" lon="11.556471"><ele>587.0</ele><time>2026-04-18T16:19:32.186Z</time></trkpt><trkpt lat="43.8006753" lon="11.5562731"><ele>587.0</ele><time>2026-04-18T16:19:33.186Z</time></trkpt><trkpt lat="43.8006877" lon="11.5560661"><ele>587.0</ele><time>2026-04-18T16:19:34.186Z</time></trkpt><trkpt lat="43.8006967" lon="11.5558612"><ele>587.0</ele><time>2026-04-18T16:19:35.187Z</time></trkpt><trkpt lat="43.8007025" lon="11.55565"><ele>586.6666666666666</ele><time>2026-04-18T16:19:36.186Z</time></trkpt><trkpt lat="43.8007075" lon="11.5554382"><ele>586.3333333333334</ele><time>2026-04-18T16:19:37.188Z</time></trkpt><trkpt lat="43.8007079" lon="11.5552251"><ele>586.0</ele><time>2026-04-18T16:19:38.187Z</time></trkpt><trkpt lat="43.8007016" lon="11.5550248"><ele>586.0</ele><time>2026-04-18T16:19:39.187Z</time></trkpt><trkpt lat="43.8006929" lon="11.5548302"><ele>586.0</ele><time>2026-04-18T16:19:40.186Z</time></trkpt><trkpt lat="43.800682" lon="11.5546382"><ele>586.0</ele><time>2026-04-18T16:19:41.187Z</time></trkpt><trkpt lat="43.8006694" lon="11.5544536"><ele>586.0</ele><time>2026-04-18T16:19:42.187Z</time></trkpt><trkpt lat="43.8006453" lon="11.554292"><ele>585.25</ele><time>2026-04-18T16:19:43.187Z</time></trkpt><trkpt lat="43.8006007" lon="11.5541539"><ele>584.5</ele><time>2026-04-18T16:19:44.188Z</time></trkpt><trkpt lat="43.8005253" lon="11.5540393"><ele>583.75</ele><time>2026-04-18T16:19:45.187Z</time></trkpt><trkpt lat="43.8004231" lon="11.5539525"><ele>583.0</ele><time>2026-04-18T16:19:46.187Z</time></trkpt><trkpt lat="43.8003116" lon="11.5538818"><ele>583.0</ele><time>2026-04-18T16:19:47.187Z</time></trkpt><trkpt lat="43.8002055" lon="11.553787"><ele>583.0</ele><time>2026-04-18T16:19:48.187Z</time></trkpt><trkpt lat="43.8001107" lon="11.553657"><ele>583.0</ele><time>2026-04-18T16:19:49.187Z</time></trkpt><trkpt lat="43.8000409" lon="11.5535241"><ele>583.0</ele><time>2026-04-18T16:19:50.186Z</time></trkpt><trkpt lat="43.8000023" lon="11.5533677"><ele>589.6666666666667</ele><time>2026-04-18T16:19:51.188Z</time></trkpt><trkpt lat="43.8000013" lon="11.5531692"><ele>596.3333333333334</ele><time>2026-04-18T16:19:52.185Z</time></trkpt><trkpt lat="43.8000415" lon="11.5529482"><ele>603.0</ele><time>2026-04-18T16:19:53.187Z</time></trkpt><trkpt lat="43.8001111" lon="11.552714"><ele>596.6666666666666</ele><time>2026-04-18T16:19:54.187Z</time></trkpt><trkpt lat="43.8001932" lon="11.5524821"><ele>590.3333333333333</ele><time>2026-04-18T16:19:55.187Z</time></trkpt><trkpt lat="43.8002798" lon="11.5522541"><ele>584.0</ele><time>2026-04-18T16:19:56.188Z</time></trkpt><trkpt lat="43.8003722" lon="11.5520473"><ele>590.6666666666666</ele><time>2026-04-18T16:19:57.188Z</time></trkpt><trkpt lat="43.8004869" lon="11.551867"><ele>597.3333333333334</ele><time>2026-04-18T16:19:58.187Z</time></trkpt><trkpt lat="43.8006095" lon="11.5517175"><ele>604.0</ele><time>2026-04-18T16:19:59.186Z</time></trkpt><trkpt lat="43.8007183" lon="11.5515857"><ele>604.0</ele><time>2026-04-18T16:20:00.187Z</time></trkpt><trkpt lat="43.8008089" lon="11.5514391"><ele>604.0</ele><time>2026-04-18T16:20:01.186Z</time></trkpt><trkpt lat="43.8008743" lon="11.5512684"><ele>604.0</ele><time>2026-04-18T16:20:02.187Z</time></trkpt><trkpt lat="43.8009009" lon="11.5510949"><ele>604.0</ele><time>2026-04-18T16:20:03.187Z</time></trkpt><trkpt lat="43.8008919" lon="11.550914"><ele>606.6666666666667</ele><time>2026-04-18T16:20:04.187Z</time></trkpt><trkpt lat="43.8008502" lon="11.5507099"><ele>609.3333333333334</ele><time>2026-04-18T16:20:05.187Z</time></trkpt><trkpt lat="43.8007836" lon="11.5504895"><ele>612.0</ele><time>2026-04-18T16:20:06.187Z</time></trkpt><trkpt lat="43.8007071" lon="11.5502492"><ele>612.3333333333334</ele><time>2026-04-18T16:20:07.187Z</time></trkpt><trkpt lat="43.8006336" lon="11.5500068"><ele>612.6666666666667</ele><time>2026-04-18T16:20:08.187Z</time></trkpt><trkpt lat="43.8005651" lon="11.549788"><ele>613.0</ele><time>2026-04-18T16:20:09.187Z</time></trkpt><trkpt lat="43.8004863" lon="11.5495893"><ele>610.6666666666667</ele><time>2026-04-18T16:20:10.188Z</time></trkpt><trkpt lat="43.8003919" lon="11.5494177"><ele>608.3333333333334</ele><time>2026-04-18T16:20:11.188Z</time></trkpt><trkpt lat="43.8002781" lon="11.5492857"><ele>606.0</ele><time>2026-04-18T16:20:12.187Z</time></trkpt><trkpt lat="43.8001393" lon="11.549189"><ele>613.6666666666666</ele><time>2026-04-18T16:20:13.187Z</time></trkpt><trkpt lat="43.7999776" lon="11.5491141"><ele>621.3333333333333</ele><time>2026-04-18T16:20:14.187Z</time></trkpt><trkpt lat="43.7998029" lon="11.5490446"><ele>629.0</ele><time>2026-04-18T16:20:15.188Z</time></trkpt><trkpt lat="43.7996128" lon="11.5489715"><ele>629.0</ele><time>2026-04-18T16:20:16.187Z</time></trkpt><trkpt lat="43.7994275" lon="11.5488993"><ele>629.0</ele><time>2026-04-18T16:20:17.187Z</time></trkpt><trkpt lat="43.7992557" lon="11.5488294"><ele>629.0</ele><time>2026-04-18T16:20:18.187Z</time></trkpt><trkpt lat="43.7991071" lon="11.548763"><ele>631.25</ele><time>2026-04-18T16:20:19.188Z</time></trkpt><trkpt lat="43.7989788" lon="11.5486774"><ele>633.5</ele><time>2026-04-18T16:20:20.187Z</time></trkpt><trkpt lat="43.798876" lon="11.5485465"><ele>635.75</ele><time>2026-04-18T16:20:21.187Z</time></trkpt><trkpt lat="43.7988116" lon="11.5483807"><ele>638.0</ele><time>2026-04-18T16:20:22.186Z</time></trkpt><trkpt lat="43.7987944" lon="11.5481843"><ele>638.0</ele><time>2026-04-18T16:20:23.186Z</time></trkpt><trkpt lat="43.7988113" lon="11.5479614"><ele>638.0</ele><time>2026-04-18T16:20:24.188Z</time></trkpt><trkpt lat="43.7988401" lon="11.5477186"><ele>638.0</ele><time>2026-04-18T16:20:25.188Z</time></trkpt><trkpt lat="43.7988671" lon="11.5474911"><ele>639.0</ele><time>2026-04-18T16:20:26.187Z</time></trkpt><trkpt lat="43.7988862" lon="11.5472838"><ele>640.0</ele><time>2026-04-18T16:20:27.186Z</time></trkpt><trkpt lat="43.7988745" lon="11.5470797"><ele>641.0</ele><time>2026-04-18T16:20:28.187Z</time></trkpt><trkpt lat="43.7988302" lon="11.5468831"><ele>642.0</ele><time>2026-04-18T16:20:29.187Z</time></trkpt><trkpt lat="43.7987512" lon="11.5466893"><ele>643.6666666666666</ele><time>2026-04-18T16:20:30.187Z</time></trkpt><trkpt lat="43.7986355" lon="11.5464989"><ele>645.3333333333333</ele><time>2026-04-18T16:20:31.188Z</time></trkpt><trkpt lat="43.7985045" lon="11.5463158"><ele>647.0</ele><time>2026-04-18T16:20:32.187Z</time></trkpt><trkpt lat="43.7983839" lon="11.5461495"><ele>652.6666666666666</ele><time>2026-04-18T16:20:33.187Z</time></trkpt><trkpt lat="43.7982852" lon="11.5459756"><ele>658.3333333333334</ele><time>2026-04-18T16:20:34.187Z</time></trkpt><trkpt lat="43.7981984" lon="11.5457616"><ele>664.0</ele><time>2026-04-18T16:20:35.188Z</time></trkpt><trkpt lat="43.7981276" lon="11.5455214"><ele>662.3333333333334</ele><time>2026-04-18T16:20:36.188Z</time></trkpt><trkpt lat="43.7980668" lon="11.5452679"><ele>660.6666666666666</ele><time>2026-04-18T16:20:37.188Z</time></trkpt><trkpt lat="43.7980276" lon="11.5450151"><ele>659.0</ele><time>2026-04-18T16:20:38.187Z</time></trkpt><trkpt lat="43.7980254" lon="11.5447604"><ele>658.0</ele><time>2026-04-18T16:20:39.187Z</time></trkpt><trkpt lat="43.7980473" lon="11.544488"><ele>657.0</ele><time>2026-04-18T16:20:40.186Z</time></trkpt><trkpt lat="43.7980822" lon="11.5442416"><ele>656.0</ele><time>2026-04-18T16:20:41.188Z</time></trkpt><trkpt lat="43.7981071" lon="11.5440085"><ele>656.0</ele><time>2026-04-18T16:20:42.187Z</time></trkpt><trkpt lat="43.7980923" lon="11.5437682"><ele>656.0</ele><time>2026-04-18T16:20:43.188Z</time></trkpt><trkpt lat="43.7980316" lon="11.5434989"><ele>656.0</ele><time>2026-04-18T16:20:44.188Z</time></trkpt><trkpt lat="43.7979353" lon="11.5432229"><ele>654.0</ele><time>2026-04-18T16:20:45.187Z</time></trkpt><trkpt lat="43.7978274" lon="11.5429296"><ele>652.0</ele><time>2026-04-18T16:20:46.187Z</time></trkpt><trkpt lat="43.7977485" lon="11.5426031"><ele>652.0</ele><time>2026-04-18T16:20:47.186Z</time></trkpt><trkpt lat="43.797685" lon="11.5422972"><ele>652.0</ele><time>2026-04-18T16:20:48.187Z</time></trkpt><trkpt lat="43.7976301" lon="11.5420227"><ele>652.0</ele><time>2026-04-18T16:20:49.187Z</time></trkpt><trkpt lat="43.7975925" lon="11.5417772"><ele>657.0</ele><time>2026-04-18T16:20:50.188Z</time></trkpt><trkpt lat="43.7975869" lon="11.5415465"><ele>662.0</ele><time>2026-04-18T16:20:51.188Z</time></trkpt><trkpt lat="43.7976344" lon="11.5413125"><ele>667.0</ele><time>2026-04-18T16:20:52.187Z</time></trkpt><trkpt lat="43.7977205" lon="11.5410768"><ele>667.0</ele><time>2026-04-18T16:20:53.187Z</time></trkpt><trkpt lat="43.7978143" lon="11.5408386"><ele>667.0</ele><time>2026-04-18T16:20:54.186Z</time></trkpt><trkpt lat="43.7978932" lon="11.5406199"><ele>667.0</ele><time>2026-04-18T16:20:55.186Z</time></trkpt><trkpt lat="43.7979387" lon="11.5404385"><ele>668.5</ele><time>2026-04-18T16:20:56.187Z</time></trkpt><trkpt lat="43.7979441" lon="11.54027"><ele>670.0</ele><time>2026-04-18T16:20:57.188Z</time></trkpt><trkpt lat="43.7978999" lon="11.5400869"><ele>671.5</ele><time>2026-04-18T16:20:58.187Z</time></trkpt><trkpt lat="43.7978064" lon="11.5398977"><ele>673.0</ele><time>2026-04-18T16:20:59.186Z</time></trkpt><trkpt lat="43.7976905" lon="11.5396981"><ele>679.6666666666667</ele><time>2026-04-18T16:21:00.187Z</time></trkpt><trkpt lat="43.7975663" lon="11.5395146"><ele>686.3333333333334</ele><time>2026-04-18T16:21:01.188Z</time></trkpt><trkpt lat="43.7974292" lon="11.5393686"><ele>693.0</ele><time>2026-04-18T16:21:02.187Z</time></trkpt><trkpt lat="43.7972518" lon="11.5392542"><ele>693.0</ele><time>2026-04-18T16:21:03.188Z</time></trkpt><trkpt lat="43.7970726" lon="11.5391786"><ele>693.0</ele><time>2026-04-18T16:21:04.188Z</time></trkpt><trkpt lat="43.796898" lon="11.5390854"><ele>693.0</ele><time>2026-04-18T16:21:05.187Z</time></trkpt><trkpt lat="43.7967192" lon="11.5389286"><ele>695.0</ele><time>2026-04-18T16:21:06.186Z</time></trkpt><trkpt lat="43.7965498" lon="11.5387275"><ele>697.0</ele><time>2026-04-18T16:21:07.185Z</time></trkpt><trkpt lat="43.79639" lon="11.5385065"><ele>699.0</ele><time>2026-04-18T16:21:08.187Z</time></trkpt><trkpt lat="43.7962494" lon="11.5382905"><ele>699.0</ele><time>2026-04-18T16:21:09.188Z</time></trkpt><trkpt lat="43.7961384" lon="11.5380617"><ele>699.0</ele><time>2026-04-18T16:21:10.188Z</time></trkpt><trkpt lat="43.7960555" lon="11.5378125"><ele>699.0</ele><time>2026-04-18T16:21:11.187Z</time></trkpt><trkpt lat="43.7960107" lon="11.5375538"><ele>698.0</ele><time>2026-04-18T16:21:12.187Z</time></trkpt><trkpt lat="43.7959971" lon="11.5372713"><ele>697.0</ele><time>2026-04-18T16:21:13.188Z</time></trkpt><trkpt lat="43.7960054" lon="11.5369807"><ele>696.0</ele><time>2026-04-18T16:21:14.187Z</time></trkpt><trkpt lat="43.7960175" lon="11.5367246"><ele>696.0</ele><time>2026-04-18T16:21:15.188Z</time></trkpt><trkpt lat="43.7960266" lon="11.5365103"><ele>696.0</ele><time>2026-04-18T16:21:16.185Z</time></trkpt><trkpt lat="43.7960192" lon="11.5363355"><ele>696.0</ele><time>2026-04-18T16:21:17.188Z</time></trkpt><trkpt lat="43.7959746" lon="11.5361993"><ele>696.0</ele><time>2026-04-18T16:21:18.187Z</time></trkpt><trkpt lat="43.7958943" lon="11.536107"><ele>701.0</ele><time>2026-04-18T16:21:19.187Z</time></trkpt><trkpt lat="43.7957991" lon="11.5360806"><ele>706.0</ele><time>2026-04-18T16:21:20.187Z</time></trkpt><trkpt lat="43.7957076" lon="11.5361276"><ele>711.0</ele><time>2026-04-18T16:21:21.187Z</time></trkpt><trkpt lat="43.7956446" lon="11.5362333"><ele>716.0</ele><time>2026-04-18T16:21:22.187Z</time></trkpt><trkpt lat="43.7955921" lon="11.5363761"><ele>721.0</ele><time>2026-04-18T16:21:23.186Z</time></trkpt><trkpt lat="43.7955936" lon="11.5366017"><ele>721.0</ele><time>2026-04-18T16:21:24.188Z</time></trkpt><trkpt lat="43.795573" lon="11.5368544"><ele>721.0</ele><time>2026-04-18T16:21:25.186Z</time></trkpt><trkpt lat="43.7955505" lon="11.5371271"><ele>721.0</ele><time>2026-04-18T16:21:26.186Z</time></trkpt><trkpt lat="43.7955291" lon="11.5374398"><ele>720.5</ele><time>2026-04-18T16:21:27.187Z</time></trkpt><trkpt lat="43.7955099" lon="11.537767"><ele>720.0</ele><time>2026-04-18T16:21:28.187Z</time></trkpt><trkpt lat="43.795507" lon="11.5380688"><ele>719.3333333333334</ele><time>2026-04-18T16:21:29.187Z</time></trkpt><trkpt lat="43.7955326" lon="11.538383"><ele>718.6666666666667</ele><time>2026-04-18T16:21:30.188Z</time></trkpt><trkpt lat="43.7955741" lon="11.5386807"><ele>718.0</ele><time>2026-04-18T16:21:31.188Z</time></trkpt><trkpt lat="43.7956186" lon="11.538936"><ele>720.0</ele><time>2026-04-18T16:21:32.187Z</time></trkpt><trkpt lat="43.7956575" lon="11.5391437"><ele>722.0</ele><time>2026-04-18T16:21:33.187Z</time></trkpt><trkpt lat="43.7956849" lon="11.5393273"><ele>724.0</ele><time>2026-04-18T16:21:34.187Z</time></trkpt><trkpt lat="43.7956899" lon="11.5394754"><ele>726.0</ele><time>2026-04-18T16:21:35.186Z</time></trkpt><trkpt lat="43.7956589" lon="11.539602"><ele>727.3333333333334</ele><time>2026-04-18T16:21:36.187Z</time></trkpt><trkpt lat="43.795594" lon="11.5396949"><ele>728.6666666666666</ele><time>2026-04-18T16:21:37.187Z</time></trkpt><trkpt lat="43.7955207" lon="11.5397397"><ele>730.0</ele><time>2026-04-18T16:21:38.188Z</time></trkpt><trkpt lat="43.7954567" lon="11.5397587"><ele>731.3333333333333</ele><time>2026-04-18T16:21:39.187Z</time></trkpt><trkpt lat="43.7953896" lon="11.5397812"><ele>732.6666666666666</ele><time>2026-04-18T16:21:41.186Z</time></trkpt><trkpt lat="43.7953404" lon="11.5399042"><ele>734.0</ele><time>2026-04-18T16:21:44.187Z</time></trkpt><trkpt lat="43.7953378" lon="11.5400454"><ele>734.0</ele><time>2026-04-18T16:21:46.186Z</time></trkpt><trkpt lat="43.7953229" lon="11.5401962"><ele>734.0</ele><time>2026-04-18T16:21:48.187Z</time></trkpt><trkpt lat="43.7953093" lon="11.5403445"><ele>734.0</ele><time>2026-04-18T16:21:50.186Z</time></trkpt><trkpt lat="43.7952957" lon="11.5404868"><ele>734.0</ele><time>2026-04-18T16:21:52.187Z</time></trkpt><trkpt lat="43.795283" lon="11.5406202"><ele>734.0</ele><time>2026-04-18T16:21:54.186Z</time></trkpt><trkpt lat="43.7952687" lon="11.5407637"><ele>735.5</ele><time>2026-04-18T16:21:56.188Z</time></trkpt><trkpt lat="43.7952539" lon="11.5409162"><ele>737.0</ele><time>2026-04-18T16:21:58.188Z</time></trkpt><trkpt lat="43.7952459" lon="11.541078"><ele>738.5</ele><time>2026-04-18T16:22:00.187Z</time></trkpt><trkpt lat="43.7952456" lon="11.5412373"><ele>740.0</ele><time>2026-04-18T16:22:02.188Z</time></trkpt><trkpt lat="43.795255" lon="11.5413897"><ele>741.5</ele><time>2026-04-18T16:22:04.188Z</time></trkpt><trkpt lat="43.7952774" lon="11.541567"><ele>743.0</ele><time>2026-04-18T16:22:06.187Z</time></trkpt><trkpt lat="43.7952934" lon="11.5417029"><ele>744.5</ele><time>2026-04-18T16:22:07.185Z</time></trkpt><trkpt lat="43.7953151" lon="11.5418681"><ele>746.0</ele><time>2026-04-18T16:22:08.186Z</time></trkpt><trkpt lat="43.7953473" lon="11.5420802"><ele>746.6666666666666</ele><time>2026-04-18T16:22:09.188Z</time></trkpt><trkpt lat="43.7953703" lon="11.5423057"><ele>747.3333333333334</ele><time>2026-04-18T16:22:10.188Z</time></trkpt><trkpt lat="43.7953761" lon="11.5425368"><ele>748.0</ele><time>2026-04-18T16:22:11.187Z</time></trkpt><trkpt lat="43.7953559" lon="11.5427751"><ele>746.3333333333334</ele><time>2026-04-18T16:22:12.188Z</time></trkpt><trkpt lat="43.795316" lon="11.5430052"><ele>744.6666666666666</ele><time>2026-04-18T16:22:13.187Z</time></trkpt><trkpt lat="43.7952789" lon="11.5432223"><ele>743.0</ele><time>2026-04-18T16:22:14.187Z</time></trkpt><trkpt lat="43.7952461" lon="11.5434358"><ele>743.0</ele><time>2026-04-18T16:22:15.187Z</time></trkpt><trkpt lat="43.7952113" lon="11.5436467"><ele>743.0</ele><time>2026-04-18T16:22:16.188Z</time></trkpt><trkpt lat="43.7951747" lon="11.5438657"><ele>743.0</ele><time>2026-04-18T16:22:17.188Z</time></trkpt><trkpt lat="43.7951349" lon="11.5441145"><ele>752.0</ele><time>2026-04-18T16:22:18.187Z</time></trkpt><trkpt lat="43.7951019" lon="11.5443509"><ele>761.0</ele><time>2026-04-18T16:22:19.187Z</time></trkpt><trkpt lat="43.7950679" lon="11.5445838"><ele>770.0</ele><time>2026-04-18T16:22:20.187Z</time></trkpt><trkpt lat="43.7950254" lon="11.5448065"><ele>770.0</ele><time>2026-04-18T16:22:21.187Z</time></trkpt><trkpt lat="43.794963" lon="11.5450301"><ele>770.0</ele><time>2026-04-18T16:22:22.185Z</time></trkpt><trkpt lat="43.7948887" lon="11.5452499"><ele>770.0</ele><time>2026-04-18T16:22:23.187Z</time></trkpt><trkpt lat="43.7948217" lon="11.5454774"><ele>768.6666666666667</ele><time>2026-04-18T16:22:24.188Z</time></trkpt><trkpt lat="43.794762" lon="11.5457137"><ele>767.3333333333334</ele><time>2026-04-18T16:22:25.187Z</time></trkpt><trkpt lat="43.7947198" lon="11.545955"><ele>766.0</ele><time>2026-04-18T16:22:26.188Z</time></trkpt><trkpt lat="43.794694" lon="11.5461996"><ele>766.6666666666667</ele><time>2026-04-18T16:22:27.186Z</time></trkpt><trkpt lat="43.7946852" lon="11.5464368"><ele>767.3333333333334</ele><time>2026-04-18T16:22:28.187Z</time></trkpt><trkpt lat="43.7946978" lon="11.5466459"><ele>768.0</ele><time>2026-04-18T16:22:29.187Z</time></trkpt><trkpt lat="43.7947063" lon="11.5468389"><ele>768.0</ele><time>2026-04-18T16:22:30.187Z</time></trkpt><trkpt lat="43.7946814" lon="11.5470107"><ele>768.0</ele><time>2026-04-18T16:22:31.187Z</time></trkpt><trkpt lat="43.7946172" lon="11.5471646"><ele>768.0</ele><time>2026-04-18T16:22:32.186Z</time></trkpt><trkpt lat="43.7945241" lon="11.547281"><ele>768.0</ele><time>2026-04-18T16:22:33.185Z</time></trkpt><trkpt lat="43.7944089" lon="11.5473467"><ele>772.0</ele><time>2026-04-18T16:22:34.187Z</time></trkpt><trkpt lat="43.7942647" lon="11.5473753"><ele>776.0</ele><time>2026-04-18T16:22:35.188Z</time></trkpt><trkpt lat="43.7941077" lon="11.5473821"><ele>780.0</ele><time>2026-04-18T16:22:36.185Z</time></trkpt><trkpt lat="43.7939466" lon="11.5473852"><ele>780.0</ele><time>2026-04-18T16:22:37.186Z</time></trkpt><trkpt lat="43.7937853" lon="11.5473902"><ele>780.0</ele><time>2026-04-18T16:22:38.187Z</time></trkpt><trkpt lat="43.7936251" lon="11.5474115"><ele>780.0</ele><time>2026-04-18T16:22:39.186Z</time></trkpt><trkpt lat="43.7934667" lon="11.5474317"><ele>783.3333333333333</ele><time>2026-04-18T16:22:40.186Z</time></trkpt><trkpt lat="43.7933288" lon="11.5475495"><ele>786.6666666666666</ele><time>2026-04-18T16:22:41.187Z</time></trkpt><trkpt lat="43.7932151" lon="11.5476759"><ele>790.0</ele><time>2026-04-18T16:22:42.186Z</time></trkpt><trkpt lat="43.7931262" lon="11.5478439"><ele>785.6666666666666</ele><time>2026-04-18T16:22:43.186Z</time></trkpt><trkpt lat="43.7930666" lon="11.548054"><ele>781.3333333333333</ele><time>2026-04-18T16:22:44.187Z</time></trkpt><trkpt lat="43.7930236" lon="11.5483113"><ele>777.0</ele><time>2026-04-18T16:22:45.187Z</time></trkpt><trkpt lat="43.7929846" lon="11.548597"><ele>777.0</ele><time>2026-04-18T16:22:46.187Z</time></trkpt><trkpt lat="43.7929806" lon="11.5489313"><ele>777.0</ele><time>2026-04-18T16:22:47.185Z</time></trkpt><trkpt lat="43.7929613" lon="11.5492602"><ele>778.0</ele><time>2026-04-18T16:22:48.188Z</time></trkpt><trkpt lat="43.7929452" lon="11.549558"><ele>779.0</ele><time>2026-04-18T16:22:49.188Z</time></trkpt><trkpt lat="43.7929308" lon="11.5498442"><ele>780.0</ele><time>2026-04-18T16:22:50.187Z</time></trkpt><trkpt lat="43.7929181" lon="11.5501194"><ele>780.0</ele><time>2026-04-18T16:22:51.187Z</time></trkpt><trkpt lat="43.7929137" lon="11.5503722"><ele>780.0</ele><time>2026-04-18T16:22:52.187Z</time></trkpt><trkpt lat="43.792923" lon="11.550629"><ele>780.0</ele><time>2026-04-18T16:22:53.187Z</time></trkpt><trkpt lat="43.7929446" lon="11.5508932"><ele>782.3333333333333</ele><time>2026-04-18T16:22:54.187Z</time></trkpt><trkpt lat="43.7929695" lon="11.5511727"><ele>784.6666666666666</ele><time>2026-04-18T16:22:55.186Z</time></trkpt><trkpt lat="43.7930009" lon="11.5514647"><ele>787.0</ele><time>2026-04-18T16:22:56.187Z</time></trkpt><trkpt lat="43.7930301" lon="11.5517598"><ele>791.3333333333333</ele><time>2026-04-18T16:22:57.187Z</time></trkpt><trkpt lat="43.7930614" lon="11.5520424"><ele>795.6666666666667</ele><time>2026-04-18T16:22:58.188Z</time></trkpt><trkpt lat="43.7930898" lon="11.5522994"><ele>800.0</ele><time>2026-04-18T16:22:59.187Z</time></trkpt><trkpt lat="43.793111" lon="11.5525123"><ele>800.0</ele><time>2026-04-18T16:23:00.186Z</time></trkpt><trkpt lat="43.7931196" lon="11.5527003"><ele>800.0</ele><time>2026-04-18T16:23:01.187Z</time></trkpt><trkpt lat="43.7930978" lon="11.5528785"><ele>800.0</ele><time>2026-04-18T16:23:02.186Z</time></trkpt><trkpt lat="43.7930398" lon="11.5530428"><ele>800.0</ele><time>2026-04-18T16:23:03.187Z</time></trkpt><trkpt lat="43.7929505" lon="11.5532013"><ele>800.6666666666667</ele><time>2026-04-18T16:23:04.187Z</time></trkpt><trkpt lat="43.7928363" lon="11.5533724"><ele>801.3333333333333</ele><time>2026-04-18T16:23:05.187Z</time></trkpt><trkpt lat="43.79271" lon="11.5535636"><ele>802.0</ele><time>2026-04-18T16:23:06.187Z</time></trkpt><trkpt lat="43.7926001" lon="11.5537605"><ele>804.3333333333333</ele><time>2026-04-18T16:23:07.186Z</time></trkpt><trkpt lat="43.7924915" lon="11.5539647"><ele>806.6666666666667</ele><time>2026-04-18T16:23:08.187Z</time></trkpt><trkpt lat="43.7923816" lon="11.5541652"><ele>809.0</ele><time>2026-04-18T16:23:09.188Z</time></trkpt><trkpt lat="43.7922693" lon="11.5543534"><ele>809.0</ele><time>2026-04-18T16:23:10.188Z</time></trkpt><trkpt lat="43.7921537" lon="11.5545107"><ele>809.0</ele><time>2026-04-18T16:23:11.187Z</time></trkpt><trkpt lat="43.7920242" lon="11.5546483"><ele>809.0</ele><time>2026-04-18T16:23:12.187Z</time></trkpt><trkpt lat="43.7919011" lon="11.5547657"><ele>812.25</ele><time>2026-04-18T16:23:13.187Z</time></trkpt><trkpt lat="43.791791" lon="11.5548924"><ele>815.5</ele><time>2026-04-18T16:23:14.186Z</time></trkpt><trkpt lat="43.7917049" lon="11.5550396"><ele>818.75</ele><time>2026-04-18T16:23:15.186Z</time></trkpt><trkpt lat="43.7916571" lon="11.5552035"><ele>822.0</ele><time>2026-04-18T16:23:16.187Z</time></trkpt><trkpt lat="43.7916519" lon="11.5553809"><ele>824.0</ele><time>2026-04-18T16:23:17.188Z</time></trkpt><trkpt lat="43.7916901" lon="11.5555528"><ele>826.0</ele><time>2026-04-18T16:23:18.186Z</time></trkpt><trkpt lat="43.7917678" lon="11.5557152"><ele>828.0</ele><time>2026-04-18T16:23:19.186Z</time></trkpt><trkpt lat="43.791868" lon="11.5558603"><ele>830.0</ele><time>2026-04-18T16:23:20.188Z</time></trkpt><trkpt lat="43.7919665" lon="11.5559798"><ele>823.25</ele><time>2026-04-18T16:23:21.187Z</time></trkpt><trkpt lat="43.7920556" lon="11.5561082"><ele>816.5</ele><time>2026-04-18T16:23:22.186Z</time></trkpt><trkpt lat="43.7921274" lon="11.556255"><ele>809.75</ele><time>2026-04-18T16:23:23.188Z</time></trkpt><trkpt lat="43.7921579" lon="11.5564153"><ele>803.0</ele><time>2026-04-18T16:23:24.188Z</time></trkpt><trkpt lat="43.792149" lon="11.5565783"><ele>803.0</ele><time>2026-04-18T16:23:25.187Z</time></trkpt><trkpt lat="43.7920974" lon="11.5567179"><ele>803.0</ele><time>2026-04-18T16:23:26.187Z</time></trkpt><trkpt lat="43.7920126" lon="11.5568248"><ele>803.0</ele><time>2026-04-18T16:23:27.185Z</time></trkpt><trkpt lat="43.7919125" lon="11.5569118"><ele>803.0</ele><time>2026-04-18T16:23:28.185Z</time></trkpt><trkpt lat="43.7918176" lon="11.5569922"><ele>810.5</ele><time>2026-04-18T16:23:29.188Z</time></trkpt><trkpt lat="43.7917465" lon="11.5570963"><ele>818.0</ele><time>2026-04-18T16:23:30.188Z</time></trkpt><trkpt lat="43.7917105" lon="11.5572359"><ele>825.5</ele><time>2026-04-18T16:23:31.188Z</time></trkpt><trkpt lat="43.7916701" lon="11.5573798"><ele>833.0</ele><time>2026-04-18T16:23:32.188Z</time></trkpt><trkpt lat="43.7917271" lon="11.5575932"><ele>833.0</ele><time>2026-04-18T16:23:33.188Z</time></trkpt><trkpt lat="43.7917027" lon="11.557754"><ele>833.0</ele><time>2026-04-18T16:23:34.187Z</time></trkpt><trkpt lat="43.791642" lon="11.5579015"><ele>833.0</ele><time>2026-04-18T16:23:35.186Z</time></trkpt><trkpt lat="43.7915622" lon="11.5580482"><ele>833.0</ele><time>2026-04-18T16:23:36.186Z</time></trkpt><trkpt lat="43.7914364" lon="11.5581891"><ele>830.0</ele><time>2026-04-18T16:23:37.188Z</time></trkpt><trkpt lat="43.7912669" lon="11.5582665"><ele>827.0</ele><time>2026-04-18T16:23:38.186Z</time></trkpt><trkpt lat="43.791121" lon="11.5583974"><ele>824.0</ele><time>2026-04-18T16:23:39.187Z</time></trkpt><trkpt lat="43.7909828" lon="11.5585464"><ele>827.0</ele><time>2026-04-18T16:23:40.187Z</time></trkpt><trkpt lat="43.7908514" lon="11.558704"><ele>830.0</ele><time>2026-04-18T16:23:41.187Z</time></trkpt><trkpt lat="43.7907398" lon="11.5588928"><ele>833.0</ele><time>2026-04-18T16:23:42.186Z</time></trkpt><trkpt lat="43.7906487" lon="11.5591231"><ele>833.0</ele><time>2026-04-18T16:23:43.187Z</time></trkpt><trkpt lat="43.7905638" lon="11.5593927"><ele>833.0</ele><time>2026-04-18T16:23:44.187Z</time></trkpt><trkpt lat="43.7905232" lon="11.559677"><ele>833.0</ele><time>2026-04-18T16:23:45.186Z</time></trkpt><trkpt lat="43.7904848" lon="11.5599541"><ele>834.6666666666667</ele><time>2026-04-18T16:23:46.187Z</time></trkpt><trkpt lat="43.7904388" lon="11.5602131"><ele>836.3333333333333</ele><time>2026-04-18T16:23:47.186Z</time></trkpt><trkpt lat="43.7903709" lon="11.5604553"><ele>838.0</ele><time>2026-04-18T16:23:48.188Z</time></trkpt><trkpt lat="43.7902822" lon="11.5606807"><ele>836.6666666666666</ele><time>2026-04-18T16:23:49.188Z</time></trkpt><trkpt lat="43.7901914" lon="11.5609123"><ele>835.3333333333333</ele><time>2026-04-18T16:23:50.185Z</time></trkpt><trkpt lat="43.7901071" lon="11.5611535"><ele>834.0</ele><time>2026-04-18T16:23:51.188Z</time></trkpt><trkpt lat="43.7900525" lon="11.5614028"><ele>834.0</ele><time>2026-04-18T16:23:52.187Z</time></trkpt><trkpt lat="43.7900234" lon="11.5616577"><ele>834.0</ele><time>2026-04-18T16:23:53.186Z</time></trkpt><trkpt lat="43.790025" lon="11.5619117"><ele>834.0</ele><time>2026-04-18T16:23:54.187Z</time></trkpt><trkpt lat="43.7900545" lon="11.562173"><ele>833.0</ele><time>2026-04-18T16:23:55.187Z</time></trkpt><trkpt lat="43.7900943" lon="11.5624322"><ele>832.0</ele><time>2026-04-18T16:23:56.188Z</time></trkpt><trkpt lat="43.7901296" lon="11.5626905"><ele>831.0</ele><time>2026-04-18T16:23:57.187Z</time></trkpt><trkpt lat="43.7901548" lon="11.5629588"><ele>831.0</ele><time>2026-04-18T16:23:58.187Z</time></trkpt><trkpt lat="43.7901593" lon="11.5632596"><ele>831.0</ele><time>2026-04-18T16:23:59.187Z</time></trkpt><trkpt lat="43.7901364" lon="11.5635831"><ele>833.0</ele><time>2026-04-18T16:24:00.186Z</time></trkpt><trkpt lat="43.7900884" lon="11.5639233"><ele>835.0</ele><time>2026-04-18T16:24:01.185Z</time></trkpt><trkpt lat="43.7900257" lon="11.5642679"><ele>839.5</ele><time>2026-04-18T16:24:02.187Z</time></trkpt><trkpt lat="43.7899633" lon="11.5645857"><ele>844.0</ele><time>2026-04-18T16:24:03.187Z</time></trkpt><trkpt lat="43.7899054" lon="11.5648807"><ele>844.0</ele><time>2026-04-18T16:24:04.187Z</time></trkpt><trkpt lat="43.7898477" lon="11.5651306"><ele>844.0</ele><time>2026-04-18T16:24:05.187Z</time></trkpt><trkpt lat="43.7897624" lon="11.5653267"><ele>844.0</ele><time>2026-04-18T16:24:06.187Z</time></trkpt><trkpt lat="43.7896349" lon="11.5654868"><ele>844.3333333333333</ele><time>2026-04-18T16:24:07.186Z</time></trkpt><trkpt lat="43.7894908" lon="11.5656425"><ele>844.6666666666667</ele><time>2026-04-18T16:24:08.188Z</time></trkpt><trkpt lat="43.7893458" lon="11.5658219"><ele>845.0</ele><time>2026-04-18T16:24:09.187Z</time></trkpt><trkpt lat="43.7892145" lon="11.5659987"><ele>845.0</ele><time>2026-04-18T16:24:10.188Z</time></trkpt><trkpt lat="43.7890915" lon="11.5661922"><ele>845.0</ele><time>2026-04-18T16:24:11.188Z</time></trkpt><trkpt lat="43.7889899" lon="11.566405"><ele>845.0</ele><time>2026-04-18T16:24:12.188Z</time></trkpt><trkpt lat="43.7889087" lon="11.5666228"><ele>850.3333333333334</ele><time>2026-04-18T16:24:13.187Z</time></trkpt><trkpt lat="43.7888381" lon="11.5668297"><ele>855.6666666666667</ele><time>2026-04-18T16:24:14.186Z</time></trkpt><trkpt lat="43.7887543" lon="11.5670216"><ele>861.0</ele><time>2026-04-18T16:24:15.186Z</time></trkpt><trkpt lat="43.78866" lon="11.5671928"><ele>858.0</ele><time>2026-04-18T16:24:16.188Z</time></trkpt><trkpt lat="43.7885543" lon="11.5673626"><ele>855.0</ele><time>2026-04-18T16:24:17.187Z</time></trkpt><trkpt lat="43.7884342" lon="11.5675134"><ele>852.0</ele><time>2026-04-18T16:24:18.188Z</time></trkpt><trkpt lat="43.7883378" lon="11.5676639"><ele>852.0</ele><time>2026-04-18T16:24:19.187Z</time></trkpt><trkpt lat="43.788259" lon="11.5678153"><ele>852.0</ele><time>2026-04-18T16:24:20.187Z</time></trkpt><trkpt lat="43.7882195" lon="11.5680023"><ele>852.0</ele><time>2026-04-18T16:24:21.187Z</time></trkpt><trkpt lat="43.7881796" lon="11.5682066"><ele>852.0</ele><time>2026-04-18T16:24:22.186Z</time></trkpt><trkpt lat="43.7881684" lon="11.5684404"><ele>860.3333333333333</ele><time>2026-04-18T16:24:23.186Z</time></trkpt><trkpt lat="43.7881851" lon="11.5686977"><ele>868.6666666666666</ele><time>2026-04-18T16:24:24.186Z</time></trkpt><trkpt lat="43.7881543" lon="11.5689504"><ele>877.0</ele><time>2026-04-18T16:24:25.187Z</time></trkpt><trkpt lat="43.788117" lon="11.5692057"><ele>877.0</ele><time>2026-04-18T16:24:26.187Z</time></trkpt><trkpt lat="43.7880804" lon="11.5694517"><ele>877.0</ele><time>2026-04-18T16:24:27.187Z</time></trkpt><trkpt lat="43.7880437" lon="11.5696897"><ele>877.0</ele><time>2026-04-18T16:24:28.186Z</time></trkpt><trkpt lat="43.7880041" lon="11.5699179"><ele>880.6666666666666</ele><time>2026-04-18T16:24:29.185Z</time></trkpt><trkpt lat="43.7879401" lon="11.5701112"><ele>884.3333333333333</ele><time>2026-04-18T16:24:30.188Z</time></trkpt><trkpt lat="43.7878392" lon="11.5702856"><ele>888.0</ele><time>2026-04-18T16:24:31.187Z</time></trkpt><trkpt lat="43.7877256" lon="11.5704471"><ele>882.6666666666667</ele><time>2026-04-18T16:24:32.187Z</time></trkpt><trkpt lat="43.7876117" lon="11.5706477"><ele>877.3333333333334</ele><time>2026-04-18T16:24:33.187Z</time></trkpt><trkpt lat="43.7875135" lon="11.5708897"><ele>872.0</ele><time>2026-04-18T16:24:34.187Z</time></trkpt><trkpt lat="43.7874292" lon="11.571159"><ele>875.6666666666667</ele><time>2026-04-18T16:24:35.186Z</time></trkpt><trkpt lat="43.7873605" lon="11.5714441"><ele>879.3333333333333</ele><time>2026-04-18T16:24:36.187Z</time></trkpt><trkpt lat="43.7873039" lon="11.571728"><ele>883.0</ele><time>2026-04-18T16:24:37.188Z</time></trkpt><trkpt lat="43.7872558" lon="11.5719993"><ele>885.0</ele><time>2026-04-18T16:24:38.187Z</time></trkpt><trkpt lat="43.7872213" lon="11.5722505"><ele>887.0</ele><time>2026-04-18T16:24:39.186Z</time></trkpt><trkpt lat="43.7871929" lon="11.5724808"><ele>889.0</ele><time>2026-04-18T16:24:40.186Z</time></trkpt><trkpt lat="43.7871664" lon="11.572688"><ele>891.0</ele><time>2026-04-18T16:24:41.186Z</time></trkpt><trkpt lat="43.7871243" lon="11.5728925"><ele>893.0</ele><time>2026-04-18T16:24:42.186Z</time></trkpt><trkpt lat="43.7870396" lon="11.573083"><ele>895.0</ele><time>2026-04-18T16:24:43.187Z</time></trkpt><trkpt lat="43.7869139" lon="11.5732634"><ele>893.3333333333333</ele><time>2026-04-18T16:24:44.188Z</time></trkpt><trkpt lat="43.7867758" lon="11.5734569"><ele>891.6666666666667</ele><time>2026-04-18T16:24:45.188Z</time></trkpt><trkpt lat="43.7866418" lon="11.5736963"><ele>890.0</ele><time>2026-04-18T16:24:46.186Z</time></trkpt><trkpt lat="43.7865206" lon="11.573959"><ele>893.6666666666667</ele><time>2026-04-18T16:24:47.186Z</time></trkpt><trkpt lat="43.7864174" lon="11.5741871"><ele>897.3333333333333</ele><time>2026-04-18T16:24:48.187Z</time></trkpt><trkpt lat="43.7862994" lon="11.5744072"><ele>901.0</ele><time>2026-04-18T16:24:49.186Z</time></trkpt><trkpt lat="43.7861753" lon="11.5745957"><ele>902.3333333333333</ele><time>2026-04-18T16:24:50.188Z</time></trkpt><trkpt lat="43.7860339" lon="11.5747584"><ele>903.6666666666667</ele><time>2026-04-18T16:24:51.186Z</time></trkpt><trkpt lat="43.7858908" lon="11.5749086"><ele>905.0</ele><time>2026-04-18T16:24:52.186Z</time></trkpt><trkpt lat="43.7857597" lon="11.5750879"><ele>905.0</ele><time>2026-04-18T16:24:53.187Z</time></trkpt><trkpt lat="43.7856404" lon="11.5753044"><ele>905.0</ele><time>2026-04-18T16:24:54.186Z</time></trkpt><trkpt lat="43.7855451" lon="11.5755143"><ele>905.0</ele><time>2026-04-18T16:24:55.187Z</time></trkpt><trkpt lat="43.7854743" lon="11.5757236"><ele>909.3333333333334</ele><time>2026-04-18T16:24:56.185Z</time></trkpt><trkpt lat="43.7854305" lon="11.5759806"><ele>913.6666666666667</ele><time>2026-04-18T16:24:57.188Z</time></trkpt><trkpt lat="43.7854128" lon="11.5762624"><ele>918.0</ele><time>2026-04-18T16:24:58.186Z</time></trkpt><trkpt lat="43.7853652" lon="11.5765483"><ele>922.0</ele><time>2026-04-18T16:24:59.185Z</time></trkpt><trkpt lat="43.7852962" lon="11.5768434"><ele>926.0</ele><time>2026-04-18T16:25:00.187Z</time></trkpt><trkpt lat="43.785221" lon="11.5771444"><ele>925.3333333333334</ele><time>2026-04-18T16:25:01.187Z</time></trkpt><trkpt lat="43.7851476" lon="11.5774255"><ele>924.6666666666667</ele><time>2026-04-18T16:25:02.186Z</time></trkpt><trkpt lat="43.7850921" lon="11.5776902"><ele>924.0</ele><time>2026-04-18T16:25:03.188Z</time></trkpt><trkpt lat="43.7850434" lon="11.5779301"><ele>929.6666666666667</ele><time>2026-04-18T16:25:04.186Z</time></trkpt><trkpt lat="43.7849843" lon="11.5781343"><ele>935.3333333333334</ele><time>2026-04-18T16:25:05.188Z</time></trkpt><trkpt lat="43.7848872" lon="11.5782857"><ele>941.0</ele><time>2026-04-18T16:25:06.187Z</time></trkpt><trkpt lat="43.7847498" lon="11.5784008"><ele>941.0</ele><time>2026-04-18T16:25:07.185Z</time></trkpt><trkpt lat="43.7845793" lon="11.5784629"><ele>941.0</ele><time>2026-04-18T16:25:08.187Z</time></trkpt><trkpt lat="43.7844161" lon="11.5785163"><ele>941.0</ele><time>2026-04-18T16:25:09.188Z</time></trkpt><trkpt lat="43.7842755" lon="11.5785965"><ele>944.0</ele><time>2026-04-18T16:25:10.188Z</time></trkpt><trkpt lat="43.7841452" lon="11.5787127"><ele>947.0</ele><time>2026-04-18T16:25:11.187Z</time></trkpt><trkpt lat="43.7840347" lon="11.5788577"><ele>950.0</ele><time>2026-04-18T16:25:12.185Z</time></trkpt><trkpt lat="43.7839522" lon="11.5790243"><ele>950.0</ele><time>2026-04-18T16:25:13.187Z</time></trkpt><trkpt lat="43.7838968" lon="11.5792081"><ele>950.0</ele><time>2026-04-18T16:25:14.186Z</time></trkpt><trkpt lat="43.7838489" lon="11.5793634"><ele>950.0</ele><time>2026-04-18T16:25:15.187Z</time></trkpt><trkpt lat="43.7837819" lon="11.5794736"><ele>950.0</ele><time>2026-04-18T16:25:16.187Z</time></trkpt><trkpt lat="43.7836756" lon="11.5795434"><ele>952.25</ele><time>2026-04-18T16:25:17.187Z</time></trkpt><trkpt lat="43.7835519" lon="11.5796109"><ele>954.5</ele><time>2026-04-18T16:25:18.186Z</time></trkpt><trkpt lat="43.7834142" lon="11.5796948"><ele>956.75</ele><time>2026-04-18T16:25:19.187Z</time></trkpt><trkpt lat="43.7832807" lon="11.5797828"><ele>959.0</ele><time>2026-04-18T16:25:20.187Z</time></trkpt><trkpt lat="43.7831628" lon="11.5798719"><ele>959.0</ele><time>2026-04-18T16:25:21.186Z</time></trkpt><trkpt lat="43.7830536" lon="11.579984"><ele>959.0</ele><time>2026-04-18T16:25:22.185Z</time></trkpt><trkpt lat="43.782963" lon="11.5801456"><ele>959.0</ele><time>2026-04-18T16:25:23.188Z</time></trkpt><trkpt lat="43.782897" lon="11.5803398"><ele>959.0</ele><time>2026-04-18T16:25:24.187Z</time></trkpt><trkpt lat="43.7828437" lon="11.5805372"><ele>958.3333333333334</ele><time>2026-04-18T16:25:25.186Z</time></trkpt><trkpt lat="43.7827665" lon="11.580721"><ele>957.6666666666667</ele><time>2026-04-18T16:25:26.186Z</time></trkpt><trkpt lat="43.7826709" lon="11.5808977"><ele>957.0</ele><time>2026-04-18T16:25:27.185Z</time></trkpt><trkpt lat="43.7825743" lon="11.5810727"><ele>964.3333333333333</ele><time>2026-04-18T16:25:28.188Z</time></trkpt><trkpt lat="43.7824817" lon="11.5812427"><ele>971.6666666666666</ele><time>2026-04-18T16:25:29.188Z</time></trkpt><trkpt lat="43.7823831" lon="11.5813973"><ele>979.0</ele><time>2026-04-18T16:25:30.186Z</time></trkpt><trkpt lat="43.7822649" lon="11.5815326"><ele>979.0</ele><time>2026-04-18T16:25:31.187Z</time></trkpt><trkpt lat="43.7821232" lon="11.5816501"><ele>979.0</ele><time>2026-04-18T16:25:32.185Z</time></trkpt><trkpt lat="43.7819751" lon="11.5817505"><ele>979.0</ele><time>2026-04-18T16:25:33.188Z</time></trkpt><trkpt lat="43.7818248" lon="11.5818302"><ele>981.5</ele><time>2026-04-18T16:25:34.186Z</time></trkpt><trkpt lat="43.7816827" lon="11.581883"><ele>984.0</ele><time>2026-04-18T16:25:35.188Z</time></trkpt><trkpt lat="43.7815539" lon="11.5819458"><ele>986.5</ele><time>2026-04-18T16:25:36.188Z</time></trkpt><trkpt lat="43.7814598" lon="11.5820456"><ele>989.0</ele><time>2026-04-18T16:25:37.187Z</time></trkpt><trkpt lat="43.7813878" lon="11.5821945"><ele>989.0</ele><time>2026-04-18T16:25:38.187Z</time></trkpt><trkpt lat="43.7813136" lon="11.5823486"><ele>989.0</ele><time>2026-04-18T16:25:39.187Z</time></trkpt><trkpt lat="43.7813321" lon="11.5825975"><ele>989.0</ele><time>2026-04-18T16:25:40.186Z</time></trkpt><trkpt lat="43.7813115" lon="11.5827907"><ele>991.2</ele><time>2026-04-18T16:25:41.188Z</time></trkpt><trkpt lat="43.7812987" lon="11.5829642"><ele>993.4000000000001</ele><time>2026-04-18T16:25:42.188Z</time></trkpt><trkpt lat="43.7812889" lon="11.5831216"><ele>995.6</ele><time>2026-04-18T16:25:43.187Z</time></trkpt><trkpt lat="43.7812782" lon="11.5832609"><ele>997.8</ele><time>2026-04-18T16:25:44.186Z</time></trkpt><trkpt lat="43.7812367" lon="11.5833801"><ele>1000.0</ele><time>2026-04-18T16:25:45.187Z</time></trkpt><trkpt lat="43.781155" lon="11.5834512"><ele>1000.0</ele><time>2026-04-18T16:25:46.186Z</time></trkpt><trkpt lat="43.7810495" lon="11.5834937"><ele>1000.0</ele><time>2026-04-18T16:25:47.187Z</time></trkpt><trkpt lat="43.7809569" lon="11.5835535"><ele>1000.0</ele><time>2026-04-18T16:25:48.188Z</time></trkpt><trkpt lat="43.7808854" lon="11.5836625"><ele>1000.0</ele><time>2026-04-18T16:25:49.188Z</time></trkpt><trkpt lat="43.7808092" lon="11.5837696"><ele>1000.0</ele><time>2026-04-18T16:25:50.187Z</time></trkpt><trkpt lat="43.7808364" lon="11.5839754"><ele>998.75</ele><time>2026-04-18T16:25:51.186Z</time></trkpt><trkpt lat="43.7808094" lon="11.584139"><ele>997.5</ele><time>2026-04-18T16:25:52.187Z</time></trkpt><trkpt lat="43.7807523" lon="11.5843002"><ele>996.25</ele><time>2026-04-18T16:25:53.186Z</time></trkpt><trkpt lat="43.7806561" lon="11.5844513"><ele>995.0</ele><time>2026-04-18T16:25:54.185Z</time></trkpt><trkpt lat="43.7805308" lon="11.5846138"><ele>999.3333333333334</ele><time>2026-04-18T16:25:55.186Z</time></trkpt><trkpt lat="43.7804109" lon="11.5847914"><ele>1003.6666666666667</ele><time>2026-04-18T16:25:56.187Z</time></trkpt><trkpt lat="43.7803078" lon="11.584949"><ele>1008.0</ele><time>2026-04-18T16:25:57.186Z</time></trkpt><trkpt lat="43.7802119" lon="11.5850854"><ele>1008.4</ele><time>2026-04-18T16:25:58.186Z</time></trkpt><trkpt lat="43.7801148" lon="11.585203"><ele>1008.8</ele><time>2026-04-18T16:25:59.186Z</time></trkpt><trkpt lat="43.7800148" lon="11.5852989"><ele>1009.2</ele><time>2026-04-18T16:26:00.187Z</time></trkpt><trkpt lat="43.7799208" lon="11.5853661"><ele>1009.6</ele><time>2026-04-18T16:26:01.186Z</time></trkpt><trkpt lat="43.7798414" lon="11.585418"><ele>1010.0</ele><time>2026-04-18T16:26:02.188Z</time></trkpt><trkpt lat="43.7797797" lon="11.5854487"><ele>1010.0000000000001</ele><time>2026-04-18T16:26:03.186Z</time></trkpt><trkpt lat="43.7797084" lon="11.5853978"><ele>1010.0</ele><time>2026-04-18T16:26:05.186Z</time></trkpt><trkpt lat="43.7796846" lon="11.5852722"><ele>1010.0</ele><time>2026-04-18T16:26:07.187Z</time></trkpt><trkpt lat="43.7796934" lon="11.5851569"><ele>1010.0</ele><time>2026-04-18T16:26:09.187Z</time></trkpt><trkpt lat="43.779714" lon="11.5850324"><ele>1010.0000000000001</ele><time>2026-04-18T16:26:12.187Z</time></trkpt><trkpt lat="43.7797296" lon="11.5849462"><ele>1010.0</ele><time>2026-04-18T16:26:14.188Z</time></trkpt><trkpt lat="43.7797481" lon="11.5848443"><ele>1010.0000000000001</ele><time>2026-04-18T16:26:16.187Z</time></trkpt><trkpt lat="43.7797615" lon="11.5847487"><ele>1010.0</ele><time>2026-04-18T16:26:18.186Z</time></trkpt><trkpt lat="43.7797554" lon="11.58462"><ele>1010.0</ele><time>2026-04-18T16:27:15.187Z</time></trkpt><trkpt lat="43.7797546" lon="11.5845299"><ele>1010.0</ele><time>2026-04-18T16:27:16.188Z</time></trkpt><trkpt lat="43.7797475" lon="11.5844308"><ele>1010.0000000000001</ele><time>2026-04-18T16:27:17.187Z</time></trkpt><trkpt lat="43.77973" lon="11.5843054"><ele>1010.0</ele><time>2026-04-18T16:27:18.188Z</time></trkpt><trkpt lat="43.7797069" lon="11.5841682"><ele>1009.8333333333334</ele><time>2026-04-18T16:27:19.185Z</time></trkpt><trkpt lat="43.7796693" lon="11.5840452"><ele>1009.6666666666667</ele><time>2026-04-18T16:27:20.187Z</time></trkpt><trkpt lat="43.7796083" lon="11.5839485"><ele>1009.5</ele><time>2026-04-18T16:27:21.188Z</time></trkpt><trkpt lat="43.7795367" lon="11.5838768"><ele>1009.3333333333333</ele><time>2026-04-18T16:27:22.187Z</time></trkpt><trkpt lat="43.77946" lon="11.5838484"><ele>1009.1666666666666</ele><time>2026-04-18T16:27:23.188Z</time></trkpt><trkpt lat="43.7793704" lon="11.5838619"><ele>1009.0</ele><time>2026-04-18T16:27:24.187Z</time></trkpt><trkpt lat="43.7792764" lon="11.5839035"><ele>1009.0</ele><time>2026-04-18T16:27:25.188Z</time></trkpt><trkpt lat="43.7791775" lon="11.5839565"><ele>1009.0000000000001</ele><time>2026-04-18T16:27:26.186Z</time></trkpt><trkpt lat="43.7791006" lon="11.5840329"><ele>1009.0000000000001</ele><time>2026-04-18T16:27:27.187Z</time></trkpt><trkpt lat="43.7790128" lon="11.5840953"><ele>1009.0</ele><time>2026-04-18T16:27:28.188Z</time></trkpt><trkpt lat="43.7789053" lon="11.5841561"><ele>1009.0</ele><time>2026-04-18T16:27:29.187Z</time></trkpt><trkpt lat="43.7787944" lon="11.5841973"><ele>1009.0</ele><time>2026-04-18T16:27:30.187Z</time></trkpt><trkpt lat="43.7786694" lon="11.5842142"><ele>1009.0</ele><time>2026-04-18T16:27:31.188Z</time></trkpt><trkpt lat="43.778549" lon="11.5842098"><ele>1009.0</ele><time>2026-04-18T16:27:32.187Z</time></trkpt><trkpt lat="43.7784345" lon="11.5841994"><ele>1009.0</ele><time>2026-04-18T16:27:33.187Z</time></trkpt><trkpt lat="43.7783194" lon="11.5841891"><ele>1007.4000000000001</ele><time>2026-04-18T16:27:34.188Z</time></trkpt><trkpt lat="43.7782064" lon="11.5841753"><ele>1005.8000000000001</ele><time>2026-04-18T16:27:35.188Z</time></trkpt><trkpt lat="43.7780967" lon="11.5841702"><ele>1004.1999999999999</ele><time>2026-04-18T16:27:36.188Z</time></trkpt><trkpt lat="43.7779978" lon="11.5841829"><ele>1002.5999999999999</ele><time>2026-04-18T16:27:37.187Z</time></trkpt><trkpt lat="43.7779096" lon="11.5842286"><ele>1001.0</ele><time>2026-04-18T16:27:38.187Z</time></trkpt><trkpt lat="43.7778431" lon="11.5843145"><ele>1001.0</ele><time>2026-04-18T16:27:39.187Z</time></trkpt><trkpt lat="43.7777831" lon="11.5844177"><ele>1000.9999999999999</ele><time>2026-04-18T16:27:40.186Z</time></trkpt><trkpt lat="43.7777857" lon="11.5845498"><ele>1000.9999999999999</ele><time>2026-04-18T16:27:41.187Z</time></trkpt><trkpt lat="43.777794" lon="11.5846926"><ele>1001.0</ele><time>2026-04-18T16:27:42.186Z</time></trkpt><trkpt lat="43.7778007" lon="11.584838"><ele>1001.0</ele><time>2026-04-18T16:27:43.188Z</time></trkpt><trkpt lat="43.7777783" lon="11.5849725"><ele>1001.0</ele><time>2026-04-18T16:27:44.186Z</time></trkpt><trkpt lat="43.7777255" lon="11.5850944"><ele>1000.9999999999999</ele><time>2026-04-18T16:27:45.187Z</time></trkpt><trkpt lat="43.777653" lon="11.5852019"><ele>1000.9999999999999</ele><time>2026-04-18T16:27:46.186Z</time></trkpt><trkpt lat="43.7775713" lon="11.585303"><ele>1001.0</ele><time>2026-04-18T16:27:47.188Z</time></trkpt><trkpt lat="43.7774893" lon="11.5854187"><ele>1001.0</ele><time>2026-04-18T16:27:48.188Z</time></trkpt><trkpt lat="43.7774043" lon="11.5855385"><ele>1001.0</ele><time>2026-04-18T16:27:49.186Z</time></trkpt><trkpt lat="43.7773465" lon="11.5856996"><ele>1001.0</ele><time>2026-04-18T16:27:50.188Z</time></trkpt><trkpt lat="43.7772725" lon="11.5858445"><ele>1001.0</ele><time>2026-04-18T16:27:51.187Z</time></trkpt><trkpt lat="43.7772067" lon="11.5859848"><ele>1001.0</ele><time>2026-04-18T16:27:52.185Z</time></trkpt><trkpt lat="43.7771497" lon="11.5861135"><ele>1002.8</ele><time>2026-04-18T16:27:53.186Z</time></trkpt><trkpt lat="43.7770927" lon="11.5862199"><ele>1004.5999999999999</ele><time>2026-04-18T16:27:54.187Z</time></trkpt><trkpt lat="43.7770276" lon="11.5862835"><ele>1006.4</ele><time>2026-04-18T16:27:55.187Z</time></trkpt><trkpt lat="43.7769688" lon="11.5863163"><ele>1008.2</ele><time>2026-04-18T16:27:56.187Z</time></trkpt><trkpt lat="43.7769051" lon="11.5863458"><ele>1010.0</ele><time>2026-04-18T16:27:57.188Z</time></trkpt><trkpt lat="43.7768413" lon="11.5861655"><ele>1005.8</ele><time>2026-04-18T16:27:58.187Z</time></trkpt><trkpt lat="43.7768188" lon="11.5860406"><ele>1001.6</ele><time>2026-04-18T16:27:59.187Z</time></trkpt><trkpt lat="43.7767843" lon="11.5859166"><ele>997.4000000000001</ele><time>2026-04-18T16:28:00.187Z</time></trkpt><trkpt lat="43.7767538" lon="11.5857657"><ele>993.2</ele><time>2026-04-18T16:28:01.187Z</time></trkpt><trkpt lat="43.7767488" lon="11.5855893"><ele>989.0</ele><time>2026-04-18T16:28:02.188Z</time></trkpt><trkpt lat="43.7767256" lon="11.5854215"><ele>988.5</ele><time>2026-04-18T16:28:03.186Z</time></trkpt><trkpt lat="43.7767054" lon="11.5852643"><ele>988.0</ele><time>2026-04-18T16:28:04.187Z</time></trkpt><trkpt lat="43.7766854" lon="11.5850903"><ele>987.5</ele><time>2026-04-18T16:28:05.187Z</time></trkpt><trkpt lat="43.7766575" lon="11.5849204"><ele>987.0</ele><time>2026-04-18T16:28:06.187Z</time></trkpt><trkpt lat="43.776615" lon="11.5847577"><ele>987.0</ele><time>2026-04-18T16:28:07.188Z</time></trkpt><trkpt lat="43.7765393" lon="11.5846059"><ele>987.0</ele><time>2026-04-18T16:28:08.186Z</time></trkpt><trkpt lat="43.7764922" lon="11.5844384"><ele>987.0</ele><time>2026-04-18T16:28:09.188Z</time></trkpt><trkpt lat="43.7764577" lon="11.5842672"><ele>987.0</ele><time>2026-04-18T16:28:10.187Z</time></trkpt><trkpt lat="43.7764335" lon="11.5840952"><ele>985.5</ele><time>2026-04-18T16:28:11.187Z</time></trkpt><trkpt lat="43.7764147" lon="11.5839211"><ele>984.0</ele><time>2026-04-18T16:28:12.186Z</time></trkpt><trkpt lat="43.7763966" lon="11.5837453"><ele>982.5</ele><time>2026-04-18T16:28:13.187Z</time></trkpt><trkpt lat="43.7763833" lon="11.5835663"><ele>981.0</ele><time>2026-04-18T16:28:14.187Z</time></trkpt><trkpt lat="43.7763792" lon="11.5833923"><ele>980.0</ele><time>2026-04-18T16:28:15.188Z</time></trkpt><trkpt lat="43.7763677" lon="11.5832164"><ele>979.0</ele><time>2026-04-18T16:28:16.187Z</time></trkpt><trkpt lat="43.7763606" lon="11.5830468"><ele>978.0</ele><time>2026-04-18T16:28:17.186Z</time></trkpt><trkpt lat="43.7764091" lon="11.582907"><ele>977.0</ele><time>2026-04-18T16:28:18.187Z</time></trkpt><trkpt lat="43.7764327" lon="11.5827589"><ele>975.8</ele><time>2026-04-18T16:28:19.187Z</time></trkpt><trkpt lat="43.7764542" lon="11.5826204"><ele>974.6</ele><time>2026-04-18T16:28:20.187Z</time></trkpt><trkpt lat="43.7764395" lon="11.5824721"><ele>973.3999999999999</ele><time>2026-04-18T16:28:21.185Z</time></trkpt><trkpt lat="43.7764131" lon="11.5823259"><ele>972.1999999999999</ele><time>2026-04-18T16:28:22.187Z</time></trkpt><trkpt lat="43.7763529" lon="11.5821864"><ele>971.0</ele><time>2026-04-18T16:28:23.187Z</time></trkpt><trkpt lat="43.7763033" lon="11.5820412"><ele>971.0</ele><time>2026-04-18T16:28:24.186Z</time></trkpt><trkpt lat="43.7762702" lon="11.5818992"><ele>971.0</ele><time>2026-04-18T16:28:25.186Z</time></trkpt><trkpt lat="43.7762529" lon="11.5817476"><ele>971.0</ele><time>2026-04-18T16:28:26.187Z</time></trkpt><trkpt lat="43.7762864" lon="11.5815699"><ele>971.0</ele><time>2026-04-18T16:28:27.186Z</time></trkpt><trkpt lat="43.7762949" lon="11.5813795"><ele>971.6666666666667</ele><time>2026-04-18T16:28:28.188Z</time></trkpt><trkpt lat="43.7763133" lon="11.5811636"><ele>972.3333333333333</ele><time>2026-04-18T16:28:29.187Z</time></trkpt><trkpt lat="43.7763216" lon="11.5809583"><ele>973.0</ele><time>2026-04-18T16:28:30.187Z</time></trkpt><trkpt lat="43.7763332" lon="11.5807534"><ele>973.0</ele><time>2026-04-18T16:28:31.187Z</time></trkpt><trkpt lat="43.7763425" lon="11.5805507"><ele>973.0</ele><time>2026-04-18T16:28:32.186Z</time></trkpt><trkpt lat="43.7763393" lon="11.5803541"><ele>973.0</ele><time>2026-04-18T16:28:33.188Z</time></trkpt><trkpt lat="43.7763357" lon="11.5801559"><ele>973.0</ele><time>2026-04-18T16:28:34.186Z</time></trkpt><trkpt lat="43.7763104" lon="11.5799561"><ele>973.5</ele><time>2026-04-18T16:28:35.188Z</time></trkpt><trkpt lat="43.7762798" lon="11.5797416"><ele>974.0</ele><time>2026-04-18T16:28:36.188Z</time></trkpt><trkpt lat="43.7762207" lon="11.5795679"><ele>974.5</ele><time>2026-04-18T16:28:37.187Z</time></trkpt><trkpt lat="43.7761961" lon="11.5793788"><ele>975.0</ele><time>2026-04-18T16:28:38.186Z</time></trkpt><trkpt lat="43.77615" lon="11.5791827"><ele>974.25</ele><time>2026-04-18T16:28:39.187Z</time></trkpt><trkpt lat="43.7761115" lon="11.5789942"><ele>973.5</ele><time>2026-04-18T16:28:40.186Z</time></trkpt><trkpt lat="43.7760566" lon="11.5788037"><ele>972.75</ele><time>2026-04-18T16:28:41.188Z</time></trkpt><trkpt lat="43.7759854" lon="11.5786323"><ele>972.0</ele><time>2026-04-18T16:28:42.187Z</time></trkpt><trkpt lat="43.7759138" lon="11.5784549"><ele>972.0</ele><time>2026-04-18T16:28:43.188Z</time></trkpt><trkpt lat="43.7758306" lon="11.5782948"><ele>972.0</ele><time>2026-04-18T16:28:44.188Z</time></trkpt><trkpt lat="43.7757412" lon="11.5781539"><ele>972.0</ele><time>2026-04-18T16:28:45.187Z</time></trkpt><trkpt lat="43.7756383" lon="11.5780282"><ele>972.0</ele><time>2026-04-18T16:28:46.187Z</time></trkpt><trkpt lat="43.7755394" lon="11.5779111"><ele>971.75</ele><time>2026-04-18T16:28:47.186Z</time></trkpt><trkpt lat="43.7754379" lon="11.5777964"><ele>971.5</ele><time>2026-04-18T16:28:48.187Z</time></trkpt><trkpt lat="43.7753404" lon="11.5776674"><ele>971.25</ele><time>2026-04-18T16:28:49.187Z</time></trkpt><trkpt lat="43.775248" lon="11.5775306"><ele>971.0</ele><time>2026-04-18T16:28:50.186Z</time></trkpt><trkpt lat="43.7751551" lon="11.5773826"><ele>972.75</ele><time>2026-04-18T16:28:51.188Z</time></trkpt><trkpt lat="43.7750597" lon="11.5772374"><ele>974.5</ele><time>2026-04-18T16:28:52.188Z</time></trkpt><trkpt lat="43.7749611" lon="11.5770911"><ele>976.25</ele><time>2026-04-18T16:28:53.185Z</time></trkpt><trkpt lat="43.7748686" lon="11.5769408"><ele>978.0</ele><time>2026-04-18T16:28:54.188Z</time></trkpt><trkpt lat="43.7747798" lon="11.5767757"><ele>978.0</ele><time>2026-04-18T16:28:55.187Z</time></trkpt><trkpt lat="43.774714" lon="11.5766026"><ele>978.0</ele><time>2026-04-18T16:28:56.186Z</time></trkpt><trkpt lat="43.7746418" lon="11.5764415"><ele>978.0</ele><time>2026-04-18T16:28:57.187Z</time></trkpt><trkpt lat="43.7746237" lon="11.5762761"><ele>978.0</ele><time>2026-04-18T16:28:58.186Z</time></trkpt><trkpt lat="43.7745794" lon="11.5761248"><ele>978.0</ele><time>2026-04-18T16:28:59.187Z</time></trkpt><trkpt lat="43.774524" lon="11.5760071"><ele>978.0</ele><time>2026-04-18T16:29:00.186Z</time></trkpt><trkpt lat="43.7744558" lon="11.5758934"><ele>978.0</ele><time>2026-04-18T16:29:01.188Z</time></trkpt><trkpt lat="43.7743404" lon="11.5758547"><ele>978.0</ele><time>2026-04-18T16:29:02.187Z</time></trkpt><trkpt lat="43.7742444" lon="11.5757761"><ele>978.0</ele><time>2026-04-18T16:29:03.187Z</time></trkpt><trkpt lat="43.7741644" lon="11.575663"><ele>975.5</ele><time>2026-04-18T16:29:04.187Z</time></trkpt><trkpt lat="43.7740734" lon="11.5755533"><ele>973.0</ele><time>2026-04-18T16:29:05.186Z</time></trkpt><trkpt lat="43.7740083" lon="11.5754141"><ele>970.5</ele><time>2026-04-18T16:29:06.186Z</time></trkpt><trkpt lat="43.7739245" lon="11.5752926"><ele>968.0</ele><time>2026-04-18T16:29:07.188Z</time></trkpt><trkpt lat="43.7738466" lon="11.5751532"><ele>968.0</ele><time>2026-04-18T16:29:08.187Z</time></trkpt><trkpt lat="43.7737907" lon="11.5749812"><ele>968.0</ele><time>2026-04-18T16:29:09.185Z</time></trkpt><trkpt lat="43.773742" lon="11.5748141"><ele>968.0</ele><time>2026-04-18T16:29:10.187Z</time></trkpt><trkpt lat="43.7737054" lon="11.5746498"><ele>968.0</ele><time>2026-04-18T16:29:11.186Z</time></trkpt><trkpt lat="43.7736716" lon="11.5744928"><ele>968.5</ele><time>2026-04-18T16:29:12.185Z</time></trkpt><trkpt lat="43.7736299" lon="11.5743478"><ele>969.0</ele><time>2026-04-18T16:29:13.186Z</time></trkpt><trkpt lat="43.7735771" lon="11.5742213"><ele>969.5</ele><time>2026-04-18T16:29:14.188Z</time></trkpt><trkpt lat="43.7734887" lon="11.5740728"><ele>970.0</ele><time>2026-04-18T16:29:15.187Z</time></trkpt><trkpt lat="43.7733991" lon="11.5739367"><ele>967.2</ele><time>2026-04-18T16:29:16.187Z</time></trkpt><trkpt lat="43.7733353" lon="11.5737938"><ele>964.4</ele><time>2026-04-18T16:29:17.186Z</time></trkpt><trkpt lat="43.7732769" lon="11.5736666"><ele>961.5999999999999</ele><time>2026-04-18T16:29:18.186Z</time></trkpt><trkpt lat="43.7732031" lon="11.573557"><ele>958.8</ele><time>2026-04-18T16:29:19.186Z</time></trkpt><trkpt lat="43.773113" lon="11.5735628"><ele>956.0</ele><time>2026-04-18T16:29:20.188Z</time></trkpt><trkpt lat="43.7730332" lon="11.5735283"><ele>956.0</ele><time>2026-04-18T16:29:21.187Z</time></trkpt><trkpt lat="43.7729486" lon="11.5735107"><ele>955.9999999999999</ele><time>2026-04-18T16:29:22.187Z</time></trkpt><trkpt lat="43.7728528" lon="11.5734697"><ele>955.9999999999999</ele><time>2026-04-18T16:29:23.186Z</time></trkpt><trkpt lat="43.7727777" lon="11.5733708"><ele>956.0</ele><time>2026-04-18T16:29:24.186Z</time></trkpt><trkpt lat="43.772699" lon="11.5732649"><ele>956.0</ele><time>2026-04-18T16:29:25.186Z</time></trkpt><trkpt lat="43.7726042" lon="11.5731534"><ele>955.75</ele><time>2026-04-18T16:29:26.186Z</time></trkpt><trkpt lat="43.7725171" lon="11.573042"><ele>955.5</ele><time>2026-04-18T16:29:27.187Z</time></trkpt><trkpt lat="43.7724313" lon="11.5729198"><ele>955.25</ele><time>2026-04-18T16:29:28.187Z</time></trkpt><trkpt lat="43.7723586" lon="11.5727677"><ele>955.0</ele><time>2026-04-18T16:29:29.187Z</time></trkpt><trkpt lat="43.7722843" lon="11.5726088"><ele>953.0</ele><time>2026-04-18T16:29:30.187Z</time></trkpt><trkpt lat="43.7722146" lon="11.5724399"><ele>951.0</ele><time>2026-04-18T16:29:31.187Z</time></trkpt><trkpt lat="43.7721468" lon="11.5722691"><ele>949.0</ele><time>2026-04-18T16:29:32.187Z</time></trkpt><trkpt lat="43.7720798" lon="11.5721111"><ele>947.0</ele><time>2026-04-18T16:29:33.187Z</time></trkpt><trkpt lat="43.7720233" lon="11.5719624"><ele>947.0</ele><time>2026-04-18T16:29:34.187Z</time></trkpt><trkpt lat="43.7719816" lon="11.5718179"><ele>947.0</ele><time>2026-04-18T16:29:35.187Z</time></trkpt><trkpt lat="43.7719516" lon="11.5716791"><ele>947.0</ele><time>2026-04-18T16:29:36.188Z</time></trkpt><trkpt lat="43.7719224" lon="11.5715465"><ele>947.0</ele><time>2026-04-18T16:29:37.187Z</time></trkpt><trkpt lat="43.7718724" lon="11.5714278"><ele>947.0</ele><time>2026-04-18T16:29:38.186Z</time></trkpt><trkpt lat="43.771809" lon="11.5713416"><ele>946.4000000000001</ele><time>2026-04-18T16:29:39.187Z</time></trkpt><trkpt lat="43.7717119" lon="11.5712925"><ele>945.8000000000001</ele><time>2026-04-18T16:29:40.188Z</time></trkpt><trkpt lat="43.7715884" lon="11.571247"><ele>945.2</ele><time>2026-04-18T16:29:41.188Z</time></trkpt><trkpt lat="43.7715006" lon="11.5711817"><ele>944.6</ele><time>2026-04-18T16:29:42.186Z</time></trkpt><trkpt lat="43.7714066" lon="11.571147"><ele>944.0</ele><time>2026-04-18T16:29:43.187Z</time></trkpt><trkpt lat="43.7713116" lon="11.5711141"><ele>943.8000000000001</ele><time>2026-04-18T16:29:44.186Z</time></trkpt><trkpt lat="43.7712197" lon="11.5710834"><ele>943.6000000000001</ele><time>2026-04-18T16:29:45.187Z</time></trkpt><trkpt lat="43.7711217" lon="11.5710433"><ele>943.4</ele><time>2026-04-18T16:29:46.187Z</time></trkpt><trkpt lat="43.7710295" lon="11.5710005"><ele>943.2</ele><time>2026-04-18T16:29:47.187Z</time></trkpt><trkpt lat="43.7709378" lon="11.5709544"><ele>943.0</ele><time>2026-04-18T16:29:48.187Z</time></trkpt><trkpt lat="43.7708481" lon="11.5708948"><ele>941.5</ele><time>2026-04-18T16:29:49.186Z</time></trkpt><trkpt lat="43.7707518" lon="11.5708281"><ele>940.0</ele><time>2026-04-18T16:29:50.187Z</time></trkpt><trkpt lat="43.7706525" lon="11.5707526"><ele>938.5</ele><time>2026-04-18T16:29:51.185Z</time></trkpt><trkpt lat="43.770538" lon="11.5706963"><ele>937.0</ele><time>2026-04-18T16:29:52.188Z</time></trkpt><trkpt lat="43.7704186" lon="11.5706364"><ele>937.0</ele><time>2026-04-18T16:29:53.186Z</time></trkpt><trkpt lat="43.7703062" lon="11.5705898"><ele>937.0</ele><time>2026-04-18T16:29:54.186Z</time></trkpt><trkpt lat="43.7701907" lon="11.5705502"><ele>937.0</ele><time>2026-04-18T16:29:55.187Z</time></trkpt><trkpt lat="43.7700982" lon="11.5704946"><ele>937.0</ele><time>2026-04-18T16:29:56.187Z</time></trkpt><trkpt lat="43.7699906" lon="11.5704424"><ele>937.0</ele><time>2026-04-18T16:29:57.187Z</time></trkpt><trkpt lat="43.7698916" lon="11.5703706"><ele>937.0</ele><time>2026-04-18T16:29:58.185Z</time></trkpt><trkpt lat="43.769801" lon="11.5702785"><ele>937.0</ele><time>2026-04-18T16:29:59.188Z</time></trkpt><trkpt lat="43.7697214" lon="11.5701857"><ele>937.0</ele><time>2026-04-18T16:30:00.186Z</time></trkpt><trkpt lat="43.7696394" lon="11.5701136"><ele>937.0</ele><time>2026-04-18T16:30:01.187Z</time></trkpt><trkpt lat="43.7695491" lon="11.5700667"><ele>937.0</ele><time>2026-04-18T16:30:02.186Z</time></trkpt><trkpt lat="43.7694445" lon="11.5700502"><ele>937.0</ele><time>2026-04-18T16:30:03.187Z</time></trkpt><trkpt lat="43.7693417" lon="11.5700499"><ele>937.0</ele><time>2026-04-18T16:30:04.187Z</time></trkpt><trkpt lat="43.769239" lon="11.5700627"><ele>937.0</ele><time>2026-04-18T16:30:05.188Z</time></trkpt><trkpt lat="43.769141" lon="11.570076"><ele>937.0</ele><time>2026-04-18T16:30:06.187Z</time></trkpt><trkpt lat="43.7690479" lon="11.5701031"><ele>936.0</ele><time>2026-04-18T16:30:07.188Z</time></trkpt><trkpt lat="43.7689556" lon="11.5701177"><ele>935.0</ele><time>2026-04-18T16:30:08.187Z</time></trkpt><trkpt lat="43.7688533" lon="11.5701638"><ele>934.0</ele><time>2026-04-18T16:30:09.186Z</time></trkpt><trkpt lat="43.7687641" lon="11.5702273"><ele>933.0</ele><time>2026-04-18T16:30:10.187Z</time></trkpt><trkpt lat="43.7686726" lon="11.5703146"><ele>932.0</ele><time>2026-04-18T16:30:11.186Z</time></trkpt><trkpt lat="43.7685956" lon="11.570426"><ele>931.5</ele><time>2026-04-18T16:30:12.188Z</time></trkpt><trkpt lat="43.7685148" lon="11.5705508"><ele>931.0</ele><time>2026-04-18T16:30:13.187Z</time></trkpt><trkpt lat="43.7684215" lon="11.570678"><ele>930.5</ele><time>2026-04-18T16:30:14.187Z</time></trkpt><trkpt lat="43.7683391" lon="11.5708056"><ele>930.0</ele><time>2026-04-18T16:30:15.186Z</time></trkpt><trkpt lat="43.7682542" lon="11.5709252"><ele>930.0</ele><time>2026-04-18T16:30:16.188Z</time></trkpt><trkpt lat="43.7681751" lon="11.571044"><ele>930.0</ele><time>2026-04-18T16:30:17.187Z</time></trkpt><trkpt lat="43.7680945" lon="11.5711619"><ele>930.0</ele><time>2026-04-18T16:30:18.186Z</time></trkpt><trkpt lat="43.7680064" lon="11.5712713"><ele>930.0</ele><time>2026-04-18T16:30:19.187Z</time></trkpt><trkpt lat="43.7679104" lon="11.571355"><ele>930.0</ele><time>2026-04-18T16:30:20.187Z</time></trkpt><trkpt lat="43.767813" lon="11.571432"><ele>930.0</ele><time>2026-04-18T16:30:21.187Z</time></trkpt><trkpt lat="43.7677064" lon="11.5715029"><ele>930.0</ele><time>2026-04-18T16:30:22.186Z</time></trkpt><trkpt lat="43.767602" lon="11.5715686"><ele>930.0</ele><time>2026-04-18T16:30:23.188Z</time></trkpt><trkpt lat="43.7674906" lon="11.5716184"><ele>930.0</ele><time>2026-04-18T16:30:24.186Z</time></trkpt><trkpt lat="43.7673788" lon="11.571646"><ele>930.0</ele><time>2026-04-18T16:30:25.188Z</time></trkpt><trkpt lat="43.7672634" lon="11.5716608"><ele>930.0</ele><time>2026-04-18T16:30:26.187Z</time></trkpt><trkpt lat="43.767151" lon="11.5716802"><ele>930.0</ele><time>2026-04-18T16:30:27.186Z</time></trkpt><trkpt lat="43.7670427" lon="11.5717"><ele>930.0</ele><time>2026-04-18T16:30:28.188Z</time></trkpt><trkpt lat="43.7669424" lon="11.5717235"><ele>930.0</ele><time>2026-04-18T16:30:29.187Z</time></trkpt><trkpt lat="43.7668559" lon="11.5717697"><ele>930.0</ele><time>2026-04-18T16:30:30.186Z</time></trkpt><trkpt lat="43.7667809" lon="11.5718215"><ele>930.0</ele><time>2026-04-18T16:30:31.187Z</time></trkpt><trkpt lat="43.7667394" lon="11.5719212"><ele>930.0</ele><time>2026-04-18T16:30:32.188Z</time></trkpt><trkpt lat="43.766721" lon="11.5720361"><ele>930.0</ele><time>2026-04-18T16:30:33.188Z</time></trkpt><trkpt lat="43.7667017" lon="11.5721546"><ele>930.7142857142857</ele><time>2026-04-18T16:30:34.188Z</time></trkpt><trkpt lat="43.7666982" lon="11.572271"><ele>931.4285714285716</ele><time>2026-04-18T16:30:35.187Z</time></trkpt><trkpt lat="43.7666873" lon="11.5723707"><ele>932.1428571428572</ele><time>2026-04-18T16:30:36.188Z</time></trkpt><trkpt lat="43.7666653" lon="11.5724663"><ele>932.8571428571429</ele><time>2026-04-18T16:30:37.187Z</time></trkpt><trkpt lat="43.7666276" lon="11.5725423"><ele>933.5714285714287</ele><time>2026-04-18T16:30:38.188Z</time></trkpt><trkpt lat="43.7665736" lon="11.5725903"><ele>934.2857142857144</ele><time>2026-04-18T16:30:39.187Z</time></trkpt><trkpt lat="43.7665068" lon="11.5726093"><ele>935.0000000000001</ele><time>2026-04-18T16:30:40.187Z</time></trkpt><trkpt lat="43.7664232" lon="11.5725962"><ele>935.0</ele><time>2026-04-18T16:30:41.186Z</time></trkpt><trkpt lat="43.7663401" lon="11.5725748"><ele>935.0</ele><time>2026-04-18T16:30:42.188Z</time></trkpt><trkpt lat="43.7662492" lon="11.5725474"><ele>935.0</ele><time>2026-04-18T16:30:43.187Z</time></trkpt><trkpt lat="43.7661532" lon="11.5725185"><ele>935.0</ele><time>2026-04-18T16:30:44.186Z</time></trkpt><trkpt lat="43.7660725" lon="11.5724625"><ele>935.0</ele><time>2026-04-18T16:30:45.188Z</time></trkpt><trkpt lat="43.7659931" lon="11.5723247"><ele>935.0</ele><time>2026-04-18T16:30:46.187Z</time></trkpt><trkpt lat="43.7659118" lon="11.5721683"><ele>935.0</ele><time>2026-04-18T16:30:47.188Z</time></trkpt><trkpt lat="43.7658548" lon="11.5720114"><ele>935.0</ele><time>2026-04-18T16:30:48.186Z</time></trkpt><trkpt lat="43.7657937" lon="11.5718675"><ele>935.0</ele><time>2026-04-18T16:30:49.185Z</time></trkpt><trkpt lat="43.7657217" lon="11.5717318"><ele>935.0</ele><time>2026-04-18T16:30:50.186Z</time></trkpt><trkpt lat="43.7656199" lon="11.5716238"><ele>935.0</ele><time>2026-04-18T16:30:51.188Z</time></trkpt><trkpt lat="43.7655207" lon="11.5715117"><ele>935.0</ele><time>2026-04-18T16:30:52.188Z</time></trkpt><trkpt lat="43.7654194" lon="11.5714218"><ele>935.0</ele><time>2026-04-18T16:30:53.187Z</time></trkpt><trkpt lat="43.7652967" lon="11.5713224"><ele>937.75</ele><time>2026-04-18T16:30:54.187Z</time></trkpt><trkpt lat="43.765165" lon="11.5712247"><ele>940.5</ele><time>2026-04-18T16:30:55.186Z</time></trkpt><trkpt lat="43.7650464" lon="11.5711267"><ele>943.25</ele><time>2026-04-18T16:30:56.187Z</time></trkpt><trkpt lat="43.764938" lon="11.5710375"><ele>946.0</ele><time>2026-04-18T16:30:57.186Z</time></trkpt><trkpt lat="43.7648308" lon="11.5709615"><ele>942.0</ele><time>2026-04-18T16:30:58.188Z</time></trkpt><trkpt lat="43.7647314" lon="11.5709052"><ele>937.9999999999999</ele><time>2026-04-18T16:30:59.187Z</time></trkpt><trkpt lat="43.7646267" lon="11.5708999"><ele>933.9999999999999</ele><time>2026-04-18T16:31:00.186Z</time></trkpt><trkpt lat="43.7645194" lon="11.5709216"><ele>930.0</ele><time>2026-04-18T16:31:01.186Z</time></trkpt><trkpt lat="43.7644127" lon="11.5709721"><ele>926.0</ele><time>2026-04-18T16:31:02.187Z</time></trkpt><trkpt lat="43.7643086" lon="11.5710363"><ele>926.0</ele><time>2026-04-18T16:31:03.187Z</time></trkpt><trkpt lat="43.7641981" lon="11.5711046"><ele>926.0</ele><time>2026-04-18T16:31:04.188Z</time></trkpt><trkpt lat="43.7640879" lon="11.5711748"><ele>926.0</ele><time>2026-04-18T16:31:05.186Z</time></trkpt><trkpt lat="43.7639802" lon="11.5712414"><ele>926.0</ele><time>2026-04-18T16:31:06.187Z</time></trkpt><trkpt lat="43.7638832" lon="11.5712978"><ele>926.0</ele><time>2026-04-18T16:31:07.187Z</time></trkpt><trkpt lat="43.7638058" lon="11.5713327"><ele>925.9999999999999</ele><time>2026-04-18T16:31:08.187Z</time></trkpt><trkpt lat="43.7637395" lon="11.571314"><ele>925.9999999999999</ele><time>2026-04-18T16:31:09.187Z</time></trkpt><trkpt lat="43.7636476" lon="11.5711881"><ele>926.0</ele><time>2026-04-18T16:31:11.186Z</time></trkpt><trkpt lat="43.763664" lon="11.5710455"><ele>926.0</ele><time>2026-04-18T16:31:12.187Z</time></trkpt><trkpt lat="43.7636755" lon="11.5709274"><ele>926.0</ele><time>2026-04-18T16:31:13.186Z</time></trkpt><trkpt lat="43.7636875" lon="11.5707854"><ele>926.0</ele><time>2026-04-18T16:31:14.187Z</time></trkpt><trkpt lat="43.7636678" lon="11.5706238"><ele>926.0</ele><time>2026-04-18T16:31:15.186Z</time></trkpt><trkpt lat="43.7636398" lon="11.5704533"><ele>926.0</ele><time>2026-04-18T16:31:16.187Z</time></trkpt><trkpt lat="43.7635624" lon="11.5703568"><ele>928.25</ele><time>2026-04-18T16:31:17.188Z</time></trkpt><trkpt lat="43.7635" lon="11.5702253"><ele>930.5</ele><time>2026-04-18T16:31:18.187Z</time></trkpt><trkpt lat="43.7634356" lon="11.5700799"><ele>932.75</ele><time>2026-04-18T16:31:19.187Z</time></trkpt><trkpt lat="43.7633607" lon="11.5699332"><ele>935.0</ele><time>2026-04-18T16:31:20.187Z</time></trkpt><trkpt lat="43.7632976" lon="11.5697932"><ele>935.0</ele><time>2026-04-18T16:31:21.186Z</time></trkpt><trkpt lat="43.7632339" lon="11.5696689"><ele>935.0</ele><time>2026-04-18T16:31:22.187Z</time></trkpt><trkpt lat="43.7631601" lon="11.5695769"><ele>935.0</ele><time>2026-04-18T16:31:23.187Z</time></trkpt><trkpt lat="43.7630639" lon="11.5695345"><ele>935.0</ele><time>2026-04-18T16:31:24.186Z</time></trkpt><trkpt lat="43.7629683" lon="11.5694926"><ele>935.0</ele><time>2026-04-18T16:31:25.188Z</time></trkpt><trkpt lat="43.7628664" lon="11.5695261"><ele>935.0</ele><time>2026-04-18T16:31:26.187Z</time></trkpt><trkpt lat="43.7627411" lon="11.5695681"><ele>935.0</ele><time>2026-04-18T16:31:27.186Z</time></trkpt><trkpt lat="43.7626287" lon="11.5695814"><ele>935.0</ele><time>2026-04-18T16:31:28.186Z</time></trkpt><trkpt lat="43.7625227" lon="11.5695843"><ele>935.0</ele><time>2026-04-18T16:31:29.186Z</time></trkpt><trkpt lat="43.762423" lon="11.5695797"><ele>935.0</ele><time>2026-04-18T16:31:30.187Z</time></trkpt><trkpt lat="43.7623156" lon="11.569556"><ele>935.8</ele><time>2026-04-18T16:31:31.187Z</time></trkpt><trkpt lat="43.7622134" lon="11.5695596"><ele>936.6</ele><time>2026-04-18T16:31:32.188Z</time></trkpt><trkpt lat="43.7621182" lon="11.5695934"><ele>937.4000000000001</ele><time>2026-04-18T16:31:33.186Z</time></trkpt><trkpt lat="43.7620156" lon="11.5696451"><ele>938.2</ele><time>2026-04-18T16:31:34.187Z</time></trkpt><trkpt lat="43.7619123" lon="11.5696994"><ele>939.0</ele><time>2026-04-18T16:31:35.186Z</time></trkpt><trkpt lat="43.7618064" lon="11.5697506"><ele>939.0</ele><time>2026-04-18T16:31:36.187Z</time></trkpt><trkpt lat="43.761696" lon="11.5698002"><ele>939.0</ele><time>2026-04-18T16:31:37.188Z</time></trkpt><trkpt lat="43.7615855" lon="11.5698543"><ele>939.0</ele><time>2026-04-18T16:31:38.188Z</time></trkpt><trkpt lat="43.7614773" lon="11.5699225"><ele>939.0</ele><time>2026-04-18T16:31:39.188Z</time></trkpt><trkpt lat="43.7613766" lon="11.5699909"><ele>939.0</ele><time>2026-04-18T16:31:40.187Z</time></trkpt><trkpt lat="43.7612669" lon="11.5700338"><ele>939.0000000000001</ele><time>2026-04-18T16:31:41.188Z</time></trkpt><trkpt lat="43.7611445" lon="11.570035"><ele>939.0000000000001</ele><time>2026-04-18T16:31:42.185Z</time></trkpt><trkpt lat="43.7610337" lon="11.570064"><ele>939.0</ele><time>2026-04-18T16:31:43.187Z</time></trkpt><trkpt lat="43.7609488" lon="11.5700761"><ele>939.0</ele><time>2026-04-18T16:31:44.187Z</time></trkpt><trkpt lat="43.7608514" lon="11.5701064"><ele>942.5</ele><time>2026-04-18T16:31:45.188Z</time></trkpt><trkpt lat="43.760749" lon="11.5701394"><ele>946.0</ele><time>2026-04-18T16:31:46.187Z</time></trkpt><trkpt lat="43.7606582" lon="11.570211"><ele>949.5</ele><time>2026-04-18T16:31:47.188Z</time></trkpt><trkpt lat="43.7605565" lon="11.5702908"><ele>953.0</ele><time>2026-04-18T16:31:48.188Z</time></trkpt><trkpt lat="43.7603462" lon="11.5704401"><ele>953.0</ele><time>2026-04-18T16:31:50.186Z</time></trkpt><trkpt lat="43.7602386" lon="11.5705176"><ele>953.0</ele><time>2026-04-18T16:31:51.188Z</time></trkpt><trkpt lat="43.7601227" lon="11.5706037"><ele>953.0</ele><time>2026-04-18T16:31:52.187Z</time></trkpt><trkpt lat="43.760002" lon="11.5706848"><ele>953.0</ele><time>2026-04-18T16:31:53.187Z</time></trkpt><trkpt lat="43.7598712" lon="11.5707508"><ele>947.25</ele><time>2026-04-18T16:31:54.187Z</time></trkpt><trkpt lat="43.75974" lon="11.5708132"><ele>941.5</ele><time>2026-04-18T16:31:55.186Z</time></trkpt><trkpt lat="43.7596102" lon="11.5708655"><ele>935.75</ele><time>2026-04-18T16:31:56.188Z</time></trkpt><trkpt lat="43.7594918" lon="11.5709271"><ele>930.0</ele><time>2026-04-18T16:31:57.188Z</time></trkpt><trkpt lat="43.7593981" lon="11.5710137"><ele>930.0</ele><time>2026-04-18T16:31:58.187Z</time></trkpt><trkpt lat="43.7593023" lon="11.5710971"><ele>930.0</ele><time>2026-04-18T16:31:59.187Z</time></trkpt><trkpt lat="43.7592341" lon="11.5712014"><ele>930.0</ele><time>2026-04-18T16:32:00.187Z</time></trkpt><trkpt lat="43.7591813" lon="11.5712959"><ele>930.0</ele><time>2026-04-18T16:32:01.185Z</time></trkpt><trkpt lat="43.7591191" lon="11.5713486"><ele>930.0</ele><time>2026-04-18T16:32:02.187Z</time></trkpt><trkpt lat="43.7590501" lon="11.5713554"><ele>930.0</ele><time>2026-04-18T16:32:03.185Z</time></trkpt><trkpt lat="43.7589908" lon="11.5713201"><ele>930.0</ele><time>2026-04-18T16:32:04.187Z</time></trkpt><trkpt lat="43.758942" lon="11.5712476"><ele>930.0</ele><time>2026-04-18T16:32:05.187Z</time></trkpt><trkpt lat="43.7589318" lon="11.5711461"><ele>930.0</ele><time>2026-04-18T16:32:06.186Z</time></trkpt><trkpt lat="43.758957" lon="11.5710325"><ele>930.0</ele><time>2026-04-18T16:32:07.186Z</time></trkpt><trkpt lat="43.758983" lon="11.5709037"><ele>930.0</ele><time>2026-04-18T16:32:08.186Z</time></trkpt><trkpt lat="43.7590321" lon="11.5707826"><ele>930.0</ele><time>2026-04-18T16:32:09.186Z</time></trkpt><trkpt lat="43.7591198" lon="11.5706608"><ele>929.5</ele><time>2026-04-18T16:32:10.188Z</time></trkpt><trkpt lat="43.7591941" lon="11.5705342"><ele>929.0</ele><time>2026-04-18T16:32:11.188Z</time></trkpt><trkpt lat="43.7592772" lon="11.570398"><ele>928.5</ele><time>2026-04-18T16:32:12.187Z</time></trkpt><trkpt lat="43.7593343" lon="11.5702698"><ele>928.0</ele><time>2026-04-18T16:32:13.187Z</time></trkpt><trkpt lat="43.7593592" lon="11.5701191"><ele>923.25</ele><time>2026-04-18T16:32:14.186Z</time></trkpt><trkpt lat="43.7593894" lon="11.5699658"><ele>918.5</ele><time>2026-04-18T16:32:15.187Z</time></trkpt><trkpt lat="43.7593921" lon="11.569791"><ele>913.75</ele><time>2026-04-18T16:32:16.188Z</time></trkpt><trkpt lat="43.7594004" lon="11.5696019"><ele>909.0</ele><time>2026-04-18T16:32:17.188Z</time></trkpt><trkpt lat="43.7594061" lon="11.5694187"><ele>907.3333333333333</ele><time>2026-04-18T16:32:18.188Z</time></trkpt><trkpt lat="43.7594539" lon="11.5692002"><ele>905.6666666666666</ele><time>2026-04-18T16:32:19.187Z</time></trkpt><trkpt lat="43.7594882" lon="11.56899"><ele>904.0</ele><time>2026-04-18T16:32:20.187Z</time></trkpt><trkpt lat="43.7595606" lon="11.568789"><ele>905.6666666666666</ele><time>2026-04-18T16:32:21.186Z</time></trkpt><trkpt lat="43.7596616" lon="11.568596"><ele>907.3333333333333</ele><time>2026-04-18T16:32:22.186Z</time></trkpt><trkpt lat="43.7597332" lon="11.56841"><ele>909.0</ele><time>2026-04-18T16:32:23.187Z</time></trkpt><trkpt lat="43.7597818" lon="11.5682327"><ele>909.0</ele><time>2026-04-18T16:32:24.187Z</time></trkpt><trkpt lat="43.7598318" lon="11.568042"><ele>909.0</ele><time>2026-04-18T16:32:25.187Z</time></trkpt><trkpt lat="43.7598364" lon="11.5678709"><ele>909.0</ele><time>2026-04-18T16:32:26.187Z</time></trkpt><trkpt lat="43.759837" lon="11.5676981"><ele>909.0</ele><time>2026-04-18T16:32:27.185Z</time></trkpt><trkpt lat="43.7598238" lon="11.5675087"><ele>908.5</ele><time>2026-04-18T16:32:28.187Z</time></trkpt><trkpt lat="43.7597525" lon="11.5673442"><ele>908.0</ele><time>2026-04-18T16:32:29.186Z</time></trkpt><trkpt lat="43.7597004" lon="11.5671724"><ele>907.5</ele><time>2026-04-18T16:32:30.188Z</time></trkpt><trkpt lat="43.7596296" lon="11.567002"><ele>907.0</ele><time>2026-04-18T16:32:31.187Z</time></trkpt><trkpt lat="43.7595556" lon="11.566832"><ele>905.75</ele><time>2026-04-18T16:32:32.187Z</time></trkpt><trkpt lat="43.7594419" lon="11.5666938"><ele>904.5</ele><time>2026-04-18T16:32:33.187Z</time></trkpt><trkpt lat="43.7593292" lon="11.5665579"><ele>903.25</ele><time>2026-04-18T16:32:34.186Z</time></trkpt><trkpt lat="43.7592103" lon="11.5664492"><ele>902.0</ele><time>2026-04-18T16:32:35.187Z</time></trkpt><trkpt lat="43.7590972" lon="11.5663649"><ele>903.25</ele><time>2026-04-18T16:32:36.187Z</time></trkpt><trkpt lat="43.7589853" lon="11.5662739"><ele>904.5</ele><time>2026-04-18T16:32:37.188Z</time></trkpt><trkpt lat="43.7589276" lon="11.566133"><ele>905.75</ele><time>2026-04-18T16:32:38.186Z</time></trkpt><trkpt lat="43.7588898" lon="11.5659901"><ele>907.0</ele><time>2026-04-18T16:32:39.186Z</time></trkpt><trkpt lat="43.7589015" lon="11.5658456"><ele>907.0</ele><time>2026-04-18T16:32:40.187Z</time></trkpt><trkpt lat="43.7589432" lon="11.5657056"><ele>907.0</ele><time>2026-04-18T16:32:41.187Z</time></trkpt><trkpt lat="43.7589812" lon="11.5655701"><ele>907.0</ele><time>2026-04-18T16:32:42.188Z</time></trkpt><trkpt lat="43.7589873" lon="11.5654245"><ele>907.0</ele><time>2026-04-18T16:32:43.187Z</time></trkpt><trkpt lat="43.7590045" lon="11.5652585"><ele>907.0</ele><time>2026-04-18T16:32:44.188Z</time></trkpt><trkpt lat="43.758964" lon="11.5650958"><ele>905.6</ele><time>2026-04-18T16:32:45.187Z</time></trkpt><trkpt lat="43.7589153" lon="11.5649642"><ele>904.2</ele><time>2026-04-18T16:32:46.186Z</time></trkpt><trkpt lat="43.7588527" lon="11.5648416"><ele>902.8</ele><time>2026-04-18T16:32:47.187Z</time></trkpt><trkpt lat="43.7587483" lon="11.5647566"><ele>901.4</ele><time>2026-04-18T16:32:48.186Z</time></trkpt><trkpt lat="43.7586841" lon="11.5646303"><ele>900.0</ele><time>2026-04-18T16:32:49.186Z</time></trkpt><trkpt lat="43.7586439" lon="11.5644775"><ele>899.0</ele><time>2026-04-18T16:32:50.187Z</time></trkpt><trkpt lat="43.7586119" lon="11.5643159"><ele>898.0</ele><time>2026-04-18T16:32:51.187Z</time></trkpt><trkpt lat="43.7585707" lon="11.5641506"><ele>897.0</ele><time>2026-04-18T16:32:52.187Z</time></trkpt><trkpt lat="43.7585003" lon="11.5639712"><ele>896.0</ele><time>2026-04-18T16:32:53.187Z</time></trkpt><trkpt lat="43.7584219" lon="11.5637937"><ele>898.6666666666667</ele><time>2026-04-18T16:32:54.187Z</time></trkpt><trkpt lat="43.7583358" lon="11.5636181"><ele>901.3333333333333</ele><time>2026-04-18T16:32:55.187Z</time></trkpt><trkpt lat="43.7582481" lon="11.5634373"><ele>904.0</ele><time>2026-04-18T16:32:56.186Z</time></trkpt><trkpt lat="43.7581618" lon="11.5632605"><ele>904.0</ele><time>2026-04-18T16:32:57.188Z</time></trkpt><trkpt lat="43.7580653" lon="11.5630953"><ele>904.0</ele><time>2026-04-18T16:32:58.185Z</time></trkpt><trkpt lat="43.7579613" lon="11.5629366"><ele>904.0</ele><time>2026-04-18T16:32:59.188Z</time></trkpt><trkpt lat="43.7578544" lon="11.5627879"><ele>902.0</ele><time>2026-04-18T16:33:00.186Z</time></trkpt><trkpt lat="43.7577464" lon="11.5626465"><ele>900.0</ele><time>2026-04-18T16:33:01.186Z</time></trkpt><trkpt lat="43.757621" lon="11.5625316"><ele>898.0</ele><time>2026-04-18T16:33:02.187Z</time></trkpt><trkpt lat="43.7574828" lon="11.5624346"><ele>898.5</ele><time>2026-04-18T16:33:03.187Z</time></trkpt><trkpt lat="43.7573481" lon="11.5623372"><ele>899.0</ele><time>2026-04-18T16:33:04.188Z</time></trkpt><trkpt lat="43.7572184" lon="11.5622392"><ele>899.5</ele><time>2026-04-18T16:33:05.188Z</time></trkpt><trkpt lat="43.7571068" lon="11.5621159"><ele>900.0</ele><time>2026-04-18T16:33:06.186Z</time></trkpt><trkpt lat="43.7570098" lon="11.5619713"><ele>900.0</ele><time>2026-04-18T16:33:07.186Z</time></trkpt><trkpt lat="43.7569296" lon="11.5618202"><ele>900.0</ele><time>2026-04-18T16:33:08.186Z</time></trkpt><trkpt lat="43.7568513" lon="11.5616758"><ele>900.0</ele><time>2026-04-18T16:33:09.184Z</time></trkpt><trkpt lat="43.7567634" lon="11.5615471"><ele>900.0</ele><time>2026-04-18T16:33:10.187Z</time></trkpt><trkpt lat="43.756661" lon="11.5614089"><ele>900.75</ele><time>2026-04-18T16:33:11.187Z</time></trkpt><trkpt lat="43.7565697" lon="11.5612684"><ele>901.5</ele><time>2026-04-18T16:33:12.187Z</time></trkpt><trkpt lat="43.7564796" lon="11.5611344"><ele>902.25</ele><time>2026-04-18T16:33:13.186Z</time></trkpt><trkpt lat="43.7563822" lon="11.5610046"><ele>903.0</ele><time>2026-04-18T16:33:14.186Z</time></trkpt><trkpt lat="43.756298" lon="11.5608753"><ele>903.0</ele><time>2026-04-18T16:33:15.188Z</time></trkpt><trkpt lat="43.7562171" lon="11.5607579"><ele>903.0</ele><time>2026-04-18T16:33:16.187Z</time></trkpt><trkpt lat="43.7561289" lon="11.560693"><ele>903.0</ele><time>2026-04-18T16:33:17.188Z</time></trkpt><trkpt lat="43.7560357" lon="11.5606293"><ele>903.0</ele><time>2026-04-18T16:33:18.187Z</time></trkpt><trkpt lat="43.7559226" lon="11.5605715"><ele>903.0</ele><time>2026-04-18T16:33:19.187Z</time></trkpt><trkpt lat="43.7558102" lon="11.5605167"><ele>902.75</ele><time>2026-04-18T16:33:20.186Z</time></trkpt><trkpt lat="43.7557061" lon="11.5604481"><ele>902.5</ele><time>2026-04-18T16:33:21.185Z</time></trkpt><trkpt lat="43.7556066" lon="11.560383"><ele>902.25</ele><time>2026-04-18T16:33:22.185Z</time></trkpt><trkpt lat="43.7555079" lon="11.5603043"><ele>902.0</ele><time>2026-04-18T16:33:23.187Z</time></trkpt><trkpt lat="43.7554012" lon="11.560247"><ele>902.0</ele><time>2026-04-18T16:33:24.186Z</time></trkpt><trkpt lat="43.7552961" lon="11.560182"><ele>902.0</ele><time>2026-04-18T16:33:25.186Z</time></trkpt><trkpt lat="43.7551785" lon="11.5601555"><ele>902.0</ele><time>2026-04-18T16:33:26.187Z</time></trkpt><trkpt lat="43.7550649" lon="11.5601313"><ele>902.0</ele><time>2026-04-18T16:33:27.186Z</time></trkpt><trkpt lat="43.7549468" lon="11.5601189"><ele>903.75</ele><time>2026-04-18T16:33:28.186Z</time></trkpt><trkpt lat="43.7548225" lon="11.5601301"><ele>905.5</ele><time>2026-04-18T16:33:29.187Z</time></trkpt><trkpt lat="43.754698" lon="11.5601571"><ele>907.25</ele><time>2026-04-18T16:33:30.187Z</time></trkpt><trkpt lat="43.7545692" lon="11.5602107"><ele>909.0</ele><time>2026-04-18T16:33:31.186Z</time></trkpt><trkpt lat="43.7544417" lon="11.5602641"><ele>907.8000000000001</ele><time>2026-04-18T16:33:32.187Z</time></trkpt><trkpt lat="43.7543216" lon="11.5603261"><ele>906.6000000000001</ele><time>2026-04-18T16:33:33.187Z</time></trkpt><trkpt lat="43.754211" lon="11.5603739"><ele>905.4</ele><time>2026-04-18T16:33:34.186Z</time></trkpt><trkpt lat="43.7541041" lon="11.560427"><ele>904.2</ele><time>2026-04-18T16:33:35.188Z</time></trkpt><trkpt lat="43.7540238" lon="11.5604737"><ele>903.0</ele><time>2026-04-18T16:33:36.187Z</time></trkpt><trkpt lat="43.7539254" lon="11.560505"><ele>906.5999999999999</ele><time>2026-04-18T16:33:37.186Z</time></trkpt><trkpt lat="43.7538243" lon="11.5605281"><ele>910.1999999999999</ele><time>2026-04-18T16:33:38.187Z</time></trkpt><trkpt lat="43.7537178" lon="11.5605411"><ele>913.8</ele><time>2026-04-18T16:33:39.186Z</time></trkpt><trkpt lat="43.7536197" lon="11.5605209"><ele>917.4</ele><time>2026-04-18T16:33:40.188Z</time></trkpt><trkpt lat="43.7535131" lon="11.5605252"><ele>921.0</ele><time>2026-04-18T16:33:41.187Z</time></trkpt><trkpt lat="43.7534067" lon="11.5605428"><ele>921.0</ele><time>2026-04-18T16:33:42.188Z</time></trkpt><trkpt lat="43.7533088" lon="11.5605527"><ele>920.9999999999999</ele><time>2026-04-18T16:33:43.188Z</time></trkpt><trkpt lat="43.7532088" lon="11.5605629"><ele>920.9999999999999</ele><time>2026-04-18T16:33:44.187Z</time></trkpt><trkpt lat="43.7531232" lon="11.5605078"><ele>921.0</ele><time>2026-04-18T16:33:45.187Z</time></trkpt><trkpt lat="43.7530277" lon="11.560436"><ele>921.0</ele><time>2026-04-18T16:33:46.187Z</time></trkpt><trkpt lat="43.7529252" lon="11.5603359"><ele>919.25</ele><time>2026-04-18T16:33:47.185Z</time></trkpt><trkpt lat="43.7528111" lon="11.5602371"><ele>917.5</ele><time>2026-04-18T16:33:48.188Z</time></trkpt><trkpt lat="43.7527052" lon="11.5601442"><ele>915.75</ele><time>2026-04-18T16:33:49.188Z</time></trkpt><trkpt lat="43.7525928" lon="11.5600521"><ele>914.0</ele><time>2026-04-18T16:33:50.187Z</time></trkpt><trkpt lat="43.7524785" lon="11.5599842"><ele>914.0</ele><time>2026-04-18T16:33:51.187Z</time></trkpt><trkpt lat="43.7523715" lon="11.5599274"><ele>914.0000000000001</ele><time>2026-04-18T16:33:52.186Z</time></trkpt><trkpt lat="43.7522668" lon="11.5599022"><ele>914.0000000000001</ele><time>2026-04-18T16:33:53.187Z</time></trkpt><trkpt lat="43.7521768" lon="11.5599063"><ele>914.0</ele><time>2026-04-18T16:33:54.187Z</time></trkpt><trkpt lat="43.7520987" lon="11.5599172"><ele>914.0</ele><time>2026-04-18T16:33:55.188Z</time></trkpt><trkpt lat="43.7520275" lon="11.5599788"><ele>914.0</ele><time>2026-04-18T16:33:56.188Z</time></trkpt><trkpt lat="43.7519589" lon="11.5600558"><ele>914.0</ele><time>2026-04-18T16:33:57.187Z</time></trkpt><trkpt lat="43.7518732" lon="11.5601437"><ele>914.0</ele><time>2026-04-18T16:33:58.185Z</time></trkpt><trkpt lat="43.7517665" lon="11.5602414"><ele>914.0</ele><time>2026-04-18T16:33:59.186Z</time></trkpt><trkpt lat="43.7516619" lon="11.5603436"><ele>918.75</ele><time>2026-04-18T16:34:00.187Z</time></trkpt><trkpt lat="43.7515482" lon="11.5604493"><ele>923.5</ele><time>2026-04-18T16:34:01.186Z</time></trkpt><trkpt lat="43.7514302" lon="11.5605442"><ele>928.25</ele><time>2026-04-18T16:34:02.186Z</time></trkpt><trkpt lat="43.7513292" lon="11.5606505"><ele>933.0</ele><time>2026-04-18T16:34:03.188Z</time></trkpt><trkpt lat="43.7512468" lon="11.5607536"><ele>933.0</ele><time>2026-04-18T16:34:04.186Z</time></trkpt><trkpt lat="43.7511793" lon="11.5608461"><ele>933.0</ele><time>2026-04-18T16:34:05.188Z</time></trkpt><trkpt lat="43.751119" lon="11.5608814"><ele>933.0</ele><time>2026-04-18T16:34:06.187Z</time></trkpt><trkpt lat="43.7510064" lon="11.5608226"><ele>933.0</ele><time>2026-04-18T16:34:08.188Z</time></trkpt><trkpt lat="43.7509554" lon="11.5607588"><ele>933.0</ele><time>2026-04-18T16:34:09.187Z</time></trkpt><trkpt lat="43.75094" lon="11.5606528"><ele>933.0</ele><time>2026-04-18T16:34:10.188Z</time></trkpt><trkpt lat="43.7510597" lon="11.5605108"><ele>929.5</ele><time>2026-04-18T16:34:11.187Z</time></trkpt><trkpt lat="43.7511439" lon="11.5603658"><ele>926.0</ele><time>2026-04-18T16:34:12.186Z</time></trkpt><trkpt lat="43.7512179" lon="11.5602357"><ele>922.5</ele><time>2026-04-18T16:34:13.187Z</time></trkpt><trkpt lat="43.7512713" lon="11.560114"><ele>919.0</ele><time>2026-04-18T16:34:14.187Z</time></trkpt><trkpt lat="43.7512894" lon="11.5599841"><ele>919.0</ele><time>2026-04-18T16:34:15.186Z</time></trkpt><trkpt lat="43.7513063" lon="11.5598645"><ele>919.0</ele><time>2026-04-18T16:34:16.188Z</time></trkpt><trkpt lat="43.7512215" lon="11.55974"><ele>919.0</ele><time>2026-04-18T16:34:17.188Z</time></trkpt><trkpt lat="43.7511402" lon="11.5596249"><ele>919.0</ele><time>2026-04-18T16:34:18.187Z</time></trkpt><trkpt lat="43.7510392" lon="11.5595276"><ele>921.5</ele><time>2026-04-18T16:34:19.185Z</time></trkpt><trkpt lat="43.7509222" lon="11.5594628"><ele>924.0</ele><time>2026-04-18T16:34:20.185Z</time></trkpt><trkpt lat="43.7507996" lon="11.5594049"><ele>926.5</ele><time>2026-04-18T16:34:21.186Z</time></trkpt><trkpt lat="43.7506696" lon="11.5593825"><ele>929.0</ele><time>2026-04-18T16:34:22.187Z</time></trkpt><trkpt lat="43.7505325" lon="11.559358"><ele>929.0</ele><time>2026-04-18T16:34:23.186Z</time></trkpt><trkpt lat="43.7504325" lon="11.5593476"><ele>929.0000000000001</ele><time>2026-04-18T16:34:24.188Z</time></trkpt><trkpt lat="43.7503425" lon="11.5593271"><ele>929.0000000000001</ele><time>2026-04-18T16:34:25.187Z</time></trkpt><trkpt lat="43.7502297" lon="11.5593261"><ele>929.0</ele><time>2026-04-18T16:34:26.187Z</time></trkpt><trkpt lat="43.7501406" lon="11.5593895"><ele>929.0</ele><time>2026-04-18T16:34:27.186Z</time></trkpt><trkpt lat="43.7500505" lon="11.5594592"><ele>931.4000000000001</ele><time>2026-04-18T16:34:28.187Z</time></trkpt><trkpt lat="43.749957" lon="11.5595473"><ele>933.8000000000001</ele><time>2026-04-18T16:34:29.188Z</time></trkpt><trkpt lat="43.749856" lon="11.5596196"><ele>936.1999999999999</ele><time>2026-04-18T16:34:30.186Z</time></trkpt><trkpt lat="43.7497489" lon="11.5596723"><ele>938.5999999999999</ele><time>2026-04-18T16:34:31.187Z</time></trkpt><trkpt lat="43.7496704" lon="11.5597646"><ele>941.0</ele><time>2026-04-18T16:34:32.188Z</time></trkpt><trkpt lat="43.7495972" lon="11.5598438"><ele>941.0000000000001</ele><time>2026-04-18T16:34:33.186Z</time></trkpt><trkpt lat="43.7495534" lon="11.559932"><ele>941.0</ele><time>2026-04-18T16:34:34.187Z</time></trkpt><trkpt lat="43.7495013" lon="11.5600053"><ele>941.0</ele><time>2026-04-18T16:34:35.188Z</time></trkpt><trkpt lat="43.7494415" lon="11.5600329"><ele>941.0</ele><time>2026-04-18T16:34:36.188Z</time></trkpt><trkpt lat="43.7493793" lon="11.5600069"><ele>941.0000000000001</ele><time>2026-04-18T16:34:37.187Z</time></trkpt><trkpt lat="43.7493273" lon="11.5599231"><ele>941.0</ele><time>2026-04-18T16:34:38.187Z</time></trkpt><trkpt lat="43.7492932" lon="11.5597834"><ele>942.75</ele><time>2026-04-18T16:34:39.187Z</time></trkpt><trkpt lat="43.7492723" lon="11.559619"><ele>944.5</ele><time>2026-04-18T16:34:40.186Z</time></trkpt><trkpt lat="43.7492506" lon="11.5594477"><ele>946.25</ele><time>2026-04-18T16:34:41.186Z</time></trkpt><trkpt lat="43.7492314" lon="11.5592676"><ele>948.0</ele><time>2026-04-18T16:34:42.187Z</time></trkpt><trkpt lat="43.7491914" lon="11.5590644"><ele>948.0</ele><time>2026-04-18T16:34:43.187Z</time></trkpt><trkpt lat="43.7491515" lon="11.5588531"><ele>948.0</ele><time>2026-04-18T16:34:44.188Z</time></trkpt><trkpt lat="43.7490752" lon="11.5586249"><ele>948.0</ele><time>2026-04-18T16:34:45.185Z</time></trkpt><trkpt lat="43.7490117" lon="11.5584113"><ele>945.3333333333333</ele><time>2026-04-18T16:34:46.187Z</time></trkpt><trkpt lat="43.748945" lon="11.5581887"><ele>942.6666666666666</ele><time>2026-04-18T16:34:47.187Z</time></trkpt><trkpt lat="43.7488881" lon="11.5579675"><ele>940.0</ele><time>2026-04-18T16:34:48.187Z</time></trkpt><trkpt lat="43.7488354" lon="11.5577451"><ele>938.25</ele><time>2026-04-18T16:34:49.185Z</time></trkpt><trkpt lat="43.7487981" lon="11.557551"><ele>936.5</ele><time>2026-04-18T16:34:50.188Z</time></trkpt><trkpt lat="43.7487489" lon="11.5573601"><ele>934.75</ele><time>2026-04-18T16:34:51.187Z</time></trkpt><trkpt lat="43.7486868" lon="11.5571822"><ele>933.0</ele><time>2026-04-18T16:34:52.186Z</time></trkpt><trkpt lat="43.7486203" lon="11.5570259"><ele>931.0</ele><time>2026-04-18T16:34:53.188Z</time></trkpt><trkpt lat="43.7485512" lon="11.5568979"><ele>929.0</ele><time>2026-04-18T16:34:54.187Z</time></trkpt><trkpt lat="43.7506696" lon="11.5593825"><ele>929.0</ele><time>2026-04-18T16:34:22.187Z</time></trkpt><trkpt lat="43.7505325" lon="11.559358"><ele>929.0000000000001</ele><time>2026-04-18T16:34:23.186Z</time></trkpt><trkpt lat="43.7504325" lon="11.5593476"><ele>929.0000000000001</ele><time>2026-04-18T16:34:24.188Z</time></trkpt><trkpt lat="43.7503425" lon="11.5593271"><ele>929.0</ele><time>2026-04-18T16:34:25.187Z</time></trkpt><trkpt lat="43.7502297" lon="11.5593261"><ele>929.0</ele><time>2026-04-18T16:34:26.187Z</time></trkpt><trkpt lat="43.7501406" lon="11.5593895"><ele>928.6</ele><time>2026-04-18T16:34:27.186Z</time></trkpt><trkpt lat="43.7500505" lon="11.5594592"><ele>928.2</ele><time>2026-04-18T16:34:28.187Z</time></trkpt><trkpt lat="43.749957" lon="11.5595473"><ele>927.8000000000001</ele><time>2026-04-18T16:34:29.188Z</time></trkpt><trkpt lat="43.749856" lon="11.5596196"><ele>927.4000000000001</ele><time>2026-04-18T16:34:30.186Z</time></trkpt><trkpt lat="43.7497489" lon="11.5596723"><ele>927.0</ele><time>2026-04-18T16:34:31.187Z</time></trkpt><trkpt lat="43.7496704" lon="11.5597646"><ele>929.3333333333334</ele><time>2026-04-18T16:34:32.188Z</time></trkpt><trkpt lat="43.7495972" lon="11.5598438"><ele>931.6666666666667</ele><time>2026-04-18T16:34:33.186Z</time></trkpt><trkpt lat="43.7495534" lon="11.559932"><ele>934.0</ele><time>2026-04-18T16:34:34.187Z</time></trkpt><trkpt lat="43.7495013" lon="11.5600053"><ele>936.3333333333334</ele><time>2026-04-18T16:34:35.188Z</time></trkpt><trkpt lat="43.7494415" lon="11.5600329"><ele>938.6666666666667</ele><time>2026-04-18T16:34:36.188Z</time></trkpt><trkpt lat="43.7493793" lon="11.5600069"><ele>941.0</ele><time>2026-04-18T16:34:37.187Z</time></trkpt><trkpt lat="43.7493273" lon="11.5599231"><ele>942.75</ele><time>2026-04-18T16:34:38.187Z</time></trkpt><trkpt lat="43.7492932" lon="11.5597834"><ele>944.5</ele><time>2026-04-18T16:34:39.187Z</time></trkpt><trkpt lat="43.7492723" lon="11.559619"><ele>946.25</ele><time>2026-04-18T16:34:40.186Z</time></trkpt><trkpt lat="43.7492506" lon="11.5594477"><ele>948.0</ele><time>2026-04-18T16:34:41.186Z</time></trkpt><trkpt lat="43.7492314" lon="11.5592676"><ele>948.0</ele><time>2026-04-18T16:34:42.187Z</time></trkpt><trkpt lat="43.7491914" lon="11.5590644"><ele>948.0</ele><time>2026-04-18T16:34:43.187Z</time></trkpt><trkpt lat="43.7491515" lon="11.5588531"><ele>948.0</ele><time>2026-04-18T16:34:44.188Z</time></trkpt><trkpt lat="43.7490752" lon="11.5586249"><ele>945.3333333333333</ele><time>2026-04-18T16:34:45.185Z</time></trkpt><trkpt lat="43.7490117" lon="11.5584113"><ele>942.6666666666666</ele><time>2026-04-18T16:34:46.187Z</time></trkpt><trkpt lat="43.748945" lon="11.5581887"><ele>940.0</ele><time>2026-04-18T16:34:47.187Z</time></trkpt><trkpt lat="43.7488881" lon="11.5579675"><ele>937.6666666666666</ele><time>2026-04-18T16:34:48.187Z</time></trkpt><trkpt lat="43.7488354" lon="11.5577451"><ele>935.3333333333333</ele><time>2026-04-18T16:34:49.185Z</time></trkpt><trkpt lat="43.7487981" lon="11.557551"><ele>933.0</ele><time>2026-04-18T16:34:50.188Z</time></trkpt><trkpt lat="43.7487489" lon="11.5573601"><ele>933.0</ele><time>2026-04-18T16:34:51.187Z</time></trkpt><trkpt lat="43.7486868" lon="11.5571822"><ele>933.0</ele><time>2026-04-18T16:34:52.186Z</time></trkpt><trkpt lat="43.7486203" lon="11.5570259"><ele>933.0</ele><time>2026-04-18T16:34:53.188Z</time></trkpt><trkpt lat="43.7485512" lon="11.5568979"><ele>933.0</ele><time>2026-04-18T16:34:54.187Z</time></trkpt><trkpt lat="43.7484645" lon="11.5567858"><ele>937.5</ele><time>2026-04-18T16:34:55.187Z</time></trkpt><trkpt lat="43.7483638" lon="11.5567043"><ele>942.0</ele><time>2026-04-18T16:34:56.188Z</time></trkpt><trkpt lat="43.7482514" lon="11.5566603"><ele>946.5</ele><time>2026-04-18T16:34:57.187Z</time></trkpt><trkpt lat="43.7481334" lon="11.5566338"><ele>951.0</ele><time>2026-04-18T16:34:58.188Z</time></trkpt><trkpt lat="43.7480125" lon="11.5565956"><ele>951.0</ele><time>2026-04-18T16:34:59.187Z</time></trkpt><trkpt lat="43.7478924" lon="11.5565371"><ele>951.0</ele><time>2026-04-18T16:35:00.187Z</time></trkpt><trkpt lat="43.7477833" lon="11.5564725"><ele>951.0</ele><time>2026-04-18T16:35:01.187Z</time></trkpt><trkpt lat="43.7476767" lon="11.5564122"><ele>951.0</ele><time>2026-04-18T16:35:02.186Z</time></trkpt><trkpt lat="43.7475682" lon="11.5563707"><ele>951.75</ele><time>2026-04-18T16:35:03.188Z</time></trkpt><trkpt lat="43.7474509" lon="11.5563959"><ele>952.5</ele><time>2026-04-18T16:35:04.186Z</time></trkpt><trkpt lat="43.7473399" lon="11.5564416"><ele>953.25</ele><time>2026-04-18T16:35:05.186Z</time></trkpt><trkpt lat="43.7472316" lon="11.5565068"><ele>954.0</ele><time>2026-04-18T16:35:06.186Z</time></trkpt><trkpt lat="43.7471304" lon="11.5566048"><ele>954.0</ele><time>2026-04-18T16:35:07.186Z</time></trkpt><trkpt lat="43.7470355" lon="11.5567267"><ele>954.0</ele><time>2026-04-18T16:35:08.187Z</time></trkpt><trkpt lat="43.7469391" lon="11.5568545"><ele>954.0</ele><time>2026-04-18T16:35:09.188Z</time></trkpt><trkpt lat="43.7468386" lon="11.5569712"><ele>954.0</ele><time>2026-04-18T16:35:10.187Z</time></trkpt><trkpt lat="43.7467394" lon="11.5570869"><ele>957.0</ele><time>2026-04-18T16:35:11.187Z</time></trkpt><trkpt lat="43.7466395" lon="11.5571984"><ele>960.0</ele><time>2026-04-18T16:35:12.186Z</time></trkpt><trkpt lat="43.746536" lon="11.5573059"><ele>963.0</ele><time>2026-04-18T16:35:13.186Z</time></trkpt><trkpt lat="43.7464284" lon="11.5574082"><ele>966.0</ele><time>2026-04-18T16:35:14.187Z</time></trkpt><trkpt lat="43.7463231" lon="11.5575067"><ele>966.0</ele><time>2026-04-18T16:35:15.188Z</time></trkpt><trkpt lat="43.7462237" lon="11.5575923"><ele>965.9999999999999</ele><time>2026-04-18T16:35:16.187Z</time></trkpt><trkpt lat="43.7461285" lon="11.5576666"><ele>965.9999999999999</ele><time>2026-04-18T16:35:17.187Z</time></trkpt><trkpt lat="43.7460346" lon="11.5577328"><ele>966.0</ele><time>2026-04-18T16:35:18.186Z</time></trkpt><trkpt lat="43.7459399" lon="11.5578017"><ele>966.0</ele><time>2026-04-18T16:35:19.187Z</time></trkpt><trkpt lat="43.7458494" lon="11.5578711"><ele>968.0</ele><time>2026-04-18T16:35:20.187Z</time></trkpt><trkpt lat="43.7457532" lon="11.5579278"><ele>969.9999999999999</ele><time>2026-04-18T16:35:21.187Z</time></trkpt><trkpt lat="43.7456608" lon="11.5579724"><ele>971.9999999999999</ele><time>2026-04-18T16:35:22.188Z</time></trkpt><trkpt lat="43.7455438" lon="11.5580009"><ele>974.0</ele><time>2026-04-18T16:35:23.187Z</time></trkpt><trkpt lat="43.7454394" lon="11.5579905"><ele>976.0</ele><time>2026-04-18T16:35:24.186Z</time></trkpt><trkpt lat="43.7453339" lon="11.5580015"><ele>976.0</ele><time>2026-04-18T16:35:25.187Z</time></trkpt><trkpt lat="43.745224" lon="11.558012"><ele>975.9999999999999</ele><time>2026-04-18T16:35:26.187Z</time></trkpt><trkpt lat="43.7451173" lon="11.5580245"><ele>975.9999999999999</ele><time>2026-04-18T16:35:27.187Z</time></trkpt><trkpt lat="43.7450184" lon="11.5580431"><ele>976.0</ele><time>2026-04-18T16:35:28.188Z</time></trkpt><trkpt lat="43.7449234" lon="11.5580824"><ele>976.0</ele><time>2026-04-18T16:35:29.188Z</time></trkpt><trkpt lat="43.7448236" lon="11.5581262"><ele>974.5999999999999</ele><time>2026-04-18T16:35:30.187Z</time></trkpt><trkpt lat="43.7447254" lon="11.5581678"><ele>973.1999999999999</ele><time>2026-04-18T16:35:31.187Z</time></trkpt><trkpt lat="43.7446304" lon="11.5582135"><ele>971.8000000000001</ele><time>2026-04-18T16:35:32.186Z</time></trkpt><trkpt lat="43.744543" lon="11.558275"><ele>970.4000000000001</ele><time>2026-04-18T16:35:33.186Z</time></trkpt><trkpt lat="43.7444537" lon="11.558344"><ele>969.0</ele><time>2026-04-18T16:35:34.186Z</time></trkpt><trkpt lat="43.7443664" lon="11.5584233"><ele>968.3333333333334</ele><time>2026-04-18T16:35:35.187Z</time></trkpt><trkpt lat="43.7442877" lon="11.558511"><ele>967.6666666666667</ele><time>2026-04-18T16:35:36.188Z</time></trkpt><trkpt lat="43.7442105" lon="11.5585932"><ele>967.0</ele><time>2026-04-18T16:35:37.188Z</time></trkpt><trkpt lat="43.7441379" lon="11.5586678"><ele>966.3333333333334</ele><time>2026-04-18T16:35:38.186Z</time></trkpt><trkpt lat="43.7440764" lon="11.5587287"><ele>965.6666666666667</ele><time>2026-04-18T16:35:39.187Z</time></trkpt><trkpt lat="43.7440118" lon="11.5587695"><ele>965.0</ele><time>2026-04-18T16:35:40.187Z</time></trkpt><trkpt lat="43.7439042" lon="11.5586868"><ele>965.0</ele><time>2026-04-18T16:35:42.188Z</time></trkpt><trkpt lat="43.7438563" lon="11.5585859"><ele>965.0</ele><time>2026-04-18T16:35:43.187Z</time></trkpt><trkpt lat="43.7438267" lon="11.5584506"><ele>965.0</ele><time>2026-04-18T16:35:44.187Z</time></trkpt><trkpt lat="43.7437622" lon="11.5583545"><ele>965.0</ele><time>2026-04-18T16:35:45.186Z</time></trkpt><trkpt lat="43.7436826" lon="11.558259"><ele>965.0</ele><time>2026-04-18T16:35:46.187Z</time></trkpt><trkpt lat="43.7436075" lon="11.5581906"><ele>966.4</ele><time>2026-04-18T16:35:47.188Z</time></trkpt><trkpt lat="43.7434916" lon="11.5581802"><ele>967.8</ele><time>2026-04-18T16:35:48.188Z</time></trkpt><trkpt lat="43.7433916" lon="11.5581329"><ele>969.2</ele><time>2026-04-18T16:35:49.187Z</time></trkpt><trkpt lat="43.7433126" lon="11.5580618"><ele>970.6</ele><time>2026-04-18T16:35:50.186Z</time></trkpt><trkpt lat="43.743251" lon="11.5579754"><ele>972.0</ele><time>2026-04-18T16:35:51.187Z</time></trkpt><trkpt lat="43.7431943" lon="11.5578979"><ele>968.5</ele><time>2026-04-18T16:35:52.187Z</time></trkpt><trkpt lat="43.7431157" lon="11.5578159"><ele>965.0</ele><time>2026-04-18T16:35:54.188Z</time></trkpt><trkpt lat="43.7430463" lon="11.5577712"><ele>961.5</ele><time>2026-04-18T16:35:57.186Z</time></trkpt><trkpt lat="43.7429748" lon="11.557768"><ele>958.0</ele><time>2026-04-18T16:37:02.187Z</time></trkpt><trkpt lat="43.7429616" lon="11.5578657"><ele>954.5</ele><time>2026-04-18T16:38:29.187Z</time></trkpt><trkpt lat="43.743037" lon="11.5578351"><ele>951.0</ele><time>2026-04-18T16:38:33.186Z</time></trkpt><trkpt lat="43.7431037" lon="11.5578467"><ele>953.3333333333334</ele><time>2026-04-18T16:38:36.186Z</time></trkpt><trkpt lat="43.7431644" lon="11.5579007"><ele>955.6666666666667</ele><time>2026-04-18T16:38:39.188Z</time></trkpt><trkpt lat="43.7432182" lon="11.5579678"><ele>958.0</ele><time>2026-04-18T16:38:41.186Z</time></trkpt><trkpt lat="43.7432826" lon="11.5580586"><ele>960.3333333333334</ele><time>2026-04-18T16:38:43.186Z</time></trkpt><trkpt lat="43.7433632" lon="11.5581363"><ele>962.6666666666667</ele><time>2026-04-18T16:38:45.188Z</time></trkpt><trkpt lat="43.7434667" lon="11.5581916"><ele>965.0</ele><time>2026-04-18T16:38:47.187Z</time></trkpt><trkpt lat="43.7435854" lon="11.5582427"><ele>965.0</ele><time>2026-04-18T16:38:49.186Z</time></trkpt><trkpt lat="43.7436452" lon="11.558276"><ele>965.0</ele><time>2026-04-18T16:38:50.186Z</time></trkpt><trkpt lat="43.7437328" lon="11.5583524"><ele>965.0</ele><time>2026-04-18T16:38:52.188Z</time></trkpt><trkpt lat="43.7437954" lon="11.5584618"><ele>965.0</ele><time>2026-04-18T16:38:54.187Z</time></trkpt><trkpt lat="43.7438448" lon="11.558599"><ele>965.0</ele><time>2026-04-18T16:38:56.186Z</time></trkpt><trkpt lat="43.7438962" lon="11.5587318"><ele>965.0</ele><time>2026-04-18T16:38:58.188Z</time></trkpt><trkpt lat="43.7439813" lon="11.5588168"><ele>965.0</ele><time>2026-04-18T16:39:00.186Z</time></trkpt><trkpt lat="43.7440995" lon="11.5587353"><ele>965.0</ele><time>2026-04-18T16:39:02.188Z</time></trkpt><trkpt lat="43.7441644" lon="11.5586854"><ele>965.0</ele><time>2026-04-18T16:39:03.187Z</time></trkpt><trkpt lat="43.7442388" lon="11.5586167"><ele>965.0</ele><time>2026-04-18T16:39:04.187Z</time></trkpt><trkpt lat="43.7443178" lon="11.5585445"><ele>965.8</ele><time>2026-04-18T16:39:05.187Z</time></trkpt><trkpt lat="43.7443984" lon="11.5584558"><ele>966.6</ele><time>2026-04-18T16:39:06.186Z</time></trkpt><trkpt lat="43.7444857" lon="11.5583748"><ele>967.4000000000001</ele><time>2026-04-18T16:39:07.187Z</time></trkpt><trkpt lat="43.744583" lon="11.5582924"><ele>968.2</ele><time>2026-04-18T16:39:08.187Z</time></trkpt><trkpt lat="43.7446908" lon="11.5582247"><ele>969.0</ele><time>2026-04-18T16:39:09.185Z</time></trkpt><trkpt lat="43.7448042" lon="11.5581611"><ele>969.0</ele><time>2026-04-18T16:39:10.187Z</time></trkpt><trkpt lat="43.7449135" lon="11.5581117"><ele>969.0</ele><time>2026-04-18T16:39:11.188Z</time></trkpt><trkpt lat="43.7450259" lon="11.5580725"><ele>969.0</ele><time>2026-04-18T16:39:12.187Z</time></trkpt><trkpt lat="43.745142" lon="11.5580497"><ele>969.0</ele><time>2026-04-18T16:39:13.187Z</time></trkpt><trkpt lat="43.7452597" lon="11.5580388"><ele>970.75</ele><time>2026-04-18T16:39:14.187Z</time></trkpt><trkpt lat="43.7453788" lon="11.5580287"><ele>972.5</ele><time>2026-04-18T16:39:15.187Z</time></trkpt><trkpt lat="43.7455027" lon="11.5580249"><ele>974.25</ele><time>2026-04-18T16:39:16.187Z</time></trkpt><trkpt lat="43.7456248" lon="11.5580151"><ele>976.0</ele><time>2026-04-18T16:39:17.187Z</time></trkpt><trkpt lat="43.7457383" lon="11.5579926"><ele>976.0</ele><time>2026-04-18T16:39:18.188Z</time></trkpt><trkpt lat="43.7458471" lon="11.5579065"><ele>976.0</ele><time>2026-04-18T16:39:19.186Z</time></trkpt><trkpt lat="43.7459502" lon="11.5578313"><ele>976.0</ele><time>2026-04-18T16:39:20.187Z</time></trkpt><trkpt lat="43.7460535" lon="11.5577526"><ele>976.0</ele><time>2026-04-18T16:39:21.187Z</time></trkpt><trkpt lat="43.7461657" lon="11.5576727"><ele>973.5</ele><time>2026-04-18T16:39:22.186Z</time></trkpt><trkpt lat="43.7462792" lon="11.5575794"><ele>971.0</ele><time>2026-04-18T16:39:23.187Z</time></trkpt><trkpt lat="43.7463863" lon="11.5574832"><ele>968.5</ele><time>2026-04-18T16:39:24.188Z</time></trkpt><trkpt lat="43.7464951" lon="11.5573823"><ele>966.0</ele><time>2026-04-18T16:39:25.188Z</time></trkpt><trkpt lat="43.7466006" lon="11.5572737"><ele>966.0</ele><time>2026-04-18T16:39:26.188Z</time></trkpt><trkpt lat="43.7467034" lon="11.5571572"><ele>966.0</ele><time>2026-04-18T16:39:27.187Z</time></trkpt><trkpt lat="43.746804" lon="11.5570342"><ele>966.0</ele><time>2026-04-18T16:39:28.187Z</time></trkpt><trkpt lat="43.7469043" lon="11.5569148"><ele>966.0</ele><time>2026-04-18T16:39:29.187Z</time></trkpt><trkpt lat="43.7469987" lon="11.5567991"><ele>963.0</ele><time>2026-04-18T16:39:30.187Z</time></trkpt><trkpt lat="43.7470888" lon="11.5566895"><ele>960.0</ele><time>2026-04-18T16:39:31.185Z</time></trkpt><trkpt lat="43.7471795" lon="11.556587"><ele>957.0</ele><time>2026-04-18T16:39:32.187Z</time></trkpt><trkpt lat="43.7472805" lon="11.5564999"><ele>954.0</ele><time>2026-04-18T16:39:33.187Z</time></trkpt><trkpt lat="43.7473942" lon="11.5564392"><ele>954.0</ele><time>2026-04-18T16:39:34.187Z</time></trkpt><trkpt lat="43.7475073" lon="11.5564028"><ele>954.0</ele><time>2026-04-18T16:39:35.187Z</time></trkpt><trkpt lat="43.7476127" lon="11.556387"><ele>954.0</ele><time>2026-04-18T16:39:36.188Z</time></trkpt><trkpt lat="43.7477166" lon="11.5564586"><ele>954.0</ele><time>2026-04-18T16:39:37.188Z</time></trkpt><trkpt lat="43.7478257" lon="11.5565197"><ele>953.25</ele><time>2026-04-18T16:39:38.187Z</time></trkpt><trkpt lat="43.7479418" lon="11.5565863"><ele>952.5</ele><time>2026-04-18T16:39:39.188Z</time></trkpt><trkpt lat="43.7480676" lon="11.5566341"><ele>951.75</ele><time>2026-04-18T16:39:40.186Z</time></trkpt><trkpt lat="43.7481993" lon="11.5566661"><ele>951.0</ele><time>2026-04-18T16:39:41.186Z</time></trkpt><trkpt lat="43.7483278" lon="11.5567161"><ele>951.0</ele><time>2026-04-18T16:39:42.187Z</time></trkpt><trkpt lat="43.7484391" lon="11.5567947"><ele>951.0</ele><time>2026-04-18T16:39:43.187Z</time></trkpt><trkpt lat="43.7485336" lon="11.5569098"><ele>951.0</ele><time>2026-04-18T16:39:44.188Z</time></trkpt><trkpt lat="43.7486122" lon="11.5570567"><ele>951.0</ele><time>2026-04-18T16:39:45.187Z</time></trkpt><trkpt lat="43.7486776" lon="11.5572207"><ele>948.25</ele><time>2026-04-18T16:39:46.186Z</time></trkpt><trkpt lat="43.7487318" lon="11.5573963"><ele>945.5</ele><time>2026-04-18T16:39:47.187Z</time></trkpt><trkpt lat="43.748779" lon="11.5575822"><ele>942.75</ele><time>2026-04-18T16:39:48.186Z</time></trkpt><trkpt lat="43.7488179" lon="11.5577728"><ele>940.0</ele><time>2026-04-18T16:39:49.185Z</time></trkpt><trkpt lat="43.7488615" lon="11.5579621"><ele>940.0</ele><time>2026-04-18T16:39:50.187Z</time></trkpt><trkpt lat="43.748911" lon="11.558151"><ele>940.0</ele><time>2026-04-18T16:39:51.187Z</time></trkpt><trkpt lat="43.748965" lon="11.558335"><ele>940.0</ele><time>2026-04-18T16:39:52.186Z</time></trkpt><trkpt lat="43.7490239" lon="11.5585154"><ele>940.0</ele><time>2026-04-18T16:39:53.187Z</time></trkpt><trkpt lat="43.74908" lon="11.558696"><ele>942.0</ele><time>2026-04-18T16:39:54.187Z</time></trkpt><trkpt lat="43.7491286" lon="11.558877"><ele>944.0</ele><time>2026-04-18T16:39:55.187Z</time></trkpt><trkpt lat="43.7491754" lon="11.5590604"><ele>946.0</ele><time>2026-04-18T16:39:56.188Z</time></trkpt><trkpt lat="43.7492156" lon="11.5592448"><ele>948.0</ele><time>2026-04-18T16:39:57.188Z</time></trkpt><trkpt lat="43.7492414" lon="11.559426"><ele>948.8</ele><time>2026-04-18T16:39:58.188Z</time></trkpt><trkpt lat="43.7492566" lon="11.5595817"><ele>949.5999999999999</ele><time>2026-04-18T16:39:59.187Z</time></trkpt><trkpt lat="43.7492727" lon="11.5597378"><ele>950.4000000000001</ele><time>2026-04-18T16:40:00.187Z</time></trkpt><trkpt lat="43.749292" lon="11.5598773"><ele>951.2</ele><time>2026-04-18T16:40:01.187Z</time></trkpt><trkpt lat="43.7493349" lon="11.5599792"><ele>952.0</ele><time>2026-04-18T16:40:02.187Z</time></trkpt><trkpt lat="43.7494009" lon="11.5600444"><ele>950.1666666666666</ele><time>2026-04-18T16:40:03.186Z</time></trkpt><trkpt lat="43.7494739" lon="11.560039"><ele>948.3333333333333</ele><time>2026-04-18T16:40:04.186Z</time></trkpt><trkpt lat="43.7495448" lon="11.5599838"><ele>946.5</ele><time>2026-04-18T16:40:05.187Z</time></trkpt><trkpt lat="43.7496137" lon="11.5598814"><ele>944.6666666666667</ele><time>2026-04-18T16:40:06.187Z</time></trkpt><trkpt lat="43.7496733" lon="11.5597715"><ele>942.8333333333334</ele><time>2026-04-18T16:40:07.188Z</time></trkpt><trkpt lat="43.749754" lon="11.559707"><ele>941.0</ele><time>2026-04-18T16:40:08.186Z</time></trkpt><trkpt lat="43.7498556" lon="11.559655"><ele>941.0000000000001</ele><time>2026-04-18T16:40:09.185Z</time></trkpt><trkpt lat="43.7499464" lon="11.5596003"><ele>941.0</ele><time>2026-04-18T16:40:10.186Z</time></trkpt><trkpt lat="43.7500058" lon="11.5594974"><ele>941.0</ele><time>2026-04-18T16:40:11.186Z</time></trkpt><trkpt lat="43.750074" lon="11.5594165"><ele>941.0</ele><time>2026-04-18T16:40:12.188Z</time></trkpt><trkpt lat="43.7501361" lon="11.5593489"><ele>941.0000000000001</ele><time>2026-04-18T16:40:13.187Z</time></trkpt><trkpt lat="43.7502104" lon="11.5592998"><ele>941.0</ele><time>2026-04-18T16:40:14.187Z</time></trkpt><trkpt lat="43.7503492" lon="11.5593524"><ele>938.0</ele><time>2026-04-18T16:40:15.188Z</time></trkpt><trkpt lat="43.7504516" lon="11.5593534"><ele>935.0</ele><time>2026-04-18T16:40:16.185Z</time></trkpt><trkpt lat="43.7505654" lon="11.5594037"><ele>932.0</ele><time>2026-04-18T16:40:17.188Z</time></trkpt><trkpt lat="43.7507009" lon="11.5594003"><ele>929.0</ele><time>2026-04-18T16:40:18.188Z</time></trkpt><trkpt lat="43.7508376" lon="11.5594476"><ele>929.0</ele><time>2026-04-18T16:40:19.187Z</time></trkpt><trkpt lat="43.7509492" lon="11.5595298"><ele>929.0</ele><time>2026-04-18T16:40:20.186Z</time></trkpt><trkpt lat="43.7510678" lon="11.5596002"><ele>929.0</ele><time>2026-04-18T16:40:21.186Z</time></trkpt><trkpt lat="43.7511511" lon="11.559704"><ele>929.0</ele><time>2026-04-18T16:40:22.188Z</time></trkpt><trkpt lat="43.7512278" lon="11.5598069"><ele>929.8000000000001</ele><time>2026-04-18T16:40:23.186Z</time></trkpt><trkpt lat="43.7512728" lon="11.5599175"><ele>930.6000000000001</ele><time>2026-04-18T16:40:24.187Z</time></trkpt><trkpt lat="43.7512575" lon="11.5600692"><ele>931.4</ele><time>2026-04-18T16:40:25.186Z</time></trkpt><trkpt lat="43.7512195" lon="11.560191"><ele>932.2</ele><time>2026-04-18T16:40:26.187Z</time></trkpt><trkpt lat="43.7511567" lon="11.5603316"><ele>933.0</ele><time>2026-04-18T16:40:27.187Z</time></trkpt><trkpt lat="43.7510992" lon="11.5604585"><ele>933.0</ele><time>2026-04-18T16:40:28.186Z</time></trkpt><trkpt lat="43.7510466" lon="11.5605815"><ele>933.0</ele><time>2026-04-18T16:40:29.186Z</time></trkpt><trkpt lat="43.7509838" lon="11.5607002"><ele>933.0</ele><time>2026-04-18T16:40:30.185Z</time></trkpt><trkpt lat="43.750981" lon="11.5607874"><ele>933.0</ele><time>2026-04-18T16:40:31.186Z</time></trkpt><trkpt lat="43.7509856" lon="11.560896"><ele>933.0</ele><time>2026-04-18T16:40:32.186Z</time></trkpt><trkpt lat="43.7510823" lon="11.5609371"><ele>933.0</ele><time>2026-04-18T16:40:33.187Z</time></trkpt><trkpt lat="43.7512167" lon="11.5608596"><ele>933.0</ele><time>2026-04-18T16:40:35.187Z</time></trkpt><trkpt lat="43.7512885" lon="11.5608014"><ele>933.0</ele><time>2026-04-18T16:40:36.187Z</time></trkpt><trkpt lat="43.7513994" lon="11.5606326"><ele>933.0</ele><time>2026-04-18T16:40:37.186Z</time></trkpt><trkpt lat="43.7515185" lon="11.5605185"><ele>933.0</ele><time>2026-04-18T16:40:38.188Z</time></trkpt><trkpt lat="43.7516305" lon="11.5604041"><ele>933.0</ele><time>2026-04-18T16:40:39.187Z</time></trkpt><trkpt lat="43.751747" lon="11.5602864"><ele>933.0</ele><time>2026-04-18T16:40:40.187Z</time></trkpt><trkpt lat="43.7518537" lon="11.5601752"><ele>933.0</ele><time>2026-04-18T16:40:41.187Z</time></trkpt><trkpt lat="43.7519551" lon="11.560074"><ele>929.2</ele><time>2026-04-18T16:40:42.185Z</time></trkpt><trkpt lat="43.7520309" lon="11.5599806"><ele>925.4</ele><time>2026-04-18T16:40:43.186Z</time></trkpt><trkpt lat="43.7521206" lon="11.5599309"><ele>921.6000000000001</ele><time>2026-04-18T16:40:44.188Z</time></trkpt><trkpt lat="43.7522215" lon="11.5599203"><ele>917.8000000000001</ele><time>2026-04-18T16:40:45.187Z</time></trkpt><trkpt lat="43.7523275" lon="11.5599171"><ele>914.0</ele><time>2026-04-18T16:40:46.188Z</time></trkpt><trkpt lat="43.7524516" lon="11.559939"><ele>914.0</ele><time>2026-04-18T16:40:47.186Z</time></trkpt><trkpt lat="43.7525698" lon="11.5600766"><ele>914.0</ele><time>2026-04-18T16:40:48.186Z</time></trkpt><trkpt lat="43.7526997" lon="11.5601578"><ele>914.0</ele><time>2026-04-18T16:40:49.188Z</time></trkpt><trkpt lat="43.752816" lon="11.5602587"><ele>914.0</ele><time>2026-04-18T16:40:50.188Z</time></trkpt><trkpt lat="43.7529279" lon="11.5603491"><ele>915.75</ele><time>2026-04-18T16:40:51.187Z</time></trkpt><trkpt lat="43.7530084" lon="11.5604517"><ele>917.5</ele><time>2026-04-18T16:40:52.188Z</time></trkpt><trkpt lat="43.7531106" lon="11.5605148"><ele>919.25</ele><time>2026-04-18T16:40:53.187Z</time></trkpt><trkpt lat="43.7532233" lon="11.5605548"><ele>921.0</ele><time>2026-04-18T16:40:54.187Z</time></trkpt><trkpt lat="43.7533414" lon="11.5605866"><ele>921.0</ele><time>2026-04-18T16:40:55.186Z</time></trkpt><trkpt lat="43.7534714" lon="11.5605958"><ele>921.0</ele><time>2026-04-18T16:40:56.187Z</time></trkpt><trkpt lat="43.7536138" lon="11.5605737"><ele>921.0</ele><time>2026-04-18T16:40:57.188Z</time></trkpt><trkpt lat="43.7537521" lon="11.5605657"><ele>921.0</ele><time>2026-04-18T16:40:58.187Z</time></trkpt><trkpt lat="43.7538889" lon="11.5605296"><ele>921.3333333333333</ele><time>2026-04-18T16:40:59.187Z</time></trkpt><trkpt lat="43.7540286" lon="11.560459"><ele>921.6666666666666</ele><time>2026-04-18T16:41:00.187Z</time></trkpt><trkpt lat="43.7541775" lon="11.5603902"><ele>922.0</ele><time>2026-04-18T16:41:01.186Z</time></trkpt><trkpt lat="43.7543254" lon="11.56032"><ele>918.75</ele><time>2026-04-18T16:41:02.186Z</time></trkpt><trkpt lat="43.754462" lon="11.5602525"><ele>915.5</ele><time>2026-04-18T16:41:03.187Z</time></trkpt><trkpt lat="43.754602" lon="11.5601835"><ele>912.25</ele><time>2026-04-18T16:41:04.188Z</time></trkpt><trkpt lat="43.7547349" lon="11.5601448"><ele>909.0</ele><time>2026-04-18T16:41:05.187Z</time></trkpt><trkpt lat="43.7548704" lon="11.560136"><ele>909.0</ele><time>2026-04-18T16:41:06.187Z</time></trkpt><trkpt lat="43.7550043" lon="11.5601397"><ele>909.0</ele><time>2026-04-18T16:41:07.186Z</time></trkpt><trkpt lat="43.7551387" lon="11.5601407"><ele>909.0</ele><time>2026-04-18T16:41:08.186Z</time></trkpt><trkpt lat="43.7552684" lon="11.5601678"><ele>909.0</ele><time>2026-04-18T16:41:09.187Z</time></trkpt><trkpt lat="43.7553978" lon="11.5602598"><ele>910.5</ele><time>2026-04-18T16:41:10.187Z</time></trkpt><trkpt lat="43.7555283" lon="11.5603412"><ele>912.0</ele><time>2026-04-18T16:41:11.187Z</time></trkpt><trkpt lat="43.7556613" lon="11.5604313"><ele>913.5</ele><time>2026-04-18T16:41:12.186Z</time></trkpt><trkpt lat="43.7557947" lon="11.560508"><ele>915.0</ele><time>2026-04-18T16:41:13.185Z</time></trkpt><trkpt lat="43.7559209" lon="11.5605669"><ele>912.0</ele><time>2026-04-18T16:41:14.187Z</time></trkpt><trkpt lat="43.7560374" lon="11.5606223"><ele>909.0</ele><time>2026-04-18T16:41:15.186Z</time></trkpt><trkpt lat="43.7561401" lon="11.5606923"><ele>906.0</ele><time>2026-04-18T16:41:16.186Z</time></trkpt><trkpt lat="43.7562352" lon="11.560837"><ele>903.0</ele><time>2026-04-18T16:41:17.188Z</time></trkpt><trkpt lat="43.7563479" lon="11.5609625"><ele>903.0</ele><time>2026-04-18T16:41:18.187Z</time></trkpt><trkpt lat="43.7564561" lon="11.5611216"><ele>903.0</ele><time>2026-04-18T16:41:19.187Z</time></trkpt><trkpt lat="43.7565616" lon="11.5612769"><ele>903.0</ele><time>2026-04-18T16:41:20.186Z</time></trkpt><trkpt lat="43.7566697" lon="11.56143"><ele>902.0</ele><time>2026-04-18T16:41:21.186Z</time></trkpt><trkpt lat="43.7567698" lon="11.561591"><ele>901.0</ele><time>2026-04-18T16:41:22.187Z</time></trkpt><trkpt lat="43.7568694" lon="11.5617512"><ele>900.0</ele><time>2026-04-18T16:41:23.186Z</time></trkpt><trkpt lat="43.7569612" lon="11.5619136"><ele>903.6666666666667</ele><time>2026-04-18T16:41:24.188Z</time></trkpt><trkpt lat="43.7570546" lon="11.5620722"><ele>907.3333333333334</ele><time>2026-04-18T16:41:25.188Z</time></trkpt><trkpt lat="43.757176" lon="11.5622011"><ele>911.0</ele><time>2026-04-18T16:41:26.187Z</time></trkpt><trkpt lat="43.757308" lon="11.5623215"><ele>911.0</ele><time>2026-04-18T16:41:27.187Z</time></trkpt><trkpt lat="43.7574496" lon="11.5624038"><ele>911.0</ele><time>2026-04-18T16:41:28.185Z</time></trkpt><trkpt lat="43.7575863" lon="11.562497"><ele>911.0</ele><time>2026-04-18T16:41:29.187Z</time></trkpt><trkpt lat="43.7577163" lon="11.5626337"><ele>908.6666666666667</ele><time>2026-04-18T16:41:30.188Z</time></trkpt><trkpt lat="43.7578448" lon="11.5627866"><ele>906.3333333333333</ele><time>2026-04-18T16:41:31.187Z</time></trkpt><trkpt lat="43.7579707" lon="11.5629588"><ele>904.0</ele><time>2026-04-18T16:41:32.187Z</time></trkpt><trkpt lat="43.7580842" lon="11.5631427"><ele>904.0</ele><time>2026-04-18T16:41:33.187Z</time></trkpt><trkpt lat="43.758193" lon="11.5633516"><ele>904.0</ele><time>2026-04-18T16:41:34.186Z</time></trkpt><trkpt lat="43.7582875" lon="11.5635471"><ele>904.0</ele><time>2026-04-18T16:41:35.187Z</time></trkpt><trkpt lat="43.7583819" lon="11.5637293"><ele>906.0</ele><time>2026-04-18T16:41:36.186Z</time></trkpt><trkpt lat="43.7584678" lon="11.5639047"><ele>908.0</ele><time>2026-04-18T16:41:37.187Z</time></trkpt><trkpt lat="43.7585372" lon="11.5640894"><ele>910.0</ele><time>2026-04-18T16:41:38.188Z</time></trkpt><trkpt lat="43.7585977" lon="11.5642698"><ele>912.0</ele><time>2026-04-18T16:41:39.186Z</time></trkpt><trkpt lat="43.7586177" lon="11.5644369"><ele>909.0</ele><time>2026-04-18T16:41:40.186Z</time></trkpt><trkpt lat="43.7586725" lon="11.5645921"><ele>906.0</ele><time>2026-04-18T16:41:41.187Z</time></trkpt><trkpt lat="43.7587521" lon="11.5647255"><ele>903.0</ele><time>2026-04-18T16:41:42.186Z</time></trkpt><trkpt lat="43.7588382" lon="11.5648344"><ele>900.0</ele><time>2026-04-18T16:41:43.188Z</time></trkpt><trkpt lat="43.7589014" lon="11.5649582"><ele>900.0</ele><time>2026-04-18T16:41:44.188Z</time></trkpt><trkpt lat="43.7589472" lon="11.5651059"><ele>900.0</ele><time>2026-04-18T16:41:45.187Z</time></trkpt><trkpt lat="43.7589753" lon="11.5652614"><ele>900.0</ele><time>2026-04-18T16:41:46.188Z</time></trkpt><trkpt lat="43.75898" lon="11.5654219"><ele>900.0</ele><time>2026-04-18T16:41:47.187Z</time></trkpt><trkpt lat="43.7589609" lon="11.5655713"><ele>901.4</ele><time>2026-04-18T16:41:48.186Z</time></trkpt><trkpt lat="43.7589197" lon="11.5657093"><ele>902.8</ele><time>2026-04-18T16:41:49.186Z</time></trkpt><trkpt lat="43.7588821" lon="11.5658443"><ele>904.2</ele><time>2026-04-18T16:41:50.188Z</time></trkpt><trkpt lat="43.7588753" lon="11.5659898"><ele>905.6</ele><time>2026-04-18T16:41:51.187Z</time></trkpt><trkpt lat="43.7589222" lon="11.5661427"><ele>907.0</ele><time>2026-04-18T16:41:52.187Z</time></trkpt><trkpt lat="43.75899" lon="11.5662558"><ele>909.3333333333333</ele><time>2026-04-18T16:41:53.186Z</time></trkpt><trkpt lat="43.7591085" lon="11.5663778"><ele>911.6666666666667</ele><time>2026-04-18T16:41:54.187Z</time></trkpt><trkpt lat="43.7592459" lon="11.5664752"><ele>914.0</ele><time>2026-04-18T16:41:55.187Z</time></trkpt><trkpt lat="43.7593658" lon="11.5666023"><ele>911.6666666666667</ele><time>2026-04-18T16:41:56.186Z</time></trkpt><trkpt lat="43.7594822" lon="11.5667628"><ele>909.3333333333333</ele><time>2026-04-18T16:41:57.188Z</time></trkpt><trkpt lat="43.7595829" lon="11.5669263"><ele>907.0</ele><time>2026-04-18T16:41:58.187Z</time></trkpt><trkpt lat="43.759678" lon="11.5670828"><ele>907.0</ele><time>2026-04-18T16:41:59.187Z</time></trkpt><trkpt lat="43.7597594" lon="11.5672486"><ele>907.0</ele><time>2026-04-18T16:42:00.187Z</time></trkpt><trkpt lat="43.759787" lon="11.567449"><ele>907.0</ele><time>2026-04-18T16:42:01.186Z</time></trkpt><trkpt lat="43.7598317" lon="11.5676302"><ele>907.0</ele><time>2026-04-18T16:42:02.186Z</time></trkpt><trkpt lat="43.7598391" lon="11.5678047"><ele>907.5</ele><time>2026-04-18T16:42:03.186Z</time></trkpt><trkpt lat="43.759822" lon="11.567993"><ele>908.0</ele><time>2026-04-18T16:42:04.188Z</time></trkpt><trkpt lat="43.7598094" lon="11.5681898"><ele>908.5</ele><time>2026-04-18T16:42:05.188Z</time></trkpt><trkpt lat="43.759765" lon="11.5683814"><ele>909.0</ele><time>2026-04-18T16:42:06.187Z</time></trkpt><trkpt lat="43.7596956" lon="11.5685751"><ele>907.75</ele><time>2026-04-18T16:42:07.187Z</time></trkpt><trkpt lat="43.7596333" lon="11.5687702"><ele>906.5</ele><time>2026-04-18T16:42:08.186Z</time></trkpt><trkpt lat="43.7595745" lon="11.5689537"><ele>905.25</ele><time>2026-04-18T16:42:09.187Z</time></trkpt><trkpt lat="43.7595003" lon="11.569114"><ele>904.0</ele><time>2026-04-18T16:42:10.186Z</time></trkpt><trkpt lat="43.759465" lon="11.5693105"><ele>904.0</ele><time>2026-04-18T16:42:11.187Z</time></trkpt><trkpt lat="43.7594273" lon="11.5695053"><ele>904.0</ele><time>2026-04-18T16:42:12.187Z</time></trkpt><trkpt lat="43.7594129" lon="11.56971"><ele>904.0</ele><time>2026-04-18T16:42:13.187Z</time></trkpt><trkpt lat="43.7594167" lon="11.5698954"><ele>904.0</ele><time>2026-04-18T16:42:14.185Z</time></trkpt><trkpt lat="43.7593955" lon="11.5700746"><ele>905.25</ele><time>2026-04-18T16:42:15.185Z</time></trkpt><trkpt lat="43.7593837" lon="11.570237"><ele>906.5</ele><time>2026-04-18T16:42:16.186Z</time></trkpt><trkpt lat="43.7593538" lon="11.5704061"><ele>907.75</ele><time>2026-04-18T16:42:17.188Z</time></trkpt><trkpt lat="43.7592925" lon="11.5706026"><ele>909.0</ele><time>2026-04-18T16:42:18.188Z</time></trkpt><trkpt lat="43.7592241" lon="11.5707729"><ele>912.2</ele><time>2026-04-18T16:42:19.186Z</time></trkpt><trkpt lat="43.7591446" lon="11.5709112"><ele>915.4000000000001</ele><time>2026-04-18T16:42:20.187Z</time></trkpt><trkpt lat="43.7590573" lon="11.5710185"><ele>918.6</ele><time>2026-04-18T16:42:21.186Z</time></trkpt><trkpt lat="43.759005" lon="11.5710982"><ele>921.8</ele><time>2026-04-18T16:42:22.185Z</time></trkpt><trkpt lat="43.7589373" lon="11.5711731"><ele>925.0</ele><time>2026-04-18T16:42:23.186Z</time></trkpt><trkpt lat="43.7589016" lon="11.57127"><ele>925.0</ele><time>2026-04-18T16:42:24.187Z</time></trkpt><trkpt lat="43.7589087" lon="11.5713642"><ele>925.0</ele><time>2026-04-18T16:42:25.187Z</time></trkpt><trkpt lat="43.7589812" lon="11.5714307"><ele>925.0</ele><time>2026-04-18T16:42:26.187Z</time></trkpt><trkpt lat="43.7591259" lon="11.5713515"><ele>925.0</ele><time>2026-04-18T16:42:27.188Z</time></trkpt><trkpt lat="43.7591777" lon="11.5712743"><ele>925.0</ele><time>2026-04-18T16:42:28.187Z</time></trkpt><trkpt lat="43.7592497" lon="11.5711591"><ele>925.0</ele><time>2026-04-18T16:42:29.185Z</time></trkpt><trkpt lat="43.7593366" lon="11.5710652"><ele>925.0</ele><time>2026-04-18T16:42:30.185Z</time></trkpt><trkpt lat="43.7594238" lon="11.5709614"><ele>925.0</ele><time>2026-04-18T16:42:31.188Z</time></trkpt><trkpt lat="43.7595717" lon="11.5709088"><ele>925.0</ele><time>2026-04-18T16:42:32.186Z</time></trkpt><trkpt lat="43.7597185" lon="11.5708368"><ele>926.6666666666666</ele><time>2026-04-18T16:42:33.187Z</time></trkpt><trkpt lat="43.7598883" lon="11.5707519"><ele>928.3333333333333</ele><time>2026-04-18T16:42:34.186Z</time></trkpt><trkpt lat="43.7600697" lon="11.5706465"><ele>930.0</ele><time>2026-04-18T16:42:35.187Z</time></trkpt><trkpt lat="43.7602484" lon="11.5705359"><ele>926.3333333333333</ele><time>2026-04-18T16:42:36.187Z</time></trkpt><trkpt lat="43.7604079" lon="11.5704192"><ele>922.6666666666666</ele><time>2026-04-18T16:42:37.186Z</time></trkpt><trkpt lat="43.7605577" lon="11.5703076"><ele>919.0</ele><time>2026-04-18T16:42:38.188Z</time></trkpt><trkpt lat="43.7606875" lon="11.5702163"><ele>919.0</ele><time>2026-04-18T16:42:39.187Z</time></trkpt><trkpt lat="43.7608172" lon="11.5701253"><ele>919.0</ele><time>2026-04-18T16:42:40.186Z</time></trkpt><trkpt lat="43.760938" lon="11.5700926"><ele>919.0</ele><time>2026-04-18T16:42:41.187Z</time></trkpt><trkpt lat="43.7610618" lon="11.5700434"><ele>919.0</ele><time>2026-04-18T16:42:42.186Z</time></trkpt><trkpt lat="43.761216" lon="11.5700399"><ele>925.6666666666666</ele><time>2026-04-18T16:42:43.187Z</time></trkpt><trkpt lat="43.761368" lon="11.57001"><ele>932.3333333333333</ele><time>2026-04-18T16:42:44.188Z</time></trkpt><trkpt lat="43.7615289" lon="11.5699133"><ele>939.0</ele><time>2026-04-18T16:42:45.187Z</time></trkpt><trkpt lat="43.76168" lon="11.5698488"><ele>939.0</ele><time>2026-04-18T16:42:46.187Z</time></trkpt><trkpt lat="43.7618292" lon="11.5697781"><ele>939.0</ele><time>2026-04-18T16:42:47.187Z</time></trkpt><trkpt lat="43.7619559" lon="11.569722"><ele>939.0</ele><time>2026-04-18T16:42:48.186Z</time></trkpt><trkpt lat="43.7620817" lon="11.5696636"><ele>939.0</ele><time>2026-04-18T16:42:49.186Z</time></trkpt><trkpt lat="43.7622034" lon="11.5696047"><ele>938.0</ele><time>2026-04-18T16:42:50.186Z</time></trkpt><trkpt lat="43.7623275" lon="11.5696096"><ele>937.0</ele><time>2026-04-18T16:42:51.188Z</time></trkpt><trkpt lat="43.7624708" lon="11.569622"><ele>936.0</ele><time>2026-04-18T16:42:52.187Z</time></trkpt><trkpt lat="43.7626114" lon="11.5696164"><ele>935.0</ele><time>2026-04-18T16:42:53.188Z</time></trkpt><trkpt lat="43.762746" lon="11.5696038"><ele>935.0</ele><time>2026-04-18T16:42:54.186Z</time></trkpt><trkpt lat="43.7628762" lon="11.5695797"><ele>935.0</ele><time>2026-04-18T16:42:55.187Z</time></trkpt><trkpt lat="43.7629909" lon="11.5695762"><ele>935.0</ele><time>2026-04-18T16:42:56.186Z</time></trkpt><trkpt lat="43.7630949" lon="11.5696045"><ele>935.0</ele><time>2026-04-18T16:42:57.188Z</time></trkpt><trkpt lat="43.7631788" lon="11.5696654"><ele>935.0</ele><time>2026-04-18T16:42:58.186Z</time></trkpt><trkpt lat="43.7632396" lon="11.5697642"><ele>935.0</ele><time>2026-04-18T16:42:59.188Z</time></trkpt><trkpt lat="43.7632998" lon="11.5698779"><ele>935.0</ele><time>2026-04-18T16:43:00.187Z</time></trkpt><trkpt lat="43.7633607" lon="11.5699973"><ele>935.0</ele><time>2026-04-18T16:43:01.187Z</time></trkpt><trkpt lat="43.7634167" lon="11.5700983"><ele>935.0</ele><time>2026-04-18T16:43:02.186Z</time></trkpt><trkpt lat="43.763466" lon="11.5701828"><ele>935.0</ele><time>2026-04-18T16:43:03.188Z</time></trkpt><trkpt lat="43.7635179" lon="11.5702793"><ele>933.2</ele><time>2026-04-18T16:43:04.187Z</time></trkpt><trkpt lat="43.7635658" lon="11.570391"><ele>931.4</ele><time>2026-04-18T16:43:05.188Z</time></trkpt><trkpt lat="43.7636136" lon="11.5705178"><ele>929.5999999999999</ele><time>2026-04-18T16:43:06.187Z</time></trkpt><trkpt lat="43.7636563" lon="11.570648"><ele>927.8</ele><time>2026-04-18T16:43:07.187Z</time></trkpt><trkpt lat="43.7636799" lon="11.5707866"><ele>926.0</ele><time>2026-04-18T16:43:08.186Z</time></trkpt><trkpt lat="43.763675" lon="11.5709299"><ele>926.0000000000001</ele><time>2026-04-18T16:43:09.186Z</time></trkpt><trkpt lat="43.7636665" lon="11.5710579"><ele>926.0</ele><time>2026-04-18T16:43:10.188Z</time></trkpt><trkpt lat="43.7636587" lon="11.5711735"><ele>926.0</ele><time>2026-04-18T16:43:11.187Z</time></trkpt><trkpt lat="43.7636954" lon="11.5712656"><ele>926.0</ele><time>2026-04-18T16:43:12.187Z</time></trkpt><trkpt lat="43.7638025" lon="11.5713188"><ele>926.0000000000001</ele><time>2026-04-18T16:43:14.187Z</time></trkpt><trkpt lat="43.7638804" lon="11.5713057"><ele>926.0</ele><time>2026-04-18T16:43:15.188Z</time></trkpt><trkpt lat="43.7640313" lon="11.5712178"><ele>926.0</ele><time>2026-04-18T16:43:16.186Z</time></trkpt><trkpt lat="43.7641536" lon="11.5711337"><ele>926.0</ele><time>2026-04-18T16:43:17.187Z</time></trkpt><trkpt lat="43.7642805" lon="11.5710589"><ele>926.0</ele><time>2026-04-18T16:43:18.187Z</time></trkpt><trkpt lat="43.764394" lon="11.5709927"><ele>926.0</ele><time>2026-04-18T16:43:19.186Z</time></trkpt><trkpt lat="43.7645043" lon="11.570941"><ele>924.5</ele><time>2026-04-18T16:43:20.186Z</time></trkpt><trkpt lat="43.7646137" lon="11.5709129"><ele>923.0</ele><time>2026-04-18T16:43:21.187Z</time></trkpt><trkpt lat="43.764727" lon="11.5709361"><ele>921.5</ele><time>2026-04-18T16:43:22.187Z</time></trkpt><trkpt lat="43.7648476" lon="11.571012"><ele>920.0</ele><time>2026-04-18T16:43:23.188Z</time></trkpt><trkpt lat="43.7649848" lon="11.5711129"><ele>925.0</ele><time>2026-04-18T16:43:24.188Z</time></trkpt><trkpt lat="43.7651334" lon="11.5712275"><ele>930.0</ele><time>2026-04-18T16:43:25.187Z</time></trkpt><trkpt lat="43.7652803" lon="11.5713371"><ele>935.0</ele><time>2026-04-18T16:43:26.186Z</time></trkpt><trkpt lat="43.7654208" lon="11.5714282"><ele>935.0</ele><time>2026-04-18T16:43:27.187Z</time></trkpt><trkpt lat="43.7655445" lon="11.5715396"><ele>935.0</ele><time>2026-04-18T16:43:28.187Z</time></trkpt><trkpt lat="43.7656667" lon="11.5716536"><ele>935.0</ele><time>2026-04-18T16:43:29.186Z</time></trkpt><trkpt lat="43.7657655" lon="11.5717951"><ele>935.0</ele><time>2026-04-18T16:43:30.188Z</time></trkpt><trkpt lat="43.7658432" lon="11.5719379"><ele>935.0</ele><time>2026-04-18T16:43:31.188Z</time></trkpt><trkpt lat="43.7659119" lon="11.5721069"><ele>935.0</ele><time>2026-04-18T16:43:32.187Z</time></trkpt><trkpt lat="43.7659488" lon="11.5722643"><ele>935.0</ele><time>2026-04-18T16:43:33.186Z</time></trkpt><trkpt lat="43.766019" lon="11.5723767"><ele>935.0</ele><time>2026-04-18T16:43:34.186Z</time></trkpt><trkpt lat="43.7661074" lon="11.572476"><ele>935.0</ele><time>2026-04-18T16:43:35.187Z</time></trkpt><trkpt lat="43.7661981" lon="11.5725772"><ele>935.0</ele><time>2026-04-18T16:43:36.186Z</time></trkpt><trkpt lat="43.7663075" lon="11.5726163"><ele>935.0</ele><time>2026-04-18T16:43:37.187Z</time></trkpt><trkpt lat="43.7664102" lon="11.5726445"><ele>935.0</ele><time>2026-04-18T16:43:38.187Z</time></trkpt><trkpt lat="43.7664979" lon="11.5726582"><ele>935.0</ele><time>2026-04-18T16:43:39.185Z</time></trkpt><trkpt lat="43.7665932" lon="11.5726449"><ele>935.0</ele><time>2026-04-18T16:43:40.186Z</time></trkpt><trkpt lat="43.7666723" lon="11.5726125"><ele>935.0</ele><time>2026-04-18T16:43:41.186Z</time></trkpt><trkpt lat="43.7667404" lon="11.5724921"><ele>935.0</ele><time>2026-04-18T16:43:42.187Z</time></trkpt><trkpt lat="43.7667862" lon="11.5723748"><ele>935.0</ele><time>2026-04-18T16:43:43.187Z</time></trkpt><trkpt lat="43.7667473" lon="11.5721346"><ele>934.0</ele><time>2026-04-18T16:43:44.187Z</time></trkpt><trkpt lat="43.766786" lon="11.571999"><ele>933.0</ele><time>2026-04-18T16:43:45.186Z</time></trkpt><trkpt lat="43.7668509" lon="11.5718996"><ele>932.0</ele><time>2026-04-18T16:43:46.187Z</time></trkpt><trkpt lat="43.766937" lon="11.5718164"><ele>931.0</ele><time>2026-04-18T16:43:47.185Z</time></trkpt><trkpt lat="43.7670536" lon="11.5717713"><ele>930.0</ele><time>2026-04-18T16:43:48.185Z</time></trkpt><trkpt lat="43.7671989" lon="11.5717421"><ele>930.0</ele><time>2026-04-18T16:43:49.188Z</time></trkpt><trkpt lat="43.7673497" lon="11.5717154"><ele>930.0</ele><time>2026-04-18T16:43:50.188Z</time></trkpt><trkpt lat="43.7675107" lon="11.5716671"><ele>930.0</ele><time>2026-04-18T16:43:51.186Z</time></trkpt><trkpt lat="43.7676594" lon="11.5715817"><ele>937.3333333333333</ele><time>2026-04-18T16:43:52.187Z</time></trkpt><trkpt lat="43.767811" lon="11.5715126"><ele>944.6666666666666</ele><time>2026-04-18T16:43:53.187Z</time></trkpt><trkpt lat="43.7679528" lon="11.5713941"><ele>952.0</ele><time>2026-04-18T16:43:54.188Z</time></trkpt><trkpt lat="43.7680624" lon="11.5712213"><ele>944.6666666666666</ele><time>2026-04-18T16:43:55.186Z</time></trkpt><trkpt lat="43.7682057" lon="11.5710542"><ele>937.3333333333333</ele><time>2026-04-18T16:43:56.188Z</time></trkpt><trkpt lat="43.768325" lon="11.5708699"><ele>930.0</ele><time>2026-04-18T16:43:57.187Z</time></trkpt><trkpt lat="43.7684277" lon="11.5706767"><ele>930.5</ele><time>2026-04-18T16:43:58.188Z</time></trkpt><trkpt lat="43.7685345" lon="11.5705177"><ele>931.0</ele><time>2026-04-18T16:43:59.187Z</time></trkpt><trkpt lat="43.768638" lon="11.5703764"><ele>931.5</ele><time>2026-04-18T16:44:00.186Z</time></trkpt><trkpt lat="43.768736" lon="11.5702553"><ele>932.0</ele><time>2026-04-18T16:44:01.187Z</time></trkpt><trkpt lat="43.7688553" lon="11.5701968"><ele>932.0</ele><time>2026-04-18T16:44:02.188Z</time></trkpt><trkpt lat="43.7689713" lon="11.5701272"><ele>932.0</ele><time>2026-04-18T16:44:03.188Z</time></trkpt><trkpt lat="43.769114" lon="11.5700791"><ele>932.0</ele><time>2026-04-18T16:44:04.187Z</time></trkpt><trkpt lat="43.7692779" lon="11.5700818"><ele>932.0</ele><time>2026-04-18T16:44:05.187Z</time></trkpt><trkpt lat="43.7694148" lon="11.5700733"><ele>933.25</ele><time>2026-04-18T16:44:06.186Z</time></trkpt><trkpt lat="43.7695334" lon="11.5700963"><ele>934.5</ele><time>2026-04-18T16:44:07.186Z</time></trkpt><trkpt lat="43.7696404" lon="11.5701648"><ele>935.75</ele><time>2026-04-18T16:44:08.187Z</time></trkpt><trkpt lat="43.769747" lon="11.5702785"><ele>937.0</ele><time>2026-04-18T16:44:09.188Z</time></trkpt><trkpt lat="43.7698729" lon="11.5703905"><ele>937.0</ele><time>2026-04-18T16:44:10.188Z</time></trkpt><trkpt lat="43.7700167" lon="11.5705164"><ele>937.0</ele><time>2026-04-18T16:44:11.188Z</time></trkpt><trkpt lat="43.7702142" lon="11.5706097"><ele>937.0</ele><time>2026-04-18T16:44:12.187Z</time></trkpt><trkpt lat="43.7704017" lon="11.5707137"><ele>937.0</ele><time>2026-04-18T16:44:13.187Z</time></trkpt><trkpt lat="43.7706006" lon="11.5708068"><ele>937.0</ele><time>2026-04-18T16:44:14.186Z</time></trkpt><trkpt lat="43.7707974" lon="11.5709005"><ele>937.0</ele><time>2026-04-18T16:44:15.186Z</time></trkpt><trkpt lat="43.7709754" lon="11.570998"><ele>939.0</ele><time>2026-04-18T16:44:16.188Z</time></trkpt><trkpt lat="43.7711546" lon="11.5710927"><ele>941.0</ele><time>2026-04-18T16:44:17.188Z</time></trkpt><trkpt lat="43.7713239" lon="11.5711706"><ele>943.0</ele><time>2026-04-18T16:44:18.187Z</time></trkpt><trkpt lat="43.7714971" lon="11.5712549"><ele>943.25</ele><time>2026-04-18T16:44:19.187Z</time></trkpt><trkpt lat="43.77165" lon="11.5713227"><ele>943.5</ele><time>2026-04-18T16:44:20.186Z</time></trkpt><trkpt lat="43.7717868" lon="11.5714039"><ele>943.75</ele><time>2026-04-18T16:44:21.187Z</time></trkpt><trkpt lat="43.771845" lon="11.5714668"><ele>944.0</ele><time>2026-04-18T16:44:22.186Z</time></trkpt><trkpt lat="43.771933" lon="11.5715446"><ele>944.75</ele><time>2026-04-18T16:44:23.188Z</time></trkpt><trkpt lat="43.7719798" lon="11.5716673"><ele>945.5</ele><time>2026-04-18T16:44:24.187Z</time></trkpt><trkpt lat="43.7720279" lon="11.5718437"><ele>946.25</ele><time>2026-04-18T16:44:25.187Z</time></trkpt><trkpt lat="43.7720739" lon="11.5720846"><ele>947.0</ele><time>2026-04-18T16:44:26.186Z</time></trkpt><trkpt lat="43.7721318" lon="11.5722732"><ele>947.0</ele><time>2026-04-18T16:44:27.188Z</time></trkpt><trkpt lat="43.7721763" lon="11.5724711"><ele>947.0</ele><time>2026-04-18T16:44:28.186Z</time></trkpt><trkpt lat="43.7722689" lon="11.5726409"><ele>947.0</ele><time>2026-04-18T16:44:29.186Z</time></trkpt><trkpt lat="43.7723405" lon="11.5728183"><ele>949.0</ele><time>2026-04-18T16:44:30.188Z</time></trkpt><trkpt lat="43.7724234" lon="11.5729982"><ele>951.0</ele><time>2026-04-18T16:44:31.187Z</time></trkpt><trkpt lat="43.7725279" lon="11.5731437"><ele>953.0</ele><time>2026-04-18T16:44:32.187Z</time></trkpt><trkpt lat="43.772612" lon="11.5732864"><ele>955.0</ele><time>2026-04-18T16:44:33.186Z</time></trkpt><trkpt lat="43.7726932" lon="11.5734236"><ele>955.25</ele><time>2026-04-18T16:44:34.187Z</time></trkpt><trkpt lat="43.7727793" lon="11.573534"><ele>955.5</ele><time>2026-04-18T16:44:35.186Z</time></trkpt><trkpt lat="43.7728748" lon="11.5736176"><ele>955.75</ele><time>2026-04-18T16:44:36.188Z</time></trkpt><trkpt lat="43.7729854" lon="11.5735599"><ele>956.0</ele><time>2026-04-18T16:44:37.187Z</time></trkpt><trkpt lat="43.773093" lon="11.5735903"><ele>956.0</ele><time>2026-04-18T16:44:38.186Z</time></trkpt><trkpt lat="43.7731762" lon="11.5736345"><ele>955.9999999999999</ele><time>2026-04-18T16:44:39.187Z</time></trkpt><trkpt lat="43.7732553" lon="11.5737293"><ele>955.9999999999999</ele><time>2026-04-18T16:44:40.187Z</time></trkpt><trkpt lat="43.7733378" lon="11.5738097"><ele>956.0</ele><time>2026-04-18T16:44:41.186Z</time></trkpt><trkpt lat="43.773377" lon="11.5739797"><ele>956.0</ele><time>2026-04-18T16:44:42.188Z</time></trkpt><trkpt lat="43.7734685" lon="11.5741175"><ele>959.0</ele><time>2026-04-18T16:44:43.187Z</time></trkpt><trkpt lat="43.7735493" lon="11.5742417"><ele>962.0</ele><time>2026-04-18T16:44:44.187Z</time></trkpt><trkpt lat="43.773619" lon="11.5743599"><ele>965.0</ele><time>2026-04-18T16:44:45.187Z</time></trkpt><trkpt lat="43.7736866" lon="11.5744938"><ele>968.0</ele><time>2026-04-18T16:44:46.188Z</time></trkpt><trkpt lat="43.7736917" lon="11.57471"><ele>968.0</ele><time>2026-04-18T16:44:47.187Z</time></trkpt><trkpt lat="43.7737283" lon="11.5748775"><ele>968.0</ele><time>2026-04-18T16:44:48.187Z</time></trkpt><trkpt lat="43.7737868" lon="11.5750443"><ele>968.0</ele><time>2026-04-18T16:44:49.187Z</time></trkpt><trkpt lat="43.7738806" lon="11.5751809"><ele>968.0</ele><time>2026-04-18T16:44:50.188Z</time></trkpt><trkpt lat="43.7739611" lon="11.5753363"><ele>967.75</ele><time>2026-04-18T16:44:51.187Z</time></trkpt><trkpt lat="43.7740435" lon="11.5754936"><ele>967.5</ele><time>2026-04-18T16:44:52.187Z</time></trkpt><trkpt lat="43.7741194" lon="11.5756351"><ele>967.25</ele><time>2026-04-18T16:44:53.186Z</time></trkpt><trkpt lat="43.7742041" lon="11.5757805"><ele>967.0</ele><time>2026-04-18T16:44:54.187Z</time></trkpt><trkpt lat="43.7742961" lon="11.5758502"><ele>969.75</ele><time>2026-04-18T16:44:55.186Z</time></trkpt><trkpt lat="43.7744195" lon="11.575932"><ele>972.5</ele><time>2026-04-18T16:44:56.188Z</time></trkpt><trkpt lat="43.7745011" lon="11.5760352"><ele>975.25</ele><time>2026-04-18T16:44:57.186Z</time></trkpt><trkpt lat="43.7745613" lon="11.5761768"><ele>978.0</ele><time>2026-04-18T16:44:58.186Z</time></trkpt><trkpt lat="43.7746021" lon="11.5763388"><ele>978.0</ele><time>2026-04-18T16:44:59.187Z</time></trkpt><trkpt lat="43.7746462" lon="11.5765012"><ele>978.0</ele><time>2026-04-18T16:45:00.187Z</time></trkpt><trkpt lat="43.7747216" lon="11.5766994"><ele>978.0</ele><time>2026-04-18T16:45:01.187Z</time></trkpt><trkpt lat="43.7747923" lon="11.5768796"><ele>978.0</ele><time>2026-04-18T16:45:02.188Z</time></trkpt><trkpt lat="43.7748981" lon="11.5770616"><ele>979.3333333333333</ele><time>2026-04-18T16:45:03.188Z</time></trkpt><trkpt lat="43.775052" lon="11.5772419"><ele>980.6666666666666</ele><time>2026-04-18T16:45:04.186Z</time></trkpt><trkpt lat="43.7751608" lon="11.577419"><ele>982.0</ele><time>2026-04-18T16:45:05.186Z</time></trkpt><trkpt lat="43.7752652" lon="11.5775871"><ele>979.5</ele><time>2026-04-18T16:45:06.186Z</time></trkpt><trkpt lat="43.7753723" lon="11.5777327"><ele>977.0</ele><time>2026-04-18T16:45:07.187Z</time></trkpt><trkpt lat="43.7754856" lon="11.5778613"><ele>974.5</ele><time>2026-04-18T16:45:08.186Z</time></trkpt><trkpt lat="43.7756014" lon="11.5779899"><ele>972.0</ele><time>2026-04-18T16:45:09.188Z</time></trkpt><trkpt lat="43.7757091" lon="11.5781321"><ele>972.0</ele><time>2026-04-18T16:45:10.187Z</time></trkpt><trkpt lat="43.7758043" lon="11.5782905"><ele>972.0</ele><time>2026-04-18T16:45:11.185Z</time></trkpt><trkpt lat="43.7758922" lon="11.5784685"><ele>972.0</ele><time>2026-04-18T16:45:12.187Z</time></trkpt><trkpt lat="43.775973" lon="11.5786657"><ele>971.0</ele><time>2026-04-18T16:45:13.185Z</time></trkpt><trkpt lat="43.7760574" lon="11.5788583"><ele>970.0</ele><time>2026-04-18T16:45:14.186Z</time></trkpt><trkpt lat="43.7761263" lon="11.5790467"><ele>969.0</ele><time>2026-04-18T16:45:15.186Z</time></trkpt><trkpt lat="43.7761662" lon="11.5792852"><ele>969.0</ele><time>2026-04-18T16:45:16.188Z</time></trkpt><trkpt lat="43.7762172" lon="11.5795095"><ele>969.0</ele><time>2026-04-18T16:45:17.186Z</time></trkpt><trkpt lat="43.776254" lon="11.5797266"><ele>969.0</ele><time>2026-04-18T16:45:18.187Z</time></trkpt><trkpt lat="43.7762959" lon="11.5799476"><ele>970.0</ele><time>2026-04-18T16:45:19.187Z</time></trkpt><trkpt lat="43.7763192" lon="11.5801413"><ele>971.0</ele><time>2026-04-18T16:45:20.186Z</time></trkpt><trkpt lat="43.7763468" lon="11.5803616"><ele>972.0</ele><time>2026-04-18T16:45:21.186Z</time></trkpt><trkpt lat="43.7763324" lon="11.5805615"><ele>973.0</ele><time>2026-04-18T16:45:22.188Z</time></trkpt><trkpt lat="43.7763346" lon="11.5807657"><ele>973.0</ele><time>2026-04-18T16:45:23.187Z</time></trkpt><trkpt lat="43.7763145" lon="11.5809846"><ele>973.0</ele><time>2026-04-18T16:45:24.186Z</time></trkpt><trkpt lat="43.7763035" lon="11.5812005"><ele>973.0</ele><time>2026-04-18T16:45:25.186Z</time></trkpt><trkpt lat="43.7762918" lon="11.5814029"><ele>972.5</ele><time>2026-04-18T16:45:26.186Z</time></trkpt><trkpt lat="43.7762804" lon="11.5815911"><ele>972.0</ele><time>2026-04-18T16:45:27.187Z</time></trkpt><trkpt lat="43.7762748" lon="11.5817665"><ele>971.5</ele><time>2026-04-18T16:45:28.188Z</time></trkpt><trkpt lat="43.776282" lon="11.5819451"><ele>971.0</ele><time>2026-04-18T16:45:29.188Z</time></trkpt><trkpt lat="43.7763395" lon="11.5821425"><ele>971.0</ele><time>2026-04-18T16:45:30.186Z</time></trkpt><trkpt lat="43.7763874" lon="11.5823152"><ele>971.0</ele><time>2026-04-18T16:45:31.187Z</time></trkpt><trkpt lat="43.7764346" lon="11.5824828"><ele>971.0</ele><time>2026-04-18T16:45:32.186Z</time></trkpt><trkpt lat="43.7764201" lon="11.5826238"><ele>971.0</ele><time>2026-04-18T16:45:33.187Z</time></trkpt><trkpt lat="43.7764224" lon="11.5827994"><ele>973.0</ele><time>2026-04-18T16:45:34.188Z</time></trkpt><trkpt lat="43.7764072" lon="11.5829791"><ele>975.0</ele><time>2026-04-18T16:45:35.188Z</time></trkpt><trkpt lat="43.7763525" lon="11.5832075"><ele>977.0</ele><time>2026-04-18T16:45:36.188Z</time></trkpt><trkpt lat="43.7763452" lon="11.5834417"><ele>978.3333333333334</ele><time>2026-04-18T16:45:37.186Z</time></trkpt><trkpt lat="43.7763748" lon="11.5836916"><ele>979.6666666666667</ele><time>2026-04-18T16:45:38.188Z</time></trkpt><trkpt lat="43.7763904" lon="11.583915"><ele>981.0</ele><time>2026-04-18T16:45:39.186Z</time></trkpt><trkpt lat="43.776421" lon="11.5841375"><ele>981.0</ele><time>2026-04-18T16:45:40.187Z</time></trkpt><trkpt lat="43.7764625" lon="11.5843502"><ele>981.0</ele><time>2026-04-18T16:45:41.188Z</time></trkpt><trkpt lat="43.7765158" lon="11.5845453"><ele>981.0</ele><time>2026-04-18T16:45:42.187Z</time></trkpt><trkpt lat="43.7765799" lon="11.5847311"><ele>983.0</ele><time>2026-04-18T16:45:43.187Z</time></trkpt><trkpt lat="43.7766352" lon="11.5849238"><ele>985.0</ele><time>2026-04-18T16:45:44.185Z</time></trkpt><trkpt lat="43.7766852" lon="11.5851331"><ele>987.0</ele><time>2026-04-18T16:45:45.186Z</time></trkpt><trkpt lat="43.776714" lon="11.5853558"><ele>987.5</ele><time>2026-04-18T16:45:46.186Z</time></trkpt><trkpt lat="43.7767323" lon="11.5855609"><ele>988.0</ele><time>2026-04-18T16:45:47.187Z</time></trkpt><trkpt lat="43.7767481" lon="11.5857464"><ele>988.5</ele><time>2026-04-18T16:45:48.187Z</time></trkpt><trkpt lat="43.7767675" lon="11.5859166"><ele>989.0</ele><time>2026-04-18T16:45:49.187Z</time></trkpt><trkpt lat="43.7767845" lon="11.5860489"><ele>989.0000000000001</ele><time>2026-04-18T16:45:50.187Z</time></trkpt><trkpt lat="43.7768082" lon="11.5861551"><ele>989.0</ele><time>2026-04-18T16:45:51.186Z</time></trkpt><trkpt lat="43.7768384" lon="11.586249"><ele>989.0</ele><time>2026-04-18T16:45:52.186Z</time></trkpt><trkpt lat="43.7769292" lon="11.5862986"><ele>989.0</ele><time>2026-04-18T16:45:53.186Z</time></trkpt><trkpt lat="43.7769945" lon="11.5863489"><ele>989.0000000000001</ele><time>2026-04-18T16:45:54.186Z</time></trkpt><trkpt lat="43.7770714" lon="11.586217"><ele>989.0</ele><time>2026-04-18T16:45:55.188Z</time></trkpt><trkpt lat="43.77716" lon="11.5861582"><ele>993.0</ele><time>2026-04-18T16:45:56.186Z</time></trkpt><trkpt lat="43.7772372" lon="11.585913"><ele>997.0</ele><time>2026-04-18T16:45:57.187Z</time></trkpt><trkpt lat="43.7773234" lon="11.5857437"><ele>1001.0</ele><time>2026-04-18T16:45:58.187Z</time></trkpt><trkpt lat="43.7774179" lon="11.5855562"><ele>1001.0</ele><time>2026-04-18T16:45:59.187Z</time></trkpt><trkpt lat="43.7775199" lon="11.5853885"><ele>1001.0</ele><time>2026-04-18T16:46:00.187Z</time></trkpt><trkpt lat="43.7776223" lon="11.585258"><ele>1001.0</ele><time>2026-04-18T16:46:01.187Z</time></trkpt><trkpt lat="43.7777226" lon="11.5851326"><ele>1001.0</ele><time>2026-04-18T16:46:02.187Z</time></trkpt><trkpt lat="43.7777817" lon="11.5849752"><ele>1001.0</ele><time>2026-04-18T16:46:03.186Z</time></trkpt><trkpt lat="43.7778019" lon="11.5847827"><ele>1001.0</ele><time>2026-04-18T16:46:04.186Z</time></trkpt><trkpt lat="43.7777975" lon="11.5846179"><ele>1001.0</ele><time>2026-04-18T16:46:05.187Z</time></trkpt><trkpt lat="43.7778138" lon="11.5844575"><ele>1001.0</ele><time>2026-04-18T16:46:06.186Z</time></trkpt><trkpt lat="43.7778636" lon="11.5843262"><ele>1001.0</ele><time>2026-04-18T16:46:07.188Z</time></trkpt><trkpt lat="43.7779445" lon="11.5842477"><ele>1001.0</ele><time>2026-04-18T16:46:08.187Z</time></trkpt><trkpt lat="43.7780555" lon="11.5842098"><ele>1001.0</ele><time>2026-04-18T16:46:09.187Z</time></trkpt><trkpt lat="43.7781907" lon="11.5842037"><ele>1001.0</ele><time>2026-04-18T16:46:10.187Z</time></trkpt><trkpt lat="43.7783467" lon="11.5842134"><ele>1001.0</ele><time>2026-04-18T16:46:11.186Z</time></trkpt><trkpt lat="43.7785116" lon="11.5842279"><ele>1001.0</ele><time>2026-04-18T16:46:12.186Z</time></trkpt><trkpt lat="43.7786733" lon="11.5842258"><ele>1001.0</ele><time>2026-04-18T16:46:13.187Z</time></trkpt><trkpt lat="43.7788278" lon="11.5841908"><ele>1003.6666666666667</ele><time>2026-04-18T16:46:14.188Z</time></trkpt><trkpt lat="43.7789807" lon="11.5841096"><ele>1006.3333333333333</ele><time>2026-04-18T16:46:15.188Z</time></trkpt><trkpt lat="43.7791217" lon="11.5840209"><ele>1009.0</ele><time>2026-04-18T16:46:16.187Z</time></trkpt><trkpt lat="43.7792424" lon="11.5839355"><ele>1009.0</ele><time>2026-04-18T16:46:17.186Z</time></trkpt><trkpt lat="43.7793458" lon="11.5838753"><ele>1009.0000000000001</ele><time>2026-04-18T16:46:18.187Z</time></trkpt><trkpt lat="43.7794485" lon="11.5838236"><ele>1009.0000000000001</ele><time>2026-04-18T16:46:19.185Z</time></trkpt><trkpt lat="43.7795244" lon="11.5839226"><ele>1009.0</ele><time>2026-04-18T16:46:20.187Z</time></trkpt><trkpt lat="43.7796103" lon="11.583991"><ele>1009.0</ele><time>2026-04-18T16:46:21.186Z</time></trkpt><trkpt lat="43.7796736" lon="11.5841354"><ele>1009.25</ele><time>2026-04-18T16:46:22.188Z</time></trkpt><trkpt lat="43.7797277" lon="11.5842957"><ele>1009.5</ele><time>2026-04-18T16:46:23.188Z</time></trkpt><trkpt lat="43.7797586" lon="11.5845062"><ele>1009.75</ele><time>2026-04-18T16:46:24.187Z</time></trkpt><trkpt lat="43.7797819" lon="11.5847072"><ele>1010.0</ele><time>2026-04-18T16:46:25.185Z</time></trkpt><trkpt lat="43.7797173" lon="11.5848814"><ele>1010.0</ele><time>2026-04-18T16:46:26.186Z</time></trkpt><trkpt lat="43.7797003" lon="11.5850411"><ele>1010.0</ele><time>2026-04-18T16:46:27.187Z</time></trkpt><trkpt lat="43.7796789" lon="11.5851727"><ele>1010.0</ele><time>2026-04-18T16:46:28.188Z</time></trkpt><trkpt lat="43.7796616" lon="11.5852855"><ele>1010.0</ele><time>2026-04-18T16:46:29.188Z</time></trkpt><trkpt lat="43.7796451" lon="11.5853972"><ele>1010.0</ele><time>2026-04-18T16:46:30.188Z</time></trkpt><trkpt lat="43.7796285" lon="11.5855176"><ele>1011.0</ele><time>2026-04-18T16:46:32.188Z</time></trkpt><trkpt lat="43.779604" lon="11.5856514"><ele>1011.9999999999999</ele><time>2026-04-18T16:46:35.188Z</time></trkpt><trkpt lat="43.7795956" lon="11.5857476"><ele>1013.0</ele><time>2026-04-18T16:46:36.188Z</time></trkpt><trkpt lat="43.779591" lon="11.5858568"><ele>1014.0</ele><time>2026-04-18T16:46:37.187Z</time></trkpt><trkpt lat="43.7795887" lon="11.5859537"><ele>1014.9999999999999</ele><time>2026-04-18T16:46:38.187Z</time></trkpt><trkpt lat="43.7795795" lon="11.5860415"><ele>1016.0</ele><time>2026-04-18T16:46:39.187Z</time></trkpt><trkpt lat="43.7795569" lon="11.5861259"><ele>1017.0</ele><time>2026-04-18T16:46:40.187Z</time></trkpt><trkpt lat="43.7795211" lon="11.5862007"><ele>1017.0</ele><time>2026-04-18T16:46:41.188Z</time></trkpt><trkpt lat="43.7794795" lon="11.5862744"><ele>1017.0</ele><time>2026-04-18T16:46:42.187Z</time></trkpt><trkpt lat="43.779423" lon="11.5863506"><ele>1017.0</ele><time>2026-04-18T16:46:43.188Z</time></trkpt><trkpt lat="43.7793622" lon="11.5864313"><ele>1017.0</ele><time>2026-04-18T16:46:44.188Z</time></trkpt><trkpt lat="43.7792946" lon="11.586519"><ele>1017.0</ele><time>2026-04-18T16:46:45.187Z</time></trkpt><trkpt lat="43.7792269" lon="11.5866083"><ele>1017.0</ele><time>2026-04-18T16:46:46.187Z</time></trkpt><trkpt lat="43.7791609" lon="11.5867028"><ele>1016.4000000000001</ele><time>2026-04-18T16:46:47.188Z</time></trkpt><trkpt lat="43.7791023" lon="11.5867972"><ele>1015.8000000000001</ele><time>2026-04-18T16:46:48.188Z</time></trkpt><trkpt lat="43.7790533" lon="11.5869019"><ele>1015.2</ele><time>2026-04-18T16:46:49.187Z</time></trkpt><trkpt lat="43.7790169" lon="11.5870151"><ele>1014.6</ele><time>2026-04-18T16:46:50.187Z</time></trkpt><trkpt lat="43.7789866" lon="11.5871412"><ele>1014.0</ele><time>2026-04-18T16:46:51.187Z</time></trkpt><trkpt lat="43.778962" lon="11.5872797"><ele>1014.0</ele><time>2026-04-18T16:46:52.187Z</time></trkpt><trkpt lat="43.7789419" lon="11.5874308"><ele>1014.0000000000001</ele><time>2026-04-18T16:46:53.187Z</time></trkpt><trkpt lat="43.778929" lon="11.587586"><ele>1014.0000000000001</ele><time>2026-04-18T16:46:54.186Z</time></trkpt><trkpt lat="43.7789231" lon="11.5877389"><ele>1014.0</ele><time>2026-04-18T16:46:55.187Z</time></trkpt><trkpt lat="43.7789317" lon="11.5878893"><ele>1014.0</ele><time>2026-04-18T16:46:56.188Z</time></trkpt><trkpt lat="43.77894" lon="11.5880517"><ele>1013.0</ele><time>2026-04-18T16:46:57.187Z</time></trkpt><trkpt lat="43.7789509" lon="11.5882166"><ele>1012.0</ele><time>2026-04-18T16:46:58.187Z</time></trkpt><trkpt lat="43.7789434" lon="11.5883827"><ele>1011.0</ele><time>2026-04-18T16:46:59.186Z</time></trkpt><trkpt lat="43.7789234" lon="11.5885511"><ele>1010.0</ele><time>2026-04-18T16:47:00.187Z</time></trkpt><trkpt lat="43.7788933" lon="11.588719"><ele>1008.75</ele><time>2026-04-18T16:47:01.188Z</time></trkpt><trkpt lat="43.7788506" lon="11.5888845"><ele>1007.5</ele><time>2026-04-18T16:47:02.188Z</time></trkpt><trkpt lat="43.7787994" lon="11.5890447"><ele>1006.25</ele><time>2026-04-18T16:47:03.187Z</time></trkpt><trkpt lat="43.7787379" lon="11.5891997"><ele>1005.0</ele><time>2026-04-18T16:47:04.188Z</time></trkpt><trkpt lat="43.778665" lon="11.5893389"><ele>1005.0</ele><time>2026-04-18T16:47:05.185Z</time></trkpt><trkpt lat="43.7785785" lon="11.5894576"><ele>1005.0</ele><time>2026-04-18T16:47:06.186Z</time></trkpt><trkpt lat="43.7784799" lon="11.5895653"><ele>1005.0</ele><time>2026-04-18T16:47:07.187Z</time></trkpt><trkpt lat="43.7783895" lon="11.5896878"><ele>1005.0</ele><time>2026-04-18T16:47:08.187Z</time></trkpt><trkpt lat="43.7783156" lon="11.5898387"><ele>1009.0</ele><time>2026-04-18T16:47:09.187Z</time></trkpt><trkpt lat="43.7782635" lon="11.5900109"><ele>1013.0</ele><time>2026-04-18T16:47:10.187Z</time></trkpt><trkpt lat="43.7782287" lon="11.5902102"><ele>1017.0</ele><time>2026-04-18T16:47:11.186Z</time></trkpt><trkpt lat="43.7782231" lon="11.5904238"><ele>1021.0</ele><time>2026-04-18T16:47:12.186Z</time></trkpt><trkpt lat="43.7782414" lon="11.5906472"><ele>1021.0</ele><time>2026-04-18T16:47:13.187Z</time></trkpt><trkpt lat="43.7782582" lon="11.5908683"><ele>1021.0</ele><time>2026-04-18T16:47:14.186Z</time></trkpt><trkpt lat="43.7782909" lon="11.5910658"><ele>1021.0</ele><time>2026-04-18T16:47:15.188Z</time></trkpt><trkpt lat="43.7783112" lon="11.5912701"><ele>1021.0</ele><time>2026-04-18T16:47:16.186Z</time></trkpt><trkpt lat="43.7783117" lon="11.5914659"><ele>1021.0</ele><time>2026-04-18T16:47:17.188Z</time></trkpt><trkpt lat="43.7782888" lon="11.5916596"><ele>1021.0</ele><time>2026-04-18T16:47:18.187Z</time></trkpt><trkpt lat="43.7782473" lon="11.5918455"><ele>1021.0</ele><time>2026-04-18T16:47:19.185Z</time></trkpt><trkpt lat="43.7782031" lon="11.5920254"><ele>1021.5999999999999</ele><time>2026-04-18T16:47:20.185Z</time></trkpt><trkpt lat="43.7781689" lon="11.592193"><ele>1022.1999999999999</ele><time>2026-04-18T16:47:21.188Z</time></trkpt><trkpt lat="43.7781566" lon="11.5923502"><ele>1022.8000000000001</ele><time>2026-04-18T16:47:22.187Z</time></trkpt><trkpt lat="43.7781836" lon="11.5924916"><ele>1023.4000000000001</ele><time>2026-04-18T16:47:23.188Z</time></trkpt><trkpt lat="43.7782186" lon="11.5925931"><ele>1024.0</ele><time>2026-04-18T16:47:24.187Z</time></trkpt><trkpt lat="43.7783191" lon="11.592644"><ele>1024.0</ele><time>2026-04-18T16:47:25.186Z</time></trkpt><trkpt lat="43.7784174" lon="11.5926448"><ele>1024.0</ele><time>2026-04-18T16:47:26.187Z</time></trkpt><trkpt lat="43.7785235" lon="11.5926039"><ele>1024.0</ele><time>2026-04-18T16:47:27.188Z</time></trkpt><trkpt lat="43.778635" lon="11.5925477"><ele>1024.0</ele><time>2026-04-18T16:47:28.187Z</time></trkpt><trkpt lat="43.7787501" lon="11.5924884"><ele>1023.5</ele><time>2026-04-18T16:47:29.188Z</time></trkpt><trkpt lat="43.778869" lon="11.5924363"><ele>1023.0</ele><time>2026-04-18T16:47:30.187Z</time></trkpt><trkpt lat="43.7789899" lon="11.5924092"><ele>1022.5</ele><time>2026-04-18T16:47:31.187Z</time></trkpt><trkpt lat="43.7791144" lon="11.5924101"><ele>1022.0</ele><time>2026-04-18T16:47:32.186Z</time></trkpt><trkpt lat="43.7792353" lon="11.5924371"><ele>1022.0</ele><time>2026-04-18T16:47:33.188Z</time></trkpt><trkpt lat="43.7793499" lon="11.5924912"><ele>1022.0</ele><time>2026-04-18T16:47:34.188Z</time></trkpt><trkpt lat="43.77945" lon="11.592576"><ele>1022.0</ele><time>2026-04-18T16:47:35.187Z</time></trkpt><trkpt lat="43.7795315" lon="11.5926927"><ele>1022.0</ele><time>2026-04-18T16:47:36.186Z</time></trkpt><trkpt lat="43.7795932" lon="11.5928371"><ele>1021.25</ele><time>2026-04-18T16:47:37.187Z</time></trkpt><trkpt lat="43.7796242" lon="11.5929885"><ele>1020.5</ele><time>2026-04-18T16:47:38.188Z</time></trkpt><trkpt lat="43.7796298" lon="11.5931528"><ele>1019.75</ele><time>2026-04-18T16:47:39.187Z</time></trkpt><trkpt lat="43.77962" lon="11.593324"><ele>1019.0</ele><time>2026-04-18T16:47:40.186Z</time></trkpt><trkpt lat="43.7796011" lon="11.5935032"><ele>1018.25</ele><time>2026-04-18T16:47:41.188Z</time></trkpt><trkpt lat="43.7795887" lon="11.5936877"><ele>1017.5</ele><time>2026-04-18T16:47:42.187Z</time></trkpt><trkpt lat="43.7795922" lon="11.5938804"><ele>1016.75</ele><time>2026-04-18T16:47:43.187Z</time></trkpt><trkpt lat="43.7796077" lon="11.5940743"><ele>1016.0</ele><time>2026-04-18T16:47:44.187Z</time></trkpt><trkpt lat="43.779629" lon="11.5942666"><ele>1016.0</ele><time>2026-04-18T16:47:45.187Z</time></trkpt><trkpt lat="43.7796479" lon="11.594446"><ele>1016.0</ele><time>2026-04-18T16:47:46.187Z</time></trkpt><trkpt lat="43.779665" lon="11.5946117"><ele>1016.0</ele><time>2026-04-18T16:47:47.188Z</time></trkpt><trkpt lat="43.7796843" lon="11.5947689"><ele>1016.0</ele><time>2026-04-18T16:47:48.187Z</time></trkpt><trkpt lat="43.7797164" lon="11.5949164"><ele>1016.4</ele><time>2026-04-18T16:47:49.187Z</time></trkpt><trkpt lat="43.7797642" lon="11.5950611"><ele>1016.8</ele><time>2026-04-18T16:47:50.188Z</time></trkpt><trkpt lat="43.7798249" lon="11.5951929"><ele>1017.1999999999999</ele><time>2026-04-18T16:47:51.186Z</time></trkpt><trkpt lat="43.7798985" lon="11.5953046"><ele>1017.5999999999999</ele><time>2026-04-18T16:47:52.186Z</time></trkpt><trkpt lat="43.7799751" lon="11.5954042"><ele>1018.0</ele><time>2026-04-18T16:47:53.187Z</time></trkpt><trkpt lat="43.7800565" lon="11.5954885"><ele>1017.8</ele><time>2026-04-18T16:47:54.188Z</time></trkpt><trkpt lat="43.7801347" lon="11.5955675"><ele>1017.5999999999999</ele><time>2026-04-18T16:47:55.188Z</time></trkpt><trkpt lat="43.7802102" lon="11.5956385"><ele>1017.4000000000001</ele><time>2026-04-18T16:47:56.188Z</time></trkpt><trkpt lat="43.7802884" lon="11.5957074"><ele>1017.2</ele><time>2026-04-18T16:47:57.187Z</time></trkpt><trkpt lat="43.7803724" lon="11.5957888"><ele>1017.0</ele><time>2026-04-18T16:47:58.187Z</time></trkpt><trkpt lat="43.7804636" lon="11.5958955"><ele>1017.0</ele><time>2026-04-18T16:47:59.188Z</time></trkpt><trkpt lat="43.7805646" lon="11.5960204"><ele>1017.0</ele><time>2026-04-18T16:48:00.186Z</time></trkpt><trkpt lat="43.7806711" lon="11.5961508"><ele>1017.0</ele><time>2026-04-18T16:48:01.187Z</time></trkpt><trkpt lat="43.7807781" lon="11.5962733"><ele>1017.0</ele><time>2026-04-18T16:48:02.187Z</time></trkpt><trkpt lat="43.7808816" lon="11.596377"><ele>1018.25</ele><time>2026-04-18T16:48:03.188Z</time></trkpt><trkpt lat="43.7809745" lon="11.5964839"><ele>1019.5</ele><time>2026-04-18T16:48:04.187Z</time></trkpt><trkpt lat="43.7810545" lon="11.5966031"><ele>1020.75</ele><time>2026-04-18T16:48:05.187Z</time></trkpt><trkpt lat="43.7811231" lon="11.5967452"><ele>1022.0</ele><time>2026-04-18T16:48:06.187Z</time></trkpt><trkpt lat="43.7811897" lon="11.5968828"><ele>1022.75</ele><time>2026-04-18T16:48:07.188Z</time></trkpt><trkpt lat="43.7812607" lon="11.5970161"><ele>1023.5</ele><time>2026-04-18T16:48:08.188Z</time></trkpt><trkpt lat="43.781345" lon="11.5971492"><ele>1024.25</ele><time>2026-04-18T16:48:09.187Z</time></trkpt><trkpt lat="43.7814407" lon="11.5972755"><ele>1025.0</ele><time>2026-04-18T16:48:10.187Z</time></trkpt><trkpt lat="43.7815463" lon="11.5973897"><ele>1025.0</ele><time>2026-04-18T16:48:11.187Z</time></trkpt><trkpt lat="43.7816662" lon="11.5974972"><ele>1025.0</ele><time>2026-04-18T16:48:12.187Z</time></trkpt><trkpt lat="43.781788" lon="11.5975977"><ele>1025.0</ele><time>2026-04-18T16:48:13.188Z</time></trkpt><trkpt lat="43.7819132" lon="11.5976872"><ele>1025.0</ele><time>2026-04-18T16:48:14.186Z</time></trkpt><trkpt lat="43.782042" lon="11.5977683"><ele>1028.25</ele><time>2026-04-18T16:48:15.187Z</time></trkpt><trkpt lat="43.7821728" lon="11.5978534"><ele>1031.5</ele><time>2026-04-18T16:48:16.187Z</time></trkpt><trkpt lat="43.7823012" lon="11.5979502"><ele>1034.75</ele><time>2026-04-18T16:48:17.187Z</time></trkpt><trkpt lat="43.7824228" lon="11.5980611"><ele>1038.0</ele><time>2026-04-18T16:48:18.187Z</time></trkpt><trkpt lat="43.7825277" lon="11.5981943"><ele>1038.0</ele><time>2026-04-18T16:48:19.188Z</time></trkpt><trkpt lat="43.7826154" lon="11.5983485"><ele>1038.0</ele><time>2026-04-18T16:48:20.187Z</time></trkpt><trkpt lat="43.7826908" lon="11.598517"><ele>1038.0</ele><time>2026-04-18T16:48:21.188Z</time></trkpt><trkpt lat="43.7827558" lon="11.5986896"><ele>1038.0</ele><time>2026-04-18T16:48:22.188Z</time></trkpt><trkpt lat="43.7828121" lon="11.5988656"><ele>1041.25</ele><time>2026-04-18T16:48:23.186Z</time></trkpt><trkpt lat="43.782854" lon="11.5990479"><ele>1044.5</ele><time>2026-04-18T16:48:24.188Z</time></trkpt><trkpt lat="43.7828799" lon="11.5992374"><ele>1047.75</ele><time>2026-04-18T16:48:25.186Z</time></trkpt><trkpt lat="43.7828935" lon="11.5994453"><ele>1051.0</ele><time>2026-04-18T16:48:26.186Z</time></trkpt><trkpt lat="43.782905" lon="11.5996626"><ele>1052.6666666666665</ele><time>2026-04-18T16:48:27.187Z</time></trkpt><trkpt lat="43.7829235" lon="11.5998974"><ele>1054.3333333333333</ele><time>2026-04-18T16:48:28.187Z</time></trkpt><trkpt lat="43.7829427" lon="11.6001392"><ele>1056.0</ele><time>2026-04-18T16:48:29.187Z</time></trkpt><trkpt lat="43.7829574" lon="11.6003758"><ele>1059.3333333333333</ele><time>2026-04-18T16:48:30.187Z</time></trkpt><trkpt lat="43.7829611" lon="11.6006181"><ele>1062.6666666666665</ele><time>2026-04-18T16:48:31.187Z</time></trkpt><trkpt lat="43.7829491" lon="11.6008524"><ele>1066.0</ele><time>2026-04-18T16:48:32.187Z</time></trkpt><trkpt lat="43.7829285" lon="11.6010659"><ele>1066.5</ele><time>2026-04-18T16:48:33.187Z</time></trkpt><trkpt lat="43.782909" lon="11.6012495"><ele>1067.0</ele><time>2026-04-18T16:48:34.188Z</time></trkpt><trkpt lat="43.7829024" lon="11.6014175"><ele>1067.5</ele><time>2026-04-18T16:48:35.188Z</time></trkpt><trkpt lat="43.7829205" lon="11.6015748"><ele>1068.0</ele><time>2026-04-18T16:48:36.187Z</time></trkpt><trkpt lat="43.7829654" lon="11.6017192"><ele>1068.0</ele><time>2026-04-18T16:48:37.186Z</time></trkpt><trkpt lat="43.7830271" lon="11.601852"><ele>1068.0</ele><time>2026-04-18T16:48:38.186Z</time></trkpt><trkpt lat="43.7831139" lon="11.6019682"><ele>1068.0</ele><time>2026-04-18T16:48:39.186Z</time></trkpt><trkpt lat="43.7832194" lon="11.6020548"><ele>1068.0</ele><time>2026-04-18T16:48:40.187Z</time></trkpt><trkpt lat="43.7833352" lon="11.6021156"><ele>1070.6666666666667</ele><time>2026-04-18T16:48:41.188Z</time></trkpt><trkpt lat="43.783448" lon="11.6021995"><ele>1073.3333333333335</ele><time>2026-04-18T16:48:42.188Z</time></trkpt><trkpt lat="43.7835578" lon="11.6023612"><ele>1076.0</ele><time>2026-04-18T16:48:43.185Z</time></trkpt><trkpt lat="43.7836664" lon="11.6025679"><ele>1076.0</ele><time>2026-04-18T16:48:44.187Z</time></trkpt><trkpt lat="43.7837736" lon="11.6027805"><ele>1076.0</ele><time>2026-04-18T16:48:45.186Z</time></trkpt><trkpt lat="43.7838868" lon="11.6029946"><ele>1076.0</ele><time>2026-04-18T16:48:46.188Z</time></trkpt><trkpt lat="43.7840014" lon="11.6032103"><ele>1071.3333333333335</ele><time>2026-04-18T16:48:47.186Z</time></trkpt><trkpt lat="43.7841068" lon="11.6034101"><ele>1066.6666666666667</ele><time>2026-04-18T16:48:48.188Z</time></trkpt><trkpt lat="43.7842073" lon="11.6036008"><ele>1062.0</ele><time>2026-04-18T16:48:49.187Z</time></trkpt><trkpt lat="43.7843038" lon="11.6037737"><ele>1059.6666666666667</ele><time>2026-04-18T16:48:50.186Z</time></trkpt><trkpt lat="43.7844143" lon="11.6039043"><ele>1057.3333333333335</ele><time>2026-04-18T16:48:51.187Z</time></trkpt><trkpt lat="43.7845507" lon="11.6039848"><ele>1055.0</ele><time>2026-04-18T16:48:52.186Z</time></trkpt><trkpt lat="43.784715" lon="11.6040231"><ele>1055.0</ele><time>2026-04-18T16:48:53.188Z</time></trkpt><trkpt lat="43.7848857" lon="11.6040482"><ele>1055.0</ele><time>2026-04-18T16:48:54.188Z</time></trkpt><trkpt lat="43.7850524" lon="11.6040974"><ele>1055.0</ele><time>2026-04-18T16:48:55.187Z</time></trkpt><trkpt lat="43.785204" lon="11.604161"><ele>1055.0</ele><time>2026-04-18T16:48:56.187Z</time></trkpt><trkpt lat="43.7853299" lon="11.6042299"><ele>1055.0</ele><time>2026-04-18T16:48:57.187Z</time></trkpt><trkpt lat="43.7854343" lon="11.6043227"><ele>1055.0</ele><time>2026-04-18T16:48:58.186Z</time></trkpt><trkpt lat="43.7854999" lon="11.6044457"><ele>1055.0</ele><time>2026-04-18T16:48:59.188Z</time></trkpt><trkpt lat="43.7855214" lon="11.6045969"><ele>1055.0</ele><time>2026-04-18T16:49:00.187Z</time></trkpt><trkpt lat="43.7854964" lon="11.6047681"><ele>1055.0</ele><time>2026-04-18T16:49:01.187Z</time></trkpt><trkpt lat="43.7854295" lon="11.6049458"><ele>1055.0</ele><time>2026-04-18T16:49:02.188Z</time></trkpt><trkpt lat="43.7853397" lon="11.6051433"><ele>1055.0</ele><time>2026-04-18T16:49:03.186Z</time></trkpt><trkpt lat="43.7852411" lon="11.605359"><ele>1050.6666666666667</ele><time>2026-04-18T16:49:04.188Z</time></trkpt><trkpt lat="43.785141" lon="11.6055836"><ele>1046.3333333333333</ele><time>2026-04-18T16:49:05.186Z</time></trkpt><trkpt lat="43.7850422" lon="11.6058027"><ele>1042.0</ele><time>2026-04-18T16:49:06.187Z</time></trkpt><trkpt lat="43.7849535" lon="11.6060057"><ele>1042.0</ele><time>2026-04-18T16:49:07.188Z</time></trkpt><trkpt lat="43.7848746" lon="11.6061989"><ele>1042.0</ele><time>2026-04-18T16:49:08.186Z</time></trkpt><trkpt lat="43.784819" lon="11.6063971"><ele>1042.0</ele><time>2026-04-18T16:49:09.187Z</time></trkpt><trkpt lat="43.7847871" lon="11.606616"><ele>1042.0</ele><time>2026-04-18T16:49:10.186Z</time></trkpt><trkpt lat="43.7847846" lon="11.606863"><ele>1042.0</ele><time>2026-04-18T16:49:11.187Z</time></trkpt><trkpt lat="43.7848084" lon="11.6071424"><ele>1042.0</ele><time>2026-04-18T16:49:12.186Z</time></trkpt><trkpt lat="43.7848525" lon="11.6074283"><ele>1040.0</ele><time>2026-04-18T16:49:13.187Z</time></trkpt><trkpt lat="43.7849043" lon="11.6077236"><ele>1038.0</ele><time>2026-04-18T16:49:14.188Z</time></trkpt><trkpt lat="43.7849552" lon="11.6080287"><ele>1036.0</ele><time>2026-04-18T16:49:15.188Z</time></trkpt><trkpt lat="43.7850059" lon="11.6083377"><ele>1035.0</ele><time>2026-04-18T16:49:16.188Z</time></trkpt><trkpt lat="43.7850572" lon="11.6086512"><ele>1034.0</ele><time>2026-04-18T16:49:17.187Z</time></trkpt><trkpt lat="43.7851111" lon="11.608966"><ele>1034.0</ele><time>2026-04-18T16:49:18.186Z</time></trkpt><trkpt lat="43.7851641" lon="11.6092779"><ele>1034.0</ele><time>2026-04-18T16:49:19.187Z</time></trkpt><trkpt lat="43.7852125" lon="11.6095718"><ele>1034.0</ele><time>2026-04-18T16:49:20.188Z</time></trkpt><trkpt lat="43.7852583" lon="11.6098531"><ele>1030.3333333333335</ele><time>2026-04-18T16:49:21.187Z</time></trkpt><trkpt lat="43.7853021" lon="11.6101208"><ele>1026.6666666666667</ele><time>2026-04-18T16:49:22.187Z</time></trkpt><trkpt lat="43.785352" lon="11.6103746"><ele>1023.0</ele><time>2026-04-18T16:49:23.186Z</time></trkpt><trkpt lat="43.785422" lon="11.6106174"><ele>1022.6666666666667</ele><time>2026-04-18T16:49:24.186Z</time></trkpt><trkpt lat="43.7855159" lon="11.6108451"><ele>1022.3333333333334</ele><time>2026-04-18T16:49:25.186Z</time></trkpt><trkpt lat="43.7856169" lon="11.6110552"><ele>1022.0</ele><time>2026-04-18T16:49:26.188Z</time></trkpt><trkpt lat="43.7857176" lon="11.6112561"><ele>1022.6666666666667</ele><time>2026-04-18T16:49:27.188Z</time></trkpt><trkpt lat="43.7858055" lon="11.6114581"><ele>1023.3333333333333</ele><time>2026-04-18T16:49:28.187Z</time></trkpt><trkpt lat="43.7858716" lon="11.6116761"><ele>1024.0</ele><time>2026-04-18T16:49:29.185Z</time></trkpt><trkpt lat="43.7859029" lon="11.6119113"><ele>1023.0</ele><time>2026-04-18T16:49:30.187Z</time></trkpt><trkpt lat="43.7859157" lon="11.6121551"><ele>1022.0</ele><time>2026-04-18T16:49:31.187Z</time></trkpt><trkpt lat="43.7859445" lon="11.6123831"><ele>1021.0</ele><time>2026-04-18T16:49:32.187Z</time></trkpt><trkpt lat="43.7859848" lon="11.6125786"><ele>1018.5</ele><time>2026-04-18T16:49:33.187Z</time></trkpt><trkpt lat="43.786019" lon="11.6127594"><ele>1016.0</ele><time>2026-04-18T16:49:34.187Z</time></trkpt><trkpt lat="43.7860227" lon="11.6129253"><ele>1013.5</ele><time>2026-04-18T16:49:35.187Z</time></trkpt><trkpt lat="43.7859815" lon="11.6130734"><ele>1011.0</ele><time>2026-04-18T16:49:36.186Z</time></trkpt><trkpt lat="43.785897" lon="11.613192"><ele>1011.0</ele><time>2026-04-18T16:49:37.186Z</time></trkpt><trkpt lat="43.7857773" lon="11.6132607"><ele>1011.0</ele><time>2026-04-18T16:49:38.187Z</time></trkpt><trkpt lat="43.785644" lon="11.6133036"><ele>1011.0</ele><time>2026-04-18T16:49:39.187Z</time></trkpt><trkpt lat="43.7855168" lon="11.6133494"><ele>1011.0</ele><time>2026-04-18T16:49:40.188Z</time></trkpt><trkpt lat="43.7853988" lon="11.6134126"><ele>1011.0</ele><time>2026-04-18T16:49:41.188Z</time></trkpt><trkpt lat="43.7852897" lon="11.6135064"><ele>1011.0</ele><time>2026-04-18T16:49:42.187Z</time></trkpt><trkpt lat="43.7852017" lon="11.6136413"><ele>1011.0</ele><time>2026-04-18T16:49:43.187Z</time></trkpt><trkpt lat="43.7851368" lon="11.61382"><ele>1011.0</ele><time>2026-04-18T16:49:44.187Z</time></trkpt><trkpt lat="43.7850885" lon="11.6140334"><ele>1005.6666666666667</ele><time>2026-04-18T16:49:45.187Z</time></trkpt><trkpt lat="43.7850445" lon="11.6142873"><ele>1000.3333333333334</ele><time>2026-04-18T16:49:46.186Z</time></trkpt><trkpt lat="43.7850069" lon="11.6145482"><ele>995.0</ele><time>2026-04-18T16:49:47.188Z</time></trkpt><trkpt lat="43.7849626" lon="11.6148167"><ele>994.0</ele><time>2026-04-18T16:49:48.188Z</time></trkpt><trkpt lat="43.7849097" lon="11.6150706"><ele>993.0</ele><time>2026-04-18T16:49:49.187Z</time></trkpt><trkpt lat="43.7848405" lon="11.6153128"><ele>992.0</ele><time>2026-04-18T16:49:50.187Z</time></trkpt><trkpt lat="43.7847448" lon="11.615528"><ele>992.0</ele><time>2026-04-18T16:49:51.187Z</time></trkpt><trkpt lat="43.7846259" lon="11.6157094"><ele>992.0</ele><time>2026-04-18T16:49:52.186Z</time></trkpt><trkpt lat="43.7845067" lon="11.6158789"><ele>992.0</ele><time>2026-04-18T16:49:53.187Z</time></trkpt><trkpt lat="43.7844043" lon="11.6160461"><ele>988.6666666666667</ele><time>2026-04-18T16:49:54.186Z</time></trkpt><trkpt lat="43.7843294" lon="11.6162282"><ele>985.3333333333333</ele><time>2026-04-18T16:49:55.187Z</time></trkpt><trkpt lat="43.7842857" lon="11.616434"><ele>982.0</ele><time>2026-04-18T16:49:56.187Z</time></trkpt><trkpt lat="43.7842721" lon="11.6166666"><ele>982.0</ele><time>2026-04-18T16:49:57.187Z</time></trkpt><trkpt lat="43.7842761" lon="11.6169181"><ele>982.0</ele><time>2026-04-18T16:49:58.186Z</time></trkpt><trkpt lat="43.7842929" lon="11.6171791"><ele>982.0</ele><time>2026-04-18T16:49:59.188Z</time></trkpt><trkpt lat="43.7843071" lon="11.6174458"><ele>979.6666666666666</ele><time>2026-04-18T16:50:00.188Z</time></trkpt><trkpt lat="43.7843085" lon="11.617711"><ele>977.3333333333333</ele><time>2026-04-18T16:50:01.188Z</time></trkpt><trkpt lat="43.7843027" lon="11.6179686"><ele>975.0</ele><time>2026-04-18T16:50:02.187Z</time></trkpt><trkpt lat="43.7842949" lon="11.6182177"><ele>973.0</ele><time>2026-04-18T16:50:03.187Z</time></trkpt><trkpt lat="43.7842848" lon="11.6184511"><ele>971.0</ele><time>2026-04-18T16:50:04.186Z</time></trkpt><trkpt lat="43.7842658" lon="11.6186637"><ele>969.0</ele><time>2026-04-18T16:50:05.187Z</time></trkpt><trkpt lat="43.7842454" lon="11.6188409"><ele>968.5</ele><time>2026-04-18T16:50:06.188Z</time></trkpt><trkpt lat="43.7842414" lon="11.619015"><ele>968.0</ele><time>2026-04-18T16:50:07.187Z</time></trkpt><trkpt lat="43.7842694" lon="11.6191802"><ele>967.5</ele><time>2026-04-18T16:50:08.188Z</time></trkpt><trkpt lat="43.7843296" lon="11.6193241"><ele>967.0</ele><time>2026-04-18T16:50:09.186Z</time></trkpt><trkpt lat="43.7844176" lon="11.6194451"><ele>963.0</ele><time>2026-04-18T16:50:10.186Z</time></trkpt><trkpt lat="43.7845252" lon="11.6195507"><ele>959.0</ele><time>2026-04-18T16:50:11.186Z</time></trkpt><trkpt lat="43.7846426" lon="11.6196421"><ele>955.0</ele><time>2026-04-18T16:50:12.186Z</time></trkpt><trkpt lat="43.7847619" lon="11.6197009"><ele>951.0</ele><time>2026-04-18T16:50:13.188Z</time></trkpt><trkpt lat="43.7848938" lon="11.6197154"><ele>951.0</ele><time>2026-04-18T16:50:14.187Z</time></trkpt><trkpt lat="43.7850262" lon="11.6196828"><ele>951.0</ele><time>2026-04-18T16:50:15.186Z</time></trkpt><trkpt lat="43.7851446" lon="11.6196216"><ele>951.0</ele><time>2026-04-18T16:50:16.186Z</time></trkpt><trkpt lat="43.7852652" lon="11.6195673"><ele>951.0</ele><time>2026-04-18T16:50:17.187Z</time></trkpt><trkpt lat="43.7854049" lon="11.6195548"><ele>949.6666666666667</ele><time>2026-04-18T16:50:18.187Z</time></trkpt><trkpt lat="43.7855557" lon="11.6195985"><ele>948.3333333333334</ele><time>2026-04-18T16:50:19.186Z</time></trkpt><trkpt lat="43.7857258" lon="11.6196967"><ele>947.0</ele><time>2026-04-18T16:50:20.187Z</time></trkpt><trkpt lat="43.7859165" lon="11.6198283"><ele>946.5</ele><time>2026-04-18T16:50:21.186Z</time></trkpt><trkpt lat="43.7861191" lon="11.6199783"><ele>946.0</ele><time>2026-04-18T16:50:22.188Z</time></trkpt><trkpt lat="43.7863321" lon="11.6201625"><ele>942.0</ele><time>2026-04-18T16:50:23.187Z</time></trkpt><trkpt lat="43.7865288" lon="11.6203745"><ele>938.0</ele><time>2026-04-18T16:50:24.186Z</time></trkpt><trkpt lat="43.7867134" lon="11.6206071"><ele>940.0</ele><time>2026-04-18T16:50:25.187Z</time></trkpt><trkpt lat="43.7868857" lon="11.6208416"><ele>942.0</ele><time>2026-04-18T16:50:26.186Z</time></trkpt><trkpt lat="43.78705" lon="11.6210696"><ele>940.0</ele><time>2026-04-18T16:50:27.186Z</time></trkpt><trkpt lat="43.787208" lon="11.6212906"><ele>938.0</ele><time>2026-04-18T16:50:28.185Z</time></trkpt><trkpt lat="43.7873584" lon="11.6215014"><ele>936.0</ele><time>2026-04-18T16:50:29.187Z</time></trkpt><trkpt lat="43.7874993" lon="11.6216977"><ele>936.0</ele><time>2026-04-18T16:50:30.186Z</time></trkpt><trkpt lat="43.7876334" lon="11.6218838"><ele>936.0</ele><time>2026-04-18T16:50:31.187Z</time></trkpt><trkpt lat="43.7877619" lon="11.6220664"><ele>936.0</ele><time>2026-04-18T16:50:32.186Z</time></trkpt><trkpt lat="43.7878874" lon="11.6222558"><ele>933.6666666666667</ele><time>2026-04-18T16:50:33.187Z</time></trkpt><trkpt lat="43.7880069" lon="11.6224625"><ele>931.3333333333334</ele><time>2026-04-18T16:50:34.187Z</time></trkpt><trkpt lat="43.7881104" lon="11.6226837"><ele>929.0</ele><time>2026-04-18T16:50:35.187Z</time></trkpt><trkpt lat="43.7881988" lon="11.6229172"><ele>929.0</ele><time>2026-04-18T16:50:36.186Z</time></trkpt><trkpt lat="43.7882729" lon="11.623151"><ele>929.0</ele><time>2026-04-18T16:50:37.187Z</time></trkpt><trkpt lat="43.7883326" lon="11.6233675"><ele>929.0</ele><time>2026-04-18T16:50:38.187Z</time></trkpt><trkpt lat="43.7883706" lon="11.623572"><ele>932.25</ele><time>2026-04-18T16:50:39.187Z</time></trkpt><trkpt lat="43.7883646" lon="11.6237684"><ele>935.5</ele><time>2026-04-18T16:50:40.186Z</time></trkpt><trkpt lat="43.7883174" lon="11.6239424"><ele>938.75</ele><time>2026-04-18T16:50:41.187Z</time></trkpt><trkpt lat="43.7882286" lon="11.6240777"><ele>942.0</ele><time>2026-04-18T16:50:42.188Z</time></trkpt><trkpt lat="43.788104" lon="11.6241692"><ele>942.0</ele><time>2026-04-18T16:50:43.187Z</time></trkpt><trkpt lat="43.7879564" lon="11.6242351"><ele>942.0</ele><time>2026-04-18T16:50:44.188Z</time></trkpt><trkpt lat="43.787805" lon="11.6243087"><ele>942.0</ele><time>2026-04-18T16:50:45.187Z</time></trkpt><trkpt lat="43.7876602" lon="11.6243825"><ele>941.0</ele><time>2026-04-18T16:50:46.187Z</time></trkpt><trkpt lat="43.7875301" lon="11.6244506"><ele>940.0</ele><time>2026-04-18T16:50:47.188Z</time></trkpt><trkpt lat="43.7874088" lon="11.6245163"><ele>939.0</ele><time>2026-04-18T16:50:48.186Z</time></trkpt><trkpt lat="43.7872964" lon="11.6246015"><ele>938.0</ele><time>2026-04-18T16:50:49.186Z</time></trkpt><trkpt lat="43.7871961" lon="11.6247274"><ele>941.25</ele><time>2026-04-18T16:50:50.186Z</time></trkpt><trkpt lat="43.7871109" lon="11.624876"><ele>944.5</ele><time>2026-04-18T16:50:51.186Z</time></trkpt><trkpt lat="43.7870445" lon="11.6250181"><ele>947.75</ele><time>2026-04-18T16:50:52.188Z</time></trkpt><trkpt lat="43.7869981" lon="11.6251669"><ele>951.0</ele><time>2026-04-18T16:50:53.187Z</time></trkpt><trkpt lat="43.7869833" lon="11.625341"><ele>954.6666666666667</ele><time>2026-04-18T16:50:54.187Z</time></trkpt><trkpt lat="43.7869995" lon="11.6255351"><ele>958.3333333333334</ele><time>2026-04-18T16:50:55.186Z</time></trkpt><trkpt lat="43.7870431" lon="11.6257377"><ele>962.0</ele><time>2026-04-18T16:50:56.186Z</time></trkpt><trkpt lat="43.7871223" lon="11.6259366"><ele>962.0</ele><time>2026-04-18T16:50:57.186Z</time></trkpt><trkpt lat="43.7872409" lon="11.6261412"><ele>962.0</ele><time>2026-04-18T16:50:58.187Z</time></trkpt><trkpt lat="43.787384" lon="11.6263601"><ele>962.0</ele><time>2026-04-18T16:50:59.188Z</time></trkpt><trkpt lat="43.7875323" lon="11.6265872"><ele>962.3333333333334</ele><time>2026-04-18T16:51:00.187Z</time></trkpt><trkpt lat="43.7876575" lon="11.6268268"><ele>962.6666666666667</ele><time>2026-04-18T16:51:01.187Z</time></trkpt><trkpt lat="43.7877613" lon="11.6270629"><ele>963.0</ele><time>2026-04-18T16:51:02.187Z</time></trkpt><trkpt lat="43.7878679" lon="11.6272543"><ele>968.0</ele><time>2026-04-18T16:51:03.186Z</time></trkpt><trkpt lat="43.7879678" lon="11.6274138"><ele>973.0</ele><time>2026-04-18T16:51:04.188Z</time></trkpt><trkpt lat="43.7880303" lon="11.6275647"><ele>978.0</ele><time>2026-04-18T16:51:05.188Z</time></trkpt><trkpt lat="43.7880464" lon="11.6277246"><ele>983.0</ele><time>2026-04-18T16:51:06.188Z</time></trkpt><trkpt lat="43.7880108" lon="11.6278422"><ele>982.0</ele><time>2026-04-18T16:51:07.187Z</time></trkpt><trkpt lat="43.7879279" lon="11.6279212"><ele>981.0</ele><time>2026-04-18T16:51:08.186Z</time></trkpt><trkpt lat="43.7878094" lon="11.6279726"><ele>980.0</ele><time>2026-04-18T16:51:09.188Z</time></trkpt><trkpt lat="43.7876828" lon="11.6280351"><ele>979.0</ele><time>2026-04-18T16:51:10.187Z</time></trkpt><trkpt lat="43.7875726" lon="11.6281322"><ele>979.0</ele><time>2026-04-18T16:51:11.188Z</time></trkpt><trkpt lat="43.7874801" lon="11.628257"><ele>979.0000000000001</ele><time>2026-04-18T16:51:12.188Z</time></trkpt><trkpt lat="43.7874217" lon="11.6283904"><ele>979.0000000000001</ele><time>2026-04-18T16:51:13.188Z</time></trkpt><trkpt lat="43.7874093" lon="11.6285284"><ele>979.0</ele><time>2026-04-18T16:51:14.187Z</time></trkpt><trkpt lat="43.7874406" lon="11.6286497"><ele>979.0</ele><time>2026-04-18T16:51:15.185Z</time></trkpt><trkpt lat="43.7875166" lon="11.6287597"><ele>977.5</ele><time>2026-04-18T16:51:16.186Z</time></trkpt><trkpt lat="43.787624" lon="11.6288727"><ele>976.0</ele><time>2026-04-18T16:51:17.187Z</time></trkpt><trkpt lat="43.7877166" lon="11.6289932"><ele>974.5</ele><time>2026-04-18T16:51:18.186Z</time></trkpt><trkpt lat="43.7877726" lon="11.6291401"><ele>973.0</ele><time>2026-04-18T16:51:19.187Z</time></trkpt><trkpt lat="43.7877776" lon="11.629304"><ele>973.75</ele><time>2026-04-18T16:51:20.188Z</time></trkpt><trkpt lat="43.7877323" lon="11.6294601"><ele>974.5</ele><time>2026-04-18T16:51:21.185Z</time></trkpt><trkpt lat="43.7876386" lon="11.629611"><ele>975.25</ele><time>2026-04-18T16:51:22.187Z</time></trkpt><trkpt lat="43.7875216" lon="11.629756"><ele>976.0</ele><time>2026-04-18T16:51:23.186Z</time></trkpt><trkpt lat="43.7874214" lon="11.6299074"><ele>976.0</ele><time>2026-04-18T16:51:24.188Z</time></trkpt><trkpt lat="43.7873421" lon="11.6300768"><ele>976.0</ele><time>2026-04-18T16:51:25.186Z</time></trkpt><trkpt lat="43.7872706" lon="11.6302458"><ele>976.0</ele><time>2026-04-18T16:51:26.187Z</time></trkpt><trkpt lat="43.7872546" lon="11.6304292"><ele>976.0</ele><time>2026-04-18T16:51:27.185Z</time></trkpt><trkpt lat="43.7872543" lon="11.6306016"><ele>975.25</ele><time>2026-04-18T16:51:28.186Z</time></trkpt><trkpt lat="43.7872939" lon="11.6307659"><ele>974.5</ele><time>2026-04-18T16:51:29.186Z</time></trkpt><trkpt lat="43.7873794" lon="11.6309228"><ele>973.75</ele><time>2026-04-18T16:51:30.186Z</time></trkpt><trkpt lat="43.7875049" lon="11.6310845"><ele>973.0</ele><time>2026-04-18T16:51:31.187Z</time></trkpt><trkpt lat="43.7876533" lon="11.6312304"><ele>970.0</ele><time>2026-04-18T16:51:32.187Z</time></trkpt><trkpt lat="43.787805" lon="11.6313408"><ele>967.0</ele><time>2026-04-18T16:51:33.187Z</time></trkpt><trkpt lat="43.7879518" lon="11.6314329"><ele>964.0</ele><time>2026-04-18T16:51:34.188Z</time></trkpt><trkpt lat="43.7880734" lon="11.6315618"><ele>964.0</ele><time>2026-04-18T16:51:35.187Z</time></trkpt><trkpt lat="43.7881662" lon="11.6317386"><ele>964.0</ele><time>2026-04-18T16:51:36.188Z</time></trkpt><trkpt lat="43.7882298" lon="11.6319543"><ele>964.0</ele><time>2026-04-18T16:51:37.186Z</time></trkpt><trkpt lat="43.788276" lon="11.6321972"><ele>963.0</ele><time>2026-04-18T16:51:38.186Z</time></trkpt><trkpt lat="43.7883075" lon="11.6324707"><ele>962.0</ele><time>2026-04-18T16:51:39.188Z</time></trkpt><trkpt lat="43.788337" lon="11.632751"><ele>961.0</ele><time>2026-04-18T16:51:40.185Z</time></trkpt><trkpt lat="43.7883633" lon="11.6330238"><ele>959.0</ele><time>2026-04-18T16:51:41.187Z</time></trkpt><trkpt lat="43.7883876" lon="11.6332894"><ele>957.0</ele><time>2026-04-18T16:51:42.186Z</time></trkpt><trkpt lat="43.7884117" lon="11.6335482"><ele>955.0</ele><time>2026-04-18T16:51:43.186Z</time></trkpt><trkpt lat="43.7884323" lon="11.6337933"><ele>955.0</ele><time>2026-04-18T16:51:44.188Z</time></trkpt><trkpt lat="43.7884237" lon="11.6340246"><ele>955.0</ele><time>2026-04-18T16:51:45.188Z</time></trkpt><trkpt lat="43.7883692" lon="11.6342501"><ele>955.0</ele><time>2026-04-18T16:51:46.187Z</time></trkpt><trkpt lat="43.7882756" lon="11.6344468"><ele>957.3333333333333</ele><time>2026-04-18T16:51:47.187Z</time></trkpt><trkpt lat="43.7881688" lon="11.6346151"><ele>959.6666666666667</ele><time>2026-04-18T16:51:48.185Z</time></trkpt><trkpt lat="43.7880721" lon="11.6347733"><ele>962.0</ele><time>2026-04-18T16:51:49.186Z</time></trkpt><trkpt lat="43.7879912" lon="11.6349651"><ele>962.0</ele><time>2026-04-18T16:51:50.186Z</time></trkpt><trkpt lat="43.7879286" lon="11.6351951"><ele>962.0</ele><time>2026-04-18T16:51:51.188Z</time></trkpt><trkpt lat="43.7878867" lon="11.6354234"><ele>962.0</ele><time>2026-04-18T16:51:52.187Z</time></trkpt><trkpt lat="43.7878703" lon="11.6356516"><ele>964.3333333333334</ele><time>2026-04-18T16:51:53.186Z</time></trkpt><trkpt lat="43.7878819" lon="11.6358894"><ele>966.6666666666667</ele><time>2026-04-18T16:51:54.187Z</time></trkpt><trkpt lat="43.7879091" lon="11.6361331"><ele>969.0</ele><time>2026-04-18T16:51:55.186Z</time></trkpt><trkpt lat="43.7879422" lon="11.6364039"><ele>970.0</ele><time>2026-04-18T16:51:56.187Z</time></trkpt><trkpt lat="43.7879432" lon="11.6367093"><ele>971.0</ele><time>2026-04-18T16:51:57.187Z</time></trkpt><trkpt lat="43.7879358" lon="11.6370427"><ele>968.5</ele><time>2026-04-18T16:51:58.188Z</time></trkpt><trkpt lat="43.7879363" lon="11.637385"><ele>966.0</ele><time>2026-04-18T16:51:59.187Z</time></trkpt><trkpt lat="43.7879501" lon="11.6377138"><ele>963.6666666666667</ele><time>2026-04-18T16:52:00.186Z</time></trkpt><trkpt lat="43.7879688" lon="11.6380295"><ele>961.3333333333334</ele><time>2026-04-18T16:52:01.187Z</time></trkpt><trkpt lat="43.7879702" lon="11.6383354"><ele>959.0</ele><time>2026-04-18T16:52:02.187Z</time></trkpt><trkpt lat="43.7879403" lon="11.6386316"><ele>957.6666666666667</ele><time>2026-04-18T16:52:03.186Z</time></trkpt><trkpt lat="43.7878937" lon="11.6389004"><ele>956.3333333333333</ele><time>2026-04-18T16:52:04.187Z</time></trkpt><trkpt lat="43.7878313" lon="11.6391172"><ele>955.0</ele><time>2026-04-18T16:52:05.187Z</time></trkpt><trkpt lat="43.7877311" lon="11.6392994"><ele>953.6666666666666</ele><time>2026-04-18T16:52:06.187Z</time></trkpt><trkpt lat="43.7875986" lon="11.6394181"><ele>952.3333333333333</ele><time>2026-04-18T16:52:07.187Z</time></trkpt><trkpt lat="43.7874422" lon="11.639496"><ele>951.0</ele><time>2026-04-18T16:52:08.186Z</time></trkpt><trkpt lat="43.787281" lon="11.6395524"><ele>954.5</ele><time>2026-04-18T16:52:09.186Z</time></trkpt><trkpt lat="43.7871462" lon="11.6396159"><ele>958.0</ele><time>2026-04-18T16:52:10.187Z</time></trkpt><trkpt lat="43.7870415" lon="11.6396989"><ele>961.5</ele><time>2026-04-18T16:52:11.188Z</time></trkpt><trkpt lat="43.7869695" lon="11.6398108"><ele>965.0</ele><time>2026-04-18T16:52:12.187Z</time></trkpt><trkpt lat="43.7869398" lon="11.6399522"><ele>965.0</ele><time>2026-04-18T16:52:13.186Z</time></trkpt><trkpt lat="43.786949" lon="11.6401123"><ele>965.0</ele><time>2026-04-18T16:52:14.187Z</time></trkpt><trkpt lat="43.7870263" lon="11.6402807"><ele>965.0</ele><time>2026-04-18T16:52:15.186Z</time></trkpt><trkpt lat="43.7871178" lon="11.6404633"><ele>965.0</ele><time>2026-04-18T16:52:16.186Z</time></trkpt><trkpt lat="43.7872059" lon="11.6406688"><ele>965.3333333333334</ele><time>2026-04-18T16:52:17.187Z</time></trkpt><trkpt lat="43.7872565" lon="11.6408787"><ele>965.6666666666667</ele><time>2026-04-18T16:52:18.187Z</time></trkpt><trkpt lat="43.7872625" lon="11.6410936"><ele>966.0</ele><time>2026-04-18T16:52:19.187Z</time></trkpt><trkpt lat="43.787222" lon="11.6413198"><ele>964.3333333333333</ele><time>2026-04-18T16:52:20.186Z</time></trkpt><trkpt lat="43.7871626" lon="11.6415536"><ele>962.6666666666666</ele><time>2026-04-18T16:52:21.187Z</time></trkpt><trkpt lat="43.7871089" lon="11.641793"><ele>961.0</ele><time>2026-04-18T16:52:22.187Z</time></trkpt><trkpt lat="43.7870584" lon="11.6420184"><ele>960.3333333333333</ele><time>2026-04-18T16:52:23.187Z</time></trkpt><trkpt lat="43.7870173" lon="11.6422458"><ele>959.6666666666667</ele><time>2026-04-18T16:52:24.188Z</time></trkpt><trkpt lat="43.7869915" lon="11.6424837"><ele>959.0</ele><time>2026-04-18T16:52:25.187Z</time></trkpt><trkpt lat="43.7869828" lon="11.64273"><ele>960.3333333333334</ele><time>2026-04-18T16:52:26.188Z</time></trkpt><trkpt lat="43.7869863" lon="11.6429771"><ele>961.6666666666667</ele><time>2026-04-18T16:52:27.187Z</time></trkpt><trkpt lat="43.787003" lon="11.6432147"><ele>963.0</ele><time>2026-04-18T16:52:28.187Z</time></trkpt><trkpt lat="43.7870441" lon="11.6434372"><ele>962.3333333333333</ele><time>2026-04-18T16:52:29.188Z</time></trkpt><trkpt lat="43.7871171" lon="11.6436474"><ele>961.6666666666666</ele><time>2026-04-18T16:52:30.188Z</time></trkpt><trkpt lat="43.7872011" lon="11.643851"><ele>961.0</ele><time>2026-04-18T16:52:31.186Z</time></trkpt><trkpt lat="43.7872793" lon="11.6440465"><ele>961.0</ele><time>2026-04-18T16:52:32.187Z</time></trkpt><trkpt lat="43.7873512" lon="11.6442288"><ele>961.0</ele><time>2026-04-18T16:52:33.186Z</time></trkpt><trkpt lat="43.7874166" lon="11.6444099"><ele>961.0</ele><time>2026-04-18T16:52:34.187Z</time></trkpt><trkpt lat="43.7874496" lon="11.644588"><ele>961.0</ele><time>2026-04-18T16:52:35.187Z</time></trkpt><trkpt lat="43.7874515" lon="11.6447717"><ele>961.25</ele><time>2026-04-18T16:52:36.187Z</time></trkpt><trkpt lat="43.787425" lon="11.6449575"><ele>961.5</ele><time>2026-04-18T16:52:37.187Z</time></trkpt><trkpt lat="43.7873712" lon="11.6451386"><ele>961.75</ele><time>2026-04-18T16:52:38.187Z</time></trkpt><trkpt lat="43.7873034" lon="11.6453205"><ele>962.0</ele><time>2026-04-18T16:52:39.186Z</time></trkpt><trkpt lat="43.7872322" lon="11.6455122"><ele>962.0</ele><time>2026-04-18T16:52:40.187Z</time></trkpt><trkpt lat="43.7871626" lon="11.6457103"><ele>962.0</ele><time>2026-04-18T16:52:41.187Z</time></trkpt><trkpt lat="43.7870969" lon="11.6459049"><ele>962.0</ele><time>2026-04-18T16:52:42.186Z</time></trkpt><trkpt lat="43.7870361" lon="11.646104"><ele>963.0</ele><time>2026-04-18T16:52:43.188Z</time></trkpt><trkpt lat="43.7869698" lon="11.6463173"><ele>964.0</ele><time>2026-04-18T16:52:44.186Z</time></trkpt><trkpt lat="43.7869016" lon="11.6465417"><ele>965.0</ele><time>2026-04-18T16:52:45.188Z</time></trkpt><trkpt lat="43.7868353" lon="11.6467617"><ele>959.0</ele><time>2026-04-18T16:52:46.186Z</time></trkpt><trkpt lat="43.7867715" lon="11.6469733"><ele>953.0</ele><time>2026-04-18T16:52:47.187Z</time></trkpt><trkpt lat="43.7867081" lon="11.6471742"><ele>947.0</ele><time>2026-04-18T16:52:48.186Z</time></trkpt><trkpt lat="43.7866452" lon="11.6473698"><ele>947.0</ele><time>2026-04-18T16:52:49.188Z</time></trkpt><trkpt lat="43.7865897" lon="11.6475604"><ele>947.0</ele><time>2026-04-18T16:52:50.188Z</time></trkpt><trkpt lat="43.7865525" lon="11.6477668"><ele>947.0</ele><time>2026-04-18T16:52:51.187Z</time></trkpt><trkpt lat="43.7865448" lon="11.6479909"><ele>947.3333333333334</ele><time>2026-04-18T16:52:52.187Z</time></trkpt><trkpt lat="43.7865548" lon="11.6482175"><ele>947.6666666666667</ele><time>2026-04-18T16:52:53.188Z</time></trkpt><trkpt lat="43.7865678" lon="11.6484354"><ele>948.0</ele><time>2026-04-18T16:52:54.187Z</time></trkpt><trkpt lat="43.7865775" lon="11.6486468"><ele>949.0</ele><time>2026-04-18T16:52:55.187Z</time></trkpt><trkpt lat="43.7865792" lon="11.6488564"><ele>950.0</ele><time>2026-04-18T16:52:56.187Z</time></trkpt><trkpt lat="43.7865718" lon="11.6490652"><ele>951.0</ele><time>2026-04-18T16:52:57.188Z</time></trkpt><trkpt lat="43.7865499" lon="11.6492685"><ele>952.25</ele><time>2026-04-18T16:52:58.186Z</time></trkpt><trkpt lat="43.78651" lon="11.6494626"><ele>953.5</ele><time>2026-04-18T16:52:59.186Z</time></trkpt><trkpt lat="43.7864548" lon="11.649647"><ele>954.75</ele><time>2026-04-18T16:53:00.187Z</time></trkpt><trkpt lat="43.7863829" lon="11.6498142"><ele>956.0</ele><time>2026-04-18T16:53:01.186Z</time></trkpt><trkpt lat="43.7862866" lon="11.6499595"><ele>956.0</ele><time>2026-04-18T16:53:02.187Z</time></trkpt><trkpt lat="43.7861753" lon="11.6500769"><ele>956.0</ele><time>2026-04-18T16:53:03.188Z</time></trkpt><trkpt lat="43.7860615" lon="11.6501776"><ele>956.0</ele><time>2026-04-18T16:53:04.187Z</time></trkpt><trkpt lat="43.7859433" lon="11.6502727"><ele>956.0</ele><time>2026-04-18T16:53:05.187Z</time></trkpt><trkpt lat="43.7858255" lon="11.650368"><ele>956.0</ele><time>2026-04-18T16:53:06.188Z</time></trkpt><trkpt lat="43.7857072" lon="11.6504484"><ele>956.0</ele><time>2026-04-18T16:53:07.185Z</time></trkpt><trkpt lat="43.7855847" lon="11.6504963"><ele>956.0</ele><time>2026-04-18T16:53:08.188Z</time></trkpt><trkpt lat="43.7854497" lon="11.650512"><ele>956.0</ele><time>2026-04-18T16:53:09.187Z</time></trkpt><trkpt lat="43.7853094" lon="11.6504963"><ele>955.75</ele><time>2026-04-18T16:53:10.187Z</time></trkpt><trkpt lat="43.7851676" lon="11.6504601"><ele>955.5</ele><time>2026-04-18T16:53:11.188Z</time></trkpt><trkpt lat="43.7850242" lon="11.6504025"><ele>955.25</ele><time>2026-04-18T16:53:12.188Z</time></trkpt><trkpt lat="43.7848811" lon="11.6503266"><ele>955.0</ele><time>2026-04-18T16:53:13.186Z</time></trkpt><trkpt lat="43.784711" lon="11.6502401"><ele>955.0</ele><time>2026-04-18T16:53:14.188Z</time></trkpt><trkpt lat="43.7845138" lon="11.6501486"><ele>955.0</ele><time>2026-04-18T16:53:15.187Z</time></trkpt><trkpt lat="43.7843066" lon="11.650037"><ele>955.0</ele><time>2026-04-18T16:53:16.186Z</time></trkpt><trkpt lat="43.7841295" lon="11.6499306"><ele>955.0</ele><time>2026-04-18T16:53:17.188Z</time></trkpt><trkpt lat="43.7839649" lon="11.6498325"><ele>955.0</ele><time>2026-04-18T16:53:18.187Z</time></trkpt><trkpt lat="43.7838154" lon="11.6497524"><ele>955.0</ele><time>2026-04-18T16:53:19.187Z</time></trkpt><trkpt lat="43.7836594" lon="11.6497025"><ele>956.0</ele><time>2026-04-18T16:53:20.186Z</time></trkpt><trkpt lat="43.7834842" lon="11.6496917"><ele>957.0</ele><time>2026-04-18T16:53:21.186Z</time></trkpt><trkpt lat="43.7833138" lon="11.649699"><ele>958.0</ele><time>2026-04-18T16:53:22.187Z</time></trkpt><trkpt lat="43.7831579" lon="11.649716"><ele>958.0</ele><time>2026-04-18T16:53:23.188Z</time></trkpt><trkpt lat="43.7830052" lon="11.6497402"><ele>958.0</ele><time>2026-04-18T16:53:24.188Z</time></trkpt><trkpt lat="43.7828522" lon="11.6497854"><ele>958.0</ele><time>2026-04-18T16:53:25.187Z</time></trkpt><trkpt lat="43.7826982" lon="11.6498639"><ele>962.0</ele><time>2026-04-18T16:53:26.186Z</time></trkpt><trkpt lat="43.7825347" lon="11.64999"><ele>966.0</ele><time>2026-04-18T16:53:27.186Z</time></trkpt><trkpt lat="43.7823656" lon="11.6501477"><ele>970.0</ele><time>2026-04-18T16:53:28.187Z</time></trkpt><trkpt lat="43.7821875" lon="11.6503044"><ele>970.0</ele><time>2026-04-18T16:53:29.186Z</time></trkpt><trkpt lat="43.7820095" lon="11.6504384"><ele>970.0</ele><time>2026-04-18T16:53:30.187Z</time></trkpt><trkpt lat="43.7818354" lon="11.650562"><ele>970.0</ele><time>2026-04-18T16:53:31.188Z</time></trkpt><trkpt lat="43.7816754" lon="11.6506821"><ele>966.0</ele><time>2026-04-18T16:53:32.186Z</time></trkpt><trkpt lat="43.7815373" lon="11.6508158"><ele>962.0</ele><time>2026-04-18T16:53:33.188Z</time></trkpt><trkpt lat="43.7814223" lon="11.6509644"><ele>958.0</ele><time>2026-04-18T16:53:34.187Z</time></trkpt><trkpt lat="43.781336" lon="11.65114"><ele>958.0</ele><time>2026-04-18T16:53:35.186Z</time></trkpt><trkpt lat="43.7812814" lon="11.6513567"><ele>958.0</ele><time>2026-04-18T16:53:36.187Z</time></trkpt><trkpt lat="43.7812488" lon="11.6516032"><ele>958.0</ele><time>2026-04-18T16:53:37.188Z</time></trkpt><trkpt lat="43.7812229" lon="11.6518667"><ele>957.6666666666666</ele><time>2026-04-18T16:53:38.187Z</time></trkpt><trkpt lat="43.7811985" lon="11.6521156"><ele>957.3333333333333</ele><time>2026-04-18T16:53:39.186Z</time></trkpt><trkpt lat="43.7811772" lon="11.6523522"><ele>957.0</ele><time>2026-04-18T16:53:40.188Z</time></trkpt><trkpt lat="43.7811829" lon="11.6525798"><ele>955.6666666666667</ele><time>2026-04-18T16:53:41.187Z</time></trkpt><trkpt lat="43.7812286" lon="11.6527959"><ele>954.3333333333334</ele><time>2026-04-18T16:53:42.185Z</time></trkpt><trkpt lat="43.781298" lon="11.6530031"><ele>953.0</ele><time>2026-04-18T16:53:43.187Z</time></trkpt><trkpt lat="43.7813553" lon="11.6532232"><ele>953.0</ele><time>2026-04-18T16:53:44.188Z</time></trkpt><trkpt lat="43.7813829" lon="11.6534564"><ele>953.0</ele><time>2026-04-18T16:53:45.185Z</time></trkpt><trkpt lat="43.7813965" lon="11.6536789"><ele>953.0</ele><time>2026-04-18T16:53:46.187Z</time></trkpt><trkpt lat="43.7814376" lon="11.6538934"><ele>949.0</ele><time>2026-04-18T16:53:47.187Z</time></trkpt><trkpt lat="43.7815142" lon="11.6541079"><ele>945.0</ele><time>2026-04-18T16:53:48.186Z</time></trkpt><trkpt lat="43.7816211" lon="11.6543151"><ele>941.0</ele><time>2026-04-18T16:53:49.187Z</time></trkpt><trkpt lat="43.7817603" lon="11.6545108"><ele>943.6666666666667</ele><time>2026-04-18T16:53:50.187Z</time></trkpt><trkpt lat="43.7819103" lon="11.6546984"><ele>946.3333333333333</ele><time>2026-04-18T16:53:51.187Z</time></trkpt><trkpt lat="43.7820615" lon="11.6548936"><ele>949.0</ele><time>2026-04-18T16:53:52.186Z</time></trkpt><trkpt lat="43.7821993" lon="11.6550793"><ele>949.0</ele><time>2026-04-18T16:53:53.187Z</time></trkpt><trkpt lat="43.7823134" lon="11.6552635"><ele>949.0</ele><time>2026-04-18T16:53:54.187Z</time></trkpt><trkpt lat="43.7823962" lon="11.6554653"><ele>949.0</ele><time>2026-04-18T16:53:55.186Z</time></trkpt><trkpt lat="43.7824488" lon="11.6556895"><ele>947.6666666666666</ele><time>2026-04-18T16:53:56.187Z</time></trkpt><trkpt lat="43.7824633" lon="11.6559181"><ele>946.3333333333333</ele><time>2026-04-18T16:53:57.187Z</time></trkpt><trkpt lat="43.7824413" lon="11.6561529"><ele>945.0</ele><time>2026-04-18T16:53:58.188Z</time></trkpt><trkpt lat="43.7823862" lon="11.6563785"><ele>945.0</ele><time>2026-04-18T16:53:59.188Z</time></trkpt><trkpt lat="43.782288" lon="11.6565769"><ele>945.0</ele><time>2026-04-18T16:54:00.186Z</time></trkpt><trkpt lat="43.7821487" lon="11.6567402"><ele>945.0</ele><time>2026-04-18T16:54:01.187Z</time></trkpt><trkpt lat="43.781992" lon="11.6568854"><ele>944.6666666666667</ele><time>2026-04-18T16:54:02.187Z</time></trkpt><trkpt lat="43.7818356" lon="11.657026"><ele>944.3333333333334</ele><time>2026-04-18T16:54:03.187Z</time></trkpt><trkpt lat="43.7816961" lon="11.6571634"><ele>944.0</ele><time>2026-04-18T16:54:04.187Z</time></trkpt><trkpt lat="43.7815797" lon="11.6573081"><ele>944.0</ele><time>2026-04-18T16:54:05.186Z</time></trkpt><trkpt lat="43.7814976" lon="11.6574866"><ele>944.0</ele><time>2026-04-18T16:54:06.187Z</time></trkpt><trkpt lat="43.7814452" lon="11.657696"><ele>944.0</ele><time>2026-04-18T16:54:07.187Z</time></trkpt><trkpt lat="43.7814247" lon="11.6579365"><ele>946.0</ele><time>2026-04-18T16:54:08.187Z</time></trkpt><trkpt lat="43.7814234" lon="11.6582087"><ele>948.0</ele><time>2026-04-18T16:54:09.187Z</time></trkpt><trkpt lat="43.7814308" lon="11.6585177"><ele>950.0</ele><time>2026-04-18T16:54:10.187Z</time></trkpt><trkpt lat="43.7814409" lon="11.6588575"><ele>950.0</ele><time>2026-04-18T16:54:11.188Z</time></trkpt><trkpt lat="43.7814577" lon="11.6592043"><ele>950.0</ele><time>2026-04-18T16:54:12.188Z</time></trkpt><trkpt lat="43.7814918" lon="11.6595046"><ele>948.6666666666667</ele><time>2026-04-18T16:54:13.186Z</time></trkpt><trkpt lat="43.7815374" lon="11.6597725"><ele>947.3333333333333</ele><time>2026-04-18T16:54:14.188Z</time></trkpt><trkpt lat="43.7815737" lon="11.6600189"><ele>946.0</ele><time>2026-04-18T16:54:15.186Z</time></trkpt><trkpt lat="43.7815797" lon="11.6602613"><ele>944.6666666666666</ele><time>2026-04-18T16:54:16.186Z</time></trkpt><trkpt lat="43.7815464" lon="11.660483"><ele>943.3333333333333</ele><time>2026-04-18T16:54:17.188Z</time></trkpt><trkpt lat="43.7814836" lon="11.6606797"><ele>942.0</ele><time>2026-04-18T16:54:18.187Z</time></trkpt><trkpt lat="43.7814249" lon="11.6608628"><ele>942.0</ele><time>2026-04-18T16:54:19.186Z</time></trkpt><trkpt lat="43.781391" lon="11.6610449"><ele>942.0</ele><time>2026-04-18T16:54:20.187Z</time></trkpt><trkpt lat="43.781393" lon="11.6612281"><ele>942.0</ele><time>2026-04-18T16:54:21.186Z</time></trkpt><trkpt lat="43.7814362" lon="11.6614253"><ele>942.0</ele><time>2026-04-18T16:54:22.187Z</time></trkpt><trkpt lat="43.7814964" lon="11.6616422"><ele>940.3333333333333</ele><time>2026-04-18T16:54:23.187Z</time></trkpt><trkpt lat="43.7815569" lon="11.6618789"><ele>938.6666666666666</ele><time>2026-04-18T16:54:24.187Z</time></trkpt><trkpt lat="43.7816159" lon="11.6621178"><ele>937.0</ele><time>2026-04-18T16:54:25.187Z</time></trkpt><trkpt lat="43.7816679" lon="11.6623587"><ele>934.6666666666666</ele><time>2026-04-18T16:54:26.186Z</time></trkpt><trkpt lat="43.7817092" lon="11.6625925"><ele>932.3333333333333</ele><time>2026-04-18T16:54:27.187Z</time></trkpt><trkpt lat="43.7817388" lon="11.6628284"><ele>930.0</ele><time>2026-04-18T16:54:28.187Z</time></trkpt><trkpt lat="43.7817432" lon="11.6630653"><ele>929.3333333333333</ele><time>2026-04-18T16:54:29.187Z</time></trkpt><trkpt lat="43.781722" lon="11.6633013"><ele>928.6666666666666</ele><time>2026-04-18T16:54:30.188Z</time></trkpt><trkpt lat="43.7816661" lon="11.6635402"><ele>928.0</ele><time>2026-04-18T16:54:31.186Z</time></trkpt><trkpt lat="43.7815749" lon="11.6637892"><ele>928.0</ele><time>2026-04-18T16:54:32.187Z</time></trkpt><trkpt lat="43.781465" lon="11.6640443"><ele>928.0</ele><time>2026-04-18T16:54:33.186Z</time></trkpt><trkpt lat="43.781352" lon="11.6642969"><ele>928.0</ele><time>2026-04-18T16:54:34.188Z</time></trkpt><trkpt lat="43.781242" lon="11.6645403"><ele>928.6666666666666</ele><time>2026-04-18T16:54:35.187Z</time></trkpt><trkpt lat="43.7811367" lon="11.6647783"><ele>929.3333333333333</ele><time>2026-04-18T16:54:36.188Z</time></trkpt><trkpt lat="43.7810382" lon="11.6650009"><ele>930.0</ele><time>2026-04-18T16:54:37.188Z</time></trkpt><trkpt lat="43.7809526" lon="11.6651966"><ele>920.6666666666667</ele><time>2026-04-18T16:54:38.187Z</time></trkpt><trkpt lat="43.7808781" lon="11.665398"><ele>911.3333333333334</ele><time>2026-04-18T16:54:39.186Z</time></trkpt><trkpt lat="43.7808352" lon="11.6656243"><ele>902.0</ele><time>2026-04-18T16:54:40.187Z</time></trkpt><trkpt lat="43.7808126" lon="11.665872"><ele>900.3333333333334</ele><time>2026-04-18T16:54:41.187Z</time></trkpt><trkpt lat="43.7808002" lon="11.6661234"><ele>898.6666666666667</ele><time>2026-04-18T16:54:42.187Z</time></trkpt><trkpt lat="43.7807886" lon="11.6663514"><ele>897.0</ele><time>2026-04-18T16:54:43.186Z</time></trkpt><trkpt lat="43.7807865" lon="11.6665495"><ele>897.0</ele><time>2026-04-18T16:54:44.188Z</time></trkpt><trkpt lat="43.7808127" lon="11.6667414"><ele>897.0</ele><time>2026-04-18T16:54:45.187Z</time></trkpt><trkpt lat="43.7808808" lon="11.6669305"><ele>897.0</ele><time>2026-04-18T16:54:46.187Z</time></trkpt><trkpt lat="43.7809718" lon="11.6671116"><ele>901.0</ele><time>2026-04-18T16:54:47.186Z</time></trkpt><trkpt lat="43.7810629" lon="11.6672886"><ele>905.0</ele><time>2026-04-18T16:54:48.187Z</time></trkpt><trkpt lat="43.7811453" lon="11.6674612"><ele>909.0</ele><time>2026-04-18T16:54:49.187Z</time></trkpt><trkpt lat="43.7811975" lon="11.667647"><ele>908.3333333333333</ele><time>2026-04-18T16:54:50.185Z</time></trkpt><trkpt lat="43.7812141" lon="11.667866"><ele>907.6666666666666</ele><time>2026-04-18T16:54:51.188Z</time></trkpt><trkpt lat="43.7812146" lon="11.6681"><ele>907.0</ele><time>2026-04-18T16:54:52.186Z</time></trkpt><trkpt lat="43.7812078" lon="11.6683443"><ele>907.0</ele><time>2026-04-18T16:54:53.187Z</time></trkpt><trkpt lat="43.7812046" lon="11.668579"><ele>907.0</ele><time>2026-04-18T16:54:54.186Z</time></trkpt><trkpt lat="43.7812235" lon="11.6688121"><ele>907.0</ele><time>2026-04-18T16:54:55.186Z</time></trkpt><trkpt lat="43.7812835" lon="11.6690499"><ele>904.6666666666666</ele><time>2026-04-18T16:54:56.187Z</time></trkpt><trkpt lat="43.7813571" lon="11.6692805"><ele>902.3333333333333</ele><time>2026-04-18T16:54:57.188Z</time></trkpt><trkpt lat="43.7814131" lon="11.6695193"><ele>900.0</ele><time>2026-04-18T16:54:58.186Z</time></trkpt><trkpt lat="43.7814476" lon="11.6697612"><ele>895.0</ele><time>2026-04-18T16:54:59.187Z</time></trkpt><trkpt lat="43.7814534" lon="11.6700092"><ele>890.0</ele><time>2026-04-18T16:55:00.187Z</time></trkpt><trkpt lat="43.7814258" lon="11.6702675"><ele>885.0</ele><time>2026-04-18T16:55:01.186Z</time></trkpt><trkpt lat="43.7813758" lon="11.6705291"><ele>884.0</ele><time>2026-04-18T16:55:02.186Z</time></trkpt><trkpt lat="43.7813277" lon="11.6707879"><ele>883.0</ele><time>2026-04-18T16:55:03.186Z</time></trkpt><trkpt lat="43.7812765" lon="11.6710479"><ele>882.0</ele><time>2026-04-18T16:55:04.188Z</time></trkpt><trkpt lat="43.7812017" lon="11.6713119"><ele>882.0</ele><time>2026-04-18T16:55:05.187Z</time></trkpt><trkpt lat="43.7811086" lon="11.6715791"><ele>882.0</ele><time>2026-04-18T16:55:06.188Z</time></trkpt><trkpt lat="43.7810026" lon="11.671849"><ele>882.0</ele><time>2026-04-18T16:55:07.187Z</time></trkpt><trkpt lat="43.7808898" lon="11.6721151"><ele>876.0</ele><time>2026-04-18T16:55:08.186Z</time></trkpt><trkpt lat="43.7807753" lon="11.6723654"><ele>870.0</ele><time>2026-04-18T16:55:09.187Z</time></trkpt><trkpt lat="43.7806649" lon="11.6726011"><ele>864.0</ele><time>2026-04-18T16:55:10.187Z</time></trkpt><trkpt lat="43.7805573" lon="11.6728138"><ele>864.0</ele><time>2026-04-18T16:55:11.187Z</time></trkpt><trkpt lat="43.7804469" lon="11.6729808"><ele>864.0</ele><time>2026-04-18T16:55:12.187Z</time></trkpt><trkpt lat="43.7803146" lon="11.6730998"><ele>864.0</ele><time>2026-04-18T16:55:13.186Z</time></trkpt><trkpt lat="43.7801706" lon="11.6731721"><ele>860.25</ele><time>2026-04-18T16:55:14.186Z</time></trkpt><trkpt lat="43.7800441" lon="11.6732384"><ele>856.5</ele><time>2026-04-18T16:55:15.186Z</time></trkpt><trkpt lat="43.7799447" lon="11.6733232"><ele>852.75</ele><time>2026-04-18T16:55:16.187Z</time></trkpt><trkpt lat="43.7798677" lon="11.6734517"><ele>849.0</ele><time>2026-04-18T16:55:17.188Z</time></trkpt><trkpt lat="43.77983" lon="11.6736246"><ele>848.0</ele><time>2026-04-18T16:55:18.186Z</time></trkpt><trkpt lat="43.779829" lon="11.6738305"><ele>847.0</ele><time>2026-04-18T16:55:19.186Z</time></trkpt><trkpt lat="43.779834" lon="11.6740706"><ele>846.0</ele><time>2026-04-18T16:55:20.186Z</time></trkpt><trkpt lat="43.7798051" lon="11.6743558"><ele>844.0</ele><time>2026-04-18T16:55:21.187Z</time></trkpt><trkpt lat="43.7797463" lon="11.674661"><ele>842.0</ele><time>2026-04-18T16:55:22.187Z</time></trkpt><trkpt lat="43.7796807" lon="11.674983"><ele>841.0</ele><time>2026-04-18T16:55:23.187Z</time></trkpt><trkpt lat="43.7796197" lon="11.6753466"><ele>840.0</ele><time>2026-04-18T16:55:24.187Z</time></trkpt><trkpt lat="43.7795656" lon="11.6757096"><ele>840.0</ele><time>2026-04-18T16:55:25.188Z</time></trkpt><trkpt lat="43.7795171" lon="11.6760708"><ele>840.0</ele><time>2026-04-18T16:55:26.186Z</time></trkpt><trkpt lat="43.7794639" lon="11.6764237"><ele>838.5</ele><time>2026-04-18T16:55:27.186Z</time></trkpt><trkpt lat="43.7794026" lon="11.6767616"><ele>837.0</ele><time>2026-04-18T16:55:28.186Z</time></trkpt><trkpt lat="43.7793351" lon="11.6770839"><ele>830.3333333333333</ele><time>2026-04-18T16:55:29.185Z</time></trkpt><trkpt lat="43.7792724" lon="11.6773775"><ele>823.6666666666666</ele><time>2026-04-18T16:55:30.187Z</time></trkpt><trkpt lat="43.7792166" lon="11.6776454"><ele>817.0</ele><time>2026-04-18T16:55:31.187Z</time></trkpt><trkpt lat="43.7791706" lon="11.6778774"><ele>817.0</ele><time>2026-04-18T16:55:32.187Z</time></trkpt><trkpt lat="43.7791189" lon="11.6780766"><ele>817.0</ele><time>2026-04-18T16:55:33.186Z</time></trkpt><trkpt lat="43.7790352" lon="11.678248"><ele>817.0</ele><time>2026-04-18T16:55:34.187Z</time></trkpt><trkpt lat="43.7789243" lon="11.6783759"><ele>817.0</ele><time>2026-04-18T16:55:35.186Z</time></trkpt><trkpt lat="43.7787803" lon="11.6784502"><ele>817.0</ele><time>2026-04-18T16:55:36.188Z</time></trkpt><trkpt lat="43.7786133" lon="11.6784854"><ele>817.0</ele><time>2026-04-18T16:55:37.187Z</time></trkpt><trkpt lat="43.778447" lon="11.6785135"><ele>817.0</ele><time>2026-04-18T16:55:38.188Z</time></trkpt><trkpt lat="43.7782971" lon="11.6785529"><ele>814.0</ele><time>2026-04-18T16:55:39.187Z</time></trkpt><trkpt lat="43.7781705" lon="11.678596"><ele>811.0</ele><time>2026-04-18T16:55:40.187Z</time></trkpt><trkpt lat="43.778064" lon="11.6786527"><ele>808.0</ele><time>2026-04-18T16:55:41.186Z</time></trkpt><trkpt lat="43.7779727" lon="11.6787482"><ele>805.0</ele><time>2026-04-18T16:55:42.187Z</time></trkpt><trkpt lat="43.7779002" lon="11.6788989"><ele>805.0</ele><time>2026-04-18T16:55:43.185Z</time></trkpt><trkpt lat="43.7778454" lon="11.6791084"><ele>805.0</ele><time>2026-04-18T16:55:44.187Z</time></trkpt><trkpt lat="43.7778091" lon="11.6793608"><ele>805.0</ele><time>2026-04-18T16:55:45.187Z</time></trkpt><trkpt lat="43.7777896" lon="11.6796628"><ele>803.5</ele><time>2026-04-18T16:55:46.186Z</time></trkpt><trkpt lat="43.7777955" lon="11.6799876"><ele>802.0</ele><time>2026-04-18T16:55:47.187Z</time></trkpt><trkpt lat="43.7778251" lon="11.6803015"><ele>796.0</ele><time>2026-04-18T16:55:48.185Z</time></trkpt><trkpt lat="43.7778634" lon="11.680614"><ele>790.0</ele><time>2026-04-18T16:55:49.188Z</time></trkpt><trkpt lat="43.7779059" lon="11.6809241"><ele>787.6666666666666</ele><time>2026-04-18T16:55:50.188Z</time></trkpt><trkpt lat="43.7779462" lon="11.6812132"><ele>785.3333333333333</ele><time>2026-04-18T16:55:51.187Z</time></trkpt><trkpt lat="43.7779772" lon="11.6814858"><ele>783.0</ele><time>2026-04-18T16:55:52.188Z</time></trkpt><trkpt lat="43.7780018" lon="11.6817454"><ele>783.0</ele><time>2026-04-18T16:55:53.186Z</time></trkpt><trkpt lat="43.7780046" lon="11.6819866"><ele>783.0</ele><time>2026-04-18T16:55:54.187Z</time></trkpt><trkpt lat="43.7779679" lon="11.6822309"><ele>783.0</ele><time>2026-04-18T16:55:55.187Z</time></trkpt><trkpt lat="43.7778917" lon="11.6824851"><ele>783.0</ele><time>2026-04-18T16:55:56.188Z</time></trkpt><trkpt lat="43.7777842" lon="11.6827443"><ele>783.0</ele><time>2026-04-18T16:55:57.187Z</time></trkpt><trkpt lat="43.7776618" lon="11.6829884"><ele>783.0</ele><time>2026-04-18T16:55:58.187Z</time></trkpt><trkpt lat="43.7775457" lon="11.6832167"><ele>779.3333333333333</ele><time>2026-04-18T16:55:59.186Z</time></trkpt><trkpt lat="43.7774489" lon="11.6834386"><ele>775.6666666666666</ele><time>2026-04-18T16:56:00.186Z</time></trkpt><trkpt lat="43.7773728" lon="11.6836762"><ele>772.0</ele><time>2026-04-18T16:56:01.188Z</time></trkpt><trkpt lat="43.7772916" lon="11.6839178"><ele>772.0</ele><time>2026-04-18T16:56:02.188Z</time></trkpt><trkpt lat="43.7771841" lon="11.6841227"><ele>772.0</ele><time>2026-04-18T16:56:03.187Z</time></trkpt><trkpt lat="43.77706" lon="11.6843011"><ele>772.0</ele><time>2026-04-18T16:56:04.187Z</time></trkpt><trkpt lat="43.7769442" lon="11.6844917"><ele>766.0</ele><time>2026-04-18T16:56:05.187Z</time></trkpt><trkpt lat="43.7768426" lon="11.6847236"><ele>760.0</ele><time>2026-04-18T16:56:06.186Z</time></trkpt><trkpt lat="43.7767509" lon="11.6849443"><ele>754.0</ele><time>2026-04-18T16:56:07.187Z</time></trkpt><trkpt lat="43.7766363" lon="11.6851287"><ele>755.3333333333334</ele><time>2026-04-18T16:56:08.185Z</time></trkpt><trkpt lat="43.776483" lon="11.6852663"><ele>756.6666666666666</ele><time>2026-04-18T16:56:09.186Z</time></trkpt><trkpt lat="43.7762956" lon="11.6853755"><ele>758.0</ele><time>2026-04-18T16:56:10.187Z</time></trkpt><trkpt lat="43.7761087" lon="11.6854592"><ele>753.6666666666666</ele><time>2026-04-18T16:56:11.187Z</time></trkpt><trkpt lat="43.7759261" lon="11.6855476"><ele>749.3333333333334</ele><time>2026-04-18T16:56:12.187Z</time></trkpt><trkpt lat="43.7757462" lon="11.6856683"><ele>745.0</ele><time>2026-04-18T16:56:13.187Z</time></trkpt><trkpt lat="43.7755687" lon="11.6858141"><ele>745.0</ele><time>2026-04-18T16:56:14.187Z</time></trkpt><trkpt lat="43.7754113" lon="11.6859645"><ele>745.0</ele><time>2026-04-18T16:56:15.188Z</time></trkpt><trkpt lat="43.775274" lon="11.6861013"><ele>745.0</ele><time>2026-04-18T16:56:16.186Z</time></trkpt><trkpt lat="43.7751565" lon="11.6862298"><ele>741.25</ele><time>2026-04-18T16:56:17.187Z</time></trkpt><trkpt lat="43.7750661" lon="11.686357"><ele>737.5</ele><time>2026-04-18T16:56:18.188Z</time></trkpt><trkpt lat="43.775011" lon="11.6865078"><ele>733.75</ele><time>2026-04-18T16:56:19.187Z</time></trkpt><trkpt lat="43.7750035" lon="11.6866959"><ele>730.0</ele><time>2026-04-18T16:56:20.187Z</time></trkpt><trkpt lat="43.7750269" lon="11.6868881"><ele>730.75</ele><time>2026-04-18T16:56:21.187Z</time></trkpt><trkpt lat="43.7750302" lon="11.687069"><ele>731.5</ele><time>2026-04-18T16:56:22.187Z</time></trkpt><trkpt lat="43.7749955" lon="11.6872674"><ele>732.25</ele><time>2026-04-18T16:56:23.187Z</time></trkpt><trkpt lat="43.774926" lon="11.6874419"><ele>733.0</ele><time>2026-04-18T16:56:24.187Z</time></trkpt><trkpt lat="43.7748396" lon="11.6876176"><ele>735.3333333333334</ele><time>2026-04-18T16:56:25.188Z</time></trkpt><trkpt lat="43.7747606" lon="11.6878177"><ele>737.6666666666666</ele><time>2026-04-18T16:56:26.185Z</time></trkpt><trkpt lat="43.7747023" lon="11.688028"><ele>740.0</ele><time>2026-04-18T16:56:27.186Z</time></trkpt><trkpt lat="43.7746698" lon="11.6882531"><ele>740.0</ele><time>2026-04-18T16:56:28.187Z</time></trkpt><trkpt lat="43.7746667" lon="11.6885064"><ele>740.0</ele><time>2026-04-18T16:56:29.187Z</time></trkpt><trkpt lat="43.7746806" lon="11.6887951"><ele>740.0</ele><time>2026-04-18T16:56:30.188Z</time></trkpt><trkpt lat="43.7746888" lon="11.6891152"><ele>739.0</ele><time>2026-04-18T16:56:31.188Z</time></trkpt><trkpt lat="43.7746866" lon="11.689423"><ele>738.0</ele><time>2026-04-18T16:56:32.186Z</time></trkpt><trkpt lat="43.7746869" lon="11.6897142"><ele>737.0</ele><time>2026-04-18T16:56:33.186Z</time></trkpt><trkpt lat="43.7746832" lon="11.6899929"><ele>733.0</ele><time>2026-04-18T16:56:34.187Z</time></trkpt><trkpt lat="43.7746964" lon="11.6902568"><ele>729.0</ele><time>2026-04-18T16:56:35.187Z</time></trkpt><trkpt lat="43.7747311" lon="11.6905095"><ele>725.0</ele><time>2026-04-18T16:56:36.187Z</time></trkpt><trkpt lat="43.7747743" lon="11.6907438"><ele>723.0</ele><time>2026-04-18T16:56:37.187Z</time></trkpt><trkpt lat="43.7748145" lon="11.6909668"><ele>721.0</ele><time>2026-04-18T16:56:38.186Z</time></trkpt><trkpt lat="43.7748544" lon="11.6911587"><ele>719.0</ele><time>2026-04-18T16:56:39.187Z</time></trkpt><trkpt lat="43.7748986" lon="11.6913206"><ele>717.0</ele><time>2026-04-18T16:56:40.186Z</time></trkpt><trkpt lat="43.7749639" lon="11.691453"><ele>714.5</ele><time>2026-04-18T16:56:41.186Z</time></trkpt><trkpt lat="43.7750551" lon="11.6915331"><ele>712.0</ele><time>2026-04-18T16:56:42.188Z</time></trkpt><trkpt lat="43.7751592" lon="11.6915506"><ele>709.5</ele><time>2026-04-18T16:56:43.187Z</time></trkpt><trkpt lat="43.7752813" lon="11.6914989"><ele>707.0</ele><time>2026-04-18T16:56:44.186Z</time></trkpt><trkpt lat="43.775389" lon="11.6914106"><ele>707.0</ele><time>2026-04-18T16:56:45.187Z</time></trkpt><trkpt lat="43.7754846" lon="11.6913369"><ele>707.0</ele><time>2026-04-18T16:56:46.186Z</time></trkpt><trkpt lat="43.7755798" lon="11.6913229"><ele>707.0</ele><time>2026-04-18T16:56:47.186Z</time></trkpt><trkpt lat="43.7756766" lon="11.6913686"><ele>707.0</ele><time>2026-04-18T16:56:48.187Z</time></trkpt><trkpt lat="43.7757609" lon="11.6914677"><ele>707.0</ele><time>2026-04-18T16:56:49.188Z</time></trkpt><trkpt lat="43.7758352" lon="11.6915806"><ele>707.0</ele><time>2026-04-18T16:56:50.188Z</time></trkpt><trkpt lat="43.775925" lon="11.6916993"><ele>707.0</ele><time>2026-04-18T16:56:51.186Z</time></trkpt><trkpt lat="43.7760203" lon="11.6917876"><ele>707.0</ele><time>2026-04-18T16:56:52.186Z</time></trkpt><trkpt lat="43.7761203" lon="11.6918619"><ele>707.0</ele><time>2026-04-18T16:56:53.186Z</time></trkpt><trkpt lat="43.776221" lon="11.6919366"><ele>707.2</ele><time>2026-04-18T16:56:54.186Z</time></trkpt><trkpt lat="43.7762993" lon="11.6920296"><ele>707.4000000000001</ele><time>2026-04-18T16:56:55.187Z</time></trkpt><trkpt lat="43.7763475" lon="11.6921454"><ele>707.5999999999999</ele><time>2026-04-18T16:56:56.187Z</time></trkpt><trkpt lat="43.7763647" lon="11.6922691"><ele>707.8</ele><time>2026-04-18T16:56:57.188Z</time></trkpt><trkpt lat="43.776363" lon="11.6923926"><ele>708.0</ele><time>2026-04-18T16:56:58.187Z</time></trkpt><trkpt lat="43.7763487" lon="11.692512"><ele>708.0</ele><time>2026-04-18T16:56:59.187Z</time></trkpt><trkpt lat="43.7763133" lon="11.6926373"><ele>708.0</ele><time>2026-04-18T16:57:00.186Z</time></trkpt><trkpt lat="43.7762497" lon="11.6927942"><ele>708.0</ele><time>2026-04-18T16:57:01.186Z</time></trkpt><trkpt lat="43.7761556" lon="11.6929824"><ele>708.0</ele><time>2026-04-18T16:57:02.188Z</time></trkpt><trkpt lat="43.776034" lon="11.693179"><ele>704.3333333333334</ele><time>2026-04-18T16:57:03.188Z</time></trkpt><trkpt lat="43.7759025" lon="11.6933834"><ele>700.6666666666667</ele><time>2026-04-18T16:57:04.186Z</time></trkpt><trkpt lat="43.7757915" lon="11.6935927"><ele>697.0</ele><time>2026-04-18T16:57:05.186Z</time></trkpt><trkpt lat="43.7757126" lon="11.693795"><ele>697.0</ele><time>2026-04-18T16:57:06.187Z</time></trkpt><trkpt lat="43.7756572" lon="11.6939736"><ele>697.0</ele><time>2026-04-18T16:57:07.185Z</time></trkpt><trkpt lat="43.7756202" lon="11.6941364"><ele>697.0</ele><time>2026-04-18T16:57:08.185Z</time></trkpt><trkpt lat="43.775599" lon="11.6942732"><ele>697.0</ele><time>2026-04-18T16:57:09.186Z</time></trkpt><trkpt lat="43.7755975" lon="11.6943763"><ele>697.0</ele><time>2026-04-18T16:57:10.187Z</time></trkpt><trkpt lat="43.775662" lon="11.6945103"><ele>697.0</ele><time>2026-04-18T16:57:12.187Z</time></trkpt><trkpt lat="43.7757801" lon="11.6945676"><ele>697.0</ele><time>2026-04-18T16:57:14.186Z</time></trkpt><trkpt lat="43.7758456" lon="11.694553"><ele>697.0</ele><time>2026-04-18T16:57:15.188Z</time></trkpt><trkpt lat="43.7759095" lon="11.6945185"><ele>697.0</ele><time>2026-04-18T16:57:16.188Z</time></trkpt><trkpt lat="43.7759755" lon="11.6944802"><ele>697.0</ele><time>2026-04-18T16:57:17.187Z</time></trkpt><trkpt lat="43.7760464" lon="11.6944383"><ele>697.0</ele><time>2026-04-18T16:57:18.187Z</time></trkpt><trkpt lat="43.776123" lon="11.6943987"><ele>697.0</ele><time>2026-04-18T16:57:19.186Z</time></trkpt><trkpt lat="43.7762049" lon="11.6943557"><ele>697.0</ele><time>2026-04-18T16:57:20.187Z</time></trkpt><trkpt lat="43.7762892" lon="11.6943116"><ele>697.0</ele><time>2026-04-18T16:57:21.187Z</time></trkpt><trkpt lat="43.7763719" lon="11.6942701"><ele>697.0</ele><time>2026-04-18T16:57:22.186Z</time></trkpt><trkpt lat="43.7764574" lon="11.6942227"><ele>697.0</ele><time>2026-04-18T16:57:23.187Z</time></trkpt><trkpt lat="43.7765492" lon="11.6941644"><ele>697.0</ele><time>2026-04-18T16:57:24.186Z</time></trkpt><trkpt lat="43.776653" lon="11.6940973"><ele>697.0</ele><time>2026-04-18T16:57:25.187Z</time></trkpt><trkpt lat="43.7767804" lon="11.6940169"><ele>697.0</ele><time>2026-04-18T16:57:26.187Z</time></trkpt><trkpt lat="43.7769063" lon="11.693935"><ele>697.0</ele><time>2026-04-18T16:57:27.186Z</time></trkpt><trkpt lat="43.7770379" lon="11.6938476"><ele>698.0</ele><time>2026-04-18T16:57:28.188Z</time></trkpt><trkpt lat="43.7771718" lon="11.6937604"><ele>699.0</ele><time>2026-04-18T16:57:29.188Z</time></trkpt><trkpt lat="43.7773015" lon="11.6936755"><ele>700.0</ele><time>2026-04-18T16:57:30.187Z</time></trkpt><trkpt lat="43.7774282" lon="11.6935894"><ele>701.0</ele><time>2026-04-18T16:57:31.188Z</time></trkpt><trkpt lat="43.7775535" lon="11.6935006"><ele>701.0</ele><time>2026-04-18T16:57:32.187Z</time></trkpt><trkpt lat="43.7776813" lon="11.6934084"><ele>701.0</ele><time>2026-04-18T16:57:33.187Z</time></trkpt><trkpt lat="43.77781" lon="11.6933165"><ele>701.0</ele><time>2026-04-18T16:57:34.186Z</time></trkpt><trkpt lat="43.777938" lon="11.6932282"><ele>701.0</ele><time>2026-04-18T16:57:35.188Z</time></trkpt><trkpt lat="43.7780676" lon="11.6931382"><ele>698.75</ele><time>2026-04-18T16:57:36.188Z</time></trkpt><trkpt lat="43.7781949" lon="11.6930472"><ele>696.5</ele><time>2026-04-18T16:57:37.187Z</time></trkpt><trkpt lat="43.7783113" lon="11.6929636"><ele>694.25</ele><time>2026-04-18T16:57:38.186Z</time></trkpt><trkpt lat="43.7784187" lon="11.6928823"><ele>692.0</ele><time>2026-04-18T16:57:39.186Z</time></trkpt><trkpt lat="43.778515" lon="11.6927998"><ele>690.0</ele><time>2026-04-18T16:57:40.186Z</time></trkpt><trkpt lat="43.7786045" lon="11.6926915"><ele>688.0</ele><time>2026-04-18T16:57:41.188Z</time></trkpt><trkpt lat="43.7786754" lon="11.6925554"><ele>686.0</ele><time>2026-04-18T16:57:42.188Z</time></trkpt><trkpt lat="43.7787243" lon="11.692387"><ele>684.0</ele><time>2026-04-18T16:57:43.188Z</time></trkpt><trkpt lat="43.7787435" lon="11.6922093"><ele>684.0</ele><time>2026-04-18T16:57:44.187Z</time></trkpt><trkpt lat="43.7787482" lon="11.6920425"><ele>684.0</ele><time>2026-04-18T16:57:45.187Z</time></trkpt><trkpt lat="43.7787598" lon="11.6918809"><ele>684.0</ele><time>2026-04-18T16:57:46.186Z</time></trkpt><trkpt lat="43.7788058" lon="11.6917389"><ele>684.0</ele><time>2026-04-18T16:57:47.188Z</time></trkpt><trkpt lat="43.7788878" lon="11.6916258"><ele>685.25</ele><time>2026-04-18T16:57:48.188Z</time></trkpt><trkpt lat="43.7790019" lon="11.6915541"><ele>686.5</ele><time>2026-04-18T16:57:49.187Z</time></trkpt><trkpt lat="43.7791318" lon="11.6915187"><ele>687.75</ele><time>2026-04-18T16:57:50.187Z</time></trkpt><trkpt lat="43.7792678" lon="11.6915142"><ele>689.0</ele><time>2026-04-18T16:57:51.186Z</time></trkpt><trkpt lat="43.7794141" lon="11.6915498"><ele>689.3333333333333</ele><time>2026-04-18T16:57:52.187Z</time></trkpt><trkpt lat="43.7795677" lon="11.6916342"><ele>689.6666666666666</ele><time>2026-04-18T16:57:53.187Z</time></trkpt><trkpt lat="43.7797237" lon="11.6917442"><ele>690.0</ele><time>2026-04-18T16:57:54.187Z</time></trkpt><trkpt lat="43.7798859" lon="11.6918598"><ele>689.6666666666666</ele><time>2026-04-18T16:57:55.187Z</time></trkpt><trkpt lat="43.7800482" lon="11.6919777"><ele>689.3333333333333</ele><time>2026-04-18T16:57:56.187Z</time></trkpt><trkpt lat="43.7801936" lon="11.6920965"><ele>689.0</ele><time>2026-04-18T16:57:57.187Z</time></trkpt><trkpt lat="43.7803258" lon="11.6922462"><ele>689.0</ele><time>2026-04-18T16:57:58.187Z</time></trkpt><trkpt lat="43.7804358" lon="11.6924186"><ele>689.0</ele><time>2026-04-18T16:57:59.187Z</time></trkpt><trkpt lat="43.7805327" lon="11.6926078"><ele>689.0</ele><time>2026-04-18T16:58:00.187Z</time></trkpt><trkpt lat="43.7806211" lon="11.6928025"><ele>687.0</ele><time>2026-04-18T16:58:01.186Z</time></trkpt><trkpt lat="43.7807033" lon="11.692988"><ele>685.0</ele><time>2026-04-18T16:58:02.186Z</time></trkpt><trkpt lat="43.7807833" lon="11.6931604"><ele>683.0</ele><time>2026-04-18T16:58:03.186Z</time></trkpt><trkpt lat="43.7808696" lon="11.6933092"><ele>681.0</ele><time>2026-04-18T16:58:04.186Z</time></trkpt><trkpt lat="43.7809777" lon="11.6934241"><ele>682.6666666666666</ele><time>2026-04-18T16:58:05.187Z</time></trkpt><trkpt lat="43.781112" lon="11.693502"><ele>684.3333333333333</ele><time>2026-04-18T16:58:06.187Z</time></trkpt><trkpt lat="43.7812621" lon="11.6935485"><ele>686.0</ele><time>2026-04-18T16:58:07.186Z</time></trkpt><trkpt lat="43.7814115" lon="11.6935893"><ele>684.0</ele><time>2026-04-18T16:58:08.188Z</time></trkpt><trkpt lat="43.7815586" lon="11.6936435"><ele>682.0</ele><time>2026-04-18T16:58:09.188Z</time></trkpt><trkpt lat="43.7817052" lon="11.6937343"><ele>680.0</ele><time>2026-04-18T16:58:10.187Z</time></trkpt><trkpt lat="43.7818548" lon="11.6938799"><ele>680.0</ele><time>2026-04-18T16:58:11.187Z</time></trkpt><trkpt lat="43.7819986" lon="11.6940464"><ele>680.0</ele><time>2026-04-18T16:58:12.187Z</time></trkpt><trkpt lat="43.7821352" lon="11.6942185"><ele>680.0</ele><time>2026-04-18T16:58:13.187Z</time></trkpt><trkpt lat="43.7822612" lon="11.6943748"><ele>676.75</ele><time>2026-04-18T16:58:14.186Z</time></trkpt><trkpt lat="43.7823758" lon="11.6945199"><ele>673.5</ele><time>2026-04-18T16:58:15.188Z</time></trkpt><trkpt lat="43.7824776" lon="11.6946585"><ele>670.25</ele><time>2026-04-18T16:58:16.187Z</time></trkpt><trkpt lat="43.7825793" lon="11.6948051"><ele>667.0</ele><time>2026-04-18T16:58:17.186Z</time></trkpt><trkpt lat="43.782672" lon="11.6949691"><ele>668.6666666666667</ele><time>2026-04-18T16:58:18.187Z</time></trkpt><trkpt lat="43.7827507" lon="11.6951806"><ele>670.3333333333334</ele><time>2026-04-18T16:58:19.186Z</time></trkpt><trkpt lat="43.7828174" lon="11.6954249"><ele>672.0</ele><time>2026-04-18T16:58:20.188Z</time></trkpt><trkpt lat="43.7828712" lon="11.6956866"><ele>672.0</ele><time>2026-04-18T16:58:21.188Z</time></trkpt><trkpt lat="43.7829077" lon="11.6959743"><ele>672.0</ele><time>2026-04-18T16:58:22.187Z</time></trkpt><trkpt lat="43.7829254" lon="11.6962687"><ele>672.0</ele><time>2026-04-18T16:58:23.187Z</time></trkpt><trkpt lat="43.7829358" lon="11.6965669"><ele>669.6666666666666</ele><time>2026-04-18T16:58:24.185Z</time></trkpt><trkpt lat="43.7829473" lon="11.6968553"><ele>667.3333333333333</ele><time>2026-04-18T16:58:25.186Z</time></trkpt><trkpt lat="43.7829575" lon="11.6971294"><ele>665.0</ele><time>2026-04-18T16:58:26.186Z</time></trkpt><trkpt lat="43.7829794" lon="11.6973915"><ele>663.3333333333333</ele><time>2026-04-18T16:58:27.187Z</time></trkpt><trkpt lat="43.7830363" lon="11.6976483"><ele>661.6666666666666</ele><time>2026-04-18T16:58:28.188Z</time></trkpt><trkpt lat="43.7831207" lon="11.6979032"><ele>660.0</ele><time>2026-04-18T16:58:29.187Z</time></trkpt><trkpt lat="43.7832172" lon="11.6981599"><ele>658.3333333333334</ele><time>2026-04-18T16:58:30.187Z</time></trkpt><trkpt lat="43.7833152" lon="11.6984176"><ele>656.6666666666667</ele><time>2026-04-18T16:58:31.187Z</time></trkpt><trkpt lat="43.7834135" lon="11.6986732"><ele>655.0</ele><time>2026-04-18T16:58:32.186Z</time></trkpt><trkpt lat="43.78351" lon="11.6989253"><ele>654.6666666666667</ele><time>2026-04-18T16:58:33.186Z</time></trkpt><trkpt lat="43.7835999" lon="11.6991693"><ele>654.3333333333334</ele><time>2026-04-18T16:58:34.186Z</time></trkpt><trkpt lat="43.7836873" lon="11.6994039"><ele>654.0</ele><time>2026-04-18T16:58:35.187Z</time></trkpt><trkpt lat="43.7837708" lon="11.6996206"><ele>650.0</ele><time>2026-04-18T16:58:36.188Z</time></trkpt><trkpt lat="43.7838448" lon="11.6998135"><ele>646.0</ele><time>2026-04-18T16:58:37.187Z</time></trkpt><trkpt lat="43.7839234" lon="11.6999932"><ele>642.0</ele><time>2026-04-18T16:58:38.186Z</time></trkpt><trkpt lat="43.7840253" lon="11.7001445"><ele>642.0</ele><time>2026-04-18T16:58:39.186Z</time></trkpt><trkpt lat="43.7841632" lon="11.7002516"><ele>642.0</ele><time>2026-04-18T16:58:40.186Z</time></trkpt><trkpt lat="43.7843173" lon="11.7003277"><ele>642.0</ele><time>2026-04-18T16:58:41.187Z</time></trkpt><trkpt lat="43.7844627" lon="11.7003852"><ele>642.0</ele><time>2026-04-18T16:58:42.188Z</time></trkpt><trkpt lat="43.784588" lon="11.7004324"><ele>642.0</ele><time>2026-04-18T16:58:43.186Z</time></trkpt><trkpt lat="43.7846794" lon="11.7004895"><ele>642.0</ele><time>2026-04-18T16:58:44.188Z</time></trkpt><trkpt lat="43.7847442" lon="11.7005852"><ele>642.0</ele><time>2026-04-18T16:58:45.186Z</time></trkpt><trkpt lat="43.7847662" lon="11.7007162"><ele>642.0</ele><time>2026-04-18T16:58:46.187Z</time></trkpt><trkpt lat="43.7847356" lon="11.7008715"><ele>642.0</ele><time>2026-04-18T16:58:47.186Z</time></trkpt><trkpt lat="43.7846593" lon="11.7010552"><ele>642.0</ele><time>2026-04-18T16:58:48.188Z</time></trkpt><trkpt lat="43.7845509" lon="11.7012621"><ele>642.0</ele><time>2026-04-18T16:58:49.187Z</time></trkpt><trkpt lat="43.7844183" lon="11.7015024"><ele>636.5</ele><time>2026-04-18T16:58:50.188Z</time></trkpt><trkpt lat="43.7842742" lon="11.7017639"><ele>631.0</ele><time>2026-04-18T16:58:51.187Z</time></trkpt><trkpt lat="43.7841209" lon="11.7020442"><ele>631.0</ele><time>2026-04-18T16:58:52.186Z</time></trkpt><trkpt lat="43.7839775" lon="11.7023012"><ele>631.0</ele><time>2026-04-18T16:58:53.188Z</time></trkpt><trkpt lat="43.7838447" lon="11.7025498"><ele>632.3333333333334</ele><time>2026-04-18T16:58:54.186Z</time></trkpt><trkpt lat="43.7837242" lon="11.7027761"><ele>633.6666666666666</ele><time>2026-04-18T16:58:55.187Z</time></trkpt><trkpt lat="43.7836197" lon="11.7029725"><ele>635.0</ele><time>2026-04-18T16:58:56.187Z</time></trkpt><trkpt lat="43.7835338" lon="11.7031651"><ele>630.3333333333333</ele><time>2026-04-18T16:58:57.185Z</time></trkpt><trkpt lat="43.7834809" lon="11.70337"><ele>625.6666666666666</ele><time>2026-04-18T16:58:58.187Z</time></trkpt><trkpt lat="43.7834562" lon="11.7035683"><ele>621.0</ele><time>2026-04-18T16:58:59.187Z</time></trkpt><trkpt lat="43.7834669" lon="11.7037742"><ele>624.0</ele><time>2026-04-18T16:59:00.186Z</time></trkpt><trkpt lat="43.7835195" lon="11.703984"><ele>627.0</ele><time>2026-04-18T16:59:01.188Z</time></trkpt><trkpt lat="43.7836081" lon="11.7042038"><ele>630.0</ele><time>2026-04-18T16:59:02.187Z</time></trkpt><trkpt lat="43.7837069" lon="11.7044167"><ele>630.0</ele><time>2026-04-18T16:59:03.187Z</time></trkpt><trkpt lat="43.7837906" lon="11.7046079"><ele>630.0</ele><time>2026-04-18T16:59:04.187Z</time></trkpt><trkpt lat="43.7838482" lon="11.7047924"><ele>630.0</ele><time>2026-04-18T16:59:05.186Z</time></trkpt><trkpt lat="43.7838767" lon="11.7049767"><ele>630.0</ele><time>2026-04-18T16:59:06.187Z</time></trkpt><trkpt lat="43.7838747" lon="11.7051415"><ele>627.75</ele><time>2026-04-18T16:59:07.186Z</time></trkpt><trkpt lat="43.7838476" lon="11.7052986"><ele>625.5</ele><time>2026-04-18T16:59:08.188Z</time></trkpt><trkpt lat="43.7837761" lon="11.7054586"><ele>623.25</ele><time>2026-04-18T16:59:09.186Z</time></trkpt><trkpt lat="43.7836753" lon="11.7056185"><ele>621.0</ele><time>2026-04-18T16:59:10.186Z</time></trkpt><trkpt lat="43.7835768" lon="11.7057728"><ele>617.75</ele><time>2026-04-18T16:59:11.186Z</time></trkpt><trkpt lat="43.7834863" lon="11.7059222"><ele>614.5</ele><time>2026-04-18T16:59:12.186Z</time></trkpt><trkpt lat="43.7834062" lon="11.7060684"><ele>611.25</ele><time>2026-04-18T16:59:13.187Z</time></trkpt><trkpt lat="43.7833389" lon="11.7062273"><ele>608.0</ele><time>2026-04-18T16:59:14.188Z</time></trkpt><trkpt lat="43.7832833" lon="11.7063974"><ele>607.5</ele><time>2026-04-18T16:59:15.187Z</time></trkpt><trkpt lat="43.7832422" lon="11.7065762"><ele>607.0</ele><time>2026-04-18T16:59:16.187Z</time></trkpt><trkpt lat="43.7832123" lon="11.7067549"><ele>606.5</ele><time>2026-04-18T16:59:17.187Z</time></trkpt><trkpt lat="43.783195" lon="11.706924"><ele>606.0</ele><time>2026-04-18T16:59:18.187Z</time></trkpt><trkpt lat="43.7831795" lon="11.7070884"><ele>605.25</ele><time>2026-04-18T16:59:19.186Z</time></trkpt><trkpt lat="43.7831625" lon="11.7072629"><ele>604.5</ele><time>2026-04-18T16:59:20.186Z</time></trkpt><trkpt lat="43.783143" lon="11.7074485"><ele>603.75</ele><time>2026-04-18T16:59:21.187Z</time></trkpt><trkpt lat="43.7831244" lon="11.7076344"><ele>603.0</ele><time>2026-04-18T16:59:22.188Z</time></trkpt><trkpt lat="43.7831095" lon="11.7078117"><ele>602.0</ele><time>2026-04-18T16:59:23.186Z</time></trkpt><trkpt lat="43.7831062" lon="11.7079758"><ele>601.0</ele><time>2026-04-18T16:59:24.187Z</time></trkpt><trkpt lat="43.7831116" lon="11.7081203"><ele>600.0</ele><time>2026-04-18T16:59:25.188Z</time></trkpt><trkpt lat="43.7831364" lon="11.708265"><ele>599.0</ele><time>2026-04-18T16:59:26.186Z</time></trkpt><trkpt lat="43.7831846" lon="11.7084077"><ele>598.0</ele><time>2026-04-18T16:59:27.188Z</time></trkpt><trkpt lat="43.7832577" lon="11.7085347"><ele>596.0</ele><time>2026-04-18T16:59:28.187Z</time></trkpt><trkpt lat="43.7833563" lon="11.7086408"><ele>594.0</ele><time>2026-04-18T16:59:29.188Z</time></trkpt><trkpt lat="43.7834709" lon="11.7087164"><ele>592.0</ele><time>2026-04-18T16:59:30.186Z</time></trkpt><trkpt lat="43.7836019" lon="11.7087536"><ele>590.0</ele><time>2026-04-18T16:59:31.188Z</time></trkpt><trkpt lat="43.7837489" lon="11.7087425"><ele>588.5</ele><time>2026-04-18T16:59:32.187Z</time></trkpt><trkpt lat="43.7838909" lon="11.7087014"><ele>587.0</ele><time>2026-04-18T16:59:33.186Z</time></trkpt><trkpt lat="43.784013" lon="11.7086583"><ele>585.5</ele><time>2026-04-18T16:59:34.187Z</time></trkpt><trkpt lat="43.784135" lon="11.7086214"><ele>584.0</ele><time>2026-04-18T16:59:35.187Z</time></trkpt><trkpt lat="43.7842555" lon="11.7085934"><ele>582.5</ele><time>2026-04-18T16:59:36.188Z</time></trkpt><trkpt lat="43.7843801" lon="11.7085838"><ele>581.0</ele><time>2026-04-18T16:59:37.186Z</time></trkpt><trkpt lat="43.7845066" lon="11.7086002"><ele>579.5</ele><time>2026-04-18T16:59:38.185Z</time></trkpt><trkpt lat="43.7846305" lon="11.7086289"><ele>578.0</ele><time>2026-04-18T16:59:39.187Z</time></trkpt><trkpt lat="43.7847481" lon="11.7086632"><ele>578.0</ele><time>2026-04-18T16:59:40.186Z</time></trkpt><trkpt lat="43.7848609" lon="11.7086991"><ele>578.0</ele><time>2026-04-18T16:59:41.188Z</time></trkpt><trkpt lat="43.7849731" lon="11.7087245"><ele>578.0</ele><time>2026-04-18T16:59:42.186Z</time></trkpt><trkpt lat="43.7850883" lon="11.7087267"><ele>578.0</ele><time>2026-04-18T16:59:43.187Z</time></trkpt><trkpt lat="43.7852083" lon="11.7086976"><ele>577.0</ele><time>2026-04-18T16:59:44.187Z</time></trkpt><trkpt lat="43.7853467" lon="11.7086118"><ele>576.0</ele><time>2026-04-18T16:59:45.187Z</time></trkpt><trkpt lat="43.7855031" lon="11.7084712"><ele>575.0</ele><time>2026-04-18T16:59:46.187Z</time></trkpt><trkpt lat="43.7856854" lon="11.7083075"><ele>575.0</ele><time>2026-04-18T16:59:47.187Z</time></trkpt><trkpt lat="43.7858742" lon="11.7081539"><ele>575.0</ele><time>2026-04-18T16:59:48.188Z</time></trkpt><trkpt lat="43.7860463" lon="11.7080188"><ele>575.0</ele><time>2026-04-18T16:59:49.187Z</time></trkpt><trkpt lat="43.7861998" lon="11.707906"><ele>575.6666666666666</ele><time>2026-04-18T16:59:50.188Z</time></trkpt><trkpt lat="43.7863491" lon="11.7077972"><ele>576.3333333333334</ele><time>2026-04-18T16:59:51.186Z</time></trkpt><trkpt lat="43.7865024" lon="11.7077276"><ele>577.0</ele><time>2026-04-18T16:59:52.186Z</time></trkpt><trkpt lat="43.7866742" lon="11.7076935"><ele>573.6666666666667</ele><time>2026-04-18T16:59:53.188Z</time></trkpt><trkpt lat="43.7868541" lon="11.70768"><ele>570.3333333333334</ele><time>2026-04-18T16:59:54.188Z</time></trkpt><trkpt lat="43.7870241" lon="11.7076618"><ele>567.0</ele><time>2026-04-18T16:59:55.187Z</time></trkpt><trkpt lat="43.7871856" lon="11.7076307"><ele>567.0</ele><time>2026-04-18T16:59:56.187Z</time></trkpt><trkpt lat="43.7873326" lon="11.7075815"><ele>567.0</ele><time>2026-04-18T16:59:57.186Z</time></trkpt><trkpt lat="43.7874654" lon="11.7075092"><ele>567.0</ele><time>2026-04-18T16:59:58.186Z</time></trkpt><trkpt lat="43.7875895" lon="11.7074298"><ele>567.0</ele><time>2026-04-18T16:59:59.187Z</time></trkpt><trkpt lat="43.7877118" lon="11.7073527"><ele>564.5</ele><time>2026-04-18T17:00:00.188Z</time></trkpt><trkpt lat="43.7878398" lon="11.7072716"><ele>562.0</ele><time>2026-04-18T17:00:01.187Z</time></trkpt><trkpt lat="43.7879777" lon="11.707186"><ele>559.5</ele><time>2026-04-18T17:00:02.187Z</time></trkpt><trkpt lat="43.7881226" lon="11.7071072"><ele>557.0</ele><time>2026-04-18T17:00:03.187Z</time></trkpt><trkpt lat="43.7882767" lon="11.707046"><ele>557.0</ele><time>2026-04-18T17:00:04.187Z</time></trkpt><trkpt lat="43.7884404" lon="11.707006"><ele>557.0</ele><time>2026-04-18T17:00:05.187Z</time></trkpt><trkpt lat="43.7886016" lon="11.7069791"><ele>557.0</ele><time>2026-04-18T17:00:06.188Z</time></trkpt><trkpt lat="43.7887609" lon="11.7069568"><ele>557.0</ele><time>2026-04-18T17:00:07.188Z</time></trkpt><trkpt lat="43.7889176" lon="11.7069373"><ele>557.0</ele><time>2026-04-18T17:00:08.188Z</time></trkpt><trkpt lat="43.7890704" lon="11.706921"><ele>557.0</ele><time>2026-04-18T17:00:09.188Z</time></trkpt><trkpt lat="43.7892224" lon="11.7069036"><ele>555.3333333333333</ele><time>2026-04-18T17:00:10.186Z</time></trkpt><trkpt lat="43.7893793" lon="11.7068855"><ele>553.6666666666666</ele><time>2026-04-18T17:00:11.186Z</time></trkpt><trkpt lat="43.7895459" lon="11.7068809"><ele>552.0</ele><time>2026-04-18T17:00:12.186Z</time></trkpt><trkpt lat="43.7897231" lon="11.7068989"><ele>548.6666666666666</ele><time>2026-04-18T17:00:13.187Z</time></trkpt><trkpt lat="43.7899013" lon="11.7069364"><ele>545.3333333333333</ele><time>2026-04-18T17:00:14.187Z</time></trkpt><trkpt lat="43.7900758" lon="11.706984"><ele>542.0</ele><time>2026-04-18T17:00:15.188Z</time></trkpt><trkpt lat="43.7902558" lon="11.707041"><ele>542.0</ele><time>2026-04-18T17:00:16.187Z</time></trkpt><trkpt lat="43.7904351" lon="11.7070989"><ele>542.0</ele><time>2026-04-18T17:00:17.186Z</time></trkpt><trkpt lat="43.7906093" lon="11.7071607"><ele>542.0</ele><time>2026-04-18T17:00:18.186Z</time></trkpt><trkpt lat="43.7907746" lon="11.7072223"><ele>542.0</ele><time>2026-04-18T17:00:19.185Z</time></trkpt><trkpt lat="43.7909337" lon="11.70728"><ele>542.0</ele><time>2026-04-18T17:00:20.188Z</time></trkpt><trkpt lat="43.7910939" lon="11.7073374"><ele>542.0</ele><time>2026-04-18T17:00:21.188Z</time></trkpt><trkpt lat="43.7912537" lon="11.7073957"><ele>542.6666666666666</ele><time>2026-04-18T17:00:22.187Z</time></trkpt><trkpt lat="43.7914202" lon="11.7074563"><ele>543.3333333333334</ele><time>2026-04-18T17:00:23.187Z</time></trkpt><trkpt lat="43.7915887" lon="11.7075191"><ele>544.0</ele><time>2026-04-18T17:00:24.186Z</time></trkpt><trkpt lat="43.7917599" lon="11.7075825"><ele>542.6666666666667</ele><time>2026-04-18T17:00:25.187Z</time></trkpt><trkpt lat="43.7919294" lon="11.7076427"><ele>541.3333333333334</ele><time>2026-04-18T17:00:26.187Z</time></trkpt><trkpt lat="43.7920888" lon="11.7077"><ele>540.0</ele><time>2026-04-18T17:00:27.187Z</time></trkpt><trkpt lat="43.7922327" lon="11.7077551"><ele>536.5</ele><time>2026-04-18T17:00:28.188Z</time></trkpt><trkpt lat="43.7923663" lon="11.7078058"><ele>533.0</ele><time>2026-04-18T17:00:29.187Z</time></trkpt><trkpt lat="43.7924888" lon="11.7078482"><ele>529.5</ele><time>2026-04-18T17:00:30.186Z</time></trkpt><trkpt lat="43.7926093" lon="11.7078577"><ele>526.0</ele><time>2026-04-18T17:00:31.187Z</time></trkpt><trkpt lat="43.7927205" lon="11.7078214"><ele>523.0</ele><time>2026-04-18T17:00:32.187Z</time></trkpt><trkpt lat="43.7928224" lon="11.7077413"><ele>520.0</ele><time>2026-04-18T17:00:33.186Z</time></trkpt><trkpt lat="43.7929019" lon="11.7076196"><ele>517.0</ele><time>2026-04-18T17:00:34.186Z</time></trkpt><trkpt lat="43.7929566" lon="11.7074877"><ele>514.0</ele><time>2026-04-18T17:00:35.187Z</time></trkpt><trkpt lat="43.7929842" lon="11.7073351"><ele>514.0</ele><time>2026-04-18T17:00:36.186Z</time></trkpt><trkpt lat="43.7929814" lon="11.7071505"><ele>514.0</ele><time>2026-04-18T17:00:37.186Z</time></trkpt><trkpt lat="43.7929571" lon="11.7069449"><ele>514.0</ele><time>2026-04-18T17:00:38.186Z</time></trkpt><trkpt lat="43.7929253" lon="11.7067314"><ele>514.0</ele><time>2026-04-18T17:00:39.185Z</time></trkpt><trkpt lat="43.792894" lon="11.7065162"><ele>514.75</ele><time>2026-04-18T17:00:40.187Z</time></trkpt><trkpt lat="43.7928709" lon="11.7063203"><ele>515.5</ele><time>2026-04-18T17:00:41.187Z</time></trkpt><trkpt lat="43.7928619" lon="11.7061414"><ele>516.25</ele><time>2026-04-18T17:00:42.186Z</time></trkpt><trkpt lat="43.7928826" lon="11.7059706"><ele>517.0</ele><time>2026-04-18T17:00:43.186Z</time></trkpt><trkpt lat="43.7929343" lon="11.7058165"><ele>518.0</ele><time>2026-04-18T17:00:44.186Z</time></trkpt><trkpt lat="43.7930197" lon="11.7056986"><ele>519.0</ele><time>2026-04-18T17:00:45.188Z</time></trkpt><trkpt lat="43.7931212" lon="11.7056317"><ele>520.0</ele><time>2026-04-18T17:00:46.186Z</time></trkpt><trkpt lat="43.7932392" lon="11.7056078"><ele>521.0</ele><time>2026-04-18T17:00:47.186Z</time></trkpt><trkpt lat="43.793365" lon="11.7056189"><ele>521.0</ele><time>2026-04-18T17:00:48.188Z</time></trkpt><trkpt lat="43.7935042" lon="11.7056545"><ele>521.0</ele><time>2026-04-18T17:00:49.185Z</time></trkpt><trkpt lat="43.7936544" lon="11.7057013"><ele>521.0</ele><time>2026-04-18T17:00:50.186Z</time></trkpt><trkpt lat="43.7938106" lon="11.7057508"><ele>519.3333333333333</ele><time>2026-04-18T17:00:51.185Z</time></trkpt><trkpt lat="43.7939691" lon="11.7057985"><ele>517.6666666666666</ele><time>2026-04-18T17:00:52.187Z</time></trkpt><trkpt lat="43.7941308" lon="11.7058466"><ele>516.0</ele><time>2026-04-18T17:00:53.187Z</time></trkpt><trkpt lat="43.7942838" lon="11.7058943"><ele>514.5</ele><time>2026-04-18T17:00:54.188Z</time></trkpt><trkpt lat="43.7944293" lon="11.7059416"><ele>513.0</ele><time>2026-04-18T17:00:55.187Z</time></trkpt><trkpt lat="43.7945609" lon="11.7059806"><ele>511.5</ele><time>2026-04-18T17:00:56.186Z</time></trkpt><trkpt lat="43.7946849" lon="11.7060021"><ele>510.0</ele><time>2026-04-18T17:00:57.187Z</time></trkpt><trkpt lat="43.7948099" lon="11.7059791"><ele>510.0</ele><time>2026-04-18T17:00:58.186Z</time></trkpt><trkpt lat="43.7949308" lon="11.7059014"><ele>510.0</ele><time>2026-04-18T17:00:59.187Z</time></trkpt><trkpt lat="43.7950289" lon="11.7057836"><ele>510.0</ele><time>2026-04-18T17:01:00.187Z</time></trkpt><trkpt lat="43.7951065" lon="11.7056262"><ele>510.0</ele><time>2026-04-18T17:01:01.187Z</time></trkpt><trkpt lat="43.7951621" lon="11.7054377"><ele>503.33333333333337</ele><time>2026-04-18T17:01:02.187Z</time></trkpt><trkpt lat="43.7951924" lon="11.7052169"><ele>496.6666666666667</ele><time>2026-04-18T17:01:03.185Z</time></trkpt><trkpt lat="43.7952002" lon="11.7049825"><ele>490.0</ele><time>2026-04-18T17:01:04.187Z</time></trkpt><trkpt lat="43.7951948" lon="11.7047365"><ele>490.0</ele><time>2026-04-18T17:01:05.185Z</time></trkpt><trkpt lat="43.7951878" lon="11.7045033"><ele>490.0</ele><time>2026-04-18T17:01:06.186Z</time></trkpt><trkpt lat="43.7951809" lon="11.7042831"><ele>490.0</ele><time>2026-04-18T17:01:07.185Z</time></trkpt><trkpt lat="43.7951792" lon="11.70409"><ele>491.25</ele><time>2026-04-18T17:01:08.186Z</time></trkpt><trkpt lat="43.795188" lon="11.7039289"><ele>492.5</ele><time>2026-04-18T17:01:09.186Z</time></trkpt><trkpt lat="43.7952216" lon="11.7037848"><ele>493.75</ele><time>2026-04-18T17:01:10.187Z</time></trkpt><trkpt lat="43.7952907" lon="11.7036614"><ele>495.0</ele><time>2026-04-18T17:01:11.186Z</time></trkpt><trkpt lat="43.795389" lon="11.703569"><ele>495.0</ele><time>2026-04-18T17:01:12.186Z</time></trkpt><trkpt lat="43.7955051" lon="11.7035272"><ele>495.0</ele><time>2026-04-18T17:01:13.187Z</time></trkpt><trkpt lat="43.7956306" lon="11.7035456"><ele>495.0</ele><time>2026-04-18T17:01:14.188Z</time></trkpt><trkpt lat="43.7957657" lon="11.703611"><ele>495.0</ele><time>2026-04-18T17:01:15.185Z</time></trkpt><trkpt lat="43.7959104" lon="11.7036959"><ele>493.33333333333337</ele><time>2026-04-18T17:01:16.187Z</time></trkpt><trkpt lat="43.7960581" lon="11.7037839"><ele>491.6666666666667</ele><time>2026-04-18T17:01:17.186Z</time></trkpt><trkpt lat="43.7962065" lon="11.7038618"><ele>490.0</ele><time>2026-04-18T17:01:18.188Z</time></trkpt><trkpt lat="43.7963646" lon="11.7039164"><ele>490.0</ele><time>2026-04-18T17:01:19.187Z</time></trkpt><trkpt lat="43.7965222" lon="11.7039408"><ele>490.0</ele><time>2026-04-18T17:01:20.187Z</time></trkpt><trkpt lat="43.7966746" lon="11.7039452"><ele>490.0</ele><time>2026-04-18T17:01:21.188Z</time></trkpt><trkpt lat="43.7968192" lon="11.7039496"><ele>488.75</ele><time>2026-04-18T17:01:22.186Z</time></trkpt><trkpt lat="43.7969558" lon="11.7039516"><ele>487.5</ele><time>2026-04-18T17:01:23.186Z</time></trkpt><trkpt lat="43.7970849" lon="11.7039496"><ele>486.25</ele><time>2026-04-18T17:01:24.186Z</time></trkpt><trkpt lat="43.797211" lon="11.7039376"><ele>485.0</ele><time>2026-04-18T17:01:25.186Z</time></trkpt><trkpt lat="43.7973325" lon="11.7039081"><ele>485.0</ele><time>2026-04-18T17:01:26.186Z</time></trkpt><trkpt lat="43.7974491" lon="11.7038634"><ele>485.0</ele><time>2026-04-18T17:01:27.188Z</time></trkpt><trkpt lat="43.7975637" lon="11.7038115"><ele>485.0</ele><time>2026-04-18T17:01:28.188Z</time></trkpt><trkpt lat="43.797683" lon="11.7037506"><ele>485.0</ele><time>2026-04-18T17:01:29.187Z</time></trkpt><trkpt lat="43.7978098" lon="11.7036828"><ele>485.25</ele><time>2026-04-18T17:01:30.187Z</time></trkpt><trkpt lat="43.7979404" lon="11.7036034"><ele>485.5</ele><time>2026-04-18T17:01:31.187Z</time></trkpt><trkpt lat="43.7980735" lon="11.7035078"><ele>485.75</ele><time>2026-04-18T17:01:32.187Z</time></trkpt><trkpt lat="43.7982086" lon="11.7034054"><ele>486.0</ele><time>2026-04-18T17:01:33.186Z</time></trkpt><trkpt lat="43.7983463" lon="11.7033072"><ele>486.0</ele><time>2026-04-18T17:01:34.188Z</time></trkpt><trkpt lat="43.7984863" lon="11.7032158"><ele>486.0</ele><time>2026-04-18T17:01:35.188Z</time></trkpt><trkpt lat="43.7986249" lon="11.7031297"><ele>486.0</ele><time>2026-04-18T17:01:36.187Z</time></trkpt><trkpt lat="43.7987578" lon="11.7030423"><ele>484.0</ele><time>2026-04-18T17:01:37.187Z</time></trkpt><trkpt lat="43.7988888" lon="11.7029571"><ele>482.0</ele><time>2026-04-18T17:01:38.187Z</time></trkpt><trkpt lat="43.7990177" lon="11.7028769"><ele>480.0</ele><time>2026-04-18T17:01:39.185Z</time></trkpt><trkpt lat="43.7991396" lon="11.7027994"><ele>478.0</ele><time>2026-04-18T17:01:40.187Z</time></trkpt><trkpt lat="43.7992578" lon="11.7027284"><ele>480.25</ele><time>2026-04-18T17:01:41.187Z</time></trkpt><trkpt lat="43.7993668" lon="11.7026548"><ele>482.5</ele><time>2026-04-18T17:01:42.188Z</time></trkpt><trkpt lat="43.799472" lon="11.7025903"><ele>484.75</ele><time>2026-04-18T17:01:43.187Z</time></trkpt><trkpt lat="43.7995848" lon="11.7025546"><ele>487.0</ele><time>2026-04-18T17:01:44.188Z</time></trkpt><trkpt lat="43.7996923" lon="11.7025765"><ele>487.0</ele><time>2026-04-18T17:01:45.186Z</time></trkpt><trkpt lat="43.7997806" lon="11.702653"><ele>487.00000000000006</ele><time>2026-04-18T17:01:46.186Z</time></trkpt><trkpt lat="43.7998284" lon="11.7027724"><ele>487.00000000000006</ele><time>2026-04-18T17:01:47.187Z</time></trkpt><trkpt lat="43.7998276" lon="11.702905"><ele>487.0</ele><time>2026-04-18T17:01:48.187Z</time></trkpt><trkpt lat="43.7997829" lon="11.7030343"><ele>487.0</ele><time>2026-04-18T17:01:49.188Z</time></trkpt><trkpt lat="43.7996895" lon="11.7031518"><ele>484.0</ele><time>2026-04-18T17:01:50.187Z</time></trkpt><trkpt lat="43.7995565" lon="11.7032706"><ele>481.0</ele><time>2026-04-18T17:01:51.186Z</time></trkpt><trkpt lat="43.7994136" lon="11.703394"><ele>478.0</ele><time>2026-04-18T17:01:52.188Z</time></trkpt><trkpt lat="43.7992639" lon="11.7035261"><ele>473.6666666666667</ele><time>2026-04-18T17:01:53.186Z</time></trkpt><trkpt lat="43.7990987" lon="11.7036731"><ele>469.33333333333337</ele><time>2026-04-18T17:01:54.187Z</time></trkpt><trkpt lat="43.7989395" lon="11.7038119"><ele>465.0</ele><time>2026-04-18T17:01:55.186Z</time></trkpt><trkpt lat="43.7987855" lon="11.7039441"><ele>465.0</ele><time>2026-04-18T17:01:56.187Z</time></trkpt><trkpt lat="43.7986374" lon="11.7040703"><ele>465.0</ele><time>2026-04-18T17:01:57.187Z</time></trkpt><trkpt lat="43.7984955" lon="11.704193"><ele>465.0</ele><time>2026-04-18T17:01:58.186Z</time></trkpt><trkpt lat="43.7983585" lon="11.7043081"><ele>464.75</ele><time>2026-04-18T17:01:59.188Z</time></trkpt><trkpt lat="43.7982372" lon="11.70441"><ele>464.5</ele><time>2026-04-18T17:02:00.186Z</time></trkpt><trkpt lat="43.7981379" lon="11.7045116"><ele>464.25</ele><time>2026-04-18T17:02:01.186Z</time></trkpt><trkpt lat="43.798059" lon="11.7046365"><ele>464.0</ele><time>2026-04-18T17:02:02.187Z</time></trkpt><trkpt lat="43.7980149" lon="11.7047773"><ele>464.0</ele><time>2026-04-18T17:02:03.187Z</time></trkpt><trkpt lat="43.7980071" lon="11.7049218"><ele>464.0</ele><time>2026-04-18T17:02:04.185Z</time></trkpt><trkpt lat="43.7980341" lon="11.7050565"><ele>464.0</ele><time>2026-04-18T17:02:05.187Z</time></trkpt><trkpt lat="43.7980954" lon="11.7051623"><ele>464.0</ele><time>2026-04-18T17:02:06.188Z</time></trkpt><trkpt lat="43.7981798" lon="11.7052348"><ele>464.0</ele><time>2026-04-18T17:02:07.186Z</time></trkpt><trkpt lat="43.7982871" lon="11.7052753"><ele>461.0</ele><time>2026-04-18T17:02:08.187Z</time></trkpt><trkpt lat="43.7984143" lon="11.7052731"><ele>458.0</ele><time>2026-04-18T17:02:09.187Z</time></trkpt><trkpt lat="43.7985651" lon="11.7052374"><ele>455.0</ele><time>2026-04-18T17:02:10.186Z</time></trkpt><trkpt lat="43.7987157" lon="11.7051947"><ele>452.0</ele><time>2026-04-18T17:02:11.187Z</time></trkpt><trkpt lat="43.7988588" lon="11.7051558"><ele>452.0</ele><time>2026-04-18T17:02:12.186Z</time></trkpt><trkpt lat="43.7989974" lon="11.7051214"><ele>452.0</ele><time>2026-04-18T17:02:13.186Z</time></trkpt><trkpt lat="43.7991291" lon="11.7050898"><ele>452.0</ele><time>2026-04-18T17:02:14.188Z</time></trkpt><trkpt lat="43.7992617" lon="11.7050582"><ele>452.0</ele><time>2026-04-18T17:02:15.187Z</time></trkpt><trkpt lat="43.7993958" lon="11.705026"><ele>451.0</ele><time>2026-04-18T17:02:16.188Z</time></trkpt><trkpt lat="43.7995309" lon="11.7049943"><ele>450.0</ele><time>2026-04-18T17:02:17.187Z</time></trkpt><trkpt lat="43.7996678" lon="11.7049681"><ele>449.0</ele><time>2026-04-18T17:02:18.186Z</time></trkpt><trkpt lat="43.799804" lon="11.7049468"><ele>448.0</ele><time>2026-04-18T17:02:19.186Z</time></trkpt><trkpt lat="43.7999286" lon="11.7049287"><ele>448.0</ele><time>2026-04-18T17:02:20.185Z</time></trkpt><trkpt lat="43.8000452" lon="11.7049136"><ele>447.99999999999994</ele><time>2026-04-18T17:02:21.187Z</time></trkpt><trkpt lat="43.8001542" lon="11.7049043"><ele>447.99999999999994</ele><time>2026-04-18T17:02:22.187Z</time></trkpt><trkpt lat="43.8002522" lon="11.704904"><ele>448.0</ele><time>2026-04-18T17:02:23.188Z</time></trkpt><trkpt lat="43.8003391" lon="11.7049186"><ele>448.0</ele><time>2026-04-18T17:02:24.188Z</time></trkpt><trkpt lat="43.8004104" lon="11.7049504"><ele>447.50000000000006</ele><time>2026-04-18T17:02:25.188Z</time></trkpt><trkpt lat="43.8004612" lon="11.7050069"><ele>447.0</ele><time>2026-04-18T17:02:26.186Z</time></trkpt><trkpt lat="43.8004968" lon="11.7050945"><ele>446.5</ele><time>2026-04-18T17:02:27.186Z</time></trkpt><trkpt lat="43.8005198" lon="11.7052148"><ele>446.0</ele><time>2026-04-18T17:02:28.186Z</time></trkpt><trkpt lat="43.8005326" lon="11.7053461"><ele>445.50000000000006</ele><time>2026-04-18T17:02:29.188Z</time></trkpt><trkpt lat="43.8005377" lon="11.7054805"><ele>445.0</ele><time>2026-04-18T17:02:30.185Z</time></trkpt><trkpt lat="43.8005418" lon="11.7055889"><ele>445.0</ele><time>2026-04-18T17:02:31.186Z</time></trkpt><trkpt lat="43.800543" lon="11.7057469"><ele>445.0</ele><time>2026-04-18T17:02:33.186Z</time></trkpt><trkpt lat="43.8004729" lon="11.7058462"><ele>445.0</ele><time>2026-04-18T17:02:35.186Z</time></trkpt><trkpt lat="43.8004032" lon="11.7058631"><ele>445.0</ele><time>2026-04-18T17:02:36.188Z</time></trkpt><trkpt lat="43.8003185" lon="11.7058546"><ele>445.0</ele><time>2026-04-18T17:02:37.187Z</time></trkpt><trkpt lat="43.8002335" lon="11.7058199"><ele>444.0</ele><time>2026-04-18T17:02:38.187Z</time></trkpt><trkpt lat="43.8001455" lon="11.7057757"><ele>443.0</ele><time>2026-04-18T17:02:39.186Z</time></trkpt><trkpt lat="43.8000382" lon="11.705748"><ele>442.0</ele><time>2026-04-18T17:02:40.187Z</time></trkpt><trkpt lat="43.7999321" lon="11.7057471"><ele>441.0</ele><time>2026-04-18T17:02:41.186Z</time></trkpt><trkpt lat="43.7998391" lon="11.7057838"><ele>440.0</ele><time>2026-04-18T17:02:42.188Z</time></trkpt><trkpt lat="43.7997594" lon="11.7058435"><ele>440.0</ele><time>2026-04-18T17:02:43.187Z</time></trkpt><trkpt lat="43.7996986" lon="11.7059057"><ele>440.0</ele><time>2026-04-18T17:02:44.186Z</time></trkpt><trkpt lat="43.7996501" lon="11.7060294"><ele>440.0</ele><time>2026-04-18T17:02:46.187Z</time></trkpt><trkpt lat="43.7997094" lon="11.7062073"><ele>440.0</ele><time>2026-04-18T17:02:48.188Z</time></trkpt><trkpt lat="43.7997732" lon="11.706292"><ele>440.0</ele><time>2026-04-18T17:02:49.187Z</time></trkpt><trkpt lat="43.7998546" lon="11.7063793"><ele>440.2</ele><time>2026-04-18T17:02:50.188Z</time></trkpt><trkpt lat="43.7999394" lon="11.7064754"><ele>440.4</ele><time>2026-04-18T17:02:51.187Z</time></trkpt><trkpt lat="43.8000209" lon="11.7065739"><ele>440.6</ele><time>2026-04-18T17:02:52.187Z</time></trkpt><trkpt lat="43.8000945" lon="11.706666"><ele>440.8</ele><time>2026-04-18T17:02:53.188Z</time></trkpt><trkpt lat="43.8001493" lon="11.706751"><ele>441.0</ele><time>2026-04-18T17:02:54.188Z</time></trkpt><trkpt lat="43.8001706" lon="11.7068422"><ele>442.0</ele><time>2026-04-18T17:02:55.187Z</time></trkpt><trkpt lat="43.8001528" lon="11.7069337"><ele>443.0</ele><time>2026-04-18T17:02:56.187Z</time></trkpt><trkpt lat="43.8001106" lon="11.7070187"><ele>444.0</ele><time>2026-04-18T17:02:57.187Z</time></trkpt><trkpt lat="43.8000574" lon="11.7071147"><ele>445.0</ele><time>2026-04-18T17:02:58.188Z</time></trkpt><trkpt lat="43.7999925" lon="11.7072168"><ele>446.0</ele><time>2026-04-18T17:02:59.186Z</time></trkpt><trkpt lat="43.7999041" lon="11.7073334"><ele>446.0</ele><time>2026-04-18T17:03:00.188Z</time></trkpt><trkpt lat="43.7998071" lon="11.7074574"><ele>446.0</ele><time>2026-04-18T17:03:01.186Z</time></trkpt><trkpt lat="43.7997142" lon="11.7075759"><ele>446.0</ele><time>2026-04-18T17:03:02.186Z</time></trkpt><trkpt lat="43.7996217" lon="11.7076991"><ele>446.0</ele><time>2026-04-18T17:03:03.186Z</time></trkpt><trkpt lat="43.7995407" lon="11.7078142"><ele>446.6</ele><time>2026-04-18T17:03:04.185Z</time></trkpt><trkpt lat="43.7994685" lon="11.7079164"><ele>447.20000000000005</ele><time>2026-04-18T17:03:05.186Z</time></trkpt><trkpt lat="43.7993945" lon="11.7080205"><ele>447.79999999999995</ele><time>2026-04-18T17:03:06.188Z</time></trkpt><trkpt lat="43.7993209" lon="11.7081302"><ele>448.4</ele><time>2026-04-18T17:03:07.187Z</time></trkpt><trkpt lat="43.7992527" lon="11.7082359"><ele>449.0</ele><time>2026-04-18T17:03:08.187Z</time></trkpt><trkpt lat="43.7991819" lon="11.7083376"><ele>448.99999999999994</ele><time>2026-04-18T17:03:09.187Z</time></trkpt><trkpt lat="43.799112" lon="11.7084346"><ele>449.0</ele><time>2026-04-18T17:03:10.187Z</time></trkpt><trkpt lat="43.7990444" lon="11.7085205"><ele>449.0</ele><time>2026-04-18T17:03:11.186Z</time></trkpt><trkpt lat="43.7989849" lon="11.7085993"><ele>449.0</ele><time>2026-04-18T17:03:12.188Z</time></trkpt><trkpt lat="43.7989295" lon="11.7086822"><ele>448.99999999999994</ele><time>2026-04-18T17:03:13.187Z</time></trkpt><trkpt lat="43.7988746" lon="11.7087742"><ele>449.0</ele><time>2026-04-18T17:03:14.187Z</time></trkpt><trkpt lat="43.798813" lon="11.7088656"><ele>449.49999999999994</ele><time>2026-04-18T17:03:15.188Z</time></trkpt><trkpt lat="43.7987458" lon="11.7089488"><ele>450.0</ele><time>2026-04-18T17:03:16.186Z</time></trkpt><trkpt lat="43.7986845" lon="11.709022"><ele>450.5</ele><time>2026-04-18T17:03:17.188Z</time></trkpt><trkpt lat="43.7986376" lon="11.709082"><ele>451.0</ele><time>2026-04-18T17:03:18.188Z</time></trkpt><trkpt lat="43.7985805" lon="11.7091786"><ele>451.49999999999994</ele><time>2026-04-18T17:03:20.187Z</time></trkpt><trkpt lat="43.7986002" lon="11.7092776"><ele>452.0</ele><time>2026-04-18T17:03:22.188Z</time></trkpt><trkpt lat="43.7986529" lon="11.7093349"><ele>451.99999999999994</ele><time>2026-04-18T17:03:23.188Z</time></trkpt><trkpt lat="43.7987267" lon="11.7093851"><ele>452.0</ele><time>2026-04-18T17:03:24.187Z</time></trkpt><trkpt lat="43.7988123" lon="11.7094313"><ele>452.0</ele><time>2026-04-18T17:03:25.186Z</time></trkpt><trkpt lat="43.7988996" lon="11.7094721"><ele>452.0</ele><time>2026-04-18T17:03:26.186Z</time></trkpt><trkpt lat="43.7989848" lon="11.709504"><ele>451.99999999999994</ele><time>2026-04-18T17:03:27.188Z</time></trkpt><trkpt lat="43.7990705" lon="11.7095322"><ele>452.0</ele><time>2026-04-18T17:03:28.187Z</time></trkpt><trkpt lat="43.7991669" lon="11.7095618"><ele>452.5</ele><time>2026-04-18T17:03:29.188Z</time></trkpt><trkpt lat="43.7992855" lon="11.709589"><ele>453.0</ele><time>2026-04-18T17:03:30.187Z</time></trkpt><trkpt lat="43.7994317" lon="11.7096195"><ele>453.5</ele><time>2026-04-18T17:03:31.187Z</time></trkpt><trkpt lat="43.7995926" lon="11.7096485"><ele>454.0</ele><time>2026-04-18T17:03:32.188Z</time></trkpt><trkpt lat="43.7997734" lon="11.7096818"><ele>455.0</ele><time>2026-04-18T17:03:33.186Z</time></trkpt><trkpt lat="43.7999526" lon="11.7097168"><ele>456.0</ele><time>2026-04-18T17:03:34.188Z</time></trkpt><trkpt lat="43.8001158" lon="11.7097492"><ele>457.0</ele><time>2026-04-18T17:03:35.188Z</time></trkpt><trkpt lat="43.8002675" lon="11.7097843"><ele>458.33333333333337</ele><time>2026-04-18T17:03:36.186Z</time></trkpt><trkpt lat="43.8004125" lon="11.7098153"><ele>459.66666666666663</ele><time>2026-04-18T17:03:37.185Z</time></trkpt><trkpt lat="43.8005634" lon="11.7098428"><ele>461.0</ele><time>2026-04-18T17:03:38.186Z</time></trkpt><trkpt lat="43.8007128" lon="11.7098706"><ele>461.0</ele><time>2026-04-18T17:03:39.186Z</time></trkpt><trkpt lat="43.8008591" lon="11.7098925"><ele>461.0</ele><time>2026-04-18T17:03:40.186Z</time></trkpt><trkpt lat="43.8010064" lon="11.7099155"><ele>461.0</ele><time>2026-04-18T17:03:41.188Z</time></trkpt><trkpt lat="43.8011518" lon="11.7099451"><ele>461.0</ele><time>2026-04-18T17:03:42.188Z</time></trkpt><trkpt lat="43.801297" lon="11.7099746"><ele>460.75</ele><time>2026-04-18T17:03:43.186Z</time></trkpt><trkpt lat="43.801441" lon="11.7100001"><ele>460.5</ele><time>2026-04-18T17:03:44.186Z</time></trkpt><trkpt lat="43.8015862" lon="11.7100265"><ele>460.25</ele><time>2026-04-18T17:03:45.186Z</time></trkpt><trkpt lat="43.8017303" lon="11.7100517"><ele>460.0</ele><time>2026-04-18T17:03:46.188Z</time></trkpt><trkpt lat="43.8018737" lon="11.7100768"><ele>460.0</ele><time>2026-04-18T17:03:47.186Z</time></trkpt><trkpt lat="43.8020195" lon="11.7101032"><ele>460.0</ele><time>2026-04-18T17:03:48.186Z</time></trkpt><trkpt lat="43.8021728" lon="11.7101288"><ele>460.0</ele><time>2026-04-18T17:03:49.187Z</time></trkpt><trkpt lat="43.8023276" lon="11.7101496"><ele>460.0</ele><time>2026-04-18T17:03:50.186Z</time></trkpt><trkpt lat="43.8024883" lon="11.7101436"><ele>460.0</ele><time>2026-04-18T17:03:51.186Z</time></trkpt><trkpt lat="43.802655" lon="11.7101024"><ele>460.0</ele><time>2026-04-18T17:03:52.187Z</time></trkpt><trkpt lat="43.80283" lon="11.710029"><ele>460.6666666666667</ele><time>2026-04-18T17:03:53.186Z</time></trkpt><trkpt lat="43.8030081" lon="11.7099471"><ele>461.33333333333337</ele><time>2026-04-18T17:03:54.188Z</time></trkpt><trkpt lat="43.8031824" lon="11.7098629"><ele>462.0</ele><time>2026-04-18T17:03:55.187Z</time></trkpt><trkpt lat="43.8033447" lon="11.7097859"><ele>463.0</ele><time>2026-04-18T17:03:56.187Z</time></trkpt><trkpt lat="43.8035004" lon="11.7097078"><ele>464.0</ele><time>2026-04-18T17:03:57.187Z</time></trkpt><trkpt lat="43.8036527" lon="11.7096348"><ele>465.0</ele><time>2026-04-18T17:03:58.188Z</time></trkpt><trkpt lat="43.803793" lon="11.7095589"><ele>465.0</ele><time>2026-04-18T17:03:59.186Z</time></trkpt><trkpt lat="43.8039161" lon="11.709474"><ele>465.0</ele><time>2026-04-18T17:04:00.186Z</time></trkpt><trkpt lat="43.8040108" lon="11.7093542"><ele>465.0</ele><time>2026-04-18T17:04:01.188Z</time></trkpt><trkpt lat="43.8040702" lon="11.7091879"><ele>465.0</ele><time>2026-04-18T17:04:02.187Z</time></trkpt><trkpt lat="43.8041063" lon="11.7090202"><ele>464.25</ele><time>2026-04-18T17:04:03.187Z</time></trkpt><trkpt lat="43.8041385" lon="11.708864"><ele>463.5</ele><time>2026-04-18T17:04:04.187Z</time></trkpt><trkpt lat="43.8042069" lon="11.7087509"><ele>462.75</ele><time>2026-04-18T17:04:05.187Z</time></trkpt><trkpt lat="43.8043065" lon="11.7086752"><ele>462.0</ele><time>2026-04-18T17:04:06.187Z</time></trkpt><trkpt lat="43.8044382" lon="11.7086414"><ele>462.0</ele><time>2026-04-18T17:04:07.188Z</time></trkpt><trkpt lat="43.8045968" lon="11.7086205"><ele>462.0</ele><time>2026-04-18T17:04:08.186Z</time></trkpt><trkpt lat="43.8047823" lon="11.708598"><ele>462.0</ele><time>2026-04-18T17:04:09.187Z</time></trkpt><trkpt lat="43.8049875" lon="11.708562"><ele>465.66666666666663</ele><time>2026-04-18T17:04:10.188Z</time></trkpt><trkpt lat="43.805197" lon="11.7085063"><ele>469.3333333333333</ele><time>2026-04-18T17:04:11.187Z</time></trkpt><trkpt lat="43.8054171" lon="11.7084259"><ele>473.0</ele><time>2026-04-18T17:04:12.186Z</time></trkpt><trkpt lat="43.8056216" lon="11.7083504"><ele>473.0</ele><time>2026-04-18T17:04:13.186Z</time></trkpt><trkpt lat="43.8058014" lon="11.7082846"><ele>473.0</ele><time>2026-04-18T17:04:14.188Z</time></trkpt><trkpt lat="43.805968" lon="11.708254"><ele>473.0</ele><time>2026-04-18T17:04:15.187Z</time></trkpt><trkpt lat="43.8061254" lon="11.7082713"><ele>473.25</ele><time>2026-04-18T17:04:16.186Z</time></trkpt><trkpt lat="43.806255" lon="11.7083373"><ele>473.5</ele><time>2026-04-18T17:04:17.186Z</time></trkpt><trkpt lat="43.8063563" lon="11.7084634"><ele>473.75</ele><time>2026-04-18T17:04:18.188Z</time></trkpt><trkpt lat="43.8064492" lon="11.7086416"><ele>474.0</ele><time>2026-04-18T17:04:19.186Z</time></trkpt><trkpt lat="43.8065687" lon="11.7088244"><ele>474.0</ele><time>2026-04-18T17:04:20.188Z</time></trkpt><trkpt lat="43.8067226" lon="11.7090006"><ele>474.0</ele><time>2026-04-18T17:04:21.187Z</time></trkpt><trkpt lat="43.806898" lon="11.7091543"><ele>474.0</ele><time>2026-04-18T17:04:22.188Z</time></trkpt><trkpt lat="43.8071" lon="11.7092841"><ele>477.5</ele><time>2026-04-18T17:04:23.188Z</time></trkpt><trkpt lat="43.8073238" lon="11.7093907"><ele>481.0</ele><time>2026-04-18T17:04:24.185Z</time></trkpt><trkpt lat="43.8075449" lon="11.7094814"><ele>483.0</ele><time>2026-04-18T17:04:25.188Z</time></trkpt><trkpt lat="43.8077478" lon="11.7095831"><ele>485.0</ele><time>2026-04-18T17:04:26.186Z</time></trkpt><trkpt lat="43.8079366" lon="11.7096918"><ele>487.0</ele><time>2026-04-18T17:04:27.188Z</time></trkpt><trkpt lat="43.8081189" lon="11.7097959"><ele>487.0</ele><time>2026-04-18T17:04:28.188Z</time></trkpt><trkpt lat="43.8083192" lon="11.709866"><ele>487.0</ele><time>2026-04-18T17:04:29.187Z</time></trkpt><trkpt lat="43.808522" lon="11.7099005"><ele>487.0</ele><time>2026-04-18T17:04:30.187Z</time></trkpt><trkpt lat="43.8087149" lon="11.7099316"><ele>486.6666666666667</ele><time>2026-04-18T17:04:31.185Z</time></trkpt><trkpt lat="43.808893" lon="11.7100072"><ele>486.33333333333337</ele><time>2026-04-18T17:04:32.185Z</time></trkpt><trkpt lat="43.8090693" lon="11.7101223"><ele>486.0</ele><time>2026-04-18T17:04:33.188Z</time></trkpt><trkpt lat="43.8092268" lon="11.7102544"><ele>489.0</ele><time>2026-04-18T17:04:34.188Z</time></trkpt><trkpt lat="43.8093662" lon="11.7103759"><ele>492.0</ele><time>2026-04-18T17:04:35.188Z</time></trkpt><trkpt lat="43.8095119" lon="11.7104771"><ele>495.0</ele><time>2026-04-18T17:04:36.187Z</time></trkpt><trkpt lat="43.8096718" lon="11.7105364"><ele>495.0</ele><time>2026-04-18T17:04:37.187Z</time></trkpt><trkpt lat="43.8098371" lon="11.7105548"><ele>495.0</ele><time>2026-04-18T17:04:38.187Z</time></trkpt><trkpt lat="43.8099942" lon="11.7105621"><ele>495.0</ele><time>2026-04-18T17:04:39.188Z</time></trkpt><trkpt lat="43.8101398" lon="11.7105883"><ele>496.0</ele><time>2026-04-18T17:04:40.187Z</time></trkpt><trkpt lat="43.8102863" lon="11.7106485"><ele>497.0</ele><time>2026-04-18T17:04:41.188Z</time></trkpt><trkpt lat="43.8104319" lon="11.7107366"><ele>498.0</ele><time>2026-04-18T17:04:42.188Z</time></trkpt><trkpt lat="43.810559" lon="11.7108365"><ele>498.0</ele><time>2026-04-18T17:04:43.187Z</time></trkpt><trkpt lat="43.8106745" lon="11.7109422"><ele>498.0</ele><time>2026-04-18T17:04:44.188Z</time></trkpt><trkpt lat="43.810791" lon="11.7110226"><ele>498.0</ele><time>2026-04-18T17:04:45.187Z</time></trkpt><trkpt lat="43.8109304" lon="11.7110526"><ele>498.0</ele><time>2026-04-18T17:04:46.188Z</time></trkpt><trkpt lat="43.8110693" lon="11.7110365"><ele>499.25</ele><time>2026-04-18T17:04:47.187Z</time></trkpt><trkpt lat="43.8111965" lon="11.7110088"><ele>500.5</ele><time>2026-04-18T17:04:48.188Z</time></trkpt><trkpt lat="43.811328" lon="11.7110322"><ele>501.75</ele><time>2026-04-18T17:04:49.186Z</time></trkpt><trkpt lat="43.811456" lon="11.711108"><ele>503.0</ele><time>2026-04-18T17:04:50.187Z</time></trkpt><trkpt lat="43.8115832" lon="11.7112221"><ele>502.0</ele><time>2026-04-18T17:04:51.188Z</time></trkpt><trkpt lat="43.8117147" lon="11.711356"><ele>501.0</ele><time>2026-04-18T17:04:52.188Z</time></trkpt><trkpt lat="43.8118413" lon="11.7114927"><ele>500.0</ele><time>2026-04-18T17:04:53.187Z</time></trkpt><trkpt lat="43.811964" lon="11.7116294"><ele>500.0</ele><time>2026-04-18T17:04:54.187Z</time></trkpt><trkpt lat="43.8120783" lon="11.7117661"><ele>500.0</ele><time>2026-04-18T17:04:55.187Z</time></trkpt><trkpt lat="43.8121708" lon="11.7119019"><ele>500.0</ele><time>2026-04-18T17:04:56.187Z</time></trkpt><trkpt lat="43.8122518" lon="11.7120436"><ele>500.0</ele><time>2026-04-18T17:04:57.186Z</time></trkpt><trkpt lat="43.8123478" lon="11.7121765"><ele>498.66666666666663</ele><time>2026-04-18T17:04:58.188Z</time></trkpt><trkpt lat="43.8124546" lon="11.7122992"><ele>497.33333333333337</ele><time>2026-04-18T17:04:59.188Z</time></trkpt><trkpt lat="43.8125802" lon="11.7124144"><ele>496.0</ele><time>2026-04-18T17:05:00.188Z</time></trkpt><trkpt lat="43.8127301" lon="11.7125193"><ele>496.33333333333337</ele><time>2026-04-18T17:05:01.188Z</time></trkpt><trkpt lat="43.8128923" lon="11.7126238"><ele>496.66666666666663</ele><time>2026-04-18T17:05:02.186Z</time></trkpt><trkpt lat="43.8130556" lon="11.712746"><ele>497.0</ele><time>2026-04-18T17:05:03.187Z</time></trkpt><trkpt lat="43.8132043" lon="11.7129074"><ele>497.0</ele><time>2026-04-18T17:05:04.188Z</time></trkpt><trkpt lat="43.8133296" lon="11.7131117"><ele>497.0</ele><time>2026-04-18T17:05:05.185Z</time></trkpt><trkpt lat="43.8134277" lon="11.7133388"><ele>497.0</ele><time>2026-04-18T17:05:06.186Z</time></trkpt><trkpt lat="43.8135042" lon="11.7135426"><ele>496.0</ele><time>2026-04-18T17:05:07.188Z</time></trkpt><trkpt lat="43.8135993" lon="11.7137336"><ele>495.0</ele><time>2026-04-18T17:05:08.187Z</time></trkpt><trkpt lat="43.8098371" lon="11.7105548"><ele>495.0</ele><time>2026-04-18T17:04:38.187Z</time></trkpt><trkpt lat="43.8099942" lon="11.7105621"><ele>495.0</ele><time>2026-04-18T17:04:39.188Z</time></trkpt><trkpt lat="43.8101398" lon="11.7105883"><ele>495.0</ele><time>2026-04-18T17:04:40.187Z</time></trkpt><trkpt lat="43.8102863" lon="11.7106485"><ele>495.75</ele><time>2026-04-18T17:04:41.188Z</time></trkpt><trkpt lat="43.8104319" lon="11.7107366"><ele>496.5</ele><time>2026-04-18T17:04:42.188Z</time></trkpt><trkpt lat="43.810559" lon="11.7108365"><ele>497.25</ele><time>2026-04-18T17:04:43.187Z</time></trkpt><trkpt lat="43.8106745" lon="11.7109422"><ele>498.0</ele><time>2026-04-18T17:04:44.188Z</time></trkpt><trkpt lat="43.810791" lon="11.7110226"><ele>498.0</ele><time>2026-04-18T17:04:45.187Z</time></trkpt><trkpt lat="43.8109304" lon="11.7110526"><ele>498.0</ele><time>2026-04-18T17:04:46.188Z</time></trkpt><trkpt lat="43.8110693" lon="11.7110365"><ele>498.0</ele><time>2026-04-18T17:04:47.187Z</time></trkpt><trkpt lat="43.8111965" lon="11.7110088"><ele>498.0</ele><time>2026-04-18T17:04:48.188Z</time></trkpt><trkpt lat="43.811328" lon="11.7110322"><ele>495.0</ele><time>2026-04-18T17:04:49.186Z</time></trkpt><trkpt lat="43.811456" lon="11.711108"><ele>492.0</ele><time>2026-04-18T17:04:50.187Z</time></trkpt><trkpt lat="43.8115832" lon="11.7112221"><ele>489.0</ele><time>2026-04-18T17:04:51.188Z</time></trkpt><trkpt lat="43.8117147" lon="11.711356"><ele>492.66666666666663</ele><time>2026-04-18T17:04:52.188Z</time></trkpt><trkpt lat="43.8118413" lon="11.7114927"><ele>496.3333333333333</ele><time>2026-04-18T17:04:53.187Z</time></trkpt><trkpt lat="43.811964" lon="11.7116294"><ele>500.0</ele><time>2026-04-18T17:04:54.187Z</time></trkpt><trkpt lat="43.8120783" lon="11.7117661"><ele>500.0</ele><time>2026-04-18T17:04:55.187Z</time></trkpt><trkpt lat="43.8121708" lon="11.7119019"><ele>500.0</ele><time>2026-04-18T17:04:56.187Z</time></trkpt><trkpt lat="43.8122518" lon="11.7120436"><ele>500.0</ele><time>2026-04-18T17:04:57.186Z</time></trkpt><trkpt lat="43.8123478" lon="11.7121765"><ele>500.0</ele><time>2026-04-18T17:04:58.188Z</time></trkpt><trkpt lat="43.8124546" lon="11.7122992"><ele>498.66666666666663</ele><time>2026-04-18T17:04:59.188Z</time></trkpt><trkpt lat="43.8125802" lon="11.7124144"><ele>497.33333333333337</ele><time>2026-04-18T17:05:00.188Z</time></trkpt><trkpt lat="43.8127301" lon="11.7125193"><ele>496.0</ele><time>2026-04-18T17:05:01.188Z</time></trkpt><trkpt lat="43.8128923" lon="11.7126238"><ele>496.33333333333337</ele><time>2026-04-18T17:05:02.186Z</time></trkpt><trkpt lat="43.8130556" lon="11.712746"><ele>496.66666666666663</ele><time>2026-04-18T17:05:03.187Z</time></trkpt><trkpt lat="43.8132043" lon="11.7129074"><ele>497.0</ele><time>2026-04-18T17:05:04.188Z</time></trkpt><trkpt lat="43.8133296" lon="11.7131117"><ele>497.0</ele><time>2026-04-18T17:05:05.185Z</time></trkpt><trkpt lat="43.8134277" lon="11.7133388"><ele>497.0</ele><time>2026-04-18T17:05:06.186Z</time></trkpt><trkpt lat="43.8135042" lon="11.7135426"><ele>497.0</ele><time>2026-04-18T17:05:07.188Z</time></trkpt><trkpt lat="43.8135993" lon="11.7137336"><ele>500.3333333333333</ele><time>2026-04-18T17:05:08.187Z</time></trkpt><trkpt lat="43.8137297" lon="11.7139063"><ele>503.66666666666663</ele><time>2026-04-18T17:05:09.187Z</time></trkpt><trkpt lat="43.8138821" lon="11.7140458"><ele>507.0</ele><time>2026-04-18T17:05:10.187Z</time></trkpt><trkpt lat="43.8140379" lon="11.7141505"><ele>507.0</ele><time>2026-04-18T17:05:11.188Z</time></trkpt><trkpt lat="43.8141855" lon="11.7142621"><ele>507.0</ele><time>2026-04-18T17:05:12.188Z</time></trkpt><trkpt lat="43.8143065" lon="11.7144178"><ele>507.0</ele><time>2026-04-18T17:05:13.188Z</time></trkpt><trkpt lat="43.8144193" lon="11.7146196"><ele>511.66666666666663</ele><time>2026-04-18T17:05:14.188Z</time></trkpt><trkpt lat="43.8145238" lon="11.7148547"><ele>516.3333333333333</ele><time>2026-04-18T17:05:15.187Z</time></trkpt><trkpt lat="43.8146312" lon="11.7151044"><ele>521.0</ele><time>2026-04-18T17:05:16.187Z</time></trkpt><trkpt lat="43.8147397" lon="11.7153475"><ele>521.0</ele><time>2026-04-18T17:05:17.187Z</time></trkpt><trkpt lat="43.8148381" lon="11.7155633"><ele>521.0</ele><time>2026-04-18T17:05:18.187Z</time></trkpt><trkpt lat="43.8149195" lon="11.7157668"><ele>521.0</ele><time>2026-04-18T17:05:19.188Z</time></trkpt><trkpt lat="43.814963" lon="11.7159776"><ele>522.3333333333333</ele><time>2026-04-18T17:05:20.188Z</time></trkpt><trkpt lat="43.8149625" lon="11.7162051"><ele>523.6666666666666</ele><time>2026-04-18T17:05:21.188Z</time></trkpt><trkpt lat="43.8149154" lon="11.7164441"><ele>525.0</ele><time>2026-04-18T17:05:22.188Z</time></trkpt><trkpt lat="43.8148459" lon="11.7166935"><ele>528.6666666666666</ele><time>2026-04-18T17:05:23.186Z</time></trkpt><trkpt lat="43.8147705" lon="11.7169538"><ele>532.3333333333333</ele><time>2026-04-18T17:05:24.185Z</time></trkpt><trkpt lat="43.8146875" lon="11.717228"><ele>536.0</ele><time>2026-04-18T17:05:25.186Z</time></trkpt><trkpt lat="43.8145943" lon="11.7175028"><ele>545.5</ele><time>2026-04-18T17:05:26.188Z</time></trkpt><trkpt lat="43.8144882" lon="11.7177906"><ele>555.0</ele><time>2026-04-18T17:05:27.188Z</time></trkpt><trkpt lat="43.8143847" lon="11.7180721"><ele>547.0</ele><time>2026-04-18T17:05:28.188Z</time></trkpt><trkpt lat="43.8142828" lon="11.718342"><ele>539.0</ele><time>2026-04-18T17:05:29.187Z</time></trkpt><trkpt lat="43.8141865" lon="11.7186006"><ele>531.0</ele><time>2026-04-18T17:05:30.187Z</time></trkpt><trkpt lat="43.8140919" lon="11.7188368"><ele>531.0</ele><time>2026-04-18T17:05:31.187Z</time></trkpt><trkpt lat="43.8139811" lon="11.7190416"><ele>531.0</ele><time>2026-04-18T17:05:32.187Z</time></trkpt><trkpt lat="43.81385" lon="11.7192121"><ele>531.0</ele><time>2026-04-18T17:05:33.187Z</time></trkpt><trkpt lat="43.8137297" lon="11.7193657"><ele>536.6666666666666</ele><time>2026-04-18T17:05:34.187Z</time></trkpt><trkpt lat="43.8136334" lon="11.7195446"><ele>542.3333333333333</ele><time>2026-04-18T17:05:35.186Z</time></trkpt><trkpt lat="43.8135635" lon="11.7197535"><ele>548.0</ele><time>2026-04-18T17:05:36.188Z</time></trkpt><trkpt lat="43.81353" lon="11.7199927"><ele>545.0</ele><time>2026-04-18T17:05:37.186Z</time></trkpt><trkpt lat="43.8135132" lon="11.7202361"><ele>542.0</ele><time>2026-04-18T17:05:38.187Z</time></trkpt><trkpt lat="43.8135047" lon="11.7204458"><ele>539.0</ele><time>2026-04-18T17:05:39.187Z</time></trkpt><trkpt lat="43.813513" lon="11.7206329"><ele>539.0</ele><time>2026-04-18T17:05:40.187Z</time></trkpt><trkpt lat="43.8135623" lon="11.720807"><ele>539.0</ele><time>2026-04-18T17:05:41.186Z</time></trkpt><trkpt lat="43.8136535" lon="11.7209686"><ele>539.0</ele><time>2026-04-18T17:05:42.186Z</time></trkpt><trkpt lat="43.8137791" lon="11.7210937"><ele>539.0</ele><time>2026-04-18T17:05:43.187Z</time></trkpt><trkpt lat="43.8139182" lon="11.7212098"><ele>535.0</ele><time>2026-04-18T17:05:44.187Z</time></trkpt><trkpt lat="43.8140428" lon="11.7213364"><ele>531.0</ele><time>2026-04-18T17:05:45.185Z</time></trkpt><trkpt lat="43.8141417" lon="11.7214978"><ele>527.0</ele><time>2026-04-18T17:05:46.187Z</time></trkpt><trkpt lat="43.8142112" lon="11.7216913"><ele>527.6666666666666</ele><time>2026-04-18T17:05:47.188Z</time></trkpt><trkpt lat="43.8142605" lon="11.7219023"><ele>528.3333333333334</ele><time>2026-04-18T17:05:48.187Z</time></trkpt><trkpt lat="43.8143078" lon="11.7221198"><ele>529.0</ele><time>2026-04-18T17:05:49.186Z</time></trkpt><trkpt lat="43.814358" lon="11.7223408"><ele>532.3333333333334</ele><time>2026-04-18T17:05:50.186Z</time></trkpt><trkpt lat="43.814403" lon="11.7225617"><ele>535.6666666666666</ele><time>2026-04-18T17:05:51.186Z</time></trkpt><trkpt lat="43.8144247" lon="11.7227674"><ele>539.0</ele><time>2026-04-18T17:05:52.186Z</time></trkpt><trkpt lat="43.8144152" lon="11.7229574"><ele>542.0</ele><time>2026-04-18T17:05:53.187Z</time></trkpt><trkpt lat="43.8144046" lon="11.7231398"><ele>545.0</ele><time>2026-04-18T17:05:54.187Z</time></trkpt><trkpt lat="43.8144248" lon="11.72331"><ele>548.0</ele><time>2026-04-18T17:05:55.186Z</time></trkpt><trkpt lat="43.8144947" lon="11.7234856"><ele>551.0</ele><time>2026-04-18T17:05:56.187Z</time></trkpt><trkpt lat="43.8146027" lon="11.7236499"><ele>551.0</ele><time>2026-04-18T17:05:57.188Z</time></trkpt><trkpt lat="43.8147265" lon="11.7238177"><ele>551.0</ele><time>2026-04-18T17:05:58.186Z</time></trkpt><trkpt lat="43.8148428" lon="11.7240173"><ele>551.0</ele><time>2026-04-18T17:05:59.187Z</time></trkpt><trkpt lat="43.8149468" lon="11.7242455"><ele>548.0</ele><time>2026-04-18T17:06:00.187Z</time></trkpt><trkpt lat="43.8150632" lon="11.7244793"><ele>545.0</ele><time>2026-04-18T17:06:01.187Z</time></trkpt><trkpt lat="43.8151701" lon="11.724705"><ele>542.0</ele><time>2026-04-18T17:06:02.186Z</time></trkpt><trkpt lat="43.8152611" lon="11.7249278"><ele>550.0</ele><time>2026-04-18T17:06:03.186Z</time></trkpt><trkpt lat="43.8153234" lon="11.7251649"><ele>558.0</ele><time>2026-04-18T17:06:04.185Z</time></trkpt><trkpt lat="43.8153494" lon="11.7253877"><ele>566.0</ele><time>2026-04-18T17:06:05.186Z</time></trkpt><trkpt lat="43.8153362" lon="11.7256113"><ele>566.0</ele><time>2026-04-18T17:06:06.187Z</time></trkpt><trkpt lat="43.8152976" lon="11.7258106"><ele>566.0</ele><time>2026-04-18T17:06:07.187Z</time></trkpt><trkpt lat="43.8152552" lon="11.7259815"><ele>566.0</ele><time>2026-04-18T17:06:08.186Z</time></trkpt><trkpt lat="43.8152587" lon="11.7261685"><ele>566.0</ele><time>2026-04-18T17:06:09.186Z</time></trkpt><trkpt lat="43.8153079" lon="11.7263413"><ele>565.25</ele><time>2026-04-18T17:06:10.186Z</time></trkpt><trkpt lat="43.8154055" lon="11.7264879"><ele>564.5</ele><time>2026-04-18T17:06:11.186Z</time></trkpt><trkpt lat="43.8155325" lon="11.7265973"><ele>563.75</ele><time>2026-04-18T17:06:12.188Z</time></trkpt><trkpt lat="43.8156398" lon="11.7267066"><ele>563.0</ele><time>2026-04-18T17:06:13.188Z</time></trkpt><trkpt lat="43.8157243" lon="11.7268786"><ele>564.0</ele><time>2026-04-18T17:06:14.185Z</time></trkpt><trkpt lat="43.8157626" lon="11.7270813"><ele>565.0</ele><time>2026-04-18T17:06:15.187Z</time></trkpt><trkpt lat="43.8157702" lon="11.727291"><ele>566.0</ele><time>2026-04-18T17:06:16.185Z</time></trkpt><trkpt lat="43.8158016" lon="11.7275266"><ele>564.6666666666666</ele><time>2026-04-18T17:06:17.186Z</time></trkpt><trkpt lat="43.8158727" lon="11.7277868"><ele>563.3333333333334</ele><time>2026-04-18T17:06:18.188Z</time></trkpt><trkpt lat="43.81596" lon="11.72807"><ele>562.0</ele><time>2026-04-18T17:06:19.187Z</time></trkpt><trkpt lat="43.8160533" lon="11.7283679"><ele>572.0</ele><time>2026-04-18T17:06:20.186Z</time></trkpt><trkpt lat="43.8161558" lon="11.7286863"><ele>582.0</ele><time>2026-04-18T17:06:21.188Z</time></trkpt><trkpt lat="43.8162621" lon="11.7290096"><ele>582.0</ele><time>2026-04-18T17:06:22.186Z</time></trkpt><trkpt lat="43.8163617" lon="11.7293042"><ele>582.0</ele><time>2026-04-18T17:06:23.186Z</time></trkpt><trkpt lat="43.8164554" lon="11.7295796"><ele>578.6666666666666</ele><time>2026-04-18T17:06:24.187Z</time></trkpt><trkpt lat="43.8165477" lon="11.7298242"><ele>575.3333333333333</ele><time>2026-04-18T17:06:25.186Z</time></trkpt><trkpt lat="43.8166496" lon="11.7300363"><ele>572.0</ele><time>2026-04-18T17:06:26.187Z</time></trkpt><trkpt lat="43.816766" lon="11.7302226"><ele>581.0</ele><time>2026-04-18T17:06:27.188Z</time></trkpt><trkpt lat="43.8168977" lon="11.73041"><ele>590.0</ele><time>2026-04-18T17:06:28.188Z</time></trkpt><trkpt lat="43.8170106" lon="11.7305909"><ele>599.0</ele><time>2026-04-18T17:06:29.186Z</time></trkpt><trkpt lat="43.8170999" lon="11.7307925"><ele>599.0</ele><time>2026-04-18T17:06:30.186Z</time></trkpt><trkpt lat="43.817167" lon="11.7310383"><ele>599.0</ele><time>2026-04-18T17:06:31.187Z</time></trkpt><trkpt lat="43.8172066" lon="11.7312945"><ele>599.0</ele><time>2026-04-18T17:06:32.188Z</time></trkpt><trkpt lat="43.8172454" lon="11.7315659"><ele>598.3333333333333</ele><time>2026-04-18T17:06:33.186Z</time></trkpt><trkpt lat="43.8172837" lon="11.731836"><ele>597.6666666666666</ele><time>2026-04-18T17:06:34.187Z</time></trkpt><trkpt lat="43.8173019" lon="11.7321284"><ele>597.0</ele><time>2026-04-18T17:06:35.187Z</time></trkpt><trkpt lat="43.8173046" lon="11.7324402"><ele>597.5</ele><time>2026-04-18T17:06:36.187Z</time></trkpt><trkpt lat="43.8173203" lon="11.7327608"><ele>598.0</ele><time>2026-04-18T17:06:37.186Z</time></trkpt><trkpt lat="43.8173458" lon="11.7330736"><ele>598.0</ele><time>2026-04-18T17:06:38.187Z</time></trkpt><trkpt lat="43.8173662" lon="11.73335"><ele>598.0</ele><time>2026-04-18T17:06:39.188Z</time></trkpt><trkpt lat="43.817378" lon="11.7335994"><ele>598.0</ele><time>2026-04-18T17:06:40.187Z</time></trkpt><trkpt lat="43.8173551" lon="11.7338279"><ele>601.0</ele><time>2026-04-18T17:06:41.186Z</time></trkpt><trkpt lat="43.8172953" lon="11.734049"><ele>604.0</ele><time>2026-04-18T17:06:42.188Z</time></trkpt><trkpt lat="43.8172338" lon="11.7342845"><ele>607.0</ele><time>2026-04-18T17:06:43.187Z</time></trkpt><trkpt lat="43.817189" lon="11.7345253"><ele>608.25</ele><time>2026-04-18T17:06:44.188Z</time></trkpt><trkpt lat="43.8171575" lon="11.7347308"><ele>609.5</ele><time>2026-04-18T17:06:45.188Z</time></trkpt><trkpt lat="43.8171447" lon="11.7349222"><ele>610.75</ele><time>2026-04-18T17:06:46.187Z</time></trkpt><trkpt lat="43.8171708" lon="11.7351278"><ele>612.0</ele><time>2026-04-18T17:06:47.186Z</time></trkpt><trkpt lat="43.8172076" lon="11.7353293"><ele>612.0</ele><time>2026-04-18T17:06:48.187Z</time></trkpt><trkpt lat="43.8172063" lon="11.735523"><ele>612.0</ele><time>2026-04-18T17:06:49.187Z</time></trkpt><trkpt lat="43.8171731" lon="11.7357191"><ele>612.0</ele><time>2026-04-18T17:06:50.187Z</time></trkpt><trkpt lat="43.8171161" lon="11.7359336"><ele>613.0</ele><time>2026-04-18T17:06:51.186Z</time></trkpt><trkpt lat="43.8170584" lon="11.7361673"><ele>614.0</ele><time>2026-04-18T17:06:52.188Z</time></trkpt><trkpt lat="43.8170206" lon="11.7364299"><ele>615.0</ele><time>2026-04-18T17:06:53.187Z</time></trkpt><trkpt lat="43.8169921" lon="11.7367054"><ele>618.6666666666666</ele><time>2026-04-18T17:06:54.186Z</time></trkpt><trkpt lat="43.816974" lon="11.7369551"><ele>622.3333333333333</ele><time>2026-04-18T17:06:55.188Z</time></trkpt><trkpt lat="43.8169781" lon="11.7371907"><ele>626.0</ele><time>2026-04-18T17:06:56.187Z</time></trkpt><trkpt lat="43.8170052" lon="11.7374224"><ele>626.0</ele><time>2026-04-18T17:06:57.188Z</time></trkpt><trkpt lat="43.8170264" lon="11.737652"><ele>626.0</ele><time>2026-04-18T17:06:58.187Z</time></trkpt><trkpt lat="43.8170053" lon="11.737859"><ele>626.0</ele><time>2026-04-18T17:06:59.186Z</time></trkpt><trkpt lat="43.8169684" lon="11.7380472"><ele>625.4</ele><time>2026-04-18T17:07:00.186Z</time></trkpt><trkpt lat="43.8169333" lon="11.7382097"><ele>624.8</ele><time>2026-04-18T17:07:01.187Z</time></trkpt><trkpt lat="43.816925" lon="11.7383609"><ele>624.1999999999999</ele><time>2026-04-18T17:07:02.187Z</time></trkpt><trkpt lat="43.816959" lon="11.7384912"><ele>623.6</ele><time>2026-04-18T17:07:03.187Z</time></trkpt><trkpt lat="43.8170414" lon="11.7385909"><ele>623.0</ele><time>2026-04-18T17:07:04.187Z</time></trkpt><trkpt lat="43.8171735" lon="11.7386586"><ele>621.0</ele><time>2026-04-18T17:07:05.186Z</time></trkpt><trkpt lat="43.8173408" lon="11.7387165"><ele>619.0</ele><time>2026-04-18T17:07:06.187Z</time></trkpt><trkpt lat="43.8175204" lon="11.7387754"><ele>617.0</ele><time>2026-04-18T17:07:07.188Z</time></trkpt><trkpt lat="43.8176984" lon="11.7388426"><ele>617.0</ele><time>2026-04-18T17:07:08.187Z</time></trkpt><trkpt lat="43.8178596" lon="11.7389398"><ele>617.0</ele><time>2026-04-18T17:07:09.187Z</time></trkpt><trkpt lat="43.8180013" lon="11.7390794"><ele>617.0</ele><time>2026-04-18T17:07:10.185Z</time></trkpt><trkpt lat="43.8181096" lon="11.7392257"><ele>617.0</ele><time>2026-04-18T17:07:11.187Z</time></trkpt><trkpt lat="43.8182217" lon="11.739341"><ele>617.0</ele><time>2026-04-18T17:07:12.186Z</time></trkpt><trkpt lat="43.8183788" lon="11.7394253"><ele>617.0</ele><time>2026-04-18T17:07:13.187Z</time></trkpt><trkpt lat="43.8185569" lon="11.739487"><ele>613.0</ele><time>2026-04-18T17:07:14.188Z</time></trkpt><trkpt lat="43.8187423" lon="11.7395166"><ele>609.0</ele><time>2026-04-18T17:07:15.186Z</time></trkpt><trkpt lat="43.8189252" lon="11.7395113"><ele>605.0</ele><time>2026-04-18T17:07:16.187Z</time></trkpt><trkpt lat="43.8190952" lon="11.7395016"><ele>605.0</ele><time>2026-04-18T17:07:17.187Z</time></trkpt><trkpt lat="43.819265" lon="11.7395423"><ele>605.0</ele><time>2026-04-18T17:07:18.186Z</time></trkpt><trkpt lat="43.8194317" lon="11.7396328"><ele>605.0</ele><time>2026-04-18T17:07:19.187Z</time></trkpt><trkpt lat="43.8195721" lon="11.7397759"><ele>606.6666666666666</ele><time>2026-04-18T17:07:20.186Z</time></trkpt><trkpt lat="43.8197066" lon="11.7399495"><ele>608.3333333333334</ele><time>2026-04-18T17:07:21.187Z</time></trkpt><trkpt lat="43.819835" lon="11.7401317"><ele>610.0</ele><time>2026-04-18T17:07:22.186Z</time></trkpt><trkpt lat="43.8199711" lon="11.7402799"><ele>610.0</ele><time>2026-04-18T17:07:23.187Z</time></trkpt><trkpt lat="43.8201305" lon="11.7404263"><ele>610.0</ele><time>2026-04-18T17:07:24.187Z</time></trkpt><trkpt lat="43.8203115" lon="11.7405285"><ele>610.0</ele><time>2026-04-18T17:07:25.187Z</time></trkpt><trkpt lat="43.8204992" lon="11.7405991"><ele>613.0</ele><time>2026-04-18T17:07:26.188Z</time></trkpt><trkpt lat="43.8206713" lon="11.7406537"><ele>616.0</ele><time>2026-04-18T17:07:27.188Z</time></trkpt><trkpt lat="43.8208247" lon="11.7407015"><ele>619.0</ele><time>2026-04-18T17:07:28.187Z</time></trkpt><trkpt lat="43.8209434" lon="11.7407416"><ele>620.6</ele><time>2026-04-18T17:07:29.187Z</time></trkpt><trkpt lat="43.8210254" lon="11.7408042"><ele>622.2</ele><time>2026-04-18T17:07:30.187Z</time></trkpt><trkpt lat="43.8210743" lon="11.7409136"><ele>623.8000000000001</ele><time>2026-04-18T17:07:31.187Z</time></trkpt><trkpt lat="43.8210767" lon="11.7410499"><ele>625.4</ele><time>2026-04-18T17:07:32.186Z</time></trkpt><trkpt lat="43.8210229" lon="11.7411915"><ele>627.0</ele><time>2026-04-18T17:07:33.187Z</time></trkpt><trkpt lat="43.8209236" lon="11.7413416"><ele>627.6666666666666</ele><time>2026-04-18T17:07:34.187Z</time></trkpt><trkpt lat="43.8208042" lon="11.741504"><ele>628.3333333333333</ele><time>2026-04-18T17:07:35.187Z</time></trkpt><trkpt lat="43.8206848" lon="11.7416581"><ele>629.0</ele><time>2026-04-18T17:07:36.187Z</time></trkpt><trkpt lat="43.8205579" lon="11.7417784"><ele>629.0</ele><time>2026-04-18T17:07:37.187Z</time></trkpt><trkpt lat="43.8204179" lon="11.7418943"><ele>629.0</ele><time>2026-04-18T17:07:38.187Z</time></trkpt><trkpt lat="43.8202636" lon="11.7418785"><ele>629.0</ele><time>2026-04-18T17:07:39.188Z</time></trkpt><trkpt lat="43.8201058" lon="11.7416927"><ele>629.3333333333333</ele><time>2026-04-18T17:07:40.187Z</time></trkpt><trkpt lat="43.8199499" lon="11.741609"><ele>629.6666666666666</ele><time>2026-04-18T17:07:41.187Z</time></trkpt><trkpt lat="43.8198001" lon="11.7415408"><ele>630.0</ele><time>2026-04-18T17:07:42.187Z</time></trkpt><trkpt lat="43.8196391" lon="11.7415161"><ele>630.0</ele><time>2026-04-18T17:07:43.187Z</time></trkpt><trkpt lat="43.8194541" lon="11.7415622"><ele>630.0</ele><time>2026-04-18T17:07:44.186Z</time></trkpt><trkpt lat="43.8192716" lon="11.741635"><ele>630.0</ele><time>2026-04-18T17:07:45.187Z</time></trkpt><trkpt lat="43.8190984" lon="11.7416865"><ele>631.6666666666666</ele><time>2026-04-18T17:07:46.186Z</time></trkpt><trkpt lat="43.8189121" lon="11.7416726"><ele>633.3333333333333</ele><time>2026-04-18T17:07:47.188Z</time></trkpt><trkpt lat="43.8187051" lon="11.7416107"><ele>635.0</ele><time>2026-04-18T17:07:48.187Z</time></trkpt><trkpt lat="43.8185061" lon="11.7415417"><ele>637.3333333333333</ele><time>2026-04-18T17:07:49.188Z</time></trkpt><trkpt lat="43.818321" lon="11.7414729"><ele>639.6666666666666</ele><time>2026-04-18T17:07:50.186Z</time></trkpt><trkpt lat="43.8181567" lon="11.7414128"><ele>642.0</ele><time>2026-04-18T17:07:51.185Z</time></trkpt><trkpt lat="43.8180258" lon="11.7413734"><ele>642.0</ele><time>2026-04-18T17:07:52.188Z</time></trkpt><trkpt lat="43.8179181" lon="11.7413828"><ele>642.0</ele><time>2026-04-18T17:07:53.188Z</time></trkpt><trkpt lat="43.8178368" lon="11.7414597"><ele>642.0</ele><time>2026-04-18T17:07:54.188Z</time></trkpt><trkpt lat="43.8177912" lon="11.7415784"><ele>642.0</ele><time>2026-04-18T17:07:55.187Z</time></trkpt><trkpt lat="43.8177937" lon="11.7417051"><ele>642.0</ele><time>2026-04-18T17:07:56.187Z</time></trkpt><trkpt lat="43.8178463" lon="11.741813"><ele>642.0</ele><time>2026-04-18T17:07:57.185Z</time></trkpt><trkpt lat="43.8179397" lon="11.7418704"><ele>642.0</ele><time>2026-04-18T17:07:58.186Z</time></trkpt><trkpt lat="43.8180729" lon="11.7418703"><ele>642.0</ele><time>2026-04-18T17:07:59.186Z</time></trkpt><trkpt lat="43.8182284" lon="11.7418434"><ele>642.0</ele><time>2026-04-18T17:08:00.187Z</time></trkpt><trkpt lat="43.818399" lon="11.7418433"><ele>650.3333333333334</ele><time>2026-04-18T17:08:01.187Z</time></trkpt><trkpt lat="43.8185853" lon="11.7418901"><ele>658.6666666666667</ele><time>2026-04-18T17:08:02.187Z</time></trkpt><trkpt lat="43.818782" lon="11.7419848"><ele>667.0</ele><time>2026-04-18T17:08:03.187Z</time></trkpt><trkpt lat="43.818972" lon="11.7420866"><ele>667.0</ele><time>2026-04-18T17:08:04.187Z</time></trkpt><trkpt lat="43.8191633" lon="11.7421895"><ele>667.0</ele><time>2026-04-18T17:08:05.188Z</time></trkpt><trkpt lat="43.8193655" lon="11.7422981"><ele>667.0</ele><time>2026-04-18T17:08:06.187Z</time></trkpt><trkpt lat="43.8195634" lon="11.742406"><ele>668.3333333333334</ele><time>2026-04-18T17:08:07.187Z</time></trkpt><trkpt lat="43.8197671" lon="11.7425144"><ele>669.6666666666666</ele><time>2026-04-18T17:08:08.188Z</time></trkpt><trkpt lat="43.8199745" lon="11.7426296"><ele>671.0</ele><time>2026-04-18T17:08:09.186Z</time></trkpt><trkpt lat="43.8201801" lon="11.7427658"><ele>671.0</ele><time>2026-04-18T17:08:10.187Z</time></trkpt><trkpt lat="43.8203721" lon="11.7429112"><ele>671.0</ele><time>2026-04-18T17:08:11.187Z</time></trkpt><trkpt lat="43.8205443" lon="11.7430478"><ele>671.0</ele><time>2026-04-18T17:08:12.186Z</time></trkpt><trkpt lat="43.8207037" lon="11.7431591"><ele>671.0</ele><time>2026-04-18T17:08:13.188Z</time></trkpt><trkpt lat="43.8208761" lon="11.743232"><ele>671.0</ele><time>2026-04-18T17:08:14.186Z</time></trkpt><trkpt lat="43.8210734" lon="11.7432605"><ele>671.0</ele><time>2026-04-18T17:08:15.187Z</time></trkpt><trkpt lat="43.8212709" lon="11.7432252"><ele>675.3333333333333</ele><time>2026-04-18T17:08:16.187Z</time></trkpt><trkpt lat="43.8214599" lon="11.7431443"><ele>679.6666666666666</ele><time>2026-04-18T17:08:17.187Z</time></trkpt><trkpt lat="43.8216358" lon="11.7430519"><ele>684.0</ele><time>2026-04-18T17:08:18.188Z</time></trkpt><trkpt lat="43.8218194" lon="11.7429837"><ele>686.0</ele><time>2026-04-18T17:08:19.188Z</time></trkpt><trkpt lat="43.8220147" lon="11.7429461"><ele>688.0</ele><time>2026-04-18T17:08:20.188Z</time></trkpt><trkpt lat="43.8222086" lon="11.7429489"><ele>690.0</ele><time>2026-04-18T17:08:21.188Z</time></trkpt><trkpt lat="43.8224088" lon="11.7429968"><ele>690.0</ele><time>2026-04-18T17:08:22.187Z</time></trkpt><trkpt lat="43.8226077" lon="11.7430654"><ele>690.0</ele><time>2026-04-18T17:08:23.188Z</time></trkpt><trkpt lat="43.8228031" lon="11.7431375"><ele>690.0</ele><time>2026-04-18T17:08:24.188Z</time></trkpt><trkpt lat="43.8229829" lon="11.7432079"><ele>687.3333333333334</ele><time>2026-04-18T17:08:25.186Z</time></trkpt><trkpt lat="43.8231396" lon="11.7432775"><ele>684.6666666666667</ele><time>2026-04-18T17:08:26.188Z</time></trkpt><trkpt lat="43.8232738" lon="11.7433735"><ele>682.0</ele><time>2026-04-18T17:08:27.187Z</time></trkpt><trkpt lat="43.8233752" lon="11.7435238"><ele>685.5</ele><time>2026-04-18T17:08:28.188Z</time></trkpt><trkpt lat="43.8234223" lon="11.7436968"><ele>689.0</ele><time>2026-04-18T17:08:29.188Z</time></trkpt><trkpt lat="43.8234383" lon="11.7438897"><ele>692.5</ele><time>2026-04-18T17:08:30.186Z</time></trkpt><trkpt lat="43.8234541" lon="11.7440767"><ele>696.0</ele><time>2026-04-18T17:08:31.188Z</time></trkpt><trkpt lat="43.823475" lon="11.7442719"><ele>704.6666666666666</ele><time>2026-04-18T17:08:32.186Z</time></trkpt><trkpt lat="43.8235969" lon="11.7444131"><ele>713.3333333333333</ele><time>2026-04-18T17:08:33.188Z</time></trkpt><trkpt lat="43.823704" lon="11.7445484"><ele>722.0</ele><time>2026-04-18T17:08:34.187Z</time></trkpt><trkpt lat="43.8238379" lon="11.7446323"><ele>722.0</ele><time>2026-04-18T17:08:35.187Z</time></trkpt><trkpt lat="43.823991" lon="11.7446666"><ele>722.0</ele><time>2026-04-18T17:08:36.186Z</time></trkpt><trkpt lat="43.8241537" lon="11.7446927"><ele>722.0</ele><time>2026-04-18T17:08:37.187Z</time></trkpt><trkpt lat="43.8243293" lon="11.7445919"><ele>727.6666666666666</ele><time>2026-04-18T17:08:38.186Z</time></trkpt><trkpt lat="43.8245024" lon="11.7445128"><ele>733.3333333333334</ele><time>2026-04-18T17:08:39.186Z</time></trkpt><trkpt lat="43.8246766" lon="11.7444398"><ele>739.0</ele><time>2026-04-18T17:08:40.187Z</time></trkpt><trkpt lat="43.8248547" lon="11.7444007"><ele>739.0</ele><time>2026-04-18T17:08:41.186Z</time></trkpt><trkpt lat="43.8250453" lon="11.744405"><ele>739.0</ele><time>2026-04-18T17:08:42.187Z</time></trkpt><trkpt lat="43.8252476" lon="11.7444312"><ele>739.0</ele><time>2026-04-18T17:08:43.186Z</time></trkpt><trkpt lat="43.8254433" lon="11.7444439"><ele>743.6666666666667</ele><time>2026-04-18T17:08:44.187Z</time></trkpt><trkpt lat="43.8256238" lon="11.7444132"><ele>748.3333333333334</ele><time>2026-04-18T17:08:45.187Z</time></trkpt><trkpt lat="43.8257942" lon="11.7443387"><ele>753.0</ele><time>2026-04-18T17:08:46.187Z</time></trkpt><trkpt lat="43.82595" lon="11.7442285"><ele>742.0</ele><time>2026-04-18T17:08:47.187Z</time></trkpt><trkpt lat="43.8260946" lon="11.7441349"><ele>731.0</ele><time>2026-04-18T17:08:48.186Z</time></trkpt><trkpt lat="43.8262347" lon="11.7440845"><ele>720.0</ele><time>2026-04-18T17:08:49.188Z</time></trkpt><trkpt lat="43.8264077" lon="11.7440827"><ele>720.0</ele><time>2026-04-18T17:08:50.186Z</time></trkpt><trkpt lat="43.826583" lon="11.7441167"><ele>720.0</ele><time>2026-04-18T17:08:51.187Z</time></trkpt><trkpt lat="43.8267672" lon="11.7441507"><ele>720.0</ele><time>2026-04-18T17:08:52.188Z</time></trkpt><trkpt lat="43.826912" lon="11.7441832"><ele>720.5</ele><time>2026-04-18T17:08:53.188Z</time></trkpt><trkpt lat="43.8270292" lon="11.7442527"><ele>721.0</ele><time>2026-04-18T17:08:54.187Z</time></trkpt><trkpt lat="43.8271212" lon="11.7443619"><ele>721.5</ele><time>2026-04-18T17:08:55.187Z</time></trkpt><trkpt lat="43.8271686" lon="11.7445129"><ele>722.0</ele><time>2026-04-18T17:08:56.186Z</time></trkpt><trkpt lat="43.8271794" lon="11.7446838"><ele>722.0</ele><time>2026-04-18T17:08:57.186Z</time></trkpt><trkpt lat="43.8271904" lon="11.7448685"><ele>722.0</ele><time>2026-04-18T17:08:58.188Z</time></trkpt><trkpt lat="43.8272319" lon="11.7450542"><ele>722.0</ele><time>2026-04-18T17:08:59.187Z</time></trkpt><trkpt lat="43.827273" lon="11.7452446"><ele>722.0</ele><time>2026-04-18T17:09:00.188Z</time></trkpt><trkpt lat="43.8274299" lon="11.7454258"><ele>722.0</ele><time>2026-04-18T17:09:01.188Z</time></trkpt><trkpt lat="43.8275893" lon="11.7456064"><ele>722.0</ele><time>2026-04-18T17:09:02.188Z</time></trkpt><trkpt lat="43.8277545" lon="11.7458113"><ele>722.0</ele><time>2026-04-18T17:09:03.187Z</time></trkpt><trkpt lat="43.8279051" lon="11.7459975"><ele>738.0</ele><time>2026-04-18T17:09:04.186Z</time></trkpt><trkpt lat="43.8280454" lon="11.7461548"><ele>754.0</ele><time>2026-04-18T17:09:05.188Z</time></trkpt><trkpt lat="43.8281969" lon="11.7462571"><ele>770.0</ele><time>2026-04-18T17:09:06.186Z</time></trkpt><trkpt lat="43.8283608" lon="11.7463126"><ele>763.0</ele><time>2026-04-18T17:09:07.188Z</time></trkpt><trkpt lat="43.8285382" lon="11.7463587"><ele>756.0</ele><time>2026-04-18T17:09:08.187Z</time></trkpt><trkpt lat="43.8287148" lon="11.7464485"><ele>749.0</ele><time>2026-04-18T17:09:09.187Z</time></trkpt><trkpt lat="43.8288963" lon="11.7465906"><ele>749.0</ele><time>2026-04-18T17:09:10.186Z</time></trkpt><trkpt lat="43.8290767" lon="11.7467508"><ele>749.0</ele><time>2026-04-18T17:09:11.186Z</time></trkpt><trkpt lat="43.8292627" lon="11.7468789"><ele>749.0</ele><time>2026-04-18T17:09:12.188Z</time></trkpt><trkpt lat="43.829461" lon="11.7469807"><ele>754.0</ele><time>2026-04-18T17:09:13.187Z</time></trkpt><trkpt lat="43.8296376" lon="11.7470628"><ele>759.0</ele><time>2026-04-18T17:09:14.188Z</time></trkpt><trkpt lat="43.8297878" lon="11.7471519"><ele>764.0</ele><time>2026-04-18T17:09:15.186Z</time></trkpt><trkpt lat="43.8299172" lon="11.7472782"><ele>764.0</ele><time>2026-04-18T17:09:16.187Z</time></trkpt><trkpt lat="43.830033" lon="11.7474489"><ele>764.0</ele><time>2026-04-18T17:09:17.187Z</time></trkpt><trkpt lat="43.8301544" lon="11.7476541"><ele>764.0</ele><time>2026-04-18T17:09:18.186Z</time></trkpt><trkpt lat="43.8303002" lon="11.7478683"><ele>763.0</ele><time>2026-04-18T17:09:19.187Z</time></trkpt><trkpt lat="43.8304508" lon="11.7480857"><ele>762.0</ele><time>2026-04-18T17:09:20.187Z</time></trkpt><trkpt lat="43.8305862" lon="11.7482813"><ele>761.0</ele><time>2026-04-18T17:09:21.187Z</time></trkpt><trkpt lat="43.8307255" lon="11.74845"><ele>767.6666666666666</ele><time>2026-04-18T17:09:22.187Z</time></trkpt><trkpt lat="43.830871" lon="11.7486224"><ele>774.3333333333333</ele><time>2026-04-18T17:09:23.187Z</time></trkpt><trkpt lat="43.8310893" lon="11.7486846"><ele>781.0</ele><time>2026-04-18T17:09:24.187Z</time></trkpt><trkpt lat="43.8312701" lon="11.7488072"><ele>781.0</ele><time>2026-04-18T17:09:25.188Z</time></trkpt><trkpt lat="43.8314314" lon="11.748923"><ele>781.0</ele><time>2026-04-18T17:09:26.187Z</time></trkpt><trkpt lat="43.8315924" lon="11.7490329"><ele>781.0</ele><time>2026-04-18T17:09:27.188Z</time></trkpt><trkpt lat="43.8317072" lon="11.7490204"><ele>781.0</ele><time>2026-04-18T17:09:28.187Z</time></trkpt><trkpt lat="43.8318469" lon="11.7489738"><ele>781.0</ele><time>2026-04-18T17:09:29.186Z</time></trkpt><trkpt lat="43.8319844" lon="11.7488591"><ele>781.0</ele><time>2026-04-18T17:09:30.185Z</time></trkpt><trkpt lat="43.8321056" lon="11.748743"><ele>781.0</ele><time>2026-04-18T17:09:31.186Z</time></trkpt><trkpt lat="43.832222" lon="11.7486553"><ele>781.0</ele><time>2026-04-18T17:09:32.188Z</time></trkpt><trkpt lat="43.8323455" lon="11.7486146"><ele>781.0</ele><time>2026-04-18T17:09:33.186Z</time></trkpt><trkpt lat="43.8324628" lon="11.7486524"><ele>781.0</ele><time>2026-04-18T17:09:34.186Z</time></trkpt><trkpt lat="43.8325406" lon="11.748752"><ele>781.0</ele><time>2026-04-18T17:09:35.188Z</time></trkpt><trkpt lat="43.8325876" lon="11.7489075"><ele>781.0</ele><time>2026-04-18T17:09:36.186Z</time></trkpt><trkpt lat="43.8325943" lon="11.7491104"><ele>781.0</ele><time>2026-04-18T17:09:37.188Z</time></trkpt><trkpt lat="43.8325987" lon="11.7493525"><ele>781.0</ele><time>2026-04-18T17:09:38.188Z</time></trkpt><trkpt lat="43.8326186" lon="11.7496108"><ele>785.0</ele><time>2026-04-18T17:09:39.188Z</time></trkpt><trkpt lat="43.8326232" lon="11.749892"><ele>789.0</ele><time>2026-04-18T17:09:40.187Z</time></trkpt><trkpt lat="43.8325912" lon="11.7501922"><ele>793.0</ele><time>2026-04-18T17:09:41.188Z</time></trkpt><trkpt lat="43.8325602" lon="11.7504497"><ele>799.6666666666666</ele><time>2026-04-18T17:09:42.187Z</time></trkpt><trkpt lat="43.8325483" lon="11.7506695"><ele>806.3333333333333</ele><time>2026-04-18T17:09:43.185Z</time></trkpt><trkpt lat="43.8325812" lon="11.7508663"><ele>813.0</ele><time>2026-04-18T17:09:44.187Z</time></trkpt><trkpt lat="43.8326257" lon="11.7510701"><ele>793.5</ele><time>2026-04-18T17:09:45.188Z</time></trkpt><trkpt lat="43.8327424" lon="11.7512571"><ele>774.0</ele><time>2026-04-18T17:09:46.188Z</time></trkpt><trkpt lat="43.8299172" lon="11.7472782"><ele>770.6666666666666</ele><time>2026-04-18T17:09:16.187Z</time></trkpt><trkpt lat="43.830033" lon="11.7474489"><ele>767.3333333333333</ele><time>2026-04-18T17:09:17.187Z</time></trkpt><trkpt lat="43.8301544" lon="11.7476541"><ele>764.0</ele><time>2026-04-18T17:09:18.186Z</time></trkpt><trkpt lat="43.8303002" lon="11.7478683"><ele>763.0</ele><time>2026-04-18T17:09:19.187Z</time></trkpt><trkpt lat="43.8304508" lon="11.7480857"><ele>762.0</ele><time>2026-04-18T17:09:20.187Z</time></trkpt><trkpt lat="43.8305862" lon="11.7482813"><ele>761.0</ele><time>2026-04-18T17:09:21.187Z</time></trkpt><trkpt lat="43.8307255" lon="11.74845"><ele>767.6666666666666</ele><time>2026-04-18T17:09:22.187Z</time></trkpt><trkpt lat="43.830871" lon="11.7486224"><ele>774.3333333333333</ele><time>2026-04-18T17:09:23.187Z</time></trkpt><trkpt lat="43.8310893" lon="11.7486846"><ele>781.0</ele><time>2026-04-18T17:09:24.187Z</time></trkpt><trkpt lat="43.8312701" lon="11.7488072"><ele>781.0</ele><time>2026-04-18T17:09:25.188Z</time></trkpt><trkpt lat="43.8314314" lon="11.748923"><ele>781.0</ele><time>2026-04-18T17:09:26.187Z</time></trkpt><trkpt lat="43.8315924" lon="11.7490329"><ele>781.0</ele><time>2026-04-18T17:09:27.188Z</time></trkpt><trkpt lat="43.8317072" lon="11.7490204"><ele>781.0</ele><time>2026-04-18T17:09:28.187Z</time></trkpt><trkpt lat="43.8318469" lon="11.7489738"><ele>781.0</ele><time>2026-04-18T17:09:29.186Z</time></trkpt><trkpt lat="43.8319844" lon="11.7488591"><ele>781.0</ele><time>2026-04-18T17:09:30.185Z</time></trkpt><trkpt lat="43.8321056" lon="11.748743"><ele>781.0</ele><time>2026-04-18T17:09:31.186Z</time></trkpt><trkpt lat="43.832222" lon="11.7486553"><ele>781.0</ele><time>2026-04-18T17:09:32.188Z</time></trkpt><trkpt lat="43.8323455" lon="11.7486146"><ele>781.0</ele><time>2026-04-18T17:09:33.186Z</time></trkpt><trkpt lat="43.8324628" lon="11.7486524"><ele>781.0</ele><time>2026-04-18T17:09:34.186Z</time></trkpt><trkpt lat="43.8325406" lon="11.748752"><ele>781.0</ele><time>2026-04-18T17:09:35.188Z</time></trkpt><trkpt lat="43.8325876" lon="11.7489075"><ele>781.0</ele><time>2026-04-18T17:09:36.186Z</time></trkpt><trkpt lat="43.8325943" lon="11.7491104"><ele>781.0</ele><time>2026-04-18T17:09:37.188Z</time></trkpt><trkpt lat="43.8325987" lon="11.7493525"><ele>781.0</ele><time>2026-04-18T17:09:38.188Z</time></trkpt><trkpt lat="43.8326186" lon="11.7496108"><ele>785.0</ele><time>2026-04-18T17:09:39.188Z</time></trkpt><trkpt lat="43.8326232" lon="11.749892"><ele>789.0</ele><time>2026-04-18T17:09:40.187Z</time></trkpt><trkpt lat="43.8325912" lon="11.7501922"><ele>793.0</ele><time>2026-04-18T17:09:41.188Z</time></trkpt><trkpt lat="43.8325602" lon="11.7504497"><ele>799.6666666666666</ele><time>2026-04-18T17:09:42.187Z</time></trkpt><trkpt lat="43.8325483" lon="11.7506695"><ele>806.3333333333333</ele><time>2026-04-18T17:09:43.185Z</time></trkpt><trkpt lat="43.8325812" lon="11.7508663"><ele>813.0</ele><time>2026-04-18T17:09:44.187Z</time></trkpt><trkpt lat="43.8326257" lon="11.7510701"><ele>800.0</ele><time>2026-04-18T17:09:45.188Z</time></trkpt><trkpt lat="43.8327424" lon="11.7512571"><ele>787.0</ele><time>2026-04-18T17:09:46.188Z</time></trkpt><trkpt lat="43.8328196" lon="11.7514867"><ele>774.0</ele><time>2026-04-18T17:09:47.187Z</time></trkpt><trkpt lat="43.8329101" lon="11.7517067"><ele>782.3333333333333</ele><time>2026-04-18T17:09:48.186Z</time></trkpt><trkpt lat="43.8329949" lon="11.7519025"><ele>790.6666666666666</ele><time>2026-04-18T17:09:49.186Z</time></trkpt><trkpt lat="43.8330503" lon="11.7521033"><ele>799.0</ele><time>2026-04-18T17:09:50.186Z</time></trkpt><trkpt lat="43.8330593" lon="11.7523046"><ele>799.0</ele><time>2026-04-18T17:09:51.187Z</time></trkpt><trkpt lat="43.8330688" lon="11.7524891"><ele>799.0</ele><time>2026-04-18T17:09:52.188Z</time></trkpt><trkpt lat="43.8330958" lon="11.7526804"><ele>799.0</ele><time>2026-04-18T17:09:53.187Z</time></trkpt><trkpt lat="43.8331258" lon="11.7528731"><ele>799.0</ele><time>2026-04-18T17:09:54.187Z</time></trkpt><trkpt lat="43.8332456" lon="11.7530276"><ele>793.3333333333333</ele><time>2026-04-18T17:09:55.187Z</time></trkpt><trkpt lat="43.8333908" lon="11.7531502"><ele>787.6666666666667</ele><time>2026-04-18T17:09:56.186Z</time></trkpt><trkpt lat="43.833611" lon="11.753242"><ele>782.0</ele><time>2026-04-18T17:09:57.187Z</time></trkpt><trkpt lat="43.8337448" lon="11.7534003"><ele>787.0</ele><time>2026-04-18T17:09:58.185Z</time></trkpt><trkpt lat="43.8338415" lon="11.7535462"><ele>792.0</ele><time>2026-04-18T17:09:59.187Z</time></trkpt><trkpt lat="43.8338838" lon="11.7536986"><ele>797.0</ele><time>2026-04-18T17:10:00.187Z</time></trkpt><trkpt lat="43.8338789" lon="11.7538904"><ele>802.0</ele><time>2026-04-18T17:10:01.186Z</time></trkpt><trkpt lat="43.833855" lon="11.7541205"><ele>802.0</ele><time>2026-04-18T17:10:02.187Z</time></trkpt><trkpt lat="43.8338352" lon="11.7543479"><ele>802.0</ele><time>2026-04-18T17:10:03.186Z</time></trkpt><trkpt lat="43.8338232" lon="11.7545684"><ele>802.0</ele><time>2026-04-18T17:10:04.185Z</time></trkpt><trkpt lat="43.8338352" lon="11.7548078"><ele>810.6666666666666</ele><time>2026-04-18T17:10:05.188Z</time></trkpt><trkpt lat="43.8339747" lon="11.7549368"><ele>819.3333333333333</ele><time>2026-04-18T17:10:06.186Z</time></trkpt><trkpt lat="43.8340914" lon="11.7550827"><ele>828.0</ele><time>2026-04-18T17:10:07.188Z</time></trkpt><trkpt lat="43.8342124" lon="11.7551951"><ele>832.5</ele><time>2026-04-18T17:10:08.186Z</time></trkpt><trkpt lat="43.834287" lon="11.7553386"><ele>837.0</ele><time>2026-04-18T17:10:09.186Z</time></trkpt><trkpt lat="43.834322" lon="11.7555233"><ele>841.5</ele><time>2026-04-18T17:10:10.186Z</time></trkpt><trkpt lat="43.8343339" lon="11.7557086"><ele>846.0</ele><time>2026-04-18T17:10:11.186Z</time></trkpt><trkpt lat="43.8343472" lon="11.7558973"><ele>838.0</ele><time>2026-04-18T17:10:12.186Z</time></trkpt><trkpt lat="43.8343573" lon="11.7561021"><ele>830.0</ele><time>2026-04-18T17:10:13.187Z</time></trkpt><trkpt lat="43.8344175" lon="11.7563215"><ele>822.0</ele><time>2026-04-18T17:10:14.188Z</time></trkpt><trkpt lat="43.8344998" lon="11.7565345"><ele>822.0</ele><time>2026-04-18T17:10:15.185Z</time></trkpt><trkpt lat="43.8346856" lon="11.7566971"><ele>822.0</ele><time>2026-04-18T17:10:16.186Z</time></trkpt><trkpt lat="43.8347672" lon="11.756923"><ele>822.0</ele><time>2026-04-18T17:10:17.186Z</time></trkpt><trkpt lat="43.8348351" lon="11.7571557"><ele>828.0</ele><time>2026-04-18T17:10:18.186Z</time></trkpt><trkpt lat="43.8348801" lon="11.7573788"><ele>834.0</ele><time>2026-04-18T17:10:19.187Z</time></trkpt><trkpt lat="43.8349127" lon="11.7575894"><ele>840.0</ele><time>2026-04-18T17:10:20.188Z</time></trkpt><trkpt lat="43.8349552" lon="11.7577753"><ele>843.75</ele><time>2026-04-18T17:10:21.186Z</time></trkpt><trkpt lat="43.8349991" lon="11.7579351"><ele>847.5</ele><time>2026-04-18T17:10:22.187Z</time></trkpt><trkpt lat="43.8351735" lon="11.7580075"><ele>851.25</ele><time>2026-04-18T17:10:23.187Z</time></trkpt><trkpt lat="43.8353018" lon="11.7580722"><ele>855.0</ele><time>2026-04-18T17:10:24.186Z</time></trkpt><trkpt lat="43.8354528" lon="11.75804"><ele>855.0</ele><time>2026-04-18T17:10:25.187Z</time></trkpt><trkpt lat="43.8356031" lon="11.7580158"><ele>855.0</ele><time>2026-04-18T17:10:26.187Z</time></trkpt><trkpt lat="43.8357579" lon="11.7580283"><ele>855.0</ele><time>2026-04-18T17:10:27.188Z</time></trkpt><trkpt lat="43.8359109" lon="11.7580659"><ele>850.75</ele><time>2026-04-18T17:10:28.186Z</time></trkpt><trkpt lat="43.8360505" lon="11.7581143"><ele>846.5</ele><time>2026-04-18T17:10:29.188Z</time></trkpt><trkpt lat="43.8361664" lon="11.7581893"><ele>842.25</ele><time>2026-04-18T17:10:30.187Z</time></trkpt><trkpt lat="43.836251" lon="11.7583098"><ele>838.0</ele><time>2026-04-18T17:10:31.185Z</time></trkpt><trkpt lat="43.8362997" lon="11.7584703"><ele>841.6666666666666</ele><time>2026-04-18T17:10:32.187Z</time></trkpt><trkpt lat="43.8363133" lon="11.7586782"><ele>845.3333333333333</ele><time>2026-04-18T17:10:33.188Z</time></trkpt><trkpt lat="43.8363127" lon="11.7588896"><ele>849.0</ele><time>2026-04-18T17:10:34.188Z</time></trkpt><trkpt lat="43.8363272" lon="11.7591122"><ele>849.0</ele><time>2026-04-18T17:10:35.187Z</time></trkpt><trkpt lat="43.8363431" lon="11.7593441"><ele>849.0</ele><time>2026-04-18T17:10:36.187Z</time></trkpt><trkpt lat="43.8363819" lon="11.7595917"><ele>849.0</ele><time>2026-04-18T17:10:37.186Z</time></trkpt><trkpt lat="43.8365075" lon="11.7598477"><ele>857.0</ele><time>2026-04-18T17:10:38.186Z</time></trkpt><trkpt lat="43.836764" lon="11.7600297"><ele>865.0</ele><time>2026-04-18T17:10:39.188Z</time></trkpt><trkpt lat="43.8368994" lon="11.7602389"><ele>865.3333333333333</ele><time>2026-04-18T17:10:40.186Z</time></trkpt><trkpt lat="43.8370258" lon="11.7604132"><ele>865.6666666666667</ele><time>2026-04-18T17:10:41.185Z</time></trkpt><trkpt lat="43.8371283" lon="11.7605692"><ele>866.0</ele><time>2026-04-18T17:10:42.188Z</time></trkpt><trkpt lat="43.8372298" lon="11.7606731"><ele>866.0</ele><time>2026-04-18T17:10:43.187Z</time></trkpt><trkpt lat="43.8373472" lon="11.7607151"><ele>866.0</ele><time>2026-04-18T17:10:44.185Z</time></trkpt><trkpt lat="43.8374655" lon="11.7606916"><ele>866.0</ele><time>2026-04-18T17:10:45.188Z</time></trkpt><trkpt lat="43.8375697" lon="11.760608"><ele>866.0</ele><time>2026-04-18T17:10:46.188Z</time></trkpt><trkpt lat="43.8376432" lon="11.7604465"><ele>863.5</ele><time>2026-04-18T17:10:47.186Z</time></trkpt><trkpt lat="43.8376807" lon="11.7602516"><ele>861.0</ele><time>2026-04-18T17:10:48.186Z</time></trkpt><trkpt lat="43.8376734" lon="11.760048"><ele>858.5</ele><time>2026-04-18T17:10:49.186Z</time></trkpt><trkpt lat="43.8376329" lon="11.7598511"><ele>856.0</ele><time>2026-04-18T17:10:50.187Z</time></trkpt><trkpt lat="43.8375625" lon="11.7596727"><ele>856.0</ele><time>2026-04-18T17:10:51.186Z</time></trkpt><trkpt lat="43.8374891" lon="11.7595047"><ele>856.0</ele><time>2026-04-18T17:10:52.186Z</time></trkpt><trkpt lat="43.8374552" lon="11.7593401"><ele>856.0</ele><time>2026-04-18T17:10:53.188Z</time></trkpt><trkpt lat="43.8374523" lon="11.7591563"><ele>856.0</ele><time>2026-04-18T17:10:54.187Z</time></trkpt><trkpt lat="43.8374803" lon="11.75894"><ele>856.3333333333333</ele><time>2026-04-18T17:10:55.186Z</time></trkpt><trkpt lat="43.8375247" lon="11.7587059"><ele>856.6666666666667</ele><time>2026-04-18T17:10:56.187Z</time></trkpt><trkpt lat="43.837559" lon="11.7584755"><ele>857.0</ele><time>2026-04-18T17:10:57.186Z</time></trkpt><trkpt lat="43.8375913" lon="11.7582495"><ele>858.0</ele><time>2026-04-18T17:10:58.187Z</time></trkpt><trkpt lat="43.8375529" lon="11.7580067"><ele>859.0</ele><time>2026-04-18T17:10:59.188Z</time></trkpt><trkpt lat="43.8374932" lon="11.7577372"><ele>860.0</ele><time>2026-04-18T17:11:00.188Z</time></trkpt><trkpt lat="43.837402" lon="11.7574706"><ele>863.6666666666667</ele><time>2026-04-18T17:11:01.186Z</time></trkpt><trkpt lat="43.8372954" lon="11.7571895"><ele>867.3333333333333</ele><time>2026-04-18T17:11:02.186Z</time></trkpt><trkpt lat="43.837208" lon="11.7569309"><ele>871.0</ele><time>2026-04-18T17:11:03.187Z</time></trkpt><trkpt lat="43.8371148" lon="11.7567138"><ele>866.5</ele><time>2026-04-18T17:11:04.187Z</time></trkpt><trkpt lat="43.8370033" lon="11.7565359"><ele>862.0</ele><time>2026-04-18T17:11:05.188Z</time></trkpt><trkpt lat="43.8368849" lon="11.7564106"><ele>857.5</ele><time>2026-04-18T17:11:06.188Z</time></trkpt><trkpt lat="43.8367899" lon="11.7562878"><ele>853.0</ele><time>2026-04-18T17:11:07.188Z</time></trkpt><trkpt lat="43.8367442" lon="11.7561468"><ele>858.0</ele><time>2026-04-18T17:11:08.186Z</time></trkpt><trkpt lat="43.8367327" lon="11.7559616"><ele>863.0</ele><time>2026-04-18T17:11:09.187Z</time></trkpt><trkpt lat="43.8367356" lon="11.7557322"><ele>868.0</ele><time>2026-04-18T17:11:10.186Z</time></trkpt><trkpt lat="43.8367288" lon="11.75548"><ele>869.6666666666666</ele><time>2026-04-18T17:11:11.186Z</time></trkpt><trkpt lat="43.8367212" lon="11.7552007"><ele>871.3333333333333</ele><time>2026-04-18T17:11:12.188Z</time></trkpt><trkpt lat="43.8367159" lon="11.7549078"><ele>873.0</ele><time>2026-04-18T17:11:13.187Z</time></trkpt><trkpt lat="43.8367307" lon="11.7546246"><ele>874.6666666666667</ele><time>2026-04-18T17:11:14.188Z</time></trkpt><trkpt lat="43.8367563" lon="11.7543572"><ele>876.3333333333334</ele><time>2026-04-18T17:11:15.187Z</time></trkpt><trkpt lat="43.8367868" lon="11.7541208"><ele>878.0</ele><time>2026-04-18T17:11:16.186Z</time></trkpt><trkpt lat="43.8368044" lon="11.7538992"><ele>878.0</ele><time>2026-04-18T17:11:17.187Z</time></trkpt><trkpt lat="43.8367942" lon="11.7536835"><ele>878.0</ele><time>2026-04-18T17:11:18.186Z</time></trkpt><trkpt lat="43.836733" lon="11.7534778"><ele>878.0</ele><time>2026-04-18T17:11:19.188Z</time></trkpt><trkpt lat="43.836672" lon="11.7532581"><ele>882.0</ele><time>2026-04-18T17:11:20.188Z</time></trkpt><trkpt lat="43.8364835" lon="11.7530841"><ele>886.0</ele><time>2026-04-18T17:11:21.187Z</time></trkpt><trkpt lat="43.8363642" lon="11.7529019"><ele>890.0</ele><time>2026-04-18T17:11:22.187Z</time></trkpt><trkpt lat="43.8362636" lon="11.7527565"><ele>897.5</ele><time>2026-04-18T17:11:23.187Z</time></trkpt><trkpt lat="43.8361919" lon="11.7525894"><ele>905.0</ele><time>2026-04-18T17:11:24.188Z</time></trkpt><trkpt lat="43.8361529" lon="11.7523902"><ele>912.5</ele><time>2026-04-18T17:11:25.188Z</time></trkpt><trkpt lat="43.8361203" lon="11.7521728"><ele>920.0</ele><time>2026-04-18T17:11:26.188Z</time></trkpt><trkpt lat="43.8360549" lon="11.7519724"><ele>930.0</ele><time>2026-04-18T17:11:27.187Z</time></trkpt><trkpt lat="43.83598" lon="11.7517654"><ele>940.0</ele><time>2026-04-18T17:11:28.187Z</time></trkpt><trkpt lat="43.8358341" lon="11.7516749"><ele>950.0</ele><time>2026-04-18T17:11:29.188Z</time></trkpt><trkpt lat="43.8357232" lon="11.7515518"><ele>940.25</ele><time>2026-04-18T17:11:30.187Z</time></trkpt><trkpt lat="43.8356439" lon="11.7514062"><ele>930.5</ele><time>2026-04-18T17:11:31.186Z</time></trkpt><trkpt lat="43.8356066" lon="11.7512094"><ele>920.75</ele><time>2026-04-18T17:11:32.187Z</time></trkpt><trkpt lat="43.8355928" lon="11.750979"><ele>911.0</ele><time>2026-04-18T17:11:33.187Z</time></trkpt><trkpt lat="43.8355721" lon="11.7507316"><ele>911.0</ele><time>2026-04-18T17:11:34.186Z</time></trkpt><trkpt lat="43.8355491" lon="11.7505059"><ele>911.0</ele><time>2026-04-18T17:11:35.188Z</time></trkpt><trkpt lat="43.8355427" lon="11.7503144"><ele>911.0</ele><time>2026-04-18T17:11:36.185Z</time></trkpt><trkpt lat="43.8355644" lon="11.7501502"><ele>911.0</ele><time>2026-04-18T17:11:37.187Z</time></trkpt><trkpt lat="43.8356223" lon="11.7499802"><ele>911.75</ele><time>2026-04-18T17:11:38.188Z</time></trkpt><trkpt lat="43.8356974" lon="11.7498098"><ele>912.5</ele><time>2026-04-18T17:11:39.187Z</time></trkpt><trkpt lat="43.8357806" lon="11.7496658"><ele>913.25</ele><time>2026-04-18T17:11:40.187Z</time></trkpt><trkpt lat="43.8358722" lon="11.7495301"><ele>914.0</ele><time>2026-04-18T17:11:41.186Z</time></trkpt><trkpt lat="43.8360053" lon="11.7495272"><ele>921.0</ele><time>2026-04-18T17:11:42.188Z</time></trkpt><trkpt lat="43.8361436" lon="11.7495259"><ele>928.0</ele><time>2026-04-18T17:11:43.186Z</time></trkpt><trkpt lat="43.8362861" lon="11.7495422"><ele>935.0</ele><time>2026-04-18T17:11:44.186Z</time></trkpt><trkpt lat="43.8364475" lon="11.7495076"><ele>942.0</ele><time>2026-04-18T17:11:45.187Z</time></trkpt><trkpt lat="43.8366092" lon="11.7494531"><ele>938.6666666666667</ele><time>2026-04-18T17:11:46.187Z</time></trkpt><trkpt lat="43.8367425" lon="11.7492788"><ele>935.3333333333334</ele><time>2026-04-18T17:11:47.187Z</time></trkpt><trkpt lat="43.8368717" lon="11.7491158"><ele>932.0</ele><time>2026-04-18T17:11:48.187Z</time></trkpt><trkpt lat="43.8370192" lon="11.7489794"><ele>932.0</ele><time>2026-04-18T17:11:49.187Z</time></trkpt><trkpt lat="43.8371932" lon="11.7488687"><ele>932.0</ele><time>2026-04-18T17:11:50.187Z</time></trkpt><trkpt lat="43.8373648" lon="11.7487477"><ele>932.0</ele><time>2026-04-18T17:11:51.186Z</time></trkpt><trkpt lat="43.8375031" lon="11.74861"><ele>926.3333333333334</ele><time>2026-04-18T17:11:52.188Z</time></trkpt><trkpt lat="43.8376348" lon="11.7484853"><ele>920.6666666666667</ele><time>2026-04-18T17:11:53.188Z</time></trkpt><trkpt lat="43.8377687" lon="11.7484092"><ele>915.0</ele><time>2026-04-18T17:11:54.187Z</time></trkpt><trkpt lat="43.837916" lon="11.748389"><ele>915.0</ele><time>2026-04-18T17:11:55.187Z</time></trkpt><trkpt lat="43.8380529" lon="11.7484372"><ele>915.0</ele><time>2026-04-18T17:11:56.187Z</time></trkpt><trkpt lat="43.8381758" lon="11.7485427"><ele>915.0</ele><time>2026-04-18T17:11:57.186Z</time></trkpt><trkpt lat="43.8382946" lon="11.7486888"><ele>915.0</ele><time>2026-04-18T17:11:58.188Z</time></trkpt><trkpt lat="43.8384169" lon="11.7488364"><ele>920.0</ele><time>2026-04-18T17:11:59.187Z</time></trkpt><trkpt lat="43.8361203" lon="11.7521728"><ele>920.0</ele><time>2026-04-18T17:11:26.188Z</time></trkpt><trkpt lat="43.8360549" lon="11.7519724"><ele>920.0</ele><time>2026-04-18T17:11:27.187Z</time></trkpt><trkpt lat="43.83598" lon="11.7517654"><ele>920.0</ele><time>2026-04-18T17:11:28.187Z</time></trkpt><trkpt lat="43.8358341" lon="11.7516749"><ele>917.75</ele><time>2026-04-18T17:11:29.188Z</time></trkpt><trkpt lat="43.8357232" lon="11.7515518"><ele>915.5</ele><time>2026-04-18T17:11:30.187Z</time></trkpt><trkpt lat="43.8356439" lon="11.7514062"><ele>913.25</ele><time>2026-04-18T17:11:31.186Z</time></trkpt><trkpt lat="43.8356066" lon="11.7512094"><ele>911.0</ele><time>2026-04-18T17:11:32.187Z</time></trkpt><trkpt lat="43.8355928" lon="11.750979"><ele>911.0</ele><time>2026-04-18T17:11:33.187Z</time></trkpt><trkpt lat="43.8355721" lon="11.7507316"><ele>911.0</ele><time>2026-04-18T17:11:34.186Z</time></trkpt><trkpt lat="43.8355491" lon="11.7505059"><ele>911.0</ele><time>2026-04-18T17:11:35.188Z</time></trkpt><trkpt lat="43.8355427" lon="11.7503144"><ele>911.75</ele><time>2026-04-18T17:11:36.185Z</time></trkpt><trkpt lat="43.8355644" lon="11.7501502"><ele>912.5</ele><time>2026-04-18T17:11:37.187Z</time></trkpt><trkpt lat="43.8356223" lon="11.7499802"><ele>913.25</ele><time>2026-04-18T17:11:38.188Z</time></trkpt><trkpt lat="43.8356974" lon="11.7498098"><ele>914.0</ele><time>2026-04-18T17:11:39.187Z</time></trkpt><trkpt lat="43.8357806" lon="11.7496658"><ele>914.0</ele><time>2026-04-18T17:11:40.187Z</time></trkpt><trkpt lat="43.8358722" lon="11.7495301"><ele>914.0</ele><time>2026-04-18T17:11:41.186Z</time></trkpt><trkpt lat="43.8360053" lon="11.7495272"><ele>914.0</ele><time>2026-04-18T17:11:42.188Z</time></trkpt><trkpt lat="43.8361436" lon="11.7495259"><ele>914.0</ele><time>2026-04-18T17:11:43.186Z</time></trkpt><trkpt lat="43.8362861" lon="11.7495422"><ele>912.0</ele><time>2026-04-18T17:11:44.186Z</time></trkpt><trkpt lat="43.8364475" lon="11.7495076"><ele>910.0</ele><time>2026-04-18T17:11:45.187Z</time></trkpt><trkpt lat="43.8366092" lon="11.7494531"><ele>908.0</ele><time>2026-04-18T17:11:46.187Z</time></trkpt><trkpt lat="43.8367425" lon="11.7492788"><ele>916.0</ele><time>2026-04-18T17:11:47.187Z</time></trkpt><trkpt lat="43.8368717" lon="11.7491158"><ele>924.0</ele><time>2026-04-18T17:11:48.187Z</time></trkpt><trkpt lat="43.8370192" lon="11.7489794"><ele>932.0</ele><time>2026-04-18T17:11:49.187Z</time></trkpt><trkpt lat="43.8371932" lon="11.7488687"><ele>932.0</ele><time>2026-04-18T17:11:50.187Z</time></trkpt><trkpt lat="43.8373648" lon="11.7487477"><ele>932.0</ele><time>2026-04-18T17:11:51.186Z</time></trkpt><trkpt lat="43.8375031" lon="11.74861"><ele>932.0</ele><time>2026-04-18T17:11:52.188Z</time></trkpt><trkpt lat="43.8376348" lon="11.7484853"><ele>927.75</ele><time>2026-04-18T17:11:53.188Z</time></trkpt><trkpt lat="43.8377687" lon="11.7484092"><ele>923.5</ele><time>2026-04-18T17:11:54.187Z</time></trkpt><trkpt lat="43.837916" lon="11.748389"><ele>919.25</ele><time>2026-04-18T17:11:55.187Z</time></trkpt><trkpt lat="43.8380529" lon="11.7484372"><ele>915.0</ele><time>2026-04-18T17:11:56.187Z</time></trkpt><trkpt lat="43.8381758" lon="11.7485427"><ele>919.3333333333333</ele><time>2026-04-18T17:11:57.186Z</time></trkpt><trkpt lat="43.8382946" lon="11.7486888"><ele>923.6666666666666</ele><time>2026-04-18T17:11:58.188Z</time></trkpt><trkpt lat="43.8384169" lon="11.7488364"><ele>928.0</ele><time>2026-04-18T17:11:59.187Z</time></trkpt><trkpt lat="43.838543" lon="11.7489497"><ele>928.0</ele><time>2026-04-18T17:12:00.187Z</time></trkpt><trkpt lat="43.8386794" lon="11.7490386"><ele>928.0</ele><time>2026-04-18T17:12:01.186Z</time></trkpt><trkpt lat="43.8388452" lon="11.7491205"><ele>928.0</ele><time>2026-04-18T17:12:02.187Z</time></trkpt><trkpt lat="43.8390283" lon="11.7490999"><ele>928.0</ele><time>2026-04-18T17:12:03.186Z</time></trkpt><trkpt lat="43.8392115" lon="11.7490964"><ele>928.0</ele><time>2026-04-18T17:12:04.188Z</time></trkpt><trkpt lat="43.8393939" lon="11.7491066"><ele>928.0</ele><time>2026-04-18T17:12:05.188Z</time></trkpt><trkpt lat="43.8395614" lon="11.7491161"><ele>933.0</ele><time>2026-04-18T17:12:06.187Z</time></trkpt><trkpt lat="43.8397221" lon="11.7490586"><ele>938.0</ele><time>2026-04-18T17:12:07.186Z</time></trkpt><trkpt lat="43.8398683" lon="11.7489734"><ele>943.0</ele><time>2026-04-18T17:12:08.187Z</time></trkpt><trkpt lat="43.8400186" lon="11.7488793"><ele>943.0</ele><time>2026-04-18T17:12:09.186Z</time></trkpt><trkpt lat="43.8400633" lon="11.7486426"><ele>943.0</ele><time>2026-04-18T17:12:10.186Z</time></trkpt><trkpt lat="43.8401438" lon="11.7484838"><ele>943.0</ele><time>2026-04-18T17:12:11.187Z</time></trkpt><trkpt lat="43.8402601" lon="11.7483275"><ele>946.0</ele><time>2026-04-18T17:12:12.187Z</time></trkpt><trkpt lat="43.8403957" lon="11.7481926"><ele>949.0</ele><time>2026-04-18T17:12:13.187Z</time></trkpt><trkpt lat="43.8405308" lon="11.7480873"><ele>952.0</ele><time>2026-04-18T17:12:14.186Z</time></trkpt><trkpt lat="43.840704" lon="11.7480181"><ele>952.0</ele><time>2026-04-18T17:12:15.186Z</time></trkpt><trkpt lat="43.8408939" lon="11.7479822"><ele>952.0</ele><time>2026-04-18T17:12:16.187Z</time></trkpt><trkpt lat="43.8410941" lon="11.7479382"><ele>952.0</ele><time>2026-04-18T17:12:17.187Z</time></trkpt><trkpt lat="43.8412774" lon="11.7478884"><ele>956.0</ele><time>2026-04-18T17:12:18.187Z</time></trkpt><trkpt lat="43.8414402" lon="11.7478476"><ele>960.0</ele><time>2026-04-18T17:12:19.187Z</time></trkpt><trkpt lat="43.8416052" lon="11.7478226"><ele>964.0</ele><time>2026-04-18T17:12:20.187Z</time></trkpt><trkpt lat="43.8417559" lon="11.7478359"><ele>962.6666666666666</ele><time>2026-04-18T17:12:21.187Z</time></trkpt><trkpt lat="43.8419105" lon="11.747989"><ele>961.3333333333333</ele><time>2026-04-18T17:12:22.186Z</time></trkpt><trkpt lat="43.8421006" lon="11.7480322"><ele>960.0</ele><time>2026-04-18T17:12:23.187Z</time></trkpt><trkpt lat="43.8422991" lon="11.7480384"><ele>960.0</ele><time>2026-04-18T17:12:24.188Z</time></trkpt><trkpt lat="43.8424877" lon="11.7480512"><ele>960.0</ele><time>2026-04-18T17:12:25.188Z</time></trkpt><trkpt lat="43.8426349" lon="11.74795"><ele>960.0</ele><time>2026-04-18T17:12:26.187Z</time></trkpt><trkpt lat="43.8427926" lon="11.7478883"><ele>960.0</ele><time>2026-04-18T17:12:27.187Z</time></trkpt><trkpt lat="43.8429417" lon="11.7477945"><ele>960.0</ele><time>2026-04-18T17:12:28.187Z</time></trkpt><trkpt lat="43.842962" lon="11.7475038"><ele>960.0</ele><time>2026-04-18T17:12:29.186Z</time></trkpt><trkpt lat="43.8430379" lon="11.7473194"><ele>957.25</ele><time>2026-04-18T17:12:30.188Z</time></trkpt><trkpt lat="43.8431518" lon="11.7471968"><ele>954.5</ele><time>2026-04-18T17:12:31.188Z</time></trkpt><trkpt lat="43.8432797" lon="11.7471475"><ele>951.75</ele><time>2026-04-18T17:12:32.187Z</time></trkpt><trkpt lat="43.8434359" lon="11.7471226"><ele>949.0</ele><time>2026-04-18T17:12:33.187Z</time></trkpt><trkpt lat="43.8436024" lon="11.7471474"><ele>947.0</ele><time>2026-04-18T17:12:34.186Z</time></trkpt><trkpt lat="43.84375" lon="11.7471746"><ele>945.0</ele><time>2026-04-18T17:12:35.186Z</time></trkpt><trkpt lat="43.8438609" lon="11.7472068"><ele>943.0</ele><time>2026-04-18T17:12:36.187Z</time></trkpt><trkpt lat="43.8439449" lon="11.7472886"><ele>941.0</ele><time>2026-04-18T17:12:37.186Z</time></trkpt><trkpt lat="43.8439858" lon="11.7474017"><ele>941.0</ele><time>2026-04-18T17:12:38.187Z</time></trkpt><trkpt lat="43.8439731" lon="11.7475207"><ele>940.9999999999999</ele><time>2026-04-18T17:12:39.187Z</time></trkpt><trkpt lat="43.8439082" lon="11.7476224"><ele>940.9999999999999</ele><time>2026-04-18T17:12:40.187Z</time></trkpt><trkpt lat="43.8438206" lon="11.747668"><ele>941.0</ele><time>2026-04-18T17:12:41.187Z</time></trkpt><trkpt lat="43.8437164" lon="11.7476187"><ele>941.0</ele><time>2026-04-18T17:12:42.187Z</time></trkpt><trkpt lat="43.8435997" lon="11.7475766"><ele>941.0</ele><time>2026-04-18T17:12:43.188Z</time></trkpt><trkpt lat="43.8435077" lon="11.7475084"><ele>941.0</ele><time>2026-04-18T17:12:44.188Z</time></trkpt><trkpt lat="43.8433857" lon="11.7475064"><ele>941.0</ele><time>2026-04-18T17:12:45.187Z</time></trkpt><trkpt lat="43.8432608" lon="11.7475444"><ele>941.0</ele><time>2026-04-18T17:12:46.186Z</time></trkpt><trkpt lat="43.8431653" lon="11.7476359"><ele>945.75</ele><time>2026-04-18T17:12:47.186Z</time></trkpt><trkpt lat="43.8431054" lon="11.7477733"><ele>950.5</ele><time>2026-04-18T17:12:48.187Z</time></trkpt><trkpt lat="43.8430773" lon="11.7479732"><ele>955.25</ele><time>2026-04-18T17:12:49.187Z</time></trkpt><trkpt lat="43.8430412" lon="11.7481621"><ele>960.0</ele><time>2026-04-18T17:12:50.188Z</time></trkpt><trkpt lat="43.8429826" lon="11.7483595"><ele>960.0</ele><time>2026-04-18T17:12:51.188Z</time></trkpt><trkpt lat="43.8429284" lon="11.7485157"><ele>960.0</ele><time>2026-04-18T17:12:52.187Z</time></trkpt><trkpt lat="43.8428794" lon="11.7486454"><ele>960.0</ele><time>2026-04-18T17:12:53.188Z</time></trkpt><trkpt lat="43.8428338" lon="11.7487905"><ele>960.0</ele><time>2026-04-18T17:12:54.187Z</time></trkpt><trkpt lat="43.842838" lon="11.7489461"><ele>968.3333333333333</ele><time>2026-04-18T17:12:55.187Z</time></trkpt><trkpt lat="43.8428503" lon="11.7490675"><ele>976.6666666666666</ele><time>2026-04-18T17:12:56.186Z</time></trkpt><trkpt lat="43.8431297" lon="11.7490255"><ele>985.0</ele><time>2026-04-18T17:12:57.186Z</time></trkpt><trkpt lat="43.8432353" lon="11.7490161"><ele>985.0</ele><time>2026-04-18T17:12:58.188Z</time></trkpt><trkpt lat="43.8433703" lon="11.7489273"><ele>985.0</ele><time>2026-04-18T17:12:59.187Z</time></trkpt><trkpt lat="43.8434989" lon="11.7488378"><ele>985.0</ele><time>2026-04-18T17:13:00.187Z</time></trkpt><trkpt lat="43.8436406" lon="11.7487079"><ele>984.5</ele><time>2026-04-18T17:13:01.187Z</time></trkpt><trkpt lat="43.8437524" lon="11.7486086"><ele>984.0</ele><time>2026-04-18T17:13:02.186Z</time></trkpt><trkpt lat="43.843869" lon="11.7485397"><ele>983.5</ele><time>2026-04-18T17:13:03.187Z</time></trkpt><trkpt lat="43.8439808" lon="11.7485247"><ele>983.0</ele><time>2026-04-18T17:13:04.186Z</time></trkpt><trkpt lat="43.8440938" lon="11.748565"><ele>983.0</ele><time>2026-04-18T17:13:05.188Z</time></trkpt><trkpt lat="43.8441883" lon="11.7486554"><ele>983.0</ele><time>2026-04-18T17:13:06.188Z</time></trkpt><trkpt lat="43.8442496" lon="11.7487918"><ele>983.0</ele><time>2026-04-18T17:13:07.187Z</time></trkpt><trkpt lat="43.8443085" lon="11.7489583"><ele>983.0</ele><time>2026-04-18T17:13:08.187Z</time></trkpt><trkpt lat="43.8443799" lon="11.7491072"><ele>984.2</ele><time>2026-04-18T17:13:09.186Z</time></trkpt><trkpt lat="43.8444672" lon="11.7492203"><ele>985.4</ele><time>2026-04-18T17:13:10.187Z</time></trkpt><trkpt lat="43.8445702" lon="11.7492955"><ele>986.6000000000001</ele><time>2026-04-18T17:13:11.187Z</time></trkpt><trkpt lat="43.8446559" lon="11.7493695"><ele>987.8000000000001</ele><time>2026-04-18T17:13:12.188Z</time></trkpt><trkpt lat="43.8447091" lon="11.7495053"><ele>989.0</ele><time>2026-04-18T17:13:13.188Z</time></trkpt><trkpt lat="43.8447177" lon="11.74965"><ele>989.0</ele><time>2026-04-18T17:13:14.186Z</time></trkpt><trkpt lat="43.8446848" lon="11.7497707"><ele>989.0000000000001</ele><time>2026-04-18T17:13:15.186Z</time></trkpt><trkpt lat="43.8446214" lon="11.7498831"><ele>989.0000000000001</ele><time>2026-04-18T17:13:16.187Z</time></trkpt><trkpt lat="43.8445659" lon="11.7500009"><ele>989.0</ele><time>2026-04-18T17:13:17.185Z</time></trkpt><trkpt lat="43.8445483" lon="11.7501388"><ele>989.0</ele><time>2026-04-18T17:13:18.188Z</time></trkpt><trkpt lat="43.8445975" lon="11.7502673"><ele>989.0</ele><time>2026-04-18T17:13:19.187Z</time></trkpt><trkpt lat="43.8446427" lon="11.7503797"><ele>989.0000000000001</ele><time>2026-04-18T17:13:20.186Z</time></trkpt><trkpt lat="43.844754" lon="11.7503935"><ele>989.0000000000001</ele><time>2026-04-18T17:13:21.187Z</time></trkpt><trkpt lat="43.8448505" lon="11.7503666"><ele>989.0</ele><time>2026-04-18T17:13:22.186Z</time></trkpt><trkpt lat="43.8449427" lon="11.7502675"><ele>989.0</ele><time>2026-04-18T17:13:23.188Z</time></trkpt><trkpt lat="43.8450344" lon="11.7501293"><ele>989.25</ele><time>2026-04-18T17:13:24.188Z</time></trkpt><trkpt lat="43.845133" lon="11.7500077"><ele>989.5</ele><time>2026-04-18T17:13:25.188Z</time></trkpt><trkpt lat="43.8452398" lon="11.7498865"><ele>989.75</ele><time>2026-04-18T17:13:26.188Z</time></trkpt><trkpt lat="43.8453329" lon="11.7497725"><ele>990.0</ele><time>2026-04-18T17:13:27.187Z</time></trkpt><trkpt lat="43.8454342" lon="11.7497124"><ele>990.0</ele><time>2026-04-18T17:13:28.187Z</time></trkpt><trkpt lat="43.8455402" lon="11.749694"><ele>990.0</ele><time>2026-04-18T17:13:29.186Z</time></trkpt><trkpt lat="43.8456367" lon="11.7497579"><ele>990.0</ele><time>2026-04-18T17:13:30.188Z</time></trkpt><trkpt lat="43.8457016" lon="11.749864"><ele>990.0</ele><time>2026-04-18T17:13:31.188Z</time></trkpt><trkpt lat="43.8457499" lon="11.7499849"><ele>990.0</ele><time>2026-04-18T17:13:32.188Z</time></trkpt><trkpt lat="43.8457812" lon="11.7502652"><ele>995.3333333333333</ele><time>2026-04-18T17:13:33.186Z</time></trkpt><trkpt lat="43.8458264" lon="11.7504817"><ele>1000.6666666666666</ele><time>2026-04-18T17:13:34.187Z</time></trkpt><trkpt lat="43.8458789" lon="11.7507382"><ele>1006.0</ele><time>2026-04-18T17:13:35.188Z</time></trkpt><trkpt lat="43.8459226" lon="11.750944"><ele>1009.5</ele><time>2026-04-18T17:13:36.186Z</time></trkpt><trkpt lat="43.8459651" lon="11.7511482"><ele>1013.0</ele><time>2026-04-18T17:13:37.186Z</time></trkpt><trkpt lat="43.8459595" lon="11.7513021"><ele>1016.5</ele><time>2026-04-18T17:13:38.187Z</time></trkpt><trkpt lat="43.8459836" lon="11.7514391"><ele>1020.0</ele><time>2026-04-18T17:13:39.185Z</time></trkpt><trkpt lat="43.8460216" lon="11.7515476"><ele>1020.0</ele><time>2026-04-18T17:13:40.188Z</time></trkpt><trkpt lat="43.8460721" lon="11.7516475"><ele>1020.0</ele><time>2026-04-18T17:13:41.186Z</time></trkpt><trkpt lat="43.8461354" lon="11.7517348"><ele>1020.0</ele><time>2026-04-18T17:13:42.185Z</time></trkpt><trkpt lat="43.8462591" lon="11.7517718"><ele>1020.0</ele><time>2026-04-18T17:13:43.185Z</time></trkpt><trkpt lat="43.8463942" lon="11.7517116"><ele>1020.0</ele><time>2026-04-18T17:13:44.187Z</time></trkpt><trkpt lat="43.8465754" lon="11.7514145"><ele>1020.0</ele><time>2026-04-18T17:13:45.186Z</time></trkpt><trkpt lat="43.8466983" lon="11.7513543"><ele>1020.0</ele><time>2026-04-18T17:13:46.188Z</time></trkpt><trkpt lat="43.8468122" lon="11.7513454"><ele>1020.0</ele><time>2026-04-18T17:13:47.186Z</time></trkpt><trkpt lat="43.8469161" lon="11.7514334"><ele>1020.0</ele><time>2026-04-18T17:13:48.186Z</time></trkpt><trkpt lat="43.8470367" lon="11.751543"><ele>1018.3333333333333</ele><time>2026-04-18T17:13:49.188Z</time></trkpt><trkpt lat="43.8471994" lon="11.7516209"><ele>1016.6666666666666</ele><time>2026-04-18T17:13:50.188Z</time></trkpt><trkpt lat="43.8473393" lon="11.751707"><ele>1015.0</ele><time>2026-04-18T17:13:51.188Z</time></trkpt><trkpt lat="43.847484" lon="11.7517067"><ele>1015.0</ele><time>2026-04-18T17:13:52.187Z</time></trkpt><trkpt lat="43.8476284" lon="11.7518116"><ele>1015.0</ele><time>2026-04-18T17:13:53.187Z</time></trkpt><trkpt lat="43.8477783" lon="11.7519251"><ele>1015.0</ele><time>2026-04-18T17:13:54.186Z</time></trkpt><trkpt lat="43.8478704" lon="11.7521398"><ele>1019.3333333333333</ele><time>2026-04-18T17:13:55.185Z</time></trkpt><trkpt lat="43.8479435" lon="11.7523311"><ele>1023.6666666666667</ele><time>2026-04-18T17:13:56.187Z</time></trkpt><trkpt lat="43.8479947" lon="11.7525334"><ele>1028.0</ele><time>2026-04-18T17:13:57.184Z</time></trkpt><trkpt lat="43.8480469" lon="11.7527261"><ele>1032.75</ele><time>2026-04-18T17:13:58.187Z</time></trkpt><trkpt lat="43.848097" lon="11.7529095"><ele>1037.5</ele><time>2026-04-18T17:13:59.187Z</time></trkpt><trkpt lat="43.8481729" lon="11.7530851"><ele>1042.25</ele><time>2026-04-18T17:14:00.185Z</time></trkpt><trkpt lat="43.8482631" lon="11.7532141"><ele>1047.0</ele><time>2026-04-18T17:14:01.186Z</time></trkpt><trkpt lat="43.8484176" lon="11.7532532"><ele>1054.3333333333333</ele><time>2026-04-18T17:14:02.187Z</time></trkpt><trkpt lat="43.8485694" lon="11.7532751"><ele>1061.6666666666665</ele><time>2026-04-18T17:14:03.186Z</time></trkpt><trkpt lat="43.8487141" lon="11.7532507"><ele>1069.0</ele><time>2026-04-18T17:14:04.186Z</time></trkpt><trkpt lat="43.8487091" lon="11.7528363"><ele>1064.0</ele><time>2026-04-18T17:14:05.187Z</time></trkpt><trkpt lat="43.848774" lon="11.7526581"><ele>1059.0</ele><time>2026-04-18T17:14:06.187Z</time></trkpt><trkpt lat="43.8488293" lon="11.7524622"><ele>1054.0</ele><time>2026-04-18T17:14:07.186Z</time></trkpt><trkpt lat="43.8488729" lon="11.752271"><ele>1049.0</ele><time>2026-04-18T17:14:08.186Z</time></trkpt><trkpt lat="43.8490011" lon="11.7521878"><ele>1049.0</ele><time>2026-04-18T17:14:09.186Z</time></trkpt><trkpt lat="43.8491251" lon="11.7521364"><ele>1049.0</ele><time>2026-04-18T17:14:10.186Z</time></trkpt><trkpt lat="43.8492664" lon="11.7521123"><ele>1049.0</ele><time>2026-04-18T17:14:11.187Z</time></trkpt><trkpt lat="43.8493792" lon="11.7520968"><ele>1049.0</ele><time>2026-04-18T17:14:12.186Z</time></trkpt><trkpt lat="43.8494809" lon="11.7520202"><ele>1054.75</ele><time>2026-04-18T17:14:13.187Z</time></trkpt><trkpt lat="43.8495636" lon="11.7519002"><ele>1060.5</ele><time>2026-04-18T17:14:14.187Z</time></trkpt><trkpt lat="43.8496021" lon="11.7516945"><ele>1066.25</ele><time>2026-04-18T17:14:15.186Z</time></trkpt><trkpt lat="43.8496482" lon="11.751496"><ele>1072.0</ele><time>2026-04-18T17:14:16.186Z</time></trkpt><trkpt lat="43.8496404" lon="11.7512599"><ele>1072.0</ele><time>2026-04-18T17:14:17.188Z</time></trkpt><trkpt lat="43.8497029" lon="11.7510416"><ele>1072.0</ele><time>2026-04-18T17:14:18.186Z</time></trkpt><trkpt lat="43.8498034" lon="11.7508512"><ele>1072.0</ele><time>2026-04-18T17:14:19.186Z</time></trkpt><trkpt lat="43.849939" lon="11.7506783"><ele>1065.3333333333333</ele><time>2026-04-18T17:14:20.186Z</time></trkpt><trkpt lat="43.8500819" lon="11.7505293"><ele>1058.6666666666667</ele><time>2026-04-18T17:14:21.186Z</time></trkpt><trkpt lat="43.8502474" lon="11.7504051"><ele>1052.0</ele><time>2026-04-18T17:14:22.186Z</time></trkpt><trkpt lat="43.8504381" lon="11.7503192"><ele>1052.0</ele><time>2026-04-18T17:14:23.186Z</time></trkpt><trkpt lat="43.8506278" lon="11.7502422"><ele>1052.0</ele><time>2026-04-18T17:14:24.187Z</time></trkpt><trkpt lat="43.8507951" lon="11.7501683"><ele>1052.0</ele><time>2026-04-18T17:14:25.187Z</time></trkpt><trkpt lat="43.8509605" lon="11.7501067"><ele>1061.75</ele><time>2026-04-18T17:14:26.186Z</time></trkpt><trkpt lat="43.8510766" lon="11.7499995"><ele>1071.5</ele><time>2026-04-18T17:14:27.186Z</time></trkpt><trkpt lat="43.851182" lon="11.7498531"><ele>1081.25</ele><time>2026-04-18T17:14:28.186Z</time></trkpt><trkpt lat="43.8512838" lon="11.7496915"><ele>1091.0</ele><time>2026-04-18T17:14:29.185Z</time></trkpt><trkpt lat="43.8513977" lon="11.7495572"><ele>1091.0</ele><time>2026-04-18T17:14:30.187Z</time></trkpt><trkpt lat="43.8515015" lon="11.7494623"><ele>1091.0</ele><time>2026-04-18T17:14:31.186Z</time></trkpt><trkpt lat="43.8515707" lon="11.749365"><ele>1091.0</ele><time>2026-04-18T17:14:32.186Z</time></trkpt><trkpt lat="43.8516224" lon="11.7492555"><ele>1091.0</ele><time>2026-04-18T17:14:33.185Z</time></trkpt><trkpt lat="43.8516112" lon="11.7491008"><ele>1091.0</ele><time>2026-04-18T17:14:34.187Z</time></trkpt><trkpt lat="43.8515135" lon="11.7489789"><ele>1087.25</ele><time>2026-04-18T17:14:35.187Z</time></trkpt><trkpt lat="43.8514131" lon="11.7488647"><ele>1083.5</ele><time>2026-04-18T17:14:36.185Z</time></trkpt><trkpt lat="43.8513171" lon="11.7487586"><ele>1079.75</ele><time>2026-04-18T17:14:37.187Z</time></trkpt><trkpt lat="43.8512491" lon="11.7486347"><ele>1076.0</ele><time>2026-04-18T17:14:38.186Z</time></trkpt><trkpt lat="43.8512263" lon="11.7485079"><ele>1075.3999999999999</ele><time>2026-04-18T17:14:39.188Z</time></trkpt><trkpt lat="43.8512729" lon="11.7483922"><ele>1074.8</ele><time>2026-04-18T17:14:40.188Z</time></trkpt><trkpt lat="43.8513532" lon="11.7483241"><ele>1074.1999999999998</ele><time>2026-04-18T17:14:41.188Z</time></trkpt><trkpt lat="43.8514352" lon="11.7482557"><ele>1073.6</ele><time>2026-04-18T17:14:42.188Z</time></trkpt><trkpt lat="43.8515647" lon="11.748209"><ele>1073.0</ele><time>2026-04-18T17:14:43.187Z</time></trkpt><trkpt lat="43.8516833" lon="11.7480685"><ele>1079.3333333333335</ele><time>2026-04-18T17:14:44.187Z</time></trkpt><trkpt lat="43.851805" lon="11.7479443"><ele>1085.6666666666667</ele><time>2026-04-18T17:14:45.185Z</time></trkpt><trkpt lat="43.8518689" lon="11.7477214"><ele>1092.0</ele><time>2026-04-18T17:14:46.186Z</time></trkpt><trkpt lat="43.8519603" lon="11.7475539"><ele>1092.0</ele><time>2026-04-18T17:14:47.186Z</time></trkpt><trkpt lat="43.8520816" lon="11.7474113"><ele>1092.0</ele><time>2026-04-18T17:14:48.188Z</time></trkpt><trkpt lat="43.8521962" lon="11.7472583"><ele>1092.0</ele><time>2026-04-18T17:14:49.188Z</time></trkpt><trkpt lat="43.8523548" lon="11.7471326"><ele>1092.0</ele><time>2026-04-18T17:14:50.186Z</time></trkpt><trkpt lat="43.8525177" lon="11.7469912"><ele>1092.0</ele><time>2026-04-18T17:14:51.188Z</time></trkpt><trkpt lat="43.8526886" lon="11.746844"><ele>1092.0</ele><time>2026-04-18T17:14:52.187Z</time></trkpt><trkpt lat="43.8528629" lon="11.7466912"><ele>1096.3333333333333</ele><time>2026-04-18T17:14:53.188Z</time></trkpt><trkpt lat="43.8530018" lon="11.746541"><ele>1100.6666666666665</ele><time>2026-04-18T17:14:54.187Z</time></trkpt><trkpt lat="43.8531277" lon="11.7463973"><ele>1105.0</ele><time>2026-04-18T17:14:55.187Z</time></trkpt><trkpt lat="43.8532332" lon="11.7462797"><ele>1105.0</ele><time>2026-04-18T17:14:56.186Z</time></trkpt><trkpt lat="43.8533063" lon="11.746183"><ele>1105.0</ele><time>2026-04-18T17:14:57.187Z</time></trkpt><trkpt lat="43.8533321" lon="11.7460581"><ele>1105.0</ele><time>2026-04-18T17:14:58.187Z</time></trkpt><trkpt lat="43.8533169" lon="11.7459391"><ele>1105.0</ele><time>2026-04-18T17:14:59.188Z</time></trkpt><trkpt lat="43.8532505" lon="11.7458503"><ele>1105.0</ele><time>2026-04-18T17:15:00.188Z</time></trkpt><trkpt lat="43.8531741" lon="11.745759"><ele>1102.75</ele><time>2026-04-18T17:15:01.186Z</time></trkpt><trkpt lat="43.8530509" lon="11.745686"><ele>1100.5</ele><time>2026-04-18T17:15:02.186Z</time></trkpt><trkpt lat="43.8529159" lon="11.745647"><ele>1098.25</ele><time>2026-04-18T17:15:03.187Z</time></trkpt><trkpt lat="43.8527562" lon="11.745616"><ele>1096.0</ele><time>2026-04-18T17:15:04.187Z</time></trkpt><trkpt lat="43.8526039" lon="11.7457808"><ele>1093.75</ele><time>2026-04-18T17:15:05.187Z</time></trkpt><trkpt lat="43.8524843" lon="11.7457677"><ele>1091.5</ele><time>2026-04-18T17:15:06.187Z</time></trkpt><trkpt lat="43.8523793" lon="11.7456722"><ele>1089.25</ele><time>2026-04-18T17:15:07.188Z</time></trkpt><trkpt lat="43.8522941" lon="11.7455717"><ele>1087.0</ele><time>2026-04-18T17:15:08.187Z</time></trkpt><trkpt lat="43.8522492" lon="11.7454065"><ele>1087.0</ele><time>2026-04-18T17:15:09.188Z</time></trkpt><trkpt lat="43.8522432" lon="11.7452186"><ele>1087.0</ele><time>2026-04-18T17:15:10.187Z</time></trkpt><trkpt lat="43.8522743" lon="11.7450375"><ele>1087.0</ele><time>2026-04-18T17:15:11.186Z</time></trkpt><trkpt lat="43.8523488" lon="11.7448812"><ele>1087.0</ele><time>2026-04-18T17:15:12.188Z</time></trkpt><trkpt lat="43.8524646" lon="11.7447543"><ele>1090.0</ele><time>2026-04-18T17:15:13.188Z</time></trkpt><trkpt lat="43.8525951" lon="11.7446946"><ele>1093.0</ele><time>2026-04-18T17:15:14.188Z</time></trkpt><trkpt lat="43.8527239" lon="11.7447107"><ele>1096.0</ele><time>2026-04-18T17:15:15.187Z</time></trkpt><trkpt lat="43.8528653" lon="11.744723"><ele>1099.0</ele><time>2026-04-18T17:15:16.188Z</time></trkpt><trkpt lat="43.8529486" lon="11.7449483"><ele>1098.25</ele><time>2026-04-18T17:15:17.188Z</time></trkpt><trkpt lat="43.8530166" lon="11.7451081"><ele>1097.5</ele><time>2026-04-18T17:15:18.187Z</time></trkpt><trkpt lat="43.8530768" lon="11.7452591"><ele>1096.75</ele><time>2026-04-18T17:15:19.188Z</time></trkpt><trkpt lat="43.8531539" lon="11.7453777"><ele>1096.0</ele><time>2026-04-18T17:15:20.187Z</time></trkpt><trkpt lat="43.8532719" lon="11.7454236"><ele>1096.0</ele><time>2026-04-18T17:15:21.187Z</time></trkpt><trkpt lat="43.8533932" lon="11.7454075"><ele>1096.0</ele><time>2026-04-18T17:15:22.186Z</time></trkpt><trkpt lat="43.8535172" lon="11.7453174"><ele>1096.0</ele><time>2026-04-18T17:15:23.187Z</time></trkpt><trkpt lat="43.85363" lon="11.7451758"><ele>1096.0</ele><time>2026-04-18T17:15:24.188Z</time></trkpt><trkpt lat="43.853744" lon="11.7450501"><ele>1103.0</ele><time>2026-04-18T17:15:25.187Z</time></trkpt><trkpt lat="43.853823" lon="11.7449179"><ele>1110.0</ele><time>2026-04-18T17:15:26.187Z</time></trkpt><trkpt lat="43.8539266" lon="11.7448552"><ele>1117.0</ele><time>2026-04-18T17:15:27.188Z</time></trkpt><trkpt lat="43.8540476" lon="11.7448006"><ele>1124.0</ele><time>2026-04-18T17:15:28.186Z</time></trkpt><trkpt lat="43.8541505" lon="11.7448752"><ele>1124.0</ele><time>2026-04-18T17:15:29.187Z</time></trkpt><trkpt lat="43.854256" lon="11.7449369"><ele>1124.0</ele><time>2026-04-18T17:15:30.186Z</time></trkpt><trkpt lat="43.8543252" lon="11.7450291"><ele>1124.0</ele><time>2026-04-18T17:15:31.187Z</time></trkpt><trkpt lat="43.8543588" lon="11.7451498"><ele>1124.0</ele><time>2026-04-18T17:15:32.187Z</time></trkpt><trkpt lat="43.854342" lon="11.7453052"><ele>1124.0</ele><time>2026-04-18T17:15:33.188Z</time></trkpt><trkpt lat="43.8542874" lon="11.7454832"><ele>1125.0</ele><time>2026-04-18T17:15:34.187Z</time></trkpt><trkpt lat="43.8542268" lon="11.7456774"><ele>1126.0</ele><time>2026-04-18T17:15:35.188Z</time></trkpt><trkpt lat="43.8541511" lon="11.7458666"><ele>1127.0</ele><time>2026-04-18T17:15:36.187Z</time></trkpt><trkpt lat="43.8540856" lon="11.7460732"><ele>1132.0</ele><time>2026-04-18T17:15:37.187Z</time></trkpt><trkpt lat="43.8540193" lon="11.7462702"><ele>1137.0</ele><time>2026-04-18T17:15:38.184Z</time></trkpt><trkpt lat="43.8539488" lon="11.7464838"><ele>1142.0</ele><time>2026-04-18T17:15:39.186Z</time></trkpt><trkpt lat="43.8538862" lon="11.7467032"><ele>1147.25</ele><time>2026-04-18T17:15:40.187Z</time></trkpt><trkpt lat="43.8538188" lon="11.746899"><ele>1152.5</ele><time>2026-04-18T17:15:41.186Z</time></trkpt><trkpt lat="43.8537162" lon="11.7470508"><ele>1157.75</ele><time>2026-04-18T17:15:42.187Z</time></trkpt><trkpt lat="43.8536197" lon="11.7471706"><ele>1163.0</ele><time>2026-04-18T17:15:43.188Z</time></trkpt><trkpt lat="43.8535112" lon="11.7472469"><ele>1163.0</ele><time>2026-04-18T17:15:44.188Z</time></trkpt><trkpt lat="43.8534098" lon="11.7473384"><ele>1163.0</ele><time>2026-04-18T17:15:45.187Z</time></trkpt><trkpt lat="43.8533558" lon="11.7474551"><ele>1163.0</ele><time>2026-04-18T17:15:46.185Z</time></trkpt><trkpt lat="43.8533139" lon="11.7475597"><ele>1163.0</ele><time>2026-04-18T17:15:47.187Z</time></trkpt><trkpt lat="43.8532842" lon="11.7476552"><ele>1163.0</ele><time>2026-04-18T17:15:48.186Z</time></trkpt><trkpt lat="43.8535316" lon="11.7476802"><ele>1163.0</ele><time>2026-04-18T17:15:49.188Z</time></trkpt><trkpt lat="43.8536072" lon="11.7476716"><ele>1163.0</ele><time>2026-04-18T17:15:50.186Z</time></trkpt><trkpt lat="43.8536952" lon="11.7475975"><ele>1163.0</ele><time>2026-04-18T17:15:51.186Z</time></trkpt><trkpt lat="43.8537852" lon="11.7474576"><ele>1163.0</ele><time>2026-04-18T17:15:52.186Z</time></trkpt><trkpt lat="43.8538815" lon="11.7472645"><ele>1163.0</ele><time>2026-04-18T17:15:53.185Z</time></trkpt><trkpt lat="43.853988" lon="11.7470549"><ele>1163.0</ele><time>2026-04-18T17:15:54.187Z</time></trkpt><trkpt lat="43.8541047" lon="11.7468168"><ele>1163.0</ele><time>2026-04-18T17:15:55.186Z</time></trkpt><trkpt lat="43.8542176" lon="11.7465726"><ele>1165.0</ele><time>2026-04-18T17:15:56.187Z</time></trkpt><trkpt lat="43.8543138" lon="11.7463359"><ele>1167.0</ele><time>2026-04-18T17:15:57.188Z</time></trkpt><trkpt lat="43.85442" lon="11.7460878"><ele>1169.0</ele><time>2026-04-18T17:15:58.185Z</time></trkpt><trkpt lat="43.8545335" lon="11.7458441"><ele>1169.0</ele><time>2026-04-18T17:15:59.185Z</time></trkpt><trkpt lat="43.8546578" lon="11.7456177"><ele>1169.0</ele><time>2026-04-18T17:16:00.184Z</time></trkpt><trkpt lat="43.8548021" lon="11.7454119"><ele>1169.0</ele><time>2026-04-18T17:16:01.186Z</time></trkpt><trkpt lat="43.8549219" lon="11.7452061"><ele>1174.0</ele><time>2026-04-18T17:16:02.188Z</time></trkpt><trkpt lat="43.8550629" lon="11.7450789"><ele>1179.0</ele><time>2026-04-18T17:16:03.187Z</time></trkpt><trkpt lat="43.8551892" lon="11.7449611"><ele>1184.0</ele><time>2026-04-18T17:16:04.187Z</time></trkpt><trkpt lat="43.8553064" lon="11.7448402"><ele>1184.0</ele><time>2026-04-18T17:16:05.186Z</time></trkpt><trkpt lat="43.8553946" lon="11.7447261"><ele>1184.0</ele><time>2026-04-18T17:16:06.186Z</time></trkpt><trkpt lat="43.8554285" lon="11.74456"><ele>1184.0</ele><time>2026-04-18T17:16:07.186Z</time></trkpt><trkpt lat="43.8554358" lon="11.7443929"><ele>1184.0</ele><time>2026-04-18T17:16:08.187Z</time></trkpt><trkpt lat="43.855335" lon="11.7442493"><ele>1173.3333333333335</ele><time>2026-04-18T17:16:09.187Z</time></trkpt><trkpt lat="43.8550592" lon="11.7441811"><ele>1162.6666666666667</ele><time>2026-04-18T17:16:10.187Z</time></trkpt><trkpt lat="43.8549366" lon="11.7441044"><ele>1152.0</ele><time>2026-04-18T17:16:11.186Z</time></trkpt><trkpt lat="43.8548205" lon="11.7439824"><ele>1152.0</ele><time>2026-04-18T17:16:12.187Z</time></trkpt><trkpt lat="43.8547122" lon="11.7438482"><ele>1152.0</ele><time>2026-04-18T17:16:13.187Z</time></trkpt><trkpt lat="43.8546715" lon="11.7436399"><ele>1152.0</ele><time>2026-04-18T17:16:14.186Z</time></trkpt><trkpt lat="43.8546482" lon="11.7434335"><ele>1154.75</ele><time>2026-04-18T17:16:15.187Z</time></trkpt><trkpt lat="43.8546699" lon="11.7432169"><ele>1157.5</ele><time>2026-04-18T17:16:16.187Z</time></trkpt><trkpt lat="43.8547084" lon="11.74304"><ele>1160.25</ele><time>2026-04-18T17:16:17.187Z</time></trkpt><trkpt lat="43.854761" lon="11.7428967"><ele>1163.0</ele><time>2026-04-18T17:16:18.186Z</time></trkpt><trkpt lat="43.8548353" lon="11.7428119"><ele>1163.0</ele><time>2026-04-18T17:16:19.186Z</time></trkpt><trkpt lat="43.8549273" lon="11.7427903"><ele>1163.0</ele><time>2026-04-18T17:16:20.187Z</time></trkpt><trkpt lat="43.8550114" lon="11.7428414"><ele>1163.0</ele><time>2026-04-18T17:16:21.186Z</time></trkpt><trkpt lat="43.8550771" lon="11.742967"><ele>1163.0</ele><time>2026-04-18T17:16:22.188Z</time></trkpt><trkpt lat="43.8551241" lon="11.7431444"><ele>1163.0</ele><time>2026-04-18T17:16:23.187Z</time></trkpt><trkpt lat="43.8551649" lon="11.7433388"><ele>1166.5</ele><time>2026-04-18T17:16:24.187Z</time></trkpt><trkpt lat="43.8552011" lon="11.7435291"><ele>1170.0</ele><time>2026-04-18T17:16:25.187Z</time></trkpt><trkpt lat="43.8552372" lon="11.7437191"><ele>1173.5</ele><time>2026-04-18T17:16:26.187Z</time></trkpt><trkpt lat="43.8552838" lon="11.7438745"><ele>1177.0</ele><time>2026-04-18T17:16:27.187Z</time></trkpt><trkpt lat="43.8554249" lon="11.7438552"><ele>1177.0</ele><time>2026-04-18T17:16:28.186Z</time></trkpt><trkpt lat="43.855533" lon="11.743921"><ele>1177.0</ele><time>2026-04-18T17:16:29.187Z</time></trkpt><trkpt lat="43.8556414" lon="11.7439972"><ele>1177.0</ele><time>2026-04-18T17:16:30.188Z</time></trkpt><trkpt lat="43.8557321" lon="11.7441137"><ele>1177.0</ele><time>2026-04-18T17:16:31.186Z</time></trkpt><trkpt lat="43.8557961" lon="11.744264"><ele>1178.75</ele><time>2026-04-18T17:16:32.188Z</time></trkpt><trkpt lat="43.8558431" lon="11.7444207"><ele>1180.5</ele><time>2026-04-18T17:16:33.186Z</time></trkpt><trkpt lat="43.8558574" lon="11.7445767"><ele>1182.25</ele><time>2026-04-18T17:16:34.187Z</time></trkpt><trkpt lat="43.8558343" lon="11.7447275"><ele>1184.0</ele><time>2026-04-18T17:16:35.187Z</time></trkpt><trkpt lat="43.8557688" lon="11.7449035"><ele>1184.0</ele><time>2026-04-18T17:16:36.188Z</time></trkpt><trkpt lat="43.855672" lon="11.7451035"><ele>1184.0</ele><time>2026-04-18T17:16:37.185Z</time></trkpt><trkpt lat="43.8555662" lon="11.745328"><ele>1184.0</ele><time>2026-04-18T17:16:38.186Z</time></trkpt><trkpt lat="43.8554533" lon="11.7455673"><ele>1192.0</ele><time>2026-04-18T17:16:39.186Z</time></trkpt><trkpt lat="43.8553368" lon="11.7458227"><ele>1200.0</ele><time>2026-04-18T17:16:40.186Z</time></trkpt><trkpt lat="43.8552392" lon="11.7460658"><ele>1208.0</ele><time>2026-04-18T17:16:41.187Z</time></trkpt><trkpt lat="43.8551512" lon="11.7463161"><ele>1205.0</ele><time>2026-04-18T17:16:42.188Z</time></trkpt><trkpt lat="43.8550739" lon="11.7465837"><ele>1202.0</ele><time>2026-04-18T17:16:43.188Z</time></trkpt><trkpt lat="43.8549883" lon="11.7468195"><ele>1199.0</ele><time>2026-04-18T17:16:44.186Z</time></trkpt><trkpt lat="43.8549122" lon="11.7470445"><ele>1199.0</ele><time>2026-04-18T17:16:45.187Z</time></trkpt><trkpt lat="43.8548458" lon="11.7472524"><ele>1199.0</ele><time>2026-04-18T17:16:46.186Z</time></trkpt><trkpt lat="43.8547867" lon="11.7474319"><ele>1199.0</ele><time>2026-04-18T17:16:47.186Z</time></trkpt><trkpt lat="43.8547414" lon="11.7475853"><ele>1199.0</ele><time>2026-04-18T17:16:48.188Z</time></trkpt><trkpt lat="43.8547178" lon="11.7477213"><ele>1198.6000000000001</ele><time>2026-04-18T17:16:49.186Z</time></trkpt><trkpt lat="43.8547369" lon="11.7478461"><ele>1198.2</ele><time>2026-04-18T17:16:50.188Z</time></trkpt><trkpt lat="43.8547994" lon="11.7479437"><ele>1197.8000000000002</ele><time>2026-04-18T17:16:51.187Z</time></trkpt><trkpt lat="43.8548574" lon="11.7480457"><ele>1197.4</ele><time>2026-04-18T17:16:52.187Z</time></trkpt><trkpt lat="43.8549937" lon="11.7480624"><ele>1197.0</ele><time>2026-04-18T17:16:53.188Z</time></trkpt><trkpt lat="43.8551543" lon="11.7479736"><ele>1202.4</ele><time>2026-04-18T17:16:54.185Z</time></trkpt><trkpt lat="43.855268" lon="11.7479368"><ele>1207.8000000000002</ele><time>2026-04-18T17:16:55.187Z</time></trkpt><trkpt lat="43.8553802" lon="11.7479073"><ele>1213.2</ele><time>2026-04-18T17:16:56.187Z</time></trkpt><trkpt lat="43.8554906" lon="11.7479331"><ele>1218.6000000000001</ele><time>2026-04-18T17:16:57.186Z</time></trkpt><trkpt lat="43.855571" lon="11.7480299"><ele>1224.0</ele><time>2026-04-18T17:16:58.186Z</time></trkpt><trkpt lat="43.8556179" lon="11.7481467"><ele>1224.0</ele><time>2026-04-18T17:16:59.185Z</time></trkpt><trkpt lat="43.8556089" lon="11.7482856"><ele>1224.0</ele><time>2026-04-18T17:17:00.185Z</time></trkpt><trkpt lat="43.855561" lon="11.7484253"><ele>1224.0</ele><time>2026-04-18T17:17:01.186Z</time></trkpt><trkpt lat="43.8555221" lon="11.7485795"><ele>1224.0</ele><time>2026-04-18T17:17:02.187Z</time></trkpt><trkpt lat="43.8555288" lon="11.7487509"><ele>1224.4</ele><time>2026-04-18T17:17:03.187Z</time></trkpt><trkpt lat="43.8555812" lon="11.7488936"><ele>1224.8000000000002</ele><time>2026-04-18T17:17:04.186Z</time></trkpt><trkpt lat="43.8556434" lon="11.7490222"><ele>1225.1999999999998</ele><time>2026-04-18T17:17:05.186Z</time></trkpt><trkpt lat="43.855679" lon="11.7491437"><ele>1225.6</ele><time>2026-04-18T17:17:06.186Z</time></trkpt><trkpt lat="43.8556664" lon="11.7492637"><ele>1226.0</ele><time>2026-04-18T17:17:07.187Z</time></trkpt><trkpt lat="43.8556108" lon="11.7493533"><ele>1225.2</ele><time>2026-04-18T17:17:08.188Z</time></trkpt><trkpt lat="43.8555185" lon="11.7493959"><ele>1224.3999999999999</ele><time>2026-04-18T17:17:09.187Z</time></trkpt><trkpt lat="43.855402" lon="11.7493949"><ele>1223.6</ele><time>2026-04-18T17:17:10.187Z</time></trkpt><trkpt lat="43.8552827" lon="11.7493904"><ele>1222.8</ele><time>2026-04-18T17:17:11.186Z</time></trkpt><trkpt lat="43.8551808" lon="11.7494139"><ele>1222.0</ele><time>2026-04-18T17:17:12.186Z</time></trkpt><trkpt lat="43.8550909" lon="11.7494893"><ele>1222.0</ele><time>2026-04-18T17:17:13.186Z</time></trkpt><trkpt lat="43.8549873" lon="11.7495753"><ele>1222.0</ele><time>2026-04-18T17:17:14.188Z</time></trkpt><trkpt lat="43.8549588" lon="11.7498032"><ele>1222.0</ele><time>2026-04-18T17:17:15.187Z</time></trkpt><trkpt lat="43.8548881" lon="11.7499719"><ele>1222.0</ele><time>2026-04-18T17:17:16.186Z</time></trkpt><trkpt lat="43.8548048" lon="11.7501126"><ele>1227.0</ele><time>2026-04-18T17:17:17.186Z</time></trkpt><trkpt lat="43.8546995" lon="11.7502176"><ele>1232.0</ele><time>2026-04-18T17:17:18.186Z</time></trkpt><trkpt lat="43.8546041" lon="11.7503241"><ele>1237.0</ele><time>2026-04-18T17:17:19.186Z</time></trkpt><trkpt lat="43.854552" lon="11.7504709"><ele>1242.0</ele><time>2026-04-18T17:17:20.187Z</time></trkpt><trkpt lat="43.8545223" lon="11.7506512"><ele>1242.0</ele><time>2026-04-18T17:17:21.187Z</time></trkpt><trkpt lat="43.8544869" lon="11.7508214"><ele>1242.0</ele><time>2026-04-18T17:17:22.186Z</time></trkpt><trkpt lat="43.8544441" lon="11.7509818"><ele>1242.0</ele><time>2026-04-18T17:17:23.186Z</time></trkpt><trkpt lat="43.8543611" lon="11.751107"><ele>1242.0</ele><time>2026-04-18T17:17:24.186Z</time></trkpt><trkpt lat="43.8542638" lon="11.7511832"><ele>1240.5</ele><time>2026-04-18T17:17:25.186Z</time></trkpt><trkpt lat="43.8541497" lon="11.7512176"><ele>1239.0</ele><time>2026-04-18T17:17:26.188Z</time></trkpt><trkpt lat="43.8540369" lon="11.7512615"><ele>1237.5</ele><time>2026-04-18T17:17:27.187Z</time></trkpt><trkpt lat="43.8539235" lon="11.7513374"><ele>1236.0</ele><time>2026-04-18T17:17:28.187Z</time></trkpt><trkpt lat="43.8538298" lon="11.7514575"><ele>1236.0</ele><time>2026-04-18T17:17:29.188Z</time></trkpt><trkpt lat="43.8537587" lon="11.7516185"><ele>1236.0</ele><time>2026-04-18T17:17:30.187Z</time></trkpt><trkpt lat="43.853679" lon="11.7517763"><ele>1236.0</ele><time>2026-04-18T17:17:31.185Z</time></trkpt><trkpt lat="43.853664" lon="11.751976"><ele>1236.0</ele><time>2026-04-18T17:17:32.185Z</time></trkpt><trkpt lat="43.8536698" lon="11.7521642"><ele>1239.75</ele><time>2026-04-18T17:17:33.186Z</time></trkpt><trkpt lat="43.8536791" lon="11.7523611"><ele>1243.5</ele><time>2026-04-18T17:17:34.187Z</time></trkpt><trkpt lat="43.8536824" lon="11.7525325"><ele>1247.25</ele><time>2026-04-18T17:17:35.187Z</time></trkpt><trkpt lat="43.8536536" lon="11.7526826"><ele>1251.0</ele><time>2026-04-18T17:17:36.185Z</time></trkpt><trkpt lat="43.8536062" lon="11.752805"><ele>1253.6666666666667</ele><time>2026-04-18T17:17:37.185Z</time></trkpt><trkpt lat="43.8535859" lon="11.752914"><ele>1256.3333333333333</ele><time>2026-04-18T17:17:38.186Z</time></trkpt><trkpt lat="43.8535783" lon="11.7530036"><ele>1259.0</ele><time>2026-04-18T17:17:39.186Z</time></trkpt><trkpt lat="43.8536493" lon="11.7531191"><ele>1261.6666666666665</ele><time>2026-04-18T17:17:41.187Z</time></trkpt><trkpt lat="43.8537139" lon="11.7530985"><ele>1264.3333333333333</ele><time>2026-04-18T17:17:42.186Z</time></trkpt><trkpt lat="43.8537708" lon="11.753023"><ele>1267.0</ele><time>2026-04-18T17:17:43.187Z</time></trkpt><trkpt lat="43.8538055" lon="11.7528796"><ele>1263.0</ele><time>2026-04-18T17:17:44.187Z</time></trkpt><trkpt lat="43.8538403" lon="11.7526949"><ele>1259.0</ele><time>2026-04-18T17:17:45.186Z</time></trkpt><trkpt lat="43.8538548" lon="11.7525065"><ele>1255.0</ele><time>2026-04-18T17:17:46.186Z</time></trkpt><trkpt lat="43.8538583" lon="11.7522995"><ele>1251.0</ele><time>2026-04-18T17:17:47.188Z</time></trkpt><trkpt lat="43.8538825" lon="11.7521027"><ele>1251.0</ele><time>2026-04-18T17:17:48.188Z</time></trkpt><trkpt lat="43.8539302" lon="11.7519309"><ele>1251.0</ele><time>2026-04-18T17:17:49.187Z</time></trkpt><trkpt lat="43.8539978" lon="11.7517869"><ele>1251.0</ele><time>2026-04-18T17:17:50.187Z</time></trkpt><trkpt lat="43.8540738" lon="11.7516785"><ele>1251.0</ele><time>2026-04-18T17:17:51.186Z</time></trkpt><trkpt lat="43.8541673" lon="11.7516231"><ele>1247.25</ele><time>2026-04-18T17:17:52.188Z</time></trkpt><trkpt lat="43.8542722" lon="11.7516238"><ele>1243.5</ele><time>2026-04-18T17:17:53.186Z</time></trkpt><trkpt lat="43.854383" lon="11.7516306"><ele>1239.75</ele><time>2026-04-18T17:17:54.187Z</time></trkpt><trkpt lat="43.8544929" lon="11.7515781"><ele>1236.0</ele><time>2026-04-18T17:17:55.186Z</time></trkpt><trkpt lat="43.8546029" lon="11.7514681"><ele>1238.0</ele><time>2026-04-18T17:17:56.187Z</time></trkpt><trkpt lat="43.8547255" lon="11.7513136"><ele>1240.0</ele><time>2026-04-18T17:17:57.185Z</time></trkpt><trkpt lat="43.854855" lon="11.75114"><ele>1242.0</ele><time>2026-04-18T17:17:58.186Z</time></trkpt><trkpt lat="43.8550052" lon="11.7509483"><ele>1253.0</ele><time>2026-04-18T17:17:59.187Z</time></trkpt><trkpt lat="43.8551616" lon="11.75076"><ele>1264.0</ele><time>2026-04-18T17:18:00.187Z</time></trkpt><trkpt lat="43.8553132" lon="11.750613"><ele>1275.0</ele><time>2026-04-18T17:18:01.188Z</time></trkpt><trkpt lat="43.8554569" lon="11.7504936"><ele>1275.0</ele><time>2026-04-18T17:18:02.187Z</time></trkpt><trkpt lat="43.8555797" lon="11.7504131"><ele>1275.0</ele><time>2026-04-18T17:18:03.186Z</time></trkpt><trkpt lat="43.8557064" lon="11.7503881"><ele>1275.0</ele><time>2026-04-18T17:18:04.187Z</time></trkpt><trkpt lat="43.8558482" lon="11.7504113"><ele>1275.0</ele><time>2026-04-18T17:18:05.185Z</time></trkpt><trkpt lat="43.856" lon="11.7504483"><ele>1278.25</ele><time>2026-04-18T17:18:06.186Z</time></trkpt><trkpt lat="43.856132" lon="11.7504766"><ele>1281.5</ele><time>2026-04-18T17:18:07.188Z</time></trkpt><trkpt lat="43.8562475" lon="11.7504898"><ele>1284.75</ele><time>2026-04-18T17:18:08.187Z</time></trkpt><trkpt lat="43.8563529" lon="11.7504644"><ele>1288.0</ele><time>2026-04-18T17:18:09.186Z</time></trkpt><trkpt lat="43.856435" lon="11.7503765"><ele>1288.0</ele><time>2026-04-18T17:18:10.187Z</time></trkpt><trkpt lat="43.8564912" lon="11.7502203"><ele>1288.0</ele><time>2026-04-18T17:18:11.185Z</time></trkpt><trkpt lat="43.8565244" lon="11.7500034"><ele>1288.0</ele><time>2026-04-18T17:18:12.186Z</time></trkpt><trkpt lat="43.8565483" lon="11.7497522"><ele>1282.3333333333333</ele><time>2026-04-18T17:18:13.185Z</time></trkpt><trkpt lat="43.8565892" lon="11.749493"><ele>1276.6666666666667</ele><time>2026-04-18T17:18:14.186Z</time></trkpt><trkpt lat="43.8566192" lon="11.7492665"><ele>1271.0</ele><time>2026-04-18T17:18:15.186Z</time></trkpt><trkpt lat="43.8566248" lon="11.7490401"><ele>1271.0</ele><time>2026-04-18T17:18:16.187Z</time></trkpt><trkpt lat="43.8566349" lon="11.7488138"><ele>1271.0</ele><time>2026-04-18T17:18:17.186Z</time></trkpt><trkpt lat="43.8566658" lon="11.7485872"><ele>1271.0</ele><time>2026-04-18T17:18:18.186Z</time></trkpt><trkpt lat="43.8567113" lon="11.7483752"><ele>1270.25</ele><time>2026-04-18T17:18:19.186Z</time></trkpt><trkpt lat="43.8567719" lon="11.7481934"><ele>1269.5</ele><time>2026-04-18T17:18:20.187Z</time></trkpt><trkpt lat="43.8568619" lon="11.7480482"><ele>1268.75</ele><time>2026-04-18T17:18:21.188Z</time></trkpt><trkpt lat="43.8569752" lon="11.7479298"><ele>1268.0</ele><time>2026-04-18T17:18:22.187Z</time></trkpt><trkpt lat="43.8570961" lon="11.7478664"><ele>1273.75</ele><time>2026-04-18T17:18:23.186Z</time></trkpt><trkpt lat="43.8571871" lon="11.7477819"><ele>1279.5</ele><time>2026-04-18T17:18:24.186Z</time></trkpt><trkpt lat="43.8572603" lon="11.7476505"><ele>1285.25</ele><time>2026-04-18T17:18:25.186Z</time></trkpt><trkpt lat="43.8573233" lon="11.74747"><ele>1291.0</ele><time>2026-04-18T17:18:26.186Z</time></trkpt><trkpt lat="43.8573455" lon="11.7472736"><ele>1291.0</ele><time>2026-04-18T17:18:27.188Z</time></trkpt><trkpt lat="43.8573451" lon="11.7470979"><ele>1291.0</ele><time>2026-04-18T17:18:28.187Z</time></trkpt><trkpt lat="43.8573073" lon="11.7469393"><ele>1291.0</ele><time>2026-04-18T17:18:29.186Z</time></trkpt><trkpt lat="43.8572455" lon="11.7467971"><ele>1291.0</ele><time>2026-04-18T17:18:30.186Z</time></trkpt><trkpt lat="43.8571974" lon="11.7466718"><ele>1291.75</ele><time>2026-04-18T17:18:31.186Z</time></trkpt><trkpt lat="43.8571946" lon="11.7465364"><ele>1292.5</ele><time>2026-04-18T17:18:32.187Z</time></trkpt><trkpt lat="43.8572487" lon="11.7464165"><ele>1293.25</ele><time>2026-04-18T17:18:33.188Z</time></trkpt><trkpt lat="43.857346" lon="11.7462891"><ele>1294.0</ele><time>2026-04-18T17:18:34.187Z</time></trkpt><trkpt lat="43.8574716" lon="11.7461446"><ele>1297.0</ele><time>2026-04-18T17:18:35.187Z</time></trkpt><trkpt lat="43.8576077" lon="11.7460091"><ele>1300.0</ele><time>2026-04-18T17:18:36.188Z</time></trkpt><trkpt lat="43.8577614" lon="11.7458725"><ele>1303.0</ele><time>2026-04-18T17:18:37.186Z</time></trkpt><trkpt lat="43.857928" lon="11.7457369"><ele>1303.0</ele><time>2026-04-18T17:18:38.187Z</time></trkpt><trkpt lat="43.8580953" lon="11.7456055"><ele>1303.0</ele><time>2026-04-18T17:18:39.187Z</time></trkpt><trkpt lat="43.8582534" lon="11.7454769"><ele>1303.0</ele><time>2026-04-18T17:18:40.188Z</time></trkpt><trkpt lat="43.858401" lon="11.7453529"><ele>1301.0</ele><time>2026-04-18T17:18:41.187Z</time></trkpt><trkpt lat="43.8585407" lon="11.7452402"><ele>1299.0</ele><time>2026-04-18T17:18:42.186Z</time></trkpt><trkpt lat="43.8586692" lon="11.7451345"><ele>1297.0</ele><time>2026-04-18T17:18:43.188Z</time></trkpt><trkpt lat="43.8587866" lon="11.7450309"><ele>1296.0</ele><time>2026-04-18T17:18:44.188Z</time></trkpt><trkpt lat="43.8588896" lon="11.7449328"><ele>1295.0</ele><time>2026-04-18T17:18:45.188Z</time></trkpt><trkpt lat="43.8589886" lon="11.7448385"><ele>1294.0</ele><time>2026-04-18T17:18:46.188Z</time></trkpt><trkpt lat="43.8590825" lon="11.7447615"><ele>1293.0</ele><time>2026-04-18T17:18:47.188Z</time></trkpt><trkpt lat="43.8591796" lon="11.7447026"><ele>1293.0</ele><time>2026-04-18T17:18:48.186Z</time></trkpt><trkpt lat="43.8592764" lon="11.7446505"><ele>1293.0</ele><time>2026-04-18T17:18:49.188Z</time></trkpt><trkpt lat="43.8593767" lon="11.7446023"><ele>1293.0</ele><time>2026-04-18T17:18:50.188Z</time></trkpt><trkpt lat="43.8594767" lon="11.7445608"><ele>1293.0</ele><time>2026-04-18T17:18:51.185Z</time></trkpt><trkpt lat="43.8595738" lon="11.7445222"><ele>1293.0</ele><time>2026-04-18T17:18:52.185Z</time></trkpt><trkpt lat="43.8596699" lon="11.7444927"><ele>1293.8333333333333</ele><time>2026-04-18T17:18:53.187Z</time></trkpt><trkpt lat="43.8597529" lon="11.7444737"><ele>1294.6666666666667</ele><time>2026-04-18T17:18:54.187Z</time></trkpt><trkpt lat="43.8598278" lon="11.7444528"><ele>1295.5</ele><time>2026-04-18T17:18:55.188Z</time></trkpt><trkpt lat="43.8599372" lon="11.7444377"><ele>1296.3333333333335</ele><time>2026-04-18T17:18:57.186Z</time></trkpt><trkpt lat="43.8600004" lon="11.7444347"><ele>1297.1666666666667</ele><time>2026-04-18T17:19:00.186Z</time></trkpt><trkpt lat="43.8600059" lon="11.7443294"><ele>1298.0</ele><time>2026-04-18T17:19:45.188Z</time></trkpt><trkpt lat="43.8599487" lon="11.7442722"><ele>1298.0</ele><time>2026-04-18T17:19:47.188Z</time></trkpt><trkpt lat="43.8598867" lon="11.744342"><ele>1298.0</ele><time>2026-04-18T17:19:49.187Z</time></trkpt><trkpt lat="43.8598927" lon="11.7444295"><ele>1298.0</ele><time>2026-04-18T17:19:51.187Z</time></trkpt><trkpt lat="43.8599528" lon="11.7443998"><ele>1298.0</ele><time>2026-04-18T17:22:02.188Z</time></trkpt><trkpt lat="43.8600235" lon="11.7444016"><ele>1298.0</ele><time>2026-04-18T17:22:15.188Z</time></trkpt><trkpt lat="43.8601129" lon="11.7443859"><ele>1298.0</ele><time>2026-04-18T17:22:17.188Z</time></trkpt><trkpt lat="43.8602085" lon="11.7443679"><ele>1298.8333333333335</ele><time>2026-04-18T17:22:19.187Z</time></trkpt><trkpt lat="43.8603075" lon="11.7443682"><ele>1299.6666666666667</ele><time>2026-04-18T17:22:21.188Z</time></trkpt><trkpt lat="43.8604051" lon="11.7443603"><ele>1300.5</ele><time>2026-04-18T17:22:23.187Z</time></trkpt><trkpt lat="43.860497" lon="11.7443592"><ele>1301.3333333333333</ele><time>2026-04-18T17:22:25.188Z</time></trkpt><trkpt lat="43.8605669" lon="11.7443503"><ele>1302.1666666666665</ele><time>2026-04-18T17:22:26.188Z</time></trkpt><trkpt lat="43.8606404" lon="11.7443457"><ele>1303.0</ele><time>2026-04-18T17:22:27.188Z</time></trkpt><trkpt lat="43.8607235" lon="11.7443469"><ele>1303.0</ele><time>2026-04-18T17:22:28.187Z</time></trkpt><trkpt lat="43.8608266" lon="11.7443162"><ele>1303.0</ele><time>2026-04-18T17:22:29.188Z</time></trkpt><trkpt lat="43.8609262" lon="11.7443043"><ele>1303.0</ele><time>2026-04-18T17:22:30.187Z</time></trkpt><trkpt lat="43.8610508" lon="11.7442941"><ele>1303.0</ele><time>2026-04-18T17:22:31.188Z</time></trkpt><trkpt lat="43.8611723" lon="11.7442819"><ele>1302.75</ele><time>2026-04-18T17:22:32.187Z</time></trkpt><trkpt lat="43.8612878" lon="11.7442903"><ele>1302.5</ele><time>2026-04-18T17:22:33.187Z</time></trkpt><trkpt lat="43.861401" lon="11.7443138"><ele>1302.25</ele><time>2026-04-18T17:22:34.188Z</time></trkpt><trkpt lat="43.8615144" lon="11.7443403"><ele>1302.0</ele><time>2026-04-18T17:22:35.187Z</time></trkpt><trkpt lat="43.8616272" lon="11.74437"><ele>1294.3999999999999</ele><time>2026-04-18T17:22:36.188Z</time></trkpt><trkpt lat="43.8617416" lon="11.7443936"><ele>1286.8</ele><time>2026-04-18T17:22:37.188Z</time></trkpt><trkpt lat="43.8618557" lon="11.7444101"><ele>1279.2</ele><time>2026-04-18T17:22:38.188Z</time></trkpt><trkpt lat="43.8619621" lon="11.744423"><ele>1271.6</ele><time>2026-04-18T17:22:39.188Z</time></trkpt><trkpt lat="43.8620646" lon="11.7444303"><ele>1264.0</ele><time>2026-04-18T17:22:40.187Z</time></trkpt><trkpt lat="43.862172" lon="11.7443839"><ele>1269.0</ele><time>2026-04-18T17:22:41.188Z</time></trkpt><trkpt lat="43.8622776" lon="11.7443378"><ele>1274.0</ele><time>2026-04-18T17:22:42.187Z</time></trkpt><trkpt lat="43.8623753" lon="11.744249"><ele>1279.0</ele><time>2026-04-18T17:22:43.188Z</time></trkpt><trkpt lat="43.8624828" lon="11.7441618"><ele>1284.0</ele><time>2026-04-18T17:22:44.187Z</time></trkpt><trkpt lat="43.862599" lon="11.7440364"><ele>1277.25</ele><time>2026-04-18T17:22:45.188Z</time></trkpt><trkpt lat="43.8626981" lon="11.7438994"><ele>1270.5</ele><time>2026-04-18T17:22:46.187Z</time></trkpt><trkpt lat="43.8628335" lon="11.7438037"><ele>1263.75</ele><time>2026-04-18T17:22:47.188Z</time></trkpt><trkpt lat="43.8629704" lon="11.7437183"><ele>1257.0</ele><time>2026-04-18T17:22:48.188Z</time></trkpt><trkpt lat="43.8631083" lon="11.7436428"><ele>1257.0</ele><time>2026-04-18T17:22:49.187Z</time></trkpt><trkpt lat="43.8632542" lon="11.7435581"><ele>1257.0</ele><time>2026-04-18T17:22:50.187Z</time></trkpt><trkpt lat="43.8633965" lon="11.7434732"><ele>1257.0</ele><time>2026-04-18T17:22:51.188Z</time></trkpt><trkpt lat="43.8635519" lon="11.7433948"><ele>1260.0</ele><time>2026-04-18T17:22:52.188Z</time></trkpt><trkpt lat="43.8636971" lon="11.7433166"><ele>1263.0</ele><time>2026-04-18T17:22:53.188Z</time></trkpt><trkpt lat="43.8638428" lon="11.7432483"><ele>1266.0</ele><time>2026-04-18T17:22:54.188Z</time></trkpt><trkpt lat="43.8639887" lon="11.7431778"><ele>1266.0</ele><time>2026-04-18T17:22:55.187Z</time></trkpt><trkpt lat="43.8641448" lon="11.7431093"><ele>1266.0</ele><time>2026-04-18T17:22:56.188Z</time></trkpt><trkpt lat="43.8642845" lon="11.7430091"><ele>1266.0</ele><time>2026-04-18T17:22:57.187Z</time></trkpt><trkpt lat="43.8643971" lon="11.7428799"><ele>1260.0</ele><time>2026-04-18T17:22:58.188Z</time></trkpt><trkpt lat="43.8645122" lon="11.7427166"><ele>1254.0</ele><time>2026-04-18T17:22:59.188Z</time></trkpt><trkpt lat="43.8646138" lon="11.74255"><ele>1248.0</ele><time>2026-04-18T17:23:00.188Z</time></trkpt><trkpt lat="43.8646736" lon="11.7423709"><ele>1248.0</ele><time>2026-04-18T17:23:01.188Z</time></trkpt><trkpt lat="43.8647312" lon="11.7421938"><ele>1248.0</ele><time>2026-04-18T17:23:02.187Z</time></trkpt><trkpt lat="43.8647603" lon="11.7420231"><ele>1248.0</ele><time>2026-04-18T17:23:03.188Z</time></trkpt><trkpt lat="43.8647602" lon="11.7418603"><ele>1248.0</ele><time>2026-04-18T17:23:04.188Z</time></trkpt><trkpt lat="43.8647461" lon="11.741702"><ele>1248.6</ele><time>2026-04-18T17:23:05.187Z</time></trkpt><trkpt lat="43.8647082" lon="11.7415647"><ele>1249.1999999999998</ele><time>2026-04-18T17:23:06.186Z</time></trkpt><trkpt lat="43.8646769" lon="11.7414411"><ele>1249.8</ele><time>2026-04-18T17:23:07.188Z</time></trkpt><trkpt lat="43.8646792" lon="11.7413129"><ele>1250.3999999999999</ele><time>2026-04-18T17:23:08.188Z</time></trkpt><trkpt lat="43.8647078" lon="11.7412019"><ele>1251.0</ele><time>2026-04-18T17:23:09.188Z</time></trkpt><trkpt lat="43.8648005" lon="11.7411099"><ele>1248.5</ele><time>2026-04-18T17:23:10.188Z</time></trkpt><trkpt lat="43.8648625" lon="11.7410084"><ele>1246.0</ele><time>2026-04-18T17:23:11.188Z</time></trkpt><trkpt lat="43.8650055" lon="11.7409434"><ele>1243.5</ele><time>2026-04-18T17:23:12.188Z</time></trkpt><trkpt lat="43.8651329" lon="11.740901"><ele>1241.0</ele><time>2026-04-18T17:23:13.188Z</time></trkpt><trkpt lat="43.8652711" lon="11.7408582"><ele>1241.0</ele><time>2026-04-18T17:23:14.188Z</time></trkpt><trkpt lat="43.8654159" lon="11.7408337"><ele>1241.0</ele><time>2026-04-18T17:23:15.188Z</time></trkpt><trkpt lat="43.8655458" lon="11.7407839"><ele>1241.0</ele><time>2026-04-18T17:23:16.188Z</time></trkpt><trkpt lat="43.8656904" lon="11.7407164"><ele>1241.0</ele><time>2026-04-18T17:23:17.188Z</time></trkpt><trkpt lat="43.8658099" lon="11.7406532"><ele>1241.0</ele><time>2026-04-18T17:23:18.188Z</time></trkpt><trkpt lat="43.865931" lon="11.7405788"><ele>1241.0</ele><time>2026-04-18T17:23:19.187Z</time></trkpt><trkpt lat="43.8660401" lon="11.7405063"><ele>1241.0</ele><time>2026-04-18T17:23:20.187Z</time></trkpt><trkpt lat="43.8660176" lon="11.7403381"><ele>1241.0</ele><time>2026-04-18T17:23:21.188Z</time></trkpt><trkpt lat="43.8660508" lon="11.7402067"><ele>1242.2</ele><time>2026-04-18T17:23:22.188Z</time></trkpt><trkpt lat="43.866111" lon="11.7401075"><ele>1243.3999999999999</ele><time>2026-04-18T17:23:23.188Z</time></trkpt><trkpt lat="43.8662096" lon="11.7400436"><ele>1244.6</ele><time>2026-04-18T17:23:24.186Z</time></trkpt><trkpt lat="43.8663195" lon="11.739989"><ele>1245.8</ele><time>2026-04-18T17:23:25.188Z</time></trkpt><trkpt lat="43.8664358" lon="11.7399304"><ele>1247.0</ele><time>2026-04-18T17:23:26.188Z</time></trkpt><trkpt lat="43.8665612" lon="11.7398913"><ele>1247.0</ele><time>2026-04-18T17:23:27.188Z</time></trkpt><trkpt lat="43.8666717" lon="11.7398519"><ele>1247.0</ele><time>2026-04-18T17:23:28.188Z</time></trkpt><trkpt lat="43.8667643" lon="11.7398201"><ele>1247.0</ele><time>2026-04-18T17:23:29.188Z</time></trkpt><trkpt lat="43.8668865" lon="11.7398558"><ele>1247.0</ele><time>2026-04-18T17:23:30.187Z</time></trkpt><trkpt lat="43.8669662" lon="11.740052"><ele>1246.75</ele><time>2026-04-18T17:23:31.187Z</time></trkpt><trkpt lat="43.8670607" lon="11.7401722"><ele>1246.5</ele><time>2026-04-18T17:23:32.188Z</time></trkpt><trkpt lat="43.8671523" lon="11.7403218"><ele>1246.25</ele><time>2026-04-18T17:23:33.188Z</time></trkpt><trkpt lat="43.8672362" lon="11.7404579"><ele>1246.0</ele><time>2026-04-18T17:23:34.187Z</time></trkpt><trkpt lat="43.8673114" lon="11.7405888"><ele>1242.3333333333333</ele><time>2026-04-18T17:23:35.188Z</time></trkpt><trkpt lat="43.8673653" lon="11.7407072"><ele>1238.6666666666665</ele><time>2026-04-18T17:23:36.187Z</time></trkpt><trkpt lat="43.8673966" lon="11.7408092"><ele>1235.0</ele><time>2026-04-18T17:23:37.187Z</time></trkpt><trkpt lat="43.8673881" lon="11.7408997"><ele>1231.3333333333333</ele><time>2026-04-18T17:23:38.188Z</time></trkpt><trkpt lat="43.8673495" lon="11.7409709"><ele>1227.6666666666667</ele><time>2026-04-18T17:23:39.188Z</time></trkpt><trkpt lat="43.8672745" lon="11.7409756"><ele>1224.0</ele><time>2026-04-18T17:23:40.188Z</time></trkpt><trkpt lat="43.8672023" lon="11.7409205"><ele>1224.0</ele><time>2026-04-18T17:23:41.188Z</time></trkpt><trkpt lat="43.8671208" lon="11.7408245"><ele>1224.0</ele><time>2026-04-18T17:23:42.188Z</time></trkpt><trkpt lat="43.8670319" lon="11.7407202"><ele>1224.0</ele><time>2026-04-18T17:23:43.187Z</time></trkpt><trkpt lat="43.8669512" lon="11.740617"><ele>1224.0</ele><time>2026-04-18T17:23:44.188Z</time></trkpt><trkpt lat="43.8668652" lon="11.740523"><ele>1224.0</ele><time>2026-04-18T17:23:45.188Z</time></trkpt><trkpt lat="43.866783" lon="11.7404397"><ele>1224.5</ele><time>2026-04-18T17:23:46.188Z</time></trkpt><trkpt lat="43.8666754" lon="11.7404043"><ele>1225.0</ele><time>2026-04-18T17:23:47.188Z</time></trkpt><trkpt lat="43.8665669" lon="11.7404009"><ele>1225.5</ele><time>2026-04-18T17:23:48.188Z</time></trkpt><trkpt lat="43.8664648" lon="11.7405262"><ele>1226.0</ele><time>2026-04-18T17:23:49.188Z</time></trkpt><trkpt lat="43.8663613" lon="11.740592"><ele>1226.0</ele><time>2026-04-18T17:23:50.188Z</time></trkpt><trkpt lat="43.8663137" lon="11.7408001"><ele>1226.0</ele><time>2026-04-18T17:23:51.188Z</time></trkpt><trkpt lat="43.8662598" lon="11.7409374"><ele>1226.0</ele><time>2026-04-18T17:23:52.187Z</time></trkpt><trkpt lat="43.8661847" lon="11.7410334"><ele>1226.0</ele><time>2026-04-18T17:23:53.188Z</time></trkpt><trkpt lat="43.8660968" lon="11.7410972"><ele>1225.0</ele><time>2026-04-18T17:23:54.188Z</time></trkpt><trkpt lat="43.8660152" lon="11.7411676"><ele>1224.0</ele><time>2026-04-18T17:23:55.188Z</time></trkpt><trkpt lat="43.8659527" lon="11.7412496"><ele>1223.0</ele><time>2026-04-18T17:23:56.188Z</time></trkpt><trkpt lat="43.865893" lon="11.7413241"><ele>1222.0</ele><time>2026-04-18T17:23:57.188Z</time></trkpt><trkpt lat="43.8658562" lon="11.7414385"><ele>1221.0</ele><time>2026-04-18T17:23:58.188Z</time></trkpt><trkpt lat="43.8658515" lon="11.7415808"><ele>1218.3999999999999</ele><time>2026-04-18T17:24:00.187Z</time></trkpt><trkpt lat="43.8659958" lon="11.7415545"><ele>1215.8</ele><time>2026-04-18T17:24:01.188Z</time></trkpt><trkpt lat="43.8660632" lon="11.7415232"><ele>1213.1999999999998</ele><time>2026-04-18T17:24:02.188Z</time></trkpt><trkpt lat="43.8661315" lon="11.7414651"><ele>1210.6</ele><time>2026-04-18T17:24:03.187Z</time></trkpt><trkpt lat="43.866199" lon="11.741382"><ele>1208.0</ele><time>2026-04-18T17:24:04.187Z</time></trkpt><trkpt lat="43.8662714" lon="11.7412942"><ele>1208.0</ele><time>2026-04-18T17:24:05.188Z</time></trkpt><trkpt lat="43.866343" lon="11.7412198"><ele>1208.0</ele><time>2026-04-18T17:24:06.188Z</time></trkpt><trkpt lat="43.8664133" lon="11.7411433"><ele>1208.0</ele><time>2026-04-18T17:24:07.187Z</time></trkpt><trkpt lat="43.8664856" lon="11.7410867"><ele>1208.0</ele><time>2026-04-18T17:24:08.187Z</time></trkpt><trkpt lat="43.8665834" lon="11.7410858"><ele>1208.0</ele><time>2026-04-18T17:24:09.188Z</time></trkpt><trkpt lat="43.8666388" lon="11.7413139"><ele>1208.0</ele><time>2026-04-18T17:24:10.188Z</time></trkpt><trkpt lat="43.8667071" lon="11.7414029"><ele>1208.0</ele><time>2026-04-18T17:24:11.187Z</time></trkpt><trkpt lat="43.8667557" lon="11.7415136"><ele>1208.0</ele><time>2026-04-18T17:24:12.188Z</time></trkpt><trkpt lat="43.8667933" lon="11.7416581"><ele>1208.0</ele><time>2026-04-18T17:24:13.188Z</time></trkpt><trkpt lat="43.8667676" lon="11.7417678"><ele>1208.0</ele><time>2026-04-18T17:24:14.188Z</time></trkpt><trkpt lat="43.866807" lon="11.7418649"><ele>1205.2</ele><time>2026-04-18T17:24:15.187Z</time></trkpt><trkpt lat="43.8668792" lon="11.7419208"><ele>1202.4</ele><time>2026-04-18T17:24:16.187Z</time></trkpt><trkpt lat="43.8669835" lon="11.7419739"><ele>1199.6000000000001</ele><time>2026-04-18T17:24:18.187Z</time></trkpt><trkpt lat="43.8670592" lon="11.7419859"><ele>1196.8</ele><time>2026-04-18T17:24:19.188Z</time></trkpt><trkpt lat="43.8671497" lon="11.7419436"><ele>1194.0</ele><time>2026-04-18T17:24:20.188Z</time></trkpt><trkpt lat="43.8672743" lon="11.741776"><ele>1194.0</ele><time>2026-04-18T17:24:21.188Z</time></trkpt><trkpt lat="43.8673848" lon="11.7416822"><ele>1194.0</ele><time>2026-04-18T17:24:22.187Z</time></trkpt><trkpt lat="43.8674972" lon="11.7415649"><ele>1194.0</ele><time>2026-04-18T17:24:23.187Z</time></trkpt><trkpt lat="43.8676168" lon="11.7414631"><ele>1194.0</ele><time>2026-04-18T17:24:24.188Z</time></trkpt><trkpt lat="43.8677536" lon="11.7413887"><ele>1187.25</ele><time>2026-04-18T17:24:25.188Z</time></trkpt><trkpt lat="43.8678828" lon="11.7413125"><ele>1180.5</ele><time>2026-04-18T17:24:26.187Z</time></trkpt><trkpt lat="43.8680161" lon="11.7412693"><ele>1173.75</ele><time>2026-04-18T17:24:27.188Z</time></trkpt><trkpt lat="43.8681488" lon="11.7412554"><ele>1167.0</ele><time>2026-04-18T17:24:28.188Z</time></trkpt><trkpt lat="43.8682742" lon="11.741204"><ele>1167.0</ele><time>2026-04-18T17:24:29.188Z</time></trkpt><trkpt lat="43.8683493" lon="11.7411538"><ele>1167.0</ele><time>2026-04-18T17:24:30.188Z</time></trkpt><trkpt lat="43.8684365" lon="11.7411143"><ele>1167.0</ele><time>2026-04-18T17:24:31.188Z</time></trkpt><trkpt lat="43.8684592" lon="11.7409823"><ele>1167.0</ele><time>2026-04-18T17:24:32.188Z</time></trkpt><trkpt lat="43.8684847" lon="11.740853"><ele>1167.0</ele><time>2026-04-18T17:24:33.187Z</time></trkpt><trkpt lat="43.8685013" lon="11.7407033"><ele>1170.4</ele><time>2026-04-18T17:24:34.188Z</time></trkpt><trkpt lat="43.8684579" lon="11.7405601"><ele>1173.8000000000002</ele><time>2026-04-18T17:24:35.188Z</time></trkpt><trkpt lat="43.8684939" lon="11.7404447"><ele>1177.2</ele><time>2026-04-18T17:24:36.187Z</time></trkpt><trkpt lat="43.8685498" lon="11.7403843"><ele>1180.6000000000001</ele><time>2026-04-18T17:24:37.188Z</time></trkpt><trkpt lat="43.8686278" lon="11.7403773"><ele>1184.0</ele><time>2026-04-18T17:24:38.188Z</time></trkpt><trkpt lat="43.8687302" lon="11.7404097"><ele>1184.0</ele><time>2026-04-18T17:24:39.188Z</time></trkpt><trkpt lat="43.8688454" lon="11.7404871"><ele>1184.0</ele><time>2026-04-18T17:24:40.187Z</time></trkpt><trkpt lat="43.8689699" lon="11.7405947"><ele>1184.0</ele><time>2026-04-18T17:24:41.188Z</time></trkpt><trkpt lat="43.8691006" lon="11.7407251"><ele>1184.0</ele><time>2026-04-18T17:24:42.188Z</time></trkpt><trkpt lat="43.8692388" lon="11.7408646"><ele>1186.3333333333335</ele><time>2026-04-18T17:24:43.188Z</time></trkpt><trkpt lat="43.8693738" lon="11.7409978"><ele>1188.6666666666667</ele><time>2026-04-18T17:24:44.188Z</time></trkpt><trkpt lat="43.8695011" lon="11.7411673"><ele>1191.0</ele><time>2026-04-18T17:24:45.188Z</time></trkpt><trkpt lat="43.8696174" lon="11.7413371"><ele>1181.6666666666667</ele><time>2026-04-18T17:24:46.188Z</time></trkpt><trkpt lat="43.8697306" lon="11.7415009"><ele>1172.3333333333335</ele><time>2026-04-18T17:24:47.188Z</time></trkpt><trkpt lat="43.8698465" lon="11.7416435"><ele>1163.0</ele><time>2026-04-18T17:24:48.188Z</time></trkpt><trkpt lat="43.8699569" lon="11.741752"><ele>1163.0</ele><time>2026-04-18T17:24:49.187Z</time></trkpt><trkpt lat="43.8700671" lon="11.7418174"><ele>1163.0</ele><time>2026-04-18T17:24:50.188Z</time></trkpt><trkpt lat="43.8701704" lon="11.7418435"><ele>1163.0</ele><time>2026-04-18T17:24:51.188Z</time></trkpt><trkpt lat="43.870271" lon="11.7418562"><ele>1163.0</ele><time>2026-04-18T17:24:52.188Z</time></trkpt><trkpt lat="43.8703638" lon="11.7417389"><ele>1153.25</ele><time>2026-04-18T17:24:53.188Z</time></trkpt><trkpt lat="43.8704358" lon="11.7416128"><ele>1143.5</ele><time>2026-04-18T17:24:54.188Z</time></trkpt><trkpt lat="43.8704651" lon="11.7414224"><ele>1133.75</ele><time>2026-04-18T17:24:55.188Z</time></trkpt><trkpt lat="43.8704787" lon="11.7412339"><ele>1124.0</ele><time>2026-04-18T17:24:56.188Z</time></trkpt><trkpt lat="43.8704682" lon="11.7410208"><ele>1124.0</ele><time>2026-04-18T17:24:57.188Z</time></trkpt><trkpt lat="43.8704386" lon="11.7408114"><ele>1124.0</ele><time>2026-04-18T17:24:58.188Z</time></trkpt><trkpt lat="43.8704122" lon="11.7406146"><ele>1124.0</ele><time>2026-04-18T17:24:59.188Z</time></trkpt><trkpt lat="43.8704153" lon="11.7404218"><ele>1124.0</ele><time>2026-04-18T17:25:00.188Z</time></trkpt><trkpt lat="43.8704397" lon="11.7402406"><ele>1125.25</ele><time>2026-04-18T17:25:01.188Z</time></trkpt><trkpt lat="43.8704743" lon="11.7400833"><ele>1126.5</ele><time>2026-04-18T17:25:02.187Z</time></trkpt><trkpt lat="43.8704887" lon="11.7399404"><ele>1127.75</ele><time>2026-04-18T17:25:03.188Z</time></trkpt><trkpt lat="43.870459" lon="11.7397825"><ele>1129.0</ele><time>2026-04-18T17:25:04.188Z</time></trkpt><trkpt lat="43.8704141" lon="11.7396255"><ele>1129.0</ele><time>2026-04-18T17:25:05.187Z</time></trkpt><trkpt lat="43.8703578" lon="11.7394815"><ele>1129.0</ele><time>2026-04-18T17:25:06.188Z</time></trkpt><trkpt lat="43.8703388" lon="11.7393351"><ele>1129.0</ele><time>2026-04-18T17:25:07.188Z</time></trkpt><trkpt lat="43.870341" lon="11.7392106"><ele>1129.0</ele><time>2026-04-18T17:25:08.188Z</time></trkpt><trkpt lat="43.8703638" lon="11.7391139"><ele>1129.0</ele><time>2026-04-18T17:25:09.188Z</time></trkpt><trkpt lat="43.8704297" lon="11.7390729"><ele>1131.2</ele><time>2026-04-18T17:25:10.188Z</time></trkpt><trkpt lat="43.8705012" lon="11.7390771"><ele>1133.4</ele><time>2026-04-18T17:25:11.188Z</time></trkpt><trkpt lat="43.870608" lon="11.7391059"><ele>1135.6</ele><time>2026-04-18T17:25:12.187Z</time></trkpt><trkpt lat="43.8707096" lon="11.7391344"><ele>1137.8</ele><time>2026-04-18T17:25:13.188Z</time></trkpt><trkpt lat="43.8708418" lon="11.7391841"><ele>1140.0</ele><time>2026-04-18T17:25:14.188Z</time></trkpt><trkpt lat="43.8709636" lon="11.7392075"><ele>1140.0</ele><time>2026-04-18T17:25:15.187Z</time></trkpt><trkpt lat="43.8710758" lon="11.7392023"><ele>1140.0</ele><time>2026-04-18T17:25:16.188Z</time></trkpt><trkpt lat="43.8712039" lon="11.739156"><ele>1140.0</ele><time>2026-04-18T17:25:17.188Z</time></trkpt><trkpt lat="43.8713232" lon="11.7390919"><ele>1140.0</ele><time>2026-04-18T17:25:18.188Z</time></trkpt><trkpt lat="43.8714476" lon="11.7390179"><ele>1140.0</ele><time>2026-04-18T17:25:19.188Z</time></trkpt><trkpt lat="43.8715773" lon="11.7388911"><ele>1140.0</ele><time>2026-04-18T17:25:20.188Z</time></trkpt><trkpt lat="43.8717025" lon="11.7387476"><ele>1140.0</ele><time>2026-04-18T17:25:21.187Z</time></trkpt><trkpt lat="43.8717992" lon="11.7385858"><ele>1143.5</ele><time>2026-04-18T17:25:22.188Z</time></trkpt><trkpt lat="43.8719045" lon="11.7384404"><ele>1147.0</ele><time>2026-04-18T17:25:23.188Z</time></trkpt><trkpt lat="43.8719967" lon="11.7383096"><ele>1150.5</ele><time>2026-04-18T17:25:24.188Z</time></trkpt><trkpt lat="43.8720516" lon="11.7381853"><ele>1154.0</ele><time>2026-04-18T17:25:25.188Z</time></trkpt><trkpt lat="43.8721235" lon="11.7381128"><ele>1154.0</ele><time>2026-04-18T17:25:26.188Z</time></trkpt><trkpt lat="43.8722033" lon="11.7380811"><ele>1154.0</ele><time>2026-04-18T17:25:27.188Z</time></trkpt><trkpt lat="43.8722675" lon="11.7381326"><ele>1154.0</ele><time>2026-04-18T17:25:28.188Z</time></trkpt><trkpt lat="43.8723278" lon="11.7382156"><ele>1154.0</ele><time>2026-04-18T17:25:29.187Z</time></trkpt><trkpt lat="43.872352" lon="11.7383248"><ele>1154.0</ele><time>2026-04-18T17:25:30.188Z</time></trkpt><trkpt lat="43.8723312" lon="11.7384574"><ele>1154.0</ele><time>2026-04-18T17:25:31.188Z</time></trkpt><trkpt lat="43.8722741" lon="11.7385835"><ele>1153.75</ele><time>2026-04-18T17:25:32.187Z</time></trkpt><trkpt lat="43.8722083" lon="11.7387283"><ele>1153.5</ele><time>2026-04-18T17:25:33.188Z</time></trkpt><trkpt lat="43.8721511" lon="11.7389001"><ele>1153.25</ele><time>2026-04-18T17:25:34.188Z</time></trkpt><trkpt lat="43.8721024" lon="11.7390584"><ele>1153.0</ele><time>2026-04-18T17:25:35.187Z</time></trkpt><trkpt lat="43.8720648" lon="11.739206"><ele>1153.0</ele><time>2026-04-18T17:25:36.187Z</time></trkpt><trkpt lat="43.8720114" lon="11.739354"><ele>1153.0</ele><time>2026-04-18T17:25:37.187Z</time></trkpt><trkpt lat="43.8719361" lon="11.7394667"><ele>1153.0</ele><time>2026-04-18T17:25:38.188Z</time></trkpt><trkpt lat="43.8718531" lon="11.7395826"><ele>1153.0</ele><time>2026-04-18T17:25:39.188Z</time></trkpt><trkpt lat="43.8717463" lon="11.7396842"><ele>1149.0</ele><time>2026-04-18T17:25:40.188Z</time></trkpt><trkpt lat="43.8715803" lon="11.7397367"><ele>1145.0</ele><time>2026-04-18T17:25:41.188Z</time></trkpt><trkpt lat="43.8714642" lon="11.739814"><ele>1141.0</ele><time>2026-04-18T17:25:42.187Z</time></trkpt><trkpt lat="43.8713585" lon="11.7399087"><ele>1137.0</ele><time>2026-04-18T17:25:43.188Z</time></trkpt><trkpt lat="43.8712867" lon="11.7400169"><ele>1137.0</ele><time>2026-04-18T17:25:44.188Z</time></trkpt><trkpt lat="43.8712441" lon="11.7401524"><ele>1137.0</ele><time>2026-04-18T17:25:45.187Z</time></trkpt><trkpt lat="43.8711995" lon="11.7402873"><ele>1137.0</ele><time>2026-04-18T17:25:46.188Z</time></trkpt><trkpt lat="43.8711847" lon="11.7404641"><ele>1137.0</ele><time>2026-04-18T17:25:47.188Z</time></trkpt><trkpt lat="43.8712222" lon="11.740691"><ele>1136.5</ele><time>2026-04-18T17:25:48.188Z</time></trkpt><trkpt lat="43.8713643" lon="11.740802"><ele>1136.0</ele><time>2026-04-18T17:25:49.187Z</time></trkpt><trkpt lat="43.8714004" lon="11.7409944"><ele>1135.5</ele><time>2026-04-18T17:25:50.187Z</time></trkpt><trkpt lat="43.8714416" lon="11.7411827"><ele>1135.0</ele><time>2026-04-18T17:25:51.188Z</time></trkpt><trkpt lat="43.8714824" lon="11.7413762"><ele>1132.3333333333333</ele><time>2026-04-18T17:25:52.187Z</time></trkpt><trkpt lat="43.8715185" lon="11.7415923"><ele>1129.6666666666667</ele><time>2026-04-18T17:25:53.187Z</time></trkpt><trkpt lat="43.8715515" lon="11.7418017"><ele>1127.0</ele><time>2026-04-18T17:25:54.188Z</time></trkpt><trkpt lat="43.8715898" lon="11.7420073"><ele>1120.6666666666667</ele><time>2026-04-18T17:25:55.188Z</time></trkpt><trkpt lat="43.8716335" lon="11.7422108"><ele>1114.3333333333333</ele><time>2026-04-18T17:25:56.187Z</time></trkpt><trkpt lat="43.8716755" lon="11.7424169"><ele>1108.0</ele><time>2026-04-18T17:25:57.188Z</time></trkpt><trkpt lat="43.8717714" lon="11.7425919"><ele>1111.3333333333333</ele><time>2026-04-18T17:25:58.186Z</time></trkpt><trkpt lat="43.8718691" lon="11.7427681"><ele>1114.6666666666667</ele><time>2026-04-18T17:25:59.188Z</time></trkpt><trkpt lat="43.8719855" lon="11.7429377"><ele>1118.0</ele><time>2026-04-18T17:26:00.188Z</time></trkpt><trkpt lat="43.872115" lon="11.7430633"><ele>1118.0</ele><time>2026-04-18T17:26:01.188Z</time></trkpt><trkpt lat="43.8722148" lon="11.7432255"><ele>1118.0</ele><time>2026-04-18T17:26:02.187Z</time></trkpt><trkpt lat="43.8722997" lon="11.743405"><ele>1118.0</ele><time>2026-04-18T17:26:03.188Z</time></trkpt><trkpt lat="43.8723841" lon="11.7435807"><ele>1114.3333333333335</ele><time>2026-04-18T17:26:04.188Z</time></trkpt><trkpt lat="43.8724233" lon="11.7438161"><ele>1110.6666666666667</ele><time>2026-04-18T17:26:05.187Z</time></trkpt><trkpt lat="43.8724726" lon="11.7440236"><ele>1107.0</ele><time>2026-04-18T17:26:06.188Z</time></trkpt><trkpt lat="43.8725084" lon="11.7442318"><ele>1104.75</ele><time>2026-04-18T17:26:07.188Z</time></trkpt><trkpt lat="43.8725044" lon="11.7444228"><ele>1102.5</ele><time>2026-04-18T17:26:08.187Z</time></trkpt><trkpt lat="43.8724807" lon="11.7445983"><ele>1100.25</ele><time>2026-04-18T17:26:09.188Z</time></trkpt><trkpt lat="43.8724448" lon="11.7447689"><ele>1098.0</ele><time>2026-04-18T17:26:10.188Z</time></trkpt><trkpt lat="43.8723897" lon="11.7449296"><ele>1098.0</ele><time>2026-04-18T17:26:11.188Z</time></trkpt><trkpt lat="43.8723836" lon="11.7451172"><ele>1098.0</ele><time>2026-04-18T17:26:12.188Z</time></trkpt><trkpt lat="43.8723923" lon="11.7452961"><ele>1098.0</ele><time>2026-04-18T17:26:13.188Z</time></trkpt><trkpt lat="43.8724322" lon="11.7454817"><ele>1098.0</ele><time>2026-04-18T17:26:14.188Z</time></trkpt><trkpt lat="43.8725238" lon="11.7456403"><ele>1097.5</ele><time>2026-04-18T17:26:15.188Z</time></trkpt><trkpt lat="43.8725809" lon="11.7458041"><ele>1097.0</ele><time>2026-04-18T17:26:16.187Z</time></trkpt><trkpt lat="43.8726104" lon="11.7459841"><ele>1096.5</ele><time>2026-04-18T17:26:17.188Z</time></trkpt><trkpt lat="43.8726361" lon="11.7461664"><ele>1096.0</ele><time>2026-04-18T17:26:18.188Z</time></trkpt><trkpt lat="43.8726103" lon="11.7463637"><ele>1093.75</ele><time>2026-04-18T17:26:19.188Z</time></trkpt><trkpt lat="43.8725619" lon="11.7465486"><ele>1091.5</ele><time>2026-04-18T17:26:20.188Z</time></trkpt><trkpt lat="43.8725352" lon="11.7467441"><ele>1089.25</ele><time>2026-04-18T17:26:21.188Z</time></trkpt><trkpt lat="43.8725089" lon="11.7469511"><ele>1087.0</ele><time>2026-04-18T17:26:22.188Z</time></trkpt><trkpt lat="43.8725554" lon="11.7471554"><ele>1091.0</ele><time>2026-04-18T17:26:23.188Z</time></trkpt><trkpt lat="43.8726067" lon="11.7473755"><ele>1095.0</ele><time>2026-04-18T17:26:24.188Z</time></trkpt><trkpt lat="43.8726759" lon="11.7476065"><ele>1099.0</ele><time>2026-04-18T17:26:25.187Z</time></trkpt><trkpt lat="43.8727636" lon="11.7478435"><ele>1099.0</ele><time>2026-04-18T17:26:26.188Z</time></trkpt><trkpt lat="43.8728517" lon="11.7480773"><ele>1099.0</ele><time>2026-04-18T17:26:27.188Z</time></trkpt><trkpt lat="43.8729358" lon="11.7483086"><ele>1099.0</ele><time>2026-04-18T17:26:28.187Z</time></trkpt><trkpt lat="43.8730225" lon="11.7485411"><ele>1095.3333333333333</ele><time>2026-04-18T17:26:29.187Z</time></trkpt><trkpt lat="43.8731099" lon="11.7487732"><ele>1091.6666666666667</ele><time>2026-04-18T17:26:30.187Z</time></trkpt><trkpt lat="43.8731905" lon="11.7489912"><ele>1088.0</ele><time>2026-04-18T17:26:31.187Z</time></trkpt><trkpt lat="43.8732671" lon="11.749198"><ele>1090.6666666666667</ele><time>2026-04-18T17:26:32.188Z</time></trkpt><trkpt lat="43.8733417" lon="11.7493872"><ele>1093.3333333333333</ele><time>2026-04-18T17:26:33.188Z</time></trkpt><trkpt lat="43.8734193" lon="11.7495587"><ele>1096.0</ele><time>2026-04-18T17:26:34.186Z</time></trkpt><trkpt lat="43.8735038" lon="11.7497339"><ele>1096.0</ele><time>2026-04-18T17:26:35.188Z</time></trkpt><trkpt lat="43.8736233" lon="11.7498574"><ele>1096.0</ele><time>2026-04-18T17:26:36.188Z</time></trkpt><trkpt lat="43.8737576" lon="11.7499456"><ele>1096.0</ele><time>2026-04-18T17:26:37.186Z</time></trkpt><trkpt lat="43.8738527" lon="11.7500895"><ele>1096.0</ele><time>2026-04-18T17:26:38.188Z</time></trkpt><trkpt lat="43.8739299" lon="11.7502278"><ele>1089.5</ele><time>2026-04-18T17:26:39.188Z</time></trkpt><trkpt lat="43.8740102" lon="11.7503488"><ele>1083.0</ele><time>2026-04-18T17:26:40.187Z</time></trkpt><trkpt lat="43.8740981" lon="11.7504485"><ele>1076.5</ele><time>2026-04-18T17:26:41.188Z</time></trkpt><trkpt lat="43.8742074" lon="11.7504971"><ele>1070.0</ele><time>2026-04-18T17:26:42.188Z</time></trkpt><trkpt lat="43.8743339" lon="11.7505053"><ele>1066.5</ele><time>2026-04-18T17:26:43.188Z</time></trkpt><trkpt lat="43.8744738" lon="11.7504768"><ele>1063.0</ele><time>2026-04-18T17:26:44.188Z</time></trkpt><trkpt lat="43.8746123" lon="11.7504534"><ele>1059.5</ele><time>2026-04-18T17:26:45.188Z</time></trkpt><trkpt lat="43.8747369" lon="11.7504331"><ele>1056.0</ele><time>2026-04-18T17:26:46.188Z</time></trkpt><trkpt lat="43.8748537" lon="11.7504048"><ele>1056.0</ele><time>2026-04-18T17:26:47.187Z</time></trkpt><trkpt lat="43.8749587" lon="11.750352"><ele>1056.0</ele><time>2026-04-18T17:26:48.188Z</time></trkpt><trkpt lat="43.8750429" lon="11.7502497"><ele>1056.0</ele><time>2026-04-18T17:26:49.186Z</time></trkpt><trkpt lat="43.8751346" lon="11.7501594"><ele>1056.0</ele><time>2026-04-18T17:26:50.187Z</time></trkpt><trkpt lat="43.8751682" lon="11.749937"><ele>1056.5</ele><time>2026-04-18T17:26:51.188Z</time></trkpt><trkpt lat="43.8752309" lon="11.7497694"><ele>1057.0</ele><time>2026-04-18T17:26:52.188Z</time></trkpt><trkpt lat="43.8752847" lon="11.7496143"><ele>1057.5</ele><time>2026-04-18T17:26:53.188Z</time></trkpt><trkpt lat="43.8753519" lon="11.7494843"><ele>1058.0</ele><time>2026-04-18T17:26:54.188Z</time></trkpt><trkpt lat="43.8754501" lon="11.7493968"><ele>1063.5</ele><time>2026-04-18T17:26:55.188Z</time></trkpt><trkpt lat="43.8755735" lon="11.7493565"><ele>1069.0</ele><time>2026-04-18T17:26:56.188Z</time></trkpt><trkpt lat="43.8757064" lon="11.749366"><ele>1074.5</ele><time>2026-04-18T17:26:57.188Z</time></trkpt><trkpt lat="43.8758322" lon="11.7493611"><ele>1080.0</ele><time>2026-04-18T17:26:58.188Z</time></trkpt><trkpt lat="43.8759658" lon="11.7493532"><ele>1080.0</ele><time>2026-04-18T17:26:59.188Z</time></trkpt><trkpt lat="43.8760983" lon="11.7493305"><ele>1080.0</ele><time>2026-04-18T17:27:00.188Z</time></trkpt><trkpt lat="43.8762602" lon="11.7491345"><ele>1080.0</ele><time>2026-04-18T17:27:01.188Z</time></trkpt><trkpt lat="43.8763951" lon="11.7490427"><ele>1080.0</ele><time>2026-04-18T17:27:02.188Z</time></trkpt><trkpt lat="43.8765208" lon="11.7489552"><ele>1080.0</ele><time>2026-04-18T17:27:03.188Z</time></trkpt><trkpt lat="43.8766313" lon="11.7489051"><ele>1080.0</ele><time>2026-04-18T17:27:04.187Z</time></trkpt><trkpt lat="43.8767424" lon="11.7489092"><ele>1080.0</ele><time>2026-04-18T17:27:05.187Z</time></trkpt><trkpt lat="43.8768525" lon="11.7489646"><ele>1078.25</ele><time>2026-04-18T17:27:06.188Z</time></trkpt><trkpt lat="43.876956" lon="11.7490612"><ele>1076.5</ele><time>2026-04-18T17:27:07.188Z</time></trkpt><trkpt lat="43.877051" lon="11.7491926"><ele>1074.75</ele><time>2026-04-18T17:27:08.187Z</time></trkpt><trkpt lat="43.8771456" lon="11.7492984"><ele>1073.0</ele><time>2026-04-18T17:27:09.188Z</time></trkpt><trkpt lat="43.8772397" lon="11.7493691"><ele>1073.0</ele><time>2026-04-18T17:27:10.188Z</time></trkpt><trkpt lat="43.8773338" lon="11.7494002"><ele>1073.0</ele><time>2026-04-18T17:27:11.188Z</time></trkpt><trkpt lat="43.8774324" lon="11.7493823"><ele>1073.0</ele><time>2026-04-18T17:27:12.188Z</time></trkpt><trkpt lat="43.8775216" lon="11.749306"><ele>1073.0</ele><time>2026-04-18T17:27:13.188Z</time></trkpt><trkpt lat="43.8775863" lon="11.7491908"><ele>1073.0</ele><time>2026-04-18T17:27:14.188Z</time></trkpt><trkpt lat="43.8776263" lon="11.7490478"><ele>1071.0</ele><time>2026-04-18T17:27:15.187Z</time></trkpt><trkpt lat="43.8776596" lon="11.7489179"><ele>1069.0</ele><time>2026-04-18T17:27:16.187Z</time></trkpt><trkpt lat="43.8777092" lon="11.7488102"><ele>1067.0</ele><time>2026-04-18T17:27:17.188Z</time></trkpt><trkpt lat="43.8777907" lon="11.7487299"><ele>1065.0</ele><time>2026-04-18T17:27:18.187Z</time></trkpt><trkpt lat="43.8778947" lon="11.7486957"><ele>1063.0</ele><time>2026-04-18T17:27:19.188Z</time></trkpt><trkpt lat="43.8780063" lon="11.7487107"><ele>1063.0</ele><time>2026-04-18T17:27:20.188Z</time></trkpt><trkpt lat="43.8781205" lon="11.7488065"><ele>1063.0</ele><time>2026-04-18T17:27:21.186Z</time></trkpt><trkpt lat="43.8782265" lon="11.7489356"><ele>1063.0</ele><time>2026-04-18T17:27:22.188Z</time></trkpt><trkpt lat="43.8783372" lon="11.7490625"><ele>1063.0</ele><time>2026-04-18T17:27:23.188Z</time></trkpt><trkpt lat="43.8784622" lon="11.7491636"><ele>1068.5</ele><time>2026-04-18T17:27:24.188Z</time></trkpt><trkpt lat="43.8786031" lon="11.7492381"><ele>1074.0</ele><time>2026-04-18T17:27:25.188Z</time></trkpt><trkpt lat="43.8787549" lon="11.7492848"><ele>1079.5</ele><time>2026-04-18T17:27:26.187Z</time></trkpt><trkpt lat="43.8788846" lon="11.7493196"><ele>1085.0</ele><time>2026-04-18T17:27:27.188Z</time></trkpt><trkpt lat="43.8790067" lon="11.7493625"><ele>1086.25</ele><time>2026-04-18T17:27:28.187Z</time></trkpt><trkpt lat="43.8791192" lon="11.7494274"><ele>1087.5</ele><time>2026-04-18T17:27:29.188Z</time></trkpt><trkpt lat="43.8792122" lon="11.7495242"><ele>1088.75</ele><time>2026-04-18T17:27:30.188Z</time></trkpt><trkpt lat="43.8792742" lon="11.7496517"><ele>1090.0</ele><time>2026-04-18T17:27:31.187Z</time></trkpt><trkpt lat="43.879312" lon="11.7498062"><ele>1090.0</ele><time>2026-04-18T17:27:32.188Z</time></trkpt><trkpt lat="43.8793293" lon="11.7499739"><ele>1090.0</ele><time>2026-04-18T17:27:33.188Z</time></trkpt><trkpt lat="43.8793428" lon="11.7501328"><ele>1090.0</ele><time>2026-04-18T17:27:34.187Z</time></trkpt><trkpt lat="43.8793626" lon="11.7502959"><ele>1090.0</ele><time>2026-04-18T17:27:35.188Z</time></trkpt><trkpt lat="43.8794029" lon="11.7504688"><ele>1085.75</ele><time>2026-04-18T17:27:36.188Z</time></trkpt><trkpt lat="43.8794673" lon="11.7506372"><ele>1081.5</ele><time>2026-04-18T17:27:37.188Z</time></trkpt><trkpt lat="43.8795568" lon="11.7508053"><ele>1077.25</ele><time>2026-04-18T17:27:38.188Z</time></trkpt><trkpt lat="43.8796474" lon="11.7509882"><ele>1073.0</ele><time>2026-04-18T17:27:39.188Z</time></trkpt><trkpt lat="43.879731" lon="11.7511817"><ele>1064.6666666666667</ele><time>2026-04-18T17:27:40.188Z</time></trkpt><trkpt lat="43.8797989" lon="11.7513801"><ele>1056.3333333333333</ele><time>2026-04-18T17:27:41.187Z</time></trkpt><trkpt lat="43.8798603" lon="11.751571"><ele>1048.0</ele><time>2026-04-18T17:27:42.188Z</time></trkpt><trkpt lat="43.8799316" lon="11.7517555"><ele>1040.75</ele><time>2026-04-18T17:27:43.188Z</time></trkpt><trkpt lat="43.8800025" lon="11.7519243"><ele>1033.5</ele><time>2026-04-18T17:27:44.188Z</time></trkpt><trkpt lat="43.8800701" lon="11.7520784"><ele>1026.25</ele><time>2026-04-18T17:27:45.188Z</time></trkpt><trkpt lat="43.8801412" lon="11.7522046"><ele>1019.0</ele><time>2026-04-18T17:27:46.188Z</time></trkpt><trkpt lat="43.8802238" lon="11.7522897"><ele>1018.0</ele><time>2026-04-18T17:27:47.188Z</time></trkpt><trkpt lat="43.880323" lon="11.7523319"><ele>1017.0000000000001</ele><time>2026-04-18T17:27:48.188Z</time></trkpt><trkpt lat="43.880423" lon="11.7523216"><ele>1016.0000000000001</ele><time>2026-04-18T17:27:49.188Z</time></trkpt><trkpt lat="43.8805177" lon="11.7522588"><ele>1015.0</ele><time>2026-04-18T17:27:50.188Z</time></trkpt><trkpt lat="43.8806067" lon="11.7521655"><ele>1014.0</ele><time>2026-04-18T17:27:51.188Z</time></trkpt><trkpt lat="43.8807" lon="11.7521"><ele>1014.0</ele><time>2026-04-18T17:27:52.188Z</time></trkpt><trkpt lat="43.8808057" lon="11.7520649"><ele>1014.0</ele><time>2026-04-18T17:27:53.187Z</time></trkpt><trkpt lat="43.8809213" lon="11.752058"><ele>1014.0</ele><time>2026-04-18T17:27:54.188Z</time></trkpt><trkpt lat="43.8810385" lon="11.7520869"><ele>1014.0</ele><time>2026-04-18T17:27:55.188Z</time></trkpt><trkpt lat="43.8811767" lon="11.7521402"><ele>1014.3333333333333</ele><time>2026-04-18T17:27:56.187Z</time></trkpt><trkpt lat="43.8813225" lon="11.7521887"><ele>1014.6666666666666</ele><time>2026-04-18T17:27:57.188Z</time></trkpt><trkpt lat="43.8814766" lon="11.7522597"><ele>1015.0</ele><time>2026-04-18T17:27:58.188Z</time></trkpt><trkpt lat="43.8816189" lon="11.7523408"><ele>1015.0</ele><time>2026-04-18T17:27:59.188Z</time></trkpt><trkpt lat="43.8817508" lon="11.7524202"><ele>1015.0</ele><time>2026-04-18T17:28:00.186Z</time></trkpt><trkpt lat="43.8818659" lon="11.7524852"><ele>1015.0</ele><time>2026-04-18T17:28:01.188Z</time></trkpt><trkpt lat="43.8819794" lon="11.7525158"><ele>1015.0</ele><time>2026-04-18T17:28:02.188Z</time></trkpt><trkpt lat="43.8820944" lon="11.7524843"><ele>1013.5</ele><time>2026-04-18T17:28:03.187Z</time></trkpt><trkpt lat="43.882209" lon="11.752417"><ele>1012.0</ele><time>2026-04-18T17:28:04.188Z</time></trkpt><trkpt lat="43.8823163" lon="11.7523574"><ele>1010.5</ele><time>2026-04-18T17:28:05.188Z</time></trkpt><trkpt lat="43.8824273" lon="11.7523483"><ele>1009.0</ele><time>2026-04-18T17:28:06.188Z</time></trkpt><trkpt lat="43.8825407" lon="11.7524024"><ele>1008.25</ele><time>2026-04-18T17:28:07.187Z</time></trkpt><trkpt lat="43.8826489" lon="11.7525205"><ele>1007.5</ele><time>2026-04-18T17:28:08.188Z</time></trkpt><trkpt lat="43.8827537" lon="11.7526619"><ele>1006.75</ele><time>2026-04-18T17:28:09.187Z</time></trkpt><trkpt lat="43.8828637" lon="11.7527817"><ele>1006.0</ele><time>2026-04-18T17:28:10.187Z</time></trkpt><trkpt lat="43.8829902" lon="11.7528569"><ele>1006.0</ele><time>2026-04-18T17:28:11.187Z</time></trkpt><trkpt lat="43.8831275" lon="11.7528832"><ele>1006.0</ele><time>2026-04-18T17:28:12.187Z</time></trkpt><trkpt lat="43.8832637" lon="11.7528985"><ele>1006.0</ele><time>2026-04-18T17:28:13.188Z</time></trkpt><trkpt lat="43.8833907" lon="11.7529441"><ele>1006.0</ele><time>2026-04-18T17:28:14.188Z</time></trkpt><trkpt lat="43.883496" lon="11.7530241"><ele>1000.4</ele><time>2026-04-18T17:28:15.187Z</time></trkpt><trkpt lat="43.8835616" lon="11.7531373"><ele>994.8</ele><time>2026-04-18T17:28:16.188Z</time></trkpt><trkpt lat="43.8835729" lon="11.7532665"><ele>989.1999999999999</ele><time>2026-04-18T17:28:17.188Z</time></trkpt><trkpt lat="43.8835421" lon="11.7534024"><ele>983.5999999999999</ele><time>2026-04-18T17:28:18.188Z</time></trkpt><trkpt lat="43.8835139" lon="11.7535443"><ele>978.0</ele><time>2026-04-18T17:28:19.187Z</time></trkpt><trkpt lat="43.8835194" lon="11.753718"><ele>978.0</ele><time>2026-04-18T17:28:20.188Z</time></trkpt><trkpt lat="43.8835579" lon="11.7539052"><ele>978.0</ele><time>2026-04-18T17:28:21.188Z</time></trkpt><trkpt lat="43.8836321" lon="11.7540961"><ele>978.0</ele><time>2026-04-18T17:28:22.188Z</time></trkpt><trkpt lat="43.8837433" lon="11.7542826"><ele>978.6666666666667</ele><time>2026-04-18T17:28:23.188Z</time></trkpt><trkpt lat="43.8838676" lon="11.7544459"><ele>979.3333333333334</ele><time>2026-04-18T17:28:24.188Z</time></trkpt><trkpt lat="43.8839953" lon="11.7545859"><ele>980.0</ele><time>2026-04-18T17:28:25.188Z</time></trkpt><trkpt lat="43.8841096" lon="11.7547192"><ele>980.0</ele><time>2026-04-18T17:28:26.188Z</time></trkpt><trkpt lat="43.8841973" lon="11.7548658"><ele>980.0</ele><time>2026-04-18T17:28:27.187Z</time></trkpt><trkpt lat="43.884252" lon="11.7550352"><ele>980.0</ele><time>2026-04-18T17:28:28.188Z</time></trkpt><trkpt lat="43.8842968" lon="11.7551993"><ele>980.0</ele><time>2026-04-18T17:28:29.188Z</time></trkpt><trkpt lat="43.8843745" lon="11.7553356"><ele>977.25</ele><time>2026-04-18T17:28:30.187Z</time></trkpt><trkpt lat="43.8844812" lon="11.7554393"><ele>974.5</ele><time>2026-04-18T17:28:31.188Z</time></trkpt><trkpt lat="43.8846065" lon="11.755518"><ele>971.75</ele><time>2026-04-18T17:28:32.188Z</time></trkpt><trkpt lat="43.8847306" lon="11.7555837"><ele>969.0</ele><time>2026-04-18T17:28:33.188Z</time></trkpt><trkpt lat="43.8848401" lon="11.755653"><ele>969.0</ele><time>2026-04-18T17:28:34.188Z</time></trkpt><trkpt lat="43.8849203" lon="11.7557363"><ele>969.0000000000001</ele><time>2026-04-18T17:28:35.188Z</time></trkpt><trkpt lat="43.8849691" lon="11.7558544"><ele>969.0000000000001</ele><time>2026-04-18T17:28:36.188Z</time></trkpt><trkpt lat="43.8849825" lon="11.7560096"><ele>969.0</ele><time>2026-04-18T17:28:37.188Z</time></trkpt><trkpt lat="43.8849875" lon="11.7561718"><ele>969.0</ele><time>2026-04-18T17:28:38.187Z</time></trkpt><trkpt lat="43.8850187" lon="11.7563445"><ele>968.3333333333333</ele><time>2026-04-18T17:28:39.188Z</time></trkpt><trkpt lat="43.8850829" lon="11.7565178"><ele>967.6666666666666</ele><time>2026-04-18T17:28:40.188Z</time></trkpt><trkpt lat="43.8851802" lon="11.7566985"><ele>967.0</ele><time>2026-04-18T17:28:41.188Z</time></trkpt><trkpt lat="43.885295" lon="11.7568828"><ele>964.5</ele><time>2026-04-18T17:28:42.188Z</time></trkpt><trkpt lat="43.8854022" lon="11.7570483"><ele>962.0</ele><time>2026-04-18T17:28:43.188Z</time></trkpt><trkpt lat="43.8854969" lon="11.7571924"><ele>959.5</ele><time>2026-04-18T17:28:44.187Z</time></trkpt><trkpt lat="43.8855738" lon="11.757307"><ele>957.0</ele><time>2026-04-18T17:28:45.188Z</time></trkpt><trkpt lat="43.8856223" lon="11.7574084"><ele>957.0</ele><time>2026-04-18T17:28:46.188Z</time></trkpt><trkpt lat="43.8856304" lon="11.7575112"><ele>957.0</ele><time>2026-04-18T17:28:47.187Z</time></trkpt><trkpt lat="43.8855979" lon="11.7576009"><ele>957.0</ele><time>2026-04-18T17:28:48.187Z</time></trkpt><trkpt lat="43.885531" lon="11.7576437"><ele>957.0</ele><time>2026-04-18T17:28:49.187Z</time></trkpt><trkpt lat="43.8854559" lon="11.7576423"><ele>957.0</ele><time>2026-04-18T17:28:50.187Z</time></trkpt><trkpt lat="43.8853774" lon="11.75752"><ele>957.0</ele><time>2026-04-18T17:28:51.188Z</time></trkpt><trkpt lat="43.8852892" lon="11.7573821"><ele>957.0</ele><time>2026-04-18T17:28:52.188Z</time></trkpt><trkpt lat="43.8851986" lon="11.7572342"><ele>957.0</ele><time>2026-04-18T17:28:53.188Z</time></trkpt><trkpt lat="43.8850965" lon="11.7570673"><ele>957.0</ele><time>2026-04-18T17:28:54.188Z</time></trkpt><trkpt lat="43.8849943" lon="11.7568996"><ele>959.5</ele><time>2026-04-18T17:28:55.188Z</time></trkpt><trkpt lat="43.8848999" lon="11.7567449"><ele>962.0</ele><time>2026-04-18T17:28:56.188Z</time></trkpt><trkpt lat="43.8848101" lon="11.7565966"><ele>964.5</ele><time>2026-04-18T17:28:57.188Z</time></trkpt><trkpt lat="43.8847265" lon="11.7564578"><ele>967.0</ele><time>2026-04-18T17:28:58.188Z</time></trkpt><trkpt lat="43.884659" lon="11.7563406"><ele>966.9999999999999</ele><time>2026-04-18T17:28:59.188Z</time></trkpt><trkpt lat="43.8845922" lon="11.7562541"><ele>967.0</ele><time>2026-04-18T17:29:00.188Z</time></trkpt><trkpt lat="43.8845212" lon="11.7562318"><ele>967.0</ele><time>2026-04-18T17:29:01.188Z</time></trkpt><trkpt lat="43.8844477" lon="11.7562569"><ele>967.0</ele><time>2026-04-18T17:29:02.188Z</time></trkpt><trkpt lat="43.8843976" lon="11.7563359"><ele>966.9999999999999</ele><time>2026-04-18T17:29:03.188Z</time></trkpt><trkpt lat="43.8843843" lon="11.7564389"><ele>967.0</ele><time>2026-04-18T17:29:04.188Z</time></trkpt><trkpt lat="43.8844186" lon="11.7565321"><ele>967.0</ele><time>2026-04-18T17:29:05.188Z</time></trkpt><trkpt lat="43.8844913" lon="11.7566235"><ele>967.0</ele><time>2026-04-18T17:29:06.188Z</time></trkpt><trkpt lat="43.8845934" lon="11.7567277"><ele>967.0</ele><time>2026-04-18T17:29:07.188Z</time></trkpt><trkpt lat="43.8847022" lon="11.7568409"><ele>967.0</ele><time>2026-04-18T17:29:08.188Z</time></trkpt><trkpt lat="43.8848162" lon="11.7569823"><ele>963.6666666666666</ele><time>2026-04-18T17:29:09.188Z</time></trkpt><trkpt lat="43.8849229" lon="11.7571486"><ele>960.3333333333333</ele><time>2026-04-18T17:29:10.187Z</time></trkpt><trkpt lat="43.8850149" lon="11.757324"><ele>957.0</ele><time>2026-04-18T17:29:11.188Z</time></trkpt><trkpt lat="43.8851019" lon="11.7574994"><ele>957.0</ele><time>2026-04-18T17:29:12.187Z</time></trkpt><trkpt lat="43.8851841" lon="11.7576688"><ele>957.0</ele><time>2026-04-18T17:29:13.188Z</time></trkpt><trkpt lat="43.8852616" lon="11.7578325"><ele>957.0</ele><time>2026-04-18T17:29:14.188Z</time></trkpt><trkpt lat="43.8853337" lon="11.7579909"><ele>957.0</ele><time>2026-04-18T17:29:15.188Z</time></trkpt><trkpt lat="43.8853983" lon="11.7581563"><ele>954.75</ele><time>2026-04-18T17:29:16.188Z</time></trkpt><trkpt lat="43.8854564" lon="11.7583189"><ele>952.5</ele><time>2026-04-18T17:29:17.188Z</time></trkpt><trkpt lat="43.8855109" lon="11.7584762"><ele>950.25</ele><time>2026-04-18T17:29:18.188Z</time></trkpt><trkpt lat="43.8855595" lon="11.7586323"><ele>948.0</ele><time>2026-04-18T17:29:19.188Z</time></trkpt><trkpt lat="43.885591" lon="11.7587991"><ele>948.0</ele><time>2026-04-18T17:29:20.188Z</time></trkpt><trkpt lat="43.8855855" lon="11.7589792"><ele>948.0</ele><time>2026-04-18T17:29:21.187Z</time></trkpt><trkpt lat="43.8855638" lon="11.7591654"><ele>948.0</ele><time>2026-04-18T17:29:22.188Z</time></trkpt><trkpt lat="43.885561" lon="11.759362"><ele>948.0</ele><time>2026-04-18T17:29:23.187Z</time></trkpt><trkpt lat="43.885581" lon="11.7595644"><ele>948.5</ele><time>2026-04-18T17:29:24.187Z</time></trkpt><trkpt lat="43.8856045" lon="11.7597577"><ele>949.0</ele><time>2026-04-18T17:29:25.188Z</time></trkpt><trkpt lat="43.885602" lon="11.7599441"><ele>949.5</ele><time>2026-04-18T17:29:26.187Z</time></trkpt><trkpt lat="43.8855709" lon="11.7601331"><ele>950.0</ele><time>2026-04-18T17:29:27.188Z</time></trkpt><trkpt lat="43.8855249" lon="11.7603169"><ele>951.5</ele><time>2026-04-18T17:29:28.187Z</time></trkpt><trkpt lat="43.8854623" lon="11.7604748"><ele>953.0</ele><time>2026-04-18T17:29:29.188Z</time></trkpt><trkpt lat="43.8853812" lon="11.7606093"><ele>954.5</ele><time>2026-04-18T17:29:30.188Z</time></trkpt><trkpt lat="43.8853053" lon="11.7607409"><ele>956.0</ele><time>2026-04-18T17:29:31.187Z</time></trkpt><trkpt lat="43.8852486" lon="11.7608995"><ele>951.25</ele><time>2026-04-18T17:29:32.188Z</time></trkpt><trkpt lat="43.8852223" lon="11.7610858"><ele>946.5</ele><time>2026-04-18T17:29:33.188Z</time></trkpt><trkpt lat="43.8852253" lon="11.7612766"><ele>941.75</ele><time>2026-04-18T17:29:34.186Z</time></trkpt><trkpt lat="43.88524" lon="11.761453"><ele>937.0</ele><time>2026-04-18T17:29:35.188Z</time></trkpt><trkpt lat="43.8852671" lon="11.7615936"><ele>937.0</ele><time>2026-04-18T17:29:36.188Z</time></trkpt><trkpt lat="43.8853253" lon="11.7616955"><ele>937.0</ele><time>2026-04-18T17:29:37.188Z</time></trkpt><trkpt lat="43.8854053" lon="11.7617557"><ele>937.0</ele><time>2026-04-18T17:29:38.187Z</time></trkpt><trkpt lat="43.8855073" lon="11.7617813"><ele>937.0</ele><time>2026-04-18T17:29:39.188Z</time></trkpt><trkpt lat="43.8856353" lon="11.7617963"><ele>937.0</ele><time>2026-04-18T17:29:40.188Z</time></trkpt><trkpt lat="43.8857769" lon="11.7618269"><ele>928.3333333333333</ele><time>2026-04-18T17:29:41.188Z</time></trkpt><trkpt lat="43.8859278" lon="11.7618749"><ele>919.6666666666667</ele><time>2026-04-18T17:29:42.187Z</time></trkpt><trkpt lat="43.8860822" lon="11.7619175"><ele>911.0</ele><time>2026-04-18T17:29:43.188Z</time></trkpt><trkpt lat="43.8862491" lon="11.7619368"><ele>908.3333333333334</ele><time>2026-04-18T17:29:44.188Z</time></trkpt><trkpt lat="43.8864229" lon="11.7619223"><ele>905.6666666666667</ele><time>2026-04-18T17:29:45.188Z</time></trkpt><trkpt lat="43.8865839" lon="11.7619024"><ele>903.0</ele><time>2026-04-18T17:29:46.188Z</time></trkpt><trkpt lat="43.8867413" lon="11.7618888"><ele>909.5</ele><time>2026-04-18T17:29:47.188Z</time></trkpt><trkpt lat="43.8868754" lon="11.7618843"><ele>916.0</ele><time>2026-04-18T17:29:48.188Z</time></trkpt><trkpt lat="43.8869945" lon="11.7619019"><ele>922.5</ele><time>2026-04-18T17:29:49.188Z</time></trkpt><trkpt lat="43.8871023" lon="11.7619556"><ele>929.0</ele><time>2026-04-18T17:29:50.188Z</time></trkpt><trkpt lat="43.887176" lon="11.7620783"><ele>929.0</ele><time>2026-04-18T17:29:51.188Z</time></trkpt><trkpt lat="43.887231" lon="11.7622508"><ele>929.0</ele><time>2026-04-18T17:29:52.188Z</time></trkpt><trkpt lat="43.8872741" lon="11.7624569"><ele>929.0</ele><time>2026-04-18T17:29:53.186Z</time></trkpt><trkpt lat="43.8873074" lon="11.7626697"><ele>929.0</ele><time>2026-04-18T17:29:54.188Z</time></trkpt><trkpt lat="43.8873402" lon="11.7628727"><ele>923.75</ele><time>2026-04-18T17:29:55.188Z</time></trkpt><trkpt lat="43.8873757" lon="11.7630652"><ele>918.5</ele><time>2026-04-18T17:29:56.187Z</time></trkpt><trkpt lat="43.8874242" lon="11.7632426"><ele>913.25</ele><time>2026-04-18T17:29:57.188Z</time></trkpt><trkpt lat="43.8875049" lon="11.7634117"><ele>908.0</ele><time>2026-04-18T17:29:58.188Z</time></trkpt><trkpt lat="43.8876043" lon="11.7635741"><ele>904.5</ele><time>2026-04-18T17:29:59.188Z</time></trkpt><trkpt lat="43.8876994" lon="11.7637256"><ele>901.0</ele><time>2026-04-18T17:30:00.188Z</time></trkpt><trkpt lat="43.8877928" lon="11.7638673"><ele>897.5</ele><time>2026-04-18T17:30:01.188Z</time></trkpt><trkpt lat="43.8878824" lon="11.7639735"><ele>894.0</ele><time>2026-04-18T17:30:02.188Z</time></trkpt><trkpt lat="43.8879897" lon="11.7640158"><ele>894.0</ele><time>2026-04-18T17:30:03.187Z</time></trkpt><trkpt lat="43.8881131" lon="11.7640054"><ele>894.0</ele><time>2026-04-18T17:30:04.188Z</time></trkpt><trkpt lat="43.8882457" lon="11.7639558"><ele>894.0</ele><time>2026-04-18T17:30:05.188Z</time></trkpt><trkpt lat="43.888379" lon="11.7638906"><ele>894.0</ele><time>2026-04-18T17:30:06.188Z</time></trkpt><trkpt lat="43.8885026" lon="11.7638276"><ele>897.0</ele><time>2026-04-18T17:30:07.187Z</time></trkpt><trkpt lat="43.8886164" lon="11.7637734"><ele>900.0000000000001</ele><time>2026-04-18T17:30:08.187Z</time></trkpt><trkpt lat="43.8887215" lon="11.7637551"><ele>903.0000000000001</ele><time>2026-04-18T17:30:09.188Z</time></trkpt><trkpt lat="43.8888133" lon="11.7637851"><ele>906.0</ele><time>2026-04-18T17:30:10.188Z</time></trkpt><trkpt lat="43.8888768" lon="11.7638736"><ele>909.0</ele><time>2026-04-18T17:30:11.188Z</time></trkpt><trkpt lat="43.8889128" lon="11.764008"><ele>909.0</ele><time>2026-04-18T17:30:12.188Z</time></trkpt><trkpt lat="43.8889155" lon="11.7641838"><ele>909.0</ele><time>2026-04-18T17:30:13.188Z</time></trkpt><trkpt lat="43.8888836" lon="11.7643666"><ele>909.0</ele><time>2026-04-18T17:30:14.188Z</time></trkpt><trkpt lat="43.8888436" lon="11.7645454"><ele>909.0</ele><time>2026-04-18T17:30:15.187Z</time></trkpt><trkpt lat="43.8887904" lon="11.7647264"><ele>906.5</ele><time>2026-04-18T17:30:16.187Z</time></trkpt><trkpt lat="43.8887472" lon="11.7649069"><ele>904.0</ele><time>2026-04-18T17:30:17.187Z</time></trkpt><trkpt lat="43.8887207" lon="11.765106"><ele>901.5</ele><time>2026-04-18T17:30:18.188Z</time></trkpt><trkpt lat="43.8887137" lon="11.7653114"><ele>899.0</ele><time>2026-04-18T17:30:19.188Z</time></trkpt><trkpt lat="43.8887205" lon="11.7655052"><ele>895.75</ele><time>2026-04-18T17:30:20.188Z</time></trkpt><trkpt lat="43.8887288" lon="11.7657008"><ele>892.5</ele><time>2026-04-18T17:30:21.188Z</time></trkpt><trkpt lat="43.8887422" lon="11.7658802"><ele>889.25</ele><time>2026-04-18T17:30:22.186Z</time></trkpt><trkpt lat="43.8887723" lon="11.7660476"><ele>886.0</ele><time>2026-04-18T17:30:23.188Z</time></trkpt><trkpt lat="43.8888262" lon="11.7661995"><ele>881.0</ele><time>2026-04-18T17:30:24.188Z</time></trkpt><trkpt lat="43.8889152" lon="11.7663131"><ele>876.0</ele><time>2026-04-18T17:30:25.187Z</time></trkpt><trkpt lat="43.889016" lon="11.7663774"><ele>871.0</ele><time>2026-04-18T17:30:26.188Z</time></trkpt><trkpt lat="43.889128" lon="11.7663972"><ele>866.0</ele><time>2026-04-18T17:30:27.188Z</time></trkpt><trkpt lat="43.8892376" lon="11.7663718"><ele>867.25</ele><time>2026-04-18T17:30:28.188Z</time></trkpt><trkpt lat="43.8893417" lon="11.7663058"><ele>868.5</ele><time>2026-04-18T17:30:29.188Z</time></trkpt><trkpt lat="43.889428" lon="11.7661918"><ele>869.75</ele><time>2026-04-18T17:30:30.188Z</time></trkpt><trkpt lat="43.8895054" lon="11.7660783"><ele>871.0</ele><time>2026-04-18T17:30:31.188Z</time></trkpt><trkpt lat="43.8895994" lon="11.7659863"><ele>871.0</ele><time>2026-04-18T17:30:32.188Z</time></trkpt><trkpt lat="43.8897006" lon="11.7659429"><ele>870.9999999999999</ele><time>2026-04-18T17:30:33.188Z</time></trkpt><trkpt lat="43.8897973" lon="11.7659608"><ele>870.9999999999999</ele><time>2026-04-18T17:30:34.188Z</time></trkpt><trkpt lat="43.8898832" lon="11.7660386"><ele>871.0</ele><time>2026-04-18T17:30:35.188Z</time></trkpt><trkpt lat="43.8899585" lon="11.7661675"><ele>871.0</ele><time>2026-04-18T17:30:36.188Z</time></trkpt><trkpt lat="43.8900229" lon="11.7663205"><ele>871.0</ele><time>2026-04-18T17:30:37.188Z</time></trkpt><trkpt lat="43.890064" lon="11.7664676"><ele>870.9999999999999</ele><time>2026-04-18T17:30:38.188Z</time></trkpt><trkpt lat="43.8900712" lon="11.7666181"><ele>870.9999999999999</ele><time>2026-04-18T17:30:39.188Z</time></trkpt><trkpt lat="43.8900375" lon="11.7667531"><ele>871.0</ele><time>2026-04-18T17:30:40.187Z</time></trkpt><trkpt lat="43.8899702" lon="11.7668748"><ele>871.0</ele><time>2026-04-18T17:30:41.187Z</time></trkpt><trkpt lat="43.8898972" lon="11.7669862"><ele>869.5</ele><time>2026-04-18T17:30:42.188Z</time></trkpt><trkpt lat="43.8898461" lon="11.7671217"><ele>868.0</ele><time>2026-04-18T17:30:43.188Z</time></trkpt><trkpt lat="43.8898244" lon="11.7672701"><ele>866.5</ele><time>2026-04-18T17:30:44.187Z</time></trkpt><trkpt lat="43.8898354" lon="11.7674214"><ele>865.0</ele><time>2026-04-18T17:30:45.188Z</time></trkpt><trkpt lat="43.8898821" lon="11.7675821"><ele>861.75</ele><time>2026-04-18T17:30:46.186Z</time></trkpt><trkpt lat="43.8899638" lon="11.7677395"><ele>858.5</ele><time>2026-04-18T17:30:47.188Z</time></trkpt><trkpt lat="43.8900535" lon="11.7678927"><ele>855.25</ele><time>2026-04-18T17:30:48.188Z</time></trkpt><trkpt lat="43.8901379" lon="11.7680401"><ele>852.0</ele><time>2026-04-18T17:30:49.187Z</time></trkpt><trkpt lat="43.8902044" lon="11.7681847"><ele>853.8</ele><time>2026-04-18T17:30:50.188Z</time></trkpt><trkpt lat="43.8902295" lon="11.7683227"><ele>855.6</ele><time>2026-04-18T17:30:51.187Z</time></trkpt><trkpt lat="43.8902241" lon="11.7684732"><ele>857.3999999999999</ele><time>2026-04-18T17:30:52.188Z</time></trkpt><trkpt lat="43.8901741" lon="11.7685975"><ele>859.1999999999999</ele><time>2026-04-18T17:30:53.188Z</time></trkpt><trkpt lat="43.8900813" lon="11.7686787"><ele>861.0</ele><time>2026-04-18T17:30:54.188Z</time></trkpt><trkpt lat="43.8899689" lon="11.7687325"><ele>861.0</ele><time>2026-04-18T17:30:55.188Z</time></trkpt><trkpt lat="43.8898643" lon="11.7687749"><ele>860.9999999999999</ele><time>2026-04-18T17:30:56.188Z</time></trkpt><trkpt lat="43.8897726" lon="11.7688379"><ele>860.9999999999999</ele><time>2026-04-18T17:30:57.188Z</time></trkpt><trkpt lat="43.8897019" lon="11.7689374"><ele>861.0</ele><time>2026-04-18T17:30:58.188Z</time></trkpt><trkpt lat="43.889658" lon="11.7690802"><ele>861.0</ele><time>2026-04-18T17:30:59.188Z</time></trkpt><trkpt lat="43.88966" lon="11.7692433"><ele>862.75</ele><time>2026-04-18T17:31:00.187Z</time></trkpt><trkpt lat="43.8896861" lon="11.7694004"><ele>864.5</ele><time>2026-04-18T17:31:01.187Z</time></trkpt><trkpt lat="43.889691" lon="11.7695483"><ele>866.25</ele><time>2026-04-18T17:31:02.187Z</time></trkpt><trkpt lat="43.88965" lon="11.7696988"><ele>868.0</ele><time>2026-04-18T17:31:03.188Z</time></trkpt><trkpt lat="43.889568" lon="11.7698141"><ele>868.0</ele><time>2026-04-18T17:31:04.188Z</time></trkpt><trkpt lat="43.8894611" lon="11.7698692"><ele>868.0</ele><time>2026-04-18T17:31:05.188Z</time></trkpt><trkpt lat="43.8893487" lon="11.769878"><ele>868.0</ele><time>2026-04-18T17:31:06.188Z</time></trkpt><trkpt lat="43.8892429" lon="11.7698995"><ele>868.0</ele><time>2026-04-18T17:31:07.188Z</time></trkpt><trkpt lat="43.8891335" lon="11.7699846"><ele>862.5</ele><time>2026-04-18T17:31:08.188Z</time></trkpt><trkpt lat="43.8890233" lon="11.770129"><ele>857.0</ele><time>2026-04-18T17:31:09.188Z</time></trkpt><trkpt lat="43.8889191" lon="11.7702819"><ele>851.5</ele><time>2026-04-18T17:31:10.188Z</time></trkpt><trkpt lat="43.8888207" lon="11.770425"><ele>846.0</ele><time>2026-04-18T17:31:11.188Z</time></trkpt><trkpt lat="43.8887419" lon="11.7705571"><ele>846.0</ele><time>2026-04-18T17:31:12.188Z</time></trkpt><trkpt lat="43.8886963" lon="11.7706985"><ele>846.0</ele><time>2026-04-18T17:31:13.187Z</time></trkpt><trkpt lat="43.8886983" lon="11.770844"><ele>846.0</ele><time>2026-04-18T17:31:14.186Z</time></trkpt><trkpt lat="43.888746" lon="11.7709885"><ele>846.0</ele><time>2026-04-18T17:31:15.188Z</time></trkpt><trkpt lat="43.8888258" lon="11.7711188"><ele>844.25</ele><time>2026-04-18T17:31:16.188Z</time></trkpt><trkpt lat="43.8888992" lon="11.7712602"><ele>842.5</ele><time>2026-04-18T17:31:17.188Z</time></trkpt><trkpt lat="43.8889491" lon="11.771429"><ele>840.75</ele><time>2026-04-18T17:31:18.188Z</time></trkpt><trkpt lat="43.8889655" lon="11.7716089"><ele>839.0</ele><time>2026-04-18T17:31:19.188Z</time></trkpt><trkpt lat="43.8889418" lon="11.7717955"><ele>834.0</ele><time>2026-04-18T17:31:20.188Z</time></trkpt><trkpt lat="43.8888943" lon="11.7719769"><ele>829.0</ele><time>2026-04-18T17:31:21.188Z</time></trkpt><trkpt lat="43.8888461" lon="11.7721469"><ele>824.0</ele><time>2026-04-18T17:31:22.188Z</time></trkpt><trkpt lat="43.8888024" lon="11.7723088"><ele>819.0</ele><time>2026-04-18T17:31:23.187Z</time></trkpt><trkpt lat="43.8887805" lon="11.7724676"><ele>819.0</ele><time>2026-04-18T17:31:24.187Z</time></trkpt><trkpt lat="43.8887921" lon="11.7726246"><ele>819.0</ele><time>2026-04-18T17:31:25.188Z</time></trkpt><trkpt lat="43.8888344" lon="11.7727573"><ele>819.0</ele><time>2026-04-18T17:31:26.187Z</time></trkpt><trkpt lat="43.8889139" lon="11.7728537"><ele>819.0</ele><time>2026-04-18T17:31:27.188Z</time></trkpt><trkpt lat="43.8890166" lon="11.7729144"><ele>819.0</ele><time>2026-04-18T17:31:28.188Z</time></trkpt><trkpt lat="43.8891391" lon="11.772904"><ele>817.0</ele><time>2026-04-18T17:31:29.187Z</time></trkpt><trkpt lat="43.8892544" lon="11.7728441"><ele>815.0</ele><time>2026-04-18T17:31:30.188Z</time></trkpt><trkpt lat="43.8893585" lon="11.7727436"><ele>813.0</ele><time>2026-04-18T17:31:31.188Z</time></trkpt><trkpt lat="43.8894643" lon="11.7726278"><ele>811.0</ele><time>2026-04-18T17:31:32.188Z</time></trkpt><trkpt lat="43.8895672" lon="11.7725102"><ele>811.0</ele><time>2026-04-18T17:31:33.188Z</time></trkpt><trkpt lat="43.8896652" lon="11.7724008"><ele>811.0</ele><time>2026-04-18T17:31:34.187Z</time></trkpt><trkpt lat="43.8897566" lon="11.7723125"><ele>811.0</ele><time>2026-04-18T17:31:35.187Z</time></trkpt><trkpt lat="43.8898419" lon="11.7722628"><ele>811.0</ele><time>2026-04-18T17:31:36.188Z</time></trkpt><trkpt lat="43.8899272" lon="11.7722652"><ele>811.0</ele><time>2026-04-18T17:31:37.188Z</time></trkpt><trkpt lat="43.8899966" lon="11.7723212"><ele>811.0</ele><time>2026-04-18T17:31:38.188Z</time></trkpt><trkpt lat="43.8900346" lon="11.7724191"><ele>811.0</ele><time>2026-04-18T17:31:39.188Z</time></trkpt><trkpt lat="43.8900644" lon="11.7725454"><ele>811.0</ele><time>2026-04-18T17:31:40.188Z</time></trkpt><trkpt lat="43.8900866" lon="11.7726847"><ele>811.0</ele><time>2026-04-18T17:31:41.187Z</time></trkpt><trkpt lat="43.890139" lon="11.7728126"><ele>811.0</ele><time>2026-04-18T17:31:42.188Z</time></trkpt><trkpt lat="43.8901874" lon="11.7729327"><ele>801.25</ele><time>2026-04-18T17:31:43.188Z</time></trkpt><trkpt lat="43.8903231" lon="11.7729374"><ele>791.5</ele><time>2026-04-18T17:31:44.187Z</time></trkpt><trkpt lat="43.8904348" lon="11.772926"><ele>781.75</ele><time>2026-04-18T17:31:45.187Z</time></trkpt><trkpt lat="43.8905676" lon="11.7728629"><ele>772.0</ele><time>2026-04-18T17:31:46.187Z</time></trkpt><trkpt lat="43.8907024" lon="11.7727719"><ele>781.5</ele><time>2026-04-18T17:31:47.188Z</time></trkpt><trkpt lat="43.8908411" lon="11.772683"><ele>791.0</ele><time>2026-04-18T17:31:48.187Z</time></trkpt><trkpt lat="43.8909716" lon="11.7726009"><ele>800.5</ele><time>2026-04-18T17:31:49.187Z</time></trkpt><trkpt lat="43.891098" lon="11.7725183"><ele>810.0</ele><time>2026-04-18T17:31:50.188Z</time></trkpt><trkpt lat="43.8912126" lon="11.7724571"><ele>811.2</ele><time>2026-04-18T17:31:51.187Z</time></trkpt><trkpt lat="43.8913133" lon="11.7724563"><ele>812.4</ele><time>2026-04-18T17:31:52.187Z</time></trkpt><trkpt lat="43.8914069" lon="11.77251"><ele>813.5999999999999</ele><time>2026-04-18T17:31:53.188Z</time></trkpt><trkpt lat="43.8914899" lon="11.772624"><ele>814.8</ele><time>2026-04-18T17:31:54.187Z</time></trkpt><trkpt lat="43.891545" lon="11.7727871"><ele>816.0</ele><time>2026-04-18T17:31:55.187Z</time></trkpt><trkpt lat="43.8915939" lon="11.7729953"><ele>810.6666666666667</ele><time>2026-04-18T17:31:56.188Z</time></trkpt><trkpt lat="43.8916494" lon="11.7732073"><ele>805.3333333333334</ele><time>2026-04-18T17:31:57.188Z</time></trkpt><trkpt lat="43.8917138" lon="11.7734135"><ele>800.0</ele><time>2026-04-18T17:31:58.188Z</time></trkpt><trkpt lat="43.8917769" lon="11.7736053"><ele>800.0</ele><time>2026-04-18T17:31:59.188Z</time></trkpt><trkpt lat="43.8918383" lon="11.7737901"><ele>800.0</ele><time>2026-04-18T17:32:00.187Z</time></trkpt><trkpt lat="43.8919018" lon="11.7739631"><ele>800.0</ele><time>2026-04-18T17:32:01.187Z</time></trkpt><trkpt lat="43.8919783" lon="11.7741139"><ele>800.0</ele><time>2026-04-18T17:32:02.187Z</time></trkpt><trkpt lat="43.8920859" lon="11.7742443"><ele>800.0</ele><time>2026-04-18T17:32:03.188Z</time></trkpt><trkpt lat="43.892212" lon="11.7743429"><ele>800.0</ele><time>2026-04-18T17:32:04.187Z</time></trkpt><trkpt lat="43.8923333" lon="11.7744255"><ele>800.0</ele><time>2026-04-18T17:32:05.188Z</time></trkpt><trkpt lat="43.8924426" lon="11.7745066"><ele>800.0</ele><time>2026-04-18T17:32:06.188Z</time></trkpt><trkpt lat="43.8925437" lon="11.7745842"><ele>796.0</ele><time>2026-04-18T17:32:07.188Z</time></trkpt><trkpt lat="43.8926341" lon="11.7746534"><ele>792.0</ele><time>2026-04-18T17:32:08.187Z</time></trkpt><trkpt lat="43.8927147" lon="11.7747376"><ele>788.0</ele><time>2026-04-18T17:32:09.188Z</time></trkpt><trkpt lat="43.8927763" lon="11.7748492"><ele>784.0</ele><time>2026-04-18T17:32:10.188Z</time></trkpt><trkpt lat="43.8928128" lon="11.7749721"><ele>780.0</ele><time>2026-04-18T17:32:11.188Z</time></trkpt><trkpt lat="43.8928363" lon="11.775101"><ele>774.4</ele><time>2026-04-18T17:32:12.187Z</time></trkpt><trkpt lat="43.8928572" lon="11.7752302"><ele>768.8</ele><time>2026-04-18T17:32:13.188Z</time></trkpt><trkpt lat="43.8928955" lon="11.7753515"><ele>763.2</ele><time>2026-04-18T17:32:14.187Z</time></trkpt><trkpt lat="43.8929583" lon="11.7754589"><ele>757.6</ele><time>2026-04-18T17:32:15.187Z</time></trkpt><trkpt lat="43.8930318" lon="11.7755397"><ele>752.0</ele><time>2026-04-18T17:32:16.187Z</time></trkpt><trkpt lat="43.8931119" lon="11.7755971"><ele>752.0</ele><time>2026-04-18T17:32:17.188Z</time></trkpt><trkpt lat="43.8931966" lon="11.7756208"><ele>752.0</ele><time>2026-04-18T17:32:18.188Z</time></trkpt><trkpt lat="43.8932745" lon="11.7755912"><ele>752.0</ele><time>2026-04-18T17:32:19.187Z</time></trkpt><trkpt lat="43.8933355" lon="11.7755134"><ele>752.0</ele><time>2026-04-18T17:32:20.187Z</time></trkpt><trkpt lat="43.8933827" lon="11.7753738"><ele>752.0</ele><time>2026-04-18T17:32:21.188Z</time></trkpt><trkpt lat="43.893447" lon="11.7752051"><ele>740.0</ele><time>2026-04-18T17:32:22.188Z</time></trkpt><trkpt lat="43.8934896" lon="11.7749406"><ele>728.0</ele><time>2026-04-18T17:32:23.188Z</time></trkpt><trkpt lat="43.8935591" lon="11.7747223"><ele>716.0</ele><time>2026-04-18T17:32:24.188Z</time></trkpt><trkpt lat="43.8936129" lon="11.7744878"><ele>720.5</ele><time>2026-04-18T17:32:25.187Z</time></trkpt><trkpt lat="43.8936448" lon="11.7742708"><ele>725.0</ele><time>2026-04-18T17:32:26.187Z</time></trkpt><trkpt lat="43.8936444" lon="11.7740766"><ele>729.5</ele><time>2026-04-18T17:32:27.187Z</time></trkpt><trkpt lat="43.8936121" lon="11.7738887"><ele>734.0</ele><time>2026-04-18T17:32:28.188Z</time></trkpt><trkpt lat="43.8935809" lon="11.7737122"><ele>734.0</ele><time>2026-04-18T17:32:29.187Z</time></trkpt><trkpt lat="43.8935869" lon="11.7735468"><ele>734.0</ele><time>2026-04-18T17:32:30.188Z</time></trkpt><trkpt lat="43.8936362" lon="11.7733976"><ele>734.0</ele><time>2026-04-18T17:32:31.188Z</time></trkpt><trkpt lat="43.8937305" lon="11.7732767"><ele>734.0</ele><time>2026-04-18T17:32:32.188Z</time></trkpt><trkpt lat="43.8938383" lon="11.7731577"><ele>737.8000000000001</ele><time>2026-04-18T17:32:33.188Z</time></trkpt><trkpt lat="43.893913" lon="11.7730191"><ele>741.6</ele><time>2026-04-18T17:32:34.188Z</time></trkpt><trkpt lat="43.8939696" lon="11.7728744"><ele>745.4</ele><time>2026-04-18T17:32:35.187Z</time></trkpt><trkpt lat="43.8940318" lon="11.7727481"><ele>749.2</ele><time>2026-04-18T17:32:36.188Z</time></trkpt><trkpt lat="43.894114" lon="11.7726822"><ele>753.0</ele><time>2026-04-18T17:32:37.187Z</time></trkpt><trkpt lat="43.8941983" lon="11.7726806"><ele>760.75</ele><time>2026-04-18T17:32:38.188Z</time></trkpt><trkpt lat="43.8942803" lon="11.772757"><ele>768.5</ele><time>2026-04-18T17:32:39.186Z</time></trkpt><trkpt lat="43.8943373" lon="11.7729079"><ele>776.25</ele><time>2026-04-18T17:32:40.187Z</time></trkpt><trkpt lat="43.8943699" lon="11.7731031"><ele>784.0</ele><time>2026-04-18T17:32:41.188Z</time></trkpt><trkpt lat="43.8943986" lon="11.7733151"><ele>784.0</ele><time>2026-04-18T17:32:42.187Z</time></trkpt><trkpt lat="43.8944273" lon="11.7735158"><ele>784.0</ele><time>2026-04-18T17:32:43.187Z</time></trkpt><trkpt lat="43.8944668" lon="11.7736809"><ele>784.0</ele><time>2026-04-18T17:32:44.187Z</time></trkpt><trkpt lat="43.894533" lon="11.7738061"><ele>784.0</ele><time>2026-04-18T17:32:45.186Z</time></trkpt><trkpt lat="43.8946335" lon="11.7738841"><ele>776.75</ele><time>2026-04-18T17:32:46.188Z</time></trkpt><trkpt lat="43.894748" lon="11.7739203"><ele>769.5</ele><time>2026-04-18T17:32:47.187Z</time></trkpt><trkpt lat="43.894851" lon="11.7739624"><ele>762.25</ele><time>2026-04-18T17:32:48.187Z</time></trkpt><trkpt lat="43.894938" lon="11.77406"><ele>755.0</ele><time>2026-04-18T17:32:49.188Z</time></trkpt><trkpt lat="43.8949901" lon="11.7742011"><ele>747.3333333333333</ele><time>2026-04-18T17:32:50.187Z</time></trkpt><trkpt lat="43.8950079" lon="11.7743859"><ele>739.6666666666666</ele><time>2026-04-18T17:32:51.188Z</time></trkpt><trkpt lat="43.8950146" lon="11.7746066"><ele>732.0</ele><time>2026-04-18T17:32:52.188Z</time></trkpt><trkpt lat="43.8950392" lon="11.7748645"><ele>732.0</ele><time>2026-04-18T17:32:53.188Z</time></trkpt><trkpt lat="43.8950813" lon="11.7751231"><ele>732.0</ele><time>2026-04-18T17:32:54.187Z</time></trkpt><trkpt lat="43.8951191" lon="11.7753355"><ele>732.0</ele><time>2026-04-18T17:32:55.188Z</time></trkpt><trkpt lat="43.8951566" lon="11.7754995"><ele>727.2</ele><time>2026-04-18T17:32:56.187Z</time></trkpt><trkpt lat="43.8952089" lon="11.7756181"><ele>722.4000000000001</ele><time>2026-04-18T17:32:57.188Z</time></trkpt><trkpt lat="43.8952933" lon="11.7756978"><ele>717.5999999999999</ele><time>2026-04-18T17:32:58.188Z</time></trkpt><trkpt lat="43.8953838" lon="11.7757009"><ele>712.8</ele><time>2026-04-18T17:32:59.187Z</time></trkpt><trkpt lat="43.8954669" lon="11.7757012"><ele>708.0</ele><time>2026-04-18T17:33:00.187Z</time></trkpt><trkpt lat="43.8955843" lon="11.7755248"><ele>708.0</ele><time>2026-04-18T17:33:01.187Z</time></trkpt><trkpt lat="43.8957028" lon="11.7753669"><ele>708.0</ele><time>2026-04-18T17:33:02.188Z</time></trkpt><trkpt lat="43.8958312" lon="11.7752044"><ele>708.0</ele><time>2026-04-18T17:33:03.188Z</time></trkpt><trkpt lat="43.8959443" lon="11.7750584"><ele>714.75</ele><time>2026-04-18T17:33:04.188Z</time></trkpt><trkpt lat="43.8960508" lon="11.7749321"><ele>721.5</ele><time>2026-04-18T17:33:05.188Z</time></trkpt><trkpt lat="43.8961578" lon="11.7748398"><ele>728.25</ele><time>2026-04-18T17:33:06.187Z</time></trkpt><trkpt lat="43.8962736" lon="11.7748111"><ele>735.0</ele><time>2026-04-18T17:33:07.188Z</time></trkpt><trkpt lat="43.8964016" lon="11.7748511"><ele>735.0</ele><time>2026-04-18T17:33:08.187Z</time></trkpt><trkpt lat="43.8965395" lon="11.7749338"><ele>735.0</ele><time>2026-04-18T17:33:09.188Z</time></trkpt><trkpt lat="43.8966611" lon="11.775021"><ele>735.0</ele><time>2026-04-18T17:33:10.188Z</time></trkpt><trkpt lat="43.8967712" lon="11.7751247"><ele>735.0</ele><time>2026-04-18T17:33:11.187Z</time></trkpt><trkpt lat="43.8968464" lon="11.7752635"><ele>731.75</ele><time>2026-04-18T17:33:12.188Z</time></trkpt><trkpt lat="43.8968916" lon="11.7754304"><ele>728.5</ele><time>2026-04-18T17:33:13.188Z</time></trkpt><trkpt lat="43.8969282" lon="11.7755847"><ele>725.25</ele><time>2026-04-18T17:33:14.187Z</time></trkpt><trkpt lat="43.8969972" lon="11.775712"><ele>722.0</ele><time>2026-04-18T17:33:15.188Z</time></trkpt><trkpt lat="43.8971002" lon="11.7758012"><ele>722.0</ele><time>2026-04-18T17:33:16.188Z</time></trkpt><trkpt lat="43.8972347" lon="11.7758492"><ele>722.0</ele><time>2026-04-18T17:33:17.186Z</time></trkpt><trkpt lat="43.8973906" lon="11.7758778"><ele>722.0</ele><time>2026-04-18T17:33:18.187Z</time></trkpt><trkpt lat="43.8975485" lon="11.7759179"><ele>720.0</ele><time>2026-04-18T17:33:19.187Z</time></trkpt><trkpt lat="43.8977011" lon="11.7759926"><ele>718.0</ele><time>2026-04-18T17:33:20.188Z</time></trkpt><trkpt lat="43.8978515" lon="11.7761233"><ele>716.0</ele><time>2026-04-18T17:33:21.188Z</time></trkpt><trkpt lat="43.898012" lon="11.7762887"><ele>716.0</ele><time>2026-04-18T17:33:22.187Z</time></trkpt><trkpt lat="43.8981779" lon="11.7764626"><ele>716.0</ele><time>2026-04-18T17:33:23.188Z</time></trkpt><trkpt lat="43.8983497" lon="11.7766473"><ele>716.0</ele><time>2026-04-18T17:33:24.188Z</time></trkpt><trkpt lat="43.8985144" lon="11.7768275"><ele>714.6666666666666</ele><time>2026-04-18T17:33:25.187Z</time></trkpt><trkpt lat="43.8986635" lon="11.7769946"><ele>713.3333333333334</ele><time>2026-04-18T17:33:26.188Z</time></trkpt><trkpt lat="43.8987816" lon="11.7771552"><ele>712.0</ele><time>2026-04-18T17:33:27.187Z</time></trkpt><trkpt lat="43.8988732" lon="11.7773228"><ele>712.0</ele><time>2026-04-18T17:33:28.188Z</time></trkpt><trkpt lat="43.8989497" lon="11.7774561"><ele>712.0</ele><time>2026-04-18T17:33:29.187Z</time></trkpt><trkpt lat="43.8990601" lon="11.7775494"><ele>712.0</ele><time>2026-04-18T17:33:30.188Z</time></trkpt><trkpt lat="43.8992042" lon="11.7776055"><ele>712.0</ele><time>2026-04-18T17:33:31.188Z</time></trkpt><trkpt lat="43.8993462" lon="11.7776569"><ele>709.5</ele><time>2026-04-18T17:33:32.187Z</time></trkpt><trkpt lat="43.8994673" lon="11.7777321"><ele>707.0</ele><time>2026-04-18T17:33:33.187Z</time></trkpt><trkpt lat="43.8995577" lon="11.7778533"><ele>704.5</ele><time>2026-04-18T17:33:34.188Z</time></trkpt><trkpt lat="43.8996152" lon="11.7780031"><ele>702.0</ele><time>2026-04-18T17:33:35.188Z</time></trkpt><trkpt lat="43.8996668" lon="11.7781534"><ele>702.0</ele><time>2026-04-18T17:33:36.187Z</time></trkpt><trkpt lat="43.8997545" lon="11.7783022"><ele>702.0</ele><time>2026-04-18T17:33:37.188Z</time></trkpt><trkpt lat="43.8998701" lon="11.7784259"><ele>702.0</ele><time>2026-04-18T17:33:38.188Z</time></trkpt><trkpt lat="43.8999823" lon="11.7785568"><ele>702.0</ele><time>2026-04-18T17:33:39.186Z</time></trkpt><trkpt lat="43.900072" lon="11.7787162"><ele>694.5</ele><time>2026-04-18T17:33:40.188Z</time></trkpt><trkpt lat="43.9001581" lon="11.7788836"><ele>687.0</ele><time>2026-04-18T17:33:41.188Z</time></trkpt><trkpt lat="43.9002394" lon="11.7790444"><ele>679.5</ele><time>2026-04-18T17:33:42.188Z</time></trkpt><trkpt lat="43.9003209" lon="11.7791649"><ele>672.0</ele><time>2026-04-18T17:33:43.188Z</time></trkpt><trkpt lat="43.9004209" lon="11.7792464"><ele>672.0</ele><time>2026-04-18T17:33:44.187Z</time></trkpt><trkpt lat="43.9005334" lon="11.7792697"><ele>672.0</ele><time>2026-04-18T17:33:45.188Z</time></trkpt><trkpt lat="43.9006595" lon="11.7792394"><ele>672.0</ele><time>2026-04-18T17:33:46.187Z</time></trkpt><trkpt lat="43.900798" lon="11.7791824"><ele>672.0</ele><time>2026-04-18T17:33:47.188Z</time></trkpt><trkpt lat="43.9009423" lon="11.7791246"><ele>672.5</ele><time>2026-04-18T17:33:48.188Z</time></trkpt><trkpt lat="43.9010897" lon="11.7790718"><ele>673.0</ele><time>2026-04-18T17:33:49.187Z</time></trkpt><trkpt lat="43.9012287" lon="11.7790236"><ele>673.5</ele><time>2026-04-18T17:33:50.188Z</time></trkpt><trkpt lat="43.9013631" lon="11.7789795"><ele>674.0</ele><time>2026-04-18T17:33:51.188Z</time></trkpt><trkpt lat="43.9014775" lon="11.7789466"><ele>674.0</ele><time>2026-04-18T17:33:52.188Z</time></trkpt><trkpt lat="43.9015865" lon="11.7789412"><ele>674.0</ele><time>2026-04-18T17:33:53.188Z</time></trkpt><trkpt lat="43.9016955" lon="11.7789877"><ele>674.0</ele><time>2026-04-18T17:33:54.188Z</time></trkpt><trkpt lat="43.9017837" lon="11.779085"><ele>674.0</ele><time>2026-04-18T17:33:55.188Z</time></trkpt><trkpt lat="43.9018397" lon="11.779238"><ele>678.25</ele><time>2026-04-18T17:33:56.188Z</time></trkpt><trkpt lat="43.901875" lon="11.7794208"><ele>682.5</ele><time>2026-04-18T17:33:57.188Z</time></trkpt><trkpt lat="43.9019106" lon="11.7796219"><ele>686.75</ele><time>2026-04-18T17:33:58.188Z</time></trkpt><trkpt lat="43.9019541" lon="11.779827"><ele>691.0</ele><time>2026-04-18T17:33:59.188Z</time></trkpt><trkpt lat="43.9020184" lon="11.7800317"><ele>686.0</ele><time>2026-04-18T17:34:00.188Z</time></trkpt><trkpt lat="43.9020992" lon="11.7802145"><ele>681.0</ele><time>2026-04-18T17:34:01.188Z</time></trkpt><trkpt lat="43.9021828" lon="11.7803762"><ele>676.0</ele><time>2026-04-18T17:34:02.188Z</time></trkpt><trkpt lat="43.9022529" lon="11.7805067"><ele>671.0</ele><time>2026-04-18T17:34:03.188Z</time></trkpt><trkpt lat="43.902302" lon="11.7806158"><ele>671.0</ele><time>2026-04-18T17:34:04.188Z</time></trkpt><trkpt lat="43.9023195" lon="11.7807232"><ele>671.0</ele><time>2026-04-18T17:34:05.188Z</time></trkpt><trkpt lat="43.9022964" lon="11.7808216"><ele>671.0</ele><time>2026-04-18T17:34:06.188Z</time></trkpt><trkpt lat="43.9022382" lon="11.7808742"><ele>671.0</ele><time>2026-04-18T17:34:07.187Z</time></trkpt><trkpt lat="43.9021733" lon="11.7808672"><ele>671.0</ele><time>2026-04-18T17:34:08.188Z</time></trkpt><trkpt lat="43.9021067" lon="11.7808059"><ele>671.0</ele><time>2026-04-18T17:34:09.188Z</time></trkpt><trkpt lat="43.902052" lon="11.7806811"><ele>671.0</ele><time>2026-04-18T17:34:10.187Z</time></trkpt><trkpt lat="43.9020048" lon="11.7805181"><ele>671.0</ele><time>2026-04-18T17:34:11.188Z</time></trkpt><trkpt lat="43.90196" lon="11.7803477"><ele>671.0</ele><time>2026-04-18T17:34:12.188Z</time></trkpt><trkpt lat="43.9019081" lon="11.7801614"><ele>671.0</ele><time>2026-04-18T17:34:13.188Z</time></trkpt><trkpt lat="43.901857" lon="11.779979"><ele>666.5</ele><time>2026-04-18T17:34:14.188Z</time></trkpt><trkpt lat="43.9018125" lon="11.7798064"><ele>662.0</ele><time>2026-04-18T17:34:15.187Z</time></trkpt><trkpt lat="43.9017714" lon="11.779647"><ele>657.5</ele><time>2026-04-18T17:34:16.188Z</time></trkpt><trkpt lat="43.9017227" lon="11.7795014"><ele>653.0</ele><time>2026-04-18T17:34:17.188Z</time></trkpt><trkpt lat="43.9016537" lon="11.7793807"><ele>653.0</ele><time>2026-04-18T17:34:18.188Z</time></trkpt><trkpt lat="43.90158" lon="11.7792643"><ele>653.0</ele><time>2026-04-18T17:34:19.188Z</time></trkpt><trkpt lat="43.9015156" lon="11.7792048"><ele>653.0</ele><time>2026-04-18T17:34:20.188Z</time></trkpt><trkpt lat="43.9013629" lon="11.7793094"><ele>653.0</ele><time>2026-04-18T17:34:21.188Z</time></trkpt><trkpt lat="43.9012487" lon="11.779387"><ele>653.0</ele><time>2026-04-18T17:34:22.188Z</time></trkpt><trkpt lat="43.9011268" lon="11.7794739"><ele>653.0</ele><time>2026-04-18T17:34:23.188Z</time></trkpt><trkpt lat="43.901007" lon="11.7795585"><ele>653.0</ele><time>2026-04-18T17:34:24.188Z</time></trkpt><trkpt lat="43.9008874" lon="11.779636"><ele>653.0</ele><time>2026-04-18T17:34:25.188Z</time></trkpt><trkpt lat="43.9007682" lon="11.7797148"><ele>649.0</ele><time>2026-04-18T17:34:26.188Z</time></trkpt><trkpt lat="43.9006551" lon="11.7797938"><ele>645.0</ele><time>2026-04-18T17:34:27.188Z</time></trkpt><trkpt lat="43.9005499" lon="11.7798704"><ele>641.0</ele><time>2026-04-18T17:34:28.188Z</time></trkpt><trkpt lat="43.9004502" lon="11.7799236"><ele>637.0</ele><time>2026-04-18T17:34:29.188Z</time></trkpt><trkpt lat="43.9003547" lon="11.7799559"><ele>637.0</ele><time>2026-04-18T17:34:30.188Z</time></trkpt><trkpt lat="43.9002536" lon="11.7799419"><ele>637.0</ele><time>2026-04-18T17:34:31.188Z</time></trkpt><trkpt lat="43.9001529" lon="11.7798716"><ele>637.0</ele><time>2026-04-18T17:34:32.188Z</time></trkpt><trkpt lat="43.9000631" lon="11.7797555"><ele>637.0</ele><time>2026-04-18T17:34:33.188Z</time></trkpt><trkpt lat="43.8999802" lon="11.7796115"><ele>635.0</ele><time>2026-04-18T17:34:34.188Z</time></trkpt><trkpt lat="43.899904" lon="11.7794703"><ele>633.0</ele><time>2026-04-18T17:34:35.188Z</time></trkpt><trkpt lat="43.8998257" lon="11.7793355"><ele>631.0</ele><time>2026-04-18T17:34:36.188Z</time></trkpt><trkpt lat="43.8997461" lon="11.7791999"><ele>629.0</ele><time>2026-04-18T17:34:37.188Z</time></trkpt><trkpt lat="43.8996561" lon="11.7790884"><ele>629.25</ele><time>2026-04-18T17:34:38.188Z</time></trkpt><trkpt lat="43.8995435" lon="11.7790102"><ele>629.5</ele><time>2026-04-18T17:34:39.188Z</time></trkpt><trkpt lat="43.8994186" lon="11.7789799"><ele>629.75</ele><time>2026-04-18T17:34:40.188Z</time></trkpt><trkpt lat="43.8992903" lon="11.7789713"><ele>630.0</ele><time>2026-04-18T17:34:41.188Z</time></trkpt><trkpt lat="43.8991732" lon="11.778942"><ele>630.0</ele><time>2026-04-18T17:34:42.188Z</time></trkpt><trkpt lat="43.899069" lon="11.7788772"><ele>630.0</ele><time>2026-04-18T17:34:43.187Z</time></trkpt><trkpt lat="43.898989" lon="11.7787724"><ele>630.0</ele><time>2026-04-18T17:34:44.188Z</time></trkpt><trkpt lat="43.898916" lon="11.7786651"><ele>630.0</ele><time>2026-04-18T17:34:45.188Z</time></trkpt><trkpt lat="43.8988246" lon="11.7785901"><ele>630.0</ele><time>2026-04-18T17:34:46.188Z</time></trkpt><trkpt lat="43.8987213" lon="11.7785653"><ele>630.0</ele><time>2026-04-18T17:34:47.187Z</time></trkpt><trkpt lat="43.8986048" lon="11.7785689"><ele>630.0</ele><time>2026-04-18T17:34:48.188Z</time></trkpt><trkpt lat="43.8984829" lon="11.7785748"><ele>630.0</ele><time>2026-04-18T17:34:49.188Z</time></trkpt><trkpt lat="43.8983793" lon="11.7786219"><ele>630.0</ele><time>2026-04-18T17:34:50.188Z</time></trkpt><trkpt lat="43.8982819" lon="11.7785687"><ele>631.25</ele><time>2026-04-18T17:34:51.188Z</time></trkpt><trkpt lat="43.8981989" lon="11.7784791"><ele>632.5</ele><time>2026-04-18T17:34:52.188Z</time></trkpt><trkpt lat="43.8981091" lon="11.7783497"><ele>633.75</ele><time>2026-04-18T17:34:53.188Z</time></trkpt><trkpt lat="43.8980113" lon="11.7781954"><ele>635.0</ele><time>2026-04-18T17:34:54.188Z</time></trkpt><trkpt lat="43.8979141" lon="11.7780398"><ele>635.0</ele><time>2026-04-18T17:34:55.188Z</time></trkpt><trkpt lat="43.8978247" lon="11.7778937"><ele>635.0</ele><time>2026-04-18T17:34:56.188Z</time></trkpt><trkpt lat="43.8977375" lon="11.7777604"><ele>635.0</ele><time>2026-04-18T17:34:57.188Z</time></trkpt><trkpt lat="43.8976491" lon="11.7776398"><ele>635.0</ele><time>2026-04-18T17:34:58.188Z</time></trkpt><trkpt lat="43.897516" lon="11.7776154"><ele>636.75</ele><time>2026-04-18T17:34:59.187Z</time></trkpt><trkpt lat="43.8973925" lon="11.7775955"><ele>638.5</ele><time>2026-04-18T17:35:00.188Z</time></trkpt><trkpt lat="43.8972835" lon="11.7775516"><ele>640.25</ele><time>2026-04-18T17:35:01.188Z</time></trkpt><trkpt lat="43.8971812" lon="11.7774864"><ele>642.0</ele><time>2026-04-18T17:35:02.188Z</time></trkpt><trkpt lat="43.8970916" lon="11.7774137"><ele>642.0</ele><time>2026-04-18T17:35:03.188Z</time></trkpt><trkpt lat="43.8970071" lon="11.7773616"><ele>642.0</ele><time>2026-04-18T17:35:04.187Z</time></trkpt><trkpt lat="43.8969204" lon="11.7773684"><ele>642.0</ele><time>2026-04-18T17:35:05.188Z</time></trkpt><trkpt lat="43.8968434" lon="11.7774088"><ele>642.0</ele><time>2026-04-18T17:35:06.188Z</time></trkpt><trkpt lat="43.8968161" lon="11.777527"><ele>642.0</ele><time>2026-04-18T17:35:07.188Z</time></trkpt><trkpt lat="43.8968179" lon="11.7776224"><ele>642.0</ele><time>2026-04-18T17:35:08.188Z</time></trkpt><trkpt lat="43.8968615" lon="11.7777117"><ele>632.4</ele><time>2026-04-18T17:35:09.188Z</time></trkpt><trkpt lat="43.8969411" lon="11.7777565"><ele>622.8000000000001</ele><time>2026-04-18T17:35:10.188Z</time></trkpt><trkpt lat="43.8970412" lon="11.7777718"><ele>613.2</ele><time>2026-04-18T17:35:11.187Z</time></trkpt><trkpt lat="43.8971619" lon="11.7777664"><ele>603.6</ele><time>2026-04-18T17:35:12.188Z</time></trkpt><trkpt lat="43.8972841" lon="11.7777649"><ele>594.0</ele><time>2026-04-18T17:35:13.188Z</time></trkpt><trkpt lat="43.8973988" lon="11.7777847"><ele>594.0</ele><time>2026-04-18T17:35:14.188Z</time></trkpt><trkpt lat="43.8975199" lon="11.7778473"><ele>594.0</ele><time>2026-04-18T17:35:15.188Z</time></trkpt><trkpt lat="43.8976336" lon="11.7779552"><ele>594.0</ele><time>2026-04-18T17:35:16.188Z</time></trkpt><trkpt lat="43.8977435" lon="11.778093"><ele>594.0</ele><time>2026-04-18T17:35:17.188Z</time></trkpt><trkpt lat="43.8978307" lon="11.7782358"><ele>593.75</ele><time>2026-04-18T17:35:18.188Z</time></trkpt><trkpt lat="43.897901" lon="11.7784061"><ele>593.5</ele><time>2026-04-18T17:35:19.188Z</time></trkpt><trkpt lat="43.897944" lon="11.7785803"><ele>593.25</ele><time>2026-04-18T17:35:20.188Z</time></trkpt><trkpt lat="43.8979803" lon="11.7787472"><ele>593.0</ele><time>2026-04-18T17:35:21.188Z</time></trkpt><trkpt lat="43.8980342" lon="11.7788932"><ele>593.0</ele><time>2026-04-18T17:35:22.188Z</time></trkpt><trkpt lat="43.8981281" lon="11.7790131"><ele>593.0</ele><time>2026-04-18T17:35:23.188Z</time></trkpt><trkpt lat="43.8982643" lon="11.7791053"><ele>593.0</ele><time>2026-04-18T17:35:24.188Z</time></trkpt><trkpt lat="43.8984179" lon="11.7791827"><ele>593.0</ele><time>2026-04-18T17:35:25.188Z</time></trkpt><trkpt lat="43.8985921" lon="11.7792583"><ele>591.6666666666666</ele><time>2026-04-18T17:35:26.188Z</time></trkpt><trkpt lat="43.8987539" lon="11.7793317"><ele>590.3333333333334</ele><time>2026-04-18T17:35:27.187Z</time></trkpt><trkpt lat="43.8989085" lon="11.7794022"><ele>589.0</ele><time>2026-04-18T17:35:28.188Z</time></trkpt><trkpt lat="43.8990501" lon="11.7794731"><ele>589.0</ele><time>2026-04-18T17:35:29.188Z</time></trkpt><trkpt lat="43.8991556" lon="11.7795662"><ele>589.0</ele><time>2026-04-18T17:35:30.188Z</time></trkpt><trkpt lat="43.8992394" lon="11.779705"><ele>589.0</ele><time>2026-04-18T17:35:31.187Z</time></trkpt><trkpt lat="43.8992928" lon="11.7798906"><ele>589.0</ele><time>2026-04-18T17:35:32.188Z</time></trkpt><trkpt lat="43.899321" lon="11.7800999"><ele>591.5</ele><time>2026-04-18T17:35:33.187Z</time></trkpt><trkpt lat="43.8993392" lon="11.7803369"><ele>594.0</ele><time>2026-04-18T17:35:34.188Z</time></trkpt><trkpt lat="43.8993556" lon="11.7805435"><ele>596.5</ele><time>2026-04-18T17:35:35.188Z</time></trkpt><trkpt lat="43.8993743" lon="11.7807152"><ele>599.0</ele><time>2026-04-18T17:35:36.188Z</time></trkpt><trkpt lat="43.8994044" lon="11.7808539"><ele>599.0</ele><time>2026-04-18T17:35:37.188Z</time></trkpt><trkpt lat="43.899481" lon="11.7809757"><ele>599.0</ele><time>2026-04-18T17:35:38.188Z</time></trkpt><trkpt lat="43.8996013" lon="11.7810898"><ele>599.0</ele><time>2026-04-18T17:35:39.188Z</time></trkpt><trkpt lat="43.899727" lon="11.7811955"><ele>599.0</ele><time>2026-04-18T17:35:40.188Z</time></trkpt><trkpt lat="43.8998451" lon="11.7812921"><ele>594.0</ele><time>2026-04-18T17:35:41.188Z</time></trkpt><trkpt lat="43.8999819" lon="11.7813378"><ele>589.0</ele><time>2026-04-18T17:35:42.188Z</time></trkpt><trkpt lat="43.9001358" lon="11.7813509"><ele>584.0</ele><time>2026-04-18T17:35:43.188Z</time></trkpt><trkpt lat="43.9002773" lon="11.7813554"><ele>579.0</ele><time>2026-04-18T17:35:44.187Z</time></trkpt><trkpt lat="43.9004083" lon="11.7813551"><ele>579.0</ele><time>2026-04-18T17:35:45.188Z</time></trkpt><trkpt lat="43.9005062" lon="11.78137"><ele>579.0</ele><time>2026-04-18T17:35:46.187Z</time></trkpt><trkpt lat="43.9006041" lon="11.7814164"><ele>579.0</ele><time>2026-04-18T17:35:47.187Z</time></trkpt><trkpt lat="43.9006805" lon="11.7815168"><ele>579.0</ele><time>2026-04-18T17:35:48.188Z</time></trkpt><trkpt lat="43.9007249" lon="11.7816666"><ele>579.0</ele><time>2026-04-18T17:35:49.188Z</time></trkpt><trkpt lat="43.9007408" lon="11.7818345"><ele>580.4</ele><time>2026-04-18T17:35:50.187Z</time></trkpt><trkpt lat="43.9007485" lon="11.7819878"><ele>581.8</ele><time>2026-04-18T17:35:51.188Z</time></trkpt><trkpt lat="43.9007696" lon="11.7821338"><ele>583.2</ele><time>2026-04-18T17:35:52.188Z</time></trkpt><trkpt lat="43.9008149" lon="11.7822589"><ele>584.6</ele><time>2026-04-18T17:35:53.188Z</time></trkpt><trkpt lat="43.9008951" lon="11.7823574"><ele>586.0</ele><time>2026-04-18T17:35:54.188Z</time></trkpt><trkpt lat="43.9009999" lon="11.7824154"><ele>586.0</ele><time>2026-04-18T17:35:55.188Z</time></trkpt><trkpt lat="43.9011107" lon="11.782442"><ele>586.0</ele><time>2026-04-18T17:35:56.188Z</time></trkpt><trkpt lat="43.9012101" lon="11.7824869"><ele>586.0</ele><time>2026-04-18T17:35:57.188Z</time></trkpt><trkpt lat="43.9013026" lon="11.7825674"><ele>586.0</ele><time>2026-04-18T17:35:58.188Z</time></trkpt><trkpt lat="43.9013802" lon="11.7827022"><ele>579.0</ele><time>2026-04-18T17:35:59.188Z</time></trkpt><trkpt lat="43.9014505" lon="11.7828668"><ele>572.0</ele><time>2026-04-18T17:36:00.188Z</time></trkpt><trkpt lat="43.9015216" lon="11.7830526"><ele>565.0</ele><time>2026-04-18T17:36:01.188Z</time></trkpt><trkpt lat="43.9015967" lon="11.7832531"><ele>565.0</ele><time>2026-04-18T17:36:02.188Z</time></trkpt><trkpt lat="43.9016777" lon="11.7834589"><ele>565.0</ele><time>2026-04-18T17:36:03.188Z</time></trkpt><trkpt lat="43.9017559" lon="11.78366"><ele>565.0</ele><time>2026-04-18T17:36:04.188Z</time></trkpt><trkpt lat="43.9018288" lon="11.7838485"><ele>565.0</ele><time>2026-04-18T17:36:05.187Z</time></trkpt><trkpt lat="43.9018917" lon="11.7840131"><ele>565.0</ele><time>2026-04-18T17:36:06.188Z</time></trkpt><trkpt lat="43.9019486" lon="11.7841611"><ele>565.0</ele><time>2026-04-18T17:36:07.188Z</time></trkpt><trkpt lat="43.9020074" lon="11.7842871"><ele>565.0</ele><time>2026-04-18T17:36:08.188Z</time></trkpt><trkpt lat="43.9020671" lon="11.7844027"><ele>558.0</ele><time>2026-04-18T17:36:09.187Z</time></trkpt><trkpt lat="43.902189" lon="11.784403"><ele>551.0</ele><time>2026-04-18T17:36:10.188Z</time></trkpt><trkpt lat="43.9023135" lon="11.7843939"><ele>544.0</ele><time>2026-04-18T17:36:11.187Z</time></trkpt><trkpt lat="43.9024283" lon="11.7843689"><ele>537.0</ele><time>2026-04-18T17:36:12.187Z</time></trkpt><trkpt lat="43.9025439" lon="11.7843895"><ele>536.5</ele><time>2026-04-18T17:36:13.188Z</time></trkpt><trkpt lat="43.9026649" lon="11.7844586"><ele>536.0</ele><time>2026-04-18T17:36:14.188Z</time></trkpt><trkpt lat="43.9027843" lon="11.7845575"><ele>535.5</ele><time>2026-04-18T17:36:15.188Z</time></trkpt><trkpt lat="43.9028914" lon="11.7846474"><ele>535.0</ele><time>2026-04-18T17:36:16.188Z</time></trkpt><trkpt lat="43.9029943" lon="11.7847344"><ele>535.0</ele><time>2026-04-18T17:36:17.188Z</time></trkpt><trkpt lat="43.9031013" lon="11.7847802"><ele>535.0</ele><time>2026-04-18T17:36:18.188Z</time></trkpt><trkpt lat="43.9032235" lon="11.7847638"><ele>535.0</ele><time>2026-04-18T17:36:19.188Z</time></trkpt><trkpt lat="43.9033574" lon="11.7847"><ele>535.0</ele><time>2026-04-18T17:36:20.188Z</time></trkpt><trkpt lat="43.903493" lon="11.784618"><ele>534.75</ele><time>2026-04-18T17:36:21.188Z</time></trkpt><trkpt lat="43.9036205" lon="11.7845562"><ele>534.5</ele><time>2026-04-18T17:36:22.188Z</time></trkpt><trkpt lat="43.9037486" lon="11.7845346"><ele>534.25</ele><time>2026-04-18T17:36:23.187Z</time></trkpt><trkpt lat="43.9038787" lon="11.7845595"><ele>534.0</ele><time>2026-04-18T17:36:24.188Z</time></trkpt><trkpt lat="43.9040045" lon="11.7846192"><ele>534.0</ele><time>2026-04-18T17:36:25.188Z</time></trkpt><trkpt lat="43.9041214" lon="11.784694"><ele>534.0</ele><time>2026-04-18T17:36:26.188Z</time></trkpt><trkpt lat="43.9042286" lon="11.7847667"><ele>534.0</ele><time>2026-04-18T17:36:27.188Z</time></trkpt><trkpt lat="43.9043236" lon="11.7848381"><ele>534.0</ele><time>2026-04-18T17:36:28.188Z</time></trkpt><trkpt lat="43.904395" lon="11.7849317"><ele>541.75</ele><time>2026-04-18T17:36:29.188Z</time></trkpt><trkpt lat="43.9044305" lon="11.7850561"><ele>549.5</ele><time>2026-04-18T17:36:30.188Z</time></trkpt><trkpt lat="43.9044325" lon="11.7852133"><ele>557.25</ele><time>2026-04-18T17:36:31.188Z</time></trkpt><trkpt lat="43.9044159" lon="11.7853881"><ele>565.0</ele><time>2026-04-18T17:36:32.188Z</time></trkpt><trkpt lat="43.9043937" lon="11.7855681"><ele>565.3333333333334</ele><time>2026-04-18T17:36:33.188Z</time></trkpt><trkpt lat="43.9043671" lon="11.7857649"><ele>565.6666666666666</ele><time>2026-04-18T17:36:34.187Z</time></trkpt><trkpt lat="43.9043311" lon="11.7859765"><ele>566.0</ele><time>2026-04-18T17:36:35.187Z</time></trkpt><trkpt lat="43.9042837" lon="11.7861747"><ele>558.5</ele><time>2026-04-18T17:36:36.188Z</time></trkpt><trkpt lat="43.90423" lon="11.786357"><ele>551.0</ele><time>2026-04-18T17:36:37.188Z</time></trkpt><trkpt lat="43.9041677" lon="11.7865362"><ele>543.5</ele><time>2026-04-18T17:36:38.188Z</time></trkpt><trkpt lat="43.9041068" lon="11.7866962"><ele>536.0</ele><time>2026-04-18T17:36:39.188Z</time></trkpt><trkpt lat="43.9040567" lon="11.7868552"><ele>535.75</ele><time>2026-04-18T17:36:40.188Z</time></trkpt><trkpt lat="43.9040229" lon="11.7870254"><ele>535.5</ele><time>2026-04-18T17:36:41.187Z</time></trkpt><trkpt lat="43.9040263" lon="11.7871883"><ele>535.25</ele><time>2026-04-18T17:36:42.188Z</time></trkpt><trkpt lat="43.9040643" lon="11.7873554"><ele>535.0</ele><time>2026-04-18T17:36:43.188Z</time></trkpt><trkpt lat="43.9041469" lon="11.7874945"><ele>533.6666666666667</ele><time>2026-04-18T17:36:44.188Z</time></trkpt><trkpt lat="43.9042621" lon="11.7876194"><ele>532.3333333333334</ele><time>2026-04-18T17:36:45.188Z</time></trkpt><trkpt lat="43.9044229" lon="11.7877127"><ele>531.0</ele><time>2026-04-18T17:36:46.188Z</time></trkpt><trkpt lat="43.9045997" lon="11.7877865"><ele>531.0</ele><time>2026-04-18T17:36:47.188Z</time></trkpt><trkpt lat="43.9047584" lon="11.7878416"><ele>531.0</ele><time>2026-04-18T17:36:48.188Z</time></trkpt><trkpt lat="43.9049128" lon="11.7879013"><ele>531.0</ele><time>2026-04-18T17:36:49.188Z</time></trkpt><trkpt lat="43.9050578" lon="11.7879705"><ele>543.25</ele><time>2026-04-18T17:36:50.188Z</time></trkpt><trkpt lat="43.9051824" lon="11.7880585"><ele>555.5</ele><time>2026-04-18T17:36:51.188Z</time></trkpt><trkpt lat="43.9052912" lon="11.7881703"><ele>567.75</ele><time>2026-04-18T17:36:52.188Z</time></trkpt><trkpt lat="43.9053904" lon="11.7883109"><ele>580.0</ele><time>2026-04-18T17:36:53.188Z</time></trkpt><trkpt lat="43.905478" lon="11.7884701"><ele>573.0</ele><time>2026-04-18T17:36:54.188Z</time></trkpt><trkpt lat="43.9055598" lon="11.7886768"><ele>566.0</ele><time>2026-04-18T17:36:55.188Z</time></trkpt><trkpt lat="43.9056297" lon="11.7889388"><ele>559.0</ele><time>2026-04-18T17:36:56.188Z</time></trkpt><trkpt lat="43.9056794" lon="11.7892345"><ele>551.0</ele><time>2026-04-18T17:36:57.188Z</time></trkpt><trkpt lat="43.9057197" lon="11.7894971"><ele>543.0</ele><time>2026-04-18T17:36:58.188Z</time></trkpt><trkpt lat="43.9057608" lon="11.7897195"><ele>535.0</ele><time>2026-04-18T17:36:59.187Z</time></trkpt><trkpt lat="43.9058127" lon="11.7899039"><ele>535.0</ele><time>2026-04-18T17:37:00.188Z</time></trkpt><trkpt lat="43.9059045" lon="11.79005"><ele>535.0</ele><time>2026-04-18T17:37:01.188Z</time></trkpt><trkpt lat="43.9060421" lon="11.7901516"><ele>535.0</ele><time>2026-04-18T17:37:02.188Z</time></trkpt><trkpt lat="43.9062018" lon="11.7902043"><ele>532.0</ele><time>2026-04-18T17:37:03.187Z</time></trkpt><trkpt lat="43.9063663" lon="11.7902355"><ele>529.0</ele><time>2026-04-18T17:37:04.188Z</time></trkpt><trkpt lat="43.9065208" lon="11.7902803"><ele>526.0</ele><time>2026-04-18T17:37:05.187Z</time></trkpt><trkpt lat="43.9066633" lon="11.7903564"><ele>529.5</ele><time>2026-04-18T17:37:06.188Z</time></trkpt><trkpt lat="43.9067833" lon="11.7904819"><ele>533.0</ele><time>2026-04-18T17:37:07.188Z</time></trkpt><trkpt lat="43.9068882" lon="11.7905975"><ele>536.5</ele><time>2026-04-18T17:37:08.187Z</time></trkpt><trkpt lat="43.9070122" lon="11.7906768"><ele>540.0</ele><time>2026-04-18T17:37:09.188Z</time></trkpt><trkpt lat="43.9071491" lon="11.7907131"><ele>540.0</ele><time>2026-04-18T17:37:10.187Z</time></trkpt><trkpt lat="43.9072971" lon="11.7907088"><ele>540.0</ele><time>2026-04-18T17:37:11.188Z</time></trkpt><trkpt lat="43.9074413" lon="11.7906912"><ele>540.0</ele><time>2026-04-18T17:37:12.188Z</time></trkpt><trkpt lat="43.9075907" lon="11.79069"><ele>540.0</ele><time>2026-04-18T17:37:13.188Z</time></trkpt><trkpt lat="43.9077389" lon="11.7907142"><ele>544.0</ele><time>2026-04-18T17:37:14.187Z</time></trkpt><trkpt lat="43.9078844" lon="11.7907635"><ele>548.0</ele><time>2026-04-18T17:37:15.188Z</time></trkpt><trkpt lat="43.9080283" lon="11.7908364"><ele>552.0</ele><time>2026-04-18T17:37:16.187Z</time></trkpt><trkpt lat="43.9081675" lon="11.7909184"><ele>552.0</ele><time>2026-04-18T17:37:17.188Z</time></trkpt><trkpt lat="43.9082984" lon="11.791005"><ele>552.0</ele><time>2026-04-18T17:37:18.188Z</time></trkpt><trkpt lat="43.9084116" lon="11.7910911"><ele>552.0</ele><time>2026-04-18T17:37:19.188Z</time></trkpt><trkpt lat="43.9084923" lon="11.7911949"><ele>552.0</ele><time>2026-04-18T17:37:20.188Z</time></trkpt><trkpt lat="43.9085489" lon="11.7913358"><ele>552.5</ele><time>2026-04-18T17:37:21.188Z</time></trkpt><trkpt lat="43.9085826" lon="11.7915029"><ele>553.0</ele><time>2026-04-18T17:37:22.187Z</time></trkpt><trkpt lat="43.9085897" lon="11.7916553"><ele>553.5</ele><time>2026-04-18T17:37:23.188Z</time></trkpt><trkpt lat="43.9085621" lon="11.7918068"><ele>554.0</ele><time>2026-04-18T17:37:24.188Z</time></trkpt><trkpt lat="43.9084964" lon="11.7919261"><ele>558.0</ele><time>2026-04-18T17:37:25.188Z</time></trkpt><trkpt lat="43.9084382" lon="11.7920574"><ele>562.0</ele><time>2026-04-18T17:37:26.188Z</time></trkpt><trkpt lat="43.9082806" lon="11.7919989"><ele>566.0</ele><time>2026-04-18T17:37:27.188Z</time></trkpt><trkpt lat="43.9081777" lon="11.7919502"><ele>570.0</ele><time>2026-04-18T17:37:28.188Z</time></trkpt><trkpt lat="43.9080786" lon="11.7918722"><ele>570.0</ele><time>2026-04-18T17:37:29.188Z</time></trkpt><trkpt lat="43.9079744" lon="11.7918106"><ele>570.0</ele><time>2026-04-18T17:37:30.188Z</time></trkpt><trkpt lat="43.9078651" lon="11.7917913"><ele>570.0</ele><time>2026-04-18T17:37:31.188Z</time></trkpt><trkpt lat="43.907765" lon="11.7918233"><ele>570.0</ele><time>2026-04-18T17:37:32.187Z</time></trkpt><trkpt lat="43.9076725" lon="11.7919226"><ele>570.0</ele><time>2026-04-18T17:37:33.188Z</time></trkpt><trkpt lat="43.9075798" lon="11.7920652"><ele>565.3333333333334</ele><time>2026-04-18T17:37:34.188Z</time></trkpt><trkpt lat="43.9074759" lon="11.7922461"><ele>560.6666666666667</ele><time>2026-04-18T17:37:35.188Z</time></trkpt><trkpt lat="43.9073682" lon="11.7924223"><ele>556.0</ele><time>2026-04-18T17:37:36.188Z</time></trkpt><trkpt lat="43.9072538" lon="11.7926079"><ele>560.0</ele><time>2026-04-18T17:37:37.188Z</time></trkpt><trkpt lat="43.9071477" lon="11.7927831"><ele>564.0</ele><time>2026-04-18T17:37:38.188Z</time></trkpt><trkpt lat="43.9070472" lon="11.7929493"><ele>568.0</ele><time>2026-04-18T17:37:39.188Z</time></trkpt><trkpt lat="43.9069469" lon="11.7931099"><ele>568.0</ele><time>2026-04-18T17:37:40.188Z</time></trkpt><trkpt lat="43.9068471" lon="11.7932724"><ele>568.0</ele><time>2026-04-18T17:37:41.187Z</time></trkpt><trkpt lat="43.9067469" lon="11.7934455"><ele>568.0</ele><time>2026-04-18T17:37:42.187Z</time></trkpt><trkpt lat="43.9066533" lon="11.7936264"><ele>566.6666666666667</ele><time>2026-04-18T17:37:43.188Z</time></trkpt><trkpt lat="43.9065667" lon="11.7938136"><ele>565.3333333333334</ele><time>2026-04-18T17:37:44.187Z</time></trkpt><trkpt lat="43.906487" lon="11.7940093"><ele>564.0</ele><time>2026-04-18T17:37:45.188Z</time></trkpt><trkpt lat="43.9064097" lon="11.7942069"><ele>567.3333333333334</ele><time>2026-04-18T17:37:46.188Z</time></trkpt><trkpt lat="43.9063333" lon="11.794408"><ele>570.6666666666667</ele><time>2026-04-18T17:37:47.188Z</time></trkpt><trkpt lat="43.9062579" lon="11.7946063"><ele>574.0</ele><time>2026-04-18T17:37:48.188Z</time></trkpt><trkpt lat="43.9061885" lon="11.7948118"><ele>574.0</ele><time>2026-04-18T17:37:49.188Z</time></trkpt><trkpt lat="43.906135" lon="11.7950298"><ele>574.0</ele><time>2026-04-18T17:37:50.188Z</time></trkpt><trkpt lat="43.9060874" lon="11.7952622"><ele>574.0</ele><time>2026-04-18T17:37:51.188Z</time></trkpt><trkpt lat="43.9060405" lon="11.7954963"><ele>576.6666666666667</ele><time>2026-04-18T17:37:52.188Z</time></trkpt><trkpt lat="43.9059937" lon="11.7957218"><ele>579.3333333333334</ele><time>2026-04-18T17:37:53.188Z</time></trkpt><trkpt lat="43.9059509" lon="11.7959295"><ele>582.0</ele><time>2026-04-18T17:37:54.188Z</time></trkpt><trkpt lat="43.905912" lon="11.7961358"><ele>577.0</ele><time>2026-04-18T17:37:55.188Z</time></trkpt><trkpt lat="43.9058698" lon="11.79633"><ele>572.0</ele><time>2026-04-18T17:37:56.188Z</time></trkpt><trkpt lat="43.9058231" lon="11.7965044"><ele>567.0</ele><time>2026-04-18T17:37:57.188Z</time></trkpt><trkpt lat="43.9057576" lon="11.7966683"><ele>562.0</ele><time>2026-04-18T17:37:58.188Z</time></trkpt><trkpt lat="43.9056699" lon="11.7968126"><ele>561.8000000000001</ele><time>2026-04-18T17:37:59.188Z</time></trkpt><trkpt lat="43.9055981" lon="11.7969493"><ele>561.6</ele><time>2026-04-18T17:38:00.188Z</time></trkpt><trkpt lat="43.9055722" lon="11.7970692"><ele>561.4000000000001</ele><time>2026-04-18T17:38:01.188Z</time></trkpt><trkpt lat="43.90558" lon="11.7972069"><ele>561.2</ele><time>2026-04-18T17:38:02.188Z</time></trkpt><trkpt lat="43.905626" lon="11.7973717"><ele>561.0</ele><time>2026-04-18T17:38:03.188Z</time></trkpt><trkpt lat="43.9056885" lon="11.7975562"><ele>558.0</ele><time>2026-04-18T17:38:04.188Z</time></trkpt><trkpt lat="43.905762" lon="11.797753"><ele>555.0</ele><time>2026-04-18T17:38:05.188Z</time></trkpt><trkpt lat="43.9058541" lon="11.7979477"><ele>552.0</ele><time>2026-04-18T17:38:06.188Z</time></trkpt><trkpt lat="43.9059561" lon="11.7981322"><ele>557.25</ele><time>2026-04-18T17:38:07.188Z</time></trkpt><trkpt lat="43.9060527" lon="11.7983003"><ele>562.5</ele><time>2026-04-18T17:38:08.188Z</time></trkpt><trkpt lat="43.9061435" lon="11.7984585"><ele>567.75</ele><time>2026-04-18T17:38:09.188Z</time></trkpt><trkpt lat="43.9062194" lon="11.7985883"><ele>573.0</ele><time>2026-04-18T17:38:10.188Z</time></trkpt><trkpt lat="43.9062711" lon="11.798693"><ele>573.0</ele><time>2026-04-18T17:38:11.187Z</time></trkpt><trkpt lat="43.9062943" lon="11.798803"><ele>573.0</ele><time>2026-04-18T17:38:12.188Z</time></trkpt><trkpt lat="43.9062793" lon="11.7989164"><ele>573.0</ele><time>2026-04-18T17:38:13.188Z</time></trkpt><trkpt lat="43.9062281" lon="11.7990269"><ele>573.0</ele><time>2026-04-18T17:38:14.188Z</time></trkpt><trkpt lat="43.906162" lon="11.7991115"><ele>573.0</ele><time>2026-04-18T17:38:15.188Z</time></trkpt><trkpt lat="43.9060779" lon="11.799143"><ele>573.0</ele><time>2026-04-18T17:38:16.188Z</time></trkpt><trkpt lat="43.9059667" lon="11.7991272"><ele>569.5</ele><time>2026-04-18T17:38:17.188Z</time></trkpt><trkpt lat="43.905838" lon="11.7990732"><ele>566.0</ele><time>2026-04-18T17:38:18.188Z</time></trkpt><trkpt lat="43.9056979" lon="11.7990073"><ele>562.5</ele><time>2026-04-18T17:38:19.188Z</time></trkpt><trkpt lat="43.9055611" lon="11.7989459"><ele>559.0</ele><time>2026-04-18T17:38:20.188Z</time></trkpt><trkpt lat="43.9054553" lon="11.7989083"><ele>559.0</ele><time>2026-04-18T17:38:21.188Z</time></trkpt><trkpt lat="43.9053635" lon="11.7989124"><ele>559.0</ele><time>2026-04-18T17:38:22.188Z</time></trkpt><trkpt lat="43.9052838" lon="11.7989729"><ele>559.0</ele><time>2026-04-18T17:38:23.188Z</time></trkpt><trkpt lat="43.9052089" lon="11.7991055"><ele>559.0</ele><time>2026-04-18T17:38:24.188Z</time></trkpt><trkpt lat="43.9051302" lon="11.7992777"><ele>559.3333333333334</ele><time>2026-04-18T17:38:25.188Z</time></trkpt><trkpt lat="43.9050475" lon="11.7994712"><ele>559.6666666666666</ele><time>2026-04-18T17:38:26.188Z</time></trkpt><trkpt lat="43.9049569" lon="11.7996773"><ele>560.0</ele><time>2026-04-18T17:38:27.188Z</time></trkpt><trkpt lat="43.9048627" lon="11.7998723"><ele>560.0</ele><time>2026-04-18T17:38:28.188Z</time></trkpt><trkpt lat="43.9047501" lon="11.8000478"><ele>560.0</ele><time>2026-04-18T17:38:29.188Z</time></trkpt><trkpt lat="43.9046177" lon="11.8002163"><ele>560.0</ele><time>2026-04-18T17:38:30.188Z</time></trkpt><trkpt lat="43.904481" lon="11.8003852"><ele>557.6666666666666</ele><time>2026-04-18T17:38:31.188Z</time></trkpt><trkpt lat="43.9043501" lon="11.8005506"><ele>555.3333333333334</ele><time>2026-04-18T17:38:32.188Z</time></trkpt><trkpt lat="43.9042334" lon="11.8007074"><ele>553.0</ele><time>2026-04-18T17:38:33.188Z</time></trkpt><trkpt lat="43.90413" lon="11.800851"><ele>555.0</ele><time>2026-04-18T17:38:34.188Z</time></trkpt><trkpt lat="43.9040514" lon="11.8010068"><ele>557.0</ele><time>2026-04-18T17:38:35.188Z</time></trkpt><trkpt lat="43.9040049" lon="11.8012065"><ele>559.0</ele><time>2026-04-18T17:38:36.188Z</time></trkpt><trkpt lat="43.9039851" lon="11.8014417"><ele>559.0</ele><time>2026-04-18T17:38:37.188Z</time></trkpt><trkpt lat="43.9039815" lon="11.8016937"><ele>559.0</ele><time>2026-04-18T17:38:38.188Z</time></trkpt><trkpt lat="43.9039775" lon="11.8019478"><ele>559.0</ele><time>2026-04-18T17:38:39.188Z</time></trkpt><trkpt lat="43.903978" lon="11.8021957"><ele>559.0</ele><time>2026-04-18T17:38:40.188Z</time></trkpt><trkpt lat="43.9039777" lon="11.8024267"><ele>559.0</ele><time>2026-04-18T17:38:41.187Z</time></trkpt><trkpt lat="43.903972" lon="11.8026503"><ele>559.0</ele><time>2026-04-18T17:38:42.187Z</time></trkpt><trkpt lat="43.9039518" lon="11.8028821"><ele>559.3333333333334</ele><time>2026-04-18T17:38:43.188Z</time></trkpt><trkpt lat="43.9039138" lon="11.8031051"><ele>559.6666666666666</ele><time>2026-04-18T17:38:44.188Z</time></trkpt><trkpt lat="43.9038642" lon="11.8033171"><ele>560.0</ele><time>2026-04-18T17:38:45.188Z</time></trkpt><trkpt lat="43.903817" lon="11.8035136"><ele>558.25</ele><time>2026-04-18T17:38:46.188Z</time></trkpt><trkpt lat="43.9037739" lon="11.8036918"><ele>556.5</ele><time>2026-04-18T17:38:47.188Z</time></trkpt><trkpt lat="43.9037663" lon="11.8038478"><ele>554.75</ele><time>2026-04-18T17:38:48.188Z</time></trkpt><trkpt lat="43.9037707" lon="11.8040042"><ele>553.0</ele><time>2026-04-18T17:38:49.188Z</time></trkpt><trkpt lat="43.9038605" lon="11.8041578"><ele>553.0</ele><time>2026-04-18T17:38:50.188Z</time></trkpt><trkpt lat="43.9039565" lon="11.8043242"><ele>553.0</ele><time>2026-04-18T17:38:51.188Z</time></trkpt><trkpt lat="43.9040728" lon="11.8044915"><ele>553.0</ele><time>2026-04-18T17:38:52.188Z</time></trkpt><trkpt lat="43.9041973" lon="11.8046808"><ele>556.6666666666667</ele><time>2026-04-18T17:38:53.188Z</time></trkpt><trkpt lat="43.9043181" lon="11.8048676"><ele>560.3333333333334</ele><time>2026-04-18T17:38:54.188Z</time></trkpt><trkpt lat="43.9044306" lon="11.8050358"><ele>564.0</ele><time>2026-04-18T17:38:55.188Z</time></trkpt><trkpt lat="43.9045295" lon="11.8051914"><ele>564.0</ele><time>2026-04-18T17:38:56.188Z</time></trkpt><trkpt lat="43.9046016" lon="11.8053355"><ele>564.0</ele><time>2026-04-18T17:38:57.187Z</time></trkpt><trkpt lat="43.9046381" lon="11.805501"><ele>564.0</ele><time>2026-04-18T17:38:58.188Z</time></trkpt><trkpt lat="43.9046411" lon="11.8056988"><ele>564.0</ele><time>2026-04-18T17:38:59.188Z</time></trkpt><trkpt lat="43.9046328" lon="11.8059218"><ele>562.0</ele><time>2026-04-18T17:39:00.187Z</time></trkpt><trkpt lat="43.9046215" lon="11.8061599"><ele>560.0</ele><time>2026-04-18T17:39:01.188Z</time></trkpt><trkpt lat="43.9045969" lon="11.8064075"><ele>558.0</ele><time>2026-04-18T17:39:02.188Z</time></trkpt><trkpt lat="43.904555" lon="11.8066556"><ele>558.3333333333334</ele><time>2026-04-18T17:39:03.188Z</time></trkpt><trkpt lat="43.9044922" lon="11.8069061"><ele>558.6666666666667</ele><time>2026-04-18T17:39:04.188Z</time></trkpt><trkpt lat="43.9044181" lon="11.8071506"><ele>559.0</ele><time>2026-04-18T17:39:05.188Z</time></trkpt><trkpt lat="43.9043576" lon="11.8073969"><ele>559.0</ele><time>2026-04-18T17:39:06.188Z</time></trkpt><trkpt lat="43.9043126" lon="11.8076298"><ele>559.0</ele><time>2026-04-18T17:39:07.188Z</time></trkpt><trkpt lat="43.9042776" lon="11.8078477"><ele>559.0</ele><time>2026-04-18T17:39:08.188Z</time></trkpt><trkpt lat="43.9042501" lon="11.8080372"><ele>556.5</ele><time>2026-04-18T17:39:09.188Z</time></trkpt><trkpt lat="43.9042505" lon="11.8082097"><ele>554.0</ele><time>2026-04-18T17:39:10.188Z</time></trkpt><trkpt lat="43.9042948" lon="11.8083775"><ele>551.5</ele><time>2026-04-18T17:39:11.187Z</time></trkpt><trkpt lat="43.9043814" lon="11.8085146"><ele>549.0</ele><time>2026-04-18T17:39:12.188Z</time></trkpt><trkpt lat="43.9044919" lon="11.8086183"><ele>542.75</ele><time>2026-04-18T17:39:13.188Z</time></trkpt><trkpt lat="43.9046244" lon="11.8087015"><ele>536.5</ele><time>2026-04-18T17:39:14.188Z</time></trkpt><trkpt lat="43.9047537" lon="11.8087763"><ele>530.25</ele><time>2026-04-18T17:39:15.188Z</time></trkpt><trkpt lat="43.9048701" lon="11.8088551"><ele>524.0</ele><time>2026-04-18T17:39:16.188Z</time></trkpt><trkpt lat="43.9049397" lon="11.8089554"><ele>524.0</ele><time>2026-04-18T17:39:17.187Z</time></trkpt><trkpt lat="43.9049876" lon="11.8091226"><ele>524.0</ele><time>2026-04-18T17:39:18.188Z</time></trkpt><trkpt lat="43.9050067" lon="11.8093389"><ele>524.0</ele><time>2026-04-18T17:39:19.188Z</time></trkpt><trkpt lat="43.9050055" lon="11.8095846"><ele>521.3333333333333</ele><time>2026-04-18T17:39:20.187Z</time></trkpt><trkpt lat="43.904998" lon="11.8098776"><ele>518.6666666666666</ele><time>2026-04-18T17:39:21.188Z</time></trkpt><trkpt lat="43.90499" lon="11.8101709"><ele>516.0</ele><time>2026-04-18T17:39:22.188Z</time></trkpt><trkpt lat="43.9049878" lon="11.810449"><ele>515.3333333333334</ele><time>2026-04-18T17:39:23.188Z</time></trkpt><trkpt lat="43.9049806" lon="11.8107211"><ele>514.6666666666667</ele><time>2026-04-18T17:39:24.188Z</time></trkpt><trkpt lat="43.9049597" lon="11.8109991"><ele>514.0</ele><time>2026-04-18T17:39:25.188Z</time></trkpt><trkpt lat="43.9049188" lon="11.8112825"><ele>514.0</ele><time>2026-04-18T17:39:26.188Z</time></trkpt><trkpt lat="43.9048582" lon="11.8115652"><ele>514.0</ele><time>2026-04-18T17:39:27.188Z</time></trkpt><trkpt lat="43.9047919" lon="11.81184"><ele>514.0</ele><time>2026-04-18T17:39:28.188Z</time></trkpt><trkpt lat="43.9047317" lon="11.8121022"><ele>513.0</ele><time>2026-04-18T17:39:29.188Z</time></trkpt><trkpt lat="43.9046791" lon="11.8123267"><ele>512.0</ele><time>2026-04-18T17:39:30.188Z</time></trkpt><trkpt lat="43.9046372" lon="11.812524"><ele>511.0</ele><time>2026-04-18T17:39:31.188Z</time></trkpt><trkpt lat="43.904632" lon="11.8127042"><ele>510.0</ele><time>2026-04-18T17:39:32.188Z</time></trkpt><trkpt lat="43.9046759" lon="11.8128662"><ele>510.75</ele><time>2026-04-18T17:39:33.188Z</time></trkpt><trkpt lat="43.9047627" lon="11.8130251"><ele>511.5</ele><time>2026-04-18T17:39:34.188Z</time></trkpt><trkpt lat="43.9048785" lon="11.8131727"><ele>512.25</ele><time>2026-04-18T17:39:35.188Z</time></trkpt><trkpt lat="43.9049995" lon="11.8132826"><ele>513.0</ele><time>2026-04-18T17:39:36.188Z</time></trkpt><trkpt lat="43.90511" lon="11.8133659"><ele>513.0</ele><time>2026-04-18T17:39:37.187Z</time></trkpt><trkpt lat="43.9052012" lon="11.813433"><ele>513.0</ele><time>2026-04-18T17:39:38.188Z</time></trkpt><trkpt lat="43.9052735" lon="11.8135415"><ele>513.0</ele><time>2026-04-18T17:39:39.188Z</time></trkpt><trkpt lat="43.9053165" lon="11.8136831"><ele>513.0</ele><time>2026-04-18T17:39:40.188Z</time></trkpt><trkpt lat="43.9053263" lon="11.8138136"><ele>513.0</ele><time>2026-04-18T17:39:41.188Z</time></trkpt><trkpt lat="43.9052872" lon="11.8139341"><ele>515.25</ele><time>2026-04-18T17:39:42.188Z</time></trkpt><trkpt lat="43.9052057" lon="11.8140306"><ele>517.5</ele><time>2026-04-18T17:39:43.188Z</time></trkpt><trkpt lat="43.9050876" lon="11.8141058"><ele>519.75</ele><time>2026-04-18T17:39:44.188Z</time></trkpt><trkpt lat="43.9049528" lon="11.8141752"><ele>522.0</ele><time>2026-04-18T17:39:45.187Z</time></trkpt><trkpt lat="43.9048238" lon="11.8142398"><ele>515.25</ele><time>2026-04-18T17:39:46.188Z</time></trkpt><trkpt lat="43.9047043" lon="11.8143028"><ele>508.5</ele><time>2026-04-18T17:39:47.188Z</time></trkpt><trkpt lat="43.9045999" lon="11.8143939"><ele>501.75</ele><time>2026-04-18T17:39:48.187Z</time></trkpt><trkpt lat="43.9045169" lon="11.8145271"><ele>495.0</ele><time>2026-04-18T17:39:49.188Z</time></trkpt><trkpt lat="43.9044682" lon="11.8146679"><ele>493.6</ele><time>2026-04-18T17:39:50.188Z</time></trkpt><trkpt lat="43.9044468" lon="11.8148096"><ele>492.2</ele><time>2026-04-18T17:39:51.188Z</time></trkpt><trkpt lat="43.9044584" lon="11.8149462"><ele>490.79999999999995</ele><time>2026-04-18T17:39:52.188Z</time></trkpt><trkpt lat="43.9045117" lon="11.8150608"><ele>489.4</ele><time>2026-04-18T17:39:53.187Z</time></trkpt><trkpt lat="43.904599" lon="11.8151329"><ele>488.0</ele><time>2026-04-18T17:39:54.188Z</time></trkpt><trkpt lat="43.9047163" lon="11.8151531"><ele>488.0</ele><time>2026-04-18T17:39:55.188Z</time></trkpt><trkpt lat="43.9048264" lon="11.8151404"><ele>488.0</ele><time>2026-04-18T17:39:56.188Z</time></trkpt><trkpt lat="43.9049263" lon="11.8151633"><ele>488.0</ele><time>2026-04-18T17:39:57.188Z</time></trkpt><trkpt lat="43.9050147" lon="11.8152645"><ele>488.0</ele><time>2026-04-18T17:39:58.188Z</time></trkpt><trkpt lat="43.905108" lon="11.8154243"><ele>491.0</ele><time>2026-04-18T17:39:59.188Z</time></trkpt><trkpt lat="43.9052021" lon="11.8156039"><ele>494.0</ele><time>2026-04-18T17:40:00.188Z</time></trkpt><trkpt lat="43.905297" lon="11.8157825"><ele>497.0</ele><time>2026-04-18T17:40:01.188Z</time></trkpt><trkpt lat="43.9053809" lon="11.8159553"><ele>494.66666666666663</ele><time>2026-04-18T17:40:02.188Z</time></trkpt><trkpt lat="43.9054347" lon="11.8161502"><ele>492.33333333333337</ele><time>2026-04-18T17:40:03.188Z</time></trkpt><trkpt lat="43.9054449" lon="11.816371"><ele>490.0</ele><time>2026-04-18T17:40:04.188Z</time></trkpt><trkpt lat="43.9054232" lon="11.8165818"><ele>490.0</ele><time>2026-04-18T17:40:05.188Z</time></trkpt><trkpt lat="43.9054048" lon="11.8167729"><ele>490.0</ele><time>2026-04-18T17:40:06.188Z</time></trkpt><trkpt lat="43.9053893" lon="11.8169537"><ele>490.0</ele><time>2026-04-18T17:40:07.188Z</time></trkpt><trkpt lat="43.905386" lon="11.8170951"><ele>490.0</ele><time>2026-04-18T17:40:08.188Z</time></trkpt><trkpt lat="43.9054056" lon="11.8172146"><ele>485.0</ele><time>2026-04-18T17:40:09.188Z</time></trkpt><trkpt lat="43.905476" lon="11.8173124"><ele>480.0</ele><time>2026-04-18T17:40:10.188Z</time></trkpt><trkpt lat="43.9055883" lon="11.8173951"><ele>475.0</ele><time>2026-04-18T17:40:11.188Z</time></trkpt><trkpt lat="43.9057286" lon="11.8174528"><ele>470.0</ele><time>2026-04-18T17:40:12.188Z</time></trkpt><trkpt lat="43.9058929" lon="11.8175211"><ele>465.3333333333333</ele><time>2026-04-18T17:40:13.188Z</time></trkpt><trkpt lat="43.9060611" lon="11.817586"><ele>460.66666666666663</ele><time>2026-04-18T17:40:14.188Z</time></trkpt><trkpt lat="43.9062148" lon="11.8176544"><ele>456.0</ele><time>2026-04-18T17:40:15.188Z</time></trkpt><trkpt lat="43.9063509" lon="11.8177484"><ele>456.0</ele><time>2026-04-18T17:40:16.188Z</time></trkpt><trkpt lat="43.9064605" lon="11.8178848"><ele>456.0</ele><time>2026-04-18T17:40:17.188Z</time></trkpt><trkpt lat="43.9065438" lon="11.8180439"><ele>456.0</ele><time>2026-04-18T17:40:18.187Z</time></trkpt><trkpt lat="43.906641" lon="11.8181966"><ele>456.0</ele><time>2026-04-18T17:40:19.188Z</time></trkpt><trkpt lat="43.9067843" lon="11.8183499"><ele>453.33333333333337</ele><time>2026-04-18T17:40:20.188Z</time></trkpt><trkpt lat="43.9069605" lon="11.8184737"><ele>450.6666666666667</ele><time>2026-04-18T17:40:21.188Z</time></trkpt><trkpt lat="43.9071338" lon="11.8186097"><ele>448.0</ele><time>2026-04-18T17:40:22.188Z</time></trkpt><trkpt lat="43.9073089" lon="11.8187415"><ele>448.0</ele><time>2026-04-18T17:40:23.188Z</time></trkpt><trkpt lat="43.9074686" lon="11.8188671"><ele>448.0</ele><time>2026-04-18T17:40:24.188Z</time></trkpt><trkpt lat="43.9076198" lon="11.8189961"><ele>448.0</ele><time>2026-04-18T17:40:25.188Z</time></trkpt><trkpt lat="43.9077585" lon="11.8191221"><ele>452.5</ele><time>2026-04-18T17:40:26.188Z</time></trkpt><trkpt lat="43.9078817" lon="11.81923"><ele>457.0</ele><time>2026-04-18T17:40:27.188Z</time></trkpt><trkpt lat="43.9079818" lon="11.8193255"><ele>461.5</ele><time>2026-04-18T17:40:28.187Z</time></trkpt><trkpt lat="43.9080612" lon="11.8194353"><ele>466.0</ele><time>2026-04-18T17:40:29.188Z</time></trkpt><trkpt lat="43.908109" lon="11.8195908"><ele>466.0</ele><time>2026-04-18T17:40:30.188Z</time></trkpt><trkpt lat="43.9081271" lon="11.8197719"><ele>466.0</ele><time>2026-04-18T17:40:31.188Z</time></trkpt><trkpt lat="43.9081168" lon="11.8199678"><ele>466.0</ele><time>2026-04-18T17:40:32.188Z</time></trkpt><trkpt lat="43.9080723" lon="11.8201766"><ele>466.0</ele><time>2026-04-18T17:40:33.188Z</time></trkpt><trkpt lat="43.9080099" lon="11.8204221"><ele>467.0</ele><time>2026-04-18T17:40:34.188Z</time></trkpt><trkpt lat="43.9079471" lon="11.8206886"><ele>468.0</ele><time>2026-04-18T17:40:35.187Z</time></trkpt><trkpt lat="43.9078912" lon="11.8209881"><ele>469.0</ele><time>2026-04-18T17:40:36.188Z</time></trkpt><trkpt lat="43.9078416" lon="11.8212615"><ele>472.33333333333337</ele><time>2026-04-18T17:40:37.187Z</time></trkpt><trkpt lat="43.9077836" lon="11.8215209"><ele>475.66666666666663</ele><time>2026-04-18T17:40:38.188Z</time></trkpt><trkpt lat="43.9077105" lon="11.8217572"><ele>479.0</ele><time>2026-04-18T17:40:39.188Z</time></trkpt><trkpt lat="43.9076272" lon="11.8219767"><ele>468.66666666666663</ele><time>2026-04-18T17:40:40.188Z</time></trkpt><trkpt lat="43.9075462" lon="11.8221957"><ele>458.33333333333337</ele><time>2026-04-18T17:40:41.188Z</time></trkpt><trkpt lat="43.9074775" lon="11.8224223"><ele>448.0</ele><time>2026-04-18T17:40:42.187Z</time></trkpt><trkpt lat="43.907418" lon="11.8226625"><ele>448.0</ele><time>2026-04-18T17:40:43.187Z</time></trkpt><trkpt lat="43.9073581" lon="11.8229054"><ele>448.0</ele><time>2026-04-18T17:40:44.188Z</time></trkpt><trkpt lat="43.907303" lon="11.8231375"><ele>448.0</ele><time>2026-04-18T17:40:45.187Z</time></trkpt><trkpt lat="43.90728" lon="11.8233682"><ele>445.0</ele><time>2026-04-18T17:40:46.188Z</time></trkpt><trkpt lat="43.9072828" lon="11.8236004"><ele>442.0</ele><time>2026-04-18T17:40:47.188Z</time></trkpt><trkpt lat="43.9072933" lon="11.8238095"><ele>439.0</ele><time>2026-04-18T17:40:48.187Z</time></trkpt><trkpt lat="43.9073071" lon="11.8239805"><ele>436.0</ele><time>2026-04-18T17:40:49.188Z</time></trkpt><trkpt lat="43.9073319" lon="11.8241188"><ele>436.0</ele><time>2026-04-18T17:40:50.188Z</time></trkpt><trkpt lat="43.9073975" lon="11.8242343"><ele>436.0</ele><time>2026-04-18T17:40:51.188Z</time></trkpt><trkpt lat="43.9075152" lon="11.8243397"><ele>436.0</ele><time>2026-04-18T17:40:52.188Z</time></trkpt><trkpt lat="43.9076585" lon="11.8244549"><ele>436.0</ele><time>2026-04-18T17:40:53.188Z</time></trkpt><trkpt lat="43.9078155" lon="11.8245843"><ele>433.6666666666667</ele><time>2026-04-18T17:40:54.188Z</time></trkpt><trkpt lat="43.907981" lon="11.8247111"><ele>431.33333333333337</ele><time>2026-04-18T17:40:55.188Z</time></trkpt><trkpt lat="43.9081588" lon="11.8248294"><ele>429.0</ele><time>2026-04-18T17:40:56.188Z</time></trkpt><trkpt lat="43.9083292" lon="11.8249291"><ele>432.0</ele><time>2026-04-18T17:40:57.188Z</time></trkpt><trkpt lat="43.9084935" lon="11.8250191"><ele>435.0</ele><time>2026-04-18T17:40:58.187Z</time></trkpt><trkpt lat="43.9086484" lon="11.8251172"><ele>438.0</ele><time>2026-04-18T17:40:59.187Z</time></trkpt><trkpt lat="43.90879" lon="11.8252567"><ele>438.0</ele><time>2026-04-18T17:41:00.188Z</time></trkpt><trkpt lat="43.9089124" lon="11.8254359"><ele>438.0</ele><time>2026-04-18T17:41:01.188Z</time></trkpt><trkpt lat="43.9089979" lon="11.8256301"><ele>438.0</ele><time>2026-04-18T17:41:02.188Z</time></trkpt><trkpt lat="43.9090558" lon="11.8258578"><ele>436.0</ele><time>2026-04-18T17:41:03.188Z</time></trkpt><trkpt lat="43.9090807" lon="11.8261099"><ele>434.0</ele><time>2026-04-18T17:41:04.188Z</time></trkpt><trkpt lat="43.9090916" lon="11.8263752"><ele>432.0</ele><time>2026-04-18T17:41:05.188Z</time></trkpt><trkpt lat="43.9091031" lon="11.8266511"><ele>430.0</ele><time>2026-04-18T17:41:06.188Z</time></trkpt><trkpt lat="43.9091131" lon="11.826939"><ele>428.0</ele><time>2026-04-18T17:41:07.188Z</time></trkpt><trkpt lat="43.9091172" lon="11.8272344"><ele>426.0</ele><time>2026-04-18T17:41:08.188Z</time></trkpt><trkpt lat="43.9091106" lon="11.8275435"><ele>426.5</ele><time>2026-04-18T17:41:09.188Z</time></trkpt><trkpt lat="43.9090939" lon="11.8278672"><ele>427.0</ele><time>2026-04-18T17:41:10.188Z</time></trkpt><trkpt lat="43.9090724" lon="11.828198"><ele>425.5</ele><time>2026-04-18T17:41:11.187Z</time></trkpt><trkpt lat="43.9090508" lon="11.828532"><ele>424.0</ele><time>2026-04-18T17:41:12.188Z</time></trkpt><trkpt lat="43.9090259" lon="11.8288553"><ele>424.0</ele><time>2026-04-18T17:41:13.187Z</time></trkpt><trkpt lat="43.9089947" lon="11.8291547"><ele>424.0</ele><time>2026-04-18T17:41:14.188Z</time></trkpt><trkpt lat="43.9089671" lon="11.8294401"><ele>424.0</ele><time>2026-04-18T17:41:15.188Z</time></trkpt><trkpt lat="43.9089437" lon="11.8297151"><ele>424.6666666666667</ele><time>2026-04-18T17:41:16.188Z</time></trkpt><trkpt lat="43.9089362" lon="11.8299645"><ele>425.33333333333337</ele><time>2026-04-18T17:41:17.188Z</time></trkpt><trkpt lat="43.9089587" lon="11.83021"><ele>426.0</ele><time>2026-04-18T17:41:18.188Z</time></trkpt><trkpt lat="43.9090203" lon="11.8304576"><ele>423.66666666666663</ele><time>2026-04-18T17:41:19.188Z</time></trkpt><trkpt lat="43.9091102" lon="11.8307184"><ele>421.3333333333333</ele><time>2026-04-18T17:41:20.188Z</time></trkpt><trkpt lat="43.9092077" lon="11.8309869"><ele>419.0</ele><time>2026-04-18T17:41:21.188Z</time></trkpt><trkpt lat="43.9092973" lon="11.8312441"><ele>422.66666666666663</ele><time>2026-04-18T17:41:22.188Z</time></trkpt><trkpt lat="43.9093866" lon="11.8315014"><ele>426.33333333333337</ele><time>2026-04-18T17:41:23.188Z</time></trkpt><trkpt lat="43.9094646" lon="11.8317614"><ele>430.0</ele><time>2026-04-18T17:41:24.188Z</time></trkpt><trkpt lat="43.9095197" lon="11.8320287"><ele>430.0</ele><time>2026-04-18T17:41:25.188Z</time></trkpt><trkpt lat="43.9095437" lon="11.8323062"><ele>430.0</ele><time>2026-04-18T17:41:26.188Z</time></trkpt><trkpt lat="43.9095581" lon="11.832581"><ele>430.0</ele><time>2026-04-18T17:41:27.188Z</time></trkpt><trkpt lat="43.9095846" lon="11.8328346"><ele>426.6666666666667</ele><time>2026-04-18T17:41:28.188Z</time></trkpt><trkpt lat="43.909645" lon="11.8330888"><ele>423.33333333333337</ele><time>2026-04-18T17:41:29.188Z</time></trkpt><trkpt lat="43.9097298" lon="11.8333392"><ele>420.0</ele><time>2026-04-18T17:41:30.188Z</time></trkpt><trkpt lat="43.9098114" lon="11.8335966"><ele>418.33333333333337</ele><time>2026-04-18T17:41:31.188Z</time></trkpt><trkpt lat="43.9098759" lon="11.8338546"><ele>416.6666666666667</ele><time>2026-04-18T17:41:32.188Z</time></trkpt><trkpt lat="43.9099283" lon="11.8341093"><ele>415.0</ele><time>2026-04-18T17:41:33.187Z</time></trkpt><trkpt lat="43.9099647" lon="11.8343562"><ele>413.75</ele><time>2026-04-18T17:41:34.188Z</time></trkpt><trkpt lat="43.9099952" lon="11.8345887"><ele>412.5</ele><time>2026-04-18T17:41:35.187Z</time></trkpt><trkpt lat="43.9100297" lon="11.8347778"><ele>411.25</ele><time>2026-04-18T17:41:36.187Z</time></trkpt><trkpt lat="43.9100927" lon="11.8349345"><ele>410.0</ele><time>2026-04-18T17:41:37.188Z</time></trkpt><trkpt lat="43.9102037" lon="11.8350673"><ele>409.0</ele><time>2026-04-18T17:41:38.188Z</time></trkpt><trkpt lat="43.9103609" lon="11.8351873"><ele>408.0</ele><time>2026-04-18T17:41:39.188Z</time></trkpt><trkpt lat="43.9105399" lon="11.8353103"><ele>407.0</ele><time>2026-04-18T17:41:40.188Z</time></trkpt><trkpt lat="43.9107217" lon="11.8354423"><ele>408.66666666666663</ele><time>2026-04-18T17:41:41.187Z</time></trkpt><trkpt lat="43.9109139" lon="11.8355834"><ele>410.33333333333337</ele><time>2026-04-18T17:41:42.187Z</time></trkpt><trkpt lat="43.9111083" lon="11.835728"><ele>412.0</ele><time>2026-04-18T17:41:43.188Z</time></trkpt><trkpt lat="43.9113053" lon="11.8358754"><ele>409.0</ele><time>2026-04-18T17:41:44.188Z</time></trkpt><trkpt lat="43.9114928" lon="11.8360135"><ele>406.0</ele><time>2026-04-18T17:41:45.188Z</time></trkpt><trkpt lat="43.911669" lon="11.8361418"><ele>403.0</ele><time>2026-04-18T17:41:46.188Z</time></trkpt><trkpt lat="43.9118488" lon="11.8362443"><ele>403.0</ele><time>2026-04-18T17:41:47.188Z</time></trkpt><trkpt lat="43.9120453" lon="11.8363171"><ele>403.0</ele><time>2026-04-18T17:41:48.188Z</time></trkpt><trkpt lat="43.9122527" lon="11.8363595"><ele>403.0</ele><time>2026-04-18T17:41:49.187Z</time></trkpt><trkpt lat="43.9124641" lon="11.8363846"><ele>403.33333333333337</ele><time>2026-04-18T17:41:50.187Z</time></trkpt><trkpt lat="43.9126794" lon="11.8363982"><ele>403.66666666666663</ele><time>2026-04-18T17:41:51.188Z</time></trkpt><trkpt lat="43.912894" lon="11.8364026"><ele>404.0</ele><time>2026-04-18T17:41:52.188Z</time></trkpt><trkpt lat="43.913105" lon="11.8364244"><ele>404.0</ele><time>2026-04-18T17:41:53.188Z</time></trkpt><trkpt lat="43.9133065" lon="11.8364788"><ele>404.0</ele><time>2026-04-18T17:41:54.188Z</time></trkpt><trkpt lat="43.9134922" lon="11.8365534"><ele>404.0</ele><time>2026-04-18T17:41:55.188Z</time></trkpt><trkpt lat="43.9136634" lon="11.8366276"><ele>405.3333333333333</ele><time>2026-04-18T17:41:56.188Z</time></trkpt><trkpt lat="43.9138213" lon="11.836687"><ele>406.66666666666663</ele><time>2026-04-18T17:41:57.188Z</time></trkpt><trkpt lat="43.9139842" lon="11.8367015"><ele>408.0</ele><time>2026-04-18T17:41:58.188Z</time></trkpt><trkpt lat="43.914163" lon="11.8366614"><ele>407.66666666666663</ele><time>2026-04-18T17:41:59.188Z</time></trkpt><trkpt lat="43.9143422" lon="11.836599"><ele>407.3333333333333</ele><time>2026-04-18T17:42:00.188Z</time></trkpt><trkpt lat="43.9145091" lon="11.8365413"><ele>407.0</ele><time>2026-04-18T17:42:01.188Z</time></trkpt><trkpt lat="43.9146732" lon="11.8365036"><ele>407.0</ele><time>2026-04-18T17:42:02.188Z</time></trkpt><trkpt lat="43.914842" lon="11.8365166"><ele>407.0</ele><time>2026-04-18T17:42:03.188Z</time></trkpt><trkpt lat="43.9150207" lon="11.8365896"><ele>407.0</ele><time>2026-04-18T17:42:04.188Z</time></trkpt><trkpt lat="43.9152208" lon="11.8366982"><ele>402.5</ele><time>2026-04-18T17:42:05.188Z</time></trkpt><trkpt lat="43.9154373" lon="11.8368148"><ele>398.0</ele><time>2026-04-18T17:42:06.188Z</time></trkpt><trkpt lat="43.9156573" lon="11.8369272"><ele>398.0</ele><time>2026-04-18T17:42:07.187Z</time></trkpt><trkpt lat="43.9158571" lon="11.8370285"><ele>398.0</ele><time>2026-04-18T17:42:08.188Z</time></trkpt><trkpt lat="43.9160447" lon="11.8371306"><ele>398.0</ele><time>2026-04-18T17:42:09.188Z</time></trkpt><trkpt lat="43.9162208" lon="11.8372557"><ele>397.66666666666663</ele><time>2026-04-18T17:42:10.188Z</time></trkpt><trkpt lat="43.9163851" lon="11.8374031"><ele>397.33333333333337</ele><time>2026-04-18T17:42:11.188Z</time></trkpt><trkpt lat="43.9165311" lon="11.8375589"><ele>397.0</ele><time>2026-04-18T17:42:12.188Z</time></trkpt><trkpt lat="43.9166922" lon="11.8376683"><ele>397.33333333333337</ele><time>2026-04-18T17:42:13.188Z</time></trkpt><trkpt lat="43.916885" lon="11.8377553"><ele>397.66666666666663</ele><time>2026-04-18T17:42:14.188Z</time></trkpt><trkpt lat="43.9170972" lon="11.8378348"><ele>398.0</ele><time>2026-04-18T17:42:15.187Z</time></trkpt><trkpt lat="43.9173186" lon="11.8379142"><ele>398.0</ele><time>2026-04-18T17:42:16.187Z</time></trkpt><trkpt lat="43.9175308" lon="11.8379938"><ele>398.0</ele><time>2026-04-18T17:42:17.187Z</time></trkpt><trkpt lat="43.9177267" lon="11.8380706"><ele>398.0</ele><time>2026-04-18T17:42:18.188Z</time></trkpt><trkpt lat="43.9179116" lon="11.838145"><ele>402.0</ele><time>2026-04-18T17:42:19.187Z</time></trkpt><trkpt lat="43.9180759" lon="11.8382237"><ele>406.0</ele><time>2026-04-18T17:42:20.188Z</time></trkpt><trkpt lat="43.9182206" lon="11.8383269"><ele>410.0</ele><time>2026-04-18T17:42:21.188Z</time></trkpt><trkpt lat="43.9183456" lon="11.8384576"><ele>412.3333333333333</ele><time>2026-04-18T17:42:22.187Z</time></trkpt><trkpt lat="43.9184467" lon="11.8386043"><ele>414.66666666666663</ele><time>2026-04-18T17:42:23.187Z</time></trkpt><trkpt lat="43.9185228" lon="11.8387824"><ele>417.0</ele><time>2026-04-18T17:42:24.188Z</time></trkpt><trkpt lat="43.918573" lon="11.8389865"><ele>417.0</ele><time>2026-04-18T17:42:25.188Z</time></trkpt><trkpt lat="43.9186159" lon="11.8392064"><ele>417.0</ele><time>2026-04-18T17:42:26.188Z</time></trkpt><trkpt lat="43.9186774" lon="11.8394409"><ele>417.0</ele><time>2026-04-18T17:42:27.188Z</time></trkpt><trkpt lat="43.9187528" lon="11.8396885"><ele>416.0</ele><time>2026-04-18T17:42:28.188Z</time></trkpt><trkpt lat="43.9188313" lon="11.8399573"><ele>415.0</ele><time>2026-04-18T17:42:29.187Z</time></trkpt><trkpt lat="43.9189053" lon="11.8402376"><ele>414.0</ele><time>2026-04-18T17:42:30.187Z</time></trkpt><trkpt lat="43.91897" lon="11.840544"><ele>414.0</ele><time>2026-04-18T17:42:31.188Z</time></trkpt><trkpt lat="43.9190181" lon="11.8408507"><ele>414.0</ele><time>2026-04-18T17:42:32.188Z</time></trkpt><trkpt lat="43.9190561" lon="11.8411342"><ele>414.0</ele><time>2026-04-18T17:42:33.188Z</time></trkpt><trkpt lat="43.9190885" lon="11.841403"><ele>413.0</ele><time>2026-04-18T17:42:34.187Z</time></trkpt><trkpt lat="43.9191187" lon="11.8416534"><ele>412.0</ele><time>2026-04-18T17:42:35.187Z</time></trkpt><trkpt lat="43.9191481" lon="11.8419011"><ele>411.0</ele><time>2026-04-18T17:42:36.188Z</time></trkpt><trkpt lat="43.9191639" lon="11.8421551"><ele>410.0</ele><time>2026-04-18T17:42:37.187Z</time></trkpt><trkpt lat="43.919158" lon="11.8423793"><ele>409.0</ele><time>2026-04-18T17:42:38.188Z</time></trkpt><trkpt lat="43.9191559" lon="11.8425594"><ele>408.0</ele><time>2026-04-18T17:42:39.188Z</time></trkpt><trkpt lat="43.9191613" lon="11.8427349"><ele>407.0</ele><time>2026-04-18T17:42:40.188Z</time></trkpt><trkpt lat="43.919227" lon="11.8428471"><ele>406.75</ele><time>2026-04-18T17:42:41.188Z</time></trkpt><trkpt lat="43.919312" lon="11.8429401"><ele>406.5</ele><time>2026-04-18T17:42:42.187Z</time></trkpt><trkpt lat="43.9194189" lon="11.8429957"><ele>406.25</ele><time>2026-04-18T17:42:43.188Z</time></trkpt><trkpt lat="43.9195392" lon="11.8430647"><ele>406.0</ele><time>2026-04-18T17:42:44.188Z</time></trkpt><trkpt lat="43.9196611" lon="11.8431859"><ele>406.0</ele><time>2026-04-18T17:42:45.188Z</time></trkpt><trkpt lat="43.9198011" lon="11.8433165"><ele>406.0</ele><time>2026-04-18T17:42:46.188Z</time></trkpt><trkpt lat="43.9199547" lon="11.8434147"><ele>406.0</ele><time>2026-04-18T17:42:47.187Z</time></trkpt><trkpt lat="43.9201027" lon="11.8434818"><ele>404.75</ele><time>2026-04-18T17:42:48.188Z</time></trkpt><trkpt lat="43.9202489" lon="11.8435481"><ele>403.5</ele><time>2026-04-18T17:42:49.188Z</time></trkpt><trkpt lat="43.9203761" lon="11.8436342"><ele>402.25</ele><time>2026-04-18T17:42:50.188Z</time></trkpt><trkpt lat="43.9204821" lon="11.8437522"><ele>401.0</ele><time>2026-04-18T17:42:51.188Z</time></trkpt><trkpt lat="43.9205602" lon="11.8438998"><ele>401.0</ele><time>2026-04-18T17:42:52.188Z</time></trkpt><trkpt lat="43.9206198" lon="11.8440406"><ele>401.0</ele><time>2026-04-18T17:42:53.188Z</time></trkpt><trkpt lat="43.9206781" lon="11.8441642"><ele>401.0</ele><time>2026-04-18T17:42:54.188Z</time></trkpt><trkpt lat="43.9207452" lon="11.8442498"><ele>401.0</ele><time>2026-04-18T17:42:55.188Z</time></trkpt><trkpt lat="43.9208275" lon="11.8442923"><ele>401.0</ele><time>2026-04-18T17:42:56.188Z</time></trkpt><trkpt lat="43.9209254" lon="11.844281"><ele>398.66666666666663</ele><time>2026-04-18T17:42:57.188Z</time></trkpt><trkpt lat="43.9210511" lon="11.8442045"><ele>396.33333333333337</ele><time>2026-04-18T17:42:58.188Z</time></trkpt><trkpt lat="43.9212015" lon="11.8440972"><ele>394.0</ele><time>2026-04-18T17:42:59.188Z</time></trkpt><trkpt lat="43.9213547" lon="11.8440278"><ele>394.0</ele><time>2026-04-18T17:43:00.187Z</time></trkpt><trkpt lat="43.921511" lon="11.8440149"><ele>394.0</ele><time>2026-04-18T17:43:01.188Z</time></trkpt><trkpt lat="43.9216628" lon="11.8440728"><ele>394.0</ele><time>2026-04-18T17:43:02.188Z</time></trkpt><trkpt lat="43.9218218" lon="11.8441225"><ele>390.6666666666667</ele><time>2026-04-18T17:43:03.188Z</time></trkpt><trkpt lat="43.9219951" lon="11.8441151"><ele>387.33333333333337</ele><time>2026-04-18T17:43:04.188Z</time></trkpt><trkpt lat="43.9221857" lon="11.844037"><ele>384.0</ele><time>2026-04-18T17:43:05.188Z</time></trkpt><trkpt lat="43.9223666" lon="11.8439301"><ele>384.0</ele><time>2026-04-18T17:43:06.188Z</time></trkpt><trkpt lat="43.9225401" lon="11.8438372"><ele>384.0</ele><time>2026-04-18T17:43:07.188Z</time></trkpt><trkpt lat="43.9227305" lon="11.843773"><ele>384.0</ele><time>2026-04-18T17:43:08.188Z</time></trkpt><trkpt lat="43.9229146" lon="11.8437573"><ele>384.33333333333337</ele><time>2026-04-18T17:43:09.188Z</time></trkpt><trkpt lat="43.9230913" lon="11.8437719"><ele>384.6666666666667</ele><time>2026-04-18T17:43:10.188Z</time></trkpt><trkpt lat="43.9232555" lon="11.8438169"><ele>385.0</ele><time>2026-04-18T17:43:11.188Z</time></trkpt><trkpt lat="43.9234084" lon="11.8439154"><ele>395.33333333333337</ele><time>2026-04-18T17:43:12.188Z</time></trkpt><trkpt lat="43.9235489" lon="11.844064"><ele>405.66666666666663</ele><time>2026-04-18T17:43:13.188Z</time></trkpt><trkpt lat="43.9236739" lon="11.8442408"><ele>416.0</ele><time>2026-04-18T17:43:14.188Z</time></trkpt><trkpt lat="43.9237761" lon="11.8444655"><ele>416.0</ele><time>2026-04-18T17:43:15.188Z</time></trkpt><trkpt lat="43.9238494" lon="11.8447261"><ele>416.0</ele><time>2026-04-18T17:43:16.188Z</time></trkpt><trkpt lat="43.9238909" lon="11.8449997"><ele>416.0</ele><time>2026-04-18T17:43:17.188Z</time></trkpt><trkpt lat="43.9238951" lon="11.8452817"><ele>416.66666666666663</ele><time>2026-04-18T17:43:18.188Z</time></trkpt><trkpt lat="43.9238708" lon="11.8455544"><ele>417.33333333333337</ele><time>2026-04-18T17:43:19.188Z</time></trkpt><trkpt lat="43.9238066" lon="11.8458146"><ele>418.0</ele><time>2026-04-18T17:43:20.188Z</time></trkpt><trkpt lat="43.9237102" lon="11.846063"><ele>422.0</ele><time>2026-04-18T17:43:21.188Z</time></trkpt><trkpt lat="43.9236004" lon="11.8462844"><ele>426.0</ele><time>2026-04-18T17:43:22.187Z</time></trkpt><trkpt lat="43.9234738" lon="11.8464696"><ele>430.0</ele><time>2026-04-18T17:43:23.187Z</time></trkpt><trkpt lat="43.9233337" lon="11.8466108"><ele>419.33333333333337</ele><time>2026-04-18T17:43:24.188Z</time></trkpt><trkpt lat="43.9232148" lon="11.8467579"><ele>408.66666666666663</ele><time>2026-04-18T17:43:25.188Z</time></trkpt><trkpt lat="43.9231093" lon="11.8469677"><ele>398.0</ele><time>2026-04-18T17:43:26.187Z</time></trkpt><trkpt lat="43.9230032" lon="11.8471937"><ele>398.0</ele><time>2026-04-18T17:43:27.188Z</time></trkpt><trkpt lat="43.9228886" lon="11.8473862"><ele>398.0</ele><time>2026-04-18T17:43:28.188Z</time></trkpt><trkpt lat="43.9227688" lon="11.8475588"><ele>398.0</ele><time>2026-04-18T17:43:29.188Z</time></trkpt><trkpt lat="43.9226646" lon="11.8477124"><ele>395.0</ele><time>2026-04-18T17:43:30.188Z</time></trkpt><trkpt lat="43.9225851" lon="11.8478407"><ele>392.0</ele><time>2026-04-18T17:43:31.188Z</time></trkpt><trkpt lat="43.9225395" lon="11.8479675"><ele>389.0</ele><time>2026-04-18T17:43:32.187Z</time></trkpt><trkpt lat="43.9225338" lon="11.8481107"><ele>386.0</ele><time>2026-04-18T17:43:33.188Z</time></trkpt><trkpt lat="43.9225733" lon="11.848245"><ele>383.0</ele><time>2026-04-18T17:43:34.188Z</time></trkpt><trkpt lat="43.922646" lon="11.8483348"><ele>383.0</ele><time>2026-04-18T17:43:35.188Z</time></trkpt><trkpt lat="43.9227526" lon="11.8483791"><ele>383.0</ele><time>2026-04-18T17:43:36.188Z</time></trkpt><trkpt lat="43.9228929" lon="11.8483682"><ele>383.0</ele><time>2026-04-18T17:43:37.188Z</time></trkpt><trkpt lat="43.9230636" lon="11.8483244"><ele>383.0</ele><time>2026-04-18T17:43:38.188Z</time></trkpt><trkpt lat="43.9232606" lon="11.8482745"><ele>381.0</ele><time>2026-04-18T17:43:39.188Z</time></trkpt><trkpt lat="43.9234943" lon="11.8482336"><ele>379.0</ele><time>2026-04-18T17:43:40.188Z</time></trkpt><trkpt lat="43.9237472" lon="11.8481885"><ele>379.0</ele><time>2026-04-18T17:43:41.188Z</time></trkpt><trkpt lat="43.9239881" lon="11.8481416"><ele>379.0</ele><time>2026-04-18T17:43:42.188Z</time></trkpt><trkpt lat="43.9242243" lon="11.8481047"><ele>372.5</ele><time>2026-04-18T17:43:43.188Z</time></trkpt><trkpt lat="43.9244618" lon="11.8480616"><ele>366.0</ele><time>2026-04-18T17:43:44.188Z</time></trkpt><trkpt lat="43.9246869" lon="11.8479944"><ele>366.0</ele><time>2026-04-18T17:43:45.188Z</time></trkpt><trkpt lat="43.9249001" lon="11.8479236"><ele>366.0</ele><time>2026-04-18T17:43:46.188Z</time></trkpt><trkpt lat="43.9251239" lon="11.8478754"><ele>366.0</ele><time>2026-04-18T17:43:47.187Z</time></trkpt><trkpt lat="43.9253335" lon="11.8478535"><ele>365.6666666666667</ele><time>2026-04-18T17:43:48.188Z</time></trkpt><trkpt lat="43.925535" lon="11.847849"><ele>365.33333333333337</ele><time>2026-04-18T17:43:49.188Z</time></trkpt><trkpt lat="43.9257439" lon="11.8478844"><ele>365.0</ele><time>2026-04-18T17:43:50.188Z</time></trkpt><trkpt lat="43.9259406" lon="11.8479473"><ele>368.6666666666667</ele><time>2026-04-18T17:43:51.188Z</time></trkpt><trkpt lat="43.9261152" lon="11.848037"><ele>372.3333333333333</ele><time>2026-04-18T17:43:52.188Z</time></trkpt><trkpt lat="43.9262766" lon="11.8481461"><ele>376.0</ele><time>2026-04-18T17:43:53.188Z</time></trkpt><trkpt lat="43.9264337" lon="11.8482821"><ele>376.0</ele><time>2026-04-18T17:43:54.188Z</time></trkpt><trkpt lat="43.9265642" lon="11.8484373"><ele>376.0</ele><time>2026-04-18T17:43:55.187Z</time></trkpt><trkpt lat="43.9266886" lon="11.8485858"><ele>376.0</ele><time>2026-04-18T17:43:56.188Z</time></trkpt><trkpt lat="43.9268159" lon="11.848719"><ele>375.3333333333333</ele><time>2026-04-18T17:43:57.188Z</time></trkpt><trkpt lat="43.9269529" lon="11.8488415"><ele>374.6666666666667</ele><time>2026-04-18T17:43:58.188Z</time></trkpt><trkpt lat="43.9271229" lon="11.8489346"><ele>374.0</ele><time>2026-04-18T17:43:59.188Z</time></trkpt><trkpt lat="43.9272717" lon="11.8490164"><ele>374.0</ele><time>2026-04-18T17:44:00.188Z</time></trkpt><trkpt lat="43.9274308" lon="11.8490903"><ele>374.0</ele><time>2026-04-18T17:44:01.188Z</time></trkpt><trkpt lat="43.927626" lon="11.8491518"><ele>374.0</ele><time>2026-04-18T17:44:02.188Z</time></trkpt><trkpt lat="43.9278532" lon="11.8492085"><ele>376.5</ele><time>2026-04-18T17:44:03.188Z</time></trkpt><trkpt lat="43.9281013" lon="11.8492641"><ele>379.0</ele><time>2026-04-18T17:44:04.188Z</time></trkpt><trkpt lat="43.9283631" lon="11.8493313"><ele>373.0</ele><time>2026-04-18T17:44:05.187Z</time></trkpt><trkpt lat="43.9286392" lon="11.8494236"><ele>367.0</ele><time>2026-04-18T17:44:06.188Z</time></trkpt><trkpt lat="43.9288926" lon="11.8495202"><ele>367.0</ele><time>2026-04-18T17:44:07.187Z</time></trkpt><trkpt lat="43.9291304" lon="11.8496159"><ele>367.0</ele><time>2026-04-18T17:44:08.188Z</time></trkpt><trkpt lat="43.92935" lon="11.8497172"><ele>369.3333333333333</ele><time>2026-04-18T17:44:09.187Z</time></trkpt><trkpt lat="43.9295435" lon="11.849827"><ele>371.6666666666667</ele><time>2026-04-18T17:44:10.187Z</time></trkpt><trkpt lat="43.9297171" lon="11.8499369"><ele>374.0</ele><time>2026-04-18T17:44:11.188Z</time></trkpt><trkpt lat="43.9298544" lon="11.8500308"><ele>373.25</ele><time>2026-04-18T17:44:12.188Z</time></trkpt><trkpt lat="43.9299537" lon="11.850134"><ele>372.5</ele><time>2026-04-18T17:44:13.188Z</time></trkpt><trkpt lat="43.9300203" lon="11.8502776"><ele>371.75</ele><time>2026-04-18T17:44:14.187Z</time></trkpt><trkpt lat="43.9300552" lon="11.8504671"><ele>371.0</ele><time>2026-04-18T17:44:15.188Z</time></trkpt><trkpt lat="43.9300728" lon="11.8506572"><ele>371.0</ele><time>2026-04-18T17:44:16.188Z</time></trkpt><trkpt lat="43.9300566" lon="11.8508197"><ele>371.0</ele><time>2026-04-18T17:44:17.188Z</time></trkpt><trkpt lat="43.9299899" lon="11.8509725"><ele>371.0</ele><time>2026-04-18T17:44:18.188Z</time></trkpt><trkpt lat="43.9299036" lon="11.8511296"><ele>371.0</ele><time>2026-04-18T17:44:19.187Z</time></trkpt><trkpt lat="43.9298439" lon="11.8513005"><ele>372.0</ele><time>2026-04-18T17:44:20.188Z</time></trkpt><trkpt lat="43.9298056" lon="11.8515341"><ele>373.0</ele><time>2026-04-18T17:44:21.188Z</time></trkpt><trkpt lat="43.9297725" lon="11.8517934"><ele>374.0</ele><time>2026-04-18T17:44:22.188Z</time></trkpt><trkpt lat="43.9297419" lon="11.8520955"><ele>374.0</ele><time>2026-04-18T17:44:23.188Z</time></trkpt><trkpt lat="43.9297165" lon="11.8523758"><ele>374.0</ele><time>2026-04-18T17:44:24.188Z</time></trkpt><trkpt lat="43.9297136" lon="11.852621"><ele>374.0</ele><time>2026-04-18T17:44:25.188Z</time></trkpt><trkpt lat="43.9297484" lon="11.8528751"><ele>371.5</ele><time>2026-04-18T17:44:26.188Z</time></trkpt><trkpt lat="43.9298256" lon="11.8531613"><ele>369.0</ele><time>2026-04-18T17:44:27.188Z</time></trkpt><trkpt lat="43.9299237" lon="11.8534551"><ele>369.3333333333333</ele><time>2026-04-18T17:44:28.188Z</time></trkpt><trkpt lat="43.9300188" lon="11.8537152"><ele>369.66666666666663</ele><time>2026-04-18T17:44:29.188Z</time></trkpt><trkpt lat="43.9301018" lon="11.8539705"><ele>370.0</ele><time>2026-04-18T17:44:30.188Z</time></trkpt><trkpt lat="43.9301551" lon="11.854228"><ele>377.3333333333333</ele><time>2026-04-18T17:44:31.188Z</time></trkpt><trkpt lat="43.9301826" lon="11.8544793"><ele>384.66666666666663</ele><time>2026-04-18T17:44:32.188Z</time></trkpt><trkpt lat="43.9302203" lon="11.8547137"><ele>392.0</ele><time>2026-04-18T17:44:33.188Z</time></trkpt><trkpt lat="43.9302979" lon="11.8549562"><ele>381.0</ele><time>2026-04-18T17:44:34.188Z</time></trkpt><trkpt lat="43.9304214" lon="11.8552089"><ele>370.0</ele><time>2026-04-18T17:44:35.188Z</time></trkpt><trkpt lat="43.930572" lon="11.8554725"><ele>370.0</ele><time>2026-04-18T17:44:36.187Z</time></trkpt><trkpt lat="43.9307343" lon="11.8557466"><ele>370.0</ele><time>2026-04-18T17:44:37.188Z</time></trkpt><trkpt lat="43.9308979" lon="11.8560215"><ele>373.0</ele><time>2026-04-18T17:44:38.188Z</time></trkpt><trkpt lat="43.9310434" lon="11.8562679"><ele>376.0</ele><time>2026-04-18T17:44:39.188Z</time></trkpt><trkpt lat="43.9311715" lon="11.8564894"><ele>379.0</ele><time>2026-04-18T17:44:40.188Z</time></trkpt><trkpt lat="43.9312639" lon="11.856716"><ele>380.0</ele><time>2026-04-18T17:44:41.188Z</time></trkpt><trkpt lat="43.9313231" lon="11.8569951"><ele>381.0</ele><time>2026-04-18T17:44:42.188Z</time></trkpt><trkpt lat="43.9313771" lon="11.8573153"><ele>382.0</ele><time>2026-04-18T17:44:43.188Z</time></trkpt><trkpt lat="43.9314384" lon="11.8576588"><ele>382.0</ele><time>2026-04-18T17:44:44.188Z</time></trkpt><trkpt lat="43.9315059" lon="11.8580275"><ele>382.0</ele><time>2026-04-18T17:44:45.188Z</time></trkpt><trkpt lat="43.9315696" lon="11.8583726"><ele>378.0</ele><time>2026-04-18T17:44:46.187Z</time></trkpt><trkpt lat="43.9316243" lon="11.858696"><ele>374.0</ele><time>2026-04-18T17:44:47.188Z</time></trkpt><trkpt lat="43.9316598" lon="11.8589902"><ele>372.33333333333337</ele><time>2026-04-18T17:44:48.188Z</time></trkpt><trkpt lat="43.9316615" lon="11.8592852"><ele>370.6666666666667</ele><time>2026-04-18T17:44:49.188Z</time></trkpt><trkpt lat="43.9316389" lon="11.8595813"><ele>369.0</ele><time>2026-04-18T17:44:50.187Z</time></trkpt><trkpt lat="43.9315922" lon="11.8598663"><ele>372.0</ele><time>2026-04-18T17:44:51.188Z</time></trkpt><trkpt lat="43.9315393" lon="11.8601276"><ele>375.0</ele><time>2026-04-18T17:44:52.188Z</time></trkpt><trkpt lat="43.9315024" lon="11.8603877"><ele>378.0</ele><time>2026-04-18T17:44:53.188Z</time></trkpt><trkpt lat="43.9314953" lon="11.8606344"><ele>378.0</ele><time>2026-04-18T17:44:54.188Z</time></trkpt><trkpt lat="43.9314924" lon="11.8608511"><ele>378.0</ele><time>2026-04-18T17:44:55.188Z</time></trkpt><trkpt lat="43.9314718" lon="11.8610266"><ele>378.0</ele><time>2026-04-18T17:44:56.188Z</time></trkpt><trkpt lat="43.9314175" lon="11.8611752"><ele>378.0</ele><time>2026-04-18T17:44:57.188Z</time></trkpt><trkpt lat="43.9313286" lon="11.8613176"><ele>386.33333333333337</ele><time>2026-04-18T17:44:58.188Z</time></trkpt><trkpt lat="43.9311826" lon="11.8614416"><ele>394.6666666666667</ele><time>2026-04-18T17:44:59.188Z</time></trkpt><trkpt lat="43.931039" lon="11.8615876"><ele>403.0</ele><time>2026-04-18T17:45:00.188Z</time></trkpt><trkpt lat="43.9308995" lon="11.8617239"><ele>396.6666666666667</ele><time>2026-04-18T17:45:01.188Z</time></trkpt><trkpt lat="43.9307756" lon="11.861893"><ele>390.33333333333337</ele><time>2026-04-18T17:45:02.188Z</time></trkpt><trkpt lat="43.930679" lon="11.8620825"><ele>384.0</ele><time>2026-04-18T17:45:03.188Z</time></trkpt><trkpt lat="43.9305753" lon="11.8622421"><ele>384.0</ele><time>2026-04-18T17:45:04.188Z</time></trkpt><trkpt lat="43.93047" lon="11.862346"><ele>384.0</ele><time>2026-04-18T17:45:05.188Z</time></trkpt><trkpt lat="43.9303723" lon="11.8624455"><ele>384.0</ele><time>2026-04-18T17:45:06.188Z</time></trkpt><trkpt lat="43.930294" lon="11.8626059"><ele>384.0</ele><time>2026-04-18T17:45:07.188Z</time></trkpt><trkpt lat="43.9302234" lon="11.8627979"><ele>386.0</ele><time>2026-04-18T17:45:08.188Z</time></trkpt><trkpt lat="43.9301693" lon="11.862978"><ele>388.0</ele><time>2026-04-18T17:45:09.188Z</time></trkpt><trkpt lat="43.9301327" lon="11.8631372"><ele>390.0</ele><time>2026-04-18T17:45:10.187Z</time></trkpt><trkpt lat="43.9301388" lon="11.8633064"><ele>392.0</ele><time>2026-04-18T17:45:11.188Z</time></trkpt><trkpt lat="43.9301885" lon="11.8634769"><ele>392.0</ele><time>2026-04-18T17:45:12.188Z</time></trkpt><trkpt lat="43.9302556" lon="11.8636516"><ele>392.0</ele><time>2026-04-18T17:45:13.188Z</time></trkpt><trkpt lat="43.9302869" lon="11.8638352"><ele>392.0</ele><time>2026-04-18T17:45:14.187Z</time></trkpt><trkpt lat="43.930277" lon="11.8640564"><ele>392.0</ele><time>2026-04-18T17:45:15.188Z</time></trkpt><trkpt lat="43.9302327" lon="11.8642797"><ele>392.5</ele><time>2026-04-18T17:45:16.188Z</time></trkpt><trkpt lat="43.9301893" lon="11.8644962"><ele>393.0</ele><time>2026-04-18T17:45:17.188Z</time></trkpt><trkpt lat="43.9301588" lon="11.8646951"><ele>393.5</ele><time>2026-04-18T17:45:18.188Z</time></trkpt><trkpt lat="43.9301639" lon="11.8648759"><ele>394.0</ele><time>2026-04-18T17:45:19.188Z</time></trkpt><trkpt lat="43.9302126" lon="11.8650465"><ele>392.33333333333337</ele><time>2026-04-18T17:45:20.188Z</time></trkpt><trkpt lat="43.9302855" lon="11.8652179"><ele>390.66666666666663</ele><time>2026-04-18T17:45:21.188Z</time></trkpt><trkpt lat="43.9303594" lon="11.8654206"><ele>389.0</ele><time>2026-04-18T17:45:22.188Z</time></trkpt><trkpt lat="43.9304277" lon="11.8656402"><ele>389.0</ele><time>2026-04-18T17:45:23.188Z</time></trkpt><trkpt lat="43.930482" lon="11.8658565"><ele>389.0</ele><time>2026-04-18T17:45:24.188Z</time></trkpt><trkpt lat="43.9305199" lon="11.8660739"><ele>389.0</ele><time>2026-04-18T17:45:25.188Z</time></trkpt><trkpt lat="43.930542" lon="11.8662906"><ele>387.25</ele><time>2026-04-18T17:45:26.188Z</time></trkpt><trkpt lat="43.9305547" lon="11.8664979"><ele>385.5</ele><time>2026-04-18T17:45:27.188Z</time></trkpt><trkpt lat="43.930574" lon="11.8666757"><ele>383.75</ele><time>2026-04-18T17:45:28.188Z</time></trkpt><trkpt lat="43.9306259" lon="11.8668429"><ele>382.0</ele><time>2026-04-18T17:45:29.188Z</time></trkpt><trkpt lat="43.9307046" lon="11.8669957"><ele>380.75</ele><time>2026-04-18T17:45:30.188Z</time></trkpt><trkpt lat="43.9307771" lon="11.8671455"><ele>379.5</ele><time>2026-04-18T17:45:31.188Z</time></trkpt><trkpt lat="43.9308196" lon="11.8673246"><ele>378.25</ele><time>2026-04-18T17:45:32.188Z</time></trkpt><trkpt lat="43.9308368" lon="11.867509"><ele>377.0</ele><time>2026-04-18T17:45:33.188Z</time></trkpt><trkpt lat="43.9308411" lon="11.8676639"><ele>382.0</ele><time>2026-04-18T17:45:34.188Z</time></trkpt><trkpt lat="43.9308162" lon="11.8678"><ele>387.0</ele><time>2026-04-18T17:45:35.188Z</time></trkpt><trkpt lat="43.9307414" lon="11.8679408"><ele>392.0</ele><time>2026-04-18T17:45:36.187Z</time></trkpt><trkpt lat="43.9306331" lon="11.8680622"><ele>397.0</ele><time>2026-04-18T17:45:37.188Z</time></trkpt><trkpt lat="43.9305125" lon="11.8681576"><ele>397.0</ele><time>2026-04-18T17:45:38.188Z</time></trkpt><trkpt lat="43.9304094" lon="11.8682649"><ele>397.0</ele><time>2026-04-18T17:45:39.188Z</time></trkpt><trkpt lat="43.9303203" lon="11.8684227"><ele>397.0</ele><time>2026-04-18T17:45:40.188Z</time></trkpt><trkpt lat="43.9302522" lon="11.8686034"><ele>397.0</ele><time>2026-04-18T17:45:41.188Z</time></trkpt><trkpt lat="43.9301528" lon="11.8687712"><ele>390.6666666666667</ele><time>2026-04-18T17:45:42.188Z</time></trkpt><trkpt lat="43.9300148" lon="11.8689139"><ele>384.33333333333337</ele><time>2026-04-18T17:45:43.188Z</time></trkpt><trkpt lat="43.9298585" lon="11.8690544"><ele>378.0</ele><time>2026-04-18T17:45:44.187Z</time></trkpt><trkpt lat="43.9296977" lon="11.8691946"><ele>378.6666666666667</ele><time>2026-04-18T17:45:45.188Z</time></trkpt><trkpt lat="43.9295269" lon="11.8693476"><ele>379.33333333333337</ele><time>2026-04-18T17:45:46.188Z</time></trkpt><trkpt lat="43.9293498" lon="11.8694997"><ele>380.0</ele><time>2026-04-18T17:45:47.188Z</time></trkpt><trkpt lat="43.9291761" lon="11.8696516"><ele>380.0</ele><time>2026-04-18T17:45:48.188Z</time></trkpt><trkpt lat="43.9290063" lon="11.86981"><ele>380.0</ele><time>2026-04-18T17:45:49.188Z</time></trkpt><trkpt lat="43.9288383" lon="11.8699859"><ele>380.0</ele><time>2026-04-18T17:45:50.188Z</time></trkpt><trkpt lat="43.9286652" lon="11.8701905"><ele>374.5</ele><time>2026-04-18T17:45:51.188Z</time></trkpt><trkpt lat="43.9284844" lon="11.8704112"><ele>369.0</ele><time>2026-04-18T17:45:52.188Z</time></trkpt><trkpt lat="43.9282986" lon="11.8706416"><ele>369.0</ele><time>2026-04-18T17:45:53.188Z</time></trkpt><trkpt lat="43.9280993" lon="11.8708845"><ele>369.0</ele><time>2026-04-18T17:45:54.187Z</time></trkpt><trkpt lat="43.9278935" lon="11.8711239"><ele>367.0</ele><time>2026-04-18T17:45:55.188Z</time></trkpt><trkpt lat="43.9276812" lon="11.8713605"><ele>365.0</ele><time>2026-04-18T17:45:56.188Z</time></trkpt><trkpt lat="43.927481" lon="11.8715709"><ele>365.0</ele><time>2026-04-18T17:45:57.188Z</time></trkpt><trkpt lat="43.9272825" lon="11.8717579"><ele>365.0</ele><time>2026-04-18T17:45:58.187Z</time></trkpt><trkpt lat="43.9270962" lon="11.8719301"><ele>363.6666666666667</ele><time>2026-04-18T17:45:59.188Z</time></trkpt><trkpt lat="43.9269226" lon="11.8720934"><ele>362.3333333333333</ele><time>2026-04-18T17:46:00.188Z</time></trkpt><trkpt lat="43.9267628" lon="11.8722544"><ele>361.0</ele><time>2026-04-18T17:46:01.188Z</time></trkpt><trkpt lat="43.9266253" lon="11.8724293"><ele>366.66666666666663</ele><time>2026-04-18T17:46:02.188Z</time></trkpt><trkpt lat="43.926503" lon="11.8726374"><ele>372.3333333333333</ele><time>2026-04-18T17:46:03.188Z</time></trkpt><trkpt lat="43.9263878" lon="11.8728667"><ele>378.0</ele><time>2026-04-18T17:46:04.188Z</time></trkpt><trkpt lat="43.9262716" lon="11.8731065"><ele>378.0</ele><time>2026-04-18T17:46:05.188Z</time></trkpt><trkpt lat="43.926152" lon="11.8733561"><ele>378.0</ele><time>2026-04-18T17:46:06.188Z</time></trkpt><trkpt lat="43.9260341" lon="11.8736072"><ele>378.0</ele><time>2026-04-18T17:46:07.188Z</time></trkpt><trkpt lat="43.9259238" lon="11.8738438"><ele>369.6666666666667</ele><time>2026-04-18T17:46:08.188Z</time></trkpt><trkpt lat="43.9258251" lon="11.8740719"><ele>361.33333333333337</ele><time>2026-04-18T17:46:09.188Z</time></trkpt><trkpt lat="43.9257511" lon="11.8743008"><ele>353.0</ele><time>2026-04-18T17:46:10.188Z</time></trkpt><trkpt lat="43.9256968" lon="11.8745463"><ele>353.0</ele><time>2026-04-18T17:46:11.187Z</time></trkpt><trkpt lat="43.925652" lon="11.8747898"><ele>353.0</ele><time>2026-04-18T17:46:12.188Z</time></trkpt><trkpt lat="43.9256143" lon="11.8750176"><ele>353.0</ele><time>2026-04-18T17:46:13.188Z</time></trkpt><trkpt lat="43.9255808" lon="11.8752325"><ele>353.25</ele><time>2026-04-18T17:46:14.188Z</time></trkpt><trkpt lat="43.925545" lon="11.8754103"><ele>353.5</ele><time>2026-04-18T17:46:15.188Z</time></trkpt><trkpt lat="43.9254871" lon="11.8755623"><ele>353.75</ele><time>2026-04-18T17:46:16.188Z</time></trkpt><trkpt lat="43.9254016" lon="11.8756686"><ele>354.0</ele><time>2026-04-18T17:46:17.187Z</time></trkpt><trkpt lat="43.9252944" lon="11.8757455"><ele>354.0</ele><time>2026-04-18T17:46:18.188Z</time></trkpt><trkpt lat="43.9251922" lon="11.875838"><ele>354.0</ele><time>2026-04-18T17:46:19.188Z</time></trkpt><trkpt lat="43.9251175" lon="11.8759507"><ele>354.0</ele><time>2026-04-18T17:46:20.187Z</time></trkpt><trkpt lat="43.9250755" lon="11.8761097"><ele>354.0</ele><time>2026-04-18T17:46:21.188Z</time></trkpt><trkpt lat="43.9250768" lon="11.8762711"><ele>360.6666666666667</ele><time>2026-04-18T17:46:22.188Z</time></trkpt><trkpt lat="43.9251174" lon="11.8764669"><ele>367.33333333333337</ele><time>2026-04-18T17:46:23.188Z</time></trkpt><trkpt lat="43.9251709" lon="11.876693"><ele>374.0</ele><time>2026-04-18T17:46:24.188Z</time></trkpt><trkpt lat="43.9252085" lon="11.8769571"><ele>374.0</ele><time>2026-04-18T17:46:25.188Z</time></trkpt><trkpt lat="43.925228" lon="11.8772578"><ele>374.0</ele><time>2026-04-18T17:46:26.188Z</time></trkpt><trkpt lat="43.9252275" lon="11.8775209"><ele>374.0</ele><time>2026-04-18T17:46:27.188Z</time></trkpt><trkpt lat="43.9252039" lon="11.877789"><ele>371.33333333333337</ele><time>2026-04-18T17:46:28.187Z</time></trkpt><trkpt lat="43.9251569" lon="11.8780261"><ele>368.6666666666667</ele><time>2026-04-18T17:46:29.188Z</time></trkpt><trkpt lat="43.925097" lon="11.8782536"><ele>366.0</ele><time>2026-04-18T17:46:30.188Z</time></trkpt><trkpt lat="43.9250409" lon="11.8784643"><ele>355.3333333333333</ele><time>2026-04-18T17:46:31.187Z</time></trkpt><trkpt lat="43.9250016" lon="11.8786787"><ele>344.66666666666663</ele><time>2026-04-18T17:46:32.188Z</time></trkpt><trkpt lat="43.9249942" lon="11.8789069"><ele>334.0</ele><time>2026-04-18T17:46:33.188Z</time></trkpt><trkpt lat="43.9250183" lon="11.87915"><ele>341.66666666666663</ele><time>2026-04-18T17:46:34.188Z</time></trkpt><trkpt lat="43.9250628" lon="11.8794002"><ele>349.3333333333333</ele><time>2026-04-18T17:46:35.188Z</time></trkpt><trkpt lat="43.9251285" lon="11.8796527"><ele>357.0</ele><time>2026-04-18T17:46:36.188Z</time></trkpt><trkpt lat="43.9252228" lon="11.8799211"><ele>350.5</ele><time>2026-04-18T17:46:37.188Z</time></trkpt><trkpt lat="43.9253368" lon="11.8802181"><ele>344.0</ele><time>2026-04-18T17:46:38.188Z</time></trkpt><trkpt lat="43.9254493" lon="11.8805134"><ele>344.0</ele><time>2026-04-18T17:46:39.188Z</time></trkpt><trkpt lat="43.9255519" lon="11.8807907"><ele>344.0</ele><time>2026-04-18T17:46:40.187Z</time></trkpt><trkpt lat="43.925645" lon="11.8810494"><ele>344.0</ele><time>2026-04-18T17:46:41.188Z</time></trkpt><trkpt lat="43.9257273" lon="11.8812845"><ele>341.6666666666667</ele><time>2026-04-18T17:46:42.188Z</time></trkpt><trkpt lat="43.9258221" lon="11.8815178"><ele>339.3333333333333</ele><time>2026-04-18T17:46:43.188Z</time></trkpt><trkpt lat="43.9259479" lon="11.8817608"><ele>337.0</ele><time>2026-04-18T17:46:44.188Z</time></trkpt><trkpt lat="43.9260957" lon="11.8820034"><ele>337.0</ele><time>2026-04-18T17:46:45.187Z</time></trkpt><trkpt lat="43.9262548" lon="11.8822415"><ele>337.0</ele><time>2026-04-18T17:46:46.188Z</time></trkpt><trkpt lat="43.9264224" lon="11.8824719"><ele>340.5</ele><time>2026-04-18T17:46:47.188Z</time></trkpt><trkpt lat="43.9266008" lon="11.8826959"><ele>344.0</ele><time>2026-04-18T17:46:48.188Z</time></trkpt><trkpt lat="43.9267821" lon="11.8829266"><ele>344.0</ele><time>2026-04-18T17:46:49.188Z</time></trkpt><trkpt lat="43.9269644" lon="11.8831676"><ele>344.0</ele><time>2026-04-18T17:46:50.188Z</time></trkpt><trkpt lat="43.9271539" lon="11.8834071"><ele>333.0</ele><time>2026-04-18T17:46:51.188Z</time></trkpt><trkpt lat="43.9273316" lon="11.8836277"><ele>322.0</ele><time>2026-04-18T17:46:52.188Z</time></trkpt><trkpt lat="43.927502" lon="11.8838272"><ele>328.0</ele><time>2026-04-18T17:46:53.187Z</time></trkpt><trkpt lat="43.9276553" lon="11.8840068"><ele>334.0</ele><time>2026-04-18T17:46:54.188Z</time></trkpt><trkpt lat="43.9277926" lon="11.884186"><ele>340.0</ele><time>2026-04-18T17:46:55.188Z</time></trkpt><trkpt lat="43.9279105" lon="11.8843922"><ele>340.0</ele><time>2026-04-18T17:46:56.188Z</time></trkpt><trkpt lat="43.9280187" lon="11.8846144"><ele>340.0</ele><time>2026-04-18T17:46:57.188Z</time></trkpt><trkpt lat="43.9281165" lon="11.8848484"><ele>340.0</ele><time>2026-04-18T17:46:58.188Z</time></trkpt><trkpt lat="43.9282053" lon="11.8850896"><ele>334.0</ele><time>2026-04-18T17:46:59.188Z</time></trkpt><trkpt lat="43.9282774" lon="11.8853469"><ele>328.0</ele><time>2026-04-18T17:47:00.188Z</time></trkpt><trkpt lat="43.9283214" lon="11.8856124"><ele>322.0</ele><time>2026-04-18T17:47:01.188Z</time></trkpt><trkpt lat="43.9283533" lon="11.8858612"><ele>328.0</ele><time>2026-04-18T17:47:02.188Z</time></trkpt><trkpt lat="43.928398" lon="11.8861131"><ele>334.0</ele><time>2026-04-18T17:47:03.188Z</time></trkpt><trkpt lat="43.9284533" lon="11.8863542"><ele>340.0</ele><time>2026-04-18T17:47:04.188Z</time></trkpt><trkpt lat="43.9285124" lon="11.8865737"><ele>336.3333333333333</ele><time>2026-04-18T17:47:05.188Z</time></trkpt><trkpt lat="43.9285835" lon="11.8867838"><ele>332.6666666666667</ele><time>2026-04-18T17:47:06.187Z</time></trkpt><trkpt lat="43.9286727" lon="11.8869757"><ele>329.0</ele><time>2026-04-18T17:47:07.188Z</time></trkpt><trkpt lat="43.9287896" lon="11.8871589"><ele>329.0</ele><time>2026-04-18T17:47:08.187Z</time></trkpt><trkpt lat="43.9289291" lon="11.8873401"><ele>329.0</ele><time>2026-04-18T17:47:09.188Z</time></trkpt><trkpt lat="43.9290862" lon="11.8875346"><ele>329.0</ele><time>2026-04-18T17:47:10.188Z</time></trkpt><trkpt lat="43.9292561" lon="11.8877334"><ele>326.6666666666667</ele><time>2026-04-18T17:47:11.188Z</time></trkpt><trkpt lat="43.9294184" lon="11.8879193"><ele>324.3333333333333</ele><time>2026-04-18T17:47:12.188Z</time></trkpt><trkpt lat="43.929574" lon="11.8880995"><ele>322.0</ele><time>2026-04-18T17:47:13.188Z</time></trkpt><trkpt lat="43.9297288" lon="11.8882814"><ele>321.3333333333333</ele><time>2026-04-18T17:47:14.188Z</time></trkpt><trkpt lat="43.9298828" lon="11.8884654"><ele>320.6666666666667</ele><time>2026-04-18T17:47:15.188Z</time></trkpt><trkpt lat="43.9300307" lon="11.8886401"><ele>320.0</ele><time>2026-04-18T17:47:16.187Z</time></trkpt><trkpt lat="43.9301703" lon="11.8888026"><ele>320.0</ele><time>2026-04-18T17:47:17.188Z</time></trkpt><trkpt lat="43.9303062" lon="11.8889502"><ele>320.0</ele><time>2026-04-18T17:47:18.188Z</time></trkpt><trkpt lat="43.9304513" lon="11.889075"><ele>320.0</ele><time>2026-04-18T17:47:19.188Z</time></trkpt><trkpt lat="43.9306162" lon="11.8891759"><ele>319.33333333333337</ele><time>2026-04-18T17:47:20.188Z</time></trkpt><trkpt lat="43.9308032" lon="11.8892709"><ele>318.6666666666667</ele><time>2026-04-18T17:47:21.188Z</time></trkpt><trkpt lat="43.9310021" lon="11.889381"><ele>318.0</ele><time>2026-04-18T17:47:22.187Z</time></trkpt><trkpt lat="43.931204" lon="11.8895325"><ele>318.0</ele><time>2026-04-18T17:47:23.188Z</time></trkpt><trkpt lat="43.9314086" lon="11.8897442"><ele>318.0</ele><time>2026-04-18T17:47:24.188Z</time></trkpt><trkpt lat="43.9316006" lon="11.8899775"><ele>318.5</ele><time>2026-04-18T17:47:25.188Z</time></trkpt><trkpt lat="43.9317838" lon="11.890193"><ele>319.0</ele><time>2026-04-18T17:47:26.188Z</time></trkpt><trkpt lat="43.9319593" lon="11.8903946"><ele>319.0</ele><time>2026-04-18T17:47:27.188Z</time></trkpt><trkpt lat="43.9321277" lon="11.8905818"><ele>319.0</ele><time>2026-04-18T17:47:28.188Z</time></trkpt><trkpt lat="43.9322948" lon="11.8907346"><ele>319.0</ele><time>2026-04-18T17:47:29.188Z</time></trkpt><trkpt lat="43.9324843" lon="11.8908487"><ele>317.66666666666663</ele><time>2026-04-18T17:47:30.187Z</time></trkpt><trkpt lat="43.9326774" lon="11.8909433"><ele>316.3333333333333</ele><time>2026-04-18T17:47:31.188Z</time></trkpt><trkpt lat="43.9328535" lon="11.891032"><ele>315.0</ele><time>2026-04-18T17:47:32.188Z</time></trkpt><trkpt lat="43.9330193" lon="11.8911533"><ele>315.0</ele><time>2026-04-18T17:47:33.187Z</time></trkpt><trkpt lat="43.9331717" lon="11.8913335"><ele>315.0</ele><time>2026-04-18T17:47:34.188Z</time></trkpt><trkpt lat="43.9333299" lon="11.891534"><ele>315.0</ele><time>2026-04-18T17:47:35.188Z</time></trkpt><trkpt lat="43.9334896" lon="11.89173"><ele>315.6666666666667</ele><time>2026-04-18T17:47:36.188Z</time></trkpt><trkpt lat="43.9336355" lon="11.89191"><ele>316.33333333333337</ele><time>2026-04-18T17:47:37.188Z</time></trkpt><trkpt lat="43.9337654" lon="11.8920897"><ele>317.0</ele><time>2026-04-18T17:47:38.188Z</time></trkpt><trkpt lat="43.9338575" lon="11.8922638"><ele>317.0</ele><time>2026-04-18T17:47:39.188Z</time></trkpt><trkpt lat="43.9339084" lon="11.8924589"><ele>317.0</ele><time>2026-04-18T17:47:40.187Z</time></trkpt><trkpt lat="43.933923" lon="11.8926559"><ele>317.0</ele><time>2026-04-18T17:47:41.188Z</time></trkpt><trkpt lat="43.9339395" lon="11.8928433"><ele>317.0</ele><time>2026-04-18T17:47:42.188Z</time></trkpt><trkpt lat="43.9340004" lon="11.8930372"><ele>317.0</ele><time>2026-04-18T17:47:43.188Z</time></trkpt><trkpt lat="43.9341162" lon="11.8932256"><ele>317.0</ele><time>2026-04-18T17:47:44.188Z</time></trkpt><trkpt lat="43.9342627" lon="11.8934096"><ele>317.0</ele><time>2026-04-18T17:47:45.188Z</time></trkpt><trkpt lat="43.9344182" lon="11.8935822"><ele>314.33333333333337</ele><time>2026-04-18T17:47:46.188Z</time></trkpt><trkpt lat="43.9345606" lon="11.8937374"><ele>311.6666666666667</ele><time>2026-04-18T17:47:47.188Z</time></trkpt><trkpt lat="43.9346936" lon="11.8938889"><ele>309.0</ele><time>2026-04-18T17:47:48.188Z</time></trkpt><trkpt lat="43.9347983" lon="11.8940466"><ele>309.0</ele><time>2026-04-18T17:47:49.187Z</time></trkpt><trkpt lat="43.9348464" lon="11.8942211"><ele>309.0</ele><time>2026-04-18T17:47:50.188Z</time></trkpt><trkpt lat="43.9348386" lon="11.8944074"><ele>309.0</ele><time>2026-04-18T17:47:51.188Z</time></trkpt><trkpt lat="43.934791" lon="11.8946056"><ele>309.0</ele><time>2026-04-18T17:47:52.188Z</time></trkpt><trkpt lat="43.9347563" lon="11.8948247"><ele>309.3333333333333</ele><time>2026-04-18T17:47:53.188Z</time></trkpt><trkpt lat="43.9347526" lon="11.8950806"><ele>309.66666666666663</ele><time>2026-04-18T17:47:54.188Z</time></trkpt><trkpt lat="43.934758" lon="11.8953404"><ele>310.0</ele><time>2026-04-18T17:47:55.188Z</time></trkpt><trkpt lat="43.9347683" lon="11.8955792"><ele>309.3333333333333</ele><time>2026-04-18T17:47:56.188Z</time></trkpt><trkpt lat="43.9347937" lon="11.8958039"><ele>308.6666666666667</ele><time>2026-04-18T17:47:57.188Z</time></trkpt><trkpt lat="43.9348375" lon="11.8960263"><ele>308.0</ele><time>2026-04-18T17:47:58.188Z</time></trkpt><trkpt lat="43.9348987" lon="11.8962372"><ele>309.0</ele><time>2026-04-18T17:47:59.188Z</time></trkpt><trkpt lat="43.9349731" lon="11.896436"><ele>310.0</ele><time>2026-04-18T17:48:00.188Z</time></trkpt><trkpt lat="43.9350708" lon="11.8966208"><ele>311.0</ele><time>2026-04-18T17:48:01.188Z</time></trkpt><trkpt lat="43.9351979" lon="11.8967938"><ele>306.33333333333337</ele><time>2026-04-18T17:48:02.188Z</time></trkpt><trkpt lat="43.9353433" lon="11.8969621"><ele>301.6666666666667</ele><time>2026-04-18T17:48:03.188Z</time></trkpt><trkpt lat="43.9354936" lon="11.8971234"><ele>297.0</ele><time>2026-04-18T17:48:04.188Z</time></trkpt><trkpt lat="43.9356448" lon="11.897284"><ele>297.0</ele><time>2026-04-18T17:48:05.188Z</time></trkpt><trkpt lat="43.9357845" lon="11.8974307"><ele>297.0</ele><time>2026-04-18T17:48:06.188Z</time></trkpt><trkpt lat="43.9359166" lon="11.8975558"><ele>297.0</ele><time>2026-04-18T17:48:07.188Z</time></trkpt><trkpt lat="43.9360556" lon="11.8976415"><ele>295.6666666666667</ele><time>2026-04-18T17:48:08.188Z</time></trkpt><trkpt lat="43.9362109" lon="11.8976734"><ele>294.33333333333337</ele><time>2026-04-18T17:48:09.188Z</time></trkpt><trkpt lat="43.9363798" lon="11.8976715"><ele>293.0</ele><time>2026-04-18T17:48:10.188Z</time></trkpt><trkpt lat="43.9365483" lon="11.8976738"><ele>293.0</ele><time>2026-04-18T17:48:11.188Z</time></trkpt><trkpt lat="43.9367177" lon="11.8977182"><ele>293.0</ele><time>2026-04-18T17:48:12.188Z</time></trkpt><trkpt lat="43.9368863" lon="11.8978043"><ele>293.0</ele><time>2026-04-18T17:48:13.188Z</time></trkpt><trkpt lat="43.9370531" lon="11.8979259"><ele>294.0</ele><time>2026-04-18T17:48:14.187Z</time></trkpt><trkpt lat="43.9372178" lon="11.8980779"><ele>295.0</ele><time>2026-04-18T17:48:15.188Z</time></trkpt><trkpt lat="43.9373781" lon="11.898242"><ele>296.0</ele><time>2026-04-18T17:48:16.188Z</time></trkpt><trkpt lat="43.9375296" lon="11.8984041"><ele>294.6666666666667</ele><time>2026-04-18T17:48:17.188Z</time></trkpt><trkpt lat="43.937673" lon="11.8985821"><ele>293.3333333333333</ele><time>2026-04-18T17:48:18.188Z</time></trkpt><trkpt lat="43.9378014" lon="11.8987958"><ele>292.0</ele><time>2026-04-18T17:48:19.188Z</time></trkpt><trkpt lat="43.9379132" lon="11.8990365"><ele>289.66666666666663</ele><time>2026-04-18T17:48:20.188Z</time></trkpt><trkpt lat="43.93802" lon="11.8992927"><ele>287.3333333333333</ele><time>2026-04-18T17:48:21.188Z</time></trkpt><trkpt lat="43.938138" lon="11.8995546"><ele>285.0</ele><time>2026-04-18T17:48:22.188Z</time></trkpt><trkpt lat="43.9382677" lon="11.899814"><ele>284.3333333333333</ele><time>2026-04-18T17:48:23.188Z</time></trkpt><trkpt lat="43.9383945" lon="11.9000533"><ele>283.66666666666663</ele><time>2026-04-18T17:48:24.188Z</time></trkpt><trkpt lat="43.9385228" lon="11.9002885"><ele>283.0</ele><time>2026-04-18T17:48:25.188Z</time></trkpt><trkpt lat="43.9386461" lon="11.9005145"><ele>283.0</ele><time>2026-04-18T17:48:26.188Z</time></trkpt><trkpt lat="43.9387738" lon="11.9007228"><ele>283.0</ele><time>2026-04-18T17:48:27.188Z</time></trkpt><trkpt lat="43.9389191" lon="11.9009206"><ele>283.0</ele><time>2026-04-18T17:48:28.188Z</time></trkpt><trkpt lat="43.9390745" lon="11.901108"><ele>282.3333333333333</ele><time>2026-04-18T17:48:29.188Z</time></trkpt><trkpt lat="43.9392343" lon="11.9012922"><ele>281.6666666666667</ele><time>2026-04-18T17:48:30.188Z</time></trkpt><trkpt lat="43.9393898" lon="11.901471"><ele>281.0</ele><time>2026-04-18T17:48:31.188Z</time></trkpt><trkpt lat="43.9395366" lon="11.901639"><ele>280.0</ele><time>2026-04-18T17:48:32.188Z</time></trkpt><trkpt lat="43.9396818" lon="11.9018064"><ele>279.0</ele><time>2026-04-18T17:48:33.187Z</time></trkpt><trkpt lat="43.9398256" lon="11.9019723"><ele>278.0</ele><time>2026-04-18T17:48:34.188Z</time></trkpt><trkpt lat="43.9399685" lon="11.9021369"><ele>278.0</ele><time>2026-04-18T17:48:35.187Z</time></trkpt><trkpt lat="43.9401131" lon="11.9022979"><ele>278.0</ele><time>2026-04-18T17:48:36.188Z</time></trkpt><trkpt lat="43.940257" lon="11.902457"><ele>278.0</ele><time>2026-04-18T17:48:37.188Z</time></trkpt><trkpt lat="43.9404009" lon="11.9026141"><ele>277.0</ele><time>2026-04-18T17:48:38.188Z</time></trkpt><trkpt lat="43.9405459" lon="11.9027754"><ele>276.0</ele><time>2026-04-18T17:48:39.187Z</time></trkpt><trkpt lat="43.940694" lon="11.9029434"><ele>275.0</ele><time>2026-04-18T17:48:40.188Z</time></trkpt><trkpt lat="43.9408463" lon="11.9031205"><ele>275.33333333333337</ele><time>2026-04-18T17:48:41.188Z</time></trkpt><trkpt lat="43.9410035" lon="11.9033045"><ele>275.6666666666667</ele><time>2026-04-18T17:48:42.188Z</time></trkpt><trkpt lat="43.9411672" lon="11.9034927"><ele>276.0</ele><time>2026-04-18T17:48:43.188Z</time></trkpt><trkpt lat="43.9413343" lon="11.9036834"><ele>275.0</ele><time>2026-04-18T17:48:44.188Z</time></trkpt><trkpt lat="43.9415025" lon="11.9038754"><ele>274.0</ele><time>2026-04-18T17:48:45.188Z</time></trkpt><trkpt lat="43.9416698" lon="11.9040653"><ele>273.0</ele><time>2026-04-18T17:48:46.187Z</time></trkpt><trkpt lat="43.9418262" lon="11.9042454"><ele>270.3333333333333</ele><time>2026-04-18T17:48:47.188Z</time></trkpt><trkpt lat="43.9419807" lon="11.9044174"><ele>267.66666666666663</ele><time>2026-04-18T17:48:48.187Z</time></trkpt><trkpt lat="43.9421354" lon="11.9045878"><ele>265.0</ele><time>2026-04-18T17:48:49.188Z</time></trkpt><trkpt lat="43.9422937" lon="11.9047514"><ele>265.0</ele><time>2026-04-18T17:48:50.188Z</time></trkpt><trkpt lat="43.9424657" lon="11.9049032"><ele>265.0</ele><time>2026-04-18T17:48:51.188Z</time></trkpt><trkpt lat="43.9426448" lon="11.905036"><ele>265.0</ele><time>2026-04-18T17:48:52.188Z</time></trkpt><trkpt lat="43.9428179" lon="11.9051496"><ele>263.0</ele><time>2026-04-18T17:48:53.188Z</time></trkpt><trkpt lat="43.9429858" lon="11.9052515"><ele>261.0</ele><time>2026-04-18T17:48:54.188Z</time></trkpt><trkpt lat="43.9431476" lon="11.9053479"><ele>259.0</ele><time>2026-04-18T17:48:55.188Z</time></trkpt><trkpt lat="43.9432999" lon="11.9054364"><ele>259.25</ele><time>2026-04-18T17:48:56.188Z</time></trkpt><trkpt lat="43.9434435" lon="11.9055197"><ele>259.5</ele><time>2026-04-18T17:48:57.188Z</time></trkpt><trkpt lat="43.9435639" lon="11.905592"><ele>259.75</ele><time>2026-04-18T17:48:58.187Z</time></trkpt><trkpt lat="43.9436696" lon="11.9056665"><ele>260.0</ele><time>2026-04-18T17:48:59.187Z</time></trkpt><trkpt lat="43.9437512" lon="11.9057533"><ele>260.0</ele><time>2026-04-18T17:49:00.188Z</time></trkpt><trkpt lat="43.9438027" lon="11.9058561"><ele>260.0</ele><time>2026-04-18T17:49:01.188Z</time></trkpt><trkpt lat="43.9438252" lon="11.905972"><ele>260.0</ele><time>2026-04-18T17:49:02.188Z</time></trkpt><trkpt lat="43.9438227" lon="11.9061069"><ele>260.0</ele><time>2026-04-18T17:49:03.188Z</time></trkpt><trkpt lat="43.9438056" lon="11.90623"><ele>260.0</ele><time>2026-04-18T17:49:04.188Z</time></trkpt><trkpt lat="43.9437899" lon="11.9063404"><ele>260.0</ele><time>2026-04-18T17:49:05.188Z</time></trkpt><trkpt lat="43.9437733" lon="11.9064509"><ele>259.83333333333337</ele><time>2026-04-18T17:49:06.188Z</time></trkpt><trkpt lat="43.9437568" lon="11.9065583"><ele>259.6666666666667</ele><time>2026-04-18T17:49:07.188Z</time></trkpt><trkpt lat="43.9437418" lon="11.9066603"><ele>259.5</ele><time>2026-04-18T17:49:08.187Z</time></trkpt><trkpt lat="43.9437284" lon="11.9067503"><ele>259.3333333333333</ele><time>2026-04-18T17:49:09.188Z</time></trkpt><trkpt lat="43.9437347" lon="11.9069349"><ele>259.16666666666663</ele><time>2026-04-18T17:49:11.188Z</time></trkpt><trkpt lat="43.9437886" lon="11.9070388"><ele>259.0</ele><time>2026-04-18T17:49:12.188Z</time></trkpt><trkpt lat="43.9438883" lon="11.9071515"><ele>259.0</ele><time>2026-04-18T17:49:13.188Z</time></trkpt><trkpt lat="43.9440113" lon="11.9072917"><ele>259.0</ele><time>2026-04-18T17:49:14.188Z</time></trkpt><trkpt lat="43.9441129" lon="11.9074222"><ele>259.0</ele><time>2026-04-18T17:49:15.188Z</time></trkpt><trkpt lat="43.9442132" lon="11.9075445"><ele>259.0</ele><time>2026-04-18T17:49:16.187Z</time></trkpt><trkpt lat="43.9443056" lon="11.9076571"><ele>258.5</ele><time>2026-04-18T17:49:17.188Z</time></trkpt><trkpt lat="43.9443915" lon="11.9077696"><ele>258.0</ele><time>2026-04-18T17:49:18.188Z</time></trkpt><trkpt lat="43.9444785" lon="11.9078841"><ele>257.5</ele><time>2026-04-18T17:49:19.188Z</time></trkpt><trkpt lat="43.9445714" lon="11.9079927"><ele>257.0</ele><time>2026-04-18T17:49:20.188Z</time></trkpt><trkpt lat="43.9446661" lon="11.9081056"><ele>257.0</ele><time>2026-04-18T17:49:21.188Z</time></trkpt><trkpt lat="43.9447579" lon="11.9082168"><ele>257.0</ele><time>2026-04-18T17:49:22.188Z</time></trkpt><trkpt lat="43.9448464" lon="11.9083222"><ele>257.0</ele><time>2026-04-18T17:49:23.188Z</time></trkpt><trkpt lat="43.9449294" lon="11.9084211"><ele>257.0</ele><time>2026-04-18T17:49:24.188Z</time></trkpt><trkpt lat="43.945008" lon="11.9085149"><ele>257.0</ele><time>2026-04-18T17:49:25.188Z</time></trkpt><trkpt lat="43.9450796" lon="11.9085973"><ele>257.0</ele><time>2026-04-18T17:49:26.188Z</time></trkpt><trkpt lat="43.9451476" lon="11.9086767"><ele>257.0</ele><time>2026-04-18T17:49:27.188Z</time></trkpt><trkpt lat="43.9452094" lon="11.908751"><ele>257.0</ele><time>2026-04-18T17:49:28.188Z</time></trkpt><trkpt lat="43.945271" lon="11.9088253"><ele>257.0</ele><time>2026-04-18T17:49:29.188Z</time></trkpt><trkpt lat="43.945336" lon="11.9088995"><ele>257.0</ele><time>2026-04-18T17:49:30.187Z</time></trkpt><trkpt lat="43.9453996" lon="11.9089749"><ele>257.0</ele><time>2026-04-18T17:49:31.188Z</time></trkpt><trkpt lat="43.9454665" lon="11.9090544"><ele>257.0</ele><time>2026-04-18T17:49:32.188Z</time></trkpt><trkpt lat="43.9455297" lon="11.9091315"><ele>257.0</ele><time>2026-04-18T17:49:33.188Z</time></trkpt><trkpt lat="43.9455933" lon="11.9092028"><ele>257.0</ele><time>2026-04-18T17:49:34.188Z</time></trkpt><trkpt lat="43.9456574" lon="11.9092727"><ele>257.0</ele><time>2026-04-18T17:49:35.188Z</time></trkpt><trkpt lat="43.9457105" lon="11.9093391"><ele>257.0</ele><time>2026-04-18T17:49:36.188Z</time></trkpt><trkpt lat="43.9457599" lon="11.9093965"><ele>257.2</ele><time>2026-04-18T17:49:37.188Z</time></trkpt><trkpt lat="43.9458468" lon="11.9095003"><ele>257.4</ele><time>2026-04-18T17:49:39.188Z</time></trkpt><trkpt lat="43.945932" lon="11.9095971"><ele>257.6</ele><time>2026-04-18T17:49:41.188Z</time></trkpt><trkpt lat="43.9460113" lon="11.9096875"><ele>257.8</ele><time>2026-04-18T17:49:43.188Z</time></trkpt><trkpt lat="43.9460788" lon="11.9097697"><ele>258.0</ele><time>2026-04-18T17:49:45.188Z</time></trkpt><trkpt lat="43.9461409" lon="11.9098422"><ele>258.6</ele><time>2026-04-18T17:49:47.188Z</time></trkpt><trkpt lat="43.9462272" lon="11.909941"><ele>259.20000000000005</ele><time>2026-04-18T17:49:49.188Z</time></trkpt><trkpt lat="43.946318" lon="11.9100113"><ele>259.8</ele><time>2026-04-18T17:49:51.188Z</time></trkpt><trkpt lat="43.9464018" lon="11.9100183"><ele>260.40000000000003</ele><time>2026-04-18T17:49:54.188Z</time></trkpt><trkpt lat="43.9464817" lon="11.9099909"><ele>261.0</ele><time>2026-04-18T17:50:06.188Z</time></trkpt><trkpt lat="43.9465337" lon="11.9099083"><ele>261.0</ele><time>2026-04-18T17:50:09.188Z</time></trkpt><trkpt lat="43.9466321" lon="11.9098363"><ele>261.0</ele><time>2026-04-18T17:50:11.188Z</time></trkpt><trkpt lat="43.9466847" lon="11.9097846"><ele>261.0</ele><time>2026-04-18T17:50:12.188Z</time></trkpt><trkpt lat="43.9467338" lon="11.9097232"><ele>261.0</ele><time>2026-04-18T17:50:13.188Z</time></trkpt><trkpt lat="43.9467778" lon="11.9096513"><ele>261.0</ele><time>2026-04-18T17:50:14.188Z</time></trkpt><trkpt lat="43.946818" lon="11.9095782"><ele>261.0</ele><time>2026-04-18T17:50:15.188Z</time></trkpt><trkpt lat="43.9468812" lon="11.9094636"><ele>259.8</ele><time>2026-04-18T17:50:17.188Z</time></trkpt><trkpt lat="43.9469413" lon="11.9093455"><ele>258.6</ele><time>2026-04-18T17:50:19.188Z</time></trkpt><trkpt lat="43.9470076" lon="11.9092277"><ele>257.4</ele><time>2026-04-18T17:50:21.188Z</time></trkpt><trkpt lat="43.9470684" lon="11.9091126"><ele>256.2</ele><time>2026-04-18T17:50:23.188Z</time></trkpt><trkpt lat="43.9471277" lon="11.9089944"><ele>255.0</ele><time>2026-04-18T17:50:25.188Z</time></trkpt><trkpt lat="43.9471944" lon="11.9088684"><ele>254.6</ele><time>2026-04-18T17:50:27.188Z</time></trkpt><trkpt lat="43.9472467" lon="11.9087578"><ele>254.2</ele><time>2026-04-18T17:50:29.187Z</time></trkpt><trkpt lat="43.947309" lon="11.9086317"><ele>253.8</ele><time>2026-04-18T17:50:31.188Z</time></trkpt><trkpt lat="43.9473754" lon="11.9084836"><ele>253.4</ele><time>2026-04-18T17:50:33.187Z</time></trkpt><trkpt lat="43.9474118" lon="11.9084052"><ele>253.0</ele><time>2026-04-18T17:50:34.188Z</time></trkpt><trkpt lat="43.9474468" lon="11.9083226"><ele>253.8</ele><time>2026-04-18T17:50:35.188Z</time></trkpt><trkpt lat="43.9474864" lon="11.9082251"><ele>254.60000000000002</ele><time>2026-04-18T17:50:36.188Z</time></trkpt><trkpt lat="43.9475303" lon="11.9080982"><ele>255.39999999999998</ele><time>2026-04-18T17:50:37.188Z</time></trkpt><trkpt lat="43.9475778" lon="11.9079551"><ele>256.2</ele><time>2026-04-18T17:50:38.188Z</time></trkpt><trkpt lat="43.9476328" lon="11.9078082"><ele>257.0</ele><time>2026-04-18T17:50:39.188Z</time></trkpt><trkpt lat="43.9476888" lon="11.9076614"><ele>259.4</ele><time>2026-04-18T17:50:40.188Z</time></trkpt><trkpt lat="43.9477427" lon="11.9075177"><ele>261.79999999999995</ele><time>2026-04-18T17:50:41.188Z</time></trkpt><trkpt lat="43.947797" lon="11.9073834"><ele>264.2</ele><time>2026-04-18T17:50:42.188Z</time></trkpt><trkpt lat="43.947861" lon="11.9072755"><ele>266.59999999999997</ele><time>2026-04-18T17:50:43.187Z</time></trkpt><trkpt lat="43.9479452" lon="11.9071961"><ele>269.0</ele><time>2026-04-18T17:50:44.188Z</time></trkpt><trkpt lat="43.9480518" lon="11.9071683"><ele>269.0</ele><time>2026-04-18T17:50:45.188Z</time></trkpt><trkpt lat="43.9481713" lon="11.9071869"><ele>269.0</ele><time>2026-04-18T17:50:46.187Z</time></trkpt><trkpt lat="43.9483033" lon="11.9072469"><ele>269.0</ele><time>2026-04-18T17:50:47.188Z</time></trkpt><trkpt lat="43.948429" lon="11.9073364"><ele>269.0</ele><time>2026-04-18T17:50:48.187Z</time></trkpt><trkpt lat="43.948567" lon="11.9074573"><ele>271.6666666666667</ele><time>2026-04-18T17:50:49.188Z</time></trkpt><trkpt lat="43.9487047" lon="11.9075939"><ele>274.3333333333333</ele><time>2026-04-18T17:50:50.188Z</time></trkpt><trkpt lat="43.948839" lon="11.9077397"><ele>277.0</ele><time>2026-04-18T17:50:51.188Z</time></trkpt><trkpt lat="43.9489491" lon="11.9078935"><ele>277.0</ele><time>2026-04-18T17:50:52.188Z</time></trkpt><trkpt lat="43.949033" lon="11.9080435"><ele>277.0</ele><time>2026-04-18T17:50:53.188Z</time></trkpt><trkpt lat="43.9490948" lon="11.9081973"><ele>277.0</ele><time>2026-04-18T17:50:54.188Z</time></trkpt><trkpt lat="43.949144" lon="11.9083614"><ele>277.0</ele><time>2026-04-18T17:50:55.188Z</time></trkpt><trkpt lat="43.9491828" lon="11.9085247"><ele>276.2</ele><time>2026-04-18T17:50:56.187Z</time></trkpt><trkpt lat="43.9492083" lon="11.9086839"><ele>275.4</ele><time>2026-04-18T17:50:57.188Z</time></trkpt><trkpt lat="43.9492312" lon="11.9088328"><ele>274.6</ele><time>2026-04-18T17:50:58.187Z</time></trkpt><trkpt lat="43.9492644" lon="11.9089654"><ele>273.8</ele><time>2026-04-18T17:50:59.187Z</time></trkpt><trkpt lat="43.9493169" lon="11.9090859"><ele>273.0</ele><time>2026-04-18T17:51:00.188Z</time></trkpt><trkpt lat="43.94938" lon="11.9092053"><ele>274.2</ele><time>2026-04-18T17:51:01.188Z</time></trkpt><trkpt lat="43.9494511" lon="11.9093179"><ele>275.4</ele><time>2026-04-18T17:51:02.188Z</time></trkpt><trkpt lat="43.9495245" lon="11.9094185"><ele>276.59999999999997</ele><time>2026-04-18T17:51:03.188Z</time></trkpt><trkpt lat="43.949603" lon="11.9095091"><ele>277.8</ele><time>2026-04-18T17:51:04.188Z</time></trkpt><trkpt lat="43.9496918" lon="11.909586"><ele>279.0</ele><time>2026-04-18T17:51:05.188Z</time></trkpt><trkpt lat="43.9497989" lon="11.9096487"><ele>279.0</ele><time>2026-04-18T17:51:06.188Z</time></trkpt><trkpt lat="43.949913" lon="11.909696"><ele>279.0</ele><time>2026-04-18T17:51:07.188Z</time></trkpt><trkpt lat="43.9500343" lon="11.9097324"><ele>279.0</ele><time>2026-04-18T17:51:08.188Z</time></trkpt><trkpt lat="43.9501587" lon="11.9097669"><ele>279.0</ele><time>2026-04-18T17:51:09.188Z</time></trkpt><trkpt lat="43.9502926" lon="11.9097969"><ele>278.6666666666667</ele><time>2026-04-18T17:51:10.188Z</time></trkpt><trkpt lat="43.9504543" lon="11.909828"><ele>278.33333333333337</ele><time>2026-04-18T17:51:11.188Z</time></trkpt><trkpt lat="43.9506466" lon="11.9098645"><ele>278.0</ele><time>2026-04-18T17:51:12.188Z</time></trkpt><trkpt lat="43.9508498" lon="11.9099127"><ele>277.6666666666667</ele><time>2026-04-18T17:51:13.188Z</time></trkpt><trkpt lat="43.9510611" lon="11.9099823"><ele>277.3333333333333</ele><time>2026-04-18T17:51:14.188Z</time></trkpt><trkpt lat="43.9512551" lon="11.9100481"><ele>277.0</ele><time>2026-04-18T17:51:15.188Z</time></trkpt><trkpt lat="43.9514364" lon="11.910106"><ele>276.0</ele><time>2026-04-18T17:51:16.188Z</time></trkpt><trkpt lat="43.9516065" lon="11.9101518"><ele>275.0</ele><time>2026-04-18T17:51:17.188Z</time></trkpt><trkpt lat="43.951763" lon="11.9101877"><ele>274.0</ele><time>2026-04-18T17:51:18.188Z</time></trkpt><trkpt lat="43.951895" lon="11.9102195"><ele>274.0</ele><time>2026-04-18T17:51:19.188Z</time></trkpt><trkpt lat="43.9520095" lon="11.9102498"><ele>274.0</ele><time>2026-04-18T17:51:20.188Z</time></trkpt><trkpt lat="43.9521146" lon="11.9102798"><ele>274.0</ele><time>2026-04-18T17:51:21.188Z</time></trkpt><trkpt lat="43.9522161" lon="11.9103335"><ele>274.0</ele><time>2026-04-18T17:51:22.188Z</time></trkpt><trkpt lat="43.9523209" lon="11.9104038"><ele>274.0</ele><time>2026-04-18T17:51:23.187Z</time></trkpt><trkpt lat="43.952433" lon="11.9104221"><ele>274.0</ele><time>2026-04-18T17:51:24.188Z</time></trkpt><trkpt lat="43.9525702" lon="11.9104193"><ele>274.0</ele><time>2026-04-18T17:51:25.188Z</time></trkpt><trkpt lat="43.9527438" lon="11.9104478"><ele>274.0</ele><time>2026-04-18T17:51:26.188Z</time></trkpt><trkpt lat="43.9529438" lon="11.9104998"><ele>274.0</ele><time>2026-04-18T17:51:27.188Z</time></trkpt><trkpt lat="43.9531704" lon="11.9105603"><ele>274.0</ele><time>2026-04-18T17:51:28.188Z</time></trkpt><trkpt lat="43.9534127" lon="11.9106203"><ele>273.5</ele><time>2026-04-18T17:51:29.188Z</time></trkpt><trkpt lat="43.9536395" lon="11.9106824"><ele>273.0</ele><time>2026-04-18T17:51:30.188Z</time></trkpt><trkpt lat="43.9538546" lon="11.910747"><ele>273.0</ele><time>2026-04-18T17:51:31.188Z</time></trkpt><trkpt lat="43.954064" lon="11.9108068"><ele>273.0</ele><time>2026-04-18T17:51:32.188Z</time></trkpt><trkpt lat="43.9542689" lon="11.9108617"><ele>273.0</ele><time>2026-04-18T17:51:33.188Z</time></trkpt><trkpt lat="43.9544763" lon="11.9109151"><ele>270.3333333333333</ele><time>2026-04-18T17:51:34.188Z</time></trkpt><trkpt lat="43.9546826" lon="11.910969"><ele>267.66666666666663</ele><time>2026-04-18T17:51:35.188Z</time></trkpt><trkpt lat="43.9548896" lon="11.9110256"><ele>265.0</ele><time>2026-04-18T17:51:36.188Z</time></trkpt><trkpt lat="43.9550962" lon="11.9110827"><ele>265.0</ele><time>2026-04-18T17:51:37.186Z</time></trkpt><trkpt lat="43.955302" lon="11.91114"><ele>265.0</ele><time>2026-04-18T17:51:38.188Z</time></trkpt><trkpt lat="43.9555088" lon="11.9111953"><ele>265.0</ele><time>2026-04-18T17:51:39.188Z</time></trkpt><trkpt lat="43.9557153" lon="11.9112499"><ele>265.3333333333333</ele><time>2026-04-18T17:51:40.188Z</time></trkpt><trkpt lat="43.9559211" lon="11.9113057"><ele>265.6666666666667</ele><time>2026-04-18T17:51:41.188Z</time></trkpt><trkpt lat="43.9561292" lon="11.91136"><ele>266.0</ele><time>2026-04-18T17:51:42.188Z</time></trkpt><trkpt lat="43.9563372" lon="11.9114139"><ele>266.0</ele><time>2026-04-18T17:51:43.188Z</time></trkpt><trkpt lat="43.9565451" lon="11.911468"><ele>266.0</ele><time>2026-04-18T17:51:44.187Z</time></trkpt><trkpt lat="43.9567516" lon="11.9115232"><ele>266.0</ele><time>2026-04-18T17:51:45.188Z</time></trkpt><trkpt lat="43.9569567" lon="11.9115783"><ele>266.0</ele><time>2026-04-18T17:51:46.187Z</time></trkpt><trkpt lat="43.9571578" lon="11.9116341"><ele>266.0</ele><time>2026-04-18T17:51:47.188Z</time></trkpt><trkpt lat="43.957348" lon="11.9116781"><ele>266.0</ele><time>2026-04-18T17:51:48.188Z</time></trkpt><trkpt lat="43.9575365" lon="11.911706"><ele>266.0</ele><time>2026-04-18T17:51:49.188Z</time></trkpt><trkpt lat="43.9577277" lon="11.9117159"><ele>266.0</ele><time>2026-04-18T17:51:50.187Z</time></trkpt><trkpt lat="43.9579202" lon="11.9116912"><ele>266.0</ele><time>2026-04-18T17:51:51.188Z</time></trkpt><trkpt lat="43.9581116" lon="11.9116243"><ele>266.0</ele><time>2026-04-18T17:51:52.188Z</time></trkpt><trkpt lat="43.9583011" lon="11.911537"><ele>266.0</ele><time>2026-04-18T17:51:53.187Z</time></trkpt><trkpt lat="43.9584877" lon="11.9114598"><ele>266.0</ele><time>2026-04-18T17:51:54.188Z</time></trkpt><trkpt lat="43.9586794" lon="11.9114169"><ele>264.33333333333337</ele><time>2026-04-18T17:51:55.188Z</time></trkpt><trkpt lat="43.9588739" lon="11.9114084"><ele>262.6666666666667</ele><time>2026-04-18T17:51:56.188Z</time></trkpt><trkpt lat="43.9590662" lon="11.9114199"><ele>261.0</ele><time>2026-04-18T17:51:57.188Z</time></trkpt><trkpt lat="43.9592553" lon="11.9114415"><ele>260.0</ele><time>2026-04-18T17:51:58.188Z</time></trkpt><trkpt lat="43.9594354" lon="11.9114708"><ele>259.0</ele><time>2026-04-18T17:51:59.188Z</time></trkpt><trkpt lat="43.9596156" lon="11.9114905"><ele>258.0</ele><time>2026-04-18T17:52:00.188Z</time></trkpt><trkpt lat="43.9597983" lon="11.9114839"><ele>258.0</ele><time>2026-04-18T17:52:01.188Z</time></trkpt><trkpt lat="43.9599752" lon="11.911445"><ele>258.0</ele><time>2026-04-18T17:52:02.188Z</time></trkpt><trkpt lat="43.9601359" lon="11.9113684"><ele>258.0</ele><time>2026-04-18T17:52:03.188Z</time></trkpt><trkpt lat="43.960289" lon="11.911245"><ele>258.6666666666667</ele><time>2026-04-18T17:52:04.188Z</time></trkpt><trkpt lat="43.9604371" lon="11.9110818"><ele>259.33333333333337</ele><time>2026-04-18T17:52:05.188Z</time></trkpt><trkpt lat="43.9605862" lon="11.910901"><ele>260.0</ele><time>2026-04-18T17:52:06.188Z</time></trkpt><trkpt lat="43.9607408" lon="11.9107084"><ele>256.0</ele><time>2026-04-18T17:52:07.188Z</time></trkpt><trkpt lat="43.9609111" lon="11.9105045"><ele>252.0</ele><time>2026-04-18T17:52:08.188Z</time></trkpt><trkpt lat="43.9610897" lon="11.9102877"><ele>256.0</ele><time>2026-04-18T17:52:09.188Z</time></trkpt><trkpt lat="43.9612673" lon="11.910059"><ele>260.0</ele><time>2026-04-18T17:52:10.188Z</time></trkpt><trkpt lat="43.961445" lon="11.9098211"><ele>260.0</ele><time>2026-04-18T17:52:11.188Z</time></trkpt><trkpt lat="43.9616211" lon="11.9095861"><ele>260.0</ele><time>2026-04-18T17:52:12.188Z</time></trkpt><trkpt lat="43.9618029" lon="11.9093695"><ele>262.5</ele><time>2026-04-18T17:52:13.188Z</time></trkpt><trkpt lat="43.9619941" lon="11.9091821"><ele>265.0</ele><time>2026-04-18T17:52:14.188Z</time></trkpt><trkpt lat="43.9621936" lon="11.9090281"><ele>265.0</ele><time>2026-04-18T17:52:15.188Z</time></trkpt><trkpt lat="43.9623936" lon="11.9089097"><ele>265.0</ele><time>2026-04-18T17:52:16.188Z</time></trkpt><trkpt lat="43.9625853" lon="11.9088249"><ele>265.0</ele><time>2026-04-18T17:52:17.188Z</time></trkpt><trkpt lat="43.9627701" lon="11.9087785"><ele>263.3333333333333</ele><time>2026-04-18T17:52:18.188Z</time></trkpt><trkpt lat="43.9629578" lon="11.9087888"><ele>261.6666666666667</ele><time>2026-04-18T17:52:19.188Z</time></trkpt><trkpt lat="43.9631427" lon="11.9088514"><ele>260.0</ele><time>2026-04-18T17:52:20.187Z</time></trkpt><trkpt lat="43.9633319" lon="11.9089324"><ele>259.33333333333337</ele><time>2026-04-18T17:52:21.188Z</time></trkpt><trkpt lat="43.9635318" lon="11.9090021"><ele>258.6666666666667</ele><time>2026-04-18T17:52:22.188Z</time></trkpt><trkpt lat="43.9637437" lon="11.9090463"><ele>258.0</ele><time>2026-04-18T17:52:23.188Z</time></trkpt><trkpt lat="43.963972" lon="11.9090562"><ele>259.0</ele><time>2026-04-18T17:52:24.188Z</time></trkpt><trkpt lat="43.9642026" lon="11.9090418"><ele>260.0</ele><time>2026-04-18T17:52:25.188Z</time></trkpt><trkpt lat="43.9644333" lon="11.909043"><ele>260.0</ele><time>2026-04-18T17:52:26.188Z</time></trkpt><trkpt lat="43.9646688" lon="11.9090848"><ele>260.0</ele><time>2026-04-18T17:52:27.188Z</time></trkpt><trkpt lat="43.9649081" lon="11.9091536"><ele>256.0</ele><time>2026-04-18T17:52:28.188Z</time></trkpt><trkpt lat="43.9651464" lon="11.9092294"><ele>252.0</ele><time>2026-04-18T17:52:29.188Z</time></trkpt><trkpt lat="43.965373" lon="11.9092949"><ele>252.0</ele><time>2026-04-18T17:52:30.187Z</time></trkpt><trkpt lat="43.965586" lon="11.9093535"><ele>252.0</ele><time>2026-04-18T17:52:31.187Z</time></trkpt><trkpt lat="43.9657714" lon="11.9094022"><ele>252.0</ele><time>2026-04-18T17:52:32.187Z</time></trkpt><trkpt lat="43.9659368" lon="11.9094387"><ele>254.33333333333331</ele><time>2026-04-18T17:52:33.188Z</time></trkpt><trkpt lat="43.966096" lon="11.9094475"><ele>256.66666666666663</ele><time>2026-04-18T17:52:34.188Z</time></trkpt><trkpt lat="43.9662508" lon="11.9094096"><ele>259.0</ele><time>2026-04-18T17:52:35.188Z</time></trkpt><trkpt lat="43.9664113" lon="11.9093151"><ele>259.0</ele><time>2026-04-18T17:52:36.188Z</time></trkpt><trkpt lat="43.9665811" lon="11.9091823"><ele>259.0</ele><time>2026-04-18T17:52:37.188Z</time></trkpt><trkpt lat="43.9667629" lon="11.9090331"><ele>259.0</ele><time>2026-04-18T17:52:38.187Z</time></trkpt><trkpt lat="43.9669528" lon="11.9088731"><ele>259.0</ele><time>2026-04-18T17:52:39.188Z</time></trkpt><trkpt lat="43.9671398" lon="11.9087078"><ele>259.0</ele><time>2026-04-18T17:52:40.188Z</time></trkpt><trkpt lat="43.9673298" lon="11.9085401"><ele>259.0</ele><time>2026-04-18T17:52:41.187Z</time></trkpt><trkpt lat="43.9675183" lon="11.9083803"><ele>261.3333333333333</ele><time>2026-04-18T17:52:42.187Z</time></trkpt><trkpt lat="43.9676989" lon="11.9082414"><ele>263.6666666666667</ele><time>2026-04-18T17:52:43.188Z</time></trkpt><trkpt lat="43.9678848" lon="11.9081613"><ele>266.0</ele><time>2026-04-18T17:52:44.188Z</time></trkpt><trkpt lat="43.9680751" lon="11.9081517"><ele>266.0</ele><time>2026-04-18T17:52:45.188Z</time></trkpt><trkpt lat="43.9682717" lon="11.9081561"><ele>266.0</ele><time>2026-04-18T17:52:46.187Z</time></trkpt><trkpt lat="43.9684796" lon="11.9081066"><ele>266.0</ele><time>2026-04-18T17:52:47.188Z</time></trkpt><trkpt lat="43.9687" lon="11.9080239"><ele>262.5</ele><time>2026-04-18T17:52:48.188Z</time></trkpt><trkpt lat="43.968925" lon="11.9079346"><ele>259.0</ele><time>2026-04-18T17:52:49.188Z</time></trkpt><trkpt lat="43.9691504" lon="11.9078467"><ele>259.3333333333333</ele><time>2026-04-18T17:52:50.188Z</time></trkpt><trkpt lat="43.9693689" lon="11.9077533"><ele>259.6666666666667</ele><time>2026-04-18T17:52:51.188Z</time></trkpt><trkpt lat="43.9695731" lon="11.9076466"><ele>260.0</ele><time>2026-04-18T17:52:52.188Z</time></trkpt><trkpt lat="43.9697669" lon="11.9075136"><ele>260.0</ele><time>2026-04-18T17:52:53.187Z</time></trkpt><trkpt lat="43.9699628" lon="11.9073796"><ele>260.0</ele><time>2026-04-18T17:52:54.188Z</time></trkpt><trkpt lat="43.9701743" lon="11.9072801"><ele>260.0</ele><time>2026-04-18T17:52:55.187Z</time></trkpt><trkpt lat="43.9703846" lon="11.9071995"><ele>258.0</ele><time>2026-04-18T17:52:56.188Z</time></trkpt><trkpt lat="43.9705988" lon="11.9071331"><ele>256.0</ele><time>2026-04-18T17:52:57.188Z</time></trkpt><trkpt lat="43.9708172" lon="11.9071065"><ele>254.0</ele><time>2026-04-18T17:52:58.188Z</time></trkpt><trkpt lat="43.9710375" lon="11.9071062"><ele>252.33333333333334</ele><time>2026-04-18T17:52:59.188Z</time></trkpt><trkpt lat="43.97125" lon="11.9071111"><ele>250.66666666666669</ele><time>2026-04-18T17:53:00.188Z</time></trkpt><trkpt lat="43.9714488" lon="11.9071063"><ele>249.0</ele><time>2026-04-18T17:53:01.188Z</time></trkpt><trkpt lat="43.9716372" lon="11.9070687"><ele>247.33333333333331</ele><time>2026-04-18T17:53:02.188Z</time></trkpt><trkpt lat="43.9718237" lon="11.906986"><ele>245.66666666666666</ele><time>2026-04-18T17:53:03.188Z</time></trkpt><trkpt lat="43.9720074" lon="11.9068531"><ele>244.0</ele><time>2026-04-18T17:53:04.188Z</time></trkpt><trkpt lat="43.9721923" lon="11.9066871"><ele>244.33333333333331</ele><time>2026-04-18T17:53:05.188Z</time></trkpt><trkpt lat="43.9723701" lon="11.9065095"><ele>244.66666666666669</ele><time>2026-04-18T17:53:06.188Z</time></trkpt><trkpt lat="43.9725542" lon="11.9063196"><ele>245.0</ele><time>2026-04-18T17:53:07.188Z</time></trkpt><trkpt lat="43.9727397" lon="11.9061242"><ele>245.0</ele><time>2026-04-18T17:53:08.188Z</time></trkpt><trkpt lat="43.9729272" lon="11.905934"><ele>245.0</ele><time>2026-04-18T17:53:09.188Z</time></trkpt><trkpt lat="43.9731296" lon="11.9057491"><ele>249.0</ele><time>2026-04-18T17:53:10.188Z</time></trkpt><trkpt lat="43.973355" lon="11.9055813"><ele>253.0</ele><time>2026-04-18T17:53:11.188Z</time></trkpt><trkpt lat="43.9735974" lon="11.9054239"><ele>253.0</ele><time>2026-04-18T17:53:12.188Z</time></trkpt><trkpt lat="43.9738478" lon="11.9052685"><ele>253.0</ele><time>2026-04-18T17:53:13.188Z</time></trkpt><trkpt lat="43.9740937" lon="11.9051127"><ele>258.0</ele><time>2026-04-18T17:53:14.188Z</time></trkpt><trkpt lat="43.974336" lon="11.9049641"><ele>263.0</ele><time>2026-04-18T17:53:15.188Z</time></trkpt><trkpt lat="43.9745789" lon="11.904828"><ele>263.0</ele><time>2026-04-18T17:53:16.188Z</time></trkpt><trkpt lat="43.9748297" lon="11.9047114"><ele>263.0</ele><time>2026-04-18T17:53:17.187Z</time></trkpt><trkpt lat="43.9750833" lon="11.904613"><ele>262.0</ele><time>2026-04-18T17:53:18.188Z</time></trkpt><trkpt lat="43.9753383" lon="11.9045334"><ele>261.0</ele><time>2026-04-18T17:53:19.188Z</time></trkpt><trkpt lat="43.9756007" lon="11.9044604"><ele>261.0</ele><time>2026-04-18T17:53:20.187Z</time></trkpt><trkpt lat="43.9758598" lon="11.9043863"><ele>261.0</ele><time>2026-04-18T17:53:21.188Z</time></trkpt><trkpt lat="43.9761219" lon="11.9043116"><ele>264.5</ele><time>2026-04-18T17:53:22.188Z</time></trkpt><trkpt lat="43.9763845" lon="11.9042371"><ele>268.0</ele><time>2026-04-18T17:53:23.188Z</time></trkpt><trkpt lat="43.9766451" lon="11.9041624"><ele>267.5</ele><time>2026-04-18T17:53:24.188Z</time></trkpt><trkpt lat="43.9769035" lon="11.9040874"><ele>267.0</ele><time>2026-04-18T17:53:25.188Z</time></trkpt><trkpt lat="43.9771604" lon="11.9040111"><ele>267.0</ele><time>2026-04-18T17:53:26.188Z</time></trkpt><trkpt lat="43.9774158" lon="11.903936"><ele>267.0</ele><time>2026-04-18T17:53:27.188Z</time></trkpt><trkpt lat="43.9776671" lon="11.9038639"><ele>267.5</ele><time>2026-04-18T17:53:28.188Z</time></trkpt><trkpt lat="43.9779006" lon="11.903801"><ele>268.0</ele><time>2026-04-18T17:53:29.188Z</time></trkpt><trkpt lat="43.9781188" lon="11.9037498"><ele>268.0</ele><time>2026-04-18T17:53:30.188Z</time></trkpt><trkpt lat="43.9783229" lon="11.9037301"><ele>268.0</ele><time>2026-04-18T17:53:31.188Z</time></trkpt><trkpt lat="43.9785149" lon="11.903767"><ele>268.0</ele><time>2026-04-18T17:53:32.188Z</time></trkpt><trkpt lat="43.9787015" lon="11.9038634"><ele>269.66666666666663</ele><time>2026-04-18T17:53:33.188Z</time></trkpt><trkpt lat="43.9788818" lon="11.9039831"><ele>271.3333333333333</ele><time>2026-04-18T17:53:34.188Z</time></trkpt><trkpt lat="43.9790518" lon="11.9040842"><ele>273.0</ele><time>2026-04-18T17:53:35.188Z</time></trkpt><trkpt lat="43.9792173" lon="11.904175"><ele>267.3333333333333</ele><time>2026-04-18T17:53:36.188Z</time></trkpt><trkpt lat="43.979389" lon="11.9042477"><ele>261.66666666666663</ele><time>2026-04-18T17:53:37.187Z</time></trkpt><trkpt lat="43.9795691" lon="11.9042876"><ele>256.0</ele><time>2026-04-18T17:53:38.187Z</time></trkpt><trkpt lat="43.9797546" lon="11.9043115"><ele>256.0</ele><time>2026-04-18T17:53:39.188Z</time></trkpt><trkpt lat="43.9799364" lon="11.9043255"><ele>256.0</ele><time>2026-04-18T17:53:40.188Z</time></trkpt><trkpt lat="43.9801023" lon="11.9043141"><ele>256.0</ele><time>2026-04-18T17:53:41.188Z</time></trkpt><trkpt lat="43.9802541" lon="11.904273"><ele>262.66666666666663</ele><time>2026-04-18T17:53:42.188Z</time></trkpt><trkpt lat="43.9803958" lon="11.9041882"><ele>269.3333333333333</ele><time>2026-04-18T17:53:43.188Z</time></trkpt><trkpt lat="43.9805264" lon="11.904074"><ele>276.0</ele><time>2026-04-18T17:53:44.187Z</time></trkpt><trkpt lat="43.9806467" lon="11.9039714"><ele>276.0</ele><time>2026-04-18T17:53:45.188Z</time></trkpt><trkpt lat="43.9807664" lon="11.9038998"><ele>276.0</ele><time>2026-04-18T17:53:46.188Z</time></trkpt><trkpt lat="43.9808928" lon="11.9038693"><ele>276.0</ele><time>2026-04-18T17:53:47.188Z</time></trkpt><trkpt lat="43.9810281" lon="11.9038747"><ele>276.0</ele><time>2026-04-18T17:53:48.188Z</time></trkpt><trkpt lat="43.9811653" lon="11.9039117"><ele>277.0</ele><time>2026-04-18T17:53:49.187Z</time></trkpt><trkpt lat="43.9813144" lon="11.9039645"><ele>278.0</ele><time>2026-04-18T17:53:50.187Z</time></trkpt><trkpt lat="43.9814711" lon="11.9040211"><ele>279.0</ele><time>2026-04-18T17:53:51.188Z</time></trkpt><trkpt lat="43.9816295" lon="11.9040882"><ele>275.6666666666667</ele><time>2026-04-18T17:53:52.188Z</time></trkpt><trkpt lat="43.9817914" lon="11.9041845"><ele>272.33333333333337</ele><time>2026-04-18T17:53:53.188Z</time></trkpt><trkpt lat="43.9819597" lon="11.9043055"><ele>269.0</ele><time>2026-04-18T17:53:54.188Z</time></trkpt><trkpt lat="43.9821238" lon="11.9044292"><ele>269.0</ele><time>2026-04-18T17:53:55.188Z</time></trkpt><trkpt lat="43.9823105" lon="11.9045576"><ele>269.0</ele><time>2026-04-18T17:53:56.188Z</time></trkpt><trkpt lat="43.9825044" lon="11.9046976"><ele>269.0</ele><time>2026-04-18T17:53:57.188Z</time></trkpt><trkpt lat="43.9826788" lon="11.9048365"><ele>266.0</ele><time>2026-04-18T17:53:58.188Z</time></trkpt><trkpt lat="43.982855" lon="11.9049726"><ele>263.0</ele><time>2026-04-18T17:53:59.188Z</time></trkpt><trkpt lat="43.9829994" lon="11.9051067"><ele>260.0</ele><time>2026-04-18T17:54:00.188Z</time></trkpt><trkpt lat="43.983112" lon="11.9052375"><ele>260.0</ele><time>2026-04-18T17:54:01.188Z</time></trkpt><trkpt lat="43.9832139" lon="11.9053724"><ele>260.0</ele><time>2026-04-18T17:54:02.188Z</time></trkpt><trkpt lat="43.9833087" lon="11.905507"><ele>260.0</ele><time>2026-04-18T17:54:03.188Z</time></trkpt><trkpt lat="43.9834115" lon="11.905645"><ele>260.0</ele><time>2026-04-18T17:54:04.187Z</time></trkpt><trkpt lat="43.9835176" lon="11.9057714"><ele>260.0</ele><time>2026-04-18T17:54:05.188Z</time></trkpt><trkpt lat="43.9836295" lon="11.9058867"><ele>260.0</ele><time>2026-04-18T17:54:06.188Z</time></trkpt><trkpt lat="43.9837487" lon="11.905986"><ele>260.0</ele><time>2026-04-18T17:54:07.188Z</time></trkpt><trkpt lat="43.9838765" lon="11.9060602"><ele>260.0</ele><time>2026-04-18T17:54:08.188Z</time></trkpt><trkpt lat="43.984012" lon="11.9061106"><ele>260.0</ele><time>2026-04-18T17:54:09.188Z</time></trkpt><trkpt lat="43.9841693" lon="11.9061412"><ele>260.0</ele><time>2026-04-18T17:54:10.188Z</time></trkpt><trkpt lat="43.9843609" lon="11.9061659"><ele>260.0</ele><time>2026-04-18T17:54:11.188Z</time></trkpt><trkpt lat="43.98456" lon="11.9062057"><ele>260.5</ele><time>2026-04-18T17:54:12.188Z</time></trkpt><trkpt lat="43.98478" lon="11.9062595"><ele>261.0</ele><time>2026-04-18T17:54:13.188Z</time></trkpt><trkpt lat="43.985003" lon="11.9063129"><ele>262.0</ele><time>2026-04-18T17:54:14.188Z</time></trkpt><trkpt lat="43.9852353" lon="11.906361"><ele>263.0</ele><time>2026-04-18T17:54:15.188Z</time></trkpt><trkpt lat="43.98547" lon="11.9064092"><ele>263.0</ele><time>2026-04-18T17:54:16.188Z</time></trkpt><trkpt lat="43.985704" lon="11.9064508"><ele>263.0</ele><time>2026-04-18T17:54:17.188Z</time></trkpt><trkpt lat="43.9859275" lon="11.9064856"><ele>262.0</ele><time>2026-04-18T17:54:18.188Z</time></trkpt><trkpt lat="43.986139" lon="11.906518"><ele>261.0</ele><time>2026-04-18T17:54:19.188Z</time></trkpt><trkpt lat="43.98634" lon="11.9065419"><ele>260.0</ele><time>2026-04-18T17:54:20.188Z</time></trkpt><trkpt lat="43.9865186" lon="11.9065672"><ele>260.33333333333337</ele><time>2026-04-18T17:54:21.188Z</time></trkpt><trkpt lat="43.9866869" lon="11.9066136"><ele>260.6666666666667</ele><time>2026-04-18T17:54:22.188Z</time></trkpt><trkpt lat="43.9868463" lon="11.906691"><ele>261.0</ele><time>2026-04-18T17:54:23.187Z</time></trkpt><trkpt lat="43.9869952" lon="11.9067783"><ele>259.5</ele><time>2026-04-18T17:54:24.188Z</time></trkpt><trkpt lat="43.9871206" lon="11.9068585"><ele>258.0</ele><time>2026-04-18T17:54:25.188Z</time></trkpt><trkpt lat="43.9872233" lon="11.9069411"><ele>256.5</ele><time>2026-04-18T17:54:26.188Z</time></trkpt><trkpt lat="43.9873148" lon="11.9070139"><ele>255.0</ele><time>2026-04-18T17:54:27.188Z</time></trkpt><trkpt lat="43.9874046" lon="11.9070362"><ele>255.0</ele><time>2026-04-18T17:54:28.187Z</time></trkpt><trkpt lat="43.987501" lon="11.9070097"><ele>255.0</ele><time>2026-04-18T17:54:29.187Z</time></trkpt><trkpt lat="43.9876071" lon="11.9069379"><ele>255.0</ele><time>2026-04-18T17:54:30.188Z</time></trkpt><trkpt lat="43.9877213" lon="11.9068585"><ele>255.0</ele><time>2026-04-18T17:54:31.188Z</time></trkpt><trkpt lat="43.9878704" lon="11.9067999"><ele>255.0</ele><time>2026-04-18T17:54:32.188Z</time></trkpt><trkpt lat="43.9880509" lon="11.9067711"><ele>255.0</ele><time>2026-04-18T17:54:33.188Z</time></trkpt><trkpt lat="43.9882445" lon="11.9067767"><ele>255.0</ele><time>2026-04-18T17:54:34.188Z</time></trkpt><trkpt lat="43.9884634" lon="11.9068097"><ele>254.0</ele><time>2026-04-18T17:54:35.187Z</time></trkpt><trkpt lat="43.9886965" lon="11.9068452"><ele>253.0</ele><time>2026-04-18T17:54:36.188Z</time></trkpt><trkpt lat="43.988929" lon="11.906878"><ele>253.0</ele><time>2026-04-18T17:54:37.188Z</time></trkpt><trkpt lat="43.9891668" lon="11.9069056"><ele>253.0</ele><time>2026-04-18T17:54:38.188Z</time></trkpt><trkpt lat="43.9894016" lon="11.9069307"><ele>254.0</ele><time>2026-04-18T17:54:39.188Z</time></trkpt><trkpt lat="43.9896334" lon="11.906949"><ele>255.0</ele><time>2026-04-18T17:54:40.188Z</time></trkpt><trkpt lat="43.9898609" lon="11.9069582"><ele>253.66666666666669</ele><time>2026-04-18T17:54:41.188Z</time></trkpt><trkpt lat="43.9900854" lon="11.9069596"><ele>252.33333333333334</ele><time>2026-04-18T17:54:42.188Z</time></trkpt><trkpt lat="43.9903095" lon="11.9069591"><ele>251.0</ele><time>2026-04-18T17:54:43.188Z</time></trkpt><trkpt lat="43.990533" lon="11.9069577"><ele>251.0</ele><time>2026-04-18T17:54:44.188Z</time></trkpt><trkpt lat="43.9907573" lon="11.9069585"><ele>251.0</ele><time>2026-04-18T17:54:45.188Z</time></trkpt><trkpt lat="43.9909745" lon="11.9069578"><ele>251.0</ele><time>2026-04-18T17:54:46.188Z</time></trkpt><trkpt lat="43.9911794" lon="11.906957"><ele>250.0</ele><time>2026-04-18T17:54:47.188Z</time></trkpt><trkpt lat="43.9913814" lon="11.906962"><ele>249.0</ele><time>2026-04-18T17:54:48.187Z</time></trkpt><trkpt lat="43.9915817" lon="11.9069871"><ele>248.0</ele><time>2026-04-18T17:54:49.188Z</time></trkpt><trkpt lat="43.991788" lon="11.9070455"><ele>248.0</ele><time>2026-04-18T17:54:50.188Z</time></trkpt><trkpt lat="43.9920049" lon="11.9071298"><ele>248.0</ele><time>2026-04-18T17:54:51.188Z</time></trkpt><trkpt lat="43.9922262" lon="11.9072314"><ele>248.0</ele><time>2026-04-18T17:54:52.188Z</time></trkpt><trkpt lat="43.9924455" lon="11.9073444"><ele>248.0</ele><time>2026-04-18T17:54:53.188Z</time></trkpt><trkpt lat="43.9926652" lon="11.9074596"><ele>249.0</ele><time>2026-04-18T17:54:54.188Z</time></trkpt><trkpt lat="43.9928832" lon="11.9075766"><ele>250.0</ele><time>2026-04-18T17:54:55.187Z</time></trkpt><trkpt lat="43.9930985" lon="11.907693"><ele>247.33333333333331</ele><time>2026-04-18T17:54:56.188Z</time></trkpt><trkpt lat="43.9933029" lon="11.9078023"><ele>244.66666666666669</ele><time>2026-04-18T17:54:57.188Z</time></trkpt><trkpt lat="43.9934957" lon="11.9079059"><ele>242.0</ele><time>2026-04-18T17:54:58.188Z</time></trkpt><trkpt lat="43.9936774" lon="11.9080047"><ele>242.0</ele><time>2026-04-18T17:54:59.188Z</time></trkpt><trkpt lat="43.9938532" lon="11.9081025"><ele>242.0</ele><time>2026-04-18T17:55:00.188Z</time></trkpt><trkpt lat="43.9940198" lon="11.9081922"><ele>242.0</ele><time>2026-04-18T17:55:01.188Z</time></trkpt><trkpt lat="43.9941788" lon="11.9082875"><ele>241.66666666666669</ele><time>2026-04-18T17:55:02.187Z</time></trkpt><trkpt lat="43.9943325" lon="11.9083899"><ele>241.33333333333331</ele><time>2026-04-18T17:55:03.187Z</time></trkpt><trkpt lat="43.9944824" lon="11.9085004"><ele>241.0</ele><time>2026-04-18T17:55:04.188Z</time></trkpt><trkpt lat="43.9946275" lon="11.9086146"><ele>240.66666666666666</ele><time>2026-04-18T17:55:05.188Z</time></trkpt><trkpt lat="43.9947672" lon="11.9087294"><ele>240.33333333333331</ele><time>2026-04-18T17:55:06.188Z</time></trkpt><trkpt lat="43.9949015" lon="11.9088438"><ele>240.0</ele><time>2026-04-18T17:55:07.188Z</time></trkpt><trkpt lat="43.9950326" lon="11.908961"><ele>240.0</ele><time>2026-04-18T17:55:08.188Z</time></trkpt><trkpt lat="43.9951606" lon="11.9090752"><ele>240.0</ele><time>2026-04-18T17:55:09.188Z</time></trkpt><trkpt lat="43.9952867" lon="11.9091889"><ele>240.0</ele><time>2026-04-18T17:55:10.188Z</time></trkpt><trkpt lat="43.9954135" lon="11.909307"><ele>239.0</ele><time>2026-04-18T17:55:11.188Z</time></trkpt><trkpt lat="43.9955401" lon="11.9094257"><ele>238.0</ele><time>2026-04-18T17:55:12.188Z</time></trkpt><trkpt lat="43.9956716" lon="11.9095474"><ele>237.0</ele><time>2026-04-18T17:55:13.188Z</time></trkpt><trkpt lat="43.9958058" lon="11.9096642"><ele>237.33333333333331</ele><time>2026-04-18T17:55:14.188Z</time></trkpt><trkpt lat="43.9959412" lon="11.9097823"><ele>237.66666666666666</ele><time>2026-04-18T17:55:15.188Z</time></trkpt><trkpt lat="43.9960707" lon="11.9098942"><ele>238.0</ele><time>2026-04-18T17:55:16.188Z</time></trkpt><trkpt lat="43.9961927" lon="11.9100028"><ele>237.5</ele><time>2026-04-18T17:55:17.188Z</time></trkpt><trkpt lat="43.9963113" lon="11.9101076"><ele>237.0</ele><time>2026-04-18T17:55:18.188Z</time></trkpt><trkpt lat="43.9964236" lon="11.9102072"><ele>236.5</ele><time>2026-04-18T17:55:19.188Z</time></trkpt><trkpt lat="43.9965266" lon="11.9103004"><ele>236.0</ele><time>2026-04-18T17:55:20.188Z</time></trkpt><trkpt lat="43.9966082" lon="11.910378"><ele>235.8</ele><time>2026-04-18T17:55:21.188Z</time></trkpt><trkpt lat="43.9966845" lon="11.9104682"><ele>235.60000000000002</ele><time>2026-04-18T17:55:22.188Z</time></trkpt><trkpt lat="43.996731" lon="11.9105713"><ele>235.4</ele><time>2026-04-18T17:55:23.188Z</time></trkpt><trkpt lat="43.9967509" lon="11.9106986"><ele>235.2</ele><time>2026-04-18T17:55:24.187Z</time></trkpt><trkpt lat="43.9967574" lon="11.910839"><ele>235.0</ele><time>2026-04-18T17:55:25.187Z</time></trkpt><trkpt lat="43.996743" lon="11.9109845"><ele>235.0</ele><time>2026-04-18T17:55:26.188Z</time></trkpt><trkpt lat="43.9967287" lon="11.911129"><ele>235.0</ele><time>2026-04-18T17:55:27.187Z</time></trkpt><trkpt lat="43.9967127" lon="11.9112708"><ele>235.0</ele><time>2026-04-18T17:55:28.187Z</time></trkpt><trkpt lat="43.9966954" lon="11.911404"><ele>235.0</ele><time>2026-04-18T17:55:29.188Z</time></trkpt><trkpt lat="43.9966774" lon="11.9115208"><ele>235.0</ele><time>2026-04-18T17:55:30.188Z</time></trkpt><trkpt lat="43.9966637" lon="11.9116291"><ele>234.8</ele><time>2026-04-18T17:55:31.188Z</time></trkpt><trkpt lat="43.9966535" lon="11.9117316"><ele>234.6</ele><time>2026-04-18T17:55:32.188Z</time></trkpt><trkpt lat="43.9966497" lon="11.9118285"><ele>234.39999999999998</ele><time>2026-04-18T17:55:33.187Z</time></trkpt><trkpt lat="43.9966355" lon="11.911945"><ele>234.2</ele><time>2026-04-18T17:55:34.188Z</time></trkpt><trkpt lat="43.9966067" lon="11.9121065"><ele>234.0</ele><time>2026-04-18T17:55:35.188Z</time></trkpt><trkpt lat="43.996582" lon="11.9122907"><ele>233.75</ele><time>2026-04-18T17:55:36.188Z</time></trkpt><trkpt lat="43.9965636" lon="11.9124834"><ele>233.5</ele><time>2026-04-18T17:55:37.188Z</time></trkpt><trkpt lat="43.9965558" lon="11.9126555"><ele>233.25</ele><time>2026-04-18T17:55:38.188Z</time></trkpt><trkpt lat="43.9965631" lon="11.9128126"><ele>233.0</ele><time>2026-04-18T17:55:39.188Z</time></trkpt><trkpt lat="43.9965943" lon="11.9129504"><ele>232.0</ele><time>2026-04-18T17:55:40.188Z</time></trkpt><trkpt lat="43.9966537" lon="11.9130664"><ele>231.0</ele><time>2026-04-18T17:55:41.188Z</time></trkpt><trkpt lat="43.9967449" lon="11.91315"><ele>230.0</ele><time>2026-04-18T17:55:42.188Z</time></trkpt><trkpt lat="43.9968555" lon="11.9131946"><ele>229.0</ele><time>2026-04-18T17:55:43.187Z</time></trkpt><trkpt lat="43.9969757" lon="11.9132199"><ele>228.0</ele><time>2026-04-18T17:55:44.188Z</time></trkpt><trkpt lat="43.9971136" lon="11.9132458"><ele>228.0</ele><time>2026-04-18T17:55:45.188Z</time></trkpt><trkpt lat="43.997255" lon="11.9132777"><ele>228.0</ele><time>2026-04-18T17:55:46.188Z</time></trkpt><trkpt lat="43.9974037" lon="11.9133144"><ele>228.0</ele><time>2026-04-18T17:55:47.188Z</time></trkpt><trkpt lat="43.9975556" lon="11.9133523"><ele>228.0</ele><time>2026-04-18T17:55:48.188Z</time></trkpt><trkpt lat="43.9977114" lon="11.9133899"><ele>225.33333333333331</ele><time>2026-04-18T17:55:49.188Z</time></trkpt><trkpt lat="43.9978714" lon="11.9134262"><ele>222.66666666666666</ele><time>2026-04-18T17:55:50.188Z</time></trkpt><trkpt lat="43.9980338" lon="11.9134628"><ele>220.0</ele><time>2026-04-18T17:55:51.188Z</time></trkpt><trkpt lat="43.9981972" lon="11.9135001"><ele>219.0</ele><time>2026-04-18T17:55:52.188Z</time></trkpt><trkpt lat="43.9983626" lon="11.9135377"><ele>218.0</ele><time>2026-04-18T17:55:53.188Z</time></trkpt><trkpt lat="43.998528" lon="11.9135809"><ele>217.0</ele><time>2026-04-18T17:55:54.188Z</time></trkpt><trkpt lat="43.9986951" lon="11.9136215"><ele>217.0</ele><time>2026-04-18T17:55:55.188Z</time></trkpt><trkpt lat="43.998864" lon="11.9136576"><ele>217.0</ele><time>2026-04-18T17:55:56.188Z</time></trkpt><trkpt lat="43.9990362" lon="11.9136933"><ele>217.0</ele><time>2026-04-18T17:55:57.188Z</time></trkpt><trkpt lat="43.9992087" lon="11.9137331"><ele>215.33333333333331</ele><time>2026-04-18T17:55:58.187Z</time></trkpt><trkpt lat="43.9993839" lon="11.9137743"><ele>213.66666666666669</ele><time>2026-04-18T17:55:59.188Z</time></trkpt><trkpt lat="43.999558" lon="11.9138151"><ele>212.0</ele><time>2026-04-18T17:56:00.188Z</time></trkpt><trkpt lat="43.9997256" lon="11.9138529"><ele>212.0</ele><time>2026-04-18T17:56:01.188Z</time></trkpt><trkpt lat="43.9998855" lon="11.913888"><ele>212.0</ele><time>2026-04-18T17:56:02.188Z</time></trkpt><trkpt lat="44.00004" lon="11.9139205"><ele>212.0</ele><time>2026-04-18T17:56:03.187Z</time></trkpt><trkpt lat="44.000194" lon="11.9139548"><ele>212.0</ele><time>2026-04-18T17:56:04.188Z</time></trkpt><trkpt lat="44.0003516" lon="11.9139955"><ele>212.0</ele><time>2026-04-18T17:56:05.188Z</time></trkpt><trkpt lat="44.0005143" lon="11.9140645"><ele>212.0</ele><time>2026-04-18T17:56:06.188Z</time></trkpt><trkpt lat="44.0006821" lon="11.9141777"><ele>208.0</ele><time>2026-04-18T17:56:07.188Z</time></trkpt><trkpt lat="44.0008578" lon="11.9143273"><ele>204.0</ele><time>2026-04-18T17:56:08.188Z</time></trkpt><trkpt lat="44.001033" lon="11.9144908"><ele>200.0</ele><time>2026-04-18T17:56:09.188Z</time></trkpt><trkpt lat="44.0012119" lon="11.914658"><ele>200.0</ele><time>2026-04-18T17:56:10.188Z</time></trkpt><trkpt lat="44.0013926" lon="11.9148267"><ele>200.0</ele><time>2026-04-18T17:56:11.188Z</time></trkpt><trkpt lat="44.001572" lon="11.9150127"><ele>200.0</ele><time>2026-04-18T17:56:12.188Z</time></trkpt><trkpt lat="44.0017428" lon="11.9152201"><ele>204.0</ele><time>2026-04-18T17:56:13.188Z</time></trkpt><trkpt lat="44.0019042" lon="11.9154547"><ele>208.0</ele><time>2026-04-18T17:56:14.187Z</time></trkpt><trkpt lat="44.0020496" lon="11.915715"><ele>211.5</ele><time>2026-04-18T17:56:15.188Z</time></trkpt><trkpt lat="44.0021712" lon="11.9160035"><ele>215.0</ele><time>2026-04-18T17:56:16.188Z</time></trkpt><trkpt lat="44.0022762" lon="11.9163222"><ele>215.0</ele><time>2026-04-18T17:56:17.188Z</time></trkpt><trkpt lat="44.0023626" lon="11.9166486"><ele>215.0</ele><time>2026-04-18T17:56:18.188Z</time></trkpt><trkpt lat="44.0024467" lon="11.916985"><ele>215.5</ele><time>2026-04-18T17:56:19.188Z</time></trkpt><trkpt lat="44.0025314" lon="11.9173178"><ele>216.0</ele><time>2026-04-18T17:56:20.188Z</time></trkpt><trkpt lat="44.0026189" lon="11.9176485"><ele>218.0</ele><time>2026-04-18T17:56:21.188Z</time></trkpt><trkpt lat="44.0027104" lon="11.91798"><ele>220.0</ele><time>2026-04-18T17:56:22.188Z</time></trkpt><trkpt lat="44.0028102" lon="11.9183148"><ele>228.0</ele><time>2026-04-18T17:56:23.188Z</time></trkpt><trkpt lat="44.0029198" lon="11.918652"><ele>236.0</ele><time>2026-04-18T17:56:24.188Z</time></trkpt><trkpt lat="44.0030335" lon="11.9189939"><ele>247.0</ele><time>2026-04-18T17:56:25.188Z</time></trkpt><trkpt lat="44.0031486" lon="11.9193384"><ele>258.0</ele><time>2026-04-18T17:56:26.188Z</time></trkpt><trkpt lat="44.0032668" lon="11.9196836"><ele>247.5</ele><time>2026-04-18T17:56:27.188Z</time></trkpt><trkpt lat="44.0033818" lon="11.9200231"><ele>237.0</ele><time>2026-04-18T17:56:28.188Z</time></trkpt><trkpt lat="44.003495" lon="11.9203545"><ele>237.0</ele><time>2026-04-18T17:56:29.188Z</time></trkpt><trkpt lat="44.0036124" lon="11.9206786"><ele>237.0</ele><time>2026-04-18T17:56:30.188Z</time></trkpt><trkpt lat="44.003731" lon="11.9209947"><ele>246.5</ele><time>2026-04-18T17:56:31.188Z</time></trkpt><trkpt lat="44.003853" lon="11.9213007"><ele>256.0</ele><time>2026-04-18T17:56:32.188Z</time></trkpt><trkpt lat="44.0039696" lon="11.9215853"><ele>258.0</ele><time>2026-04-18T17:56:33.188Z</time></trkpt><trkpt lat="44.0040799" lon="11.9218618"><ele>260.0</ele><time>2026-04-18T17:56:34.188Z</time></trkpt><trkpt lat="44.0041822" lon="11.9221253"><ele>262.0</ele><time>2026-04-18T17:56:35.188Z</time></trkpt><trkpt lat="44.0042787" lon="11.9223836"><ele>253.33333333333331</ele><time>2026-04-18T17:56:36.188Z</time></trkpt><trkpt lat="44.0043661" lon="11.9226395"><ele>244.66666666666669</ele><time>2026-04-18T17:56:37.188Z</time></trkpt><trkpt lat="44.0044436" lon="11.9228982"><ele>236.0</ele><time>2026-04-18T17:56:38.188Z</time></trkpt><trkpt lat="44.0045202" lon="11.9231844"><ele>236.66666666666669</ele><time>2026-04-18T17:56:39.188Z</time></trkpt><trkpt lat="44.0045909" lon="11.9234863"><ele>237.33333333333331</ele><time>2026-04-18T17:56:40.188Z</time></trkpt><trkpt lat="44.0046527" lon="11.9237768"><ele>238.0</ele><time>2026-04-18T17:56:41.188Z</time></trkpt><trkpt lat="44.0047067" lon="11.9240462"><ele>238.66666666666666</ele><time>2026-04-18T17:56:42.188Z</time></trkpt><trkpt lat="44.0047574" lon="11.924298"><ele>239.33333333333331</ele><time>2026-04-18T17:56:43.187Z</time></trkpt><trkpt lat="44.0048036" lon="11.9245286"><ele>240.0</ele><time>2026-04-18T17:56:44.188Z</time></trkpt><trkpt lat="44.0048486" lon="11.9247478"><ele>240.0</ele><time>2026-04-18T17:56:45.188Z</time></trkpt><trkpt lat="44.0048916" lon="11.9249504"><ele>240.0</ele><time>2026-04-18T17:56:46.188Z</time></trkpt><trkpt lat="44.0049342" lon="11.9251453"><ele>240.0</ele><time>2026-04-18T17:56:47.188Z</time></trkpt><trkpt lat="44.0049775" lon="11.9253381"><ele>240.0</ele><time>2026-04-18T17:56:48.188Z</time></trkpt><trkpt lat="44.0050199" lon="11.9255294"><ele>239.5</ele><time>2026-04-18T17:56:49.188Z</time></trkpt><trkpt lat="44.0050631" lon="11.9257222"><ele>239.0</ele><time>2026-04-18T17:56:50.188Z</time></trkpt><trkpt lat="44.0051082" lon="11.9259158"><ele>238.5</ele><time>2026-04-18T17:56:51.188Z</time></trkpt><trkpt lat="44.0051531" lon="11.9261125"><ele>238.0</ele><time>2026-04-18T17:56:52.187Z</time></trkpt><trkpt lat="44.0051979" lon="11.926312"><ele>238.0</ele><time>2026-04-18T17:56:53.188Z</time></trkpt><trkpt lat="44.0052415" lon="11.9265131"><ele>238.0</ele><time>2026-04-18T17:56:54.188Z</time></trkpt><trkpt lat="44.0052827" lon="11.92671"><ele>238.0</ele><time>2026-04-18T17:56:55.188Z</time></trkpt><trkpt lat="44.0053172" lon="11.9269034"><ele>238.0</ele><time>2026-04-18T17:56:56.188Z</time></trkpt><trkpt lat="44.0053416" lon="11.92709"><ele>238.25</ele><time>2026-04-18T17:56:57.188Z</time></trkpt><trkpt lat="44.0053593" lon="11.927277"><ele>238.5</ele><time>2026-04-18T17:56:58.188Z</time></trkpt><trkpt lat="44.0053668" lon="11.9274686"><ele>238.75</ele><time>2026-04-18T17:56:59.188Z</time></trkpt><trkpt lat="44.0053661" lon="11.9276638"><ele>239.0</ele><time>2026-04-18T17:57:00.187Z</time></trkpt><trkpt lat="44.0053542" lon="11.9278552"><ele>238.25</ele><time>2026-04-18T17:57:01.188Z</time></trkpt><trkpt lat="44.005336" lon="11.9280425"><ele>237.5</ele><time>2026-04-18T17:57:02.188Z</time></trkpt><trkpt lat="44.0053134" lon="11.9282291"><ele>236.75</ele><time>2026-04-18T17:57:03.188Z</time></trkpt><trkpt lat="44.0052898" lon="11.9284106"><ele>236.0</ele><time>2026-04-18T17:57:04.187Z</time></trkpt><trkpt lat="44.0052655" lon="11.9285877"><ele>235.5</ele><time>2026-04-18T17:57:05.188Z</time></trkpt><trkpt lat="44.0052454" lon="11.9287625"><ele>235.0</ele><time>2026-04-18T17:57:06.188Z</time></trkpt><trkpt lat="44.0052296" lon="11.9289358"><ele>234.5</ele><time>2026-04-18T17:57:07.188Z</time></trkpt><trkpt lat="44.0052174" lon="11.9291071"><ele>234.0</ele><time>2026-04-18T17:57:08.187Z</time></trkpt><trkpt lat="44.0052151" lon="11.92928"><ele>233.75</ele><time>2026-04-18T17:57:09.187Z</time></trkpt><trkpt lat="44.0052192" lon="11.929452"><ele>233.5</ele><time>2026-04-18T17:57:10.188Z</time></trkpt><trkpt lat="44.0052306" lon="11.9296239"><ele>233.25</ele><time>2026-04-18T17:57:11.188Z</time></trkpt><trkpt lat="44.0052473" lon="11.9297964"><ele>233.0</ele><time>2026-04-18T17:57:12.187Z</time></trkpt><trkpt lat="44.0052709" lon="11.9299766"><ele>231.5</ele><time>2026-04-18T17:57:13.188Z</time></trkpt><trkpt lat="44.0053037" lon="11.9301575"><ele>230.0</ele><time>2026-04-18T17:57:14.188Z</time></trkpt><trkpt lat="44.005346" lon="11.9303406"><ele>228.5</ele><time>2026-04-18T17:57:15.188Z</time></trkpt><trkpt lat="44.0053953" lon="11.9305256"><ele>227.0</ele><time>2026-04-18T17:57:16.188Z</time></trkpt><trkpt lat="44.0054598" lon="11.9307112"><ele>224.33333333333334</ele><time>2026-04-18T17:57:17.188Z</time></trkpt><trkpt lat="44.0055319" lon="11.9308989"><ele>221.66666666666669</ele><time>2026-04-18T17:57:18.187Z</time></trkpt><trkpt lat="44.0056067" lon="11.9310849"><ele>219.0</ele><time>2026-04-18T17:57:19.188Z</time></trkpt><trkpt lat="44.0056816" lon="11.9312654"><ele>219.0</ele><time>2026-04-18T17:57:20.188Z</time></trkpt><trkpt lat="44.0057587" lon="11.9314468"><ele>219.0</ele><time>2026-04-18T17:57:21.188Z</time></trkpt><trkpt lat="44.0058379" lon="11.9316304"><ele>219.0</ele><time>2026-04-18T17:57:22.188Z</time></trkpt><trkpt lat="44.0059182" lon="11.9318116"><ele>213.0</ele><time>2026-04-18T17:57:23.188Z</time></trkpt><trkpt lat="44.0059967" lon="11.931992"><ele>207.0</ele><time>2026-04-18T17:57:24.188Z</time></trkpt><trkpt lat="44.0060754" lon="11.9321721"><ele>201.0</ele><time>2026-04-18T17:57:25.188Z</time></trkpt><trkpt lat="44.0061543" lon="11.9323541"><ele>201.0</ele><time>2026-04-18T17:57:26.188Z</time></trkpt><trkpt lat="44.0062347" lon="11.9325357"><ele>201.0</ele><time>2026-04-18T17:57:27.188Z</time></trkpt><trkpt lat="44.006314" lon="11.9327187"><ele>201.0</ele><time>2026-04-18T17:57:28.188Z</time></trkpt><trkpt lat="44.0063921" lon="11.9329007"><ele>204.0</ele><time>2026-04-18T17:57:29.188Z</time></trkpt><trkpt lat="44.0064683" lon="11.9330818"><ele>207.0</ele><time>2026-04-18T17:57:30.188Z</time></trkpt><trkpt lat="44.0065435" lon="11.9332583"><ele>210.0</ele><time>2026-04-18T17:57:31.188Z</time></trkpt><trkpt lat="44.0066159" lon="11.9334337"><ele>213.0</ele><time>2026-04-18T17:57:32.188Z</time></trkpt><trkpt lat="44.0066841" lon="11.9336113"><ele>214.5</ele><time>2026-04-18T17:57:33.188Z</time></trkpt><trkpt lat="44.0067464" lon="11.9337907"><ele>216.0</ele><time>2026-04-18T17:57:34.188Z</time></trkpt><trkpt lat="44.0067991" lon="11.9339723"><ele>217.5</ele><time>2026-04-18T17:57:35.188Z</time></trkpt><trkpt lat="44.0068406" lon="11.9341581"><ele>219.0</ele><time>2026-04-18T17:57:36.188Z</time></trkpt><trkpt lat="44.0068733" lon="11.9343451"><ele>219.0</ele><time>2026-04-18T17:57:37.188Z</time></trkpt><trkpt lat="44.0069001" lon="11.934532"><ele>219.0</ele><time>2026-04-18T17:57:38.188Z</time></trkpt><trkpt lat="44.0069169" lon="11.9347131"><ele>219.0</ele><time>2026-04-18T17:57:39.188Z</time></trkpt><trkpt lat="44.0069308" lon="11.9348898"><ele>219.0</ele><time>2026-04-18T17:57:40.188Z</time></trkpt><trkpt lat="44.0069427" lon="11.9350612"><ele>218.5</ele><time>2026-04-18T17:57:41.188Z</time></trkpt><trkpt lat="44.0069534" lon="11.9352342"><ele>218.0</ele><time>2026-04-18T17:57:42.188Z</time></trkpt><trkpt lat="44.0069659" lon="11.9354022"><ele>217.5</ele><time>2026-04-18T17:57:43.188Z</time></trkpt><trkpt lat="44.0069769" lon="11.9355708"><ele>217.0</ele><time>2026-04-18T17:57:44.188Z</time></trkpt><trkpt lat="44.0069875" lon="11.9357363"><ele>217.5</ele><time>2026-04-18T17:57:45.188Z</time></trkpt><trkpt lat="44.0069964" lon="11.9358995"><ele>218.0</ele><time>2026-04-18T17:57:46.188Z</time></trkpt><trkpt lat="44.0070026" lon="11.9360694"><ele>218.5</ele><time>2026-04-18T17:57:47.188Z</time></trkpt><trkpt lat="44.0070128" lon="11.9362387"><ele>219.0</ele><time>2026-04-18T17:57:48.188Z</time></trkpt><trkpt lat="44.0070221" lon="11.9364108"><ele>219.0</ele><time>2026-04-18T17:57:49.188Z</time></trkpt><trkpt lat="44.0070304" lon="11.9365796"><ele>219.0</ele><time>2026-04-18T17:57:50.188Z</time></trkpt><trkpt lat="44.0070401" lon="11.9367416"><ele>219.0</ele><time>2026-04-18T17:57:51.188Z</time></trkpt><trkpt lat="44.0070518" lon="11.9369037"><ele>219.0</ele><time>2026-04-18T17:57:52.188Z</time></trkpt><trkpt lat="44.0070671" lon="11.9370721"><ele>219.0</ele><time>2026-04-18T17:57:53.188Z</time></trkpt><trkpt lat="44.0070872" lon="11.9372521"><ele>219.0</ele><time>2026-04-18T17:57:54.188Z</time></trkpt><trkpt lat="44.0071092" lon="11.9374598"><ele>219.0</ele><time>2026-04-18T17:57:55.188Z</time></trkpt><trkpt lat="44.0071249" lon="11.9376915"><ele>219.0</ele><time>2026-04-18T17:57:56.188Z</time></trkpt><trkpt lat="44.0071293" lon="11.9379223"><ele>219.0</ele><time>2026-04-18T17:57:57.188Z</time></trkpt><trkpt lat="44.0071394" lon="11.938136"><ele>219.0</ele><time>2026-04-18T17:57:58.188Z</time></trkpt><trkpt lat="44.0071494" lon="11.9383404"><ele>219.0</ele><time>2026-04-18T17:57:59.188Z</time></trkpt><trkpt lat="44.0071608" lon="11.9385363"><ele>219.0</ele><time>2026-04-18T17:58:00.188Z</time></trkpt><trkpt lat="44.0071714" lon="11.9387259"><ele>219.0</ele><time>2026-04-18T17:58:01.188Z</time></trkpt><trkpt lat="44.007182" lon="11.9389108"><ele>219.0</ele><time>2026-04-18T17:58:02.188Z</time></trkpt><trkpt lat="44.0071932" lon="11.9390934"><ele>219.0</ele><time>2026-04-18T17:58:03.187Z</time></trkpt><trkpt lat="44.0072048" lon="11.9392702"><ele>219.0</ele><time>2026-04-18T17:58:04.187Z</time></trkpt><trkpt lat="44.0072171" lon="11.9394467"><ele>219.25</ele><time>2026-04-18T17:58:05.187Z</time></trkpt><trkpt lat="44.0072265" lon="11.9396146"><ele>219.5</ele><time>2026-04-18T17:58:06.188Z</time></trkpt><trkpt lat="44.0072391" lon="11.9397774"><ele>219.75</ele><time>2026-04-18T17:58:07.188Z</time></trkpt><trkpt lat="44.0072505" lon="11.9399348"><ele>220.0</ele><time>2026-04-18T17:58:08.188Z</time></trkpt><trkpt lat="44.0072604" lon="11.9400783"><ele>219.99999999999997</ele><time>2026-04-18T17:58:09.188Z</time></trkpt><trkpt lat="44.007267" lon="11.9402127"><ele>220.0</ele><time>2026-04-18T17:58:10.188Z</time></trkpt><trkpt lat="44.0072752" lon="11.9403405"><ele>220.0</ele><time>2026-04-18T17:58:11.188Z</time></trkpt><trkpt lat="44.007278" lon="11.940459"><ele>220.0</ele><time>2026-04-18T17:58:12.188Z</time></trkpt><trkpt lat="44.0072764" lon="11.9405722"><ele>219.99999999999997</ele><time>2026-04-18T17:58:13.188Z</time></trkpt><trkpt lat="44.0072695" lon="11.9406859"><ele>220.0</ele><time>2026-04-18T17:58:14.188Z</time></trkpt><trkpt lat="44.007254" lon="11.9407995"><ele>219.66666666666666</ele><time>2026-04-18T17:58:15.188Z</time></trkpt><trkpt lat="44.0072304" lon="11.9409126"><ele>219.33333333333331</ele><time>2026-04-18T17:58:16.188Z</time></trkpt><trkpt lat="44.0072023" lon="11.9410178"><ele>219.0</ele><time>2026-04-18T17:58:17.188Z</time></trkpt><trkpt lat="44.0071639" lon="11.9411184"><ele>218.66666666666669</ele><time>2026-04-18T17:58:18.187Z</time></trkpt><trkpt lat="44.0071156" lon="11.9412138"><ele>218.33333333333334</ele><time>2026-04-18T17:58:19.188Z</time></trkpt><trkpt lat="44.0070592" lon="11.9413141"><ele>218.0</ele><time>2026-04-18T17:58:20.188Z</time></trkpt><trkpt lat="44.0069907" lon="11.9414151"><ele>218.0</ele><time>2026-04-18T17:58:21.188Z</time></trkpt><trkpt lat="44.0069229" lon="11.941513"><ele>218.0</ele><time>2026-04-18T17:58:22.188Z</time></trkpt><trkpt lat="44.0068521" lon="11.9416053"><ele>218.0</ele><time>2026-04-18T17:58:23.188Z</time></trkpt><trkpt lat="44.0067831" lon="11.9416957"><ele>218.0</ele><time>2026-04-18T17:58:24.188Z</time></trkpt><trkpt lat="44.0067181" lon="11.9417889"><ele>218.0</ele><time>2026-04-18T17:58:25.188Z</time></trkpt><trkpt lat="44.0066559" lon="11.941886"><ele>219.0</ele><time>2026-04-18T17:58:26.188Z</time></trkpt><trkpt lat="44.0065982" lon="11.9419973"><ele>220.0</ele><time>2026-04-18T17:58:27.188Z</time></trkpt><trkpt lat="44.0065441" lon="11.9421302"><ele>221.0</ele><time>2026-04-18T17:58:28.188Z</time></trkpt><trkpt lat="44.0065041" lon="11.9422717"><ele>222.0</ele><time>2026-04-18T17:58:29.188Z</time></trkpt><trkpt lat="44.0064721" lon="11.9424207"><ele>223.0</ele><time>2026-04-18T17:58:30.188Z</time></trkpt><trkpt lat="44.0064466" lon="11.9425734"><ele>223.0</ele><time>2026-04-18T17:58:31.188Z</time></trkpt><trkpt lat="44.0064247" lon="11.9427197"><ele>223.0</ele><time>2026-04-18T17:58:32.188Z</time></trkpt><trkpt lat="44.0064072" lon="11.94287"><ele>223.0</ele><time>2026-04-18T17:58:33.188Z</time></trkpt><trkpt lat="44.0063904" lon="11.9430218"><ele>223.0</ele><time>2026-04-18T17:58:34.188Z</time></trkpt><trkpt lat="44.0063773" lon="11.9431686"><ele>223.0</ele><time>2026-04-18T17:58:35.187Z</time></trkpt><trkpt lat="44.0063724" lon="11.9433109"><ele>223.4</ele><time>2026-04-18T17:58:36.188Z</time></trkpt><trkpt lat="44.0063798" lon="11.9434419"><ele>223.8</ele><time>2026-04-18T17:58:37.188Z</time></trkpt><trkpt lat="44.0063951" lon="11.943571"><ele>224.2</ele><time>2026-04-18T17:58:38.188Z</time></trkpt><trkpt lat="44.0064213" lon="11.9436995"><ele>224.6</ele><time>2026-04-18T17:58:39.188Z</time></trkpt><trkpt lat="44.0064585" lon="11.9438291"><ele>225.0</ele><time>2026-04-18T17:58:40.188Z</time></trkpt><trkpt lat="44.0065081" lon="11.9439509"><ele>225.0</ele><time>2026-04-18T17:58:41.188Z</time></trkpt><trkpt lat="44.0065668" lon="11.9440679"><ele>225.0</ele><time>2026-04-18T17:58:42.188Z</time></trkpt><trkpt lat="44.0066334" lon="11.9441761"><ele>225.0</ele><time>2026-04-18T17:58:43.188Z</time></trkpt><trkpt lat="44.006706" lon="11.9442779"><ele>225.0</ele><time>2026-04-18T17:58:44.188Z</time></trkpt><trkpt lat="44.0067874" lon="11.9443703"><ele>225.0</ele><time>2026-04-18T17:58:45.188Z</time></trkpt><trkpt lat="44.0068794" lon="11.9444512"><ele>223.25</ele><time>2026-04-18T17:58:46.188Z</time></trkpt><trkpt lat="44.0069806" lon="11.9445244"><ele>221.5</ele><time>2026-04-18T17:58:47.188Z</time></trkpt><trkpt lat="44.007085" lon="11.9445997"><ele>219.75</ele><time>2026-04-18T17:58:48.188Z</time></trkpt><trkpt lat="44.007197" lon="11.9446725"><ele>218.0</ele><time>2026-04-18T17:58:49.187Z</time></trkpt><trkpt lat="44.0073104" lon="11.9447479"><ele>218.0</ele><time>2026-04-18T17:58:50.188Z</time></trkpt><trkpt lat="44.0074242" lon="11.9448253"><ele>218.0</ele><time>2026-04-18T17:58:51.188Z</time></trkpt><trkpt lat="44.0075442" lon="11.9449035"><ele>218.0</ele><time>2026-04-18T17:58:52.188Z</time></trkpt><trkpt lat="44.007659" lon="11.9449813"><ele>218.0</ele><time>2026-04-18T17:58:53.188Z</time></trkpt><trkpt lat="44.007771" lon="11.9450593"><ele>218.0</ele><time>2026-04-18T17:58:54.187Z</time></trkpt><trkpt lat="44.0078821" lon="11.945139"><ele>218.0</ele><time>2026-04-18T17:58:55.187Z</time></trkpt><trkpt lat="44.0079938" lon="11.9452204"><ele>218.0</ele><time>2026-04-18T17:58:56.188Z</time></trkpt><trkpt lat="44.0081058" lon="11.9453055"><ele>218.0</ele><time>2026-04-18T17:58:57.187Z</time></trkpt><trkpt lat="44.0082182" lon="11.9453882"><ele>214.5</ele><time>2026-04-18T17:58:58.188Z</time></trkpt><trkpt lat="44.0083305" lon="11.9454734"><ele>211.0</ele><time>2026-04-18T17:58:59.188Z</time></trkpt><trkpt lat="44.0084429" lon="11.9455604"><ele>207.5</ele><time>2026-04-18T17:59:00.188Z</time></trkpt><trkpt lat="44.0085522" lon="11.9456533"><ele>204.0</ele><time>2026-04-18T17:59:01.188Z</time></trkpt><trkpt lat="44.0086608" lon="11.9457468"><ele>204.0</ele><time>2026-04-18T17:59:02.188Z</time></trkpt><trkpt lat="44.0087589" lon="11.9458548"><ele>204.0</ele><time>2026-04-18T17:59:03.188Z</time></trkpt><trkpt lat="44.0088387" lon="11.9459797"><ele>204.0</ele><time>2026-04-18T17:59:04.188Z</time></trkpt><trkpt lat="44.0089155" lon="11.946107"><ele>204.0</ele><time>2026-04-18T17:59:05.188Z</time></trkpt><trkpt lat="44.0089903" lon="11.9462411"><ele>205.0</ele><time>2026-04-18T17:59:06.188Z</time></trkpt><trkpt lat="44.009065" lon="11.9463791"><ele>206.0</ele><time>2026-04-18T17:59:07.188Z</time></trkpt><trkpt lat="44.0091386" lon="11.9465228"><ele>207.0</ele><time>2026-04-18T17:59:08.187Z</time></trkpt><trkpt lat="44.0092122" lon="11.9466696"><ele>208.0</ele><time>2026-04-18T17:59:09.188Z</time></trkpt><trkpt lat="44.009288" lon="11.94682"><ele>205.75</ele><time>2026-04-18T17:59:10.187Z</time></trkpt><trkpt lat="44.0093675" lon="11.9469773"><ele>203.5</ele><time>2026-04-18T17:59:11.188Z</time></trkpt><trkpt lat="44.0094481" lon="11.947137"><ele>201.25</ele><time>2026-04-18T17:59:12.188Z</time></trkpt><trkpt lat="44.0095282" lon="11.9472997"><ele>199.0</ele><time>2026-04-18T17:59:13.188Z</time></trkpt><trkpt lat="44.0096082" lon="11.9474596"><ele>200.5</ele><time>2026-04-18T17:59:14.188Z</time></trkpt><trkpt lat="44.0096876" lon="11.9476177"><ele>202.0</ele><time>2026-04-18T17:59:15.188Z</time></trkpt><trkpt lat="44.0097653" lon="11.9477756"><ele>203.5</ele><time>2026-04-18T17:59:16.188Z</time></trkpt><trkpt lat="44.0098441" lon="11.9479361"><ele>205.0</ele><time>2026-04-18T17:59:17.188Z</time></trkpt><trkpt lat="44.0099216" lon="11.9480962"><ele>204.0</ele><time>2026-04-18T17:59:18.188Z</time></trkpt><trkpt lat="44.0099986" lon="11.9482587"><ele>203.0</ele><time>2026-04-18T17:59:19.188Z</time></trkpt><trkpt lat="44.0100779" lon="11.948423"><ele>202.0</ele><time>2026-04-18T17:59:20.188Z</time></trkpt><trkpt lat="44.0101529" lon="11.9485915"><ele>201.0</ele><time>2026-04-18T17:59:21.188Z</time></trkpt><trkpt lat="44.0102281" lon="11.9487694"><ele>201.0</ele><time>2026-04-18T17:59:22.188Z</time></trkpt><trkpt lat="44.0102987" lon="11.9489597"><ele>201.0</ele><time>2026-04-18T17:59:23.187Z</time></trkpt><trkpt lat="44.0103688" lon="11.9491526"><ele>201.0</ele><time>2026-04-18T17:59:24.187Z</time></trkpt><trkpt lat="44.0104349" lon="11.9493466"><ele>202.0</ele><time>2026-04-18T17:59:25.188Z</time></trkpt><trkpt lat="44.010497" lon="11.9495421"><ele>203.0</ele><time>2026-04-18T17:59:26.188Z</time></trkpt><trkpt lat="44.0105623" lon="11.9497349"><ele>204.0</ele><time>2026-04-18T17:59:27.187Z</time></trkpt><trkpt lat="44.0106304" lon="11.9499346"><ele>205.33333333333331</ele><time>2026-04-18T17:59:28.188Z</time></trkpt><trkpt lat="44.0106951" lon="11.9501371"><ele>206.66666666666666</ele><time>2026-04-18T17:59:29.187Z</time></trkpt><trkpt lat="44.0107565" lon="11.9503381"><ele>208.0</ele><time>2026-04-18T17:59:30.188Z</time></trkpt><trkpt lat="44.0108211" lon="11.9505387"><ele>203.33333333333331</ele><time>2026-04-18T17:59:31.188Z</time></trkpt><trkpt lat="44.0108871" lon="11.9507423"><ele>198.66666666666669</ele><time>2026-04-18T17:59:32.187Z</time></trkpt><trkpt lat="44.0109551" lon="11.9509476"><ele>194.0</ele><time>2026-04-18T17:59:33.188Z</time></trkpt><trkpt lat="44.0110255" lon="11.9511551"><ele>194.0</ele><time>2026-04-18T17:59:34.188Z</time></trkpt><trkpt lat="44.0110954" lon="11.9513649"><ele>194.0</ele><time>2026-04-18T17:59:35.188Z</time></trkpt><trkpt lat="44.0111656" lon="11.9515788"><ele>194.0</ele><time>2026-04-18T17:59:36.188Z</time></trkpt><trkpt lat="44.0112395" lon="11.9517946"><ele>195.0</ele><time>2026-04-18T17:59:37.188Z</time></trkpt><trkpt lat="44.0113149" lon="11.9520157"><ele>196.0</ele><time>2026-04-18T17:59:38.188Z</time></trkpt><trkpt lat="44.0113894" lon="11.9522423"><ele>197.0</ele><time>2026-04-18T17:59:39.188Z</time></trkpt><trkpt lat="44.0114642" lon="11.9524698"><ele>197.66666666666669</ele><time>2026-04-18T17:59:40.188Z</time></trkpt><trkpt lat="44.0115381" lon="11.952691"><ele>198.33333333333331</ele><time>2026-04-18T17:59:41.188Z</time></trkpt><trkpt lat="44.0116095" lon="11.9529134"><ele>199.0</ele><time>2026-04-18T17:59:42.187Z</time></trkpt><trkpt lat="44.0116792" lon="11.953133"><ele>196.0</ele><time>2026-04-18T17:59:43.188Z</time></trkpt><trkpt lat="44.01175" lon="11.9533517"><ele>193.0</ele><time>2026-04-18T17:59:44.188Z</time></trkpt><trkpt lat="44.0118212" lon="11.9535612"><ele>190.0</ele><time>2026-04-18T17:59:45.188Z</time></trkpt><trkpt lat="44.0118903" lon="11.9537621"><ele>190.0</ele><time>2026-04-18T17:59:46.188Z</time></trkpt><trkpt lat="44.0119586" lon="11.953967"><ele>190.0</ele><time>2026-04-18T17:59:47.188Z</time></trkpt><trkpt lat="44.0120212" lon="11.9541724"><ele>190.0</ele><time>2026-04-18T17:59:48.188Z</time></trkpt><trkpt lat="44.0120768" lon="11.9543823"><ele>191.0</ele><time>2026-04-18T17:59:49.187Z</time></trkpt><trkpt lat="44.0121321" lon="11.9546023"><ele>192.0</ele><time>2026-04-18T17:59:50.188Z</time></trkpt><trkpt lat="44.0121901" lon="11.9548489"><ele>193.0</ele><time>2026-04-18T17:59:51.188Z</time></trkpt><trkpt lat="44.0122573" lon="11.9551213"><ele>193.0</ele><time>2026-04-18T17:59:52.188Z</time></trkpt><trkpt lat="44.012324" lon="11.9554337"><ele>193.0</ele><time>2026-04-18T17:59:53.188Z</time></trkpt><trkpt lat="44.0123866" lon="11.9557851"><ele>193.5</ele><time>2026-04-18T17:59:54.188Z</time></trkpt><trkpt lat="44.0124447" lon="11.9561673"><ele>194.0</ele><time>2026-04-18T17:59:55.188Z</time></trkpt><trkpt lat="44.0124924" lon="11.9565608"><ele>189.0</ele><time>2026-04-18T17:59:56.187Z</time></trkpt><trkpt lat="44.0125416" lon="11.9569774"><ele>184.0</ele><time>2026-04-18T17:59:57.188Z</time></trkpt><trkpt lat="44.0125993" lon="11.9574049"><ele>184.5</ele><time>2026-04-18T17:59:58.188Z</time></trkpt><trkpt lat="44.0126589" lon="11.9578215"><ele>185.0</ele><time>2026-04-18T17:59:59.187Z</time></trkpt><trkpt lat="44.0127176" lon="11.9582316"><ele>186.5</ele><time>2026-04-18T18:00:00.188Z</time></trkpt><trkpt lat="44.0127752" lon="11.9586358"><ele>188.0</ele><time>2026-04-18T18:00:01.188Z</time></trkpt><trkpt lat="44.0128322" lon="11.9590313"><ele>190.5</ele><time>2026-04-18T18:00:02.188Z</time></trkpt><trkpt lat="44.0128876" lon="11.9594199"><ele>193.0</ele><time>2026-04-18T18:00:03.188Z</time></trkpt><trkpt lat="44.0129418" lon="11.9597964"><ele>197.5</ele><time>2026-04-18T18:00:04.188Z</time></trkpt><trkpt lat="44.0129938" lon="11.9601495"><ele>202.0</ele><time>2026-04-18T18:00:05.188Z</time></trkpt><trkpt lat="44.0130464" lon="11.9604766"><ele>202.0</ele><time>2026-04-18T18:00:06.188Z</time></trkpt><trkpt lat="44.013113" lon="11.9607997"><ele>202.0</ele><time>2026-04-18T18:00:07.188Z</time></trkpt><trkpt lat="44.0132003" lon="11.9611135"><ele>205.0</ele><time>2026-04-18T18:00:08.188Z</time></trkpt><trkpt lat="44.0133106" lon="11.9614072"><ele>208.0</ele><time>2026-04-18T18:00:09.188Z</time></trkpt><trkpt lat="44.0134423" lon="11.9616996"><ele>202.0</ele><time>2026-04-18T18:00:10.188Z</time></trkpt><trkpt lat="44.0135872" lon="11.9619866"><ele>196.0</ele><time>2026-04-18T18:00:11.187Z</time></trkpt><trkpt lat="44.0137377" lon="11.9622691"><ele>201.5</ele><time>2026-04-18T18:00:12.188Z</time></trkpt><trkpt lat="44.0138904" lon="11.9625492"><ele>207.0</ele><time>2026-04-18T18:00:13.188Z</time></trkpt><trkpt lat="44.0140514" lon="11.9628275"><ele>202.0</ele><time>2026-04-18T18:00:14.188Z</time></trkpt><trkpt lat="44.0142338" lon="11.9631004"><ele>197.0</ele><time>2026-04-18T18:00:15.188Z</time></trkpt><trkpt lat="44.0144353" lon="11.9633672"><ele>197.0</ele><time>2026-04-18T18:00:16.187Z</time></trkpt><trkpt lat="44.0146473" lon="11.9636247"><ele>197.0</ele><time>2026-04-18T18:00:17.188Z</time></trkpt><trkpt lat="44.0148662" lon="11.9638831"><ele>191.0</ele><time>2026-04-18T18:00:18.188Z</time></trkpt><trkpt lat="44.015085" lon="11.9641478"><ele>185.0</ele><time>2026-04-18T18:00:19.188Z</time></trkpt><trkpt lat="44.0153048" lon="11.9644123"><ele>185.0</ele><time>2026-04-18T18:00:20.188Z</time></trkpt><trkpt lat="44.015523" lon="11.9646746"><ele>185.0</ele><time>2026-04-18T18:00:21.188Z</time></trkpt><trkpt lat="44.0157379" lon="11.9649306"><ele>181.5</ele><time>2026-04-18T18:00:22.188Z</time></trkpt><trkpt lat="44.0159463" lon="11.9651804"><ele>178.0</ele><time>2026-04-18T18:00:23.188Z</time></trkpt><trkpt lat="44.0161351" lon="11.965413"><ele>178.0</ele><time>2026-04-18T18:00:24.188Z</time></trkpt><trkpt lat="44.0163083" lon="11.9656487"><ele>178.0</ele><time>2026-04-18T18:00:25.188Z</time></trkpt><trkpt lat="44.0164673" lon="11.9659155"><ele>180.5</ele><time>2026-04-18T18:00:26.188Z</time></trkpt><trkpt lat="44.0166043" lon="11.9662201"><ele>183.0</ele><time>2026-04-18T18:00:27.188Z</time></trkpt><trkpt lat="44.016717" lon="11.9665574"><ele>187.0</ele><time>2026-04-18T18:00:28.188Z</time></trkpt><trkpt lat="44.0168137" lon="11.9669107"><ele>191.0</ele><time>2026-04-18T18:00:29.188Z</time></trkpt><trkpt lat="44.0169129" lon="11.9672665"><ele>194.5</ele><time>2026-04-18T18:00:30.188Z</time></trkpt><trkpt lat="44.0170193" lon="11.9676147"><ele>198.0</ele><time>2026-04-18T18:00:31.188Z</time></trkpt><trkpt lat="44.0171285" lon="11.967941"><ele>198.0</ele><time>2026-04-18T18:00:32.188Z</time></trkpt><trkpt lat="44.0172504" lon="11.9682477"><ele>198.0</ele><time>2026-04-18T18:00:33.188Z</time></trkpt><trkpt lat="44.0173931" lon="11.968544"><ele>199.0</ele><time>2026-04-18T18:00:34.188Z</time></trkpt><trkpt lat="44.01755" lon="11.9688246"><ele>200.0</ele><time>2026-04-18T18:00:35.188Z</time></trkpt><trkpt lat="44.0177218" lon="11.9690805"><ele>208.5</ele><time>2026-04-18T18:00:36.188Z</time></trkpt><trkpt lat="44.0179106" lon="11.9693143"><ele>217.0</ele><time>2026-04-18T18:00:37.188Z</time></trkpt><trkpt lat="44.0181133" lon="11.9695383"><ele>208.5</ele><time>2026-04-18T18:00:38.188Z</time></trkpt><trkpt lat="44.0183297" lon="11.9697502"><ele>200.0</ele><time>2026-04-18T18:00:39.188Z</time></trkpt><trkpt lat="44.0185587" lon="11.9699507"><ele>205.5</ele><time>2026-04-18T18:00:40.188Z</time></trkpt><trkpt lat="44.0188027" lon="11.9701481"><ele>211.0</ele><time>2026-04-18T18:00:41.188Z</time></trkpt><trkpt lat="44.019059" lon="11.9703618"><ele>202.5</ele><time>2026-04-18T18:00:42.188Z</time></trkpt><trkpt lat="44.0193175" lon="11.9706002"><ele>194.0</ele><time>2026-04-18T18:00:43.188Z</time></trkpt><trkpt lat="44.0195703" lon="11.9708455"><ele>193.0</ele><time>2026-04-18T18:00:44.188Z</time></trkpt><trkpt lat="44.0198216" lon="11.9710948"><ele>192.0</ele><time>2026-04-18T18:00:45.188Z</time></trkpt><trkpt lat="44.0200721" lon="11.9713334"><ele>192.0</ele><time>2026-04-18T18:00:46.188Z</time></trkpt><trkpt lat="44.020317" lon="11.9715626"><ele>192.0</ele><time>2026-04-18T18:00:47.188Z</time></trkpt><trkpt lat="44.020554" lon="11.9717831"><ele>191.5</ele><time>2026-04-18T18:00:48.188Z</time></trkpt><trkpt lat="44.020776" lon="11.9719885"><ele>191.0</ele><time>2026-04-18T18:00:49.188Z</time></trkpt><trkpt lat="44.0209859" lon="11.9721858"><ele>191.0</ele><time>2026-04-18T18:00:50.188Z</time></trkpt><trkpt lat="44.0211808" lon="11.9723682"><ele>191.0</ele><time>2026-04-18T18:00:51.188Z</time></trkpt><trkpt lat="44.0213685" lon="11.9725445"><ele>191.33333333333331</ele><time>2026-04-18T18:00:52.188Z</time></trkpt><trkpt lat="44.0215517" lon="11.972715"><ele>191.66666666666666</ele><time>2026-04-18T18:00:53.188Z</time></trkpt><trkpt lat="44.0217238" lon="11.9728739"><ele>192.0</ele><time>2026-04-18T18:00:54.188Z</time></trkpt><trkpt lat="44.0218921" lon="11.9730315"><ele>192.0</ele><time>2026-04-18T18:00:55.188Z</time></trkpt><trkpt lat="44.0220599" lon="11.9731896"><ele>192.0</ele><time>2026-04-18T18:00:56.188Z</time></trkpt><trkpt lat="44.0222253" lon="11.9733453"><ele>192.0</ele><time>2026-04-18T18:00:57.188Z</time></trkpt><trkpt lat="44.022411" lon="11.973508"><ele>193.5</ele><time>2026-04-18T18:00:58.188Z</time></trkpt><trkpt lat="44.0226142" lon="11.9736891"><ele>195.0</ele><time>2026-04-18T18:00:59.188Z</time></trkpt><trkpt lat="44.0228264" lon="11.9738951"><ele>195.0</ele><time>2026-04-18T18:01:00.188Z</time></trkpt><trkpt lat="44.0230379" lon="11.974102"><ele>195.0</ele><time>2026-04-18T18:01:01.188Z</time></trkpt><trkpt lat="44.0232546" lon="11.9743104"><ele>196.0</ele><time>2026-04-18T18:01:02.188Z</time></trkpt><trkpt lat="44.0234753" lon="11.9745185"><ele>197.0</ele><time>2026-04-18T18:01:03.188Z</time></trkpt><trkpt lat="44.0236922" lon="11.974722"><ele>197.0</ele><time>2026-04-18T18:01:04.188Z</time></trkpt><trkpt lat="44.0239109" lon="11.9749272"><ele>197.0</ele><time>2026-04-18T18:01:05.188Z</time></trkpt><trkpt lat="44.0241249" lon="11.9751256"><ele>194.0</ele><time>2026-04-18T18:01:06.187Z</time></trkpt><trkpt lat="44.0243278" lon="11.9753111"><ele>191.0</ele><time>2026-04-18T18:01:07.188Z</time></trkpt><trkpt lat="44.0245268" lon="11.9754937"><ele>191.0</ele><time>2026-04-18T18:01:08.187Z</time></trkpt><trkpt lat="44.0247152" lon="11.9756704"><ele>191.0</ele><time>2026-04-18T18:01:09.188Z</time></trkpt><trkpt lat="44.0248938" lon="11.9758535"><ele>191.0</ele><time>2026-04-18T18:01:10.188Z</time></trkpt><trkpt lat="44.025064" lon="11.97606"><ele>186.5</ele><time>2026-04-18T18:01:11.188Z</time></trkpt><trkpt lat="44.0252103" lon="11.9763021"><ele>182.0</ele><time>2026-04-18T18:01:12.188Z</time></trkpt><trkpt lat="44.0253342" lon="11.976563"><ele>182.33333333333331</ele><time>2026-04-18T18:01:13.188Z</time></trkpt><trkpt lat="44.0254525" lon="11.9768224"><ele>182.66666666666666</ele><time>2026-04-18T18:01:14.188Z</time></trkpt><trkpt lat="44.0255724" lon="11.9770842"><ele>183.0</ele><time>2026-04-18T18:01:15.188Z</time></trkpt><trkpt lat="44.025693" lon="11.9773432"><ele>182.33333333333334</ele><time>2026-04-18T18:01:16.188Z</time></trkpt><trkpt lat="44.0258059" lon="11.9775904"><ele>181.66666666666669</ele><time>2026-04-18T18:01:17.188Z</time></trkpt><trkpt lat="44.0259058" lon="11.9778074"><ele>181.0</ele><time>2026-04-18T18:01:18.188Z</time></trkpt><trkpt lat="44.0259933" lon="11.977995"><ele>181.0</ele><time>2026-04-18T18:01:19.188Z</time></trkpt><trkpt lat="44.0260775" lon="11.9781751"><ele>181.0</ele><time>2026-04-18T18:01:20.188Z</time></trkpt><trkpt lat="44.0261646" lon="11.9783604"><ele>181.0</ele><time>2026-04-18T18:01:21.187Z</time></trkpt><trkpt lat="44.0262677" lon="11.9785644"><ele>181.66666666666669</ele><time>2026-04-18T18:01:22.188Z</time></trkpt><trkpt lat="44.0264001" lon="11.9787716"><ele>182.33333333333334</ele><time>2026-04-18T18:01:23.188Z</time></trkpt><trkpt lat="44.02655" lon="11.9789734"><ele>183.0</ele><time>2026-04-18T18:01:24.188Z</time></trkpt><trkpt lat="44.0267062" lon="11.9791694"><ele>182.33333333333334</ele><time>2026-04-18T18:01:25.188Z</time></trkpt><trkpt lat="44.0268651" lon="11.9793683"><ele>181.66666666666669</ele><time>2026-04-18T18:01:26.188Z</time></trkpt><trkpt lat="44.0270266" lon="11.9795834"><ele>181.0</ele><time>2026-04-18T18:01:27.188Z</time></trkpt><trkpt lat="44.0271834" lon="11.9798273"><ele>181.0</ele><time>2026-04-18T18:01:28.187Z</time></trkpt><trkpt lat="44.0273262" lon="11.9801187"><ele>181.0</ele><time>2026-04-18T18:01:29.188Z</time></trkpt><trkpt lat="44.0274527" lon="11.9804441"><ele>177.5</ele><time>2026-04-18T18:01:30.188Z</time></trkpt><trkpt lat="44.0275746" lon="11.9807703"><ele>174.0</ele><time>2026-04-18T18:01:31.188Z</time></trkpt><trkpt lat="44.0277178" lon="11.9810788"><ele>174.0</ele><time>2026-04-18T18:01:32.188Z</time></trkpt><trkpt lat="44.0278881" lon="11.9813436"><ele>174.0</ele><time>2026-04-18T18:01:33.188Z</time></trkpt><trkpt lat="44.0280854" lon="11.9815907"><ele>174.0</ele><time>2026-04-18T18:01:34.188Z</time></trkpt><trkpt lat="44.0282992" lon="11.9818484"><ele>174.0</ele><time>2026-04-18T18:01:35.188Z</time></trkpt><trkpt lat="44.0285184" lon="11.9821083"><ele>171.5</ele><time>2026-04-18T18:01:36.188Z</time></trkpt><trkpt lat="44.0287425" lon="11.9823729"><ele>169.0</ele><time>2026-04-18T18:01:37.188Z</time></trkpt><trkpt lat="44.0289696" lon="11.9826427"><ele>164.0</ele><time>2026-04-18T18:01:38.188Z</time></trkpt><trkpt lat="44.0291961" lon="11.9829112"><ele>159.0</ele><time>2026-04-18T18:01:39.188Z</time></trkpt><trkpt lat="44.0294249" lon="11.9831774"><ele>160.5</ele><time>2026-04-18T18:01:40.187Z</time></trkpt><trkpt lat="44.0296604" lon="11.983442"><ele>162.0</ele><time>2026-04-18T18:01:41.188Z</time></trkpt><trkpt lat="44.0298981" lon="11.9837112"><ele>161.0</ele><time>2026-04-18T18:01:42.187Z</time></trkpt><trkpt lat="44.0301422" lon="11.9839836"><ele>160.0</ele><time>2026-04-18T18:01:43.188Z</time></trkpt><trkpt lat="44.0303917" lon="11.9842569"><ele>159.5</ele><time>2026-04-18T18:01:44.188Z</time></trkpt><trkpt lat="44.0306422" lon="11.9845325"><ele>159.0</ele><time>2026-04-18T18:01:45.188Z</time></trkpt><trkpt lat="44.0308869" lon="11.9848039"><ele>159.0</ele><time>2026-04-18T18:01:46.188Z</time></trkpt><trkpt lat="44.0311255" lon="11.9850681"><ele>159.0</ele><time>2026-04-18T18:01:47.188Z</time></trkpt><trkpt lat="44.031358" lon="11.9853261"><ele>159.0</ele><time>2026-04-18T18:01:48.188Z</time></trkpt><trkpt lat="44.0315848" lon="11.9855773"><ele>159.0</ele><time>2026-04-18T18:01:49.188Z</time></trkpt><trkpt lat="44.0318079" lon="11.9858256"><ele>160.0</ele><time>2026-04-18T18:01:50.188Z</time></trkpt><trkpt lat="44.0320311" lon="11.9860733"><ele>161.0</ele><time>2026-04-18T18:01:51.188Z</time></trkpt><trkpt lat="44.0322553" lon="11.9863194"><ele>161.5</ele><time>2026-04-18T18:01:52.188Z</time></trkpt><trkpt lat="44.0324779" lon="11.9865651"><ele>162.0</ele><time>2026-04-18T18:01:53.188Z</time></trkpt><trkpt lat="44.0326971" lon="11.9868081"><ele>162.0</ele><time>2026-04-18T18:01:54.188Z</time></trkpt><trkpt lat="44.0329103" lon="11.9870464"><ele>162.0</ele><time>2026-04-18T18:01:55.188Z</time></trkpt><trkpt lat="44.0331165" lon="11.9872839"><ele>160.5</ele><time>2026-04-18T18:01:56.188Z</time></trkpt><trkpt lat="44.0333192" lon="11.987533"><ele>159.0</ele><time>2026-04-18T18:01:57.188Z</time></trkpt><trkpt lat="44.0335167" lon="11.9877973"><ele>159.0</ele><time>2026-04-18T18:01:58.188Z</time></trkpt><trkpt lat="44.0337113" lon="11.9880807"><ele>159.0</ele><time>2026-04-18T18:01:59.188Z</time></trkpt><trkpt lat="44.0339039" lon="11.9883804"><ele>159.0</ele><time>2026-04-18T18:02:00.188Z</time></trkpt><trkpt lat="44.0340998" lon="11.9886859"><ele>159.0</ele><time>2026-04-18T18:02:01.188Z</time></trkpt><trkpt lat="44.0342969" lon="11.9889953"><ele>156.0</ele><time>2026-04-18T18:02:02.187Z</time></trkpt><trkpt lat="44.0344905" lon="11.9893001"><ele>153.0</ele><time>2026-04-18T18:02:03.187Z</time></trkpt><trkpt lat="44.0346836" lon="11.9896013"><ele>153.0</ele><time>2026-04-18T18:02:04.188Z</time></trkpt><trkpt lat="44.0348796" lon="11.989912"><ele>153.0</ele><time>2026-04-18T18:02:05.188Z</time></trkpt><trkpt lat="44.0350666" lon="11.9902088"><ele>150.0</ele><time>2026-04-18T18:02:06.188Z</time></trkpt><trkpt lat="44.0352435" lon="11.9904923"><ele>147.0</ele><time>2026-04-18T18:02:07.187Z</time></trkpt><trkpt lat="44.0354142" lon="11.9907617"><ele>151.0</ele><time>2026-04-18T18:02:08.188Z</time></trkpt><trkpt lat="44.0355705" lon="11.9910113"><ele>155.0</ele><time>2026-04-18T18:02:09.188Z</time></trkpt><trkpt lat="44.0357182" lon="11.9912501"><ele>153.0</ele><time>2026-04-18T18:02:10.187Z</time></trkpt><trkpt lat="44.0358565" lon="11.9914714"><ele>151.0</ele><time>2026-04-18T18:02:11.188Z</time></trkpt><trkpt lat="44.0359861" lon="11.9916743"><ele>149.0</ele><time>2026-04-18T18:02:12.187Z</time></trkpt><trkpt lat="44.036108" lon="11.9918689"><ele>149.0</ele><time>2026-04-18T18:02:13.188Z</time></trkpt><trkpt lat="44.0362321" lon="11.9920636"><ele>149.0</ele><time>2026-04-18T18:02:14.188Z</time></trkpt><trkpt lat="44.0363553" lon="11.9922493"><ele>149.0</ele><time>2026-04-18T18:02:15.188Z</time></trkpt><trkpt lat="44.0364878" lon="11.9924187"><ele>149.0</ele><time>2026-04-18T18:02:16.188Z</time></trkpt><trkpt lat="44.0366301" lon="11.9925747"><ele>149.0</ele><time>2026-04-18T18:02:17.188Z</time></trkpt><trkpt lat="44.0367993" lon="11.9927198"><ele>149.0</ele><time>2026-04-18T18:02:18.188Z</time></trkpt><trkpt lat="44.0370043" lon="11.992872"><ele>149.0</ele><time>2026-04-18T18:02:19.188Z</time></trkpt><trkpt lat="44.0372158" lon="11.9930456"><ele>149.0</ele><time>2026-04-18T18:02:20.188Z</time></trkpt><trkpt lat="44.0374436" lon="11.9932421"><ele>147.5</ele><time>2026-04-18T18:02:21.188Z</time></trkpt><trkpt lat="44.0376605" lon="11.9934307"><ele>146.0</ele><time>2026-04-18T18:02:22.188Z</time></trkpt><trkpt lat="44.0378647" lon="11.9936094"><ele>146.0</ele><time>2026-04-18T18:02:23.188Z</time></trkpt><trkpt lat="44.0380582" lon="11.9937847"><ele>146.0</ele><time>2026-04-18T18:02:24.187Z</time></trkpt><trkpt lat="44.0382345" lon="11.9939632"><ele>146.0</ele><time>2026-04-18T18:02:25.188Z</time></trkpt><trkpt lat="44.0383852" lon="11.9941663"><ele>145.0</ele><time>2026-04-18T18:02:26.188Z</time></trkpt><trkpt lat="44.0385034" lon="11.9944134"><ele>144.0</ele><time>2026-04-18T18:02:27.188Z</time></trkpt><trkpt lat="44.038591" lon="11.9947083"><ele>143.0</ele><time>2026-04-18T18:02:28.188Z</time></trkpt><trkpt lat="44.0386459" lon="11.9950391"><ele>143.0</ele><time>2026-04-18T18:02:29.188Z</time></trkpt><trkpt lat="44.0386684" lon="11.9953805"><ele>143.0</ele><time>2026-04-18T18:02:30.188Z</time></trkpt><trkpt lat="44.0386856" lon="11.9957182"><ele>139.0</ele><time>2026-04-18T18:02:31.188Z</time></trkpt><trkpt lat="44.0387158" lon="11.9960469"><ele>135.0</ele><time>2026-04-18T18:02:32.187Z</time></trkpt><trkpt lat="44.0387672" lon="11.9963546"><ele>135.0</ele><time>2026-04-18T18:02:33.188Z</time></trkpt><trkpt lat="44.0388442" lon="11.9966331"><ele>135.0</ele><time>2026-04-18T18:02:34.188Z</time></trkpt><trkpt lat="44.0389545" lon="11.9968966"><ele>135.0</ele><time>2026-04-18T18:02:35.188Z</time></trkpt><trkpt lat="44.0390906" lon="11.9971445"><ele>128.0</ele><time>2026-04-18T18:02:36.188Z</time></trkpt><trkpt lat="44.0392471" lon="11.9973977"><ele>121.0</ele><time>2026-04-18T18:02:37.188Z</time></trkpt><trkpt lat="44.0394056" lon="11.9976501"><ele>121.0</ele><time>2026-04-18T18:02:38.188Z</time></trkpt><trkpt lat="44.0395692" lon="11.9979111"><ele>121.0</ele><time>2026-04-18T18:02:39.188Z</time></trkpt><trkpt lat="44.0397289" lon="11.9981691"><ele>121.0</ele><time>2026-04-18T18:02:40.187Z</time></trkpt><trkpt lat="44.0398794" lon="11.9984121"><ele>121.0</ele><time>2026-04-18T18:02:41.188Z</time></trkpt><trkpt lat="44.0400273" lon="11.9986538"><ele>121.0</ele><time>2026-04-18T18:02:42.187Z</time></trkpt><trkpt lat="44.0401692" lon="11.9988808"><ele>121.0</ele><time>2026-04-18T18:02:43.188Z</time></trkpt><trkpt lat="44.0403019" lon="11.9990962"><ele>121.0</ele><time>2026-04-18T18:02:44.188Z</time></trkpt><trkpt lat="44.040429" lon="11.9993029"><ele>120.33333333333334</ele><time>2026-04-18T18:02:45.188Z</time></trkpt><trkpt lat="44.0405521" lon="11.9995118"><ele>119.66666666666666</ele><time>2026-04-18T18:02:46.187Z</time></trkpt><trkpt lat="44.0406695" lon="11.9997207"><ele>119.0</ele><time>2026-04-18T18:02:47.188Z</time></trkpt><trkpt lat="44.0407801" lon="11.9999325"><ele>119.33333333333333</ele><time>2026-04-18T18:02:48.188Z</time></trkpt><trkpt lat="44.0408825" lon="12.0001436"><ele>119.66666666666666</ele><time>2026-04-18T18:02:49.187Z</time></trkpt><trkpt lat="44.0409811" lon="12.000355"><ele>120.0</ele><time>2026-04-18T18:02:50.188Z</time></trkpt><trkpt lat="44.0410756" lon="12.0005666"><ele>120.0</ele><time>2026-04-18T18:02:51.188Z</time></trkpt><trkpt lat="44.0411712" lon="12.0007757"><ele>120.0</ele><time>2026-04-18T18:02:52.188Z</time></trkpt><trkpt lat="44.0412686" lon="12.0009857"><ele>120.0</ele><time>2026-04-18T18:02:53.188Z</time></trkpt><trkpt lat="44.0413649" lon="12.0011954"><ele>120.0</ele><time>2026-04-18T18:02:54.188Z</time></trkpt><trkpt lat="44.0414596" lon="12.0014046"><ele>120.0</ele><time>2026-04-18T18:02:55.188Z</time></trkpt><trkpt lat="44.0415533" lon="12.0016127"><ele>120.0</ele><time>2026-04-18T18:02:56.188Z</time></trkpt><trkpt lat="44.0416491" lon="12.0018194"><ele>120.0</ele><time>2026-04-18T18:02:57.188Z</time></trkpt><trkpt lat="44.0417433" lon="12.0020256"><ele>120.0</ele><time>2026-04-18T18:02:58.188Z</time></trkpt><trkpt lat="44.0418365" lon="12.0022278"><ele>120.0</ele><time>2026-04-18T18:02:59.188Z</time></trkpt><trkpt lat="44.041925" lon="12.0024233"><ele>119.33333333333334</ele><time>2026-04-18T18:03:00.188Z</time></trkpt><trkpt lat="44.0420107" lon="12.0026128"><ele>118.66666666666667</ele><time>2026-04-18T18:03:01.187Z</time></trkpt><trkpt lat="44.0420927" lon="12.0027964"><ele>118.0</ele><time>2026-04-18T18:03:02.187Z</time></trkpt><trkpt lat="44.0421694" lon="12.0029694"><ele>118.0</ele><time>2026-04-18T18:03:03.188Z</time></trkpt><trkpt lat="44.0422452" lon="12.0031377"><ele>118.0</ele><time>2026-04-18T18:03:04.188Z</time></trkpt><trkpt lat="44.0423177" lon="12.0033047"><ele>118.0</ele><time>2026-04-18T18:03:05.188Z</time></trkpt><trkpt lat="44.0423895" lon="12.0034727"><ele>118.0</ele><time>2026-04-18T18:03:06.188Z</time></trkpt><trkpt lat="44.0424627" lon="12.003637"><ele>118.0</ele><time>2026-04-18T18:03:07.188Z</time></trkpt><trkpt lat="44.0425293" lon="12.0038021"><ele>118.0</ele><time>2026-04-18T18:03:08.188Z</time></trkpt><trkpt lat="44.0425871" lon="12.0039727"><ele>118.0</ele><time>2026-04-18T18:03:09.188Z</time></trkpt><trkpt lat="44.0426287" lon="12.0041527"><ele>118.0</ele><time>2026-04-18T18:03:10.188Z</time></trkpt><trkpt lat="44.0426571" lon="12.0043235"><ele>117.75</ele><time>2026-04-18T18:03:11.188Z</time></trkpt><trkpt lat="44.042679" lon="12.0044963"><ele>117.5</ele><time>2026-04-18T18:03:12.188Z</time></trkpt><trkpt lat="44.0427013" lon="12.0046672"><ele>117.25</ele><time>2026-04-18T18:03:13.188Z</time></trkpt><trkpt lat="44.0427248" lon="12.0048422"><ele>117.0</ele><time>2026-04-18T18:03:14.188Z</time></trkpt><trkpt lat="44.0427447" lon="12.005006"><ele>117.0</ele><time>2026-04-18T18:03:15.188Z</time></trkpt><trkpt lat="44.042764" lon="12.0051599"><ele>117.0</ele><time>2026-04-18T18:03:16.188Z</time></trkpt><trkpt lat="44.0427905" lon="12.0053049"><ele>117.0</ele><time>2026-04-18T18:03:17.188Z</time></trkpt><trkpt lat="44.0428322" lon="12.0054502"><ele>117.0</ele><time>2026-04-18T18:03:18.188Z</time></trkpt><trkpt lat="44.042898" lon="12.0055885"><ele>117.0</ele><time>2026-04-18T18:03:19.187Z</time></trkpt><trkpt lat="44.0429853" lon="12.0057178"><ele>117.0</ele><time>2026-04-18T18:03:20.188Z</time></trkpt><trkpt lat="44.0430989" lon="12.0058213"><ele>117.0</ele><time>2026-04-18T18:03:21.188Z</time></trkpt><trkpt lat="44.043239" lon="12.0058925"><ele>117.0</ele><time>2026-04-18T18:03:22.187Z</time></trkpt><trkpt lat="44.0434157" lon="12.0059333"><ele>117.66666666666666</ele><time>2026-04-18T18:03:23.188Z</time></trkpt><trkpt lat="44.0436137" lon="12.0059673"><ele>118.33333333333333</ele><time>2026-04-18T18:03:24.187Z</time></trkpt><trkpt lat="44.0438066" lon="12.0060113"><ele>119.0</ele><time>2026-04-18T18:03:25.187Z</time></trkpt><trkpt lat="44.0439854" lon="12.0060476"><ele>118.25</ele><time>2026-04-18T18:03:26.188Z</time></trkpt><trkpt lat="44.044148" lon="12.0060799"><ele>117.5</ele><time>2026-04-18T18:03:27.188Z</time></trkpt><trkpt lat="44.0442879" lon="12.0061108"><ele>116.75</ele><time>2026-04-18T18:03:28.188Z</time></trkpt><trkpt lat="44.0444052" lon="12.0061516"><ele>116.0</ele><time>2026-04-18T18:03:29.188Z</time></trkpt><trkpt lat="44.0445044" lon="12.0062258"><ele>116.0</ele><time>2026-04-18T18:03:30.188Z</time></trkpt><trkpt lat="44.0445731" lon="12.0063464"><ele>116.0</ele><time>2026-04-18T18:03:31.187Z</time></trkpt><trkpt lat="44.0446211" lon="12.0065107"><ele>116.0</ele><time>2026-04-18T18:03:32.187Z</time></trkpt><trkpt lat="44.0446649" lon="12.0067095"><ele>116.0</ele><time>2026-04-18T18:03:33.188Z</time></trkpt><trkpt lat="44.0447107" lon="12.0069177"><ele>118.0</ele><time>2026-04-18T18:03:34.187Z</time></trkpt><trkpt lat="44.0447594" lon="12.0071338"><ele>120.0</ele><time>2026-04-18T18:03:35.188Z</time></trkpt><trkpt lat="44.0448024" lon="12.0073345"><ele>122.0</ele><time>2026-04-18T18:03:36.188Z</time></trkpt><trkpt lat="44.0448431" lon="12.0075255"><ele>122.25</ele><time>2026-04-18T18:03:37.187Z</time></trkpt><trkpt lat="44.04488" lon="12.0077064"><ele>122.5</ele><time>2026-04-18T18:03:38.188Z</time></trkpt><trkpt lat="44.0449164" lon="12.0078784"><ele>122.75</ele><time>2026-04-18T18:03:39.188Z</time></trkpt><trkpt lat="44.044954" lon="12.0080496"><ele>123.0</ele><time>2026-04-18T18:03:40.188Z</time></trkpt><trkpt lat="44.0449958" lon="12.0082264"><ele>120.75</ele><time>2026-04-18T18:03:41.188Z</time></trkpt><trkpt lat="44.045037" lon="12.0084049"><ele>118.5</ele><time>2026-04-18T18:03:42.188Z</time></trkpt><trkpt lat="44.0450794" lon="12.008582"><ele>116.25</ele><time>2026-04-18T18:03:43.188Z</time></trkpt><trkpt lat="44.0451259" lon="12.0087553"><ele>114.0</ele><time>2026-04-18T18:03:44.188Z</time></trkpt><trkpt lat="44.0451732" lon="12.0089258"><ele>114.0</ele><time>2026-04-18T18:03:45.188Z</time></trkpt><trkpt lat="44.0452178" lon="12.0090911"><ele>114.0</ele><time>2026-04-18T18:03:46.188Z</time></trkpt><trkpt lat="44.0452623" lon="12.0092522"><ele>114.0</ele><time>2026-04-18T18:03:47.188Z</time></trkpt><trkpt lat="44.0453099" lon="12.0094124"><ele>114.0</ele><time>2026-04-18T18:03:48.188Z</time></trkpt><trkpt lat="44.0453633" lon="12.0095698"><ele>114.25</ele><time>2026-04-18T18:03:49.188Z</time></trkpt><trkpt lat="44.0454187" lon="12.0097324"><ele>114.5</ele><time>2026-04-18T18:03:50.188Z</time></trkpt><trkpt lat="44.0454735" lon="12.0098956"><ele>114.75</ele><time>2026-04-18T18:03:51.187Z</time></trkpt><trkpt lat="44.0455339" lon="12.0100575"><ele>115.0</ele><time>2026-04-18T18:03:52.188Z</time></trkpt><trkpt lat="44.045599" lon="12.0102184"><ele>114.75</ele><time>2026-04-18T18:03:53.188Z</time></trkpt><trkpt lat="44.0456665" lon="12.0103811"><ele>114.5</ele><time>2026-04-18T18:03:54.188Z</time></trkpt><trkpt lat="44.0457405" lon="12.0105426"><ele>114.25</ele><time>2026-04-18T18:03:55.188Z</time></trkpt><trkpt lat="44.0458261" lon="12.0107037"><ele>114.0</ele><time>2026-04-18T18:03:56.188Z</time></trkpt><trkpt lat="44.0459144" lon="12.0108696"><ele>114.0</ele><time>2026-04-18T18:03:57.188Z</time></trkpt><trkpt lat="44.0460059" lon="12.0110298"><ele>114.0</ele><time>2026-04-18T18:03:58.188Z</time></trkpt><trkpt lat="44.0460975" lon="12.0111837"><ele>114.0</ele><time>2026-04-18T18:03:59.188Z</time></trkpt><trkpt lat="44.0461941" lon="12.0113383"><ele>114.0</ele><time>2026-04-18T18:04:00.188Z</time></trkpt><trkpt lat="44.0462955" lon="12.0114927"><ele>114.0</ele><time>2026-04-18T18:04:01.188Z</time></trkpt><trkpt lat="44.0464045" lon="12.0116431"><ele>114.0</ele><time>2026-04-18T18:04:02.188Z</time></trkpt><trkpt lat="44.0465258" lon="12.0117885"><ele>114.0</ele><time>2026-04-18T18:04:03.187Z</time></trkpt><trkpt lat="44.0466492" lon="12.0119311"><ele>113.66666666666666</ele><time>2026-04-18T18:04:04.188Z</time></trkpt><trkpt lat="44.0467752" lon="12.0120706"><ele>113.33333333333333</ele><time>2026-04-18T18:04:05.187Z</time></trkpt><trkpt lat="44.0469038" lon="12.0122064"><ele>113.0</ele><time>2026-04-18T18:04:06.188Z</time></trkpt><trkpt lat="44.0470387" lon="12.0123404"><ele>113.0</ele><time>2026-04-18T18:04:07.188Z</time></trkpt><trkpt lat="44.0471804" lon="12.0124664"><ele>113.0</ele><time>2026-04-18T18:04:08.188Z</time></trkpt><trkpt lat="44.0473281" lon="12.0125858"><ele>113.0</ele><time>2026-04-18T18:04:09.187Z</time></trkpt><trkpt lat="44.0474837" lon="12.0127018"><ele>112.33333333333333</ele><time>2026-04-18T18:04:10.188Z</time></trkpt><trkpt lat="44.047655" lon="12.0128186"><ele>111.66666666666666</ele><time>2026-04-18T18:04:11.188Z</time></trkpt><trkpt lat="44.0478354" lon="12.0129357"><ele>111.0</ele><time>2026-04-18T18:04:12.188Z</time></trkpt><trkpt lat="44.0480157" lon="12.013051"><ele>111.0</ele><time>2026-04-18T18:04:13.188Z</time></trkpt><trkpt lat="44.0482039" lon="12.0131665"><ele>111.0</ele><time>2026-04-18T18:04:14.187Z</time></trkpt><trkpt lat="44.0483918" lon="12.0132829"><ele>111.0</ele><time>2026-04-18T18:04:15.188Z</time></trkpt><trkpt lat="44.0485794" lon="12.0134002"><ele>110.66666666666666</ele><time>2026-04-18T18:04:16.187Z</time></trkpt><trkpt lat="44.0487687" lon="12.0135184"><ele>110.33333333333333</ele><time>2026-04-18T18:04:17.188Z</time></trkpt><trkpt lat="44.0489615" lon="12.0136371"><ele>110.0</ele><time>2026-04-18T18:04:18.188Z</time></trkpt><trkpt lat="44.0491602" lon="12.0137575"><ele>109.66666666666666</ele><time>2026-04-18T18:04:19.188Z</time></trkpt><trkpt lat="44.0493615" lon="12.0138778"><ele>109.33333333333334</ele><time>2026-04-18T18:04:20.187Z</time></trkpt><trkpt lat="44.0495654" lon="12.0140018"><ele>109.0</ele><time>2026-04-18T18:04:21.188Z</time></trkpt><trkpt lat="44.04977" lon="12.0141307"><ele>109.0</ele><time>2026-04-18T18:04:22.188Z</time></trkpt><trkpt lat="44.0499737" lon="12.014257"><ele>109.0</ele><time>2026-04-18T18:04:23.188Z</time></trkpt><trkpt lat="44.0501782" lon="12.0143862"><ele>109.0</ele><time>2026-04-18T18:04:24.187Z</time></trkpt><trkpt lat="44.0503842" lon="12.0145197"><ele>109.0</ele><time>2026-04-18T18:04:25.188Z</time></trkpt><trkpt lat="44.0505917" lon="12.014652"><ele>109.0</ele><time>2026-04-18T18:04:26.188Z</time></trkpt><trkpt lat="44.0508007" lon="12.0147849"><ele>108.5</ele><time>2026-04-18T18:04:27.188Z</time></trkpt><trkpt lat="44.0510125" lon="12.0149226"><ele>108.0</ele><time>2026-04-18T18:04:28.188Z</time></trkpt><trkpt lat="44.0512283" lon="12.0150678"><ele>108.0</ele><time>2026-04-18T18:04:29.188Z</time></trkpt><trkpt lat="44.0514415" lon="12.0152226"><ele>108.0</ele><time>2026-04-18T18:04:30.188Z</time></trkpt><trkpt lat="44.0516539" lon="12.0153901"><ele>108.0</ele><time>2026-04-18T18:04:31.188Z</time></trkpt><trkpt lat="44.0518644" lon="12.015573"><ele>108.0</ele><time>2026-04-18T18:04:32.188Z</time></trkpt><trkpt lat="44.052074" lon="12.0157709"><ele>108.0</ele><time>2026-04-18T18:04:33.188Z</time></trkpt><trkpt lat="44.0522871" lon="12.0159911"><ele>108.0</ele><time>2026-04-18T18:04:34.188Z</time></trkpt><trkpt lat="44.0525009" lon="12.0162376"><ele>108.0</ele><time>2026-04-18T18:04:35.188Z</time></trkpt><trkpt lat="44.0527147" lon="12.0165106"><ele>108.0</ele><time>2026-04-18T18:04:36.188Z</time></trkpt><trkpt lat="44.0529239" lon="12.0168006"><ele>106.5</ele><time>2026-04-18T18:04:37.187Z</time></trkpt><trkpt lat="44.0531265" lon="12.0171007"><ele>105.0</ele><time>2026-04-18T18:04:38.188Z</time></trkpt><trkpt lat="44.0533231" lon="12.0173944"><ele>108.0</ele><time>2026-04-18T18:04:39.188Z</time></trkpt><trkpt lat="44.0535159" lon="12.0176785"><ele>111.0</ele><time>2026-04-18T18:04:40.188Z</time></trkpt><trkpt lat="44.0537038" lon="12.0179548"><ele>111.0</ele><time>2026-04-18T18:04:41.188Z</time></trkpt><trkpt lat="44.0538957" lon="12.0182229"><ele>111.0</ele><time>2026-04-18T18:04:42.188Z</time></trkpt><trkpt lat="44.0541011" lon="12.0184819"><ele>110.0</ele><time>2026-04-18T18:04:43.188Z</time></trkpt><trkpt lat="44.0543145" lon="12.018726"><ele>109.0</ele><time>2026-04-18T18:04:44.187Z</time></trkpt><trkpt lat="44.0545294" lon="12.0189565"><ele>107.5</ele><time>2026-04-18T18:04:45.188Z</time></trkpt><trkpt lat="44.0547435" lon="12.0191809"><ele>106.0</ele><time>2026-04-18T18:04:46.188Z</time></trkpt><trkpt lat="44.0549564" lon="12.0194165"><ele>106.0</ele><time>2026-04-18T18:04:47.188Z</time></trkpt><trkpt lat="44.0551689" lon="12.0196786"><ele>106.0</ele><time>2026-04-18T18:04:48.188Z</time></trkpt><trkpt lat="44.0553754" lon="12.0199638"><ele>108.5</ele><time>2026-04-18T18:04:49.188Z</time></trkpt><trkpt lat="44.055575" lon="12.0202741"><ele>111.0</ele><time>2026-04-18T18:04:50.188Z</time></trkpt><trkpt lat="44.055767" lon="12.0206054"><ele>110.0</ele><time>2026-04-18T18:04:51.188Z</time></trkpt><trkpt lat="44.0559493" lon="12.0209438"><ele>109.0</ele><time>2026-04-18T18:04:52.188Z</time></trkpt><trkpt lat="44.0561249" lon="12.0212723"><ele>109.0</ele><time>2026-04-18T18:04:53.188Z</time></trkpt><trkpt lat="44.0562913" lon="12.0215881"><ele>109.0</ele><time>2026-04-18T18:04:54.188Z</time></trkpt><trkpt lat="44.0564505" lon="12.0218846"><ele>111.0</ele><time>2026-04-18T18:04:55.188Z</time></trkpt><trkpt lat="44.056612" lon="12.0221697"><ele>113.0</ele><time>2026-04-18T18:04:56.188Z</time></trkpt><trkpt lat="44.0567802" lon="12.022437"><ele>111.0</ele><time>2026-04-18T18:04:57.188Z</time></trkpt><trkpt lat="44.0569601" lon="12.0226745"><ele>109.0</ele><time>2026-04-18T18:04:58.188Z</time></trkpt><trkpt lat="44.057161" lon="12.022878"><ele>109.0</ele><time>2026-04-18T18:04:59.188Z</time></trkpt><trkpt lat="44.057382" lon="12.0230396"><ele>109.0</ele><time>2026-04-18T18:05:00.187Z</time></trkpt><trkpt lat="44.0576254" lon="12.0231665"><ele>108.5</ele><time>2026-04-18T18:05:01.188Z</time></trkpt><trkpt lat="44.0578855" lon="12.0232758"><ele>108.0</ele><time>2026-04-18T18:05:02.188Z</time></trkpt><trkpt lat="44.058148" lon="12.0233818"><ele>107.5</ele><time>2026-04-18T18:05:03.188Z</time></trkpt><trkpt lat="44.0584138" lon="12.0234969"><ele>107.0</ele><time>2026-04-18T18:05:04.188Z</time></trkpt><trkpt lat="44.0586846" lon="12.0236263"><ele>107.0</ele><time>2026-04-18T18:05:05.188Z</time></trkpt><trkpt lat="44.058958" lon="12.0237667"><ele>107.0</ele><time>2026-04-18T18:05:06.188Z</time></trkpt><trkpt lat="44.0592314" lon="12.0239188"><ele>106.0</ele><time>2026-04-18T18:05:07.188Z</time></trkpt><trkpt lat="44.0595041" lon="12.0240784"><ele>105.0</ele><time>2026-04-18T18:05:08.188Z</time></trkpt><trkpt lat="44.0597796" lon="12.0242455"><ele>105.5</ele><time>2026-04-18T18:05:09.187Z</time></trkpt><trkpt lat="44.0600576" lon="12.0244238"><ele>106.0</ele><time>2026-04-18T18:05:10.187Z</time></trkpt><trkpt lat="44.0603341" lon="12.0246064"><ele>106.0</ele><time>2026-04-18T18:05:11.188Z</time></trkpt><trkpt lat="44.0606098" lon="12.0247881"><ele>106.0</ele><time>2026-04-18T18:05:12.188Z</time></trkpt><trkpt lat="44.0608834" lon="12.0249664"><ele>108.5</ele><time>2026-04-18T18:05:13.188Z</time></trkpt><trkpt lat="44.0611604" lon="12.025147"><ele>111.0</ele><time>2026-04-18T18:05:14.187Z</time></trkpt><trkpt lat="44.0614385" lon="12.0253306"><ele>110.0</ele><time>2026-04-18T18:05:15.188Z</time></trkpt><trkpt lat="44.0617161" lon="12.0255132"><ele>109.0</ele><time>2026-04-18T18:05:16.188Z</time></trkpt><trkpt lat="44.0619921" lon="12.0256975"><ele>111.0</ele><time>2026-04-18T18:05:17.188Z</time></trkpt><trkpt lat="44.0622626" lon="12.025876"><ele>113.0</ele><time>2026-04-18T18:05:18.188Z</time></trkpt><trkpt lat="44.062528" lon="12.0260501"><ele>113.0</ele><time>2026-04-18T18:05:19.188Z</time></trkpt><trkpt lat="44.0627932" lon="12.0262231"><ele>113.0</ele><time>2026-04-18T18:05:20.187Z</time></trkpt><trkpt lat="44.06306" lon="12.0263957"><ele>114.0</ele><time>2026-04-18T18:05:21.187Z</time></trkpt><trkpt lat="44.0633291" lon="12.0265601"><ele>115.0</ele><time>2026-04-18T18:05:22.188Z</time></trkpt><trkpt lat="44.0636015" lon="12.0267148"><ele>115.0</ele><time>2026-04-18T18:05:23.188Z</time></trkpt><trkpt lat="44.0638826" lon="12.0268654"><ele>115.0</ele><time>2026-04-18T18:05:24.188Z</time></trkpt><trkpt lat="44.064173" lon="12.0270163"><ele>114.5</ele><time>2026-04-18T18:05:25.188Z</time></trkpt><trkpt lat="44.06447" lon="12.0271694"><ele>114.0</ele><time>2026-04-18T18:05:26.188Z</time></trkpt><trkpt lat="44.0647711" lon="12.0273227"><ele>114.0</ele><time>2026-04-18T18:05:27.188Z</time></trkpt><trkpt lat="44.0650731" lon="12.0274769"><ele>114.0</ele><time>2026-04-18T18:05:28.188Z</time></trkpt><trkpt lat="44.0653716" lon="12.0276299"><ele>114.0</ele><time>2026-04-18T18:05:29.188Z</time></trkpt><trkpt lat="44.065664" lon="12.0277803"><ele>114.0</ele><time>2026-04-18T18:05:30.188Z</time></trkpt><trkpt lat="44.0659495" lon="12.0279302"><ele>113.0</ele><time>2026-04-18T18:05:31.188Z</time></trkpt><trkpt lat="44.0662268" lon="12.0280822"><ele>112.0</ele><time>2026-04-18T18:05:32.188Z</time></trkpt><trkpt lat="44.0664941" lon="12.0282394"><ele>113.0</ele><time>2026-04-18T18:05:33.188Z</time></trkpt><trkpt lat="44.0667527" lon="12.0284069"><ele>114.0</ele><time>2026-04-18T18:05:34.188Z</time></trkpt><trkpt lat="44.0670068" lon="12.0285895"><ele>114.0</ele><time>2026-04-18T18:05:35.188Z</time></trkpt><trkpt lat="44.0672632" lon="12.0287756"><ele>114.0</ele><time>2026-04-18T18:05:36.188Z</time></trkpt><trkpt lat="44.0675172" lon="12.028962"><ele>114.5</ele><time>2026-04-18T18:05:37.188Z</time></trkpt><trkpt lat="44.0677681" lon="12.0291478"><ele>115.0</ele><time>2026-04-18T18:05:38.188Z</time></trkpt><trkpt lat="44.0680167" lon="12.0293285"><ele>115.0</ele><time>2026-04-18T18:05:39.188Z</time></trkpt><trkpt lat="44.068261" lon="12.0295031"><ele>115.0</ele><time>2026-04-18T18:05:40.188Z</time></trkpt><trkpt lat="44.0684947" lon="12.0296698"><ele>114.0</ele><time>2026-04-18T18:05:41.187Z</time></trkpt><trkpt lat="44.0687121" lon="12.0298257"><ele>113.0</ele><time>2026-04-18T18:05:42.188Z</time></trkpt><trkpt lat="44.0689154" lon="12.0299746"><ele>113.66666666666666</ele><time>2026-04-18T18:05:43.187Z</time></trkpt><trkpt lat="44.0691115" lon="12.0301161"><ele>114.33333333333334</ele><time>2026-04-18T18:05:44.188Z</time></trkpt><trkpt lat="44.0693059" lon="12.0302566"><ele>115.0</ele><time>2026-04-18T18:05:45.187Z</time></trkpt><trkpt lat="44.0694944" lon="12.0303897"><ele>115.0</ele><time>2026-04-18T18:05:46.188Z</time></trkpt><trkpt lat="44.0696681" lon="12.0305141"><ele>115.0</ele><time>2026-04-18T18:05:47.188Z</time></trkpt><trkpt lat="44.0698312" lon="12.0306334"><ele>115.0</ele><time>2026-04-18T18:05:48.188Z</time></trkpt><trkpt lat="44.0699798" lon="12.0307406"><ele>115.0</ele><time>2026-04-18T18:05:49.188Z</time></trkpt><trkpt lat="44.0701147" lon="12.0308373"><ele>115.0</ele><time>2026-04-18T18:05:50.187Z</time></trkpt><trkpt lat="44.0702401" lon="12.03093"><ele>115.0</ele><time>2026-04-18T18:05:51.187Z</time></trkpt><trkpt lat="44.0703517" lon="12.0310114"><ele>115.0</ele><time>2026-04-18T18:05:52.188Z</time></trkpt><trkpt lat="44.0704641" lon="12.0310895"><ele>115.0</ele><time>2026-04-18T18:05:53.188Z</time></trkpt><trkpt lat="44.0705799" lon="12.0311691"><ele>115.0</ele><time>2026-04-18T18:05:54.188Z</time></trkpt><trkpt lat="44.0706885" lon="12.0312418"><ele>115.0</ele><time>2026-04-18T18:05:55.188Z</time></trkpt><trkpt lat="44.0708044" lon="12.0313176"><ele>115.0</ele><time>2026-04-18T18:05:56.188Z</time></trkpt><trkpt lat="44.0709273" lon="12.0313925"><ele>114.0</ele><time>2026-04-18T18:05:57.188Z</time></trkpt><trkpt lat="44.0710643" lon="12.0314696"><ele>113.0</ele><time>2026-04-18T18:05:58.187Z</time></trkpt><trkpt lat="44.0712166" lon="12.0315534"><ele>112.0</ele><time>2026-04-18T18:05:59.187Z</time></trkpt><trkpt lat="44.071376" lon="12.0316393"><ele>112.33333333333334</ele><time>2026-04-18T18:06:00.188Z</time></trkpt><trkpt lat="44.0715469" lon="12.031729"><ele>112.66666666666666</ele><time>2026-04-18T18:06:01.188Z</time></trkpt><trkpt lat="44.0717227" lon="12.0318226"><ele>113.0</ele><time>2026-04-18T18:06:02.188Z</time></trkpt><trkpt lat="44.0719047" lon="12.031913"><ele>113.0</ele><time>2026-04-18T18:06:03.188Z</time></trkpt><trkpt lat="44.072094" lon="12.0319984"><ele>113.0</ele><time>2026-04-18T18:06:04.187Z</time></trkpt><trkpt lat="44.0722941" lon="12.0320851"><ele>113.0</ele><time>2026-04-18T18:06:05.188Z</time></trkpt><trkpt lat="44.0725117" lon="12.032168"><ele>109.0</ele><time>2026-04-18T18:06:06.188Z</time></trkpt><trkpt lat="44.0727301" lon="12.032242"><ele>105.0</ele><time>2026-04-18T18:06:07.188Z</time></trkpt><trkpt lat="44.0729762" lon="12.0323188"><ele>105.0</ele><time>2026-04-18T18:06:08.188Z</time></trkpt><trkpt lat="44.0732394" lon="12.0323887"><ele>105.0</ele><time>2026-04-18T18:06:09.188Z</time></trkpt><trkpt lat="44.0735199" lon="12.0324518"><ele>99.0</ele><time>2026-04-18T18:06:10.188Z</time></trkpt><trkpt lat="44.0738183" lon="12.0325058"><ele>93.0</ele><time>2026-04-18T18:06:11.188Z</time></trkpt><trkpt lat="44.0741311" lon="12.0325534"><ele>93.0</ele><time>2026-04-18T18:06:12.187Z</time></trkpt><trkpt lat="44.07445" lon="12.0325948"><ele>93.0</ele><time>2026-04-18T18:06:13.188Z</time></trkpt><trkpt lat="44.0747689" lon="12.032634"><ele>96.5</ele><time>2026-04-18T18:06:14.188Z</time></trkpt><trkpt lat="44.075083" lon="12.0326755"><ele>100.0</ele><time>2026-04-18T18:06:15.188Z</time></trkpt><trkpt lat="44.0753932" lon="12.0327149"><ele>100.0</ele><time>2026-04-18T18:06:16.188Z</time></trkpt><trkpt lat="44.0756962" lon="12.0327516"><ele>100.0</ele><time>2026-04-18T18:06:17.188Z</time></trkpt><trkpt lat="44.076" lon="12.0327876"><ele>100.0</ele><time>2026-04-18T18:06:18.188Z</time></trkpt><trkpt lat="44.0763066" lon="12.0328298"><ele>100.0</ele><time>2026-04-18T18:06:19.188Z</time></trkpt><trkpt lat="44.076614" lon="12.0328837"><ele>101.0</ele><time>2026-04-18T18:06:20.188Z</time></trkpt><trkpt lat="44.0769215" lon="12.0329556"><ele>102.0</ele><time>2026-04-18T18:06:21.187Z</time></trkpt><trkpt lat="44.0772248" lon="12.0330549"><ele>103.0</ele><time>2026-04-18T18:06:22.188Z</time></trkpt><trkpt lat="44.0775239" lon="12.0331806"><ele>104.0</ele><time>2026-04-18T18:06:23.188Z</time></trkpt><trkpt lat="44.0778183" lon="12.0333258"><ele>103.5</ele><time>2026-04-18T18:06:24.188Z</time></trkpt><trkpt lat="44.0781035" lon="12.0334875"><ele>103.0</ele><time>2026-04-18T18:06:25.188Z</time></trkpt><trkpt lat="44.0783809" lon="12.033671"><ele>103.0</ele><time>2026-04-18T18:06:26.188Z</time></trkpt><trkpt lat="44.0786548" lon="12.0338762"><ele>103.0</ele><time>2026-04-18T18:06:27.187Z</time></trkpt><trkpt lat="44.0789211" lon="12.0340965"><ele>104.0</ele><time>2026-04-18T18:06:28.188Z</time></trkpt><trkpt lat="44.079176" lon="12.0343285"><ele>105.0</ele><time>2026-04-18T18:06:29.188Z</time></trkpt><trkpt lat="44.079422" lon="12.0345722"><ele>105.0</ele><time>2026-04-18T18:06:30.188Z</time></trkpt><trkpt lat="44.079662" lon="12.0348279"><ele>105.0</ele><time>2026-04-18T18:06:31.188Z</time></trkpt><trkpt lat="44.0798977" lon="12.0350897"><ele>105.5</ele><time>2026-04-18T18:06:32.188Z</time></trkpt><trkpt lat="44.0801253" lon="12.035348"><ele>106.0</ele><time>2026-04-18T18:06:33.188Z</time></trkpt><trkpt lat="44.0803499" lon="12.0356058"><ele>104.5</ele><time>2026-04-18T18:06:34.188Z</time></trkpt><trkpt lat="44.0805717" lon="12.035859"><ele>103.0</ele><time>2026-04-18T18:06:35.188Z</time></trkpt><trkpt lat="44.0807917" lon="12.0361122"><ele>102.0</ele><time>2026-04-18T18:06:36.188Z</time></trkpt><trkpt lat="44.081014" lon="12.0363651"><ele>101.0</ele><time>2026-04-18T18:06:37.188Z</time></trkpt><trkpt lat="44.0812393" lon="12.0366182"><ele>101.0</ele><time>2026-04-18T18:06:38.188Z</time></trkpt><trkpt lat="44.0814644" lon="12.0368683"><ele>101.0</ele><time>2026-04-18T18:06:39.188Z</time></trkpt><trkpt lat="44.0816878" lon="12.0371146"><ele>100.0</ele><time>2026-04-18T18:06:40.188Z</time></trkpt><trkpt lat="44.0819102" lon="12.0373573"><ele>99.0</ele><time>2026-04-18T18:06:41.188Z</time></trkpt><trkpt lat="44.0821343" lon="12.0375969"><ele>99.0</ele><time>2026-04-18T18:06:42.187Z</time></trkpt><trkpt lat="44.08236" lon="12.0378351"><ele>99.0</ele><time>2026-04-18T18:06:43.187Z</time></trkpt><trkpt lat="44.0825901" lon="12.0380765"><ele>100.0</ele><time>2026-04-18T18:06:44.188Z</time></trkpt><trkpt lat="44.0828234" lon="12.0383205"><ele>101.0</ele><time>2026-04-18T18:06:45.188Z</time></trkpt><trkpt lat="44.0830571" lon="12.0385643"><ele>100.5</ele><time>2026-04-18T18:06:46.188Z</time></trkpt><trkpt lat="44.0832917" lon="12.0388083"><ele>100.0</ele><time>2026-04-18T18:06:47.188Z</time></trkpt><trkpt lat="44.0835276" lon="12.0390516"><ele>96.5</ele><time>2026-04-18T18:06:48.188Z</time></trkpt><trkpt lat="44.0837659" lon="12.0392933"><ele>93.0</ele><time>2026-04-18T18:06:49.188Z</time></trkpt><trkpt lat="44.0840088" lon="12.0395379"><ele>93.5</ele><time>2026-04-18T18:06:50.188Z</time></trkpt><trkpt lat="44.0842569" lon="12.0397839"><ele>94.0</ele><time>2026-04-18T18:06:51.188Z</time></trkpt><trkpt lat="44.0845095" lon="12.040028"><ele>93.0</ele><time>2026-04-18T18:06:52.187Z</time></trkpt><trkpt lat="44.0847654" lon="12.0402694"><ele>92.0</ele><time>2026-04-18T18:06:53.188Z</time></trkpt><trkpt lat="44.085025" lon="12.040505"><ele>92.0</ele><time>2026-04-18T18:06:54.188Z</time></trkpt><trkpt lat="44.0852861" lon="12.0407351"><ele>92.0</ele><time>2026-04-18T18:06:55.188Z</time></trkpt><trkpt lat="44.0855483" lon="12.0409628"><ele>95.0</ele><time>2026-04-18T18:06:56.187Z</time></trkpt><trkpt lat="44.0858113" lon="12.0411881"><ele>98.0</ele><time>2026-04-18T18:06:57.188Z</time></trkpt><trkpt lat="44.0860759" lon="12.0414102"><ele>98.0</ele><time>2026-04-18T18:06:58.188Z</time></trkpt><trkpt lat="44.0863408" lon="12.0416308"><ele>98.0</ele><time>2026-04-18T18:06:59.188Z</time></trkpt><trkpt lat="44.0866059" lon="12.0418517"><ele>99.5</ele><time>2026-04-18T18:07:00.188Z</time></trkpt><trkpt lat="44.0868705" lon="12.0420702"><ele>101.0</ele><time>2026-04-18T18:07:01.188Z</time></trkpt><trkpt lat="44.0871344" lon="12.0422886"><ele>100.0</ele><time>2026-04-18T18:07:02.188Z</time></trkpt><trkpt lat="44.0873972" lon="12.0425065"><ele>99.0</ele><time>2026-04-18T18:07:03.188Z</time></trkpt><trkpt lat="44.0876583" lon="12.0427232"><ele>99.0</ele><time>2026-04-18T18:07:04.188Z</time></trkpt><trkpt lat="44.0879174" lon="12.0429374"><ele>99.0</ele><time>2026-04-18T18:07:05.188Z</time></trkpt><trkpt lat="44.0881739" lon="12.0431491"><ele>99.0</ele><time>2026-04-18T18:07:06.188Z</time></trkpt><trkpt lat="44.0884278" lon="12.0433596"><ele>99.0</ele><time>2026-04-18T18:07:07.188Z</time></trkpt><trkpt lat="44.0886789" lon="12.0435667"><ele>99.0</ele><time>2026-04-18T18:07:08.188Z</time></trkpt><trkpt lat="44.088929" lon="12.0437738"><ele>99.0</ele><time>2026-04-18T18:07:09.188Z</time></trkpt><trkpt lat="44.0891716" lon="12.0439745"><ele>99.0</ele><time>2026-04-18T18:07:10.188Z</time></trkpt><trkpt lat="44.0893948" lon="12.0441588"><ele>99.0</ele><time>2026-04-18T18:07:11.187Z</time></trkpt><trkpt lat="44.0896102" lon="12.0443359"><ele>99.0</ele><time>2026-04-18T18:07:12.188Z</time></trkpt><trkpt lat="44.0898189" lon="12.0445069"><ele>99.0</ele><time>2026-04-18T18:07:13.188Z</time></trkpt><trkpt lat="44.0900236" lon="12.0446703"><ele>98.66666666666666</ele><time>2026-04-18T18:07:14.188Z</time></trkpt><trkpt lat="44.0902232" lon="12.0448248"><ele>98.33333333333333</ele><time>2026-04-18T18:07:15.188Z</time></trkpt><trkpt lat="44.0904133" lon="12.0449677"><ele>98.0</ele><time>2026-04-18T18:07:16.187Z</time></trkpt><trkpt lat="44.0906024" lon="12.0451028"><ele>99.33333333333333</ele><time>2026-04-18T18:07:17.188Z</time></trkpt><trkpt lat="44.0907775" lon="12.0452239"><ele>100.66666666666666</ele><time>2026-04-18T18:07:18.187Z</time></trkpt><trkpt lat="44.0909429" lon="12.0453381"><ele>102.0</ele><time>2026-04-18T18:07:19.188Z</time></trkpt><trkpt lat="44.0910931" lon="12.0454478"><ele>102.0</ele><time>2026-04-18T18:07:20.188Z</time></trkpt><trkpt lat="44.091217" lon="12.0455705"><ele>102.0</ele><time>2026-04-18T18:07:21.187Z</time></trkpt><trkpt lat="44.0913218" lon="12.0457222"><ele>102.0</ele><time>2026-04-18T18:07:22.188Z</time></trkpt><trkpt lat="44.0914213" lon="12.045859"><ele>102.0</ele><time>2026-04-18T18:07:23.188Z</time></trkpt><trkpt lat="44.0915546" lon="12.0459801"><ele>102.33333333333334</ele><time>2026-04-18T18:07:24.188Z</time></trkpt><trkpt lat="44.0917147" lon="12.0460891"><ele>102.66666666666667</ele><time>2026-04-18T18:07:25.188Z</time></trkpt><trkpt lat="44.0918887" lon="12.0462075"><ele>103.0</ele><time>2026-04-18T18:07:26.188Z</time></trkpt><trkpt lat="44.092073" lon="12.0463562"><ele>103.0</ele><time>2026-04-18T18:07:27.188Z</time></trkpt><trkpt lat="44.0922612" lon="12.0465172"><ele>103.0</ele><time>2026-04-18T18:07:28.188Z</time></trkpt><trkpt lat="44.0924446" lon="12.0466738"><ele>103.0</ele><time>2026-04-18T18:07:29.188Z</time></trkpt><trkpt lat="44.0926308" lon="12.0468344"><ele>103.33333333333334</ele><time>2026-04-18T18:07:30.188Z</time></trkpt><trkpt lat="44.0928146" lon="12.0469918"><ele>103.66666666666666</ele><time>2026-04-18T18:07:31.188Z</time></trkpt><trkpt lat="44.0929964" lon="12.0471463"><ele>104.0</ele><time>2026-04-18T18:07:32.188Z</time></trkpt><trkpt lat="44.0931743" lon="12.0472978"><ele>103.66666666666666</ele><time>2026-04-18T18:07:33.188Z</time></trkpt><trkpt lat="44.0933506" lon="12.0474451"><ele>103.33333333333334</ele><time>2026-04-18T18:07:34.188Z</time></trkpt><trkpt lat="44.0935237" lon="12.0475888"><ele>103.0</ele><time>2026-04-18T18:07:35.187Z</time></trkpt><trkpt lat="44.0936856" lon="12.047724"><ele>103.0</ele><time>2026-04-18T18:07:36.188Z</time></trkpt><trkpt lat="44.0938316" lon="12.0478504"><ele>103.0</ele><time>2026-04-18T18:07:37.187Z</time></trkpt><trkpt lat="44.0939704" lon="12.0479708"><ele>103.0</ele><time>2026-04-18T18:07:38.188Z</time></trkpt><trkpt lat="44.0940995" lon="12.0480843"><ele>102.5</ele><time>2026-04-18T18:07:39.188Z</time></trkpt><trkpt lat="44.094221" lon="12.04819"><ele>102.0</ele><time>2026-04-18T18:07:40.188Z</time></trkpt><trkpt lat="44.0943385" lon="12.0482908"><ele>101.5</ele><time>2026-04-18T18:07:41.187Z</time></trkpt><trkpt lat="44.0944548" lon="12.0483892"><ele>101.0</ele><time>2026-04-18T18:07:42.188Z</time></trkpt><trkpt lat="44.0945693" lon="12.0484791"><ele>100.75</ele><time>2026-04-18T18:07:43.188Z</time></trkpt><trkpt lat="44.0946795" lon="12.0485545"><ele>100.5</ele><time>2026-04-18T18:07:44.187Z</time></trkpt><trkpt lat="44.0947865" lon="12.0486143"><ele>100.25</ele><time>2026-04-18T18:07:45.188Z</time></trkpt><trkpt lat="44.0948907" lon="12.0486635"><ele>100.0</ele><time>2026-04-18T18:07:46.188Z</time></trkpt><trkpt lat="44.0950002" lon="12.0487082"><ele>99.5</ele><time>2026-04-18T18:07:47.188Z</time></trkpt><trkpt lat="44.0951231" lon="12.048752"><ele>99.0</ele><time>2026-04-18T18:07:48.188Z</time></trkpt><trkpt lat="44.0952535" lon="12.0487953"><ele>98.5</ele><time>2026-04-18T18:07:49.188Z</time></trkpt><trkpt lat="44.0953867" lon="12.0488375"><ele>98.0</ele><time>2026-04-18T18:07:50.188Z</time></trkpt><trkpt lat="44.0955206" lon="12.0488786"><ele>98.0</ele><time>2026-04-18T18:07:51.188Z</time></trkpt><trkpt lat="44.0956583" lon="12.0489233"><ele>98.0</ele><time>2026-04-18T18:07:52.188Z</time></trkpt><trkpt lat="44.0957993" lon="12.0489698"><ele>98.0</ele><time>2026-04-18T18:07:53.188Z</time></trkpt><trkpt lat="44.0959433" lon="12.0490171"><ele>98.0</ele><time>2026-04-18T18:07:54.187Z</time></trkpt><trkpt lat="44.096089" lon="12.0490646"><ele>97.66666666666666</ele><time>2026-04-18T18:07:55.188Z</time></trkpt><trkpt lat="44.0962387" lon="12.0491104"><ele>97.33333333333334</ele><time>2026-04-18T18:07:56.188Z</time></trkpt><trkpt lat="44.096394" lon="12.0491558"><ele>97.0</ele><time>2026-04-18T18:07:57.188Z</time></trkpt><trkpt lat="44.096557" lon="12.0492024"><ele>95.33333333333334</ele><time>2026-04-18T18:07:58.188Z</time></trkpt><trkpt lat="44.0967246" lon="12.0492508"><ele>93.66666666666667</ele><time>2026-04-18T18:07:59.188Z</time></trkpt><trkpt lat="44.0968952" lon="12.0493039"><ele>92.0</ele><time>2026-04-18T18:08:00.188Z</time></trkpt><trkpt lat="44.0970689" lon="12.0493583"><ele>92.0</ele><time>2026-04-18T18:08:01.188Z</time></trkpt><trkpt lat="44.0972454" lon="12.0494121"><ele>92.0</ele><time>2026-04-18T18:08:02.188Z</time></trkpt><trkpt lat="44.0974235" lon="12.049468"><ele>92.0</ele><time>2026-04-18T18:08:03.188Z</time></trkpt><trkpt lat="44.0976018" lon="12.0495242"><ele>91.66666666666667</ele><time>2026-04-18T18:08:04.188Z</time></trkpt><trkpt lat="44.0977789" lon="12.0495791"><ele>91.33333333333333</ele><time>2026-04-18T18:08:05.188Z</time></trkpt><trkpt lat="44.0979546" lon="12.0496334"><ele>91.0</ele><time>2026-04-18T18:08:06.188Z</time></trkpt><trkpt lat="44.0981291" lon="12.0496905"><ele>93.0</ele><time>2026-04-18T18:08:07.188Z</time></trkpt><trkpt lat="44.0983034" lon="12.0497481"><ele>95.0</ele><time>2026-04-18T18:08:08.188Z</time></trkpt><trkpt lat="44.098478" lon="12.0498057"><ele>97.0</ele><time>2026-04-18T18:08:09.187Z</time></trkpt><trkpt lat="44.0986542" lon="12.0498635"><ele>97.0</ele><time>2026-04-18T18:08:10.188Z</time></trkpt><trkpt lat="44.0988347" lon="12.0499207"><ele>97.0</ele><time>2026-04-18T18:08:11.188Z</time></trkpt><trkpt lat="44.0990205" lon="12.0499792"><ele>97.0</ele><time>2026-04-18T18:08:12.188Z</time></trkpt><trkpt lat="44.0992138" lon="12.0500376"><ele>96.33333333333334</ele><time>2026-04-18T18:08:13.188Z</time></trkpt><trkpt lat="44.0994072" lon="12.0500966"><ele>95.66666666666667</ele><time>2026-04-18T18:08:14.188Z</time></trkpt><trkpt lat="44.0996016" lon="12.0501563"><ele>95.0</ele><time>2026-04-18T18:08:15.188Z</time></trkpt><trkpt lat="44.0997985" lon="12.0502169"><ele>95.0</ele><time>2026-04-18T18:08:16.188Z</time></trkpt><trkpt lat="44.0999973" lon="12.0502774"><ele>95.0</ele><time>2026-04-18T18:08:17.188Z</time></trkpt><trkpt lat="44.1001968" lon="12.0503398"><ele>95.0</ele><time>2026-04-18T18:08:18.188Z</time></trkpt><trkpt lat="44.100395" lon="12.0504016"><ele>95.0</ele><time>2026-04-18T18:08:19.188Z</time></trkpt><trkpt lat="44.1005916" lon="12.0504628"><ele>95.0</ele><time>2026-04-18T18:08:20.188Z</time></trkpt><trkpt lat="44.1007828" lon="12.0505225"><ele>95.0</ele><time>2026-04-18T18:08:21.188Z</time></trkpt><trkpt lat="44.1009702" lon="12.0505822"><ele>95.0</ele><time>2026-04-18T18:08:22.188Z</time></trkpt><trkpt lat="44.1011625" lon="12.0506433"><ele>95.0</ele><time>2026-04-18T18:08:23.188Z</time></trkpt><trkpt lat="44.1013552" lon="12.0507055"><ele>95.0</ele><time>2026-04-18T18:08:24.188Z</time></trkpt><trkpt lat="44.1015432" lon="12.0507663"><ele>94.33333333333334</ele><time>2026-04-18T18:08:25.188Z</time></trkpt><trkpt lat="44.1017187" lon="12.0508232"><ele>93.66666666666667</ele><time>2026-04-18T18:08:26.188Z</time></trkpt><trkpt lat="44.1018934" lon="12.0508781"><ele>93.0</ele><time>2026-04-18T18:08:27.188Z</time></trkpt><trkpt lat="44.1020691" lon="12.0509323"><ele>93.0</ele><time>2026-04-18T18:08:28.188Z</time></trkpt><trkpt lat="44.102244" lon="12.0509864"><ele>93.0</ele><time>2026-04-18T18:08:29.188Z</time></trkpt><trkpt lat="44.1024171" lon="12.0510409"><ele>93.0</ele><time>2026-04-18T18:08:30.188Z</time></trkpt><trkpt lat="44.102588" lon="12.051095"><ele>92.66666666666667</ele><time>2026-04-18T18:08:31.188Z</time></trkpt><trkpt lat="44.1027571" lon="12.0511506"><ele>92.33333333333334</ele><time>2026-04-18T18:08:32.187Z</time></trkpt><trkpt lat="44.1029247" lon="12.0512042"><ele>92.0</ele><time>2026-04-18T18:08:33.188Z</time></trkpt><trkpt lat="44.1030937" lon="12.0512557"><ele>92.0</ele><time>2026-04-18T18:08:34.187Z</time></trkpt><trkpt lat="44.1032624" lon="12.0513069"><ele>92.0</ele><time>2026-04-18T18:08:35.187Z</time></trkpt><trkpt lat="44.1034214" lon="12.0513574"><ele>92.0</ele><time>2026-04-18T18:08:36.188Z</time></trkpt><trkpt lat="44.1035792" lon="12.0514098"><ele>92.0</ele><time>2026-04-18T18:08:37.188Z</time></trkpt><trkpt lat="44.1037252" lon="12.0514576"><ele>92.0</ele><time>2026-04-18T18:08:38.188Z</time></trkpt><trkpt lat="44.1038636" lon="12.0515013"><ele>92.0</ele><time>2026-04-18T18:08:39.188Z</time></trkpt><trkpt lat="44.104" lon="12.0515435"><ele>92.0</ele><time>2026-04-18T18:08:40.188Z</time></trkpt><trkpt lat="44.1041357" lon="12.0515875"><ele>92.0</ele><time>2026-04-18T18:08:41.188Z</time></trkpt><trkpt lat="44.1042754" lon="12.0516337"><ele>92.0</ele><time>2026-04-18T18:08:42.188Z</time></trkpt><trkpt lat="44.1044182" lon="12.0516806"><ele>92.0</ele><time>2026-04-18T18:08:43.188Z</time></trkpt><trkpt lat="44.1045628" lon="12.051728"><ele>92.0</ele><time>2026-04-18T18:08:44.188Z</time></trkpt><trkpt lat="44.10471" lon="12.0517747"><ele>92.0</ele><time>2026-04-18T18:08:45.188Z</time></trkpt><trkpt lat="44.1048617" lon="12.0518249"><ele>92.0</ele><time>2026-04-18T18:08:46.188Z</time></trkpt><trkpt lat="44.1050175" lon="12.0518818"><ele>92.0</ele><time>2026-04-18T18:08:47.188Z</time></trkpt><trkpt lat="44.1051771" lon="12.051946"><ele>92.0</ele><time>2026-04-18T18:08:48.188Z</time></trkpt><trkpt lat="44.1053381" lon="12.0520181"><ele>92.0</ele><time>2026-04-18T18:08:49.188Z</time></trkpt><trkpt lat="44.1054995" lon="12.0521008"><ele>92.0</ele><time>2026-04-18T18:08:50.188Z</time></trkpt><trkpt lat="44.1056564" lon="12.052193"><ele>92.0</ele><time>2026-04-18T18:08:51.188Z</time></trkpt><trkpt lat="44.1058098" lon="12.0522902"><ele>92.0</ele><time>2026-04-18T18:08:52.188Z</time></trkpt><trkpt lat="44.1059599" lon="12.0523864"><ele>92.0</ele><time>2026-04-18T18:08:53.188Z</time></trkpt><trkpt lat="44.1061109" lon="12.052484"><ele>91.0</ele><time>2026-04-18T18:08:54.188Z</time></trkpt><trkpt lat="44.1062633" lon="12.0525828"><ele>90.0</ele><time>2026-04-18T18:08:55.188Z</time></trkpt><trkpt lat="44.1064202" lon="12.0526848"><ele>89.0</ele><time>2026-04-18T18:08:56.187Z</time></trkpt><trkpt lat="44.1065791" lon="12.052787"><ele>88.66666666666667</ele><time>2026-04-18T18:08:57.188Z</time></trkpt><trkpt lat="44.1067362" lon="12.0528896"><ele>88.33333333333333</ele><time>2026-04-18T18:08:58.188Z</time></trkpt><trkpt lat="44.1068924" lon="12.0529901"><ele>88.0</ele><time>2026-04-18T18:08:59.188Z</time></trkpt><trkpt lat="44.107048" lon="12.05309"><ele>88.0</ele><time>2026-04-18T18:09:00.188Z</time></trkpt><trkpt lat="44.1072053" lon="12.0531903"><ele>88.0</ele><time>2026-04-18T18:09:01.188Z</time></trkpt><trkpt lat="44.1073641" lon="12.0532913"><ele>88.0</ele><time>2026-04-18T18:09:02.187Z</time></trkpt><trkpt lat="44.1075221" lon="12.0533925"><ele>87.33333333333333</ele><time>2026-04-18T18:09:03.187Z</time></trkpt><trkpt lat="44.1076756" lon="12.0534911"><ele>86.66666666666667</ele><time>2026-04-18T18:09:04.187Z</time></trkpt><trkpt lat="44.10782" lon="12.0535856"><ele>86.0</ele><time>2026-04-18T18:09:05.188Z</time></trkpt><trkpt lat="44.107965" lon="12.053681"><ele>86.0</ele><time>2026-04-18T18:09:06.188Z</time></trkpt><trkpt lat="44.1081071" lon="12.0537736"><ele>86.0</ele><time>2026-04-18T18:09:07.188Z</time></trkpt><trkpt lat="44.1082462" lon="12.0538648"><ele>86.0</ele><time>2026-04-18T18:09:08.188Z</time></trkpt><trkpt lat="44.1083832" lon="12.0539546"><ele>85.66666666666667</ele><time>2026-04-18T18:09:09.187Z</time></trkpt><trkpt lat="44.1085191" lon="12.0540411"><ele>85.33333333333333</ele><time>2026-04-18T18:09:10.188Z</time></trkpt><trkpt lat="44.1086592" lon="12.0541325"><ele>85.0</ele><time>2026-04-18T18:09:11.188Z</time></trkpt><trkpt lat="44.1088023" lon="12.0542265"><ele>84.66666666666666</ele><time>2026-04-18T18:09:12.188Z</time></trkpt><trkpt lat="44.1089487" lon="12.0543222"><ele>84.33333333333333</ele><time>2026-04-18T18:09:13.188Z</time></trkpt><trkpt lat="44.1091018" lon="12.0544177"><ele>84.0</ele><time>2026-04-18T18:09:14.188Z</time></trkpt><trkpt lat="44.1092624" lon="12.0545198"><ele>84.0</ele><time>2026-04-18T18:09:15.188Z</time></trkpt><trkpt lat="44.1094194" lon="12.0546229"><ele>84.0</ele><time>2026-04-18T18:09:16.188Z</time></trkpt><trkpt lat="44.1095825" lon="12.0547288"><ele>84.0</ele><time>2026-04-18T18:09:17.188Z</time></trkpt><trkpt lat="44.1097467" lon="12.0548343"><ele>83.66666666666667</ele><time>2026-04-18T18:09:18.187Z</time></trkpt><trkpt lat="44.1099113" lon="12.0549409"><ele>83.33333333333334</ele><time>2026-04-18T18:09:19.187Z</time></trkpt><trkpt lat="44.1100748" lon="12.0550469"><ele>83.0</ele><time>2026-04-18T18:09:20.188Z</time></trkpt><trkpt lat="44.1102374" lon="12.0551522"><ele>83.0</ele><time>2026-04-18T18:09:21.188Z</time></trkpt><trkpt lat="44.1103984" lon="12.0552565"><ele>83.0</ele><time>2026-04-18T18:09:22.188Z</time></trkpt><trkpt lat="44.1105558" lon="12.0553591"><ele>83.0</ele><time>2026-04-18T18:09:23.188Z</time></trkpt><trkpt lat="44.1107086" lon="12.0554594"><ele>83.0</ele><time>2026-04-18T18:09:24.188Z</time></trkpt><trkpt lat="44.1108616" lon="12.0555585"><ele>83.0</ele><time>2026-04-18T18:09:25.188Z</time></trkpt><trkpt lat="44.1110211" lon="12.0556586"><ele>83.0</ele><time>2026-04-18T18:09:26.188Z</time></trkpt><trkpt lat="44.1111846" lon="12.0557632"><ele>83.33333333333334</ele><time>2026-04-18T18:09:27.188Z</time></trkpt><trkpt lat="44.1113471" lon="12.055867"><ele>83.66666666666667</ele><time>2026-04-18T18:09:28.188Z</time></trkpt><trkpt lat="44.111507" lon="12.0559693"><ele>84.0</ele><time>2026-04-18T18:09:29.188Z</time></trkpt><trkpt lat="44.1116629" lon="12.0560696"><ele>83.33333333333333</ele><time>2026-04-18T18:09:30.188Z</time></trkpt><trkpt lat="44.111816" lon="12.0561686"><ele>82.66666666666666</ele><time>2026-04-18T18:09:31.188Z</time></trkpt><trkpt lat="44.1119691" lon="12.0562679"><ele>82.0</ele><time>2026-04-18T18:09:32.188Z</time></trkpt><trkpt lat="44.112126" lon="12.0563683"><ele>82.0</ele><time>2026-04-18T18:09:33.188Z</time></trkpt><trkpt lat="44.1122896" lon="12.0564722"><ele>82.0</ele><time>2026-04-18T18:09:34.188Z</time></trkpt><trkpt lat="44.1124582" lon="12.0565804"><ele>82.0</ele><time>2026-04-18T18:09:35.188Z</time></trkpt><trkpt lat="44.1126305" lon="12.0566902"><ele>81.33333333333333</ele><time>2026-04-18T18:09:36.187Z</time></trkpt><trkpt lat="44.1128056" lon="12.0568011"><ele>80.66666666666667</ele><time>2026-04-18T18:09:37.187Z</time></trkpt><trkpt lat="44.1129817" lon="12.0569164"><ele>80.0</ele><time>2026-04-18T18:09:38.188Z</time></trkpt><trkpt lat="44.1131591" lon="12.0570325"><ele>79.66666666666667</ele><time>2026-04-18T18:09:39.188Z</time></trkpt><trkpt lat="44.1133375" lon="12.0571501"><ele>79.33333333333333</ele><time>2026-04-18T18:09:40.188Z</time></trkpt><trkpt lat="44.1135165" lon="12.0572695"><ele>79.0</ele><time>2026-04-18T18:09:41.188Z</time></trkpt><trkpt lat="44.1136954" lon="12.0573884"><ele>79.0</ele><time>2026-04-18T18:09:42.187Z</time></trkpt><trkpt lat="44.1138721" lon="12.0575036"><ele>79.0</ele><time>2026-04-18T18:09:43.188Z</time></trkpt><trkpt lat="44.1140403" lon="12.0576118"><ele>79.0</ele><time>2026-04-18T18:09:44.188Z</time></trkpt><trkpt lat="44.1141992" lon="12.0577142"><ele>79.0</ele><time>2026-04-18T18:09:45.188Z</time></trkpt><trkpt lat="44.11435" lon="12.0578123"><ele>79.0</ele><time>2026-04-18T18:09:46.188Z</time></trkpt><trkpt lat="44.114494" lon="12.0579046"><ele>79.0</ele><time>2026-04-18T18:09:47.187Z</time></trkpt><trkpt lat="44.1146366" lon="12.0579943"><ele>79.0</ele><time>2026-04-18T18:09:48.188Z</time></trkpt><trkpt lat="44.1147767" lon="12.0580757"><ele>79.0</ele><time>2026-04-18T18:09:49.188Z</time></trkpt><trkpt lat="44.11492" lon="12.058145"><ele>79.0</ele><time>2026-04-18T18:09:50.188Z</time></trkpt><trkpt lat="44.1150695" lon="12.0582043"><ele>78.33333333333333</ele><time>2026-04-18T18:09:51.188Z</time></trkpt><trkpt lat="44.115221" lon="12.0582554"><ele>77.66666666666667</ele><time>2026-04-18T18:09:52.188Z</time></trkpt><trkpt lat="44.1153744" lon="12.0582937"><ele>77.0</ele><time>2026-04-18T18:09:53.188Z</time></trkpt><trkpt lat="44.1155283" lon="12.058317"><ele>77.0</ele><time>2026-04-18T18:09:54.188Z</time></trkpt><trkpt lat="44.1156814" lon="12.0583276"><ele>77.0</ele><time>2026-04-18T18:09:55.188Z</time></trkpt><trkpt lat="44.1158309" lon="12.0583256"><ele>77.0</ele><time>2026-04-18T18:09:56.188Z</time></trkpt><trkpt lat="44.1159714" lon="12.058314"><ele>77.0</ele><time>2026-04-18T18:09:57.188Z</time></trkpt><trkpt lat="44.1161061" lon="12.0582944"><ele>77.25</ele><time>2026-04-18T18:09:58.187Z</time></trkpt><trkpt lat="44.1162353" lon="12.0582638"><ele>77.5</ele><time>2026-04-18T18:09:59.188Z</time></trkpt><trkpt lat="44.116361" lon="12.0582283"><ele>77.75</ele><time>2026-04-18T18:10:00.188Z</time></trkpt><trkpt lat="44.1164839" lon="12.0581879"><ele>78.0</ele><time>2026-04-18T18:10:01.188Z</time></trkpt><trkpt lat="44.1166092" lon="12.058143"><ele>78.25</ele><time>2026-04-18T18:10:02.188Z</time></trkpt><trkpt lat="44.1167308" lon="12.0580995"><ele>78.5</ele><time>2026-04-18T18:10:03.187Z</time></trkpt><trkpt lat="44.1168467" lon="12.0580555"><ele>78.75</ele><time>2026-04-18T18:10:04.188Z</time></trkpt><trkpt lat="44.1169653" lon="12.0580082"><ele>79.0</ele><time>2026-04-18T18:10:05.188Z</time></trkpt><trkpt lat="44.1170914" lon="12.0579583"><ele>79.0</ele><time>2026-04-18T18:10:06.188Z</time></trkpt><trkpt lat="44.1172203" lon="12.0579061"><ele>79.0</ele><time>2026-04-18T18:10:07.188Z</time></trkpt><trkpt lat="44.1173503" lon="12.0578541"><ele>79.0</ele><time>2026-04-18T18:10:08.188Z</time></trkpt><trkpt lat="44.1174784" lon="12.0578045"><ele>79.0</ele><time>2026-04-18T18:10:09.188Z</time></trkpt><trkpt lat="44.117601" lon="12.0577587"><ele>77.5</ele><time>2026-04-18T18:10:10.188Z</time></trkpt><trkpt lat="44.1177227" lon="12.0577134"><ele>76.0</ele><time>2026-04-18T18:10:11.188Z</time></trkpt><trkpt lat="44.1178465" lon="12.0576715"><ele>74.5</ele><time>2026-04-18T18:10:12.188Z</time></trkpt><trkpt lat="44.1179695" lon="12.0576404"><ele>73.0</ele><time>2026-04-18T18:10:13.188Z</time></trkpt><trkpt lat="44.1180916" lon="12.0576275"><ele>73.0</ele><time>2026-04-18T18:10:14.188Z</time></trkpt><trkpt lat="44.1182129" lon="12.0576328"><ele>73.0</ele><time>2026-04-18T18:10:15.188Z</time></trkpt><trkpt lat="44.1183314" lon="12.0576553"><ele>73.0</ele><time>2026-04-18T18:10:16.188Z</time></trkpt><trkpt lat="44.1184392" lon="12.0576921"><ele>73.0</ele><time>2026-04-18T18:10:17.188Z</time></trkpt><trkpt lat="44.118539" lon="12.0577442"><ele>71.4</ele><time>2026-04-18T18:10:18.188Z</time></trkpt><trkpt lat="44.1186337" lon="12.0578097"><ele>69.8</ele><time>2026-04-18T18:10:19.188Z</time></trkpt><trkpt lat="44.1187278" lon="12.0578891"><ele>68.2</ele><time>2026-04-18T18:10:20.188Z</time></trkpt><trkpt lat="44.1188217" lon="12.0579806"><ele>66.6</ele><time>2026-04-18T18:10:21.188Z</time></trkpt><trkpt lat="44.1189116" lon="12.058079"><ele>65.0</ele><time>2026-04-18T18:10:22.188Z</time></trkpt><trkpt lat="44.1190018" lon="12.0581819"><ele>65.75</ele><time>2026-04-18T18:10:23.187Z</time></trkpt><trkpt lat="44.1190937" lon="12.0582919"><ele>66.5</ele><time>2026-04-18T18:10:24.187Z</time></trkpt><trkpt lat="44.1191962" lon="12.0584089"><ele>67.25</ele><time>2026-04-18T18:10:25.188Z</time></trkpt><trkpt lat="44.119302" lon="12.0585263"><ele>68.0</ele><time>2026-04-18T18:10:26.187Z</time></trkpt><trkpt lat="44.1194094" lon="12.058646"><ele>68.0</ele><time>2026-04-18T18:10:27.188Z</time></trkpt><trkpt lat="44.1195145" lon="12.0587667"><ele>68.0</ele><time>2026-04-18T18:10:28.188Z</time></trkpt><trkpt lat="44.119619" lon="12.0588877"><ele>68.0</ele><time>2026-04-18T18:10:29.188Z</time></trkpt><trkpt lat="44.1197206" lon="12.0590014"><ele>68.0</ele><time>2026-04-18T18:10:30.188Z</time></trkpt><trkpt lat="44.1198279" lon="12.0590992"><ele>67.25</ele><time>2026-04-18T18:10:31.187Z</time></trkpt><trkpt lat="44.1199421" lon="12.059172"><ele>66.5</ele><time>2026-04-18T18:10:32.188Z</time></trkpt><trkpt lat="44.120057" lon="12.0592225"><ele>65.75</ele><time>2026-04-18T18:10:33.188Z</time></trkpt><trkpt lat="44.1201755" lon="12.0592644"><ele>65.0</ele><time>2026-04-18T18:10:34.188Z</time></trkpt><trkpt lat="44.1202935" lon="12.0593045"><ele>65.0</ele><time>2026-04-18T18:10:35.188Z</time></trkpt><trkpt lat="44.1204142" lon="12.0593442"><ele>65.0</ele><time>2026-04-18T18:10:36.188Z</time></trkpt><trkpt lat="44.1205366" lon="12.0593768"><ele>65.0</ele><time>2026-04-18T18:10:37.188Z</time></trkpt><trkpt lat="44.120659" lon="12.0594031"><ele>65.0</ele><time>2026-04-18T18:10:38.188Z</time></trkpt><trkpt lat="44.1207816" lon="12.0594224"><ele>65.5</ele><time>2026-04-18T18:10:39.188Z</time></trkpt><trkpt lat="44.1209021" lon="12.0594297"><ele>66.0</ele><time>2026-04-18T18:10:40.188Z</time></trkpt><trkpt lat="44.1210212" lon="12.0594311"><ele>66.5</ele><time>2026-04-18T18:10:41.188Z</time></trkpt><trkpt lat="44.1211329" lon="12.0594319"><ele>67.0</ele><time>2026-04-18T18:10:42.188Z</time></trkpt><trkpt lat="44.1212349" lon="12.0594294"><ele>67.0</ele><time>2026-04-18T18:10:43.188Z</time></trkpt><trkpt lat="44.1213373" lon="12.059423"><ele>67.0</ele><time>2026-04-18T18:10:44.188Z</time></trkpt><trkpt lat="44.1214376" lon="12.059416"><ele>67.0</ele><time>2026-04-18T18:10:45.188Z</time></trkpt><trkpt lat="44.1215359" lon="12.0594103"><ele>67.0</ele><time>2026-04-18T18:10:46.187Z</time></trkpt><trkpt lat="44.1216351" lon="12.0594044"><ele>67.0</ele><time>2026-04-18T18:10:47.188Z</time></trkpt><trkpt lat="44.1217337" lon="12.0593973"><ele>67.5</ele><time>2026-04-18T18:10:48.188Z</time></trkpt><trkpt lat="44.1218233" lon="12.0593907"><ele>68.0</ele><time>2026-04-18T18:10:49.187Z</time></trkpt><trkpt lat="44.121907" lon="12.0593836"><ele>68.5</ele><time>2026-04-18T18:10:50.188Z</time></trkpt><trkpt lat="44.1219909" lon="12.0593749"><ele>69.0</ele><time>2026-04-18T18:10:51.188Z</time></trkpt><trkpt lat="44.1220704" lon="12.0593631"><ele>69.5</ele><time>2026-04-18T18:10:52.188Z</time></trkpt><trkpt lat="44.1221538" lon="12.0593507"><ele>70.0</ele><time>2026-04-18T18:10:53.188Z</time></trkpt><trkpt lat="44.122239" lon="12.0593417"><ele>70.0</ele><time>2026-04-18T18:10:54.188Z</time></trkpt><trkpt lat="44.1223214" lon="12.0593332"><ele>70.0</ele><time>2026-04-18T18:10:55.188Z</time></trkpt><trkpt lat="44.1224038" lon="12.0593275"><ele>70.0</ele><time>2026-04-18T18:10:56.188Z</time></trkpt><trkpt lat="44.1224774" lon="12.0593205"><ele>70.0</ele><time>2026-04-18T18:10:57.188Z</time></trkpt><trkpt lat="44.1225405" lon="12.0593155"><ele>70.0</ele><time>2026-04-18T18:10:58.188Z</time></trkpt><trkpt lat="44.1226366" lon="12.0593045"><ele>70.0</ele><time>2026-04-18T18:11:00.188Z</time></trkpt><trkpt lat="44.1227128" lon="12.0592955"><ele>70.2</ele><time>2026-04-18T18:11:02.188Z</time></trkpt><trkpt lat="44.1228249" lon="12.0592809"><ele>70.4</ele><time>2026-04-18T18:11:04.188Z</time></trkpt><trkpt lat="44.1229054" lon="12.0592779"><ele>70.6</ele><time>2026-04-18T18:11:05.188Z</time></trkpt><trkpt lat="44.1229993" lon="12.0592661"><ele>70.8</ele><time>2026-04-18T18:11:06.188Z</time></trkpt><trkpt lat="44.1231193" lon="12.0592396"><ele>71.0</ele><time>2026-04-18T18:11:07.188Z</time></trkpt><trkpt lat="44.1232485" lon="12.0592042"><ele>70.33333333333334</ele><time>2026-04-18T18:11:08.188Z</time></trkpt><trkpt lat="44.1234063" lon="12.0591526"><ele>69.66666666666667</ele><time>2026-04-18T18:11:09.188Z</time></trkpt><trkpt lat="44.1235891" lon="12.0590894"><ele>69.0</ele><time>2026-04-18T18:11:10.188Z</time></trkpt><trkpt lat="44.1238048" lon="12.059013"><ele>73.0</ele><time>2026-04-18T18:11:11.188Z</time></trkpt><trkpt lat="44.1240437" lon="12.058931"><ele>77.0</ele><time>2026-04-18T18:11:12.188Z</time></trkpt><trkpt lat="44.1242895" lon="12.0588429"><ele>77.0</ele><time>2026-04-18T18:11:13.188Z</time></trkpt><trkpt lat="44.1245358" lon="12.0587527"><ele>77.0</ele><time>2026-04-18T18:11:14.188Z</time></trkpt><trkpt lat="44.1247638" lon="12.0586706"><ele>76.33333333333334</ele><time>2026-04-18T18:11:15.187Z</time></trkpt><trkpt lat="44.1249787" lon="12.0585951"><ele>75.66666666666667</ele><time>2026-04-18T18:11:16.188Z</time></trkpt><trkpt lat="44.1251784" lon="12.0585267"><ele>75.0</ele><time>2026-04-18T18:11:17.188Z</time></trkpt><trkpt lat="44.125373" lon="12.0584706"><ele>75.0</ele><time>2026-04-18T18:11:18.188Z</time></trkpt><trkpt lat="44.1255743" lon="12.058436"><ele>75.0</ele><time>2026-04-18T18:11:19.188Z</time></trkpt><trkpt lat="44.1257787" lon="12.0584206"><ele>75.0</ele><time>2026-04-18T18:11:20.187Z</time></trkpt><trkpt lat="44.1259862" lon="12.0584246"><ele>75.0</ele><time>2026-04-18T18:11:21.188Z</time></trkpt><trkpt lat="44.1261925" lon="12.0584512"><ele>75.0</ele><time>2026-04-18T18:11:22.188Z</time></trkpt><trkpt lat="44.1264015" lon="12.0585021"><ele>75.0</ele><time>2026-04-18T18:11:23.187Z</time></trkpt><trkpt lat="44.1266094" lon="12.0585624"><ele>75.0</ele><time>2026-04-18T18:11:24.188Z</time></trkpt><trkpt lat="44.1268158" lon="12.0586263"><ele>75.0</ele><time>2026-04-18T18:11:25.188Z</time></trkpt><trkpt lat="44.1270188" lon="12.0586939"><ele>75.0</ele><time>2026-04-18T18:11:26.188Z</time></trkpt><trkpt lat="44.1272196" lon="12.0587598"><ele>77.0</ele><time>2026-04-18T18:11:27.188Z</time></trkpt><trkpt lat="44.1274132" lon="12.0588235"><ele>79.0</ele><time>2026-04-18T18:11:28.188Z</time></trkpt><trkpt lat="44.1276014" lon="12.0588838"><ele>81.0</ele><time>2026-04-18T18:11:29.188Z</time></trkpt><trkpt lat="44.1277842" lon="12.0589427"><ele>81.0</ele><time>2026-04-18T18:11:30.188Z</time></trkpt><trkpt lat="44.1279646" lon="12.0590019"><ele>81.0</ele><time>2026-04-18T18:11:31.188Z</time></trkpt><trkpt lat="44.1281474" lon="12.0590613"><ele>81.0</ele><time>2026-04-18T18:11:32.188Z</time></trkpt><trkpt lat="44.1283323" lon="12.0591204"><ele>79.66666666666667</ele><time>2026-04-18T18:11:33.188Z</time></trkpt><trkpt lat="44.12852" lon="12.0591792"><ele>78.33333333333334</ele><time>2026-04-18T18:11:34.188Z</time></trkpt><trkpt lat="44.1287076" lon="12.059239"><ele>77.0</ele><time>2026-04-18T18:11:35.188Z</time></trkpt><trkpt lat="44.1288958" lon="12.0592987"><ele>78.0</ele><time>2026-04-18T18:11:36.188Z</time></trkpt><trkpt lat="44.1290841" lon="12.059356"><ele>79.0</ele><time>2026-04-18T18:11:37.188Z</time></trkpt><trkpt lat="44.1292762" lon="12.059406"><ele>80.0</ele><time>2026-04-18T18:11:38.188Z</time></trkpt><trkpt lat="44.1294698" lon="12.0594582"><ele>80.0</ele><time>2026-04-18T18:11:39.188Z</time></trkpt><trkpt lat="44.1296648" lon="12.0595109"><ele>80.0</ele><time>2026-04-18T18:11:40.188Z</time></trkpt><trkpt lat="44.1298587" lon="12.0595615"><ele>80.0</ele><time>2026-04-18T18:11:41.188Z</time></trkpt><trkpt lat="44.1300525" lon="12.0596089"><ele>77.66666666666667</ele><time>2026-04-18T18:11:42.188Z</time></trkpt><trkpt lat="44.130249" lon="12.0596543"><ele>75.33333333333333</ele><time>2026-04-18T18:11:43.188Z</time></trkpt><trkpt lat="44.1304395" lon="12.0596978"><ele>73.0</ele><time>2026-04-18T18:11:44.188Z</time></trkpt><trkpt lat="44.1306226" lon="12.0597412"><ele>71.0</ele><time>2026-04-18T18:11:45.188Z</time></trkpt><trkpt lat="44.1307971" lon="12.0597834"><ele>69.0</ele><time>2026-04-18T18:11:46.188Z</time></trkpt><trkpt lat="44.1309625" lon="12.0598232"><ele>67.0</ele><time>2026-04-18T18:11:47.188Z</time></trkpt><trkpt lat="44.1311246" lon="12.0598595"><ele>67.0</ele><time>2026-04-18T18:11:48.188Z</time></trkpt><trkpt lat="44.1312803" lon="12.0598963"><ele>67.0</ele><time>2026-04-18T18:11:49.188Z</time></trkpt><trkpt lat="44.1314389" lon="12.0599336"><ele>67.0</ele><time>2026-04-18T18:11:50.188Z</time></trkpt><trkpt lat="44.1315993" lon="12.0599727"><ele>66.0</ele><time>2026-04-18T18:11:51.188Z</time></trkpt><trkpt lat="44.1317641" lon="12.0600137"><ele>65.0</ele><time>2026-04-18T18:11:52.188Z</time></trkpt><trkpt lat="44.1319345" lon="12.0600568"><ele>64.0</ele><time>2026-04-18T18:11:53.188Z</time></trkpt><trkpt lat="44.1321076" lon="12.0601012"><ele>64.0</ele><time>2026-04-18T18:11:54.187Z</time></trkpt><trkpt lat="44.1322816" lon="12.0601442"><ele>64.0</ele><time>2026-04-18T18:11:55.188Z</time></trkpt><trkpt lat="44.1324501" lon="12.0601871"><ele>64.0</ele><time>2026-04-18T18:11:56.188Z</time></trkpt><trkpt lat="44.1326131" lon="12.0602297"><ele>63.33333333333333</ele><time>2026-04-18T18:11:57.188Z</time></trkpt><trkpt lat="44.1327706" lon="12.0602733"><ele>62.66666666666667</ele><time>2026-04-18T18:11:58.188Z</time></trkpt><trkpt lat="44.1329296" lon="12.0603346"><ele>62.0</ele><time>2026-04-18T18:11:59.188Z</time></trkpt><trkpt lat="44.1330828" lon="12.0604121"><ele>60.333333333333336</ele><time>2026-04-18T18:12:00.187Z</time></trkpt><trkpt lat="44.1332256" lon="12.0605039"><ele>58.66666666666667</ele><time>2026-04-18T18:12:01.188Z</time></trkpt><trkpt lat="44.1333635" lon="12.0606071"><ele>57.0</ele><time>2026-04-18T18:12:02.188Z</time></trkpt><trkpt lat="44.1334852" lon="12.0607173"><ele>56.8</ele><time>2026-04-18T18:12:03.188Z</time></trkpt><trkpt lat="44.1335953" lon="12.0608238"><ele>56.6</ele><time>2026-04-18T18:12:04.188Z</time></trkpt><trkpt lat="44.1336833" lon="12.0609147"><ele>56.39999999999999</ele><time>2026-04-18T18:12:05.188Z</time></trkpt><trkpt lat="44.1337454" lon="12.0610005"><ele>56.199999999999996</ele><time>2026-04-18T18:12:06.188Z</time></trkpt><trkpt lat="44.1337881" lon="12.0610963"><ele>56.0</ele><time>2026-04-18T18:12:07.188Z</time></trkpt><trkpt lat="44.1338266" lon="12.0612293"><ele>56.0</ele><time>2026-04-18T18:12:08.188Z</time></trkpt><trkpt lat="44.1338589" lon="12.0613725"><ele>56.0</ele><time>2026-04-18T18:12:09.188Z</time></trkpt><trkpt lat="44.133909" lon="12.0615029"><ele>56.0</ele><time>2026-04-18T18:12:10.187Z</time></trkpt><trkpt lat="44.133983" lon="12.0616334"><ele>56.0</ele><time>2026-04-18T18:12:11.188Z</time></trkpt><trkpt lat="44.1340517" lon="12.0617814"><ele>55.0</ele><time>2026-04-18T18:12:12.188Z</time></trkpt><trkpt lat="44.134102" lon="12.0619617"><ele>54.0</ele><time>2026-04-18T18:12:13.188Z</time></trkpt><trkpt lat="44.1341461" lon="12.0621287"><ele>53.0</ele><time>2026-04-18T18:12:14.188Z</time></trkpt><trkpt lat="44.134186" lon="12.062282"><ele>52.0</ele><time>2026-04-18T18:12:15.188Z</time></trkpt><trkpt lat="44.1342204" lon="12.0624243"><ele>51.666666666666664</ele><time>2026-04-18T18:12:16.188Z</time></trkpt><trkpt lat="44.1342407" lon="12.062547"><ele>51.33333333333333</ele><time>2026-04-18T18:12:17.188Z</time></trkpt><trkpt lat="44.1342415" lon="12.0626638"><ele>51.0</ele><time>2026-04-18T18:12:18.188Z</time></trkpt><trkpt lat="44.1342326" lon="12.0627837"><ele>50.66666666666667</ele><time>2026-04-18T18:12:19.188Z</time></trkpt><trkpt lat="44.1342361" lon="12.0628899"><ele>50.333333333333336</ele><time>2026-04-18T18:12:20.188Z</time></trkpt><trkpt lat="44.1342641" lon="12.0629874"><ele>50.0</ele><time>2026-04-18T18:12:21.188Z</time></trkpt><trkpt lat="44.1343142" lon="12.0630706"><ele>50.0</ele><time>2026-04-18T18:12:22.188Z</time></trkpt><trkpt lat="44.1343781" lon="12.063152"><ele>50.0</ele><time>2026-04-18T18:12:23.188Z</time></trkpt><trkpt lat="44.1344463" lon="12.063247"><ele>50.0</ele><time>2026-04-18T18:12:24.188Z</time></trkpt><trkpt lat="44.1345188" lon="12.0633602"><ele>50.0</ele><time>2026-04-18T18:12:25.188Z</time></trkpt><trkpt lat="44.1345921" lon="12.0634864"><ele>50.0</ele><time>2026-04-18T18:12:26.188Z</time></trkpt><trkpt lat="44.1346711" lon="12.063607"><ele>50.0</ele><time>2026-04-18T18:12:27.188Z</time></trkpt><trkpt lat="44.1347574" lon="12.0637292"><ele>50.0</ele><time>2026-04-18T18:12:28.188Z</time></trkpt><trkpt lat="44.1348482" lon="12.0638516"><ele>50.0</ele><time>2026-04-18T18:12:29.188Z</time></trkpt><trkpt lat="44.134946" lon="12.0639741"><ele>50.0</ele><time>2026-04-18T18:12:30.188Z</time></trkpt><trkpt lat="44.1350495" lon="12.0640915"><ele>49.5</ele><time>2026-04-18T18:12:31.187Z</time></trkpt><trkpt lat="44.1351574" lon="12.0642064"><ele>49.0</ele><time>2026-04-18T18:12:32.188Z</time></trkpt><trkpt lat="44.1352673" lon="12.0643246"><ele>48.5</ele><time>2026-04-18T18:12:33.187Z</time></trkpt><trkpt lat="44.1353839" lon="12.064451"><ele>48.0</ele><time>2026-04-18T18:12:34.187Z</time></trkpt><trkpt lat="44.1355094" lon="12.0645797"><ele>48.0</ele><time>2026-04-18T18:12:35.188Z</time></trkpt><trkpt lat="44.1356621" lon="12.0647233"><ele>48.0</ele><time>2026-04-18T18:12:36.188Z</time></trkpt><trkpt lat="44.1358467" lon="12.0648893"><ele>48.0</ele><time>2026-04-18T18:12:37.188Z</time></trkpt><trkpt lat="44.1360471" lon="12.0650734"><ele>48.0</ele><time>2026-04-18T18:12:38.188Z</time></trkpt><trkpt lat="44.1362658" lon="12.0652797"><ele>48.0</ele><time>2026-04-18T18:12:39.188Z</time></trkpt><trkpt lat="44.1364985" lon="12.0654684"><ele>48.0</ele><time>2026-04-18T18:12:40.188Z</time></trkpt><trkpt lat="44.1367548" lon="12.0656479"><ele>48.0</ele><time>2026-04-18T18:12:41.188Z</time></trkpt><trkpt lat="44.137028" lon="12.0658159"><ele>48.0</ele><time>2026-04-18T18:12:42.187Z</time></trkpt><trkpt lat="44.1373163" lon="12.0659722"><ele>48.0</ele><time>2026-04-18T18:12:43.188Z</time></trkpt><trkpt lat="44.1376087" lon="12.0661197"><ele>49.0</ele><time>2026-04-18T18:12:44.188Z</time></trkpt><trkpt lat="44.1379099" lon="12.0662685"><ele>50.0</ele><time>2026-04-18T18:12:45.188Z</time></trkpt><trkpt lat="44.1382185" lon="12.0664176"><ele>50.0</ele><time>2026-04-18T18:12:46.188Z</time></trkpt><trkpt lat="44.1385331" lon="12.0665702"><ele>50.0</ele><time>2026-04-18T18:12:47.188Z</time></trkpt><trkpt lat="44.1388528" lon="12.0667253"><ele>49.5</ele><time>2026-04-18T18:12:48.188Z</time></trkpt><trkpt lat="44.1391668" lon="12.0668761"><ele>49.0</ele><time>2026-04-18T18:12:49.188Z</time></trkpt><trkpt lat="44.1394572" lon="12.0670145"><ele>49.0</ele><time>2026-04-18T18:12:50.188Z</time></trkpt><trkpt lat="44.13974" lon="12.0671506"><ele>49.0</ele><time>2026-04-18T18:12:51.188Z</time></trkpt><trkpt lat="44.1400154" lon="12.0672814"><ele>49.0</ele><time>2026-04-18T18:12:52.188Z</time></trkpt><trkpt lat="44.1402813" lon="12.0674071"><ele>49.0</ele><time>2026-04-18T18:12:53.188Z</time></trkpt><trkpt lat="44.1405419" lon="12.0675308"><ele>48.5</ele><time>2026-04-18T18:12:54.188Z</time></trkpt><trkpt lat="44.1407993" lon="12.0676552"><ele>48.0</ele><time>2026-04-18T18:12:55.188Z</time></trkpt><trkpt lat="44.1410529" lon="12.0677799"><ele>48.0</ele><time>2026-04-18T18:12:56.187Z</time></trkpt><trkpt lat="44.1412995" lon="12.0679024"><ele>48.0</ele><time>2026-04-18T18:12:57.188Z</time></trkpt><trkpt lat="44.1415284" lon="12.0680208"><ele>48.33333333333333</ele><time>2026-04-18T18:12:58.188Z</time></trkpt><trkpt lat="44.1417412" lon="12.0681414"><ele>48.666666666666664</ele><time>2026-04-18T18:12:59.188Z</time></trkpt><trkpt lat="44.1419356" lon="12.0682637"><ele>49.0</ele><time>2026-04-18T18:13:00.188Z</time></trkpt><trkpt lat="44.1421119" lon="12.068383"><ele>49.0</ele><time>2026-04-18T18:13:01.188Z</time></trkpt><trkpt lat="44.1422585" lon="12.0684916"><ele>49.0</ele><time>2026-04-18T18:13:02.188Z</time></trkpt><trkpt lat="44.1423895" lon="12.0686085"><ele>49.0</ele><time>2026-04-18T18:13:03.187Z</time></trkpt><trkpt lat="44.1424945" lon="12.0687299"><ele>49.0</ele><time>2026-04-18T18:13:04.188Z</time></trkpt><trkpt lat="44.1425852" lon="12.068866"><ele>49.0</ele><time>2026-04-18T18:13:05.188Z</time></trkpt><trkpt lat="44.1426794" lon="12.06899"><ele>49.0</ele><time>2026-04-18T18:13:06.188Z</time></trkpt><trkpt lat="44.1427976" lon="12.0690766"><ele>49.0</ele><time>2026-04-18T18:13:07.187Z</time></trkpt><trkpt lat="44.1429422" lon="12.0691665"><ele>49.0</ele><time>2026-04-18T18:13:08.188Z</time></trkpt><trkpt lat="44.1431001" lon="12.069308"><ele>49.0</ele><time>2026-04-18T18:13:09.188Z</time></trkpt><trkpt lat="44.1432706" lon="12.0694925"><ele>49.0</ele><time>2026-04-18T18:13:10.188Z</time></trkpt><trkpt lat="44.143449" lon="12.069706"><ele>49.0</ele><time>2026-04-18T18:13:11.188Z</time></trkpt><trkpt lat="44.1436465" lon="12.0699429"><ele>49.0</ele><time>2026-04-18T18:13:12.188Z</time></trkpt><trkpt lat="44.1438562" lon="12.0701929"><ele>49.0</ele><time>2026-04-18T18:13:13.188Z</time></trkpt><trkpt lat="44.1440751" lon="12.0704601"><ele>49.0</ele><time>2026-04-18T18:13:14.188Z</time></trkpt><trkpt lat="44.1442907" lon="12.0707215"><ele>48.5</ele><time>2026-04-18T18:13:15.188Z</time></trkpt><trkpt lat="44.1444908" lon="12.0709581"><ele>48.0</ele><time>2026-04-18T18:13:16.188Z</time></trkpt><trkpt lat="44.1446887" lon="12.0711717"><ele>48.0</ele><time>2026-04-18T18:13:17.188Z</time></trkpt><trkpt lat="44.1448896" lon="12.0713575"><ele>48.0</ele><time>2026-04-18T18:13:18.188Z</time></trkpt><trkpt lat="44.145088" lon="12.0715052"><ele>47.333333333333336</ele><time>2026-04-18T18:13:19.188Z</time></trkpt><trkpt lat="44.1452839" lon="12.0716186"><ele>46.66666666666667</ele><time>2026-04-18T18:13:20.188Z</time></trkpt><trkpt lat="44.1454744" lon="12.071699"><ele>46.0</ele><time>2026-04-18T18:13:21.188Z</time></trkpt><trkpt lat="44.1456448" lon="12.0717524"><ele>46.0</ele><time>2026-04-18T18:13:22.188Z</time></trkpt><trkpt lat="44.1458075" lon="12.0717919"><ele>46.0</ele><time>2026-04-18T18:13:23.188Z</time></trkpt><trkpt lat="44.1459556" lon="12.0718217"><ele>46.0</ele><time>2026-04-18T18:13:24.188Z</time></trkpt><trkpt lat="44.1460831" lon="12.0718497"><ele>46.0</ele><time>2026-04-18T18:13:25.188Z</time></trkpt><trkpt lat="44.1462012" lon="12.0718853"><ele>46.0</ele><time>2026-04-18T18:13:26.188Z</time></trkpt><trkpt lat="44.1463127" lon="12.0719477"><ele>46.0</ele><time>2026-04-18T18:13:27.188Z</time></trkpt><trkpt lat="44.14642" lon="12.072052"><ele>46.0</ele><time>2026-04-18T18:13:28.188Z</time></trkpt><trkpt lat="44.1465228" lon="12.0721846"><ele>46.0</ele><time>2026-04-18T18:13:29.188Z</time></trkpt><trkpt lat="44.1466172" lon="12.0723477"><ele>46.333333333333336</ele><time>2026-04-18T18:13:30.188Z</time></trkpt><trkpt lat="44.1466898" lon="12.072535"><ele>46.666666666666664</ele><time>2026-04-18T18:13:31.188Z</time></trkpt><trkpt lat="44.1467519" lon="12.0727357"><ele>47.0</ele><time>2026-04-18T18:13:32.188Z</time></trkpt><trkpt lat="44.1468207" lon="12.0729438"><ele>47.0</ele><time>2026-04-18T18:13:33.187Z</time></trkpt><trkpt lat="44.1469029" lon="12.0731587"><ele>47.0</ele><time>2026-04-18T18:13:34.188Z</time></trkpt><trkpt lat="44.1469906" lon="12.0733693"><ele>47.0</ele><time>2026-04-18T18:13:35.187Z</time></trkpt><trkpt lat="44.1470814" lon="12.0735809"><ele>47.0</ele><time>2026-04-18T18:13:36.188Z</time></trkpt><trkpt lat="44.1471703" lon="12.0737993"><ele>47.0</ele><time>2026-04-18T18:13:37.188Z</time></trkpt><trkpt lat="44.1472574" lon="12.0740276"><ele>47.0</ele><time>2026-04-18T18:13:38.188Z</time></trkpt><trkpt lat="44.1473428" lon="12.0742628"><ele>47.0</ele><time>2026-04-18T18:13:39.188Z</time></trkpt><trkpt lat="44.1474343" lon="12.0745126"><ele>47.0</ele><time>2026-04-18T18:13:40.188Z</time></trkpt><trkpt lat="44.1475378" lon="12.0747917"><ele>47.0</ele><time>2026-04-18T18:13:41.188Z</time></trkpt><trkpt lat="44.1476494" lon="12.0750995"><ele>46.5</ele><time>2026-04-18T18:13:42.188Z</time></trkpt><trkpt lat="44.1477651" lon="12.0754368"><ele>46.0</ele><time>2026-04-18T18:13:43.188Z</time></trkpt><trkpt lat="44.1478824" lon="12.0757966"><ele>46.0</ele><time>2026-04-18T18:13:44.188Z</time></trkpt><trkpt lat="44.1480015" lon="12.0761696"><ele>46.0</ele><time>2026-04-18T18:13:45.188Z</time></trkpt><trkpt lat="44.1481268" lon="12.076559"><ele>45.0</ele><time>2026-04-18T18:13:46.188Z</time></trkpt><trkpt lat="44.1482508" lon="12.0769381"><ele>44.0</ele><time>2026-04-18T18:13:47.187Z</time></trkpt><trkpt lat="44.148369" lon="12.0773073"><ele>44.5</ele><time>2026-04-18T18:13:48.188Z</time></trkpt><trkpt lat="44.1484914" lon="12.0776766"><ele>45.0</ele><time>2026-04-18T18:13:49.188Z</time></trkpt><trkpt lat="44.1486177" lon="12.0780538"><ele>45.0</ele><time>2026-04-18T18:13:50.188Z</time></trkpt><trkpt lat="44.1487416" lon="12.0784395"><ele>45.0</ele><time>2026-04-18T18:13:51.188Z</time></trkpt><trkpt lat="44.1488589" lon="12.0788308"><ele>44.5</ele><time>2026-04-18T18:13:52.188Z</time></trkpt><trkpt lat="44.1489791" lon="12.0792366"><ele>44.0</ele><time>2026-04-18T18:13:53.188Z</time></trkpt><trkpt lat="44.1491089" lon="12.0796479"><ele>43.5</ele><time>2026-04-18T18:13:54.188Z</time></trkpt><trkpt lat="44.1492435" lon="12.0800681"><ele>43.0</ele><time>2026-04-18T18:13:55.188Z</time></trkpt><trkpt lat="44.1493824" lon="12.0804942"><ele>43.0</ele><time>2026-04-18T18:13:56.188Z</time></trkpt><trkpt lat="44.1495214" lon="12.0809204"><ele>43.0</ele><time>2026-04-18T18:13:57.188Z</time></trkpt><trkpt lat="44.1496503" lon="12.0813146"><ele>43.0</ele><time>2026-04-18T18:13:58.188Z</time></trkpt><trkpt lat="44.1497719" lon="12.0816884"><ele>43.0</ele><time>2026-04-18T18:13:59.188Z</time></trkpt><trkpt lat="44.1498844" lon="12.0820394"><ele>42.5</ele><time>2026-04-18T18:14:00.188Z</time></trkpt><trkpt lat="44.1499925" lon="12.0823688"><ele>42.0</ele><time>2026-04-18T18:14:01.188Z</time></trkpt><trkpt lat="44.1500921" lon="12.0826727"><ele>42.0</ele><time>2026-04-18T18:14:02.188Z</time></trkpt><trkpt lat="44.1501862" lon="12.0829591"><ele>42.0</ele><time>2026-04-18T18:14:03.188Z</time></trkpt><trkpt lat="44.1502739" lon="12.0832253"><ele>42.0</ele><time>2026-04-18T18:14:04.188Z</time></trkpt><trkpt lat="44.1503503" lon="12.0834665"><ele>42.0</ele><time>2026-04-18T18:14:05.188Z</time></trkpt><trkpt lat="44.1504127" lon="12.0836695"><ele>42.0</ele><time>2026-04-18T18:14:06.188Z</time></trkpt><trkpt lat="44.1504665" lon="12.0838567"><ele>42.0</ele><time>2026-04-18T18:14:07.188Z</time></trkpt><trkpt lat="44.1505086" lon="12.0840404"><ele>42.0</ele><time>2026-04-18T18:14:08.188Z</time></trkpt><trkpt lat="44.1505245" lon="12.0842201"><ele>42.0</ele><time>2026-04-18T18:14:09.188Z</time></trkpt><trkpt lat="44.1505299" lon="12.0843791"><ele>42.0</ele><time>2026-04-18T18:14:10.188Z</time></trkpt><trkpt lat="44.1505548" lon="12.0845022"><ele>42.0</ele><time>2026-04-18T18:14:11.188Z</time></trkpt><trkpt lat="44.1506108" lon="12.0846198"><ele>42.0</ele><time>2026-04-18T18:14:12.188Z</time></trkpt><trkpt lat="44.1506971" lon="12.0847163"><ele>42.0</ele><time>2026-04-18T18:14:13.188Z</time></trkpt><trkpt lat="44.1507977" lon="12.0848113"><ele>42.0</ele><time>2026-04-18T18:14:14.188Z</time></trkpt><trkpt lat="44.1509" lon="12.0849507"><ele>42.0</ele><time>2026-04-18T18:14:15.187Z</time></trkpt><trkpt lat="44.1510074" lon="12.0851225"><ele>42.0</ele><time>2026-04-18T18:14:16.188Z</time></trkpt><trkpt lat="44.151124" lon="12.0853114"><ele>42.0</ele><time>2026-04-18T18:14:17.188Z</time></trkpt><trkpt lat="44.1512646" lon="12.0855249"><ele>42.0</ele><time>2026-04-18T18:14:18.188Z</time></trkpt><trkpt lat="44.1514221" lon="12.0857631"><ele>42.0</ele><time>2026-04-18T18:14:19.188Z</time></trkpt><trkpt lat="44.1515863" lon="12.0860215"><ele>40.5</ele><time>2026-04-18T18:14:20.187Z</time></trkpt><trkpt lat="44.1517667" lon="12.0863116"><ele>39.0</ele><time>2026-04-18T18:14:21.187Z</time></trkpt><trkpt lat="44.1519548" lon="12.0866248"><ele>37.5</ele><time>2026-04-18T18:14:22.188Z</time></trkpt><trkpt lat="44.1521454" lon="12.0869525"><ele>36.0</ele><time>2026-04-18T18:14:23.188Z</time></trkpt><trkpt lat="44.1523505" lon="12.0872883"><ele>35.5</ele><time>2026-04-18T18:14:24.188Z</time></trkpt><trkpt lat="44.1525666" lon="12.0876307"><ele>35.0</ele><time>2026-04-18T18:14:25.188Z</time></trkpt><trkpt lat="44.1527834" lon="12.0879711"><ele>35.0</ele><time>2026-04-18T18:14:26.188Z</time></trkpt><trkpt lat="44.1530019" lon="12.0883169"><ele>35.0</ele><time>2026-04-18T18:14:27.188Z</time></trkpt><trkpt lat="44.1532147" lon="12.088654"><ele>34.5</ele><time>2026-04-18T18:14:28.187Z</time></trkpt><trkpt lat="44.1534273" lon="12.0889897"><ele>34.0</ele><time>2026-04-18T18:14:29.188Z</time></trkpt><trkpt lat="44.1536358" lon="12.0893194"><ele>33.5</ele><time>2026-04-18T18:14:30.188Z</time></trkpt><trkpt lat="44.1538431" lon="12.0896446"><ele>33.0</ele><time>2026-04-18T18:14:31.188Z</time></trkpt><trkpt lat="44.1540455" lon="12.0899624"><ele>33.0</ele><time>2026-04-18T18:14:32.188Z</time></trkpt><trkpt lat="44.1542427" lon="12.0902727"><ele>33.0</ele><time>2026-04-18T18:14:33.188Z</time></trkpt><trkpt lat="44.1544351" lon="12.090574"><ele>33.5</ele><time>2026-04-18T18:14:34.188Z</time></trkpt><trkpt lat="44.1546225" lon="12.0908671"><ele>34.0</ele><time>2026-04-18T18:14:35.188Z</time></trkpt><trkpt lat="44.1548086" lon="12.0911511"><ele>34.0</ele><time>2026-04-18T18:14:36.188Z</time></trkpt><trkpt lat="44.1549992" lon="12.0914271"><ele>34.0</ele><time>2026-04-18T18:14:37.187Z</time></trkpt><trkpt lat="44.1551973" lon="12.0916943"><ele>34.0</ele><time>2026-04-18T18:14:38.187Z</time></trkpt><trkpt lat="44.1554062" lon="12.0919513"><ele>34.0</ele><time>2026-04-18T18:14:39.188Z</time></trkpt><trkpt lat="44.1556218" lon="12.0921954"><ele>34.0</ele><time>2026-04-18T18:14:40.188Z</time></trkpt><trkpt lat="44.1558469" lon="12.09243"><ele>34.0</ele><time>2026-04-18T18:14:41.188Z</time></trkpt><trkpt lat="44.1560906" lon="12.0926604"><ele>34.0</ele><time>2026-04-18T18:14:42.188Z</time></trkpt><trkpt lat="44.156349" lon="12.0928815"><ele>34.0</ele><time>2026-04-18T18:14:43.188Z</time></trkpt><trkpt lat="44.1566208" lon="12.0930971"><ele>33.0</ele><time>2026-04-18T18:14:44.188Z</time></trkpt><trkpt lat="44.1569029" lon="12.0933116"><ele>32.0</ele><time>2026-04-18T18:14:45.188Z</time></trkpt><trkpt lat="44.1571908" lon="12.0935244"><ele>31.5</ele><time>2026-04-18T18:14:46.187Z</time></trkpt><trkpt lat="44.1574802" lon="12.0937362"><ele>31.0</ele><time>2026-04-18T18:14:47.188Z</time></trkpt><trkpt lat="44.1577664" lon="12.0939458"><ele>31.5</ele><time>2026-04-18T18:14:48.188Z</time></trkpt><trkpt lat="44.1580489" lon="12.0941509"><ele>32.0</ele><time>2026-04-18T18:14:49.188Z</time></trkpt><trkpt lat="44.158338" lon="12.0943546"><ele>32.0</ele><time>2026-04-18T18:14:50.188Z</time></trkpt><trkpt lat="44.158632" lon="12.094558"><ele>32.0</ele><time>2026-04-18T18:14:51.188Z</time></trkpt><trkpt lat="44.1589313" lon="12.0947674"><ele>32.0</ele><time>2026-04-18T18:14:52.188Z</time></trkpt><trkpt lat="44.1592345" lon="12.0949879"><ele>32.0</ele><time>2026-04-18T18:14:53.188Z</time></trkpt><trkpt lat="44.1595421" lon="12.095219"><ele>32.0</ele><time>2026-04-18T18:14:54.187Z</time></trkpt><trkpt lat="44.1598558" lon="12.0954552"><ele>32.0</ele><time>2026-04-18T18:14:55.188Z</time></trkpt><trkpt lat="44.1601734" lon="12.0956964"><ele>32.0</ele><time>2026-04-18T18:14:56.188Z</time></trkpt><trkpt lat="44.1604959" lon="12.0959391"><ele>32.0</ele><time>2026-04-18T18:14:57.188Z</time></trkpt><trkpt lat="44.1608232" lon="12.0961806"><ele>31.5</ele><time>2026-04-18T18:14:58.187Z</time></trkpt><trkpt lat="44.1611521" lon="12.0964237"><ele>31.0</ele><time>2026-04-18T18:14:59.188Z</time></trkpt><trkpt lat="44.1614829" lon="12.0966669"><ele>31.5</ele><time>2026-04-18T18:15:00.188Z</time></trkpt><trkpt lat="44.1618147" lon="12.0969118"><ele>32.0</ele><time>2026-04-18T18:15:01.187Z</time></trkpt><trkpt lat="44.1621474" lon="12.0971569"><ele>31.5</ele><time>2026-04-18T18:15:02.188Z</time></trkpt><trkpt lat="44.1624785" lon="12.0974008"><ele>31.0</ele><time>2026-04-18T18:15:03.188Z</time></trkpt><trkpt lat="44.1627818" lon="12.0976245"><ele>31.0</ele><time>2026-04-18T18:15:04.188Z</time></trkpt><trkpt lat="44.163068" lon="12.0978346"><ele>31.0</ele><time>2026-04-18T18:15:05.188Z</time></trkpt><trkpt lat="44.1633481" lon="12.098038"><ele>30.5</ele><time>2026-04-18T18:15:06.188Z</time></trkpt><trkpt lat="44.1636232" lon="12.09824"><ele>30.0</ele><time>2026-04-18T18:15:07.188Z</time></trkpt><trkpt lat="44.1638951" lon="12.0984392"><ele>29.5</ele><time>2026-04-18T18:15:08.187Z</time></trkpt><trkpt lat="44.1641606" lon="12.0986334"><ele>29.0</ele><time>2026-04-18T18:15:09.187Z</time></trkpt><trkpt lat="44.1644076" lon="12.0988161"><ele>29.0</ele><time>2026-04-18T18:15:10.188Z</time></trkpt><trkpt lat="44.1646421" lon="12.0989889"><ele>29.0</ele><time>2026-04-18T18:15:11.188Z</time></trkpt><trkpt lat="44.1648661" lon="12.0991516"><ele>29.0</ele><time>2026-04-18T18:15:12.188Z</time></trkpt><trkpt lat="44.1650883" lon="12.0993139"><ele>29.0</ele><time>2026-04-18T18:15:13.188Z</time></trkpt><trkpt lat="44.1653024" lon="12.0994686"><ele>29.0</ele><time>2026-04-18T18:15:14.188Z</time></trkpt><trkpt lat="44.165501" lon="12.0996139"><ele>29.0</ele><time>2026-04-18T18:15:15.188Z</time></trkpt><trkpt lat="44.1656899" lon="12.0997485"><ele>29.0</ele><time>2026-04-18T18:15:16.188Z</time></trkpt><trkpt lat="44.1658687" lon="12.0998717"><ele>30.333333333333332</ele><time>2026-04-18T18:15:17.188Z</time></trkpt><trkpt lat="44.1660358" lon="12.0999878"><ele>31.666666666666664</ele><time>2026-04-18T18:15:18.188Z</time></trkpt><trkpt lat="44.1661832" lon="12.1000934"><ele>33.0</ele><time>2026-04-18T18:15:19.188Z</time></trkpt><trkpt lat="44.166317" lon="12.1001939"><ele>33.0</ele><time>2026-04-18T18:15:20.188Z</time></trkpt><trkpt lat="44.1664207" lon="12.1002915"><ele>33.0</ele><time>2026-04-18T18:15:21.187Z</time></trkpt><trkpt lat="44.1664916" lon="12.100386"><ele>33.0</ele><time>2026-04-18T18:15:22.188Z</time></trkpt><trkpt lat="44.1665448" lon="12.1005166"><ele>33.0</ele><time>2026-04-18T18:15:23.188Z</time></trkpt><trkpt lat="44.1665834" lon="12.1006391"><ele>33.0</ele><time>2026-04-18T18:15:24.188Z</time></trkpt><trkpt lat="44.166636" lon="12.1007284"><ele>33.75</ele><time>2026-04-18T18:15:25.188Z</time></trkpt><trkpt lat="44.1667135" lon="12.1007911"><ele>34.5</ele><time>2026-04-18T18:15:26.188Z</time></trkpt><trkpt lat="44.1668211" lon="12.1008132"><ele>35.25</ele><time>2026-04-18T18:15:27.188Z</time></trkpt><trkpt lat="44.1669454" lon="12.1008329"><ele>36.0</ele><time>2026-04-18T18:15:28.188Z</time></trkpt><trkpt lat="44.167083" lon="12.1009128"><ele>36.0</ele><time>2026-04-18T18:15:29.187Z</time></trkpt><trkpt lat="44.1672344" lon="12.1010302"><ele>36.0</ele><time>2026-04-18T18:15:30.188Z</time></trkpt><trkpt lat="44.1674054" lon="12.1011936"><ele>36.0</ele><time>2026-04-18T18:15:31.188Z</time></trkpt><trkpt lat="44.1675805" lon="12.1013879"><ele>36.0</ele><time>2026-04-18T18:15:32.188Z</time></trkpt><trkpt lat="44.1677674" lon="12.1016168"><ele>36.0</ele><time>2026-04-18T18:15:33.188Z</time></trkpt><trkpt lat="44.1679572" lon="12.1018655"><ele>36.0</ele><time>2026-04-18T18:15:34.188Z</time></trkpt><trkpt lat="44.1681472" lon="12.1021134"><ele>36.0</ele><time>2026-04-18T18:15:35.187Z</time></trkpt><trkpt lat="44.1683483" lon="12.1023689"><ele>36.5</ele><time>2026-04-18T18:15:36.188Z</time></trkpt><trkpt lat="44.1685477" lon="12.1026277"><ele>37.0</ele><time>2026-04-18T18:15:37.188Z</time></trkpt><trkpt lat="44.1687437" lon="12.1028868"><ele>37.0</ele><time>2026-04-18T18:15:38.188Z</time></trkpt><trkpt lat="44.1689391" lon="12.1031409"><ele>37.0</ele><time>2026-04-18T18:15:39.188Z</time></trkpt><trkpt lat="44.169129" lon="12.103381"><ele>37.0</ele><time>2026-04-18T18:15:40.187Z</time></trkpt><trkpt lat="44.1693071" lon="12.1036015"><ele>37.0</ele><time>2026-04-18T18:15:41.188Z</time></trkpt><trkpt lat="44.1694833" lon="12.1037983"><ele>37.0</ele><time>2026-04-18T18:15:42.188Z</time></trkpt><trkpt lat="44.1696696" lon="12.1039748"><ele>37.0</ele><time>2026-04-18T18:15:43.188Z</time></trkpt><trkpt lat="44.1698556" lon="12.104134"><ele>37.0</ele><time>2026-04-18T18:15:44.188Z</time></trkpt><trkpt lat="44.1700397" lon="12.1042681"><ele>36.66666666666667</ele><time>2026-04-18T18:15:45.188Z</time></trkpt><trkpt lat="44.1702215" lon="12.1043799"><ele>36.333333333333336</ele><time>2026-04-18T18:15:46.188Z</time></trkpt><trkpt lat="44.1703935" lon="12.1044746"><ele>36.0</ele><time>2026-04-18T18:15:47.188Z</time></trkpt><trkpt lat="44.1705564" lon="12.1045608"><ele>35.75</ele><time>2026-04-18T18:15:48.188Z</time></trkpt><trkpt lat="44.1707079" lon="12.1046405"><ele>35.5</ele><time>2026-04-18T18:15:49.188Z</time></trkpt><trkpt lat="44.1708361" lon="12.1047259"><ele>35.25</ele><time>2026-04-18T18:15:50.187Z</time></trkpt><trkpt lat="44.1709397" lon="12.1048347"><ele>35.0</ele><time>2026-04-18T18:15:51.188Z</time></trkpt><trkpt lat="44.1710242" lon="12.104981"><ele>35.0</ele><time>2026-04-18T18:15:52.188Z</time></trkpt><trkpt lat="44.1710825" lon="12.1051259"><ele>35.0</ele><time>2026-04-18T18:15:53.188Z</time></trkpt><trkpt lat="44.1711173" lon="12.1052904"><ele>35.0</ele><time>2026-04-18T18:15:54.188Z</time></trkpt><trkpt lat="44.1711314" lon="12.1054757"><ele>35.0</ele><time>2026-04-18T18:15:55.188Z</time></trkpt><trkpt lat="44.1711603" lon="12.1056773"><ele>35.33333333333333</ele><time>2026-04-18T18:15:56.188Z</time></trkpt><trkpt lat="44.1712119" lon="12.1058807"><ele>35.666666666666664</ele><time>2026-04-18T18:15:57.188Z</time></trkpt><trkpt lat="44.1712846" lon="12.106072"><ele>36.0</ele><time>2026-04-18T18:15:58.188Z</time></trkpt><trkpt lat="44.1713808" lon="12.1062491"><ele>36.0</ele><time>2026-04-18T18:15:59.187Z</time></trkpt><trkpt lat="44.1714946" lon="12.1064161"><ele>36.0</ele><time>2026-04-18T18:16:00.188Z</time></trkpt><trkpt lat="44.1716149" lon="12.1065744"><ele>36.0</ele><time>2026-04-18T18:16:01.188Z</time></trkpt><trkpt lat="44.171727" lon="12.106718"><ele>35.75</ele><time>2026-04-18T18:16:02.187Z</time></trkpt><trkpt lat="44.1718309" lon="12.1068545"><ele>35.5</ele><time>2026-04-18T18:16:03.188Z</time></trkpt><trkpt lat="44.1719299" lon="12.1069835"><ele>35.25</ele><time>2026-04-18T18:16:04.188Z</time></trkpt><trkpt lat="44.172027" lon="12.1071099"><ele>35.0</ele><time>2026-04-18T18:16:05.188Z</time></trkpt><trkpt lat="44.1721225" lon="12.1072356"><ele>35.0</ele><time>2026-04-18T18:16:06.187Z</time></trkpt><trkpt lat="44.1722125" lon="12.1073511"><ele>35.0</ele><time>2026-04-18T18:16:07.188Z</time></trkpt><trkpt lat="44.172302" lon="12.1074669"><ele>35.0</ele><time>2026-04-18T18:16:08.187Z</time></trkpt><trkpt lat="44.1723902" lon="12.1075802"><ele>35.0</ele><time>2026-04-18T18:16:09.187Z</time></trkpt><trkpt lat="44.172476" lon="12.1076904"><ele>34.75</ele><time>2026-04-18T18:16:10.188Z</time></trkpt><trkpt lat="44.1725629" lon="12.1078056"><ele>34.5</ele><time>2026-04-18T18:16:11.187Z</time></trkpt><trkpt lat="44.172652" lon="12.1079234"><ele>34.25</ele><time>2026-04-18T18:16:12.188Z</time></trkpt><trkpt lat="44.1727486" lon="12.1080431"><ele>34.0</ele><time>2026-04-18T18:16:13.188Z</time></trkpt><trkpt lat="44.1728447" lon="12.1081609"><ele>34.333333333333336</ele><time>2026-04-18T18:16:14.188Z</time></trkpt><trkpt lat="44.1729553" lon="12.108283"><ele>34.666666666666664</ele><time>2026-04-18T18:16:15.188Z</time></trkpt><trkpt lat="44.1730758" lon="12.1084299"><ele>35.0</ele><time>2026-04-18T18:16:16.187Z</time></trkpt><trkpt lat="44.1731984" lon="12.1085952"><ele>34.33333333333333</ele><time>2026-04-18T18:16:17.188Z</time></trkpt><trkpt lat="44.1733169" lon="12.108767"><ele>33.666666666666664</ele><time>2026-04-18T18:16:18.188Z</time></trkpt><trkpt lat="44.1734266" lon="12.10892"><ele>33.0</ele><time>2026-04-18T18:16:19.188Z</time></trkpt><trkpt lat="44.1735324" lon="12.1090607"><ele>33.5</ele><time>2026-04-18T18:16:20.188Z</time></trkpt><trkpt lat="44.173635" lon="12.1091969"><ele>34.0</ele><time>2026-04-18T18:16:21.188Z</time></trkpt><trkpt lat="44.1737387" lon="12.1093351"><ele>34.5</ele><time>2026-04-18T18:16:22.188Z</time></trkpt><trkpt lat="44.1738451" lon="12.1094776"><ele>35.0</ele><time>2026-04-18T18:16:23.188Z</time></trkpt><trkpt lat="44.1739525" lon="12.1096168"><ele>35.0</ele><time>2026-04-18T18:16:24.188Z</time></trkpt><trkpt lat="44.1740587" lon="12.1097554"><ele>35.0</ele><time>2026-04-18T18:16:25.188Z</time></trkpt><trkpt lat="44.1741633" lon="12.1098935"><ele>35.0</ele><time>2026-04-18T18:16:26.188Z</time></trkpt><trkpt lat="44.1742612" lon="12.1100254"><ele>35.0</ele><time>2026-04-18T18:16:27.188Z</time></trkpt><trkpt lat="44.1743497" lon="12.1101492"><ele>35.0</ele><time>2026-04-18T18:16:28.188Z</time></trkpt><trkpt lat="44.1744421" lon="12.1102724"><ele>35.0</ele><time>2026-04-18T18:16:29.188Z</time></trkpt><trkpt lat="44.1745337" lon="12.1103905"><ele>35.0</ele><time>2026-04-18T18:16:30.188Z</time></trkpt><trkpt lat="44.1746281" lon="12.1105104"><ele>35.0</ele><time>2026-04-18T18:16:31.187Z</time></trkpt><trkpt lat="44.1747317" lon="12.1106401"><ele>35.25</ele><time>2026-04-18T18:16:32.188Z</time></trkpt><trkpt lat="44.1748354" lon="12.1107807"><ele>35.5</ele><time>2026-04-18T18:16:33.188Z</time></trkpt><trkpt lat="44.1749448" lon="12.1109248"><ele>35.75</ele><time>2026-04-18T18:16:34.188Z</time></trkpt><trkpt lat="44.1750548" lon="12.11107"><ele>36.0</ele><time>2026-04-18T18:16:35.188Z</time></trkpt><trkpt lat="44.1751648" lon="12.1112155"><ele>35.666666666666664</ele><time>2026-04-18T18:16:36.187Z</time></trkpt><trkpt lat="44.1752778" lon="12.1113691"><ele>35.33333333333333</ele><time>2026-04-18T18:16:37.188Z</time></trkpt><trkpt lat="44.1753864" lon="12.1115344"><ele>35.0</ele><time>2026-04-18T18:16:38.188Z</time></trkpt><trkpt lat="44.1754879" lon="12.1117208"><ele>35.0</ele><time>2026-04-18T18:16:39.188Z</time></trkpt><trkpt lat="44.1755874" lon="12.1119278"><ele>35.0</ele><time>2026-04-18T18:16:40.187Z</time></trkpt><trkpt lat="44.1756818" lon="12.1121425"><ele>35.0</ele><time>2026-04-18T18:16:41.188Z</time></trkpt><trkpt lat="44.1757696" lon="12.1123736"><ele>34.666666666666664</ele><time>2026-04-18T18:16:42.188Z</time></trkpt><trkpt lat="44.1758576" lon="12.1126195"><ele>34.333333333333336</ele><time>2026-04-18T18:16:43.187Z</time></trkpt><trkpt lat="44.1759437" lon="12.112881"><ele>34.0</ele><time>2026-04-18T18:16:44.187Z</time></trkpt><trkpt lat="44.1760279" lon="12.1131555"><ele>33.66666666666667</ele><time>2026-04-18T18:16:45.187Z</time></trkpt><trkpt lat="44.1761115" lon="12.113436"><ele>33.333333333333336</ele><time>2026-04-18T18:16:46.188Z</time></trkpt><trkpt lat="44.1761947" lon="12.1137214"><ele>33.0</ele><time>2026-04-18T18:16:47.188Z</time></trkpt><trkpt lat="44.1762789" lon="12.1140114"><ele>32.5</ele><time>2026-04-18T18:16:48.188Z</time></trkpt><trkpt lat="44.1763633" lon="12.1143011"><ele>32.0</ele><time>2026-04-18T18:16:49.188Z</time></trkpt><trkpt lat="44.1764474" lon="12.1145938"><ele>32.33333333333333</ele><time>2026-04-18T18:16:50.188Z</time></trkpt><trkpt lat="44.1765322" lon="12.1148833"><ele>32.666666666666664</ele><time>2026-04-18T18:16:51.188Z</time></trkpt><trkpt lat="44.1766153" lon="12.115171"><ele>33.0</ele><time>2026-04-18T18:16:52.188Z</time></trkpt><trkpt lat="44.1766971" lon="12.1154557"><ele>33.666666666666664</ele><time>2026-04-18T18:16:53.188Z</time></trkpt><trkpt lat="44.1767809" lon="12.115737"><ele>34.33333333333333</ele><time>2026-04-18T18:16:54.187Z</time></trkpt><trkpt lat="44.1768628" lon="12.1160122"><ele>35.0</ele><time>2026-04-18T18:16:55.187Z</time></trkpt><trkpt lat="44.1769461" lon="12.1162804"><ele>35.0</ele><time>2026-04-18T18:16:56.188Z</time></trkpt><trkpt lat="44.1770323" lon="12.1165419"><ele>35.0</ele><time>2026-04-18T18:16:57.188Z</time></trkpt><trkpt lat="44.177124" lon="12.1167965"><ele>35.0</ele><time>2026-04-18T18:16:58.187Z</time></trkpt><trkpt lat="44.1772215" lon="12.1170444"><ele>34.33333333333333</ele><time>2026-04-18T18:16:59.188Z</time></trkpt><trkpt lat="44.1773255" lon="12.1172845"><ele>33.666666666666664</ele><time>2026-04-18T18:17:00.187Z</time></trkpt><trkpt lat="44.1774367" lon="12.1175104"><ele>33.0</ele><time>2026-04-18T18:17:01.188Z</time></trkpt><trkpt lat="44.1775518" lon="12.1177251"><ele>33.0</ele><time>2026-04-18T18:17:02.188Z</time></trkpt><trkpt lat="44.1776689" lon="12.1179245"><ele>33.0</ele><time>2026-04-18T18:17:03.188Z</time></trkpt><trkpt lat="44.1777837" lon="12.1181125"><ele>33.0</ele><time>2026-04-18T18:17:04.188Z</time></trkpt><trkpt lat="44.1779035" lon="12.1182892"><ele>33.0</ele><time>2026-04-18T18:17:05.188Z</time></trkpt><trkpt lat="44.1780251" lon="12.1184558"><ele>33.0</ele><time>2026-04-18T18:17:06.188Z</time></trkpt><trkpt lat="44.1781514" lon="12.1186098"><ele>33.0</ele><time>2026-04-18T18:17:07.188Z</time></trkpt><trkpt lat="44.178281" lon="12.1187526"><ele>33.0</ele><time>2026-04-18T18:17:08.188Z</time></trkpt><trkpt lat="44.1784078" lon="12.1188846"><ele>33.0</ele><time>2026-04-18T18:17:09.188Z</time></trkpt><trkpt lat="44.1785392" lon="12.1190093"><ele>33.0</ele><time>2026-04-18T18:17:10.188Z</time></trkpt><trkpt lat="44.1786767" lon="12.1191297"><ele>33.0</ele><time>2026-04-18T18:17:11.188Z</time></trkpt><trkpt lat="44.1788278" lon="12.1192531"><ele>33.0</ele><time>2026-04-18T18:17:12.188Z</time></trkpt><trkpt lat="44.1789909" lon="12.1193819"><ele>33.0</ele><time>2026-04-18T18:17:13.188Z</time></trkpt><trkpt lat="44.1791601" lon="12.119523"><ele>33.0</ele><time>2026-04-18T18:17:14.188Z</time></trkpt><trkpt lat="44.1793338" lon="12.1196678"><ele>33.0</ele><time>2026-04-18T18:17:15.188Z</time></trkpt><trkpt lat="44.179507" lon="12.1198117"><ele>33.0</ele><time>2026-04-18T18:17:16.188Z</time></trkpt><trkpt lat="44.1796682" lon="12.1199464"><ele>33.0</ele><time>2026-04-18T18:17:17.188Z</time></trkpt><trkpt lat="44.1798214" lon="12.1200709"><ele>33.0</ele><time>2026-04-18T18:17:18.188Z</time></trkpt><trkpt lat="44.1799586" lon="12.1201826"><ele>33.0</ele><time>2026-04-18T18:17:19.188Z</time></trkpt><trkpt lat="44.1800801" lon="12.1202747"><ele>32.833333333333336</ele><time>2026-04-18T18:17:20.188Z</time></trkpt><trkpt lat="44.1801835" lon="12.1203558"><ele>32.666666666666664</ele><time>2026-04-18T18:17:21.188Z</time></trkpt><trkpt lat="44.1802585" lon="12.1204268"><ele>32.5</ele><time>2026-04-18T18:17:22.188Z</time></trkpt><trkpt lat="44.1802992" lon="12.1205053"><ele>32.33333333333333</ele><time>2026-04-18T18:17:23.188Z</time></trkpt><trkpt lat="44.1803169" lon="12.1205906"><ele>32.166666666666664</ele><time>2026-04-18T18:17:24.188Z</time></trkpt><trkpt lat="44.1803875" lon="12.1206858"><ele>32.0</ele><time>2026-04-18T18:17:26.187Z</time></trkpt><trkpt lat="44.1805001" lon="12.1206559"><ele>32.0</ele><time>2026-04-18T18:17:28.187Z</time></trkpt><trkpt lat="44.1806269" lon="12.1206885"><ele>32.0</ele><time>2026-04-18T18:17:30.188Z</time></trkpt><trkpt lat="44.1807247" lon="12.1207448"><ele>32.0</ele><time>2026-04-18T18:17:31.187Z</time></trkpt><trkpt lat="44.1808585" lon="12.1208376"><ele>32.0</ele><time>2026-04-18T18:17:32.188Z</time></trkpt><trkpt lat="44.1810083" lon="12.1209641"><ele>32.33333333333333</ele><time>2026-04-18T18:17:33.188Z</time></trkpt><trkpt lat="44.1811629" lon="12.1211049"><ele>32.666666666666664</ele><time>2026-04-18T18:17:34.187Z</time></trkpt><trkpt lat="44.181322" lon="12.1212317"><ele>33.0</ele><time>2026-04-18T18:17:35.188Z</time></trkpt><trkpt lat="44.1814785" lon="12.121355"><ele>32.666666666666664</ele><time>2026-04-18T18:17:36.188Z</time></trkpt><trkpt lat="44.181643" lon="12.1214822"><ele>32.33333333333333</ele><time>2026-04-18T18:17:37.188Z</time></trkpt><trkpt lat="44.1818104" lon="12.1216102"><ele>32.0</ele><time>2026-04-18T18:17:38.188Z</time></trkpt><trkpt lat="44.1819771" lon="12.1217384"><ele>32.0</ele><time>2026-04-18T18:17:39.188Z</time></trkpt><trkpt lat="44.1821335" lon="12.121855"><ele>32.0</ele><time>2026-04-18T18:17:40.188Z</time></trkpt><trkpt lat="44.1822798" lon="12.1219669"><ele>32.0</ele><time>2026-04-18T18:17:41.188Z</time></trkpt><trkpt lat="44.1824179" lon="12.1220722"><ele>32.33333333333333</ele><time>2026-04-18T18:17:42.188Z</time></trkpt><trkpt lat="44.1825731" lon="12.1221951"><ele>32.666666666666664</ele><time>2026-04-18T18:17:43.188Z</time></trkpt><trkpt lat="44.1827429" lon="12.1223251"><ele>33.0</ele><time>2026-04-18T18:17:44.188Z</time></trkpt><trkpt lat="44.1829043" lon="12.1224493"><ele>33.0</ele><time>2026-04-18T18:17:45.187Z</time></trkpt><trkpt lat="44.1830573" lon="12.1225709"><ele>33.0</ele><time>2026-04-18T18:17:46.187Z</time></trkpt><trkpt lat="44.1832029" lon="12.1226885"><ele>33.0</ele><time>2026-04-18T18:17:47.188Z</time></trkpt><trkpt lat="44.1833498" lon="12.1228076"><ele>32.666666666666664</ele><time>2026-04-18T18:17:48.188Z</time></trkpt><trkpt lat="44.1834913" lon="12.1229262"><ele>32.33333333333333</ele><time>2026-04-18T18:17:49.188Z</time></trkpt><trkpt lat="44.1836228" lon="12.1230365"><ele>32.0</ele><time>2026-04-18T18:17:50.188Z</time></trkpt><trkpt lat="44.1837527" lon="12.123149"><ele>32.0</ele><time>2026-04-18T18:17:51.188Z</time></trkpt><trkpt lat="44.1838816" lon="12.1232601"><ele>32.0</ele><time>2026-04-18T18:17:52.187Z</time></trkpt><trkpt lat="44.1840113" lon="12.1233726"><ele>32.0</ele><time>2026-04-18T18:17:53.188Z</time></trkpt><trkpt lat="44.1841399" lon="12.1234838"><ele>32.0</ele><time>2026-04-18T18:17:54.187Z</time></trkpt><trkpt lat="44.1842673" lon="12.1235952"><ele>32.0</ele><time>2026-04-18T18:17:55.188Z</time></trkpt><trkpt lat="44.1843927" lon="12.1237085"><ele>32.0</ele><time>2026-04-18T18:17:56.188Z</time></trkpt><trkpt lat="44.1845223" lon="12.1238217"><ele>32.0</ele><time>2026-04-18T18:17:57.188Z</time></trkpt><trkpt lat="44.1846562" lon="12.1239379"><ele>32.0</ele><time>2026-04-18T18:17:58.187Z</time></trkpt><trkpt lat="44.184787" lon="12.1240534"><ele>32.0</ele><time>2026-04-18T18:17:59.188Z</time></trkpt><trkpt lat="44.1849059" lon="12.1241583"><ele>32.4</ele><time>2026-04-18T18:18:00.188Z</time></trkpt><trkpt lat="44.1850076" lon="12.1242461"><ele>32.800000000000004</ele><time>2026-04-18T18:18:01.188Z</time></trkpt><trkpt lat="44.1850836" lon="12.1243184"><ele>33.2</ele><time>2026-04-18T18:18:02.188Z</time></trkpt><trkpt lat="44.1851422" lon="12.1243912"><ele>33.6</ele><time>2026-04-18T18:18:03.188Z</time></trkpt><trkpt lat="44.1851672" lon="12.1244799"><ele>34.0</ele><time>2026-04-18T18:18:04.188Z</time></trkpt><trkpt lat="44.1851719" lon="12.1246127"><ele>34.0</ele><time>2026-04-18T18:18:05.187Z</time></trkpt><trkpt lat="44.1851663" lon="12.1247678"><ele>34.0</ele><time>2026-04-18T18:18:06.188Z</time></trkpt><trkpt lat="44.1851704" lon="12.1249194"><ele>34.0</ele><time>2026-04-18T18:18:07.188Z</time></trkpt><trkpt lat="44.1851873" lon="12.1250804"><ele>34.0</ele><time>2026-04-18T18:18:08.188Z</time></trkpt><trkpt lat="44.1852165" lon="12.1252559"><ele>33.75</ele><time>2026-04-18T18:18:09.188Z</time></trkpt><trkpt lat="44.1852577" lon="12.1254329"><ele>33.5</ele><time>2026-04-18T18:18:10.188Z</time></trkpt><trkpt lat="44.1853072" lon="12.1256109"><ele>33.25</ele><time>2026-04-18T18:18:11.188Z</time></trkpt><trkpt lat="44.185353" lon="12.1257717"><ele>33.0</ele><time>2026-04-18T18:18:12.188Z</time></trkpt><trkpt lat="44.1854018" lon="12.125933"><ele>32.8</ele><time>2026-04-18T18:18:13.188Z</time></trkpt><trkpt lat="44.1854455" lon="12.1260811"><ele>32.599999999999994</ele><time>2026-04-18T18:18:14.187Z</time></trkpt><trkpt lat="44.1854862" lon="12.1262199"><ele>32.400000000000006</ele><time>2026-04-18T18:18:15.188Z</time></trkpt><trkpt lat="44.1855276" lon="12.126349"><ele>32.2</ele><time>2026-04-18T18:18:16.188Z</time></trkpt><trkpt lat="44.1855657" lon="12.1264643"><ele>32.0</ele><time>2026-04-18T18:18:17.188Z</time></trkpt><trkpt lat="44.1855987" lon="12.1265633"><ele>31.999999999999996</ele><time>2026-04-18T18:18:18.187Z</time></trkpt><trkpt lat="44.1856428" lon="12.1267016"><ele>32.0</ele><time>2026-04-18T18:18:20.188Z</time></trkpt><trkpt lat="44.1856754" lon="12.126812"><ele>32.0</ele><time>2026-04-18T18:18:22.187Z</time></trkpt><trkpt lat="44.1856839" lon="12.126926"><ele>32.0</ele><time>2026-04-18T18:18:24.188Z</time></trkpt><trkpt lat="44.1856514" lon="12.1270262"><ele>31.999999999999996</ele><time>2026-04-18T18:18:27.188Z</time></trkpt><trkpt lat="44.185611" lon="12.1271305"><ele>32.0</ele><time>2026-04-18T18:18:29.188Z</time></trkpt><trkpt lat="44.1855541" lon="12.1272727"><ele>31.999999999999996</ele><time>2026-04-18T18:18:31.188Z</time></trkpt><trkpt lat="44.1854996" lon="12.127423"><ele>32.0</ele><time>2026-04-18T18:18:33.188Z</time></trkpt><trkpt lat="44.1854426" lon="12.1275745"><ele>32.0</ele><time>2026-04-18T18:18:35.188Z</time></trkpt><trkpt lat="44.1854122" lon="12.1276612"><ele>32.0</ele><time>2026-04-18T18:18:36.188Z</time></trkpt><trkpt lat="44.1853857" lon="12.1277479"><ele>31.999999999999996</ele><time>2026-04-18T18:18:37.188Z</time></trkpt><trkpt lat="44.1853585" lon="12.1278316"><ele>32.0</ele><time>2026-04-18T18:18:38.188Z</time></trkpt><trkpt lat="44.1853281" lon="12.1279301"><ele>31.999999999999996</ele><time>2026-04-18T18:18:39.188Z</time></trkpt><trkpt lat="44.185297" lon="12.1280306"><ele>32.0</ele><time>2026-04-18T18:18:40.188Z</time></trkpt><trkpt lat="44.1852614" lon="12.1281324"><ele>32.0</ele><time>2026-04-18T18:18:41.188Z</time></trkpt><trkpt lat="44.1852259" lon="12.1282437"><ele>32.0</ele><time>2026-04-18T18:18:42.188Z</time></trkpt><trkpt lat="44.1851889" lon="12.1283639"><ele>31.999999999999996</ele><time>2026-04-18T18:18:43.188Z</time></trkpt><trkpt lat="44.1851533" lon="12.1284919"><ele>32.0</ele><time>2026-04-18T18:18:44.188Z</time></trkpt><trkpt lat="44.1851139" lon="12.1286335"><ele>31.8</ele><time>2026-04-18T18:18:45.188Z</time></trkpt><trkpt lat="44.1850746" lon="12.1287695"><ele>31.6</ele><time>2026-04-18T18:18:46.188Z</time></trkpt><trkpt lat="44.1850427" lon="12.1288801"><ele>31.400000000000002</ele><time>2026-04-18T18:18:47.187Z</time></trkpt><trkpt lat="44.1850137" lon="12.1289757"><ele>31.200000000000003</ele><time>2026-04-18T18:18:48.188Z</time></trkpt><trkpt lat="44.1849677" lon="12.1291175"><ele>31.0</ele><time>2026-04-18T18:18:50.188Z</time></trkpt><trkpt lat="44.1848945" lon="12.1292205"><ele>30.5</ele><time>2026-04-18T18:18:52.188Z</time></trkpt><trkpt lat="44.1848272" lon="12.1293856"><ele>30.0</ele><time>2026-04-18T18:18:54.188Z</time></trkpt><trkpt lat="44.1848192" lon="12.1295223"><ele>29.5</ele><time>2026-04-18T18:18:55.188Z</time></trkpt><trkpt lat="44.1847955" lon="12.1296875"><ele>29.0</ele><time>2026-04-18T18:18:56.187Z</time></trkpt><trkpt lat="44.1847442" lon="12.1298521"><ele>29.5</ele><time>2026-04-18T18:18:57.188Z</time></trkpt><trkpt lat="44.1846924" lon="12.1300223"><ele>30.0</ele><time>2026-04-18T18:18:58.188Z</time></trkpt><trkpt lat="44.1846449" lon="12.1301914"><ele>30.5</ele><time>2026-04-18T18:18:59.188Z</time></trkpt><trkpt lat="44.1845947" lon="12.1303611"><ele>31.0</ele><time>2026-04-18T18:19:00.188Z</time></trkpt><trkpt lat="44.1845435" lon="12.1305346"><ele>31.0</ele><time>2026-04-18T18:19:01.188Z</time></trkpt><trkpt lat="44.1844956" lon="12.1307091"><ele>31.0</ele><time>2026-04-18T18:19:02.188Z</time></trkpt><trkpt lat="44.1844485" lon="12.1308966"><ele>31.0</ele><time>2026-04-18T18:19:03.188Z</time></trkpt><trkpt lat="44.1843854" lon="12.1311296"><ele>31.0</ele><time>2026-04-18T18:19:04.188Z</time></trkpt><trkpt lat="44.1843143" lon="12.131357"><ele>31.0</ele><time>2026-04-18T18:19:05.188Z</time></trkpt><trkpt lat="44.1842454" lon="12.1315574"><ele>31.0</ele><time>2026-04-18T18:19:06.188Z</time></trkpt><trkpt lat="44.1841871" lon="12.1317391"><ele>30.75</ele><time>2026-04-18T18:19:07.188Z</time></trkpt><trkpt lat="44.184132" lon="12.1319079"><ele>30.5</ele><time>2026-04-18T18:19:08.188Z</time></trkpt><trkpt lat="44.1840849" lon="12.132062"><ele>30.25</ele><time>2026-04-18T18:19:09.188Z</time></trkpt><trkpt lat="44.1840419" lon="12.1322077"><ele>30.0</ele><time>2026-04-18T18:19:10.188Z</time></trkpt><trkpt lat="44.1840055" lon="12.1323281"><ele>30.166666666666668</ele><time>2026-04-18T18:19:11.188Z</time></trkpt><trkpt lat="44.1839787" lon="12.1324219"><ele>30.333333333333336</ele><time>2026-04-18T18:19:12.188Z</time></trkpt><trkpt lat="44.1839546" lon="12.1325104"><ele>30.5</ele><time>2026-04-18T18:19:14.188Z</time></trkpt><trkpt lat="44.1839261" lon="12.1326209"><ele>30.666666666666668</ele><time>2026-04-18T18:19:38.188Z</time></trkpt><trkpt lat="44.1838995" lon="12.1327276"><ele>30.833333333333336</ele><time>2026-04-18T18:19:39.188Z</time></trkpt><trkpt lat="44.1838629" lon="12.1328486"><ele>31.0</ele><time>2026-04-18T18:19:40.187Z</time></trkpt><trkpt lat="44.183815" lon="12.1330087"><ele>31.0</ele><time>2026-04-18T18:19:41.188Z</time></trkpt><trkpt lat="44.1837575" lon="12.1331818"><ele>31.0</ele><time>2026-04-18T18:19:42.188Z</time></trkpt><trkpt lat="44.1836923" lon="12.1333621"><ele>31.0</ele><time>2026-04-18T18:19:43.187Z</time></trkpt><trkpt lat="44.1836251" lon="12.1335394"><ele>31.0</ele><time>2026-04-18T18:19:44.188Z</time></trkpt><trkpt lat="44.1835532" lon="12.1337187"><ele>30.75</ele><time>2026-04-18T18:19:45.188Z</time></trkpt><trkpt lat="44.1834764" lon="12.1338956"><ele>30.5</ele><time>2026-04-18T18:19:46.188Z</time></trkpt><trkpt lat="44.1834069" lon="12.134067"><ele>30.25</ele><time>2026-04-18T18:19:47.188Z</time></trkpt><trkpt lat="44.1833408" lon="12.134222"><ele>30.0</ele><time>2026-04-18T18:19:48.188Z</time></trkpt><trkpt lat="44.1832829" lon="12.1343622"><ele>30.0</ele><time>2026-04-18T18:19:49.187Z</time></trkpt><trkpt lat="44.183228" lon="12.1345001"><ele>30.0</ele><time>2026-04-18T18:19:50.188Z</time></trkpt><trkpt lat="44.1831924" lon="12.1346308"><ele>30.0</ele><time>2026-04-18T18:19:51.188Z</time></trkpt><trkpt lat="44.1831704" lon="12.1347489"><ele>30.0</ele><time>2026-04-18T18:19:52.187Z</time></trkpt><trkpt lat="44.1831662" lon="12.1348464"><ele>30.0</ele><time>2026-04-18T18:19:53.165Z</time></trkpt><trkpt lat="44.1831408" lon="12.1349775"><ele>30.0</ele><time>2026-04-18T18:19:54.165Z</time></trkpt><trkpt lat="44.1831068" lon="12.1350908"><ele>30.0</ele><time>2026-04-18T18:19:55.169Z</time></trkpt><trkpt lat="44.1830491" lon="12.1351912"><ele>30.0</ele><time>2026-04-18T18:19:56.168Z</time></trkpt><trkpt lat="44.182972" lon="12.135282"><ele>30.0</ele><time>2026-04-18T18:19:57.164Z</time></trkpt><trkpt lat="44.1828706" lon="12.1354149"><ele>30.0</ele><time>2026-04-18T18:19:58.168Z</time></trkpt><trkpt lat="44.1827735" lon="12.1355748"><ele>29.666666666666664</ele><time>2026-04-18T18:19:59.188Z</time></trkpt><trkpt lat="44.1826731" lon="12.1357898"><ele>29.333333333333332</ele><time>2026-04-18T18:20:00.188Z</time></trkpt><trkpt lat="44.1825708" lon="12.1360326"><ele>29.0</ele><time>2026-04-18T18:20:01.188Z</time></trkpt><trkpt lat="44.1824673" lon="12.1362874"><ele>29.0</ele><time>2026-04-18T18:20:02.188Z</time></trkpt><trkpt lat="44.1823672" lon="12.1365394"><ele>29.0</ele><time>2026-04-18T18:20:03.188Z</time></trkpt><trkpt lat="44.182266" lon="12.1367905"><ele>29.0</ele><time>2026-04-18T18:20:04.188Z</time></trkpt><trkpt lat="44.1821676" lon="12.1370355"><ele>29.0</ele><time>2026-04-18T18:20:05.187Z</time></trkpt><trkpt lat="44.1820713" lon="12.137274"><ele>29.0</ele><time>2026-04-18T18:20:06.188Z</time></trkpt><trkpt lat="44.1819773" lon="12.137505"><ele>29.0</ele><time>2026-04-18T18:20:07.188Z</time></trkpt><trkpt lat="44.1818872" lon="12.1377243"><ele>28.666666666666664</ele><time>2026-04-18T18:20:08.188Z</time></trkpt><trkpt lat="44.1818037" lon="12.137927"><ele>28.333333333333336</ele><time>2026-04-18T18:20:09.188Z</time></trkpt><trkpt lat="44.1817219" lon="12.1381218"><ele>28.0</ele><time>2026-04-18T18:20:10.188Z</time></trkpt><trkpt lat="44.1816471" lon="12.1383062"><ele>28.0</ele><time>2026-04-18T18:20:11.188Z</time></trkpt><trkpt lat="44.1815839" lon="12.1384812"><ele>28.0</ele><time>2026-04-18T18:20:12.188Z</time></trkpt><trkpt lat="44.1815373" lon="12.1386422"><ele>28.0</ele><time>2026-04-18T18:20:13.188Z</time></trkpt><trkpt lat="44.1815105" lon="12.1387992"><ele>28.0</ele><time>2026-04-18T18:20:14.188Z</time></trkpt><trkpt lat="44.181482" lon="12.1389666"><ele>27.75</ele><time>2026-04-18T18:20:15.188Z</time></trkpt><trkpt lat="44.1814336" lon="12.1391479"><ele>27.5</ele><time>2026-04-18T18:20:16.188Z</time></trkpt><trkpt lat="44.1813837" lon="12.1393444"><ele>27.25</ele><time>2026-04-18T18:20:17.188Z</time></trkpt><trkpt lat="44.1813387" lon="12.1395443"><ele>27.0</ele><time>2026-04-18T18:20:18.188Z</time></trkpt><trkpt lat="44.1812808" lon="12.1397365"><ele>27.0</ele><time>2026-04-18T18:20:19.188Z</time></trkpt><trkpt lat="44.1811942" lon="12.1399087"><ele>27.0</ele><time>2026-04-18T18:20:20.188Z</time></trkpt><trkpt lat="44.1810796" lon="12.14008"><ele>27.0</ele><time>2026-04-18T18:20:21.188Z</time></trkpt><trkpt lat="44.1809568" lon="12.1402679"><ele>27.0</ele><time>2026-04-18T18:20:22.188Z</time></trkpt><trkpt lat="44.1808328" lon="12.1404782"><ele>27.0</ele><time>2026-04-18T18:20:23.188Z</time></trkpt><trkpt lat="44.1807113" lon="12.1406939"><ele>27.0</ele><time>2026-04-18T18:20:24.188Z</time></trkpt><trkpt lat="44.1805928" lon="12.1409177"><ele>26.333333333333336</ele><time>2026-04-18T18:20:25.188Z</time></trkpt><trkpt lat="44.180478" lon="12.1411474"><ele>25.666666666666668</ele><time>2026-04-18T18:20:26.188Z</time></trkpt><trkpt lat="44.1803696" lon="12.1413815"><ele>25.0</ele><time>2026-04-18T18:20:27.188Z</time></trkpt><trkpt lat="44.1802663" lon="12.1416206"><ele>24.666666666666668</ele><time>2026-04-18T18:20:28.188Z</time></trkpt><trkpt lat="44.1801648" lon="12.1418626"><ele>24.333333333333336</ele><time>2026-04-18T18:20:29.188Z</time></trkpt><trkpt lat="44.1800648" lon="12.1420983"><ele>24.0</ele><time>2026-04-18T18:20:30.188Z</time></trkpt><trkpt lat="44.1799694" lon="12.1423275"><ele>24.333333333333336</ele><time>2026-04-18T18:20:31.188Z</time></trkpt><trkpt lat="44.1798776" lon="12.1425525"><ele>24.666666666666668</ele><time>2026-04-18T18:20:32.188Z</time></trkpt><trkpt lat="44.1797869" lon="12.1427728"><ele>25.0</ele><time>2026-04-18T18:20:33.187Z</time></trkpt><trkpt lat="44.1796972" lon="12.1429879"><ele>25.333333333333336</ele><time>2026-04-18T18:20:34.188Z</time></trkpt><trkpt lat="44.1796085" lon="12.1431996"><ele>25.666666666666664</ele><time>2026-04-18T18:20:35.188Z</time></trkpt><trkpt lat="44.179522" lon="12.1434082"><ele>26.0</ele><time>2026-04-18T18:20:36.188Z</time></trkpt><trkpt lat="44.1794432" lon="12.1436037"><ele>26.0</ele><time>2026-04-18T18:20:37.188Z</time></trkpt><trkpt lat="44.1793671" lon="12.1437903"><ele>26.0</ele><time>2026-04-18T18:20:38.188Z</time></trkpt><trkpt lat="44.1792922" lon="12.1439705"><ele>26.0</ele><time>2026-04-18T18:20:39.188Z</time></trkpt><trkpt lat="44.1792154" lon="12.144153"><ele>26.0</ele><time>2026-04-18T18:20:40.188Z</time></trkpt><trkpt lat="44.1791375" lon="12.1443382"><ele>26.0</ele><time>2026-04-18T18:20:41.188Z</time></trkpt><trkpt lat="44.1790581" lon="12.1445284"><ele>26.0</ele><time>2026-04-18T18:20:42.187Z</time></trkpt><trkpt lat="44.1789797" lon="12.1447328"><ele>25.333333333333332</ele><time>2026-04-18T18:20:43.187Z</time></trkpt><trkpt lat="44.178891" lon="12.1449741"><ele>24.666666666666664</ele><time>2026-04-18T18:20:44.188Z</time></trkpt><trkpt lat="44.1787835" lon="12.1452308"><ele>24.0</ele><time>2026-04-18T18:20:45.188Z</time></trkpt><trkpt lat="44.1786695" lon="12.1454873"><ele>24.666666666666664</ele><time>2026-04-18T18:20:46.188Z</time></trkpt><trkpt lat="44.1785543" lon="12.1457507"><ele>25.333333333333332</ele><time>2026-04-18T18:20:47.188Z</time></trkpt><trkpt lat="44.1784386" lon="12.1460152"><ele>26.0</ele><time>2026-04-18T18:20:48.188Z</time></trkpt><trkpt lat="44.1783234" lon="12.1462804"><ele>26.0</ele><time>2026-04-18T18:20:49.188Z</time></trkpt><trkpt lat="44.17821" lon="12.1465479"><ele>26.0</ele><time>2026-04-18T18:20:50.188Z</time></trkpt><trkpt lat="44.178098" lon="12.1468141"><ele>26.0</ele><time>2026-04-18T18:20:51.188Z</time></trkpt><trkpt lat="44.1779914" lon="12.1470679"><ele>26.0</ele><time>2026-04-18T18:20:52.188Z</time></trkpt><trkpt lat="44.1778859" lon="12.1473213"><ele>26.0</ele><time>2026-04-18T18:20:53.188Z</time></trkpt><trkpt lat="44.1777836" lon="12.1475679"><ele>26.0</ele><time>2026-04-18T18:20:54.188Z</time></trkpt><trkpt lat="44.1776824" lon="12.1478115"><ele>26.333333333333332</ele><time>2026-04-18T18:20:55.188Z</time></trkpt><trkpt lat="44.1775822" lon="12.1480543"><ele>26.666666666666664</ele><time>2026-04-18T18:20:56.188Z</time></trkpt><trkpt lat="44.1774825" lon="12.1482945"><ele>27.0</ele><time>2026-04-18T18:20:57.188Z</time></trkpt><trkpt lat="44.1773837" lon="12.1485333"><ele>26.666666666666664</ele><time>2026-04-18T18:20:58.188Z</time></trkpt><trkpt lat="44.1772844" lon="12.1487697"><ele>26.333333333333332</ele><time>2026-04-18T18:20:59.188Z</time></trkpt><trkpt lat="44.1771866" lon="12.1490009"><ele>26.0</ele><time>2026-04-18T18:21:00.188Z</time></trkpt><trkpt lat="44.1770913" lon="12.1492309"><ele>26.0</ele><time>2026-04-18T18:21:01.188Z</time></trkpt><trkpt lat="44.1769946" lon="12.1494611"><ele>26.0</ele><time>2026-04-18T18:21:02.188Z</time></trkpt><trkpt lat="44.1769004" lon="12.1496845"><ele>26.0</ele><time>2026-04-18T18:21:03.188Z</time></trkpt><trkpt lat="44.1768084" lon="12.1498993"><ele>26.0</ele><time>2026-04-18T18:21:04.188Z</time></trkpt><trkpt lat="44.1767231" lon="12.1501048"><ele>26.0</ele><time>2026-04-18T18:21:05.188Z</time></trkpt><trkpt lat="44.1766445" lon="12.1502997"><ele>26.0</ele><time>2026-04-18T18:21:06.188Z</time></trkpt><trkpt lat="44.1765705" lon="12.1504895"><ele>26.0</ele><time>2026-04-18T18:21:07.187Z</time></trkpt><trkpt lat="44.1764991" lon="12.1506746"><ele>26.0</ele><time>2026-04-18T18:21:08.188Z</time></trkpt><trkpt lat="44.1764229" lon="12.1508541"><ele>26.0</ele><time>2026-04-18T18:21:09.188Z</time></trkpt><trkpt lat="44.1763452" lon="12.1510365"><ele>25.666666666666664</ele><time>2026-04-18T18:21:10.188Z</time></trkpt><trkpt lat="44.1762637" lon="12.1512299"><ele>25.333333333333336</ele><time>2026-04-18T18:21:11.188Z</time></trkpt><trkpt lat="44.1761823" lon="12.1514225"><ele>25.0</ele><time>2026-04-18T18:21:12.187Z</time></trkpt><trkpt lat="44.1761013" lon="12.1516191"><ele>25.0</ele><time>2026-04-18T18:21:13.188Z</time></trkpt><trkpt lat="44.1760171" lon="12.1518189"><ele>25.0</ele><time>2026-04-18T18:21:14.188Z</time></trkpt><trkpt lat="44.1759308" lon="12.1520259"><ele>25.0</ele><time>2026-04-18T18:21:15.188Z</time></trkpt><trkpt lat="44.1758421" lon="12.1522403"><ele>25.0</ele><time>2026-04-18T18:21:16.188Z</time></trkpt><trkpt lat="44.1757528" lon="12.1524553"><ele>25.0</ele><time>2026-04-18T18:21:17.188Z</time></trkpt><trkpt lat="44.1756613" lon="12.1526732"><ele>25.0</ele><time>2026-04-18T18:21:18.188Z</time></trkpt><trkpt lat="44.175569" lon="12.1528936"><ele>25.0</ele><time>2026-04-18T18:21:19.187Z</time></trkpt><trkpt lat="44.1754756" lon="12.1531181"><ele>25.0</ele><time>2026-04-18T18:21:20.188Z</time></trkpt><trkpt lat="44.1753791" lon="12.1533466"><ele>25.0</ele><time>2026-04-18T18:21:21.188Z</time></trkpt><trkpt lat="44.1752826" lon="12.1535787"><ele>25.0</ele><time>2026-04-18T18:21:22.188Z</time></trkpt><trkpt lat="44.1751847" lon="12.1538125"><ele>25.0</ele><time>2026-04-18T18:21:23.188Z</time></trkpt><trkpt lat="44.1750858" lon="12.154049"><ele>25.0</ele><time>2026-04-18T18:21:24.188Z</time></trkpt><trkpt lat="44.1749857" lon="12.1542864"><ele>25.0</ele><time>2026-04-18T18:21:25.188Z</time></trkpt><trkpt lat="44.1748854" lon="12.1545262"><ele>25.0</ele><time>2026-04-18T18:21:26.188Z</time></trkpt><trkpt lat="44.174785" lon="12.1547644"><ele>25.0</ele><time>2026-04-18T18:21:27.188Z</time></trkpt><trkpt lat="44.1746853" lon="12.1550026"><ele>25.333333333333336</ele><time>2026-04-18T18:21:28.188Z</time></trkpt><trkpt lat="44.1745879" lon="12.1552412"><ele>25.666666666666664</ele><time>2026-04-18T18:21:29.188Z</time></trkpt><trkpt lat="44.1744917" lon="12.1554693"><ele>26.0</ele><time>2026-04-18T18:21:30.188Z</time></trkpt><trkpt lat="44.1744011" lon="12.1556891"><ele>26.0</ele><time>2026-04-18T18:21:31.188Z</time></trkpt><trkpt lat="44.1743119" lon="12.1559045"><ele>26.0</ele><time>2026-04-18T18:21:32.188Z</time></trkpt><trkpt lat="44.1742262" lon="12.1561197"><ele>26.0</ele><time>2026-04-18T18:21:33.188Z</time></trkpt><trkpt lat="44.174141" lon="12.1563321"><ele>26.0</ele><time>2026-04-18T18:21:34.188Z</time></trkpt><trkpt lat="44.1740589" lon="12.1565355"><ele>26.0</ele><time>2026-04-18T18:21:35.188Z</time></trkpt><trkpt lat="44.1739761" lon="12.1567292"><ele>26.0</ele><time>2026-04-18T18:21:36.188Z</time></trkpt><trkpt lat="44.1738992" lon="12.1569156"><ele>25.5</ele><time>2026-04-18T18:21:37.188Z</time></trkpt><trkpt lat="44.1738216" lon="12.1570992"><ele>25.0</ele><time>2026-04-18T18:21:38.187Z</time></trkpt><trkpt lat="44.1737447" lon="12.1572795"><ele>24.5</ele><time>2026-04-18T18:21:39.188Z</time></trkpt><trkpt lat="44.1736727" lon="12.1574538"><ele>24.0</ele><time>2026-04-18T18:21:40.188Z</time></trkpt><trkpt lat="44.1736058" lon="12.1576185"><ele>24.0</ele><time>2026-04-18T18:21:41.188Z</time></trkpt><trkpt lat="44.1735421" lon="12.1577751"><ele>24.0</ele><time>2026-04-18T18:21:42.188Z</time></trkpt><trkpt lat="44.1734802" lon="12.1579239"><ele>24.0</ele><time>2026-04-18T18:21:43.188Z</time></trkpt><trkpt lat="44.1734207" lon="12.1580714"><ele>24.0</ele><time>2026-04-18T18:21:44.188Z</time></trkpt><trkpt lat="44.1733647" lon="12.1582083"><ele>24.6</ele><time>2026-04-18T18:21:45.188Z</time></trkpt><trkpt lat="44.1733101" lon="12.1583397"><ele>25.2</ele><time>2026-04-18T18:21:46.188Z</time></trkpt><trkpt lat="44.1732561" lon="12.1584713"><ele>25.800000000000004</ele><time>2026-04-18T18:21:47.188Z</time></trkpt><trkpt lat="44.1731978" lon="12.158607"><ele>26.400000000000002</ele><time>2026-04-18T18:21:48.188Z</time></trkpt><trkpt lat="44.1731418" lon="12.1587406"><ele>27.0</ele><time>2026-04-18T18:21:49.188Z</time></trkpt><trkpt lat="44.1730842" lon="12.1588755"><ele>27.0</ele><time>2026-04-18T18:21:50.187Z</time></trkpt><trkpt lat="44.173024" lon="12.1590078"><ele>27.0</ele><time>2026-04-18T18:21:51.188Z</time></trkpt><trkpt lat="44.172963" lon="12.1591513"><ele>27.0</ele><time>2026-04-18T18:21:52.188Z</time></trkpt><trkpt lat="44.1729007" lon="12.1592968"><ele>27.0</ele><time>2026-04-18T18:21:53.188Z</time></trkpt><trkpt lat="44.1728409" lon="12.1594476"><ele>27.0</ele><time>2026-04-18T18:21:54.188Z</time></trkpt><trkpt lat="44.1727791" lon="12.1595997"><ele>27.0</ele><time>2026-04-18T18:21:55.188Z</time></trkpt><trkpt lat="44.1727203" lon="12.1597555"><ele>27.0</ele><time>2026-04-18T18:21:56.188Z</time></trkpt><trkpt lat="44.1726596" lon="12.1599081"><ele>27.0</ele><time>2026-04-18T18:21:57.188Z</time></trkpt><trkpt lat="44.1726005" lon="12.1600556"><ele>27.0</ele><time>2026-04-18T18:21:58.188Z</time></trkpt><trkpt lat="44.1725446" lon="12.160197"><ele>27.000000000000004</ele><time>2026-04-18T18:21:59.188Z</time></trkpt><trkpt lat="44.1724938" lon="12.1603262"><ele>27.000000000000004</ele><time>2026-04-18T18:22:00.188Z</time></trkpt><trkpt lat="44.172449" lon="12.1604385"><ele>27.0</ele><time>2026-04-18T18:22:01.188Z</time></trkpt><trkpt lat="44.1724074" lon="12.1605236"><ele>27.0</ele><time>2026-04-18T18:22:02.188Z</time></trkpt><trkpt lat="44.1723329" lon="12.1606422"><ele>27.200000000000003</ele><time>2026-04-18T18:22:04.188Z</time></trkpt><trkpt lat="44.1722254" lon="12.1607644"><ele>27.400000000000002</ele><time>2026-04-18T18:22:06.188Z</time></trkpt><trkpt lat="44.1721636" lon="12.1608461"><ele>27.599999999999998</ele><time>2026-04-18T18:22:07.188Z</time></trkpt><trkpt lat="44.1721202" lon="12.1609642"><ele>27.799999999999997</ele><time>2026-04-18T18:22:08.188Z</time></trkpt><trkpt lat="44.1720877" lon="12.1611294"><ele>28.0</ele><time>2026-04-18T18:22:09.188Z</time></trkpt><trkpt lat="44.1720634" lon="12.1612964"><ele>28.0</ele><time>2026-04-18T18:22:10.188Z</time></trkpt><trkpt lat="44.1720169" lon="12.1614592"><ele>28.0</ele><time>2026-04-18T18:22:11.188Z</time></trkpt><trkpt lat="44.1719472" lon="12.1616307"><ele>28.0</ele><time>2026-04-18T18:22:12.188Z</time></trkpt><trkpt lat="44.1718702" lon="12.1618335"><ele>28.0</ele><time>2026-04-18T18:22:13.188Z</time></trkpt><trkpt lat="44.171778" lon="12.1620807"><ele>27.5</ele><time>2026-04-18T18:22:14.188Z</time></trkpt><trkpt lat="44.1716699" lon="12.1623379"><ele>27.0</ele><time>2026-04-18T18:22:15.188Z</time></trkpt><trkpt lat="44.1715456" lon="12.1626196"><ele>27.0</ele><time>2026-04-18T18:22:16.188Z</time></trkpt><trkpt lat="44.1714321" lon="12.1628784"><ele>27.0</ele><time>2026-04-18T18:22:17.188Z</time></trkpt><trkpt lat="44.1713244" lon="12.1631251"><ele>27.0</ele><time>2026-04-18T18:22:18.188Z</time></trkpt><trkpt lat="44.171225" lon="12.1633589"><ele>27.333333333333336</ele><time>2026-04-18T18:22:19.188Z</time></trkpt><trkpt lat="44.1711303" lon="12.1635861"><ele>27.666666666666668</ele><time>2026-04-18T18:22:20.188Z</time></trkpt><trkpt lat="44.1710409" lon="12.1638041"><ele>28.0</ele><time>2026-04-18T18:22:21.188Z</time></trkpt><trkpt lat="44.1709556" lon="12.1640148"><ele>28.0</ele><time>2026-04-18T18:22:22.188Z</time></trkpt><trkpt lat="44.1708732" lon="12.1642114"><ele>28.0</ele><time>2026-04-18T18:22:23.188Z</time></trkpt><trkpt lat="44.1707959" lon="12.164398"><ele>28.0</ele><time>2026-04-18T18:22:24.188Z</time></trkpt><trkpt lat="44.1707203" lon="12.1645811"><ele>27.666666666666668</ele><time>2026-04-18T18:22:25.188Z</time></trkpt><trkpt lat="44.1706436" lon="12.1647662"><ele>27.333333333333336</ele><time>2026-04-18T18:22:26.187Z</time></trkpt><trkpt lat="44.1705672" lon="12.1649515"><ele>27.0</ele><time>2026-04-18T18:22:27.188Z</time></trkpt><trkpt lat="44.1704921" lon="12.1651368"><ele>27.0</ele><time>2026-04-18T18:22:28.188Z</time></trkpt><trkpt lat="44.1704168" lon="12.1653195"><ele>27.0</ele><time>2026-04-18T18:22:29.188Z</time></trkpt><trkpt lat="44.1703388" lon="12.1655058"><ele>27.0</ele><time>2026-04-18T18:22:30.188Z</time></trkpt><trkpt lat="44.1702577" lon="12.1656988"><ele>27.333333333333336</ele><time>2026-04-18T18:22:31.188Z</time></trkpt><trkpt lat="44.1701732" lon="12.165896"><ele>27.666666666666668</ele><time>2026-04-18T18:22:32.188Z</time></trkpt><trkpt lat="44.1700908" lon="12.1660997"><ele>28.0</ele><time>2026-04-18T18:22:33.188Z</time></trkpt><trkpt lat="44.1700035" lon="12.1663278"><ele>27.666666666666668</ele><time>2026-04-18T18:22:34.188Z</time></trkpt><trkpt lat="44.1699053" lon="12.1665826"><ele>27.333333333333336</ele><time>2026-04-18T18:22:35.188Z</time></trkpt><trkpt lat="44.1697893" lon="12.166858"><ele>27.0</ele><time>2026-04-18T18:22:36.188Z</time></trkpt><trkpt lat="44.1696681" lon="12.1671414"><ele>27.0</ele><time>2026-04-18T18:22:37.188Z</time></trkpt><trkpt lat="44.1695419" lon="12.1674363"><ele>27.0</ele><time>2026-04-18T18:22:38.188Z</time></trkpt><trkpt lat="44.1694152" lon="12.1677382"><ele>27.0</ele><time>2026-04-18T18:22:39.188Z</time></trkpt><trkpt lat="44.1692868" lon="12.1680398"><ele>27.0</ele><time>2026-04-18T18:22:40.188Z</time></trkpt><trkpt lat="44.1691609" lon="12.1683426"><ele>27.0</ele><time>2026-04-18T18:22:41.188Z</time></trkpt><trkpt lat="44.1690342" lon="12.1686428"><ele>27.0</ele><time>2026-04-18T18:22:42.188Z</time></trkpt><trkpt lat="44.1689089" lon="12.1689406"><ele>27.0</ele><time>2026-04-18T18:22:43.188Z</time></trkpt><trkpt lat="44.1687862" lon="12.1692372"><ele>27.0</ele><time>2026-04-18T18:22:44.188Z</time></trkpt><trkpt lat="44.1686664" lon="12.1695329"><ele>27.0</ele><time>2026-04-18T18:22:45.188Z</time></trkpt><trkpt lat="44.1685448" lon="12.1698261"><ele>27.0</ele><time>2026-04-18T18:22:46.188Z</time></trkpt><trkpt lat="44.1684243" lon="12.1701155"><ele>26.5</ele><time>2026-04-18T18:22:47.188Z</time></trkpt><trkpt lat="44.1683065" lon="12.1704021"><ele>26.0</ele><time>2026-04-18T18:22:48.187Z</time></trkpt><trkpt lat="44.1681892" lon="12.1706901"><ele>26.5</ele><time>2026-04-18T18:22:49.188Z</time></trkpt><trkpt lat="44.1680705" lon="12.1709791"><ele>27.0</ele><time>2026-04-18T18:22:50.188Z</time></trkpt><trkpt lat="44.167951" lon="12.1712677"><ele>27.5</ele><time>2026-04-18T18:22:51.188Z</time></trkpt><trkpt lat="44.167832" lon="12.1715534"><ele>28.0</ele><time>2026-04-18T18:22:52.188Z</time></trkpt><trkpt lat="44.1677204" lon="12.1718224"><ele>28.0</ele><time>2026-04-18T18:22:53.188Z</time></trkpt><trkpt lat="44.1676149" lon="12.1720796"><ele>28.0</ele><time>2026-04-18T18:22:54.188Z</time></trkpt><trkpt lat="44.1675147" lon="12.1723227"><ele>28.0</ele><time>2026-04-18T18:22:55.187Z</time></trkpt><trkpt lat="44.1674183" lon="12.1725618"><ele>30.333333333333336</ele><time>2026-04-18T18:22:56.188Z</time></trkpt><trkpt lat="44.1673232" lon="12.1728007"><ele>32.666666666666664</ele><time>2026-04-18T18:22:57.188Z</time></trkpt><trkpt lat="44.1672258" lon="12.1730524"><ele>35.0</ele><time>2026-04-18T18:22:58.188Z</time></trkpt><trkpt lat="44.1671215" lon="12.1733204"><ele>36.666666666666664</ele><time>2026-04-18T18:22:59.188Z</time></trkpt><trkpt lat="44.1670111" lon="12.1735947"><ele>38.333333333333336</ele><time>2026-04-18T18:23:00.187Z</time></trkpt><trkpt lat="44.166901" lon="12.1738649"><ele>40.0</ele><time>2026-04-18T18:23:01.188Z</time></trkpt><trkpt lat="44.1667866" lon="12.1741433"><ele>40.333333333333336</ele><time>2026-04-18T18:23:02.188Z</time></trkpt><trkpt lat="44.1666782" lon="12.1743943"><ele>40.666666666666664</ele><time>2026-04-18T18:23:03.188Z</time></trkpt><trkpt lat="44.1665788" lon="12.1746231"><ele>41.0</ele><time>2026-04-18T18:23:04.188Z</time></trkpt><trkpt lat="44.1664939" lon="12.1748248"><ele>38.33333333333333</ele><time>2026-04-18T18:23:05.188Z</time></trkpt><trkpt lat="44.1664101" lon="12.1750247"><ele>35.666666666666664</ele><time>2026-04-18T18:23:06.187Z</time></trkpt><trkpt lat="44.1663238" lon="12.1752271"><ele>33.0</ele><time>2026-04-18T18:23:07.188Z</time></trkpt><trkpt lat="44.1662389" lon="12.1754288"><ele>33.0</ele><time>2026-04-18T18:23:08.187Z</time></trkpt><trkpt lat="44.1661566" lon="12.1756271"><ele>33.0</ele><time>2026-04-18T18:23:09.188Z</time></trkpt><trkpt lat="44.1660796" lon="12.1758176"><ele>33.0</ele><time>2026-04-18T18:23:10.188Z</time></trkpt><trkpt lat="44.166006" lon="12.1759954"><ele>32.5</ele><time>2026-04-18T18:23:11.188Z</time></trkpt><trkpt lat="44.1659368" lon="12.1761618"><ele>32.0</ele><time>2026-04-18T18:23:12.188Z</time></trkpt><trkpt lat="44.1658702" lon="12.1763192"><ele>31.5</ele><time>2026-04-18T18:23:13.188Z</time></trkpt><trkpt lat="44.1658067" lon="12.1764682"><ele>31.0</ele><time>2026-04-18T18:23:14.188Z</time></trkpt><trkpt lat="44.1657463" lon="12.1766085"><ele>31.0</ele><time>2026-04-18T18:23:15.188Z</time></trkpt><trkpt lat="44.1656864" lon="12.1767466"><ele>31.0</ele><time>2026-04-18T18:23:16.187Z</time></trkpt><trkpt lat="44.1656252" lon="12.1768946"><ele>31.0</ele><time>2026-04-18T18:23:17.188Z</time></trkpt><trkpt lat="44.1655612" lon="12.1770495"><ele>31.0</ele><time>2026-04-18T18:23:18.188Z</time></trkpt><trkpt lat="44.1654951" lon="12.1772141"><ele>31.25</ele><time>2026-04-18T18:23:19.188Z</time></trkpt><trkpt lat="44.1654267" lon="12.1773826"><ele>31.5</ele><time>2026-04-18T18:23:20.188Z</time></trkpt><trkpt lat="44.1653582" lon="12.1775542"><ele>31.75</ele><time>2026-04-18T18:23:21.188Z</time></trkpt><trkpt lat="44.1652916" lon="12.1777217"><ele>32.0</ele><time>2026-04-18T18:23:22.188Z</time></trkpt><trkpt lat="44.1652266" lon="12.1778886"><ele>32.0</ele><time>2026-04-18T18:23:23.188Z</time></trkpt><trkpt lat="44.1651557" lon="12.1780553"><ele>32.0</ele><time>2026-04-18T18:23:24.188Z</time></trkpt><trkpt lat="44.1650776" lon="12.1782283"><ele>32.0</ele><time>2026-04-18T18:23:25.188Z</time></trkpt><trkpt lat="44.1649988" lon="12.1784087"><ele>32.0</ele><time>2026-04-18T18:23:26.188Z</time></trkpt><trkpt lat="44.1649259" lon="12.1785783"><ele>31.75</ele><time>2026-04-18T18:23:27.188Z</time></trkpt><trkpt lat="44.1648523" lon="12.178755"><ele>31.5</ele><time>2026-04-18T18:23:28.188Z</time></trkpt><trkpt lat="44.1647784" lon="12.1789333"><ele>31.25</ele><time>2026-04-18T18:23:29.188Z</time></trkpt><trkpt lat="44.1647055" lon="12.1791123"><ele>31.0</ele><time>2026-04-18T18:23:30.188Z</time></trkpt><trkpt lat="44.1646315" lon="12.1792906"><ele>31.0</ele><time>2026-04-18T18:23:31.188Z</time></trkpt><trkpt lat="44.164557" lon="12.1794641"><ele>31.0</ele><time>2026-04-18T18:23:32.188Z</time></trkpt><trkpt lat="44.1644862" lon="12.179635"><ele>31.0</ele><time>2026-04-18T18:23:33.188Z</time></trkpt><trkpt lat="44.1644136" lon="12.1798012"><ele>31.0</ele><time>2026-04-18T18:23:34.188Z</time></trkpt><trkpt lat="44.164344" lon="12.179969"><ele>31.0</ele><time>2026-04-18T18:23:35.188Z</time></trkpt><trkpt lat="44.1642722" lon="12.1801377"><ele>31.0</ele><time>2026-04-18T18:23:36.187Z</time></trkpt><trkpt lat="44.1642009" lon="12.1803143"><ele>31.0</ele><time>2026-04-18T18:23:37.187Z</time></trkpt><trkpt lat="44.1641347" lon="12.1804889"><ele>31.0</ele><time>2026-04-18T18:23:38.188Z</time></trkpt><trkpt lat="44.1640729" lon="12.1806678"><ele>30.75</ele><time>2026-04-18T18:23:39.188Z</time></trkpt><trkpt lat="44.1640152" lon="12.180849"><ele>30.5</ele><time>2026-04-18T18:23:40.188Z</time></trkpt><trkpt lat="44.163963" lon="12.1810397"><ele>30.25</ele><time>2026-04-18T18:23:41.188Z</time></trkpt><trkpt lat="44.1639174" lon="12.1812368"><ele>30.0</ele><time>2026-04-18T18:23:42.188Z</time></trkpt><trkpt lat="44.1638788" lon="12.1814382"><ele>30.666666666666664</ele><time>2026-04-18T18:23:43.188Z</time></trkpt><trkpt lat="44.1638467" lon="12.1816419"><ele>31.333333333333332</ele><time>2026-04-18T18:23:44.188Z</time></trkpt><trkpt lat="44.1638189" lon="12.1818517"><ele>32.0</ele><time>2026-04-18T18:23:45.188Z</time></trkpt><trkpt lat="44.1637913" lon="12.1820614"><ele>32.0</ele><time>2026-04-18T18:23:46.188Z</time></trkpt><trkpt lat="44.1637646" lon="12.1822688"><ele>32.0</ele><time>2026-04-18T18:23:47.188Z</time></trkpt><trkpt lat="44.1637366" lon="12.1824728"><ele>32.0</ele><time>2026-04-18T18:23:48.188Z</time></trkpt><trkpt lat="44.1637118" lon="12.1826726"><ele>32.0</ele><time>2026-04-18T18:23:49.188Z</time></trkpt><trkpt lat="44.1636904" lon="12.1828662"><ele>32.75</ele><time>2026-04-18T18:23:50.188Z</time></trkpt><trkpt lat="44.1636703" lon="12.183057"><ele>33.5</ele><time>2026-04-18T18:23:51.188Z</time></trkpt><trkpt lat="44.1636509" lon="12.1832445"><ele>34.25</ele><time>2026-04-18T18:23:52.188Z</time></trkpt><trkpt lat="44.1636298" lon="12.1834344"><ele>35.0</ele><time>2026-04-18T18:23:53.188Z</time></trkpt><trkpt lat="44.1636034" lon="12.1836289"><ele>36.25</ele><time>2026-04-18T18:23:54.188Z</time></trkpt><trkpt lat="44.1635812" lon="12.1838327"><ele>37.5</ele><time>2026-04-18T18:23:55.188Z</time></trkpt><trkpt lat="44.1635583" lon="12.1840401"><ele>38.75</ele><time>2026-04-18T18:23:56.188Z</time></trkpt><trkpt lat="44.1635306" lon="12.1842409"><ele>40.0</ele><time>2026-04-18T18:23:57.188Z</time></trkpt><trkpt lat="44.1635013" lon="12.1844351"><ele>40.0</ele><time>2026-04-18T18:23:58.188Z</time></trkpt><trkpt lat="44.1634714" lon="12.1846272"><ele>40.0</ele><time>2026-04-18T18:23:59.188Z</time></trkpt><trkpt lat="44.1634409" lon="12.1848213"><ele>40.0</ele><time>2026-04-18T18:24:00.188Z</time></trkpt><trkpt lat="44.1634087" lon="12.1850157"><ele>40.0</ele><time>2026-04-18T18:24:01.188Z</time></trkpt><trkpt lat="44.1633796" lon="12.1852121"><ele>38.66666666666667</ele><time>2026-04-18T18:24:02.188Z</time></trkpt><trkpt lat="44.1633473" lon="12.1854138"><ele>37.333333333333336</ele><time>2026-04-18T18:24:03.188Z</time></trkpt><trkpt lat="44.1633084" lon="12.1856232"><ele>36.0</ele><time>2026-04-18T18:24:04.188Z</time></trkpt><trkpt lat="44.163269" lon="12.1858345"><ele>35.666666666666664</ele><time>2026-04-18T18:24:05.188Z</time></trkpt><trkpt lat="44.1632313" lon="12.1860488"><ele>35.33333333333333</ele><time>2026-04-18T18:24:06.188Z</time></trkpt><trkpt lat="44.163187" lon="12.1862586"><ele>35.0</ele><time>2026-04-18T18:24:07.187Z</time></trkpt><trkpt lat="44.1631378" lon="12.1864676"><ele>39.0</ele><time>2026-04-18T18:24:08.188Z</time></trkpt><trkpt lat="44.1630781" lon="12.1866661"><ele>43.0</ele><time>2026-04-18T18:24:09.188Z</time></trkpt><trkpt lat="44.1630129" lon="12.186861"><ele>47.0</ele><time>2026-04-18T18:24:10.188Z</time></trkpt><trkpt lat="44.1629426" lon="12.1870443"><ele>47.0</ele><time>2026-04-18T18:24:11.188Z</time></trkpt><trkpt lat="44.1628693" lon="12.1872175"><ele>47.0</ele><time>2026-04-18T18:24:12.188Z</time></trkpt><trkpt lat="44.1627943" lon="12.1873879"><ele>47.0</ele><time>2026-04-18T18:24:13.188Z</time></trkpt><trkpt lat="44.1627138" lon="12.1875568"><ele>47.0</ele><time>2026-04-18T18:24:14.188Z</time></trkpt><trkpt lat="44.1626324" lon="12.1877332"><ele>45.33333333333333</ele><time>2026-04-18T18:24:15.187Z</time></trkpt><trkpt lat="44.1625454" lon="12.1879093"><ele>43.666666666666664</ele><time>2026-04-18T18:24:16.188Z</time></trkpt><trkpt lat="44.162454" lon="12.1880784"><ele>42.0</ele><time>2026-04-18T18:24:17.188Z</time></trkpt><trkpt lat="44.1623534" lon="12.1882354"><ele>42.0</ele><time>2026-04-18T18:24:18.188Z</time></trkpt><trkpt lat="44.1622441" lon="12.1883742"><ele>42.0</ele><time>2026-04-18T18:24:19.188Z</time></trkpt><trkpt lat="44.1621207" lon="12.1884927"><ele>42.0</ele><time>2026-04-18T18:24:20.188Z</time></trkpt><trkpt lat="44.1619858" lon="12.1886019"><ele>42.0</ele><time>2026-04-18T18:24:21.188Z</time></trkpt><trkpt lat="44.161845" lon="12.1886958"><ele>42.0</ele><time>2026-04-18T18:24:22.188Z</time></trkpt><trkpt lat="44.1617025" lon="12.1887833"><ele>42.0</ele><time>2026-04-18T18:24:23.188Z</time></trkpt><trkpt lat="44.1615542" lon="12.1888571"><ele>41.666666666666664</ele><time>2026-04-18T18:24:24.188Z</time></trkpt><trkpt lat="44.1614082" lon="12.188922"><ele>41.33333333333333</ele><time>2026-04-18T18:24:25.187Z</time></trkpt><trkpt lat="44.1612623" lon="12.1889821"><ele>41.0</ele><time>2026-04-18T18:24:26.188Z</time></trkpt><trkpt lat="44.1611183" lon="12.1890391"><ele>39.5</ele><time>2026-04-18T18:24:27.187Z</time></trkpt><trkpt lat="44.1609771" lon="12.1890906"><ele>38.0</ele><time>2026-04-18T18:24:28.188Z</time></trkpt><trkpt lat="44.1608378" lon="12.1891435"><ele>36.5</ele><time>2026-04-18T18:24:29.188Z</time></trkpt><trkpt lat="44.1607008" lon="12.1891935"><ele>35.0</ele><time>2026-04-18T18:24:30.188Z</time></trkpt><trkpt lat="44.1605689" lon="12.1892428"><ele>34.75</ele><time>2026-04-18T18:24:31.188Z</time></trkpt><trkpt lat="44.1604381" lon="12.1892939"><ele>34.5</ele><time>2026-04-18T18:24:32.187Z</time></trkpt><trkpt lat="44.1603082" lon="12.1893498"><ele>34.25</ele><time>2026-04-18T18:24:33.188Z</time></trkpt><trkpt lat="44.1601811" lon="12.1894171"><ele>34.0</ele><time>2026-04-18T18:24:34.188Z</time></trkpt><trkpt lat="44.1600543" lon="12.189499"><ele>34.0</ele><time>2026-04-18T18:24:35.188Z</time></trkpt><trkpt lat="44.1599331" lon="12.1895966"><ele>34.0</ele><time>2026-04-18T18:24:36.188Z</time></trkpt><trkpt lat="44.1598153" lon="12.1897139"><ele>34.0</ele><time>2026-04-18T18:24:37.188Z</time></trkpt><trkpt lat="44.1597085" lon="12.1898438"><ele>34.0</ele><time>2026-04-18T18:24:38.188Z</time></trkpt><trkpt lat="44.1596107" lon="12.1899816"><ele>34.0</ele><time>2026-04-18T18:24:39.188Z</time></trkpt><trkpt lat="44.159515" lon="12.1901247"><ele>34.0</ele><time>2026-04-18T18:24:40.188Z</time></trkpt><trkpt lat="44.1594218" lon="12.1902653"><ele>34.0</ele><time>2026-04-18T18:24:41.187Z</time></trkpt><trkpt lat="44.1593269" lon="12.1904027"><ele>34.0</ele><time>2026-04-18T18:24:42.187Z</time></trkpt><trkpt lat="44.1592332" lon="12.1905399"><ele>34.0</ele><time>2026-04-18T18:24:43.188Z</time></trkpt><trkpt lat="44.1591415" lon="12.1906716"><ele>34.0</ele><time>2026-04-18T18:24:44.188Z</time></trkpt><trkpt lat="44.1590544" lon="12.190795"><ele>34.0</ele><time>2026-04-18T18:24:45.188Z</time></trkpt><trkpt lat="44.1589725" lon="12.1909099"><ele>34.0</ele><time>2026-04-18T18:24:46.188Z</time></trkpt><trkpt lat="44.1589016" lon="12.1910118"><ele>34.0</ele><time>2026-04-18T18:24:47.188Z</time></trkpt><trkpt lat="44.1588406" lon="12.1910935"><ele>34.0</ele><time>2026-04-18T18:24:48.188Z</time></trkpt><trkpt lat="44.1587871" lon="12.1911625"><ele>34.0</ele><time>2026-04-18T18:24:49.188Z</time></trkpt><trkpt lat="44.1587271" lon="12.191224"><ele>34.0</ele><time>2026-04-18T18:24:50.188Z</time></trkpt><trkpt lat="44.1586521" lon="12.1912835"><ele>34.0</ele><time>2026-04-18T18:24:51.188Z</time></trkpt><trkpt lat="44.1585647" lon="12.1913373"><ele>34.0</ele><time>2026-04-18T18:24:52.188Z</time></trkpt><trkpt lat="44.1584704" lon="12.1914027"><ele>34.0</ele><time>2026-04-18T18:24:53.188Z</time></trkpt><trkpt lat="44.1583942" lon="12.1915057"><ele>34.0</ele><time>2026-04-18T18:24:54.187Z</time></trkpt><trkpt lat="44.1583358" lon="12.1916421"><ele>34.0</ele><time>2026-04-18T18:24:55.188Z</time></trkpt><trkpt lat="44.1583019" lon="12.1918028"><ele>34.0</ele><time>2026-04-18T18:24:56.188Z</time></trkpt><trkpt lat="44.1582723" lon="12.1919809"><ele>34.0</ele><time>2026-04-18T18:24:57.188Z</time></trkpt><trkpt lat="44.158214" lon="12.1921548"><ele>34.0</ele><time>2026-04-18T18:24:58.188Z</time></trkpt><trkpt lat="44.1581327" lon="12.1923322"><ele>34.0</ele><time>2026-04-18T18:24:59.188Z</time></trkpt><trkpt lat="44.1580414" lon="12.1925189"><ele>34.333333333333336</ele><time>2026-04-18T18:25:00.188Z</time></trkpt><trkpt lat="44.157938" lon="12.1927061"><ele>34.666666666666664</ele><time>2026-04-18T18:25:01.188Z</time></trkpt><trkpt lat="44.1578248" lon="12.1928982"><ele>35.0</ele><time>2026-04-18T18:25:02.187Z</time></trkpt><trkpt lat="44.1577061" lon="12.1930987"><ele>35.0</ele><time>2026-04-18T18:25:03.188Z</time></trkpt><trkpt lat="44.1575875" lon="12.1933004"><ele>35.0</ele><time>2026-04-18T18:25:04.188Z</time></trkpt><trkpt lat="44.157469" lon="12.1934996"><ele>35.0</ele><time>2026-04-18T18:25:05.188Z</time></trkpt><trkpt lat="44.1573533" lon="12.1936961"><ele>35.0</ele><time>2026-04-18T18:25:06.187Z</time></trkpt><trkpt lat="44.1572373" lon="12.1938901"><ele>35.0</ele><time>2026-04-18T18:25:07.188Z</time></trkpt><trkpt lat="44.1571247" lon="12.1940769"><ele>35.0</ele><time>2026-04-18T18:25:08.188Z</time></trkpt><trkpt lat="44.1570227" lon="12.1942485"><ele>35.666666666666664</ele><time>2026-04-18T18:25:09.188Z</time></trkpt><trkpt lat="44.1569232" lon="12.1944161"><ele>36.333333333333336</ele><time>2026-04-18T18:25:10.188Z</time></trkpt><trkpt lat="44.1568244" lon="12.1945794"><ele>37.0</ele><time>2026-04-18T18:25:11.188Z</time></trkpt><trkpt lat="44.1567313" lon="12.1947297"><ele>36.75</ele><time>2026-04-18T18:25:12.187Z</time></trkpt><trkpt lat="44.1566455" lon="12.1948674"><ele>36.5</ele><time>2026-04-18T18:25:13.188Z</time></trkpt><trkpt lat="44.1565567" lon="12.1950112"><ele>36.25</ele><time>2026-04-18T18:25:14.188Z</time></trkpt><trkpt lat="44.1564633" lon="12.1951647"><ele>36.0</ele><time>2026-04-18T18:25:15.188Z</time></trkpt><trkpt lat="44.1563688" lon="12.1953202"><ele>35.75</ele><time>2026-04-18T18:25:16.188Z</time></trkpt><trkpt lat="44.1562779" lon="12.1954684"><ele>35.5</ele><time>2026-04-18T18:25:17.188Z</time></trkpt><trkpt lat="44.1561918" lon="12.1956113"><ele>35.25</ele><time>2026-04-18T18:25:18.188Z</time></trkpt><trkpt lat="44.1561032" lon="12.1957576"><ele>35.0</ele><time>2026-04-18T18:25:19.188Z</time></trkpt><trkpt lat="44.1560162" lon="12.195902"><ele>35.0</ele><time>2026-04-18T18:25:20.188Z</time></trkpt><trkpt lat="44.1559288" lon="12.1960494"><ele>35.0</ele><time>2026-04-18T18:25:21.188Z</time></trkpt><trkpt lat="44.1558399" lon="12.1962009"><ele>35.0</ele><time>2026-04-18T18:25:22.187Z</time></trkpt><trkpt lat="44.1557445" lon="12.1963525"><ele>35.0</ele><time>2026-04-18T18:25:23.188Z</time></trkpt><trkpt lat="44.1556515" lon="12.1965027"><ele>35.0</ele><time>2026-04-18T18:25:24.188Z</time></trkpt><trkpt lat="44.1555608" lon="12.19665"><ele>35.0</ele><time>2026-04-18T18:25:25.188Z</time></trkpt><trkpt lat="44.1554739" lon="12.1967908"><ele>35.0</ele><time>2026-04-18T18:25:26.187Z</time></trkpt><trkpt lat="44.1553875" lon="12.1969334"><ele>35.0</ele><time>2026-04-18T18:25:27.188Z</time></trkpt><trkpt lat="44.1553027" lon="12.1970771"><ele>35.0</ele><time>2026-04-18T18:25:28.188Z</time></trkpt><trkpt lat="44.1552112" lon="12.1972257"><ele>35.0</ele><time>2026-04-18T18:25:29.188Z</time></trkpt><trkpt lat="44.1551187" lon="12.1973769"><ele>35.0</ele><time>2026-04-18T18:25:30.188Z</time></trkpt><trkpt lat="44.1550269" lon="12.1975281"><ele>35.0</ele><time>2026-04-18T18:25:31.187Z</time></trkpt><trkpt lat="44.1549355" lon="12.1976792"><ele>35.0</ele><time>2026-04-18T18:25:32.187Z</time></trkpt><trkpt lat="44.1548473" lon="12.1978267"><ele>35.0</ele><time>2026-04-18T18:25:33.188Z</time></trkpt><trkpt lat="44.15476" lon="12.1979762"><ele>35.0</ele><time>2026-04-18T18:25:34.188Z</time></trkpt><trkpt lat="44.1546755" lon="12.1981318"><ele>35.0</ele><time>2026-04-18T18:25:35.188Z</time></trkpt><trkpt lat="44.1545916" lon="12.1982895"><ele>35.25</ele><time>2026-04-18T18:25:36.188Z</time></trkpt><trkpt lat="44.1545059" lon="12.1984485"><ele>35.5</ele><time>2026-04-18T18:25:37.188Z</time></trkpt><trkpt lat="44.1544161" lon="12.1986097"><ele>35.75</ele><time>2026-04-18T18:25:38.188Z</time></trkpt><trkpt lat="44.1543243" lon="12.1987695"><ele>36.0</ele><time>2026-04-18T18:25:39.188Z</time></trkpt><trkpt lat="44.15423" lon="12.1989304"><ele>36.0</ele><time>2026-04-18T18:25:40.188Z</time></trkpt><trkpt lat="44.1541347" lon="12.1990924"><ele>36.0</ele><time>2026-04-18T18:25:41.188Z</time></trkpt><trkpt lat="44.1540404" lon="12.1992543"><ele>36.0</ele><time>2026-04-18T18:25:42.188Z</time></trkpt><trkpt lat="44.1539466" lon="12.1994115"><ele>36.0</ele><time>2026-04-18T18:25:43.187Z</time></trkpt><trkpt lat="44.1538523" lon="12.199567"><ele>36.0</ele><time>2026-04-18T18:25:44.188Z</time></trkpt><trkpt lat="44.1537602" lon="12.1997173"><ele>36.0</ele><time>2026-04-18T18:25:45.188Z</time></trkpt><trkpt lat="44.1536718" lon="12.1998707"><ele>36.0</ele><time>2026-04-18T18:25:46.188Z</time></trkpt><trkpt lat="44.1535805" lon="12.2000257"><ele>36.0</ele><time>2026-04-18T18:25:47.188Z</time></trkpt><trkpt lat="44.1534892" lon="12.2001791"><ele>36.0</ele><time>2026-04-18T18:25:48.187Z</time></trkpt><trkpt lat="44.153401" lon="12.2003316"><ele>36.0</ele><time>2026-04-18T18:25:49.187Z</time></trkpt><trkpt lat="44.1533125" lon="12.2004795"><ele>36.0</ele><time>2026-04-18T18:25:50.188Z</time></trkpt><trkpt lat="44.1532221" lon="12.200628"><ele>36.0</ele><time>2026-04-18T18:25:51.188Z</time></trkpt><trkpt lat="44.1531327" lon="12.2007789"><ele>36.0</ele><time>2026-04-18T18:25:52.188Z</time></trkpt><trkpt lat="44.153042" lon="12.2009306"><ele>36.0</ele><time>2026-04-18T18:25:53.188Z</time></trkpt><trkpt lat="44.1529492" lon="12.2010891"><ele>36.0</ele><time>2026-04-18T18:25:54.188Z</time></trkpt><trkpt lat="44.1528559" lon="12.2012453"><ele>36.0</ele><time>2026-04-18T18:25:55.188Z</time></trkpt><trkpt lat="44.1527599" lon="12.2014048"><ele>36.333333333333336</ele><time>2026-04-18T18:25:56.187Z</time></trkpt><trkpt lat="44.1526655" lon="12.2015642"><ele>36.66666666666667</ele><time>2026-04-18T18:25:57.188Z</time></trkpt><trkpt lat="44.1525696" lon="12.201725"><ele>37.0</ele><time>2026-04-18T18:25:58.188Z</time></trkpt><trkpt lat="44.1524717" lon="12.2018862"><ele>37.0</ele><time>2026-04-18T18:25:59.188Z</time></trkpt><trkpt lat="44.1523748" lon="12.2020474"><ele>37.0</ele><time>2026-04-18T18:26:00.188Z</time></trkpt><trkpt lat="44.1522786" lon="12.2022096"><ele>37.0</ele><time>2026-04-18T18:26:01.188Z</time></trkpt><trkpt lat="44.1521835" lon="12.202371"><ele>37.0</ele><time>2026-04-18T18:26:02.188Z</time></trkpt><trkpt lat="44.1520879" lon="12.2025308"><ele>37.0</ele><time>2026-04-18T18:26:03.188Z</time></trkpt><trkpt lat="44.1519984" lon="12.2026858"><ele>37.0</ele><time>2026-04-18T18:26:04.188Z</time></trkpt><trkpt lat="44.1519121" lon="12.2028336"><ele>37.0</ele><time>2026-04-18T18:26:05.188Z</time></trkpt><trkpt lat="44.1518245" lon="12.2029834"><ele>37.0</ele><time>2026-04-18T18:26:06.188Z</time></trkpt><trkpt lat="44.151744" lon="12.2031214"><ele>37.0</ele><time>2026-04-18T18:26:07.188Z</time></trkpt><trkpt lat="44.1516632" lon="12.2032546"><ele>37.0</ele><time>2026-04-18T18:26:08.188Z</time></trkpt><trkpt lat="44.1515852" lon="12.2033897"><ele>37.0</ele><time>2026-04-18T18:26:09.188Z</time></trkpt><trkpt lat="44.1515059" lon="12.2035244"><ele>37.16666666666667</ele><time>2026-04-18T18:26:10.188Z</time></trkpt><trkpt lat="44.1514284" lon="12.2036485"><ele>37.333333333333336</ele><time>2026-04-18T18:26:11.188Z</time></trkpt><trkpt lat="44.15136" lon="12.2037543"><ele>37.5</ele><time>2026-04-18T18:26:12.188Z</time></trkpt><trkpt lat="44.1513035" lon="12.2038491"><ele>37.666666666666664</ele><time>2026-04-18T18:26:13.188Z</time></trkpt><trkpt lat="44.1512567" lon="12.2039254"><ele>37.83333333333333</ele><time>2026-04-18T18:26:14.188Z</time></trkpt><trkpt lat="44.1512104" lon="12.2039952"><ele>38.0</ele><time>2026-04-18T18:26:16.188Z</time></trkpt><trkpt lat="44.1511595" lon="12.2040621"><ele>38.0</ele><time>2026-04-18T18:26:19.188Z</time></trkpt><trkpt lat="44.1510758" lon="12.2041203"><ele>38.0</ele><time>2026-04-18T18:26:21.188Z</time></trkpt><trkpt lat="44.151004" lon="12.2041456"><ele>38.0</ele><time>2026-04-18T18:26:22.188Z</time></trkpt><trkpt lat="44.1509225" lon="12.2041926"><ele>38.0</ele><time>2026-04-18T18:26:23.188Z</time></trkpt><trkpt lat="44.1508476" lon="12.2042704"><ele>38.0</ele><time>2026-04-18T18:26:24.188Z</time></trkpt><trkpt lat="44.150793" lon="12.2043781"><ele>38.0</ele><time>2026-04-18T18:26:25.188Z</time></trkpt><trkpt lat="44.1507585" lon="12.2045054"><ele>38.0</ele><time>2026-04-18T18:26:26.188Z</time></trkpt><trkpt lat="44.1507411" lon="12.2046293"><ele>38.0</ele><time>2026-04-18T18:26:27.188Z</time></trkpt><trkpt lat="44.1507214" lon="12.2047462"><ele>38.0</ele><time>2026-04-18T18:26:28.188Z</time></trkpt><trkpt lat="44.1506844" lon="12.2048531"><ele>38.0</ele><time>2026-04-18T18:26:29.188Z</time></trkpt><trkpt lat="44.1506286" lon="12.2049621"><ele>38.0</ele><time>2026-04-18T18:26:30.188Z</time></trkpt><trkpt lat="44.1505673" lon="12.2050687"><ele>38.0</ele><time>2026-04-18T18:26:31.188Z</time></trkpt><trkpt lat="44.1505091" lon="12.2051653"><ele>38.0</ele><time>2026-04-18T18:26:32.188Z</time></trkpt><trkpt lat="44.1504476" lon="12.2052679"><ele>38.0</ele><time>2026-04-18T18:26:33.188Z</time></trkpt><trkpt lat="44.1503842" lon="12.2053734"><ele>38.0</ele><time>2026-04-18T18:26:34.188Z</time></trkpt><trkpt lat="44.1503134" lon="12.2054952"><ele>38.0</ele><time>2026-04-18T18:26:35.188Z</time></trkpt><trkpt lat="44.1502404" lon="12.2056175"><ele>38.199999999999996</ele><time>2026-04-18T18:26:36.188Z</time></trkpt><trkpt lat="44.1501717" lon="12.2057366"><ele>38.4</ele><time>2026-04-18T18:26:37.188Z</time></trkpt><trkpt lat="44.1501016" lon="12.2058541"><ele>38.599999999999994</ele><time>2026-04-18T18:26:38.188Z</time></trkpt><trkpt lat="44.1500346" lon="12.2059644"><ele>38.8</ele><time>2026-04-18T18:26:39.188Z</time></trkpt><trkpt lat="44.1499719" lon="12.2060707"><ele>39.0</ele><time>2026-04-18T18:26:40.188Z</time></trkpt><trkpt lat="44.1499085" lon="12.2061734"><ele>39.0</ele><time>2026-04-18T18:26:41.188Z</time></trkpt><trkpt lat="44.1498446" lon="12.206279"><ele>39.0</ele><time>2026-04-18T18:26:42.188Z</time></trkpt><trkpt lat="44.1497827" lon="12.2063822"><ele>39.0</ele><time>2026-04-18T18:26:43.188Z</time></trkpt><trkpt lat="44.1497203" lon="12.2064877"><ele>39.0</ele><time>2026-04-18T18:26:44.188Z</time></trkpt><trkpt lat="44.14966" lon="12.2065931"><ele>39.0</ele><time>2026-04-18T18:26:45.188Z</time></trkpt><trkpt lat="44.149595" lon="12.206703"><ele>39.0</ele><time>2026-04-18T18:26:46.188Z</time></trkpt><trkpt lat="44.1495239" lon="12.2068227"><ele>39.0</ele><time>2026-04-18T18:26:47.187Z</time></trkpt><trkpt lat="44.1494481" lon="12.2069463"><ele>39.0</ele><time>2026-04-18T18:26:48.188Z</time></trkpt><trkpt lat="44.1493738" lon="12.2070684"><ele>39.0</ele><time>2026-04-18T18:26:49.187Z</time></trkpt><trkpt lat="44.1492976" lon="12.2071897"><ele>39.0</ele><time>2026-04-18T18:26:50.188Z</time></trkpt><trkpt lat="44.1492247" lon="12.2073139"><ele>39.0</ele><time>2026-04-18T18:26:51.188Z</time></trkpt><trkpt lat="44.1491541" lon="12.2074352"><ele>39.0</ele><time>2026-04-18T18:26:52.187Z</time></trkpt><trkpt lat="44.149083" lon="12.2075548"><ele>39.0</ele><time>2026-04-18T18:26:53.187Z</time></trkpt><trkpt lat="44.1490112" lon="12.2076696"><ele>39.0</ele><time>2026-04-18T18:26:54.187Z</time></trkpt><trkpt lat="44.1489398" lon="12.2077887"><ele>39.0</ele><time>2026-04-18T18:26:55.188Z</time></trkpt><trkpt lat="44.1488637" lon="12.2079182"><ele>39.0</ele><time>2026-04-18T18:26:56.188Z</time></trkpt><trkpt lat="44.1487846" lon="12.208054"><ele>39.0</ele><time>2026-04-18T18:26:57.188Z</time></trkpt><trkpt lat="44.1487036" lon="12.2081945"><ele>39.0</ele><time>2026-04-18T18:26:58.188Z</time></trkpt><trkpt lat="44.1486184" lon="12.2083451"><ele>39.333333333333336</ele><time>2026-04-18T18:26:59.188Z</time></trkpt><trkpt lat="44.1485287" lon="12.2085186"><ele>39.66666666666667</ele><time>2026-04-18T18:27:00.187Z</time></trkpt><trkpt lat="44.1484256" lon="12.2087012"><ele>40.0</ele><time>2026-04-18T18:27:01.188Z</time></trkpt><trkpt lat="44.1483215" lon="12.2088795"><ele>40.333333333333336</ele><time>2026-04-18T18:27:02.188Z</time></trkpt><trkpt lat="44.1481979" lon="12.2090965"><ele>40.666666666666664</ele><time>2026-04-18T18:27:03.187Z</time></trkpt><trkpt lat="44.1480676" lon="12.2093124"><ele>41.0</ele><time>2026-04-18T18:27:04.188Z</time></trkpt><trkpt lat="44.1479245" lon="12.2095307"><ele>41.0</ele><time>2026-04-18T18:27:05.188Z</time></trkpt><trkpt lat="44.147802" lon="12.209731"><ele>41.0</ele><time>2026-04-18T18:27:06.188Z</time></trkpt><trkpt lat="44.1476857" lon="12.2099214"><ele>41.0</ele><time>2026-04-18T18:27:07.188Z</time></trkpt><trkpt lat="44.1475757" lon="12.2100999"><ele>40.666666666666664</ele><time>2026-04-18T18:27:08.188Z</time></trkpt><trkpt lat="44.1474668" lon="12.2102804"><ele>40.333333333333336</ele><time>2026-04-18T18:27:09.187Z</time></trkpt><trkpt lat="44.1473517" lon="12.2104817"><ele>40.0</ele><time>2026-04-18T18:27:10.188Z</time></trkpt><trkpt lat="44.1472292" lon="12.2107077"><ele>39.66666666666667</ele><time>2026-04-18T18:27:11.188Z</time></trkpt><trkpt lat="44.1470925" lon="12.2109346"><ele>39.333333333333336</ele><time>2026-04-18T18:27:12.188Z</time></trkpt><trkpt lat="44.1469497" lon="12.2111545"><ele>39.0</ele><time>2026-04-18T18:27:13.188Z</time></trkpt><trkpt lat="44.146816" lon="12.2113658"><ele>39.333333333333336</ele><time>2026-04-18T18:27:14.188Z</time></trkpt><trkpt lat="44.1466954" lon="12.211568"><ele>39.66666666666667</ele><time>2026-04-18T18:27:15.188Z</time></trkpt><trkpt lat="44.1465903" lon="12.2117699"><ele>40.0</ele><time>2026-04-18T18:27:16.188Z</time></trkpt><trkpt lat="44.146504" lon="12.2119827"><ele>40.0</ele><time>2026-04-18T18:27:17.188Z</time></trkpt><trkpt lat="44.1464365" lon="12.2122144"><ele>40.0</ele><time>2026-04-18T18:27:18.188Z</time></trkpt><trkpt lat="44.146391" lon="12.2124606"><ele>40.0</ele><time>2026-04-18T18:27:19.187Z</time></trkpt><trkpt lat="44.1463614" lon="12.2127278"><ele>40.0</ele><time>2026-04-18T18:27:20.188Z</time></trkpt><trkpt lat="44.1463393" lon="12.2130021"><ele>40.0</ele><time>2026-04-18T18:27:21.188Z</time></trkpt><trkpt lat="44.1463195" lon="12.2132812"><ele>40.0</ele><time>2026-04-18T18:27:22.188Z</time></trkpt><trkpt lat="44.1462973" lon="12.2135605"><ele>40.0</ele><time>2026-04-18T18:27:23.188Z</time></trkpt><trkpt lat="44.1462727" lon="12.2138396"><ele>40.0</ele><time>2026-04-18T18:27:24.188Z</time></trkpt><trkpt lat="44.146246" lon="12.2141189"><ele>40.0</ele><time>2026-04-18T18:27:25.187Z</time></trkpt><trkpt lat="44.1462121" lon="12.2143963"><ele>39.66666666666667</ele><time>2026-04-18T18:27:26.188Z</time></trkpt><trkpt lat="44.1461637" lon="12.2146738"><ele>39.333333333333336</ele><time>2026-04-18T18:27:27.188Z</time></trkpt><trkpt lat="44.146094" lon="12.2149449"><ele>39.0</ele><time>2026-04-18T18:27:28.188Z</time></trkpt><trkpt lat="44.1460101" lon="12.2152106"><ele>38.666666666666664</ele><time>2026-04-18T18:27:29.188Z</time></trkpt><trkpt lat="44.1459297" lon="12.2154627"><ele>38.33333333333333</ele><time>2026-04-18T18:27:30.188Z</time></trkpt><trkpt lat="44.1458596" lon="12.2156798"><ele>38.0</ele><time>2026-04-18T18:27:31.188Z</time></trkpt><trkpt lat="44.1458003" lon="12.215861"><ele>37.75</ele><time>2026-04-18T18:27:32.187Z</time></trkpt><trkpt lat="44.1457447" lon="12.2160243"><ele>37.5</ele><time>2026-04-18T18:27:33.188Z</time></trkpt><trkpt lat="44.1456868" lon="12.2162032"><ele>37.25</ele><time>2026-04-18T18:27:34.188Z</time></trkpt><trkpt lat="44.145623" lon="12.2164035"><ele>37.0</ele><time>2026-04-18T18:27:35.188Z</time></trkpt><trkpt lat="44.1455584" lon="12.216606"><ele>36.75</ele><time>2026-04-18T18:27:36.188Z</time></trkpt><trkpt lat="44.1455018" lon="12.2167942"><ele>36.5</ele><time>2026-04-18T18:27:37.188Z</time></trkpt><trkpt lat="44.1454513" lon="12.2169743"><ele>36.25</ele><time>2026-04-18T18:27:38.188Z</time></trkpt><trkpt lat="44.1454068" lon="12.2171468"><ele>36.0</ele><time>2026-04-18T18:27:39.188Z</time></trkpt><trkpt lat="44.1453741" lon="12.2173103"><ele>35.75</ele><time>2026-04-18T18:27:40.188Z</time></trkpt><trkpt lat="44.1453483" lon="12.2174655"><ele>35.5</ele><time>2026-04-18T18:27:41.188Z</time></trkpt><trkpt lat="44.14533" lon="12.2176161"><ele>35.25</ele><time>2026-04-18T18:27:42.188Z</time></trkpt><trkpt lat="44.1453164" lon="12.2177704"><ele>35.0</ele><time>2026-04-18T18:27:43.188Z</time></trkpt><trkpt lat="44.1453022" lon="12.2179385"><ele>35.0</ele><time>2026-04-18T18:27:44.187Z</time></trkpt><trkpt lat="44.1452851" lon="12.2181137"><ele>35.0</ele><time>2026-04-18T18:27:45.188Z</time></trkpt><trkpt lat="44.1452689" lon="12.2182734"><ele>35.0</ele><time>2026-04-18T18:27:46.188Z</time></trkpt><trkpt lat="44.1452504" lon="12.218419"><ele>35.0</ele><time>2026-04-18T18:27:47.188Z</time></trkpt><trkpt lat="44.1452307" lon="12.2185465"><ele>35.0</ele><time>2026-04-18T18:27:48.188Z</time></trkpt><trkpt lat="44.1452004" lon="12.2186591"><ele>35.0</ele><time>2026-04-18T18:27:49.188Z</time></trkpt><trkpt lat="44.1451561" lon="12.218766"><ele>35.0</ele><time>2026-04-18T18:27:50.188Z</time></trkpt><trkpt lat="44.1450995" lon="12.2188635"><ele>35.0</ele><time>2026-04-18T18:27:51.188Z</time></trkpt><trkpt lat="44.1450523" lon="12.2189673"><ele>35.0</ele><time>2026-04-18T18:27:52.188Z</time></trkpt><trkpt lat="44.1450346" lon="12.2190875"><ele>35.0</ele><time>2026-04-18T18:27:53.188Z</time></trkpt><trkpt lat="44.1450464" lon="12.219209"><ele>35.0</ele><time>2026-04-18T18:27:54.188Z</time></trkpt><trkpt lat="44.1450751" lon="12.219331"><ele>35.0</ele><time>2026-04-18T18:27:55.188Z</time></trkpt><trkpt lat="44.1451066" lon="12.2194605"><ele>35.0</ele><time>2026-04-18T18:27:56.188Z</time></trkpt><trkpt lat="44.1451229" lon="12.2196008"><ele>35.0</ele><time>2026-04-18T18:27:57.188Z</time></trkpt><trkpt lat="44.1451185" lon="12.2197549"><ele>35.0</ele><time>2026-04-18T18:27:58.187Z</time></trkpt><trkpt lat="44.1451024" lon="12.2199084"><ele>35.0</ele><time>2026-04-18T18:27:59.188Z</time></trkpt><trkpt lat="44.1450817" lon="12.2200597"><ele>35.0</ele><time>2026-04-18T18:28:00.188Z</time></trkpt><trkpt lat="44.1450609" lon="12.2202087"><ele>35.0</ele><time>2026-04-18T18:28:01.188Z</time></trkpt><trkpt lat="44.145038" lon="12.2203578"><ele>35.0</ele><time>2026-04-18T18:28:02.187Z</time></trkpt><trkpt lat="44.1450116" lon="12.2205092"><ele>35.0</ele><time>2026-04-18T18:28:03.187Z</time></trkpt><trkpt lat="44.144984" lon="12.2206659"><ele>35.0</ele><time>2026-04-18T18:28:04.188Z</time></trkpt><trkpt lat="44.1449567" lon="12.2208181"><ele>35.0</ele><time>2026-04-18T18:28:05.188Z</time></trkpt><trkpt lat="44.144928" lon="12.2209622"><ele>35.0</ele><time>2026-04-18T18:28:06.188Z</time></trkpt><trkpt lat="44.1448929" lon="12.2211063"><ele>35.0</ele><time>2026-04-18T18:28:07.188Z</time></trkpt><trkpt lat="44.1448522" lon="12.2212466"><ele>35.0</ele><time>2026-04-18T18:28:08.188Z</time></trkpt><trkpt lat="44.1448093" lon="12.22138"><ele>35.0</ele><time>2026-04-18T18:28:09.188Z</time></trkpt><trkpt lat="44.1447632" lon="12.2215111"><ele>35.0</ele><time>2026-04-18T18:28:10.188Z</time></trkpt><trkpt lat="44.1447125" lon="12.2216366"><ele>35.0</ele><time>2026-04-18T18:28:11.188Z</time></trkpt><trkpt lat="44.1446583" lon="12.2217578"><ele>35.0</ele><time>2026-04-18T18:28:12.188Z</time></trkpt><trkpt lat="44.1446016" lon="12.2218746"><ele>35.0</ele><time>2026-04-18T18:28:13.188Z</time></trkpt><trkpt lat="44.1445404" lon="12.2219905"><ele>35.0</ele><time>2026-04-18T18:28:14.187Z</time></trkpt><trkpt lat="44.1444763" lon="12.2221042"><ele>35.0</ele><time>2026-04-18T18:28:15.188Z</time></trkpt><trkpt lat="44.1444147" lon="12.2222144"><ele>35.0</ele><time>2026-04-18T18:28:16.188Z</time></trkpt><trkpt lat="44.1443544" lon="12.222322"><ele>35.0</ele><time>2026-04-18T18:28:17.188Z</time></trkpt><trkpt lat="44.1442974" lon="12.2224204"><ele>35.0</ele><time>2026-04-18T18:28:18.188Z</time></trkpt><trkpt lat="44.1442456" lon="12.222515"><ele>35.0</ele><time>2026-04-18T18:28:19.188Z</time></trkpt><trkpt lat="44.1441951" lon="12.2226057"><ele>35.0</ele><time>2026-04-18T18:28:20.188Z</time></trkpt><trkpt lat="44.1441325" lon="12.2227114"><ele>35.0</ele><time>2026-04-18T18:28:22.188Z</time></trkpt><trkpt lat="44.1440721" lon="12.22283"><ele>35.0</ele><time>2026-04-18T18:28:24.188Z</time></trkpt><trkpt lat="44.1440305" lon="12.2229045"><ele>35.0</ele><time>2026-04-18T18:28:25.188Z</time></trkpt><trkpt lat="44.1439808" lon="12.2229875"><ele>35.0</ele><time>2026-04-18T18:28:26.188Z</time></trkpt><trkpt lat="44.1439407" lon="12.2230618"><ele>35.0</ele><time>2026-04-18T18:28:27.188Z</time></trkpt><trkpt lat="44.143872" lon="12.2231847"><ele>34.83333333333333</ele><time>2026-04-18T18:28:29.188Z</time></trkpt><trkpt lat="44.1437937" lon="12.22332"><ele>34.666666666666664</ele><time>2026-04-18T18:28:31.188Z</time></trkpt><trkpt lat="44.1437517" lon="12.2233932"><ele>34.5</ele><time>2026-04-18T18:28:32.187Z</time></trkpt><trkpt lat="44.1437079" lon="12.2234721"><ele>34.333333333333336</ele><time>2026-04-18T18:28:33.188Z</time></trkpt><trkpt lat="44.1436642" lon="12.2235535"><ele>34.16666666666667</ele><time>2026-04-18T18:28:34.188Z</time></trkpt><trkpt lat="44.1436242" lon="12.2236289"><ele>34.0</ele><time>2026-04-18T18:28:35.188Z</time></trkpt><trkpt lat="44.143566" lon="12.2237378"><ele>34.0</ele><time>2026-04-18T18:28:37.188Z</time></trkpt><trkpt lat="44.1435164" lon="12.2238288"><ele>34.0</ele><time>2026-04-18T18:28:40.188Z</time></trkpt><trkpt lat="44.1434737" lon="12.2239184"><ele>34.0</ele><time>2026-04-18T18:28:42.188Z</time></trkpt><trkpt lat="44.1433926" lon="12.2240649"><ele>34.0</ele><time>2026-04-18T18:28:44.187Z</time></trkpt><trkpt lat="44.1433444" lon="12.2241494"><ele>34.0</ele><time>2026-04-18T18:28:45.188Z</time></trkpt><trkpt lat="44.1432946" lon="12.2242379"><ele>34.0</ele><time>2026-04-18T18:28:46.188Z</time></trkpt><trkpt lat="44.1432386" lon="12.2243245"><ele>34.0</ele><time>2026-04-18T18:28:47.188Z</time></trkpt><trkpt lat="44.1431771" lon="12.2244094"><ele>34.0</ele><time>2026-04-18T18:28:48.188Z</time></trkpt><trkpt lat="44.1431108" lon="12.2244903"><ele>34.0</ele><time>2026-04-18T18:28:49.188Z</time></trkpt><trkpt lat="44.1430382" lon="12.2245753"><ele>34.0</ele><time>2026-04-18T18:28:50.188Z</time></trkpt><trkpt lat="44.142956" lon="12.2246713"><ele>34.25</ele><time>2026-04-18T18:28:51.188Z</time></trkpt><trkpt lat="44.1428681" lon="12.2247735"><ele>34.5</ele><time>2026-04-18T18:28:52.188Z</time></trkpt><trkpt lat="44.1427747" lon="12.2248805"><ele>34.75</ele><time>2026-04-18T18:28:53.188Z</time></trkpt><trkpt lat="44.1426706" lon="12.2250041"><ele>35.0</ele><time>2026-04-18T18:28:54.188Z</time></trkpt><trkpt lat="44.1425495" lon="12.2251472"><ele>35.0</ele><time>2026-04-18T18:28:55.188Z</time></trkpt><trkpt lat="44.1424163" lon="12.2252969"><ele>35.0</ele><time>2026-04-18T18:28:56.188Z</time></trkpt><trkpt lat="44.1422801" lon="12.225446"><ele>35.0</ele><time>2026-04-18T18:28:57.188Z</time></trkpt><trkpt lat="44.1421577" lon="12.2255825"><ele>35.0</ele><time>2026-04-18T18:28:58.188Z</time></trkpt><trkpt lat="44.1420506" lon="12.2257189"><ele>35.0</ele><time>2026-04-18T18:28:59.188Z</time></trkpt><trkpt lat="44.1419553" lon="12.2258515"><ele>35.0</ele><time>2026-04-18T18:29:00.188Z</time></trkpt><trkpt lat="44.1418719" lon="12.2259738"><ele>35.0</ele><time>2026-04-18T18:29:01.188Z</time></trkpt><trkpt lat="44.1417987" lon="12.2260918"><ele>35.0</ele><time>2026-04-18T18:29:02.188Z</time></trkpt><trkpt lat="44.1417304" lon="12.2262069"><ele>35.0</ele><time>2026-04-18T18:29:03.188Z</time></trkpt><trkpt lat="44.141674" lon="12.2263054"><ele>35.0</ele><time>2026-04-18T18:29:04.188Z</time></trkpt><trkpt lat="44.1416156" lon="12.2263819"><ele>35.0</ele><time>2026-04-18T18:29:05.188Z</time></trkpt><trkpt lat="44.1415532" lon="12.2264352"><ele>35.0</ele><time>2026-04-18T18:29:06.188Z</time></trkpt><trkpt lat="44.1414902" lon="12.2264646"><ele>35.0</ele><time>2026-04-18T18:29:07.188Z</time></trkpt><trkpt lat="44.1414228" lon="12.2264901"><ele>34.8</ele><time>2026-04-18T18:29:08.187Z</time></trkpt><trkpt lat="44.1413437" lon="12.2265209"><ele>34.6</ele><time>2026-04-18T18:29:09.187Z</time></trkpt><trkpt lat="44.1412531" lon="12.2265543"><ele>34.4</ele><time>2026-04-18T18:29:10.188Z</time></trkpt><trkpt lat="44.1411619" lon="12.2266164"><ele>34.2</ele><time>2026-04-18T18:29:11.187Z</time></trkpt><trkpt lat="44.1410691" lon="12.2266986"><ele>34.0</ele><time>2026-04-18T18:29:12.188Z</time></trkpt><trkpt lat="44.1409804" lon="12.2267906"><ele>34.0</ele><time>2026-04-18T18:29:13.188Z</time></trkpt><trkpt lat="44.1408964" lon="12.2268792"><ele>34.0</ele><time>2026-04-18T18:29:14.188Z</time></trkpt><trkpt lat="44.1408184" lon="12.2269633"><ele>34.0</ele><time>2026-04-18T18:29:15.188Z</time></trkpt><trkpt lat="44.1407435" lon="12.2270513"><ele>34.0</ele><time>2026-04-18T18:29:16.188Z</time></trkpt><trkpt lat="44.1406662" lon="12.2271245"><ele>34.0</ele><time>2026-04-18T18:29:17.188Z</time></trkpt><trkpt lat="44.1405992" lon="12.227196"><ele>33.4</ele><time>2026-04-18T18:29:18.188Z</time></trkpt><trkpt lat="44.140537" lon="12.2272607"><ele>32.8</ele><time>2026-04-18T18:29:19.188Z</time></trkpt><trkpt lat="44.1404556" lon="12.2273529"><ele>32.2</ele><time>2026-04-18T18:29:21.188Z</time></trkpt><trkpt lat="44.1403595" lon="12.2274586"><ele>31.6</ele><time>2026-04-18T18:29:23.188Z</time></trkpt><trkpt lat="44.1403033" lon="12.227521"><ele>31.0</ele><time>2026-04-18T18:29:24.188Z</time></trkpt><trkpt lat="44.1402275" lon="12.2276147"><ele>30.75</ele><time>2026-04-18T18:29:25.188Z</time></trkpt><trkpt lat="44.140126" lon="12.2277324"><ele>30.5</ele><time>2026-04-18T18:29:26.187Z</time></trkpt><trkpt lat="44.140004" lon="12.2278491"><ele>30.25</ele><time>2026-04-18T18:29:27.188Z</time></trkpt><trkpt lat="44.1398728" lon="12.2279757"><ele>30.0</ele><time>2026-04-18T18:29:28.188Z</time></trkpt><trkpt lat="44.1397526" lon="12.2280951"><ele>30.0</ele><time>2026-04-18T18:29:29.188Z</time></trkpt><trkpt lat="44.1396427" lon="12.2282087"><ele>30.0</ele><time>2026-04-18T18:29:30.188Z</time></trkpt><trkpt lat="44.1395329" lon="12.2283219"><ele>30.0</ele><time>2026-04-18T18:29:31.188Z</time></trkpt><trkpt lat="44.1394248" lon="12.2284371"><ele>30.0</ele><time>2026-04-18T18:29:32.187Z</time></trkpt><trkpt lat="44.1393173" lon="12.2285526"><ele>30.0</ele><time>2026-04-18T18:29:33.188Z</time></trkpt><trkpt lat="44.1392092" lon="12.2286706"><ele>30.0</ele><time>2026-04-18T18:29:34.188Z</time></trkpt><trkpt lat="44.1391004" lon="12.2287868"><ele>30.0</ele><time>2026-04-18T18:29:35.187Z</time></trkpt><trkpt lat="44.1389924" lon="12.2289021"><ele>30.0</ele><time>2026-04-18T18:29:36.188Z</time></trkpt><trkpt lat="44.138891" lon="12.2290081"><ele>30.0</ele><time>2026-04-18T18:29:37.188Z</time></trkpt><trkpt lat="44.1387992" lon="12.229103"><ele>30.0</ele><time>2026-04-18T18:29:38.188Z</time></trkpt><trkpt lat="44.1387118" lon="12.2291985"><ele>30.0</ele><time>2026-04-18T18:29:39.188Z</time></trkpt><trkpt lat="44.1386312" lon="12.2292851"><ele>30.0</ele><time>2026-04-18T18:29:40.188Z</time></trkpt><trkpt lat="44.1385592" lon="12.2293609"><ele>30.0</ele><time>2026-04-18T18:29:41.187Z</time></trkpt><trkpt lat="44.138496" lon="12.2294293"><ele>30.0</ele><time>2026-04-18T18:29:42.188Z</time></trkpt><trkpt lat="44.1384381" lon="12.2294928"><ele>30.0</ele><time>2026-04-18T18:29:43.188Z</time></trkpt><trkpt lat="44.1383855" lon="12.2295476"><ele>30.0</ele><time>2026-04-18T18:29:44.188Z</time></trkpt><trkpt lat="44.1382951" lon="12.2296383"><ele>30.0</ele><time>2026-04-18T18:29:46.188Z</time></trkpt><trkpt lat="44.1381705" lon="12.2296808"><ele>30.0</ele><time>2026-04-18T18:29:48.188Z</time></trkpt><trkpt lat="44.1380868" lon="12.2296623"><ele>30.2</ele><time>2026-04-18T18:29:49.188Z</time></trkpt><trkpt lat="44.1379793" lon="12.2296316"><ele>30.4</ele><time>2026-04-18T18:29:50.188Z</time></trkpt><trkpt lat="44.1378715" lon="12.2296127"><ele>30.6</ele><time>2026-04-18T18:29:51.188Z</time></trkpt><trkpt lat="44.1377647" lon="12.2296022"><ele>30.8</ele><time>2026-04-18T18:29:52.188Z</time></trkpt><trkpt lat="44.1376646" lon="12.2295957"><ele>31.0</ele><time>2026-04-18T18:29:53.188Z</time></trkpt><trkpt lat="44.1375715" lon="12.2295948"><ele>31.0</ele><time>2026-04-18T18:29:54.188Z</time></trkpt><trkpt lat="44.1374819" lon="12.2295997"><ele>31.0</ele><time>2026-04-18T18:29:55.188Z</time></trkpt><trkpt lat="44.1373854" lon="12.2296057"><ele>31.0</ele><time>2026-04-18T18:29:56.188Z</time></trkpt><trkpt lat="44.1372856" lon="12.2296123"><ele>31.0</ele><time>2026-04-18T18:29:57.188Z</time></trkpt><trkpt lat="44.1371854" lon="12.2296163"><ele>31.0</ele><time>2026-04-18T18:29:58.188Z</time></trkpt><trkpt lat="44.137089" lon="12.2296221"><ele>31.0</ele><time>2026-04-18T18:29:59.188Z</time></trkpt><trkpt lat="44.1369941" lon="12.2296271"><ele>31.0</ele><time>2026-04-18T18:30:00.188Z</time></trkpt><trkpt lat="44.136903" lon="12.2296343"><ele>31.0</ele><time>2026-04-18T18:30:01.187Z</time></trkpt><trkpt lat="44.1368113" lon="12.2296418"><ele>31.0</ele><time>2026-04-18T18:30:02.188Z</time></trkpt><trkpt lat="44.1367179" lon="12.2296494"><ele>31.0</ele><time>2026-04-18T18:30:03.188Z</time></trkpt><trkpt lat="44.1366335" lon="12.2296566"><ele>31.0</ele><time>2026-04-18T18:30:04.188Z</time></trkpt><trkpt lat="44.1365534" lon="12.2296613"><ele>31.0</ele><time>2026-04-18T18:30:05.187Z</time></trkpt><trkpt lat="44.1364729" lon="12.2296713"><ele>31.0</ele><time>2026-04-18T18:30:06.188Z</time></trkpt><trkpt lat="44.1363757" lon="12.2296799"><ele>31.0</ele><time>2026-04-18T18:30:07.187Z</time></trkpt><trkpt lat="44.1362643" lon="12.229682"><ele>31.0</ele><time>2026-04-18T18:30:08.188Z</time></trkpt><trkpt lat="44.1361402" lon="12.2296824"><ele>31.75</ele><time>2026-04-18T18:30:09.188Z</time></trkpt><trkpt lat="44.1360023" lon="12.2296876"><ele>32.5</ele><time>2026-04-18T18:30:10.188Z</time></trkpt><trkpt lat="44.1358624" lon="12.2296913"><ele>33.25</ele><time>2026-04-18T18:30:11.187Z</time></trkpt><trkpt lat="44.1357378" lon="12.2296992"><ele>34.0</ele><time>2026-04-18T18:30:12.187Z</time></trkpt><trkpt lat="44.1356188" lon="12.2297075"><ele>34.4</ele><time>2026-04-18T18:30:13.188Z</time></trkpt><trkpt lat="44.1355124" lon="12.2297114"><ele>34.8</ele><time>2026-04-18T18:30:14.188Z</time></trkpt><trkpt lat="44.1354191" lon="12.2297143"><ele>35.2</ele><time>2026-04-18T18:30:15.188Z</time></trkpt><trkpt lat="44.1353365" lon="12.2297157"><ele>35.6</ele><time>2026-04-18T18:30:16.188Z</time></trkpt><trkpt lat="44.1352537" lon="12.229706"><ele>36.0</ele><time>2026-04-18T18:30:17.187Z</time></trkpt><trkpt lat="44.1351695" lon="12.2296757"><ele>36.0</ele><time>2026-04-18T18:30:18.188Z</time></trkpt><trkpt lat="44.1350843" lon="12.2296587"><ele>36.0</ele><time>2026-04-18T18:30:19.188Z</time></trkpt><trkpt lat="44.1349921" lon="12.2296837"><ele>36.0</ele><time>2026-04-18T18:30:20.188Z</time></trkpt><trkpt lat="44.1349081" lon="12.2297221"><ele>36.0</ele><time>2026-04-18T18:30:21.187Z</time></trkpt><trkpt lat="44.1348413" lon="12.2297576"><ele>36.0</ele><time>2026-04-18T18:30:22.188Z</time></trkpt><trkpt lat="44.134734" lon="12.2297791"><ele>36.0</ele><time>2026-04-18T18:30:23.188Z</time></trkpt><trkpt lat="44.1346105" lon="12.2297888"><ele>35.75</ele><time>2026-04-18T18:30:24.188Z</time></trkpt><trkpt lat="44.13448" lon="12.229795"><ele>35.5</ele><time>2026-04-18T18:30:25.188Z</time></trkpt><trkpt lat="44.1343381" lon="12.2298007"><ele>35.25</ele><time>2026-04-18T18:30:26.188Z</time></trkpt><trkpt lat="44.1341946" lon="12.2298094"><ele>35.0</ele><time>2026-04-18T18:30:27.188Z</time></trkpt><trkpt lat="44.1340586" lon="12.2298126"><ele>35.0</ele><time>2026-04-18T18:30:28.188Z</time></trkpt><trkpt lat="44.1339352" lon="12.2298174"><ele>35.0</ele><time>2026-04-18T18:30:29.188Z</time></trkpt><trkpt lat="44.1338281" lon="12.2298234"><ele>35.0</ele><time>2026-04-18T18:30:30.188Z</time></trkpt><trkpt lat="44.1337402" lon="12.2298397"><ele>35.0</ele><time>2026-04-18T18:30:31.188Z</time></trkpt><trkpt lat="44.1336674" lon="12.2298852"><ele>35.0</ele><time>2026-04-18T18:30:32.188Z</time></trkpt><trkpt lat="44.1336227" lon="12.2299644"><ele>35.0</ele><time>2026-04-18T18:30:33.188Z</time></trkpt><trkpt lat="44.1336048" lon="12.2300779"><ele>35.0</ele><time>2026-04-18T18:30:34.188Z</time></trkpt><trkpt lat="44.1335981" lon="12.2302412"><ele>35.0</ele><time>2026-04-18T18:30:35.188Z</time></trkpt><trkpt lat="44.133608" lon="12.230419"><ele>35.0</ele><time>2026-04-18T18:30:36.187Z</time></trkpt><trkpt lat="44.1336274" lon="12.2306211"><ele>34.33333333333333</ele><time>2026-04-18T18:30:37.188Z</time></trkpt><trkpt lat="44.1336521" lon="12.2308324"><ele>33.666666666666664</ele><time>2026-04-18T18:30:38.188Z</time></trkpt><trkpt lat="44.1336766" lon="12.2310543"><ele>33.0</ele><time>2026-04-18T18:30:39.188Z</time></trkpt><trkpt lat="44.1337026" lon="12.2312758"><ele>33.0</ele><time>2026-04-18T18:30:40.188Z</time></trkpt><trkpt lat="44.1337325" lon="12.2314878"><ele>33.0</ele><time>2026-04-18T18:30:41.188Z</time></trkpt><trkpt lat="44.1337616" lon="12.2316889"><ele>33.0</ele><time>2026-04-18T18:30:42.188Z</time></trkpt><trkpt lat="44.1337924" lon="12.231889"><ele>33.0</ele><time>2026-04-18T18:30:43.188Z</time></trkpt><trkpt lat="44.1338182" lon="12.2320976"><ele>32.0</ele><time>2026-04-18T18:30:44.187Z</time></trkpt><trkpt lat="44.1338385" lon="12.2323107"><ele>31.0</ele><time>2026-04-18T18:30:45.188Z</time></trkpt><trkpt lat="44.1338572" lon="12.2325269"><ele>30.0</ele><time>2026-04-18T18:30:46.188Z</time></trkpt><trkpt lat="44.1338737" lon="12.2327466"><ele>30.0</ele><time>2026-04-18T18:30:47.188Z</time></trkpt><trkpt lat="44.1338917" lon="12.2329712"><ele>30.0</ele><time>2026-04-18T18:30:48.188Z</time></trkpt><trkpt lat="44.1339065" lon="12.2331931"><ele>30.0</ele><time>2026-04-18T18:30:49.188Z</time></trkpt><trkpt lat="44.133915" lon="12.2333999"><ele>30.0</ele><time>2026-04-18T18:30:50.188Z</time></trkpt><trkpt lat="44.1339248" lon="12.2336066"><ele>30.0</ele><time>2026-04-18T18:30:51.188Z</time></trkpt><trkpt lat="44.1339349" lon="12.233819"><ele>30.0</ele><time>2026-04-18T18:30:52.188Z</time></trkpt><trkpt lat="44.1339434" lon="12.2340107"><ele>30.0</ele><time>2026-04-18T18:30:53.188Z</time></trkpt><trkpt lat="44.1339507" lon="12.2341804"><ele>30.0</ele><time>2026-04-18T18:30:54.188Z</time></trkpt><trkpt lat="44.1339572" lon="12.2343415"><ele>30.0</ele><time>2026-04-18T18:30:55.188Z</time></trkpt><trkpt lat="44.133961" lon="12.2344773"><ele>30.0</ele><time>2026-04-18T18:30:56.188Z</time></trkpt><trkpt lat="44.1339598" lon="12.2346046"><ele>30.0</ele><time>2026-04-18T18:30:57.188Z</time></trkpt><trkpt lat="44.1339554" lon="12.2347132"><ele>30.0</ele><time>2026-04-18T18:30:58.188Z</time></trkpt><trkpt lat="44.1339487" lon="12.2348149"><ele>30.666666666666668</ele><time>2026-04-18T18:30:59.188Z</time></trkpt><trkpt lat="44.1339276" lon="12.2349247"><ele>31.333333333333336</ele><time>2026-04-18T18:31:00.188Z</time></trkpt><trkpt lat="44.1338939" lon="12.2350391"><ele>32.0</ele><time>2026-04-18T18:31:01.187Z</time></trkpt><trkpt lat="44.1338766" lon="12.2351406"><ele>32.66666666666667</ele><time>2026-04-18T18:31:02.188Z</time></trkpt><trkpt lat="44.1338925" lon="12.2352389"><ele>33.333333333333336</ele><time>2026-04-18T18:31:03.188Z</time></trkpt><trkpt lat="44.1339336" lon="12.2353392"><ele>34.0</ele><time>2026-04-18T18:31:04.188Z</time></trkpt><trkpt lat="44.1339773" lon="12.2354353"><ele>34.0</ele><time>2026-04-18T18:31:05.188Z</time></trkpt><trkpt lat="44.1340017" lon="12.2355531"><ele>34.0</ele><time>2026-04-18T18:31:06.188Z</time></trkpt><trkpt lat="44.1340149" lon="12.2357044"><ele>34.0</ele><time>2026-04-18T18:31:07.188Z</time></trkpt><trkpt lat="44.1340232" lon="12.2358632"><ele>34.0</ele><time>2026-04-18T18:31:08.188Z</time></trkpt><trkpt lat="44.1340307" lon="12.2360422"><ele>34.0</ele><time>2026-04-18T18:31:09.188Z</time></trkpt><trkpt lat="44.1340375" lon="12.2362284"><ele>34.0</ele><time>2026-04-18T18:31:10.188Z</time></trkpt><trkpt lat="44.1340425" lon="12.2363992"><ele>34.0</ele><time>2026-04-18T18:31:11.188Z</time></trkpt><trkpt lat="44.1340465" lon="12.2365548"><ele>34.0</ele><time>2026-04-18T18:31:12.188Z</time></trkpt><trkpt lat="44.134053" lon="12.2367017"><ele>34.0</ele><time>2026-04-18T18:31:13.188Z</time></trkpt><trkpt lat="44.1340719" lon="12.2368289"><ele>34.0</ele><time>2026-04-18T18:31:14.188Z</time></trkpt><trkpt lat="44.1341114" lon="12.23694"><ele>34.0</ele><time>2026-04-18T18:31:15.188Z</time></trkpt><trkpt lat="44.1341722" lon="12.2370406"><ele>34.0</ele><time>2026-04-18T18:31:16.187Z</time></trkpt><trkpt lat="44.1342473" lon="12.2371368"><ele>34.0</ele><time>2026-04-18T18:31:17.188Z</time></trkpt><trkpt lat="44.1343277" lon="12.2372379"><ele>34.0</ele><time>2026-04-18T18:31:18.188Z</time></trkpt><trkpt lat="44.1344113" lon="12.2373489"><ele>34.0</ele><time>2026-04-18T18:31:19.188Z</time></trkpt><trkpt lat="44.1345054" lon="12.2374655"><ele>34.0</ele><time>2026-04-18T18:31:20.187Z</time></trkpt><trkpt lat="44.1345928" lon="12.2375761"><ele>34.0</ele><time>2026-04-18T18:31:21.188Z</time></trkpt><trkpt lat="44.1346723" lon="12.2376754"><ele>34.0</ele><time>2026-04-18T18:31:22.188Z</time></trkpt><trkpt lat="44.1347573" lon="12.2377747"><ele>34.0</ele><time>2026-04-18T18:31:23.188Z</time></trkpt><trkpt lat="44.1348297" lon="12.2378751"><ele>34.0</ele><time>2026-04-18T18:31:24.188Z</time></trkpt><trkpt lat="44.1349027" lon="12.2379749"><ele>34.2</ele><time>2026-04-18T18:31:25.187Z</time></trkpt><trkpt lat="44.1349798" lon="12.2380791"><ele>34.4</ele><time>2026-04-18T18:31:26.188Z</time></trkpt><trkpt lat="44.1350569" lon="12.2381805"><ele>34.6</ele><time>2026-04-18T18:31:27.188Z</time></trkpt><trkpt lat="44.1351313" lon="12.2382809"><ele>34.8</ele><time>2026-04-18T18:31:28.188Z</time></trkpt><trkpt lat="44.1351923" lon="12.2383832"><ele>35.0</ele><time>2026-04-18T18:31:29.188Z</time></trkpt><trkpt lat="44.1352325" lon="12.2384943"><ele>35.33333333333333</ele><time>2026-04-18T18:31:30.188Z</time></trkpt><trkpt lat="44.1352508" lon="12.2386166"><ele>35.666666666666664</ele><time>2026-04-18T18:31:31.188Z</time></trkpt><trkpt lat="44.1352481" lon="12.2387404"><ele>36.0</ele><time>2026-04-18T18:31:32.188Z</time></trkpt><trkpt lat="44.1352223" lon="12.2388493"><ele>36.333333333333336</ele><time>2026-04-18T18:31:33.188Z</time></trkpt><trkpt lat="44.1351685" lon="12.2389428"><ele>36.66666666666667</ele><time>2026-04-18T18:31:34.187Z</time></trkpt><trkpt lat="44.1350938" lon="12.2390192"><ele>37.0</ele><time>2026-04-18T18:31:35.188Z</time></trkpt><trkpt lat="44.1350058" lon="12.2390938"><ele>39.0</ele><time>2026-04-18T18:31:36.188Z</time></trkpt><trkpt lat="44.1349151" lon="12.2391657"><ele>41.0</ele><time>2026-04-18T18:31:37.187Z</time></trkpt><trkpt lat="44.1348109" lon="12.2392295"><ele>43.0</ele><time>2026-04-18T18:31:38.188Z</time></trkpt><trkpt lat="44.1346884" lon="12.2392743"><ele>45.0</ele><time>2026-04-18T18:31:39.188Z</time></trkpt><trkpt lat="44.1345667" lon="12.239303"><ele>45.0</ele><time>2026-04-18T18:31:40.188Z</time></trkpt><trkpt lat="44.134448" lon="12.2393145"><ele>45.0</ele><time>2026-04-18T18:31:41.188Z</time></trkpt><trkpt lat="44.13434" lon="12.2393224"><ele>45.0</ele><time>2026-04-18T18:31:42.188Z</time></trkpt><trkpt lat="44.1342406" lon="12.2393278"><ele>45.0</ele><time>2026-04-18T18:31:43.188Z</time></trkpt><trkpt lat="44.134153" lon="12.2393194"><ele>45.0</ele><time>2026-04-18T18:31:44.187Z</time></trkpt><trkpt lat="44.1340666" lon="12.2393043"><ele>46.333333333333336</ele><time>2026-04-18T18:31:45.188Z</time></trkpt><trkpt lat="44.1339748" lon="12.239287"><ele>47.66666666666667</ele><time>2026-04-18T18:31:46.188Z</time></trkpt><trkpt lat="44.1338843" lon="12.2392654"><ele>49.0</ele><time>2026-04-18T18:31:47.188Z</time></trkpt><trkpt lat="44.1337952" lon="12.239245"><ele>50.333333333333336</ele><time>2026-04-18T18:31:48.188Z</time></trkpt><trkpt lat="44.1337136" lon="12.2392281"><ele>51.66666666666667</ele><time>2026-04-18T18:31:49.187Z</time></trkpt><trkpt lat="44.1336333" lon="12.2392111"><ele>53.0</ele><time>2026-04-18T18:31:50.188Z</time></trkpt><trkpt lat="44.1335482" lon="12.2391978"><ele>53.00000000000001</ele><time>2026-04-18T18:31:51.188Z</time></trkpt><trkpt lat="44.1334646" lon="12.2392025"><ele>53.0</ele><time>2026-04-18T18:31:52.188Z</time></trkpt><trkpt lat="44.1333882" lon="12.2392283"><ele>53.0</ele><time>2026-04-18T18:31:53.188Z</time></trkpt><trkpt lat="44.1333213" lon="12.2392732"><ele>53.0</ele><time>2026-04-18T18:31:54.188Z</time></trkpt><trkpt lat="44.1332628" lon="12.2393353"><ele>53.00000000000001</ele><time>2026-04-18T18:31:55.188Z</time></trkpt><trkpt lat="44.1332177" lon="12.2394149"><ele>53.0</ele><time>2026-04-18T18:31:56.188Z</time></trkpt><trkpt lat="44.1331849" lon="12.2395091"><ele>57.00000000000001</ele><time>2026-04-18T18:31:57.187Z</time></trkpt><trkpt lat="44.1331631" lon="12.2396138"><ele>61.0</ele><time>2026-04-18T18:31:58.188Z</time></trkpt><trkpt lat="44.1331451" lon="12.2397262"><ele>65.0</ele><time>2026-04-18T18:31:59.188Z</time></trkpt><trkpt lat="44.1331312" lon="12.2398481"><ele>69.0</ele><time>2026-04-18T18:32:00.188Z</time></trkpt><trkpt lat="44.1331165" lon="12.2399714"><ele>73.0</ele><time>2026-04-18T18:32:01.188Z</time></trkpt><trkpt lat="44.1330991" lon="12.2401042"><ele>77.0</ele><time>2026-04-18T18:32:02.188Z</time></trkpt><trkpt lat="44.133087" lon="12.240237"><ele>77.0</ele><time>2026-04-18T18:32:03.188Z</time></trkpt><trkpt lat="44.1330621" lon="12.2403896"><ele>77.0</ele><time>2026-04-18T18:32:04.188Z</time></trkpt><trkpt lat="44.1330541" lon="12.2405504"><ele>77.0</ele><time>2026-04-18T18:32:05.188Z</time></trkpt><trkpt lat="44.1330364" lon="12.2407137"><ele>77.0</ele><time>2026-04-18T18:32:06.188Z</time></trkpt><trkpt lat="44.1330167" lon="12.2408849"><ele>73.8</ele><time>2026-04-18T18:32:07.188Z</time></trkpt><trkpt lat="44.1329936" lon="12.2410447"><ele>70.6</ele><time>2026-04-18T18:32:08.188Z</time></trkpt><trkpt lat="44.1329738" lon="12.2411936"><ele>67.39999999999999</ele><time>2026-04-18T18:32:09.188Z</time></trkpt><trkpt lat="44.1329524" lon="12.2413334"><ele>64.2</ele><time>2026-04-18T18:32:10.188Z</time></trkpt><trkpt lat="44.1329338" lon="12.2414652"><ele>61.0</ele><time>2026-04-18T18:32:11.188Z</time></trkpt><trkpt lat="44.1329168" lon="12.2415926"><ele>59.49999999999999</ele><time>2026-04-18T18:32:12.187Z</time></trkpt><trkpt lat="44.1329043" lon="12.2416952"><ele>58.0</ele><time>2026-04-18T18:32:13.188Z</time></trkpt><trkpt lat="44.1328938" lon="12.2417879"><ele>56.5</ele><time>2026-04-18T18:32:14.188Z</time></trkpt><trkpt lat="44.1328831" lon="12.2418779"><ele>55.0</ele><time>2026-04-18T18:32:15.188Z</time></trkpt><trkpt lat="44.1328577" lon="12.2419593"><ele>53.49999999999999</ele><time>2026-04-18T18:32:16.188Z</time></trkpt><trkpt lat="44.1327571" lon="12.2420672"><ele>52.0</ele><time>2026-04-18T18:32:18.188Z</time></trkpt><trkpt lat="44.1326959" lon="12.2420882"><ele>51.99999999999999</ele><time>2026-04-18T18:32:19.188Z</time></trkpt><trkpt lat="44.1325844" lon="12.2421054"><ele>52.0</ele><time>2026-04-18T18:32:21.188Z</time></trkpt><trkpt lat="44.132518" lon="12.2421176"><ele>52.0</ele><time>2026-04-18T18:32:22.188Z</time></trkpt><trkpt lat="44.1324419" lon="12.2421356"><ele>52.0</ele><time>2026-04-18T18:32:23.187Z</time></trkpt><trkpt lat="44.1323694" lon="12.2421637"><ele>51.99999999999999</ele><time>2026-04-18T18:32:24.188Z</time></trkpt><trkpt lat="44.1323019" lon="12.2422128"><ele>52.0</ele><time>2026-04-18T18:32:25.188Z</time></trkpt><trkpt lat="44.1322488" lon="12.242289"><ele>50.99999999999999</ele><time>2026-04-18T18:32:26.188Z</time></trkpt><trkpt lat="44.1322159" lon="12.2423849"><ele>50.0</ele><time>2026-04-18T18:32:27.188Z</time></trkpt><trkpt lat="44.1322092" lon="12.2424863"><ele>49.0</ele><time>2026-04-18T18:32:28.188Z</time></trkpt><trkpt lat="44.1322298" lon="12.2425782"><ele>48.0</ele><time>2026-04-18T18:32:29.188Z</time></trkpt><trkpt lat="44.1322768" lon="12.2426572"><ele>47.0</ele><time>2026-04-18T18:32:30.188Z</time></trkpt><trkpt lat="44.1323517" lon="12.2427155"><ele>46.0</ele><time>2026-04-18T18:32:31.188Z</time></trkpt><trkpt lat="44.1324439" lon="12.2427462"><ele>46.0</ele><time>2026-04-18T18:32:32.188Z</time></trkpt><trkpt lat="44.1325446" lon="12.2427518"><ele>46.0</ele><time>2026-04-18T18:32:33.188Z</time></trkpt><trkpt lat="44.1326516" lon="12.2427369"><ele>46.0</ele><time>2026-04-18T18:32:34.188Z</time></trkpt><trkpt lat="44.1327618" lon="12.2426957"><ele>46.0</ele><time>2026-04-18T18:32:35.188Z</time></trkpt><trkpt lat="44.1328788" lon="12.2426492"><ele>46.0</ele><time>2026-04-18T18:32:36.188Z</time></trkpt><trkpt lat="44.132992" lon="12.242614"><ele>46.0</ele><time>2026-04-18T18:32:37.188Z</time></trkpt><trkpt lat="44.1331054" lon="12.2425969"><ele>46.0</ele><time>2026-04-18T18:32:38.188Z</time></trkpt><trkpt lat="44.1332143" lon="12.2425855"><ele>46.0</ele><time>2026-04-18T18:32:39.188Z</time></trkpt><trkpt lat="44.1333219" lon="12.2425648"><ele>46.0</ele><time>2026-04-18T18:32:40.188Z</time></trkpt><trkpt lat="44.1334309" lon="12.2425431"><ele>46.0</ele><time>2026-04-18T18:32:41.188Z</time></trkpt><trkpt lat="44.1335405" lon="12.2425266"><ele>46.599999999999994</ele><time>2026-04-18T18:32:42.188Z</time></trkpt><trkpt lat="44.1336518" lon="12.2425138"><ele>47.2</ele><time>2026-04-18T18:32:43.188Z</time></trkpt><trkpt lat="44.133762" lon="12.2424978"><ele>47.8</ele><time>2026-04-18T18:32:44.188Z</time></trkpt><trkpt lat="44.1338726" lon="12.2424816"><ele>48.400000000000006</ele><time>2026-04-18T18:32:45.188Z</time></trkpt><trkpt lat="44.1339826" lon="12.2424676"><ele>49.0</ele><time>2026-04-18T18:32:46.187Z</time></trkpt><trkpt lat="44.1340918" lon="12.2424491"><ele>49.0</ele><time>2026-04-18T18:32:47.188Z</time></trkpt><trkpt lat="44.1341926" lon="12.2424321"><ele>49.0</ele><time>2026-04-18T18:32:48.188Z</time></trkpt><trkpt lat="44.134291" lon="12.2424186"><ele>49.0</ele><time>2026-04-18T18:32:49.188Z</time></trkpt><trkpt lat="44.1343795" lon="12.2424056"><ele>49.0</ele><time>2026-04-18T18:32:50.188Z</time></trkpt><trkpt lat="44.1344639" lon="12.2424109"><ele>49.0</ele><time>2026-04-18T18:32:51.188Z</time></trkpt><trkpt lat="44.1345397" lon="12.2424418"><ele>48.99999999999999</ele><time>2026-04-18T18:32:52.187Z</time></trkpt><trkpt lat="44.1346015" lon="12.2425029"><ele>49.0</ele><time>2026-04-18T18:32:53.188Z</time></trkpt><trkpt lat="44.1346389" lon="12.242592"><ele>49.0</ele><time>2026-04-18T18:32:54.188Z</time></trkpt><trkpt lat="44.1346534" lon="12.242684"><ele>49.0</ele><time>2026-04-18T18:32:55.188Z</time></trkpt><trkpt lat="44.1346533" lon="12.2427868"><ele>48.99999999999999</ele><time>2026-04-18T18:32:56.187Z</time></trkpt><trkpt lat="44.1346484" lon="12.2428987"><ele>49.0</ele><time>2026-04-18T18:32:57.187Z</time></trkpt><trkpt lat="44.1346425" lon="12.2430154"><ele>48.99999999999999</ele><time>2026-04-18T18:32:58.188Z</time></trkpt><trkpt lat="44.1346367" lon="12.2431275"><ele>49.0</ele><time>2026-04-18T18:32:59.188Z</time></trkpt><trkpt lat="44.1346303" lon="12.2432291"><ele>49.0</ele><time>2026-04-18T18:33:00.188Z</time></trkpt><trkpt lat="44.1346216" lon="12.2433374"><ele>49.0</ele><time>2026-04-18T18:33:01.188Z</time></trkpt><trkpt lat="44.1346202" lon="12.2434617"><ele>48.99999999999999</ele><time>2026-04-18T18:33:02.188Z</time></trkpt><trkpt lat="44.1346321" lon="12.2435951"><ele>49.0</ele><time>2026-04-18T18:33:03.188Z</time></trkpt><trkpt lat="44.1346455" lon="12.2437244"><ele>48.0</ele><time>2026-04-18T18:33:04.187Z</time></trkpt><trkpt lat="44.1346602" lon="12.2438492"><ele>47.0</ele><time>2026-04-18T18:33:05.188Z</time></trkpt><trkpt lat="44.1346751" lon="12.2439706"><ele>46.0</ele><time>2026-04-18T18:33:06.188Z</time></trkpt><trkpt lat="44.1346906" lon="12.2440947"><ele>45.0</ele><time>2026-04-18T18:33:07.187Z</time></trkpt><trkpt lat="44.1347074" lon="12.2442218"><ele>44.0</ele><time>2026-04-18T18:33:08.188Z</time></trkpt><trkpt lat="44.1347269" lon="12.2443521"><ele>43.5</ele><time>2026-04-18T18:33:09.188Z</time></trkpt><trkpt lat="44.1347498" lon="12.244497"><ele>43.0</ele><time>2026-04-18T18:33:10.188Z</time></trkpt><trkpt lat="44.1347759" lon="12.244659"><ele>42.5</ele><time>2026-04-18T18:33:11.188Z</time></trkpt><trkpt lat="44.1348021" lon="12.2448282"><ele>42.0</ele><time>2026-04-18T18:33:12.188Z</time></trkpt><trkpt lat="44.1348273" lon="12.2450122"><ele>42.0</ele><time>2026-04-18T18:33:13.188Z</time></trkpt><trkpt lat="44.1348432" lon="12.245179"><ele>42.0</ele><time>2026-04-18T18:33:14.187Z</time></trkpt><trkpt lat="44.1348546" lon="12.245325"><ele>42.0</ele><time>2026-04-18T18:33:15.188Z</time></trkpt><trkpt lat="44.1348631" lon="12.2454632"><ele>42.0</ele><time>2026-04-18T18:33:16.188Z</time></trkpt><trkpt lat="44.1348727" lon="12.2455932"><ele>42.0</ele><time>2026-04-18T18:33:17.187Z</time></trkpt><trkpt lat="44.13488" lon="12.2457199"><ele>43.0</ele><time>2026-04-18T18:33:18.188Z</time></trkpt><trkpt lat="44.134888" lon="12.2458473"><ele>44.0</ele><time>2026-04-18T18:33:19.188Z</time></trkpt><trkpt lat="44.1348932" lon="12.2459768"><ele>45.0</ele><time>2026-04-18T18:33:20.188Z</time></trkpt><trkpt lat="44.134898" lon="12.2461117"><ele>46.0</ele><time>2026-04-18T18:33:21.188Z</time></trkpt><trkpt lat="44.1349048" lon="12.2462542"><ele>47.0</ele><time>2026-04-18T18:33:22.188Z</time></trkpt><trkpt lat="44.1349105" lon="12.246396"><ele>47.0</ele><time>2026-04-18T18:33:23.188Z</time></trkpt><trkpt lat="44.1349142" lon="12.2465385"><ele>47.0</ele><time>2026-04-18T18:33:24.188Z</time></trkpt><trkpt lat="44.1349195" lon="12.2466797"><ele>47.0</ele><time>2026-04-18T18:33:25.187Z</time></trkpt><trkpt lat="44.1349246" lon="12.2468142"><ele>47.0</ele><time>2026-04-18T18:33:26.188Z</time></trkpt><trkpt lat="44.1349332" lon="12.2469373"><ele>47.0</ele><time>2026-04-18T18:33:27.188Z</time></trkpt><trkpt lat="44.1349362" lon="12.2470489"><ele>47.0</ele><time>2026-04-18T18:33:28.187Z</time></trkpt><trkpt lat="44.134941" lon="12.247196"><ele>47.0</ele><time>2026-04-18T18:33:30.188Z</time></trkpt><trkpt lat="44.1349578" lon="12.247291"><ele>47.0</ele><time>2026-04-18T18:34:27.188Z</time></trkpt><trkpt lat="44.134965" lon="12.2473936"><ele>47.0</ele><time>2026-04-18T18:34:29.188Z</time></trkpt><trkpt lat="44.1349749" lon="12.2475358"><ele>47.0</ele><time>2026-04-18T18:34:31.187Z</time></trkpt><trkpt lat="44.1349777" lon="12.2476304"><ele>47.0</ele><time>2026-04-18T18:34:32.188Z</time></trkpt><trkpt lat="44.1349832" lon="12.247738"><ele>47.0</ele><time>2026-04-18T18:34:33.188Z</time></trkpt><trkpt lat="44.134991" lon="12.247864"><ele>47.0</ele><time>2026-04-18T18:34:34.188Z</time></trkpt><trkpt lat="44.1350091" lon="12.2480331"><ele>47.0</ele><time>2026-04-18T18:34:35.188Z</time></trkpt><trkpt lat="44.1350234" lon="12.2482433"><ele>47.0</ele><time>2026-04-18T18:34:36.188Z</time></trkpt><trkpt lat="44.1350299" lon="12.2484872"><ele>47.0</ele><time>2026-04-18T18:34:37.188Z</time></trkpt><trkpt lat="44.1350379" lon="12.248732"><ele>47.0</ele><time>2026-04-18T18:34:38.188Z</time></trkpt><trkpt lat="44.1350478" lon="12.2489819"><ele>47.0</ele><time>2026-04-18T18:34:39.188Z</time></trkpt><trkpt lat="44.1350591" lon="12.2492288"><ele>47.0</ele><time>2026-04-18T18:34:40.188Z</time></trkpt><trkpt lat="44.135073" lon="12.2494746"><ele>47.0</ele><time>2026-04-18T18:34:41.188Z</time></trkpt><trkpt lat="44.1350848" lon="12.2497126"><ele>47.0</ele><time>2026-04-18T18:34:42.188Z</time></trkpt><trkpt lat="44.1350976" lon="12.2499402"><ele>47.0</ele><time>2026-04-18T18:34:43.188Z</time></trkpt><trkpt lat="44.1351174" lon="12.2501639"><ele>47.0</ele><time>2026-04-18T18:34:44.188Z</time></trkpt><trkpt lat="44.1351487" lon="12.2503798"><ele>47.0</ele><time>2026-04-18T18:34:45.188Z</time></trkpt><trkpt lat="44.135179" lon="12.250587"><ele>47.5</ele><time>2026-04-18T18:34:46.188Z</time></trkpt><trkpt lat="44.1352118" lon="12.2507808"><ele>48.0</ele><time>2026-04-18T18:34:47.187Z</time></trkpt><trkpt lat="44.1352462" lon="12.250974"><ele>48.5</ele><time>2026-04-18T18:34:48.188Z</time></trkpt><trkpt lat="44.1352927" lon="12.2511562"><ele>49.0</ele><time>2026-04-18T18:34:49.188Z</time></trkpt><trkpt lat="44.1353606" lon="12.2513285"><ele>49.666666666666664</ele><time>2026-04-18T18:34:50.188Z</time></trkpt><trkpt lat="44.1354531" lon="12.2515064"><ele>50.33333333333333</ele><time>2026-04-18T18:34:51.188Z</time></trkpt><trkpt lat="44.1355622" lon="12.2516831"><ele>51.0</ele><time>2026-04-18T18:34:52.188Z</time></trkpt><trkpt lat="44.1356773" lon="12.2518612"><ele>51.33333333333333</ele><time>2026-04-18T18:34:53.188Z</time></trkpt><trkpt lat="44.1357976" lon="12.252037"><ele>51.666666666666664</ele><time>2026-04-18T18:34:54.188Z</time></trkpt><trkpt lat="44.135912" lon="12.2521975"><ele>52.0</ele><time>2026-04-18T18:34:55.188Z</time></trkpt><trkpt lat="44.136012" lon="12.2523482"><ele>52.0</ele><time>2026-04-18T18:34:56.168Z</time></trkpt><trkpt lat="44.1361144" lon="12.2524917"><ele>52.0</ele><time>2026-04-18T18:34:57.166Z</time></trkpt><trkpt lat="44.1362122" lon="12.2526302"><ele>52.0</ele><time>2026-04-18T18:34:58.166Z</time></trkpt><trkpt lat="44.1363023" lon="12.2527585"><ele>52.0</ele><time>2026-04-18T18:34:59.17Z</time></trkpt><trkpt lat="44.1363904" lon="12.2528831"><ele>52.0</ele><time>2026-04-18T18:35:00.171Z</time></trkpt><trkpt lat="44.136472" lon="12.253001"><ele>52.0</ele><time>2026-04-18T18:35:01.164Z</time></trkpt><trkpt lat="44.1365509" lon="12.2531141"><ele>52.0</ele><time>2026-04-18T18:35:02.164Z</time></trkpt><trkpt lat="44.13663" lon="12.2532264"><ele>52.0</ele><time>2026-04-18T18:35:03.164Z</time></trkpt><trkpt lat="44.1366972" lon="12.2533206"><ele>52.0</ele><time>2026-04-18T18:35:04.164Z</time></trkpt><trkpt lat="44.136765" lon="12.2534169"><ele>51.99999999999999</ele><time>2026-04-18T18:35:05.164Z</time></trkpt><trkpt lat="44.1368275" lon="12.2535161"><ele>52.0</ele><time>2026-04-18T18:35:06.164Z</time></trkpt><trkpt lat="44.1368666" lon="12.2535997"><ele>52.0</ele><time>2026-04-18T18:35:07.163Z</time></trkpt><trkpt lat="44.1368913" lon="12.2536847"><ele>52.0</ele><time>2026-04-18T18:35:08.164Z</time></trkpt><trkpt lat="44.1369081" lon="12.2537755"><ele>51.99999999999999</ele><time>2026-04-18T18:35:09.164Z</time></trkpt><trkpt lat="44.1369253" lon="12.2538861"><ele>52.0</ele><time>2026-04-18T18:35:10.164Z</time></trkpt><trkpt lat="44.1369422" lon="12.2539896"><ele>51.99999999999999</ele><time>2026-04-18T18:35:11.164Z</time></trkpt><trkpt lat="44.1369597" lon="12.2540937"><ele>52.0</ele><time>2026-04-18T18:35:12.164Z</time></trkpt><trkpt lat="44.1369768" lon="12.2542003"><ele>52.0</ele><time>2026-04-18T18:35:13.164Z</time></trkpt><trkpt lat="44.1369931" lon="12.2543101"><ele>52.0</ele><time>2026-04-18T18:35:14.164Z</time></trkpt><trkpt lat="44.1370088" lon="12.2544223"><ele>51.99999999999999</ele><time>2026-04-18T18:35:15.164Z</time></trkpt><trkpt lat="44.137024" lon="12.2545311"><ele>52.0</ele><time>2026-04-18T18:35:16.164Z</time></trkpt><trkpt lat="44.1370393" lon="12.2546296"><ele>52.0</ele><time>2026-04-18T18:35:17.164Z</time></trkpt><trkpt lat="44.1370588" lon="12.2547143"><ele>52.0</ele><time>2026-04-18T18:35:18.163Z</time></trkpt><trkpt lat="44.1371431" lon="12.2548239"><ele>52.0</ele><time>2026-04-18T18:35:20.188Z</time></trkpt><trkpt lat="44.1372594" lon="12.2548274"><ele>52.0</ele><time>2026-04-18T18:35:22.188Z</time></trkpt><trkpt lat="44.1373296" lon="12.2547925"><ele>52.0</ele><time>2026-04-18T18:35:23.188Z</time></trkpt><trkpt lat="44.1374038" lon="12.2547363"><ele>50.666666666666664</ele><time>2026-04-18T18:35:24.188Z</time></trkpt><trkpt lat="44.1374687" lon="12.2546768"><ele>49.33333333333333</ele><time>2026-04-18T18:35:25.188Z</time></trkpt><trkpt lat="44.1375363" lon="12.2546155"><ele>48.0</ele><time>2026-04-18T18:35:26.188Z</time></trkpt><trkpt lat="44.1376007" lon="12.2545593"><ele>46.666666666666664</ele><time>2026-04-18T18:35:27.188Z</time></trkpt><trkpt lat="44.1376647" lon="12.2545094"><ele>45.33333333333333</ele><time>2026-04-18T18:35:28.188Z</time></trkpt><trkpt lat="44.1377792" lon="12.2545133"><ele>44.0</ele><time>2026-04-18T18:35:30.188Z</time></trkpt><trkpt lat="44.1378521" lon="12.2546321"><ele>44.0</ele><time>2026-04-18T18:35:32.188Z</time></trkpt><trkpt lat="44.137877" lon="12.2547193"><ele>44.0</ele><time>2026-04-18T18:35:33.188Z</time></trkpt><trkpt lat="44.1379018" lon="12.2548241"><ele>44.0</ele><time>2026-04-18T18:35:34.188Z</time></trkpt><trkpt lat="44.13793" lon="12.2549242"><ele>44.0</ele><time>2026-04-18T18:35:35.188Z</time></trkpt><trkpt lat="44.1379679" lon="12.2550086"><ele>44.0</ele><time>2026-04-18T18:35:36.188Z</time></trkpt><trkpt lat="44.1380187" lon="12.2550878"><ele>44.0</ele><time>2026-04-18T18:35:37.188Z</time></trkpt><trkpt lat="44.1380712" lon="12.2551662"><ele>44.0</ele><time>2026-04-18T18:35:38.188Z</time></trkpt><trkpt lat="44.1381155" lon="12.2552541"><ele>43.800000000000004</ele><time>2026-04-18T18:35:39.187Z</time></trkpt><trkpt lat="44.1381515" lon="12.2553528"><ele>43.6</ele><time>2026-04-18T18:35:40.188Z</time></trkpt><trkpt lat="44.1381886" lon="12.2554621"><ele>43.4</ele><time>2026-04-18T18:35:41.188Z</time></trkpt><trkpt lat="44.1382321" lon="12.2555782"><ele>43.2</ele><time>2026-04-18T18:35:42.188Z</time></trkpt><trkpt lat="44.138279" lon="12.2556949"><ele>43.0</ele><time>2026-04-18T18:35:43.188Z</time></trkpt><trkpt lat="44.1383289" lon="12.2558211"><ele>43.0</ele><time>2026-04-18T18:35:44.188Z</time></trkpt><trkpt lat="44.1383806" lon="12.2559437"><ele>43.0</ele><time>2026-04-18T18:35:45.188Z</time></trkpt><trkpt lat="44.1384324" lon="12.25607"><ele>43.0</ele><time>2026-04-18T18:35:46.188Z</time></trkpt><trkpt lat="44.138486" lon="12.2561935"><ele>43.0</ele><time>2026-04-18T18:35:47.188Z</time></trkpt><trkpt lat="44.1385375" lon="12.2563181"><ele>43.0</ele><time>2026-04-18T18:35:48.188Z</time></trkpt><trkpt lat="44.1385896" lon="12.256443"><ele>42.4</ele><time>2026-04-18T18:35:49.188Z</time></trkpt><trkpt lat="44.1386437" lon="12.2565671"><ele>41.8</ele><time>2026-04-18T18:35:50.188Z</time></trkpt><trkpt lat="44.1386957" lon="12.2566858"><ele>41.2</ele><time>2026-04-18T18:35:51.188Z</time></trkpt><trkpt lat="44.13874" lon="12.2567891"><ele>40.6</ele><time>2026-04-18T18:35:52.188Z</time></trkpt><trkpt lat="44.1387789" lon="12.2568738"><ele>40.0</ele><time>2026-04-18T18:35:53.188Z</time></trkpt><trkpt lat="44.1388589" lon="12.2569588"><ele>40.0</ele><time>2026-04-18T18:35:55.188Z</time></trkpt><trkpt lat="44.1389277" lon="12.2569819"><ele>40.0</ele><time>2026-04-18T18:35:57.188Z</time></trkpt><trkpt lat="44.1389912" lon="12.2569825"><ele>40.0</ele><time>2026-04-18T18:36:00.188Z</time></trkpt><trkpt lat="44.1390762" lon="12.2569592"><ele>40.0</ele><time>2026-04-18T18:42:40.188Z</time></trkpt><trkpt lat="44.1391421" lon="12.2569248"><ele>40.0</ele><time>2026-04-18T18:42:42.188Z</time></trkpt><trkpt lat="44.1391635" lon="12.2570324"><ele>40.0</ele><time>2026-04-18T18:42:45.188Z</time></trkpt><trkpt lat="44.1391314" lon="12.2571127"><ele>40.0</ele><time>2026-04-18T18:42:46.188Z</time></trkpt><trkpt lat="44.1391034" lon="12.2571952"><ele>39.6</ele><time>2026-04-18T18:42:47.188Z</time></trkpt><trkpt lat="44.1390796" lon="12.2572855"><ele>39.2</ele><time>2026-04-18T18:42:48.187Z</time></trkpt><trkpt lat="44.1390504" lon="12.2573966"><ele>38.8</ele><time>2026-04-18T18:42:49.188Z</time></trkpt><trkpt lat="44.1390166" lon="12.2575198"><ele>38.4</ele><time>2026-04-18T18:42:50.187Z</time></trkpt><trkpt lat="44.1389727" lon="12.2576482"><ele>38.0</ele><time>2026-04-18T18:42:51.188Z</time></trkpt><trkpt lat="44.1389159" lon="12.2577735"><ele>38.0</ele><time>2026-04-18T18:42:52.188Z</time></trkpt><trkpt lat="44.1388616" lon="12.2579001"><ele>38.0</ele><time>2026-04-18T18:42:53.188Z</time></trkpt><trkpt lat="44.1388095" lon="12.2580349"><ele>38.0</ele><time>2026-04-18T18:42:54.188Z</time></trkpt><trkpt lat="44.1387599" lon="12.2581762"><ele>38.0</ele><time>2026-04-18T18:42:55.188Z</time></trkpt><trkpt lat="44.1387087" lon="12.25832"><ele>38.0</ele><time>2026-04-18T18:42:56.188Z</time></trkpt><trkpt lat="44.1386589" lon="12.2584661"><ele>37.5</ele><time>2026-04-18T18:42:57.188Z</time></trkpt><trkpt lat="44.1386087" lon="12.2586161"><ele>37.0</ele><time>2026-04-18T18:42:58.188Z</time></trkpt><trkpt lat="44.1385555" lon="12.2587682"><ele>36.5</ele><time>2026-04-18T18:42:59.187Z</time></trkpt><trkpt lat="44.1385053" lon="12.2589206"><ele>36.0</ele><time>2026-04-18T18:43:00.188Z</time></trkpt><trkpt lat="44.1384528" lon="12.2590708"><ele>35.5</ele><time>2026-04-18T18:43:01.188Z</time></trkpt><trkpt lat="44.1384008" lon="12.2592181"><ele>35.0</ele><time>2026-04-18T18:43:02.188Z</time></trkpt><trkpt lat="44.1383472" lon="12.2593648"><ele>34.5</ele><time>2026-04-18T18:43:03.188Z</time></trkpt><trkpt lat="44.1382964" lon="12.2595074"><ele>34.0</ele><time>2026-04-18T18:43:04.188Z</time></trkpt><trkpt lat="44.1382503" lon="12.2596476"><ele>34.2</ele><time>2026-04-18T18:43:05.188Z</time></trkpt><trkpt lat="44.1382056" lon="12.2597777"><ele>34.4</ele><time>2026-04-18T18:43:06.188Z</time></trkpt><trkpt lat="44.1381621" lon="12.2599044"><ele>34.6</ele><time>2026-04-18T18:43:07.188Z</time></trkpt><trkpt lat="44.1381193" lon="12.2600305"><ele>34.8</ele><time>2026-04-18T18:43:08.188Z</time></trkpt><trkpt lat="44.1380803" lon="12.2601581"><ele>35.0</ele><time>2026-04-18T18:43:09.188Z</time></trkpt><trkpt lat="44.13804" lon="12.2602806"><ele>35.0</ele><time>2026-04-18T18:43:10.188Z</time></trkpt><trkpt lat="44.1380045" lon="12.260404"><ele>35.0</ele><time>2026-04-18T18:43:11.188Z</time></trkpt><trkpt lat="44.1379665" lon="12.2605416"><ele>35.0</ele><time>2026-04-18T18:43:12.188Z</time></trkpt><trkpt lat="44.1379128" lon="12.2606937"><ele>35.0</ele><time>2026-04-18T18:43:13.187Z</time></trkpt><trkpt lat="44.1378489" lon="12.2608483"><ele>34.5</ele><time>2026-04-18T18:43:14.187Z</time></trkpt><trkpt lat="44.1377842" lon="12.2610079"><ele>34.0</ele><time>2026-04-18T18:43:15.188Z</time></trkpt><trkpt lat="44.1377241" lon="12.2611772"><ele>33.5</ele><time>2026-04-18T18:43:16.188Z</time></trkpt><trkpt lat="44.1376642" lon="12.2613545"><ele>33.0</ele><time>2026-04-18T18:43:17.188Z</time></trkpt><trkpt lat="44.1376036" lon="12.2615347"><ele>33.0</ele><time>2026-04-18T18:43:18.188Z</time></trkpt><trkpt lat="44.1375424" lon="12.2617143"><ele>33.0</ele><time>2026-04-18T18:43:19.188Z</time></trkpt><trkpt lat="44.1374803" lon="12.2618911"><ele>33.0</ele><time>2026-04-18T18:43:20.188Z</time></trkpt><trkpt lat="44.1374165" lon="12.2620663"><ele>33.0</ele><time>2026-04-18T18:43:21.188Z</time></trkpt><trkpt lat="44.1373564" lon="12.262242"><ele>33.0</ele><time>2026-04-18T18:43:22.188Z</time></trkpt><trkpt lat="44.1372968" lon="12.2624126"><ele>33.0</ele><time>2026-04-18T18:43:23.187Z</time></trkpt><trkpt lat="44.1372458" lon="12.2625692"><ele>33.0</ele><time>2026-04-18T18:43:24.188Z</time></trkpt><trkpt lat="44.1371988" lon="12.2627093"><ele>33.0</ele><time>2026-04-18T18:43:25.188Z</time></trkpt><trkpt lat="44.1371567" lon="12.2628298"><ele>33.0</ele><time>2026-04-18T18:43:26.188Z</time></trkpt><trkpt lat="44.1371131" lon="12.2629299"><ele>33.0</ele><time>2026-04-18T18:43:27.188Z</time></trkpt><trkpt lat="44.1370648" lon="12.2630171"><ele>33.0</ele><time>2026-04-18T18:43:28.188Z</time></trkpt><trkpt lat="44.1370192" lon="12.2631009"><ele>33.0</ele><time>2026-04-18T18:43:29.188Z</time></trkpt><trkpt lat="44.1369877" lon="12.2632167"><ele>33.0</ele><time>2026-04-18T18:43:30.188Z</time></trkpt><trkpt lat="44.136961" lon="12.2633578"><ele>33.0</ele><time>2026-04-18T18:43:31.188Z</time></trkpt><trkpt lat="44.1369195" lon="12.263523"><ele>32.75</ele><time>2026-04-18T18:43:32.188Z</time></trkpt><trkpt lat="44.1368623" lon="12.2637026"><ele>32.5</ele><time>2026-04-18T18:43:33.188Z</time></trkpt><trkpt lat="44.1368018" lon="12.263876"><ele>32.25</ele><time>2026-04-18T18:43:34.188Z</time></trkpt><trkpt lat="44.1367403" lon="12.2640509"><ele>32.0</ele><time>2026-04-18T18:43:35.188Z</time></trkpt><trkpt lat="44.1366809" lon="12.2642179"><ele>32.0</ele><time>2026-04-18T18:43:36.188Z</time></trkpt><trkpt lat="44.1366246" lon="12.2643757"><ele>32.0</ele><time>2026-04-18T18:43:37.188Z</time></trkpt><trkpt lat="44.1365687" lon="12.2645394"><ele>32.0</ele><time>2026-04-18T18:43:38.188Z</time></trkpt><trkpt lat="44.1365131" lon="12.2647081"><ele>32.0</ele><time>2026-04-18T18:43:39.188Z</time></trkpt><trkpt lat="44.1364558" lon="12.2648777"><ele>32.5</ele><time>2026-04-18T18:43:40.188Z</time></trkpt><trkpt lat="44.1363972" lon="12.265052"><ele>33.0</ele><time>2026-04-18T18:43:41.188Z</time></trkpt><trkpt lat="44.1363397" lon="12.2652271"><ele>33.5</ele><time>2026-04-18T18:43:42.188Z</time></trkpt><trkpt lat="44.1362826" lon="12.265395"><ele>34.0</ele><time>2026-04-18T18:43:43.188Z</time></trkpt><trkpt lat="44.1362313" lon="12.2655496"><ele>34.2</ele><time>2026-04-18T18:43:44.187Z</time></trkpt><trkpt lat="44.1361827" lon="12.2656941"><ele>34.4</ele><time>2026-04-18T18:43:45.187Z</time></trkpt><trkpt lat="44.1361391" lon="12.2658218"><ele>34.6</ele><time>2026-04-18T18:43:46.188Z</time></trkpt><trkpt lat="44.1361043" lon="12.2659253"><ele>34.8</ele><time>2026-04-18T18:43:47.188Z</time></trkpt><trkpt lat="44.1360609" lon="12.266057"><ele>35.0</ele><time>2026-04-18T18:43:49.188Z</time></trkpt><trkpt lat="44.1360244" lon="12.2661628"><ele>35.0</ele><time>2026-04-18T18:44:05.188Z</time></trkpt><trkpt lat="44.1359845" lon="12.266317"><ele>35.0</ele><time>2026-04-18T18:44:07.188Z</time></trkpt><trkpt lat="44.1360184" lon="12.2664819"><ele>35.0</ele><time>2026-04-18T18:44:09.188Z</time></trkpt><trkpt lat="44.1360767" lon="12.266554"><ele>35.0</ele><time>2026-04-18T18:44:10.188Z</time></trkpt><trkpt lat="44.1361512" lon="12.2666143"><ele>35.0</ele><time>2026-04-18T18:44:11.188Z</time></trkpt><trkpt lat="44.1362308" lon="12.2666817"><ele>34.6</ele><time>2026-04-18T18:44:12.188Z</time></trkpt><trkpt lat="44.1362951" lon="12.2667697"><ele>34.2</ele><time>2026-04-18T18:44:13.188Z</time></trkpt><trkpt lat="44.1363269" lon="12.2668876"><ele>33.8</ele><time>2026-04-18T18:44:14.188Z</time></trkpt><trkpt lat="44.1363377" lon="12.2670277"><ele>33.4</ele><time>2026-04-18T18:44:15.187Z</time></trkpt><trkpt lat="44.1363404" lon="12.2672011"><ele>33.0</ele><time>2026-04-18T18:44:16.188Z</time></trkpt><trkpt lat="44.1363491" lon="12.2673986"><ele>32.5</ele><time>2026-04-18T18:44:17.188Z</time></trkpt><trkpt lat="44.1363591" lon="12.2675981"><ele>32.0</ele><time>2026-04-18T18:44:18.188Z</time></trkpt><trkpt lat="44.1363713" lon="12.2678062"><ele>31.5</ele><time>2026-04-18T18:44:19.188Z</time></trkpt><trkpt lat="44.1363829" lon="12.2680209"><ele>31.0</ele><time>2026-04-18T18:44:20.188Z</time></trkpt><trkpt lat="44.1363978" lon="12.2682495"><ele>31.0</ele><time>2026-04-18T18:44:21.188Z</time></trkpt><trkpt lat="44.136411" lon="12.2684852"><ele>31.0</ele><time>2026-04-18T18:44:22.188Z</time></trkpt><trkpt lat="44.1364222" lon="12.268718"><ele>31.0</ele><time>2026-04-18T18:44:23.188Z</time></trkpt><trkpt lat="44.1364342" lon="12.2689327"><ele>31.0</ele><time>2026-04-18T18:44:24.188Z</time></trkpt><trkpt lat="44.1364467" lon="12.26914"><ele>31.0</ele><time>2026-04-18T18:44:25.188Z</time></trkpt><trkpt lat="44.1364604" lon="12.269333"><ele>31.0</ele><time>2026-04-18T18:44:26.188Z</time></trkpt><trkpt lat="44.136476" lon="12.2695068"><ele>31.0</ele><time>2026-04-18T18:44:27.188Z</time></trkpt><trkpt lat="44.1364928" lon="12.269663"><ele>31.000000000000004</ele><time>2026-04-18T18:44:28.188Z</time></trkpt><trkpt lat="44.1365056" lon="12.2698064"><ele>31.0</ele><time>2026-04-18T18:44:29.188Z</time></trkpt><trkpt lat="44.1365115" lon="12.2699302"><ele>31.0</ele><time>2026-04-18T18:44:30.188Z</time></trkpt><trkpt lat="44.1365329" lon="12.2700239"><ele>31.0</ele><time>2026-04-18T18:44:31.188Z</time></trkpt><trkpt lat="44.1365786" lon="12.2700881"><ele>31.000000000000004</ele><time>2026-04-18T18:44:32.188Z</time></trkpt><trkpt lat="44.1366532" lon="12.2701225"><ele>31.0</ele><time>2026-04-18T18:44:33.188Z</time></trkpt><trkpt lat="44.1367433" lon="12.2701304"><ele>31.0</ele><time>2026-04-18T18:44:34.188Z</time></trkpt><trkpt lat="44.1368334" lon="12.2701523"><ele>31.0</ele><time>2026-04-18T18:44:35.188Z</time></trkpt><trkpt lat="44.1369394" lon="12.2702102"><ele>31.0</ele><time>2026-04-18T18:44:36.187Z</time></trkpt><trkpt lat="44.137064" lon="12.270292"><ele>31.0</ele><time>2026-04-18T18:44:37.188Z</time></trkpt><trkpt lat="44.137195" lon="12.2703852"><ele>31.0</ele><time>2026-04-18T18:44:38.188Z</time></trkpt><trkpt lat="44.1373515" lon="12.2704977"><ele>31.0</ele><time>2026-04-18T18:44:39.188Z</time></trkpt><trkpt lat="44.1375107" lon="12.2706099"><ele>31.0</ele><time>2026-04-18T18:44:40.188Z</time></trkpt><trkpt lat="44.1376844" lon="12.2707364"><ele>30.0</ele><time>2026-04-18T18:44:41.187Z</time></trkpt><trkpt lat="44.1378571" lon="12.2708638"><ele>29.0</ele><time>2026-04-18T18:44:42.187Z</time></trkpt><trkpt lat="44.1380235" lon="12.2709852"><ele>28.0</ele><time>2026-04-18T18:44:43.188Z</time></trkpt><trkpt lat="44.138184" lon="12.2710996"><ele>28.0</ele><time>2026-04-18T18:44:44.188Z</time></trkpt><trkpt lat="44.1383408" lon="12.2712149"><ele>28.0</ele><time>2026-04-18T18:44:45.187Z</time></trkpt><trkpt lat="44.1384941" lon="12.2713261"><ele>28.0</ele><time>2026-04-18T18:44:46.187Z</time></trkpt><trkpt lat="44.1386467" lon="12.2714359"><ele>28.0</ele><time>2026-04-18T18:44:47.188Z</time></trkpt><trkpt lat="44.1387935" lon="12.2715429"><ele>28.0</ele><time>2026-04-18T18:44:48.188Z</time></trkpt><trkpt lat="44.1389326" lon="12.271646"><ele>28.0</ele><time>2026-04-18T18:44:49.188Z</time></trkpt><trkpt lat="44.1390715" lon="12.2717457"><ele>28.0</ele><time>2026-04-18T18:44:50.188Z</time></trkpt><trkpt lat="44.139203" lon="12.2718387"><ele>28.0</ele><time>2026-04-18T18:44:51.188Z</time></trkpt><trkpt lat="44.1393254" lon="12.2719211"><ele>28.0</ele><time>2026-04-18T18:44:52.188Z</time></trkpt><trkpt lat="44.1394305" lon="12.2719887"><ele>28.0</ele><time>2026-04-18T18:44:53.188Z</time></trkpt><trkpt lat="44.1395219" lon="12.2720507"><ele>28.0</ele><time>2026-04-18T18:44:54.188Z</time></trkpt><trkpt lat="44.1396011" lon="12.2721294"><ele>28.0</ele><time>2026-04-18T18:44:55.188Z</time></trkpt><trkpt lat="44.139672" lon="12.2722475"><ele>28.0</ele><time>2026-04-18T18:44:56.188Z</time></trkpt><trkpt lat="44.1397412" lon="12.2723956"><ele>28.0</ele><time>2026-04-18T18:44:57.188Z</time></trkpt><trkpt lat="44.1398041" lon="12.2725637"><ele>27.666666666666668</ele><time>2026-04-18T18:44:58.188Z</time></trkpt><trkpt lat="44.1398524" lon="12.2727503"><ele>27.333333333333336</ele><time>2026-04-18T18:44:59.188Z</time></trkpt><trkpt lat="44.1398816" lon="12.2729654"><ele>27.0</ele><time>2026-04-18T18:45:00.188Z</time></trkpt><trkpt lat="44.1399002" lon="12.2732041"><ele>27.0</ele><time>2026-04-18T18:45:01.188Z</time></trkpt><trkpt lat="44.1399141" lon="12.2734513"><ele>27.0</ele><time>2026-04-18T18:45:02.188Z</time></trkpt><trkpt lat="44.1399316" lon="12.2737318"><ele>27.0</ele><time>2026-04-18T18:45:03.188Z</time></trkpt><trkpt lat="44.1399479" lon="12.2740163"><ele>26.666666666666664</ele><time>2026-04-18T18:45:04.188Z</time></trkpt><trkpt lat="44.1399638" lon="12.2743089"><ele>26.333333333333332</ele><time>2026-04-18T18:45:05.188Z</time></trkpt><trkpt lat="44.1399825" lon="12.274614"><ele>26.0</ele><time>2026-04-18T18:45:06.188Z</time></trkpt><trkpt lat="44.1400016" lon="12.2749222"><ele>25.666666666666664</ele><time>2026-04-18T18:45:07.188Z</time></trkpt><trkpt lat="44.1400209" lon="12.2752289"><ele>25.333333333333336</ele><time>2026-04-18T18:45:08.188Z</time></trkpt><trkpt lat="44.1400398" lon="12.2755308"><ele>25.0</ele><time>2026-04-18T18:45:09.188Z</time></trkpt><trkpt lat="44.1400582" lon="12.275831"><ele>25.0</ele><time>2026-04-18T18:45:10.188Z</time></trkpt><trkpt lat="44.1400744" lon="12.2761272"><ele>25.0</ele><time>2026-04-18T18:45:11.188Z</time></trkpt><trkpt lat="44.1400905" lon="12.2764196"><ele>25.0</ele><time>2026-04-18T18:45:12.188Z</time></trkpt><trkpt lat="44.1401074" lon="12.27671"><ele>25.0</ele><time>2026-04-18T18:45:13.188Z</time></trkpt><trkpt lat="44.1401256" lon="12.2769983"><ele>25.0</ele><time>2026-04-18T18:45:14.188Z</time></trkpt><trkpt lat="44.1401442" lon="12.2772858"><ele>25.0</ele><time>2026-04-18T18:45:15.187Z</time></trkpt><trkpt lat="44.1401625" lon="12.277572"><ele>25.0</ele><time>2026-04-18T18:45:16.187Z</time></trkpt><trkpt lat="44.1401793" lon="12.2778564"><ele>25.0</ele><time>2026-04-18T18:45:17.188Z</time></trkpt><trkpt lat="44.1401946" lon="12.2781392"><ele>25.0</ele><time>2026-04-18T18:45:18.188Z</time></trkpt><trkpt lat="44.1402118" lon="12.2784199"><ele>25.0</ele><time>2026-04-18T18:45:19.187Z</time></trkpt><trkpt lat="44.1402283" lon="12.2786992"><ele>25.0</ele><time>2026-04-18T18:45:20.188Z</time></trkpt><trkpt lat="44.140244" lon="12.2789759"><ele>25.0</ele><time>2026-04-18T18:45:21.188Z</time></trkpt><trkpt lat="44.1402601" lon="12.2792521"><ele>25.0</ele><time>2026-04-18T18:45:22.187Z</time></trkpt><trkpt lat="44.1402772" lon="12.27953"><ele>25.0</ele><time>2026-04-18T18:45:23.187Z</time></trkpt><trkpt lat="44.1402942" lon="12.2798063"><ele>25.0</ele><time>2026-04-18T18:45:24.188Z</time></trkpt><trkpt lat="44.1403115" lon="12.2800816"><ele>25.0</ele><time>2026-04-18T18:45:25.188Z</time></trkpt><trkpt lat="44.1403287" lon="12.2803563"><ele>25.0</ele><time>2026-04-18T18:45:26.188Z</time></trkpt><trkpt lat="44.1403448" lon="12.2806352"><ele>25.0</ele><time>2026-04-18T18:45:27.188Z</time></trkpt><trkpt lat="44.1403617" lon="12.2809172"><ele>25.0</ele><time>2026-04-18T18:45:28.188Z</time></trkpt><trkpt lat="44.1403799" lon="12.2811984"><ele>25.0</ele><time>2026-04-18T18:45:29.187Z</time></trkpt><trkpt lat="44.1403984" lon="12.2814783"><ele>25.0</ele><time>2026-04-18T18:45:30.188Z</time></trkpt><trkpt lat="44.1404168" lon="12.281756"><ele>25.0</ele><time>2026-04-18T18:45:31.187Z</time></trkpt><trkpt lat="44.140435" lon="12.2820237"><ele>25.0</ele><time>2026-04-18T18:45:32.188Z</time></trkpt><trkpt lat="44.1404516" lon="12.2822734"><ele>25.0</ele><time>2026-04-18T18:45:33.188Z</time></trkpt><trkpt lat="44.1404667" lon="12.2825076"><ele>25.0</ele><time>2026-04-18T18:45:34.188Z</time></trkpt><trkpt lat="44.1404809" lon="12.2827201"><ele>25.0</ele><time>2026-04-18T18:45:35.187Z</time></trkpt><trkpt lat="44.1404928" lon="12.2829102"><ele>25.0</ele><time>2026-04-18T18:45:36.188Z</time></trkpt><trkpt lat="44.1404998" lon="12.2830688"><ele>25.0</ele><time>2026-04-18T18:45:37.188Z</time></trkpt><trkpt lat="44.1404963" lon="12.2832109"><ele>25.2</ele><time>2026-04-18T18:45:38.188Z</time></trkpt><trkpt lat="44.1404731" lon="12.2833374"><ele>25.4</ele><time>2026-04-18T18:45:39.187Z</time></trkpt><trkpt lat="44.140415" lon="12.2834661"><ele>25.6</ele><time>2026-04-18T18:45:40.187Z</time></trkpt><trkpt lat="44.1403395" lon="12.283583"><ele>25.8</ele><time>2026-04-18T18:45:41.188Z</time></trkpt><trkpt lat="44.1402797" lon="12.283695"><ele>26.0</ele><time>2026-04-18T18:45:42.187Z</time></trkpt><trkpt lat="44.1402514" lon="12.2838214"><ele>25.8</ele><time>2026-04-18T18:45:43.188Z</time></trkpt><trkpt lat="44.1402587" lon="12.2839532"><ele>25.6</ele><time>2026-04-18T18:45:44.188Z</time></trkpt><trkpt lat="44.1402996" lon="12.2840771"><ele>25.4</ele><time>2026-04-18T18:45:45.188Z</time></trkpt><trkpt lat="44.1403683" lon="12.2841775"><ele>25.2</ele><time>2026-04-18T18:45:46.188Z</time></trkpt><trkpt lat="44.1404397" lon="12.2842651"><ele>25.0</ele><time>2026-04-18T18:45:47.188Z</time></trkpt><trkpt lat="44.1404973" lon="12.2843721"><ele>25.0</ele><time>2026-04-18T18:45:48.188Z</time></trkpt><trkpt lat="44.1405311" lon="12.2845148"><ele>25.0</ele><time>2026-04-18T18:45:49.188Z</time></trkpt><trkpt lat="44.1405443" lon="12.2846799"><ele>25.0</ele><time>2026-04-18T18:45:50.188Z</time></trkpt><trkpt lat="44.1405503" lon="12.2848597"><ele>25.0</ele><time>2026-04-18T18:45:51.188Z</time></trkpt><trkpt lat="44.1405582" lon="12.2850487"><ele>24.75</ele><time>2026-04-18T18:45:52.188Z</time></trkpt><trkpt lat="44.1405656" lon="12.2852401"><ele>24.5</ele><time>2026-04-18T18:45:53.188Z</time></trkpt><trkpt lat="44.1405716" lon="12.2854305"><ele>24.25</ele><time>2026-04-18T18:45:54.187Z</time></trkpt><trkpt lat="44.1405778" lon="12.2856154"><ele>24.0</ele><time>2026-04-18T18:45:55.188Z</time></trkpt><trkpt lat="44.1405829" lon="12.2857998"><ele>24.5</ele><time>2026-04-18T18:45:56.188Z</time></trkpt><trkpt lat="44.140587" lon="12.285981"><ele>25.0</ele><time>2026-04-18T18:45:57.188Z</time></trkpt><trkpt lat="44.140592" lon="12.286161"><ele>25.5</ele><time>2026-04-18T18:45:58.188Z</time></trkpt><trkpt lat="44.1405974" lon="12.2863371"><ele>26.0</ele><time>2026-04-18T18:45:59.188Z</time></trkpt><trkpt lat="44.1406031" lon="12.2865128"><ele>26.0</ele><time>2026-04-18T18:46:00.188Z</time></trkpt><trkpt lat="44.1406071" lon="12.2866899"><ele>26.0</ele><time>2026-04-18T18:46:01.188Z</time></trkpt><trkpt lat="44.1406096" lon="12.2868709"><ele>26.0</ele><time>2026-04-18T18:46:02.188Z</time></trkpt><trkpt lat="44.1406113" lon="12.2870517"><ele>26.0</ele><time>2026-04-18T18:46:03.188Z</time></trkpt><trkpt lat="44.1406107" lon="12.2872282"><ele>26.0</ele><time>2026-04-18T18:46:04.188Z</time></trkpt><trkpt lat="44.1406078" lon="12.287403"><ele>26.0</ele><time>2026-04-18T18:46:05.188Z</time></trkpt><trkpt lat="44.1406059" lon="12.2875787"><ele>26.0</ele><time>2026-04-18T18:46:06.188Z</time></trkpt><trkpt lat="44.1406025" lon="12.2877537"><ele>26.0</ele><time>2026-04-18T18:46:07.187Z</time></trkpt><trkpt lat="44.1405971" lon="12.2879314"><ele>26.0</ele><time>2026-04-18T18:46:08.188Z</time></trkpt><trkpt lat="44.1405907" lon="12.2881095"><ele>26.0</ele><time>2026-04-18T18:46:09.188Z</time></trkpt><trkpt lat="44.1405836" lon="12.2882906"><ele>26.0</ele><time>2026-04-18T18:46:10.188Z</time></trkpt><trkpt lat="44.1405764" lon="12.2884745"><ele>26.0</ele><time>2026-04-18T18:46:11.188Z</time></trkpt><trkpt lat="44.1405677" lon="12.2886593"><ele>26.0</ele><time>2026-04-18T18:46:12.188Z</time></trkpt><trkpt lat="44.1405596" lon="12.2888459"><ele>26.0</ele><time>2026-04-18T18:46:13.188Z</time></trkpt><trkpt lat="44.1405509" lon="12.2890327"><ele>26.0</ele><time>2026-04-18T18:46:14.187Z</time></trkpt><trkpt lat="44.140542" lon="12.2892171"><ele>26.0</ele><time>2026-04-18T18:46:15.187Z</time></trkpt><trkpt lat="44.140534" lon="12.2893977"><ele>26.0</ele><time>2026-04-18T18:46:16.188Z</time></trkpt><trkpt lat="44.1405258" lon="12.2895772"><ele>26.0</ele><time>2026-04-18T18:46:17.188Z</time></trkpt><trkpt lat="44.1405186" lon="12.2897558"><ele>26.0</ele><time>2026-04-18T18:46:18.187Z</time></trkpt><trkpt lat="44.1405128" lon="12.2899345"><ele>26.0</ele><time>2026-04-18T18:46:19.188Z</time></trkpt><trkpt lat="44.140507" lon="12.2901174"><ele>25.5</ele><time>2026-04-18T18:46:20.188Z</time></trkpt><trkpt lat="44.1405007" lon="12.2902998"><ele>25.0</ele><time>2026-04-18T18:46:21.188Z</time></trkpt><trkpt lat="44.1404941" lon="12.2904812"><ele>24.5</ele><time>2026-04-18T18:46:22.187Z</time></trkpt><trkpt lat="44.1404867" lon="12.2906651"><ele>24.0</ele><time>2026-04-18T18:46:23.188Z</time></trkpt><trkpt lat="44.1404797" lon="12.2908495"><ele>24.0</ele><time>2026-04-18T18:46:24.188Z</time></trkpt><trkpt lat="44.1404738" lon="12.2910358"><ele>24.0</ele><time>2026-04-18T18:46:25.188Z</time></trkpt><trkpt lat="44.1404697" lon="12.2912255"><ele>24.0</ele><time>2026-04-18T18:46:26.188Z</time></trkpt><trkpt lat="44.1404653" lon="12.2914174"><ele>24.0</ele><time>2026-04-18T18:46:27.188Z</time></trkpt><trkpt lat="44.140461" lon="12.291607"><ele>24.25</ele><time>2026-04-18T18:46:28.188Z</time></trkpt><trkpt lat="44.1404596" lon="12.291793"><ele>24.5</ele><time>2026-04-18T18:46:29.188Z</time></trkpt><trkpt lat="44.1404621" lon="12.2919736"><ele>24.75</ele><time>2026-04-18T18:46:30.188Z</time></trkpt><trkpt lat="44.1404711" lon="12.2921478"><ele>25.0</ele><time>2026-04-18T18:46:31.188Z</time></trkpt><trkpt lat="44.140486" lon="12.2923193"><ele>25.25</ele><time>2026-04-18T18:46:32.188Z</time></trkpt><trkpt lat="44.1405057" lon="12.2924897"><ele>25.5</ele><time>2026-04-18T18:46:33.188Z</time></trkpt><trkpt lat="44.1405285" lon="12.2926648"><ele>25.75</ele><time>2026-04-18T18:46:34.188Z</time></trkpt><trkpt lat="44.1405585" lon="12.2928415"><ele>26.0</ele><time>2026-04-18T18:46:35.188Z</time></trkpt><trkpt lat="44.1405958" lon="12.2930161"><ele>25.8</ele><time>2026-04-18T18:46:36.188Z</time></trkpt><trkpt lat="44.1406338" lon="12.2931799"><ele>25.6</ele><time>2026-04-18T18:46:37.188Z</time></trkpt><trkpt lat="44.1406734" lon="12.2933337"><ele>25.4</ele><time>2026-04-18T18:46:38.188Z</time></trkpt><trkpt lat="44.140713" lon="12.2934699"><ele>25.2</ele><time>2026-04-18T18:46:39.188Z</time></trkpt><trkpt lat="44.1407545" lon="12.2935947"><ele>25.0</ele><time>2026-04-18T18:46:40.188Z</time></trkpt><trkpt lat="44.1408011" lon="12.2937295"><ele>25.0</ele><time>2026-04-18T18:46:41.188Z</time></trkpt><trkpt lat="44.1408523" lon="12.2938705"><ele>25.0</ele><time>2026-04-18T18:46:42.188Z</time></trkpt><trkpt lat="44.1409098" lon="12.2940155"><ele>25.0</ele><time>2026-04-18T18:46:43.188Z</time></trkpt><trkpt lat="44.1409781" lon="12.2941678"><ele>25.0</ele><time>2026-04-18T18:46:44.188Z</time></trkpt><trkpt lat="44.1410561" lon="12.2943227"><ele>25.0</ele><time>2026-04-18T18:46:45.187Z</time></trkpt><trkpt lat="44.1411438" lon="12.2944784"><ele>25.0</ele><time>2026-04-18T18:46:46.188Z</time></trkpt><trkpt lat="44.1412424" lon="12.2946374"><ele>25.0</ele><time>2026-04-18T18:46:47.188Z</time></trkpt><trkpt lat="44.1413467" lon="12.2947956"><ele>25.0</ele><time>2026-04-18T18:46:48.188Z</time></trkpt><trkpt lat="44.1414562" lon="12.2949548"><ele>24.333333333333336</ele><time>2026-04-18T18:46:49.188Z</time></trkpt><trkpt lat="44.1415687" lon="12.2951132"><ele>23.666666666666668</ele><time>2026-04-18T18:46:50.188Z</time></trkpt><trkpt lat="44.1416857" lon="12.2952725"><ele>23.0</ele><time>2026-04-18T18:46:51.188Z</time></trkpt><trkpt lat="44.1418042" lon="12.2954325"><ele>23.0</ele><time>2026-04-18T18:46:52.188Z</time></trkpt><trkpt lat="44.1419254" lon="12.2955966"><ele>23.0</ele><time>2026-04-18T18:46:53.188Z</time></trkpt><trkpt lat="44.1420497" lon="12.295766"><ele>23.0</ele><time>2026-04-18T18:46:54.188Z</time></trkpt><trkpt lat="44.1421751" lon="12.2959386"><ele>23.0</ele><time>2026-04-18T18:46:55.188Z</time></trkpt><trkpt lat="44.1423011" lon="12.2961133"><ele>23.0</ele><time>2026-04-18T18:46:56.188Z</time></trkpt><trkpt lat="44.1424268" lon="12.2962885"><ele>23.0</ele><time>2026-04-18T18:46:57.188Z</time></trkpt><trkpt lat="44.1425508" lon="12.2964643"><ele>23.0</ele><time>2026-04-18T18:46:58.188Z</time></trkpt><trkpt lat="44.1426708" lon="12.2966444"><ele>23.0</ele><time>2026-04-18T18:46:59.188Z</time></trkpt><trkpt lat="44.1427933" lon="12.2968252"><ele>23.0</ele><time>2026-04-18T18:47:00.188Z</time></trkpt><trkpt lat="44.1429156" lon="12.2970044"><ele>23.0</ele><time>2026-04-18T18:47:01.188Z</time></trkpt><trkpt lat="44.143038" lon="12.2971847"><ele>23.0</ele><time>2026-04-18T18:47:02.188Z</time></trkpt><trkpt lat="44.1431599" lon="12.2973642"><ele>23.0</ele><time>2026-04-18T18:47:03.188Z</time></trkpt><trkpt lat="44.1432813" lon="12.2975431"><ele>23.333333333333336</ele><time>2026-04-18T18:47:04.188Z</time></trkpt><trkpt lat="44.1433994" lon="12.2977221"><ele>23.666666666666668</ele><time>2026-04-18T18:47:05.188Z</time></trkpt><trkpt lat="44.1435145" lon="12.2978955"><ele>24.0</ele><time>2026-04-18T18:47:06.188Z</time></trkpt><trkpt lat="44.1436262" lon="12.2980668"><ele>24.0</ele><time>2026-04-18T18:47:07.188Z</time></trkpt><trkpt lat="44.1437366" lon="12.2982327"><ele>24.0</ele><time>2026-04-18T18:47:08.188Z</time></trkpt><trkpt lat="44.1438431" lon="12.2983916"><ele>24.0</ele><time>2026-04-18T18:47:09.188Z</time></trkpt><trkpt lat="44.1439503" lon="12.2985484"><ele>24.0</ele><time>2026-04-18T18:47:10.188Z</time></trkpt><trkpt lat="44.1440597" lon="12.2987104"><ele>24.0</ele><time>2026-04-18T18:47:11.187Z</time></trkpt><trkpt lat="44.144171" lon="12.2988735"><ele>24.0</ele><time>2026-04-18T18:47:12.188Z</time></trkpt><trkpt lat="44.1442843" lon="12.2990325"><ele>24.0</ele><time>2026-04-18T18:47:13.188Z</time></trkpt><trkpt lat="44.1443957" lon="12.2991882"><ele>24.0</ele><time>2026-04-18T18:47:14.188Z</time></trkpt><trkpt lat="44.1445097" lon="12.2993414"><ele>24.0</ele><time>2026-04-18T18:47:15.188Z</time></trkpt><trkpt lat="44.1446213" lon="12.2994911"><ele>24.0</ele><time>2026-04-18T18:47:16.188Z</time></trkpt><trkpt lat="44.1447307" lon="12.2996305"><ele>24.0</ele><time>2026-04-18T18:47:17.188Z</time></trkpt><trkpt lat="44.144842" lon="12.299765"><ele>24.0</ele><time>2026-04-18T18:47:18.188Z</time></trkpt><trkpt lat="44.1449569" lon="12.2999068"><ele>24.0</ele><time>2026-04-18T18:47:19.188Z</time></trkpt><trkpt lat="44.1450728" lon="12.3000589"><ele>23.666666666666668</ele><time>2026-04-18T18:47:20.188Z</time></trkpt><trkpt lat="44.1451895" lon="12.3002218"><ele>23.333333333333336</ele><time>2026-04-18T18:47:21.188Z</time></trkpt><trkpt lat="44.1453037" lon="12.3003889"><ele>23.0</ele><time>2026-04-18T18:47:22.188Z</time></trkpt><trkpt lat="44.1454164" lon="12.3005603"><ele>23.0</ele><time>2026-04-18T18:47:23.188Z</time></trkpt><trkpt lat="44.1455254" lon="12.3007289"><ele>23.0</ele><time>2026-04-18T18:47:24.188Z</time></trkpt><trkpt lat="44.1456328" lon="12.3008987"><ele>23.0</ele><time>2026-04-18T18:47:25.188Z</time></trkpt><trkpt lat="44.1457388" lon="12.3010679"><ele>22.666666666666668</ele><time>2026-04-18T18:47:26.188Z</time></trkpt><trkpt lat="44.1458425" lon="12.3012367"><ele>22.333333333333332</ele><time>2026-04-18T18:47:27.188Z</time></trkpt><trkpt lat="44.145949" lon="12.3014052"><ele>22.0</ele><time>2026-04-18T18:47:28.187Z</time></trkpt><trkpt lat="44.1460624" lon="12.3015678"><ele>22.0</ele><time>2026-04-18T18:47:29.188Z</time></trkpt><trkpt lat="44.1461798" lon="12.3017215"><ele>22.0</ele><time>2026-04-18T18:47:30.187Z</time></trkpt><trkpt lat="44.1463039" lon="12.3018724"><ele>22.0</ele><time>2026-04-18T18:47:31.187Z</time></trkpt><trkpt lat="44.1464465" lon="12.3020276"><ele>22.0</ele><time>2026-04-18T18:47:32.188Z</time></trkpt><trkpt lat="44.1465996" lon="12.3022039"><ele>22.0</ele><time>2026-04-18T18:47:33.188Z</time></trkpt><trkpt lat="44.1467579" lon="12.3024017"><ele>22.0</ele><time>2026-04-18T18:47:34.188Z</time></trkpt><trkpt lat="44.1469269" lon="12.3026179"><ele>22.0</ele><time>2026-04-18T18:47:35.187Z</time></trkpt><trkpt lat="44.1471077" lon="12.3028471"><ele>22.0</ele><time>2026-04-18T18:47:36.188Z</time></trkpt><trkpt lat="44.1472901" lon="12.3030859"><ele>22.0</ele><time>2026-04-18T18:47:37.188Z</time></trkpt><trkpt lat="44.1474695" lon="12.3033258"><ele>22.0</ele><time>2026-04-18T18:47:38.187Z</time></trkpt><trkpt lat="44.1476417" lon="12.303551"><ele>22.0</ele><time>2026-04-18T18:47:39.188Z</time></trkpt><trkpt lat="44.1478145" lon="12.3037702"><ele>22.0</ele><time>2026-04-18T18:47:40.188Z</time></trkpt><trkpt lat="44.1479896" lon="12.303984"><ele>21.5</ele><time>2026-04-18T18:47:41.188Z</time></trkpt><trkpt lat="44.148162" lon="12.3042003"><ele>21.0</ele><time>2026-04-18T18:47:42.188Z</time></trkpt><trkpt lat="44.1483286" lon="12.304415"><ele>21.0</ele><time>2026-04-18T18:47:43.188Z</time></trkpt><trkpt lat="44.148491" lon="12.3046324"><ele>21.0</ele><time>2026-04-18T18:47:44.188Z</time></trkpt><trkpt lat="44.1486529" lon="12.3048545"><ele>21.5</ele><time>2026-04-18T18:47:45.188Z</time></trkpt><trkpt lat="44.1488165" lon="12.3050745"><ele>22.0</ele><time>2026-04-18T18:47:46.188Z</time></trkpt><trkpt lat="44.1489801" lon="12.3052922"><ele>21.666666666666664</ele><time>2026-04-18T18:47:47.188Z</time></trkpt><trkpt lat="44.1491331" lon="12.3054948"><ele>21.333333333333332</ele><time>2026-04-18T18:47:48.188Z</time></trkpt><trkpt lat="44.1492723" lon="12.3056748"><ele>21.0</ele><time>2026-04-18T18:47:49.188Z</time></trkpt><trkpt lat="44.1494005" lon="12.3058379"><ele>20.666666666666668</ele><time>2026-04-18T18:47:50.188Z</time></trkpt><trkpt lat="44.1495236" lon="12.3059878"><ele>20.333333333333336</ele><time>2026-04-18T18:47:51.188Z</time></trkpt><trkpt lat="44.1496612" lon="12.3061431"><ele>20.0</ele><time>2026-04-18T18:47:52.188Z</time></trkpt><trkpt lat="44.1498168" lon="12.3063237"><ele>20.0</ele><time>2026-04-18T18:47:53.188Z</time></trkpt><trkpt lat="44.1499759" lon="12.3065226"><ele>20.0</ele><time>2026-04-18T18:47:54.188Z</time></trkpt><trkpt lat="44.1501386" lon="12.3067381"><ele>20.0</ele><time>2026-04-18T18:47:55.188Z</time></trkpt><trkpt lat="44.1502971" lon="12.3069466"><ele>20.0</ele><time>2026-04-18T18:47:56.187Z</time></trkpt><trkpt lat="44.1504458" lon="12.3071356"><ele>20.0</ele><time>2026-04-18T18:47:57.188Z</time></trkpt><trkpt lat="44.1505825" lon="12.3073163"><ele>20.0</ele><time>2026-04-18T18:47:58.188Z</time></trkpt><trkpt lat="44.1507106" lon="12.3074992"><ele>20.0</ele><time>2026-04-18T18:47:59.188Z</time></trkpt><trkpt lat="44.1508321" lon="12.3076933"><ele>20.0</ele><time>2026-04-18T18:48:00.188Z</time></trkpt><trkpt lat="44.1509382" lon="12.3078907"><ele>20.0</ele><time>2026-04-18T18:48:01.188Z</time></trkpt><trkpt lat="44.1510253" lon="12.3080837"><ele>20.5</ele><time>2026-04-18T18:48:02.188Z</time></trkpt><trkpt lat="44.1510901" lon="12.3082683"><ele>21.0</ele><time>2026-04-18T18:48:03.188Z</time></trkpt><trkpt lat="44.1511324" lon="12.3084365"><ele>21.5</ele><time>2026-04-18T18:48:04.188Z</time></trkpt><trkpt lat="44.1511423" lon="12.3085943"><ele>22.0</ele><time>2026-04-18T18:48:05.188Z</time></trkpt><trkpt lat="44.1511208" lon="12.3087507"><ele>22.0</ele><time>2026-04-18T18:48:06.188Z</time></trkpt><trkpt lat="44.1510902" lon="12.308907"><ele>22.0</ele><time>2026-04-18T18:48:07.188Z</time></trkpt><trkpt lat="44.1510876" lon="12.3090538"><ele>22.0</ele><time>2026-04-18T18:48:08.188Z</time></trkpt><trkpt lat="44.1511167" lon="12.3092068"><ele>22.0</ele><time>2026-04-18T18:48:09.188Z</time></trkpt><trkpt lat="44.1511596" lon="12.3093553"><ele>22.0</ele><time>2026-04-18T18:48:10.188Z</time></trkpt><trkpt lat="44.1511815" lon="12.3095016"><ele>22.0</ele><time>2026-04-18T18:48:11.188Z</time></trkpt><trkpt lat="44.1511752" lon="12.309667"><ele>22.0</ele><time>2026-04-18T18:48:12.188Z</time></trkpt><trkpt lat="44.1511509" lon="12.3098505"><ele>22.0</ele><time>2026-04-18T18:48:13.188Z</time></trkpt><trkpt lat="44.1511345" lon="12.3100581"><ele>21.666666666666664</ele><time>2026-04-18T18:48:14.188Z</time></trkpt><trkpt lat="44.1511337" lon="12.3102688"><ele>21.333333333333332</ele><time>2026-04-18T18:48:15.188Z</time></trkpt><trkpt lat="44.1511407" lon="12.3104941"><ele>21.0</ele><time>2026-04-18T18:48:16.188Z</time></trkpt><trkpt lat="44.1511483" lon="12.3107202"><ele>21.0</ele><time>2026-04-18T18:48:17.188Z</time></trkpt><trkpt lat="44.1511562" lon="12.3109467"><ele>21.0</ele><time>2026-04-18T18:48:18.188Z</time></trkpt><trkpt lat="44.1511642" lon="12.3111655"><ele>21.0</ele><time>2026-04-18T18:48:19.188Z</time></trkpt><trkpt lat="44.1511723" lon="12.3113772"><ele>20.75</ele><time>2026-04-18T18:48:20.188Z</time></trkpt><trkpt lat="44.1511784" lon="12.3115781"><ele>20.5</ele><time>2026-04-18T18:48:21.188Z</time></trkpt><trkpt lat="44.1511851" lon="12.3117779"><ele>20.25</ele><time>2026-04-18T18:48:22.187Z</time></trkpt><trkpt lat="44.1511933" lon="12.3119777"><ele>20.0</ele><time>2026-04-18T18:48:23.188Z</time></trkpt><trkpt lat="44.1512004" lon="12.3121793"><ele>20.0</ele><time>2026-04-18T18:48:24.188Z</time></trkpt><trkpt lat="44.1512083" lon="12.31238"><ele>20.0</ele><time>2026-04-18T18:48:25.188Z</time></trkpt><trkpt lat="44.151216" lon="12.3125761"><ele>20.0</ele><time>2026-04-18T18:48:26.188Z</time></trkpt><trkpt lat="44.1512218" lon="12.3127625"><ele>20.0</ele><time>2026-04-18T18:48:27.188Z</time></trkpt><trkpt lat="44.1512284" lon="12.3129454"><ele>20.0</ele><time>2026-04-18T18:48:28.188Z</time></trkpt><trkpt lat="44.1512411" lon="12.3131347"><ele>20.0</ele><time>2026-04-18T18:48:29.188Z</time></trkpt><trkpt lat="44.151257" lon="12.3133357"><ele>20.0</ele><time>2026-04-18T18:48:30.188Z</time></trkpt><trkpt lat="44.1512749" lon="12.3135427"><ele>20.0</ele><time>2026-04-18T18:48:31.187Z</time></trkpt><trkpt lat="44.1512943" lon="12.3137537"><ele>20.0</ele><time>2026-04-18T18:48:32.188Z</time></trkpt><trkpt lat="44.1513139" lon="12.3139587"><ele>20.0</ele><time>2026-04-18T18:48:33.188Z</time></trkpt><trkpt lat="44.1513351" lon="12.3141561"><ele>20.0</ele><time>2026-04-18T18:48:34.188Z</time></trkpt><trkpt lat="44.1513577" lon="12.3143523"><ele>20.0</ele><time>2026-04-18T18:48:35.187Z</time></trkpt><trkpt lat="44.1513814" lon="12.3145414"><ele>20.0</ele><time>2026-04-18T18:48:36.188Z</time></trkpt><trkpt lat="44.1514103" lon="12.3147256"><ele>20.0</ele><time>2026-04-18T18:48:37.188Z</time></trkpt><trkpt lat="44.1514493" lon="12.3149011"><ele>20.0</ele><time>2026-04-18T18:48:38.188Z</time></trkpt><trkpt lat="44.1515015" lon="12.315074"><ele>20.0</ele><time>2026-04-18T18:48:39.188Z</time></trkpt><trkpt lat="44.1515647" lon="12.3152471"><ele>20.0</ele><time>2026-04-18T18:48:40.188Z</time></trkpt><trkpt lat="44.1516372" lon="12.315418"><ele>20.0</ele><time>2026-04-18T18:48:41.188Z</time></trkpt><trkpt lat="44.1517166" lon="12.315584"><ele>20.0</ele><time>2026-04-18T18:48:42.188Z</time></trkpt><trkpt lat="44.1518026" lon="12.3157486"><ele>20.0</ele><time>2026-04-18T18:48:43.188Z</time></trkpt><trkpt lat="44.1518931" lon="12.3159155"><ele>20.0</ele><time>2026-04-18T18:48:44.188Z</time></trkpt><trkpt lat="44.1519854" lon="12.3160864"><ele>20.0</ele><time>2026-04-18T18:48:45.188Z</time></trkpt><trkpt lat="44.1520805" lon="12.3162593"><ele>20.0</ele><time>2026-04-18T18:48:46.188Z</time></trkpt><trkpt lat="44.1521787" lon="12.3164351"><ele>19.666666666666668</ele><time>2026-04-18T18:48:47.188Z</time></trkpt><trkpt lat="44.1522768" lon="12.316613"><ele>19.333333333333332</ele><time>2026-04-18T18:48:48.188Z</time></trkpt><trkpt lat="44.1523735" lon="12.3167941"><ele>19.0</ele><time>2026-04-18T18:48:49.188Z</time></trkpt><trkpt lat="44.1524726" lon="12.3169759"><ele>19.0</ele><time>2026-04-18T18:48:50.188Z</time></trkpt><trkpt lat="44.1525712" lon="12.3171596"><ele>19.0</ele><time>2026-04-18T18:48:51.188Z</time></trkpt><trkpt lat="44.1526714" lon="12.3173418"><ele>19.0</ele><time>2026-04-18T18:48:52.188Z</time></trkpt><trkpt lat="44.1527708" lon="12.3175225"><ele>19.0</ele><time>2026-04-18T18:48:53.188Z</time></trkpt><trkpt lat="44.1528712" lon="12.317707"><ele>19.0</ele><time>2026-04-18T18:48:54.188Z</time></trkpt><trkpt lat="44.1529724" lon="12.3178877"><ele>19.0</ele><time>2026-04-18T18:48:55.188Z</time></trkpt><trkpt lat="44.1530703" lon="12.3180757"><ele>19.0</ele><time>2026-04-18T18:48:56.188Z</time></trkpt><trkpt lat="44.1531493" lon="12.3182674"><ele>19.0</ele><time>2026-04-18T18:48:57.187Z</time></trkpt><trkpt lat="44.1532227" lon="12.3184694"><ele>19.0</ele><time>2026-04-18T18:48:58.187Z</time></trkpt><trkpt lat="44.1532852" lon="12.3186835"><ele>19.0</ele><time>2026-04-18T18:48:59.187Z</time></trkpt><trkpt lat="44.1533367" lon="12.3189012"><ele>19.0</ele><time>2026-04-18T18:49:00.188Z</time></trkpt><trkpt lat="44.1533773" lon="12.3191248"><ele>19.0</ele><time>2026-04-18T18:49:01.188Z</time></trkpt><trkpt lat="44.1534133" lon="12.3193477"><ele>19.0</ele><time>2026-04-18T18:49:02.188Z</time></trkpt><trkpt lat="44.153448" lon="12.3195746"><ele>19.0</ele><time>2026-04-18T18:49:03.188Z</time></trkpt><trkpt lat="44.1534816" lon="12.319802"><ele>19.0</ele><time>2026-04-18T18:49:04.188Z</time></trkpt><trkpt lat="44.1535161" lon="12.32003"><ele>19.0</ele><time>2026-04-18T18:49:05.188Z</time></trkpt><trkpt lat="44.1535503" lon="12.3202582"><ele>19.0</ele><time>2026-04-18T18:49:06.188Z</time></trkpt><trkpt lat="44.1535827" lon="12.3204856"><ele>19.0</ele><time>2026-04-18T18:49:07.188Z</time></trkpt><trkpt lat="44.1536132" lon="12.3207145"><ele>19.0</ele><time>2026-04-18T18:49:08.188Z</time></trkpt><trkpt lat="44.1536468" lon="12.3209436"><ele>19.0</ele><time>2026-04-18T18:49:09.188Z</time></trkpt><trkpt lat="44.1536818" lon="12.3211715"><ele>19.0</ele><time>2026-04-18T18:49:10.187Z</time></trkpt><trkpt lat="44.1537221" lon="12.3213937"><ele>18.333333333333332</ele><time>2026-04-18T18:49:11.188Z</time></trkpt><trkpt lat="44.1537623" lon="12.3216222"><ele>17.666666666666668</ele><time>2026-04-18T18:49:12.188Z</time></trkpt><trkpt lat="44.1538" lon="12.3218511"><ele>17.0</ele><time>2026-04-18T18:49:13.188Z</time></trkpt><trkpt lat="44.15384" lon="12.3220798"><ele>17.0</ele><time>2026-04-18T18:49:14.188Z</time></trkpt><trkpt lat="44.1538811" lon="12.3223075"><ele>17.0</ele><time>2026-04-18T18:49:15.188Z</time></trkpt><trkpt lat="44.1539235" lon="12.3225347"><ele>17.0</ele><time>2026-04-18T18:49:16.188Z</time></trkpt><trkpt lat="44.1539642" lon="12.3227593"><ele>17.0</ele><time>2026-04-18T18:49:17.188Z</time></trkpt><trkpt lat="44.1540053" lon="12.3229827"><ele>17.0</ele><time>2026-04-18T18:49:18.188Z</time></trkpt><trkpt lat="44.1540471" lon="12.3232081"><ele>17.0</ele><time>2026-04-18T18:49:19.188Z</time></trkpt><trkpt lat="44.1540861" lon="12.3234354"><ele>17.666666666666668</ele><time>2026-04-18T18:49:20.187Z</time></trkpt><trkpt lat="44.1541247" lon="12.3236602"><ele>18.333333333333332</ele><time>2026-04-18T18:49:21.188Z</time></trkpt><trkpt lat="44.1541662" lon="12.3238836"><ele>19.0</ele><time>2026-04-18T18:49:22.188Z</time></trkpt><trkpt lat="44.1542054" lon="12.3241055"><ele>19.0</ele><time>2026-04-18T18:49:23.188Z</time></trkpt><trkpt lat="44.1542473" lon="12.3243283"><ele>19.0</ele><time>2026-04-18T18:49:24.188Z</time></trkpt><trkpt lat="44.1542888" lon="12.3245502"><ele>19.0</ele><time>2026-04-18T18:49:25.188Z</time></trkpt><trkpt lat="44.1543316" lon="12.3247693"><ele>18.666666666666664</ele><time>2026-04-18T18:49:26.188Z</time></trkpt><trkpt lat="44.1543744" lon="12.3249892"><ele>18.333333333333332</ele><time>2026-04-18T18:49:27.188Z</time></trkpt><trkpt lat="44.1544159" lon="12.3252088"><ele>18.0</ele><time>2026-04-18T18:49:28.188Z</time></trkpt><trkpt lat="44.1544591" lon="12.325429"><ele>17.666666666666668</ele><time>2026-04-18T18:49:29.188Z</time></trkpt><trkpt lat="44.1545032" lon="12.3256439"><ele>17.333333333333336</ele><time>2026-04-18T18:49:30.188Z</time></trkpt><trkpt lat="44.1545452" lon="12.3258552"><ele>17.0</ele><time>2026-04-18T18:49:31.188Z</time></trkpt><trkpt lat="44.1545882" lon="12.3260618"><ele>17.0</ele><time>2026-04-18T18:49:32.188Z</time></trkpt><trkpt lat="44.1546273" lon="12.3262653"><ele>17.0</ele><time>2026-04-18T18:49:33.188Z</time></trkpt><trkpt lat="44.1546685" lon="12.3264667"><ele>17.0</ele><time>2026-04-18T18:49:34.188Z</time></trkpt><trkpt lat="44.1547091" lon="12.3266691"><ele>17.0</ele><time>2026-04-18T18:49:35.188Z</time></trkpt><trkpt lat="44.1547495" lon="12.3268741"><ele>17.0</ele><time>2026-04-18T18:49:36.188Z</time></trkpt><trkpt lat="44.1547912" lon="12.3270765"><ele>17.0</ele><time>2026-04-18T18:49:37.188Z</time></trkpt><trkpt lat="44.1548305" lon="12.3272768"><ele>17.0</ele><time>2026-04-18T18:49:38.188Z</time></trkpt><trkpt lat="44.1548696" lon="12.3274762"><ele>17.0</ele><time>2026-04-18T18:49:39.188Z</time></trkpt><trkpt lat="44.1549098" lon="12.3276731"><ele>17.0</ele><time>2026-04-18T18:49:40.188Z</time></trkpt><trkpt lat="44.1549492" lon="12.3278638"><ele>17.0</ele><time>2026-04-18T18:49:41.188Z</time></trkpt><trkpt lat="44.1549877" lon="12.3280501"><ele>17.25</ele><time>2026-04-18T18:49:42.188Z</time></trkpt><trkpt lat="44.1550244" lon="12.328232"><ele>17.5</ele><time>2026-04-18T18:49:43.187Z</time></trkpt><trkpt lat="44.1550591" lon="12.328406"><ele>17.75</ele><time>2026-04-18T18:49:44.188Z</time></trkpt><trkpt lat="44.155094" lon="12.3285817"><ele>18.0</ele><time>2026-04-18T18:49:45.188Z</time></trkpt><trkpt lat="44.1551293" lon="12.3287546"><ele>18.0</ele><time>2026-04-18T18:49:46.188Z</time></trkpt><trkpt lat="44.1551659" lon="12.3289284"><ele>18.0</ele><time>2026-04-18T18:49:47.188Z</time></trkpt><trkpt lat="44.155202" lon="12.3291038"><ele>18.0</ele><time>2026-04-18T18:49:48.188Z</time></trkpt><trkpt lat="44.1552394" lon="12.3292789"><ele>18.0</ele><time>2026-04-18T18:49:49.188Z</time></trkpt><trkpt lat="44.1552756" lon="12.3294544"><ele>18.0</ele><time>2026-04-18T18:49:50.188Z</time></trkpt><trkpt lat="44.1553105" lon="12.3296326"><ele>18.0</ele><time>2026-04-18T18:49:51.188Z</time></trkpt><trkpt lat="44.1553459" lon="12.3298109"><ele>18.0</ele><time>2026-04-18T18:49:52.188Z</time></trkpt><trkpt lat="44.1553838" lon="12.3299904"><ele>18.0</ele><time>2026-04-18T18:49:53.188Z</time></trkpt><trkpt lat="44.1554209" lon="12.3301688"><ele>18.0</ele><time>2026-04-18T18:49:54.188Z</time></trkpt><trkpt lat="44.1554586" lon="12.3303479"><ele>18.0</ele><time>2026-04-18T18:49:55.188Z</time></trkpt><trkpt lat="44.1554946" lon="12.3305263"><ele>18.0</ele><time>2026-04-18T18:49:56.188Z</time></trkpt><trkpt lat="44.1555313" lon="12.3307035"><ele>18.0</ele><time>2026-04-18T18:49:57.188Z</time></trkpt><trkpt lat="44.1555673" lon="12.3308791"><ele>18.25</ele><time>2026-04-18T18:49:58.188Z</time></trkpt><trkpt lat="44.1556035" lon="12.3310574"><ele>18.5</ele><time>2026-04-18T18:49:59.188Z</time></trkpt><trkpt lat="44.1556382" lon="12.3312357"><ele>18.75</ele><time>2026-04-18T18:50:00.188Z</time></trkpt><trkpt lat="44.1556741" lon="12.3314145"><ele>19.0</ele><time>2026-04-18T18:50:01.188Z</time></trkpt><trkpt lat="44.1557101" lon="12.3315958"><ele>19.0</ele><time>2026-04-18T18:50:02.188Z</time></trkpt><trkpt lat="44.1557443" lon="12.3317782"><ele>19.0</ele><time>2026-04-18T18:50:03.188Z</time></trkpt><trkpt lat="44.1557806" lon="12.33196"><ele>19.0</ele><time>2026-04-18T18:50:04.187Z</time></trkpt><trkpt lat="44.1558199" lon="12.3321408"><ele>19.0</ele><time>2026-04-18T18:50:05.188Z</time></trkpt><trkpt lat="44.1558593" lon="12.3323196"><ele>18.75</ele><time>2026-04-18T18:50:06.188Z</time></trkpt><trkpt lat="44.1558969" lon="12.3324932"><ele>18.5</ele><time>2026-04-18T18:50:07.187Z</time></trkpt><trkpt lat="44.1559342" lon="12.3326542"><ele>18.25</ele><time>2026-04-18T18:50:08.188Z</time></trkpt><trkpt lat="44.1559741" lon="12.3328164"><ele>18.0</ele><time>2026-04-18T18:50:09.188Z</time></trkpt><trkpt lat="44.1560152" lon="12.3329768"><ele>18.0</ele><time>2026-04-18T18:50:10.188Z</time></trkpt><trkpt lat="44.156055" lon="12.3331258"><ele>18.0</ele><time>2026-04-18T18:50:11.188Z</time></trkpt><trkpt lat="44.1560986" lon="12.3332711"><ele>18.0</ele><time>2026-04-18T18:50:12.188Z</time></trkpt><trkpt lat="44.1561428" lon="12.3334191"><ele>18.0</ele><time>2026-04-18T18:50:13.188Z</time></trkpt><trkpt lat="44.1561871" lon="12.3335691"><ele>18.0</ele><time>2026-04-18T18:50:14.188Z</time></trkpt><trkpt lat="44.1562301" lon="12.333715"><ele>18.0</ele><time>2026-04-18T18:50:15.188Z</time></trkpt><trkpt lat="44.1562734" lon="12.3338559"><ele>18.0</ele><time>2026-04-18T18:50:16.187Z</time></trkpt><trkpt lat="44.156315" lon="12.3339944"><ele>18.0</ele><time>2026-04-18T18:50:17.187Z</time></trkpt><trkpt lat="44.1563584" lon="12.3341309"><ele>18.0</ele><time>2026-04-18T18:50:18.188Z</time></trkpt><trkpt lat="44.156399" lon="12.3342629"><ele>17.833333333333332</ele><time>2026-04-18T18:50:19.188Z</time></trkpt><trkpt lat="44.1564346" lon="12.3343874"><ele>17.666666666666668</ele><time>2026-04-18T18:50:20.188Z</time></trkpt><trkpt lat="44.1564578" lon="12.3344992"><ele>17.5</ele><time>2026-04-18T18:50:21.188Z</time></trkpt><trkpt lat="44.156461" lon="12.3345951"><ele>17.333333333333336</ele><time>2026-04-18T18:50:22.187Z</time></trkpt><trkpt lat="44.1564459" lon="12.3346975"><ele>17.166666666666668</ele><time>2026-04-18T18:50:23.188Z</time></trkpt><trkpt lat="44.1564077" lon="12.3348094"><ele>17.0</ele><time>2026-04-18T18:50:24.187Z</time></trkpt><trkpt lat="44.156358" lon="12.3349246"><ele>16.666666666666668</ele><time>2026-04-18T18:50:25.188Z</time></trkpt><trkpt lat="44.1563174" lon="12.3350389"><ele>16.333333333333336</ele><time>2026-04-18T18:50:26.187Z</time></trkpt><trkpt lat="44.1562981" lon="12.3351595"><ele>16.0</ele><time>2026-04-18T18:50:27.188Z</time></trkpt><trkpt lat="44.1563045" lon="12.3352814"><ele>15.666666666666668</ele><time>2026-04-18T18:50:28.187Z</time></trkpt><trkpt lat="44.1563397" lon="12.3353877"><ele>15.333333333333334</ele><time>2026-04-18T18:50:29.188Z</time></trkpt><trkpt lat="44.1564014" lon="12.3354757"><ele>15.0</ele><time>2026-04-18T18:50:30.188Z</time></trkpt><trkpt lat="44.1564912" lon="12.3355503"><ele>15.0</ele><time>2026-04-18T18:50:31.188Z</time></trkpt><trkpt lat="44.1565932" lon="12.3356067"><ele>15.0</ele><time>2026-04-18T18:50:32.188Z</time></trkpt><trkpt lat="44.1566993" lon="12.3356687"><ele>15.0</ele><time>2026-04-18T18:50:33.188Z</time></trkpt><trkpt lat="44.1567976" lon="12.3357608"><ele>15.0</ele><time>2026-04-18T18:50:34.188Z</time></trkpt><trkpt lat="44.1568855" lon="12.3358927"><ele>15.0</ele><time>2026-04-18T18:50:35.188Z</time></trkpt><trkpt lat="44.156965" lon="12.3360519"><ele>15.0</ele><time>2026-04-18T18:50:36.188Z</time></trkpt><trkpt lat="44.157048" lon="12.3362326"><ele>15.0</ele><time>2026-04-18T18:50:37.188Z</time></trkpt><trkpt lat="44.15713" lon="12.3364139"><ele>15.0</ele><time>2026-04-18T18:50:38.188Z</time></trkpt><trkpt lat="44.1572118" lon="12.3365976"><ele>15.0</ele><time>2026-04-18T18:50:39.188Z</time></trkpt><trkpt lat="44.1572927" lon="12.33678"><ele>15.0</ele><time>2026-04-18T18:50:40.188Z</time></trkpt><trkpt lat="44.1573734" lon="12.3369584"><ele>15.0</ele><time>2026-04-18T18:50:41.188Z</time></trkpt><trkpt lat="44.1574536" lon="12.3371385"><ele>15.0</ele><time>2026-04-18T18:50:42.188Z</time></trkpt><trkpt lat="44.1575353" lon="12.3373143"><ele>15.0</ele><time>2026-04-18T18:50:43.188Z</time></trkpt><trkpt lat="44.157625" lon="12.3374848"><ele>15.0</ele><time>2026-04-18T18:50:44.188Z</time></trkpt><trkpt lat="44.1577256" lon="12.3376408"><ele>15.0</ele><time>2026-04-18T18:50:45.188Z</time></trkpt><trkpt lat="44.15784" lon="12.3377861"><ele>15.0</ele><time>2026-04-18T18:50:46.188Z</time></trkpt><trkpt lat="44.1579614" lon="12.3379214"><ele>15.0</ele><time>2026-04-18T18:50:47.188Z</time></trkpt><trkpt lat="44.1580901" lon="12.3380546"><ele>15.333333333333332</ele><time>2026-04-18T18:50:48.188Z</time></trkpt><trkpt lat="44.1582196" lon="12.3381824"><ele>15.666666666666666</ele><time>2026-04-18T18:50:49.188Z</time></trkpt><trkpt lat="44.1583496" lon="12.3383057"><ele>16.0</ele><time>2026-04-18T18:50:50.188Z</time></trkpt><trkpt lat="44.1584766" lon="12.3384313"><ele>16.0</ele><time>2026-04-18T18:50:51.188Z</time></trkpt><trkpt lat="44.1586022" lon="12.3385572"><ele>16.0</ele><time>2026-04-18T18:50:52.188Z</time></trkpt><trkpt lat="44.1587225" lon="12.3386917"><ele>16.0</ele><time>2026-04-18T18:50:53.188Z</time></trkpt><trkpt lat="44.158836" lon="12.3388342"><ele>15.666666666666666</ele><time>2026-04-18T18:50:54.188Z</time></trkpt><trkpt lat="44.1589432" lon="12.3389927"><ele>15.333333333333332</ele><time>2026-04-18T18:50:55.188Z</time></trkpt><trkpt lat="44.1590461" lon="12.3391604"><ele>15.0</ele><time>2026-04-18T18:50:56.188Z</time></trkpt><trkpt lat="44.1591427" lon="12.3393326"><ele>15.0</ele><time>2026-04-18T18:50:57.188Z</time></trkpt><trkpt lat="44.1592384" lon="12.339512"><ele>15.0</ele><time>2026-04-18T18:50:58.188Z</time></trkpt><trkpt lat="44.1593301" lon="12.3396944"><ele>15.0</ele><time>2026-04-18T18:50:59.188Z</time></trkpt><trkpt lat="44.1594187" lon="12.3398749"><ele>15.25</ele><time>2026-04-18T18:51:00.188Z</time></trkpt><trkpt lat="44.1595032" lon="12.3400514"><ele>15.5</ele><time>2026-04-18T18:51:01.188Z</time></trkpt><trkpt lat="44.1595854" lon="12.3402224"><ele>15.75</ele><time>2026-04-18T18:51:02.188Z</time></trkpt><trkpt lat="44.1596698" lon="12.3403916"><ele>16.0</ele><time>2026-04-18T18:51:03.188Z</time></trkpt><trkpt lat="44.1597546" lon="12.3405618"><ele>16.0</ele><time>2026-04-18T18:51:04.188Z</time></trkpt><trkpt lat="44.1598385" lon="12.3407292"><ele>16.0</ele><time>2026-04-18T18:51:05.188Z</time></trkpt><trkpt lat="44.1599216" lon="12.3408924"><ele>16.0</ele><time>2026-04-18T18:51:06.188Z</time></trkpt><trkpt lat="44.1600094" lon="12.3410529"><ele>16.0</ele><time>2026-04-18T18:51:07.188Z</time></trkpt><trkpt lat="44.1600972" lon="12.34121"><ele>15.75</ele><time>2026-04-18T18:51:08.188Z</time></trkpt><trkpt lat="44.1601833" lon="12.3413624"><ele>15.5</ele><time>2026-04-18T18:51:09.188Z</time></trkpt><trkpt lat="44.1602669" lon="12.3415066"><ele>15.25</ele><time>2026-04-18T18:51:10.188Z</time></trkpt><trkpt lat="44.1603478" lon="12.3416484"><ele>15.0</ele><time>2026-04-18T18:51:11.188Z</time></trkpt><trkpt lat="44.1604308" lon="12.3417909"><ele>14.75</ele><time>2026-04-18T18:51:12.188Z</time></trkpt><trkpt lat="44.160513" lon="12.3419349"><ele>14.5</ele><time>2026-04-18T18:51:13.188Z</time></trkpt><trkpt lat="44.1606012" lon="12.3420827"><ele>14.25</ele><time>2026-04-18T18:51:14.188Z</time></trkpt><trkpt lat="44.1606888" lon="12.342234"><ele>14.0</ele><time>2026-04-18T18:51:15.188Z</time></trkpt><trkpt lat="44.160782" lon="12.3423846"><ele>13.75</ele><time>2026-04-18T18:51:16.188Z</time></trkpt><trkpt lat="44.1608769" lon="12.3425338"><ele>13.5</ele><time>2026-04-18T18:51:17.187Z</time></trkpt><trkpt lat="44.1609724" lon="12.3426869"><ele>13.25</ele><time>2026-04-18T18:51:18.188Z</time></trkpt><trkpt lat="44.1610689" lon="12.3428415"><ele>13.0</ele><time>2026-04-18T18:51:19.187Z</time></trkpt><trkpt lat="44.1611644" lon="12.3429969"><ele>13.0</ele><time>2026-04-18T18:51:20.188Z</time></trkpt><trkpt lat="44.1612586" lon="12.3431518"><ele>13.0</ele><time>2026-04-18T18:51:21.188Z</time></trkpt><trkpt lat="44.1613521" lon="12.3433045"><ele>13.0</ele><time>2026-04-18T18:51:22.188Z</time></trkpt><trkpt lat="44.1614483" lon="12.3434579"><ele>13.0</ele><time>2026-04-18T18:51:23.188Z</time></trkpt><trkpt lat="44.1615437" lon="12.3436112"><ele>13.0</ele><time>2026-04-18T18:51:24.188Z</time></trkpt><trkpt lat="44.1616382" lon="12.3437662"><ele>13.0</ele><time>2026-04-18T18:51:25.188Z</time></trkpt><trkpt lat="44.1617346" lon="12.3439204"><ele>13.0</ele><time>2026-04-18T18:51:26.188Z</time></trkpt><trkpt lat="44.1618293" lon="12.3440716"><ele>13.0</ele><time>2026-04-18T18:51:27.187Z</time></trkpt><trkpt lat="44.1619216" lon="12.3442224"><ele>13.0</ele><time>2026-04-18T18:51:28.187Z</time></trkpt><trkpt lat="44.1620153" lon="12.3443727"><ele>13.0</ele><time>2026-04-18T18:51:29.188Z</time></trkpt><trkpt lat="44.1621052" lon="12.3445213"><ele>13.0</ele><time>2026-04-18T18:51:30.188Z</time></trkpt><trkpt lat="44.1621968" lon="12.3446704"><ele>13.0</ele><time>2026-04-18T18:51:31.188Z</time></trkpt><trkpt lat="44.1622884" lon="12.3448148"><ele>12.75</ele><time>2026-04-18T18:51:32.187Z</time></trkpt><trkpt lat="44.1623747" lon="12.3449621"><ele>12.5</ele><time>2026-04-18T18:51:33.188Z</time></trkpt><trkpt lat="44.1624646" lon="12.3451096"><ele>12.25</ele><time>2026-04-18T18:51:34.187Z</time></trkpt><trkpt lat="44.1625497" lon="12.345252"><ele>12.0</ele><time>2026-04-18T18:51:35.188Z</time></trkpt><trkpt lat="44.1626325" lon="12.3453944"><ele>12.0</ele><time>2026-04-18T18:51:36.188Z</time></trkpt><trkpt lat="44.1627154" lon="12.3455379"><ele>12.0</ele><time>2026-04-18T18:51:37.188Z</time></trkpt><trkpt lat="44.1628006" lon="12.3456774"><ele>12.0</ele><time>2026-04-18T18:51:38.187Z</time></trkpt><trkpt lat="44.1628843" lon="12.3458202"><ele>12.0</ele><time>2026-04-18T18:51:39.187Z</time></trkpt><trkpt lat="44.162967" lon="12.3459591"><ele>12.0</ele><time>2026-04-18T18:51:40.187Z</time></trkpt><trkpt lat="44.1630473" lon="12.3460914"><ele>12.0</ele><time>2026-04-18T18:51:41.188Z</time></trkpt><trkpt lat="44.1631242" lon="12.3462257"><ele>12.0</ele><time>2026-04-18T18:51:42.188Z</time></trkpt><trkpt lat="44.1632035" lon="12.346361"><ele>12.0</ele><time>2026-04-18T18:51:43.188Z</time></trkpt><trkpt lat="44.1632865" lon="12.3464966"><ele>12.0</ele><time>2026-04-18T18:51:44.188Z</time></trkpt><trkpt lat="44.1633706" lon="12.3466332"><ele>12.0</ele><time>2026-04-18T18:51:45.188Z</time></trkpt><trkpt lat="44.1634445" lon="12.3467594"><ele>12.0</ele><time>2026-04-18T18:51:46.188Z</time></trkpt><trkpt lat="44.1635151" lon="12.3468822"><ele>12.0</ele><time>2026-04-18T18:51:47.188Z</time></trkpt><trkpt lat="44.1635795" lon="12.3469892"><ele>12.0</ele><time>2026-04-18T18:51:48.188Z</time></trkpt><trkpt lat="44.1636385" lon="12.3470877"><ele>12.0</ele><time>2026-04-18T18:51:49.188Z</time></trkpt><trkpt lat="44.1636917" lon="12.3471806"><ele>12.0</ele><time>2026-04-18T18:51:50.188Z</time></trkpt><trkpt lat="44.1637364" lon="12.3472663"><ele>12.0</ele><time>2026-04-18T18:51:51.188Z</time></trkpt><trkpt lat="44.1637837" lon="12.3473434"><ele>12.0</ele><time>2026-04-18T18:51:52.188Z</time></trkpt><trkpt lat="44.1638361" lon="12.3474054"><ele>12.0</ele><time>2026-04-18T18:51:53.188Z</time></trkpt><trkpt lat="44.1639421" lon="12.3474975"><ele>11.833333333333334</ele><time>2026-04-18T18:51:55.187Z</time></trkpt><trkpt lat="44.163993" lon="12.3475658"><ele>11.666666666666666</ele><time>2026-04-18T18:51:56.188Z</time></trkpt><trkpt lat="44.1640375" lon="12.347659"><ele>11.5</ele><time>2026-04-18T18:51:57.188Z</time></trkpt><trkpt lat="44.1640784" lon="12.3477669"><ele>11.333333333333332</ele><time>2026-04-18T18:51:58.188Z</time></trkpt><trkpt lat="44.1641215" lon="12.3478802"><ele>11.166666666666666</ele><time>2026-04-18T18:51:59.188Z</time></trkpt><trkpt lat="44.1641751" lon="12.3479916"><ele>11.0</ele><time>2026-04-18T18:52:00.188Z</time></trkpt><trkpt lat="44.164236" lon="12.348099"><ele>11.0</ele><time>2026-04-18T18:52:01.188Z</time></trkpt><trkpt lat="44.1642988" lon="12.3482065"><ele>11.0</ele><time>2026-04-18T18:52:02.188Z</time></trkpt><trkpt lat="44.1643667" lon="12.3483206"><ele>11.0</ele><time>2026-04-18T18:52:03.187Z</time></trkpt><trkpt lat="44.1644322" lon="12.3484356"><ele>11.0</ele><time>2026-04-18T18:52:04.188Z</time></trkpt><trkpt lat="44.1644996" lon="12.3485521"><ele>11.0</ele><time>2026-04-18T18:52:05.188Z</time></trkpt><trkpt lat="44.1645693" lon="12.348671"><ele>11.0</ele><time>2026-04-18T18:52:06.188Z</time></trkpt><trkpt lat="44.1646394" lon="12.3487909"><ele>11.0</ele><time>2026-04-18T18:52:07.188Z</time></trkpt><trkpt lat="44.1647126" lon="12.3489155"><ele>11.0</ele><time>2026-04-18T18:52:08.188Z</time></trkpt><trkpt lat="44.16479" lon="12.3490432"><ele>11.0</ele><time>2026-04-18T18:52:09.188Z</time></trkpt><trkpt lat="44.1648667" lon="12.3491767"><ele>11.0</ele><time>2026-04-18T18:52:10.188Z</time></trkpt><trkpt lat="44.1649477" lon="12.3493167"><ele>11.0</ele><time>2026-04-18T18:52:11.188Z</time></trkpt><trkpt lat="44.1650387" lon="12.349474"><ele>11.0</ele><time>2026-04-18T18:52:12.188Z</time></trkpt><trkpt lat="44.1651418" lon="12.3496684"><ele>11.0</ele><time>2026-04-18T18:52:13.188Z</time></trkpt><trkpt lat="44.165256" lon="12.3498853"><ele>11.0</ele><time>2026-04-18T18:52:14.188Z</time></trkpt><trkpt lat="44.1653796" lon="12.3501199"><ele>11.0</ele><time>2026-04-18T18:52:15.188Z</time></trkpt><trkpt lat="44.1655149" lon="12.350389"><ele>11.0</ele><time>2026-04-18T18:52:16.188Z</time></trkpt><trkpt lat="44.1656503" lon="12.3506586"><ele>11.5</ele><time>2026-04-18T18:52:17.188Z</time></trkpt><trkpt lat="44.1657863" lon="12.350942"><ele>12.0</ele><time>2026-04-18T18:52:18.187Z</time></trkpt><trkpt lat="44.1659226" lon="12.3512206"><ele>12.5</ele><time>2026-04-18T18:52:19.188Z</time></trkpt><trkpt lat="44.1660593" lon="12.351498"><ele>13.0</ele><time>2026-04-18T18:52:20.188Z</time></trkpt><trkpt lat="44.166194" lon="12.3517708"><ele>13.0</ele><time>2026-04-18T18:52:21.188Z</time></trkpt><trkpt lat="44.1663283" lon="12.3520358"><ele>13.0</ele><time>2026-04-18T18:52:22.187Z</time></trkpt><trkpt lat="44.1664617" lon="12.3522954"><ele>11.666666666666666</ele><time>2026-04-18T18:52:23.188Z</time></trkpt><trkpt lat="44.1665933" lon="12.352552"><ele>10.333333333333332</ele><time>2026-04-18T18:52:24.188Z</time></trkpt><trkpt lat="44.1667226" lon="12.3528048"><ele>9.0</ele><time>2026-04-18T18:52:25.188Z</time></trkpt><trkpt lat="44.1668498" lon="12.3530521"><ele>9.0</ele><time>2026-04-18T18:52:26.188Z</time></trkpt><trkpt lat="44.1669768" lon="12.3532951"><ele>9.0</ele><time>2026-04-18T18:52:27.188Z</time></trkpt><trkpt lat="44.1671018" lon="12.3535364"><ele>9.0</ele><time>2026-04-18T18:52:28.187Z</time></trkpt><trkpt lat="44.1672241" lon="12.3537741"><ele>8.666666666666666</ele><time>2026-04-18T18:52:29.188Z</time></trkpt><trkpt lat="44.1673445" lon="12.354009"><ele>8.333333333333332</ele><time>2026-04-18T18:52:30.188Z</time></trkpt><trkpt lat="44.1674648" lon="12.3542424"><ele>8.0</ele><time>2026-04-18T18:52:31.188Z</time></trkpt><trkpt lat="44.1675848" lon="12.3544743"><ele>8.0</ele><time>2026-04-18T18:52:32.187Z</time></trkpt><trkpt lat="44.1677038" lon="12.354704"><ele>8.0</ele><time>2026-04-18T18:52:33.188Z</time></trkpt><trkpt lat="44.1678223" lon="12.3549317"><ele>8.0</ele><time>2026-04-18T18:52:34.187Z</time></trkpt><trkpt lat="44.1679344" lon="12.3551525"><ele>8.333333333333332</ele><time>2026-04-18T18:52:35.187Z</time></trkpt><trkpt lat="44.1680412" lon="12.3553592"><ele>8.666666666666666</ele><time>2026-04-18T18:52:36.187Z</time></trkpt><trkpt lat="44.1681515" lon="12.3555505"><ele>9.0</ele><time>2026-04-18T18:52:37.188Z</time></trkpt><trkpt lat="44.1682692" lon="12.3557356"><ele>9.0</ele><time>2026-04-18T18:52:38.188Z</time></trkpt><trkpt lat="44.1683962" lon="12.3559249"><ele>9.0</ele><time>2026-04-18T18:52:39.188Z</time></trkpt><trkpt lat="44.1685295" lon="12.3561175"><ele>9.0</ele><time>2026-04-18T18:52:40.188Z</time></trkpt><trkpt lat="44.1686701" lon="12.3563195"><ele>9.0</ele><time>2026-04-18T18:52:41.187Z</time></trkpt><trkpt lat="44.1688133" lon="12.356527"><ele>9.0</ele><time>2026-04-18T18:52:42.188Z</time></trkpt><trkpt lat="44.1689633" lon="12.3567362"><ele>9.0</ele><time>2026-04-18T18:52:43.188Z</time></trkpt><trkpt lat="44.1691125" lon="12.3569496"><ele>9.0</ele><time>2026-04-18T18:52:44.188Z</time></trkpt><trkpt lat="44.1692622" lon="12.3571659"><ele>9.0</ele><time>2026-04-18T18:52:45.188Z</time></trkpt><trkpt lat="44.1694104" lon="12.3573822"><ele>9.0</ele><time>2026-04-18T18:52:46.188Z</time></trkpt><trkpt lat="44.1695557" lon="12.3576035"><ele>9.0</ele><time>2026-04-18T18:52:47.188Z</time></trkpt><trkpt lat="44.1696995" lon="12.3578257"><ele>9.0</ele><time>2026-04-18T18:52:48.187Z</time></trkpt><trkpt lat="44.1698387" lon="12.3580495"><ele>9.0</ele><time>2026-04-18T18:52:49.187Z</time></trkpt><trkpt lat="44.1699734" lon="12.3582722"><ele>9.0</ele><time>2026-04-18T18:52:50.188Z</time></trkpt><trkpt lat="44.1701061" lon="12.3584909"><ele>9.0</ele><time>2026-04-18T18:52:51.188Z</time></trkpt><trkpt lat="44.1702311" lon="12.3587009"><ele>9.0</ele><time>2026-04-18T18:52:52.188Z</time></trkpt><trkpt lat="44.170349" lon="12.3588996"><ele>9.0</ele><time>2026-04-18T18:52:53.188Z</time></trkpt><trkpt lat="44.170466" lon="12.3591035"><ele>9.0</ele><time>2026-04-18T18:52:54.188Z</time></trkpt><trkpt lat="44.1705821" lon="12.3593078"><ele>9.0</ele><time>2026-04-18T18:52:55.188Z</time></trkpt><trkpt lat="44.1706993" lon="12.3595129"><ele>9.0</ele><time>2026-04-18T18:52:56.188Z</time></trkpt><trkpt lat="44.1708143" lon="12.3597191"><ele>9.0</ele><time>2026-04-18T18:52:57.187Z</time></trkpt><trkpt lat="44.1709255" lon="12.3599284"><ele>9.0</ele><time>2026-04-18T18:52:58.188Z</time></trkpt><trkpt lat="44.1710375" lon="12.3601375"><ele>9.0</ele><time>2026-04-18T18:52:59.188Z</time></trkpt><trkpt lat="44.1711481" lon="12.3603477"><ele>9.0</ele><time>2026-04-18T18:53:00.187Z</time></trkpt><trkpt lat="44.1712563" lon="12.3605599"><ele>9.0</ele><time>2026-04-18T18:53:01.188Z</time></trkpt><trkpt lat="44.1713611" lon="12.3607762"><ele>8.666666666666666</ele><time>2026-04-18T18:53:02.188Z</time></trkpt><trkpt lat="44.1714595" lon="12.3609946"><ele>8.333333333333332</ele><time>2026-04-18T18:53:03.188Z</time></trkpt><trkpt lat="44.1715479" lon="12.3612138"><ele>8.0</ele><time>2026-04-18T18:53:04.187Z</time></trkpt><trkpt lat="44.1716312" lon="12.36142"><ele>8.0</ele><time>2026-04-18T18:53:05.188Z</time></trkpt><trkpt lat="44.1717088" lon="12.3616192"><ele>8.0</ele><time>2026-04-18T18:53:06.187Z</time></trkpt><trkpt lat="44.171787" lon="12.3618148"><ele>8.0</ele><time>2026-04-18T18:53:07.188Z</time></trkpt><trkpt lat="44.1718689" lon="12.3620108"><ele>7.666666666666666</ele><time>2026-04-18T18:53:08.187Z</time></trkpt><trkpt lat="44.1719558" lon="12.362208"><ele>7.333333333333334</ele><time>2026-04-18T18:53:09.188Z</time></trkpt><trkpt lat="44.1720478" lon="12.3624056"><ele>7.0</ele><time>2026-04-18T18:53:10.188Z</time></trkpt><trkpt lat="44.1721429" lon="12.3626081"><ele>7.0</ele><time>2026-04-18T18:53:11.188Z</time></trkpt><trkpt lat="44.1722426" lon="12.3628172"><ele>7.0</ele><time>2026-04-18T18:53:12.188Z</time></trkpt><trkpt lat="44.1723457" lon="12.3630281"><ele>7.0</ele><time>2026-04-18T18:53:13.188Z</time></trkpt><trkpt lat="44.1724478" lon="12.3632378"><ele>7.666666666666667</ele><time>2026-04-18T18:53:14.187Z</time></trkpt><trkpt lat="44.1725468" lon="12.3634465"><ele>8.333333333333334</ele><time>2026-04-18T18:53:15.188Z</time></trkpt><trkpt lat="44.1726394" lon="12.3636512"><ele>9.0</ele><time>2026-04-18T18:53:16.188Z</time></trkpt><trkpt lat="44.1727266" lon="12.363842"><ele>9.0</ele><time>2026-04-18T18:53:17.188Z</time></trkpt><trkpt lat="44.1728065" lon="12.3640258"><ele>9.0</ele><time>2026-04-18T18:53:18.188Z</time></trkpt><trkpt lat="44.1728833" lon="12.3641999"><ele>9.0</ele><time>2026-04-18T18:53:19.188Z</time></trkpt><trkpt lat="44.1729599" lon="12.3643752"><ele>9.0</ele><time>2026-04-18T18:53:20.188Z</time></trkpt><trkpt lat="44.1730391" lon="12.3645524"><ele>9.0</ele><time>2026-04-18T18:53:21.188Z</time></trkpt><trkpt lat="44.1731202" lon="12.3647349"><ele>9.0</ele><time>2026-04-18T18:53:22.188Z</time></trkpt><trkpt lat="44.1731967" lon="12.3649166"><ele>9.0</ele><time>2026-04-18T18:53:23.188Z</time></trkpt><trkpt lat="44.1732725" lon="12.365086"><ele>9.0</ele><time>2026-04-18T18:53:24.188Z</time></trkpt><trkpt lat="44.173348" lon="12.3652544"><ele>9.0</ele><time>2026-04-18T18:53:25.188Z</time></trkpt><trkpt lat="44.173425" lon="12.3654272"><ele>9.0</ele><time>2026-04-18T18:53:26.188Z</time></trkpt><trkpt lat="44.1735041" lon="12.3655998"><ele>9.0</ele><time>2026-04-18T18:53:27.187Z</time></trkpt><trkpt lat="44.1735842" lon="12.3657716"><ele>9.0</ele><time>2026-04-18T18:53:28.188Z</time></trkpt><trkpt lat="44.1736631" lon="12.365935"><ele>9.0</ele><time>2026-04-18T18:53:29.188Z</time></trkpt><trkpt lat="44.1737396" lon="12.366092"><ele>9.0</ele><time>2026-04-18T18:53:30.188Z</time></trkpt><trkpt lat="44.1738171" lon="12.3662518"><ele>9.0</ele><time>2026-04-18T18:53:31.188Z</time></trkpt><trkpt lat="44.1738941" lon="12.3664087"><ele>9.0</ele><time>2026-04-18T18:53:32.188Z</time></trkpt><trkpt lat="44.1739752" lon="12.3665585"><ele>9.333333333333334</ele><time>2026-04-18T18:53:33.188Z</time></trkpt><trkpt lat="44.1740686" lon="12.3667153"><ele>9.666666666666668</ele><time>2026-04-18T18:53:34.187Z</time></trkpt><trkpt lat="44.1741711" lon="12.3668826"><ele>10.0</ele><time>2026-04-18T18:53:35.188Z</time></trkpt><trkpt lat="44.1742765" lon="12.3670576"><ele>9.333333333333334</ele><time>2026-04-18T18:53:36.188Z</time></trkpt><trkpt lat="44.1743772" lon="12.3672351"><ele>8.666666666666666</ele><time>2026-04-18T18:53:37.187Z</time></trkpt><trkpt lat="44.1744722" lon="12.3674015"><ele>8.0</ele><time>2026-04-18T18:53:38.188Z</time></trkpt><trkpt lat="44.1745772" lon="12.3675713"><ele>8.0</ele><time>2026-04-18T18:53:39.188Z</time></trkpt><trkpt lat="44.174698" lon="12.3677632"><ele>8.0</ele><time>2026-04-18T18:53:40.188Z</time></trkpt><trkpt lat="44.174828" lon="12.3679877"><ele>8.0</ele><time>2026-04-18T18:53:41.188Z</time></trkpt><trkpt lat="44.1749585" lon="12.3682245"><ele>7.666666666666666</ele><time>2026-04-18T18:53:42.187Z</time></trkpt><trkpt lat="44.1750877" lon="12.3684565"><ele>7.333333333333334</ele><time>2026-04-18T18:53:43.188Z</time></trkpt><trkpt lat="44.1752093" lon="12.3686737"><ele>7.0</ele><time>2026-04-18T18:53:44.188Z</time></trkpt><trkpt lat="44.1753256" lon="12.3688783"><ele>6.666666666666667</ele><time>2026-04-18T18:53:45.188Z</time></trkpt><trkpt lat="44.175439" lon="12.3690732"><ele>6.333333333333334</ele><time>2026-04-18T18:53:46.188Z</time></trkpt><trkpt lat="44.1755484" lon="12.3692627"><ele>6.0</ele><time>2026-04-18T18:53:47.187Z</time></trkpt><trkpt lat="44.1756576" lon="12.3694461"><ele>6.333333333333334</ele><time>2026-04-18T18:53:48.188Z</time></trkpt><trkpt lat="44.1757663" lon="12.3696245"><ele>6.666666666666667</ele><time>2026-04-18T18:53:49.188Z</time></trkpt><trkpt lat="44.1758713" lon="12.3698014"><ele>7.0</ele><time>2026-04-18T18:53:50.188Z</time></trkpt><trkpt lat="44.1759745" lon="12.3699756"><ele>7.0</ele><time>2026-04-18T18:53:51.188Z</time></trkpt><trkpt lat="44.1760762" lon="12.3701604"><ele>7.0</ele><time>2026-04-18T18:53:52.188Z</time></trkpt><trkpt lat="44.1761743" lon="12.3703474"><ele>7.0</ele><time>2026-04-18T18:53:53.188Z</time></trkpt><trkpt lat="44.176261" lon="12.3705229"><ele>6.8</ele><time>2026-04-18T18:53:54.188Z</time></trkpt><trkpt lat="44.176335" lon="12.3706829"><ele>6.6</ele><time>2026-04-18T18:53:55.188Z</time></trkpt><trkpt lat="44.176399" lon="12.3708252"><ele>6.3999999999999995</ele><time>2026-04-18T18:53:56.187Z</time></trkpt><trkpt lat="44.1764476" lon="12.3709445"><ele>6.199999999999999</ele><time>2026-04-18T18:53:57.188Z</time></trkpt><trkpt lat="44.1764859" lon="12.3710414"><ele>6.0</ele><time>2026-04-18T18:53:58.188Z</time></trkpt><trkpt lat="44.1765111" lon="12.3711223"><ele>6.199999999999999</ele><time>2026-04-18T18:53:59.188Z</time></trkpt><trkpt lat="44.1765327" lon="12.3712138"><ele>6.3999999999999995</ele><time>2026-04-18T18:54:00.188Z</time></trkpt><trkpt lat="44.1765715" lon="12.3713227"><ele>6.6</ele><time>2026-04-18T18:54:01.188Z</time></trkpt><trkpt lat="44.1766396" lon="12.3714433"><ele>6.8</ele><time>2026-04-18T18:54:02.188Z</time></trkpt><trkpt lat="44.1767185" lon="12.3715716"><ele>7.0</ele><time>2026-04-18T18:54:03.188Z</time></trkpt><trkpt lat="44.1768049" lon="12.3717356"><ele>7.0</ele><time>2026-04-18T18:54:04.188Z</time></trkpt><trkpt lat="44.1768909" lon="12.3719074"><ele>7.0</ele><time>2026-04-18T18:54:05.188Z</time></trkpt><trkpt lat="44.1769815" lon="12.3720796"><ele>7.0</ele><time>2026-04-18T18:54:06.188Z</time></trkpt><trkpt lat="44.1770887" lon="12.3722433"><ele>7.0</ele><time>2026-04-18T18:54:07.187Z</time></trkpt><trkpt lat="44.1771955" lon="12.3723955"><ele>7.0</ele><time>2026-04-18T18:54:08.188Z</time></trkpt><trkpt lat="44.1773041" lon="12.3725351"><ele>7.0</ele><time>2026-04-18T18:54:09.188Z</time></trkpt><trkpt lat="44.1774122" lon="12.3726695"><ele>7.0</ele><time>2026-04-18T18:54:10.187Z</time></trkpt><trkpt lat="44.1775186" lon="12.3727983"><ele>7.0</ele><time>2026-04-18T18:54:11.188Z</time></trkpt><trkpt lat="44.177622" lon="12.3729223"><ele>7.0</ele><time>2026-04-18T18:54:12.188Z</time></trkpt><trkpt lat="44.1777192" lon="12.3730395"><ele>7.0</ele><time>2026-04-18T18:54:13.187Z</time></trkpt><trkpt lat="44.1778148" lon="12.3731532"><ele>7.0</ele><time>2026-04-18T18:54:14.188Z</time></trkpt><trkpt lat="44.1779086" lon="12.3732673"><ele>7.0</ele><time>2026-04-18T18:54:15.187Z</time></trkpt><trkpt lat="44.1779991" lon="12.3733844"><ele>7.0</ele><time>2026-04-18T18:54:16.187Z</time></trkpt><trkpt lat="44.1780843" lon="12.3735053"><ele>7.0</ele><time>2026-04-18T18:54:17.187Z</time></trkpt><trkpt lat="44.1781643" lon="12.3736289"><ele>7.0</ele><time>2026-04-18T18:54:18.188Z</time></trkpt><trkpt lat="44.1782422" lon="12.3737559"><ele>6.75</ele><time>2026-04-18T18:54:19.188Z</time></trkpt><trkpt lat="44.1783174" lon="12.3738855"><ele>6.5</ele><time>2026-04-18T18:54:20.188Z</time></trkpt><trkpt lat="44.178391" lon="12.3740182"><ele>6.25</ele><time>2026-04-18T18:54:21.188Z</time></trkpt><trkpt lat="44.1784646" lon="12.3741518"><ele>6.0</ele><time>2026-04-18T18:54:22.188Z</time></trkpt><trkpt lat="44.1785383" lon="12.3742852"><ele>6.0</ele><time>2026-04-18T18:54:23.188Z</time></trkpt><trkpt lat="44.1786104" lon="12.3744173"><ele>6.0</ele><time>2026-04-18T18:54:24.188Z</time></trkpt><trkpt lat="44.1786832" lon="12.3745489"><ele>6.0</ele><time>2026-04-18T18:54:25.187Z</time></trkpt><trkpt lat="44.1787561" lon="12.3746783"><ele>6.0</ele><time>2026-04-18T18:54:26.188Z</time></trkpt><trkpt lat="44.1788291" lon="12.3748048"><ele>6.0</ele><time>2026-04-18T18:54:27.188Z</time></trkpt><trkpt lat="44.1789034" lon="12.3749306"><ele>6.0</ele><time>2026-04-18T18:54:28.188Z</time></trkpt><trkpt lat="44.1789809" lon="12.3750513"><ele>6.0</ele><time>2026-04-18T18:54:29.188Z</time></trkpt><trkpt lat="44.179061" lon="12.3751733"><ele>6.0</ele><time>2026-04-18T18:54:30.187Z</time></trkpt><trkpt lat="44.1791431" lon="12.3752921"><ele>6.0</ele><time>2026-04-18T18:54:31.188Z</time></trkpt><trkpt lat="44.1792257" lon="12.3754118"><ele>6.0</ele><time>2026-04-18T18:54:32.188Z</time></trkpt><trkpt lat="44.1793139" lon="12.3755276"><ele>6.0</ele><time>2026-04-18T18:54:33.188Z</time></trkpt><trkpt lat="44.1794013" lon="12.3756402"><ele>6.0</ele><time>2026-04-18T18:54:34.188Z</time></trkpt><trkpt lat="44.1794893" lon="12.3757505"><ele>6.0</ele><time>2026-04-18T18:54:35.188Z</time></trkpt><trkpt lat="44.1795797" lon="12.3758582"><ele>6.0</ele><time>2026-04-18T18:54:36.188Z</time></trkpt><trkpt lat="44.1796715" lon="12.3759678"><ele>6.0</ele><time>2026-04-18T18:54:37.188Z</time></trkpt><trkpt lat="44.179766" lon="12.3760676"><ele>6.0</ele><time>2026-04-18T18:54:38.188Z</time></trkpt><trkpt lat="44.1798639" lon="12.3761558"><ele>6.0</ele><time>2026-04-18T18:54:39.188Z</time></trkpt><trkpt lat="44.1799659" lon="12.3762374"><ele>6.0</ele><time>2026-04-18T18:54:40.187Z</time></trkpt><trkpt lat="44.1800769" lon="12.3763104"><ele>6.0</ele><time>2026-04-18T18:54:41.188Z</time></trkpt><trkpt lat="44.1801847" lon="12.3763884"><ele>6.0</ele><time>2026-04-18T18:54:42.188Z</time></trkpt><trkpt lat="44.1802949" lon="12.3764659"><ele>6.0</ele><time>2026-04-18T18:54:43.188Z</time></trkpt><trkpt lat="44.1804147" lon="12.3765448"><ele>6.0</ele><time>2026-04-18T18:54:44.188Z</time></trkpt><trkpt lat="44.1805464" lon="12.3766265"><ele>6.0</ele><time>2026-04-18T18:54:45.187Z</time></trkpt><trkpt lat="44.1806938" lon="12.3767147"><ele>6.0</ele><time>2026-04-18T18:54:46.188Z</time></trkpt><trkpt lat="44.1808617" lon="12.3768146"><ele>6.0</ele><time>2026-04-18T18:54:47.188Z</time></trkpt><trkpt lat="44.1810412" lon="12.3769337"><ele>6.0</ele><time>2026-04-18T18:54:48.188Z</time></trkpt><trkpt lat="44.1812161" lon="12.3770551"><ele>6.0</ele><time>2026-04-18T18:54:49.188Z</time></trkpt><trkpt lat="44.1813895" lon="12.3771805"><ele>5.666666666666667</ele><time>2026-04-18T18:54:50.188Z</time></trkpt><trkpt lat="44.1815639" lon="12.3773026"><ele>5.333333333333334</ele><time>2026-04-18T18:54:51.188Z</time></trkpt><trkpt lat="44.1817359" lon="12.3774152"><ele>5.0</ele><time>2026-04-18T18:54:52.188Z</time></trkpt><trkpt lat="44.1819047" lon="12.3775265"><ele>5.0</ele><time>2026-04-18T18:54:53.188Z</time></trkpt><trkpt lat="44.1820724" lon="12.3776364"><ele>5.0</ele><time>2026-04-18T18:54:54.187Z</time></trkpt><trkpt lat="44.1822363" lon="12.3777448"><ele>5.0</ele><time>2026-04-18T18:54:55.188Z</time></trkpt><trkpt lat="44.1823972" lon="12.3778576"><ele>5.0</ele><time>2026-04-18T18:54:56.188Z</time></trkpt><trkpt lat="44.1825512" lon="12.3779722"><ele>5.0</ele><time>2026-04-18T18:54:57.187Z</time></trkpt><trkpt lat="44.1827039" lon="12.3780956"><ele>5.0</ele><time>2026-04-18T18:54:58.187Z</time></trkpt><trkpt lat="44.1828532" lon="12.3782176"><ele>5.333333333333334</ele><time>2026-04-18T18:54:59.188Z</time></trkpt><trkpt lat="44.1829992" lon="12.3783381"><ele>5.666666666666667</ele><time>2026-04-18T18:55:00.188Z</time></trkpt><trkpt lat="44.1831417" lon="12.3784593"><ele>6.0</ele><time>2026-04-18T18:55:01.188Z</time></trkpt><trkpt lat="44.1832809" lon="12.378575"><ele>6.0</ele><time>2026-04-18T18:55:02.188Z</time></trkpt><trkpt lat="44.1834148" lon="12.3786847"><ele>6.0</ele><time>2026-04-18T18:55:03.188Z</time></trkpt><trkpt lat="44.1835495" lon="12.3787943"><ele>6.0</ele><time>2026-04-18T18:55:04.187Z</time></trkpt><trkpt lat="44.1836867" lon="12.3789046"><ele>5.666666666666667</ele><time>2026-04-18T18:55:05.188Z</time></trkpt><trkpt lat="44.1838266" lon="12.3790157"><ele>5.333333333333334</ele><time>2026-04-18T18:55:06.188Z</time></trkpt><trkpt lat="44.1839632" lon="12.3791286"><ele>5.0</ele><time>2026-04-18T18:55:07.188Z</time></trkpt><trkpt lat="44.1840977" lon="12.3792401"><ele>5.0</ele><time>2026-04-18T18:55:08.188Z</time></trkpt><trkpt lat="44.1842312" lon="12.3793517"><ele>5.0</ele><time>2026-04-18T18:55:09.188Z</time></trkpt><trkpt lat="44.1843639" lon="12.3794647"><ele>5.0</ele><time>2026-04-18T18:55:10.188Z</time></trkpt><trkpt lat="44.1844962" lon="12.3795815"><ele>5.0</ele><time>2026-04-18T18:55:11.188Z</time></trkpt><trkpt lat="44.1846285" lon="12.3797019"><ele>5.0</ele><time>2026-04-18T18:55:12.188Z</time></trkpt><trkpt lat="44.1847622" lon="12.3798233"><ele>5.0</ele><time>2026-04-18T18:55:13.188Z</time></trkpt><trkpt lat="44.1848957" lon="12.3799464"><ele>5.333333333333334</ele><time>2026-04-18T18:55:14.188Z</time></trkpt><trkpt lat="44.1850306" lon="12.3800699"><ele>5.666666666666667</ele><time>2026-04-18T18:55:15.188Z</time></trkpt><trkpt lat="44.1851643" lon="12.3801931"><ele>6.0</ele><time>2026-04-18T18:55:16.188Z</time></trkpt><trkpt lat="44.1852979" lon="12.3803159"><ele>6.0</ele><time>2026-04-18T18:55:17.188Z</time></trkpt><trkpt lat="44.1854302" lon="12.3804406"><ele>6.0</ele><time>2026-04-18T18:55:18.188Z</time></trkpt><trkpt lat="44.1855614" lon="12.3805662"><ele>6.0</ele><time>2026-04-18T18:55:19.188Z</time></trkpt><trkpt lat="44.1856926" lon="12.3806931"><ele>5.666666666666667</ele><time>2026-04-18T18:55:20.187Z</time></trkpt><trkpt lat="44.185824" lon="12.3808203"><ele>5.333333333333334</ele><time>2026-04-18T18:55:21.188Z</time></trkpt><trkpt lat="44.1859566" lon="12.3809461"><ele>5.0</ele><time>2026-04-18T18:55:22.188Z</time></trkpt><trkpt lat="44.1860904" lon="12.3810711"><ele>5.0</ele><time>2026-04-18T18:55:23.188Z</time></trkpt><trkpt lat="44.1862225" lon="12.3811988"><ele>5.0</ele><time>2026-04-18T18:55:24.187Z</time></trkpt><trkpt lat="44.1863549" lon="12.3813264"><ele>5.0</ele><time>2026-04-18T18:55:25.188Z</time></trkpt><trkpt lat="44.186486" lon="12.3814565"><ele>4.666666666666667</ele><time>2026-04-18T18:55:26.188Z</time></trkpt><trkpt lat="44.1866145" lon="12.3815813"><ele>4.333333333333333</ele><time>2026-04-18T18:55:27.188Z</time></trkpt><trkpt lat="44.1867373" lon="12.3817041"><ele>4.0</ele><time>2026-04-18T18:55:28.188Z</time></trkpt><trkpt lat="44.1868625" lon="12.3818382"><ele>4.0</ele><time>2026-04-18T18:55:29.188Z</time></trkpt><trkpt lat="44.1869822" lon="12.381967"><ele>4.0</ele><time>2026-04-18T18:55:30.187Z</time></trkpt><trkpt lat="44.1870928" lon="12.3820866"><ele>4.0</ele><time>2026-04-18T18:55:31.188Z</time></trkpt><trkpt lat="44.1871961" lon="12.3821979"><ele>4.0</ele><time>2026-04-18T18:55:32.188Z</time></trkpt><trkpt lat="44.1872929" lon="12.382302"><ele>3.833333333333333</ele><time>2026-04-18T18:55:33.187Z</time></trkpt><trkpt lat="44.1873675" lon="12.3823816"><ele>3.6666666666666665</ele><time>2026-04-18T18:55:34.187Z</time></trkpt><trkpt lat="44.1874256" lon="12.382444"><ele>3.5</ele><time>2026-04-18T18:55:35.188Z</time></trkpt><trkpt lat="44.1874862" lon="12.3825122"><ele>3.333333333333333</ele><time>2026-04-18T18:55:37.188Z</time></trkpt><trkpt lat="44.1875515" lon="12.3825951"><ele>3.1666666666666665</ele><time>2026-04-18T18:55:40.188Z</time></trkpt><trkpt lat="44.1876103" lon="12.3827266"><ele>3.0</ele><time>2026-04-18T18:55:42.188Z</time></trkpt><trkpt lat="44.1876699" lon="12.3828697"><ele>3.0</ele><time>2026-04-18T18:55:44.188Z</time></trkpt><trkpt lat="44.1877181" lon="12.3829284"><ele>3.0</ele><time>2026-04-18T18:55:45.188Z</time></trkpt><trkpt lat="44.1877863" lon="12.382969"><ele>3.0</ele><time>2026-04-18T18:55:46.188Z</time></trkpt><trkpt lat="44.1878664" lon="12.382998"><ele>3.0</ele><time>2026-04-18T18:55:47.187Z</time></trkpt><trkpt lat="44.1879525" lon="12.3830431"><ele>3.0</ele><time>2026-04-18T18:55:48.188Z</time></trkpt><trkpt lat="44.1880276" lon="12.3831148"><ele>3.0</ele><time>2026-04-18T18:55:49.188Z</time></trkpt><trkpt lat="44.1881133" lon="12.3832075"><ele>2.75</ele><time>2026-04-18T18:55:50.188Z</time></trkpt><trkpt lat="44.1882116" lon="12.3833142"><ele>2.5</ele><time>2026-04-18T18:55:51.188Z</time></trkpt><trkpt lat="44.1883122" lon="12.3834209"><ele>2.25</ele><time>2026-04-18T18:55:52.188Z</time></trkpt><trkpt lat="44.1884194" lon="12.383533"><ele>2.0</ele><time>2026-04-18T18:55:53.188Z</time></trkpt><trkpt lat="44.1885171" lon="12.383634"><ele>2.0</ele><time>2026-04-18T18:55:54.188Z</time></trkpt><trkpt lat="44.1886078" lon="12.3837293"><ele>2.0</ele><time>2026-04-18T18:55:55.188Z</time></trkpt><trkpt lat="44.1886999" lon="12.3838296"><ele>2.0</ele><time>2026-04-18T18:55:56.188Z</time></trkpt><trkpt lat="44.1887889" lon="12.3839258"><ele>2.0</ele><time>2026-04-18T18:55:57.188Z</time></trkpt><trkpt lat="44.1888776" lon="12.3840227"><ele>2.0</ele><time>2026-04-18T18:55:58.188Z</time></trkpt><trkpt lat="44.1889701" lon="12.3841247"><ele>2.0</ele><time>2026-04-18T18:55:59.188Z</time></trkpt><trkpt lat="44.1890727" lon="12.3842356"><ele>2.0</ele><time>2026-04-18T18:56:00.187Z</time></trkpt><trkpt lat="44.189176" lon="12.3843446"><ele>2.0</ele><time>2026-04-18T18:56:01.188Z</time></trkpt><trkpt lat="44.1892776" lon="12.3844521"><ele>2.0</ele><time>2026-04-18T18:56:02.188Z</time></trkpt><trkpt lat="44.1893766" lon="12.3845539"><ele>2.0</ele><time>2026-04-18T18:56:03.187Z</time></trkpt><trkpt lat="44.1894758" lon="12.3846502"><ele>2.0</ele><time>2026-04-18T18:56:04.188Z</time></trkpt><trkpt lat="44.1895755" lon="12.3847444"><ele>2.0</ele><time>2026-04-18T18:56:05.188Z</time></trkpt><trkpt lat="44.1896754" lon="12.3848382"><ele>2.0</ele><time>2026-04-18T18:56:06.187Z</time></trkpt><trkpt lat="44.1897737" lon="12.3849315"><ele>2.0</ele><time>2026-04-18T18:56:07.188Z</time></trkpt><trkpt lat="44.1898708" lon="12.3850224"><ele>2.0</ele><time>2026-04-18T18:56:08.188Z</time></trkpt><trkpt lat="44.1899656" lon="12.3851105"><ele>2.0</ele><time>2026-04-18T18:56:09.188Z</time></trkpt><trkpt lat="44.1900574" lon="12.3851947"><ele>2.0</ele><time>2026-04-18T18:56:10.188Z</time></trkpt><trkpt lat="44.1901459" lon="12.3852795"><ele>2.0</ele><time>2026-04-18T18:56:11.187Z</time></trkpt><trkpt lat="44.1902381" lon="12.385364"><ele>2.0</ele><time>2026-04-18T18:56:12.188Z</time></trkpt><trkpt lat="44.19033" lon="12.3854477"><ele>2.0</ele><time>2026-04-18T18:56:13.188Z</time></trkpt><trkpt lat="44.1904172" lon="12.3855295"><ele>2.0</ele><time>2026-04-18T18:56:14.188Z</time></trkpt><trkpt lat="44.1905091" lon="12.3856137"><ele>2.0</ele><time>2026-04-18T18:56:15.188Z</time></trkpt><trkpt lat="44.1906048" lon="12.3857045"><ele>2.0</ele><time>2026-04-18T18:56:16.187Z</time></trkpt><trkpt lat="44.1907026" lon="12.3857955"><ele>2.0</ele><time>2026-04-18T18:56:17.188Z</time></trkpt><trkpt lat="44.1908012" lon="12.3858837"><ele>2.0</ele><time>2026-04-18T18:56:18.188Z</time></trkpt><trkpt lat="44.1908955" lon="12.3859715"><ele>2.0</ele><time>2026-04-18T18:56:19.188Z</time></trkpt><trkpt lat="44.1909911" lon="12.3860527"><ele>2.0</ele><time>2026-04-18T18:56:20.187Z</time></trkpt><trkpt lat="44.1910878" lon="12.3861293"><ele>2.0</ele><time>2026-04-18T18:56:21.188Z</time></trkpt><trkpt lat="44.1911876" lon="12.386204"><ele>2.0</ele><time>2026-04-18T18:56:22.188Z</time></trkpt><trkpt lat="44.1912867" lon="12.3862761"><ele>2.0</ele><time>2026-04-18T18:56:23.187Z</time></trkpt><trkpt lat="44.1913855" lon="12.3863428"><ele>1.8</ele><time>2026-04-18T18:56:24.188Z</time></trkpt><trkpt lat="44.191487" lon="12.3864021"><ele>1.6</ele><time>2026-04-18T18:56:25.187Z</time></trkpt><trkpt lat="44.1915861" lon="12.386458"><ele>1.4000000000000001</ele><time>2026-04-18T18:56:26.188Z</time></trkpt><trkpt lat="44.1916857" lon="12.3865142"><ele>1.2000000000000002</ele><time>2026-04-18T18:56:27.188Z</time></trkpt><trkpt lat="44.1917859" lon="12.3865686"><ele>1.0</ele><time>2026-04-18T18:56:28.188Z</time></trkpt><trkpt lat="44.1918879" lon="12.3866252"><ele>1.0</ele><time>2026-04-18T18:56:29.188Z</time></trkpt><trkpt lat="44.1919979" lon="12.386682"><ele>1.0</ele><time>2026-04-18T18:56:30.188Z</time></trkpt><trkpt lat="44.1921167" lon="12.3867442"><ele>1.0</ele><time>2026-04-18T18:56:31.188Z</time></trkpt><trkpt lat="44.1922338" lon="12.3868035"><ele>1.0</ele><time>2026-04-18T18:56:32.188Z</time></trkpt><trkpt lat="44.1923513" lon="12.3868704"><ele>0.75</ele><time>2026-04-18T18:56:33.187Z</time></trkpt><trkpt lat="44.1924696" lon="12.3869357"><ele>0.5</ele><time>2026-04-18T18:56:34.188Z</time></trkpt><trkpt lat="44.1925862" lon="12.3869969"><ele>0.25</ele><time>2026-04-18T18:56:35.188Z</time></trkpt><trkpt lat="44.1926991" lon="12.3870584"><ele>0.0</ele><time>2026-04-18T18:56:36.188Z</time></trkpt><trkpt lat="44.1928094" lon="12.3871178"><ele>0.0</ele><time>2026-04-18T18:56:37.188Z</time></trkpt><trkpt lat="44.1929189" lon="12.387179"><ele>0.0</ele><time>2026-04-18T18:56:38.188Z</time></trkpt><trkpt lat="44.1930284" lon="12.3872452"><ele>0.0</ele><time>2026-04-18T18:56:39.188Z</time></trkpt><trkpt lat="44.1931352" lon="12.3873144"><ele>0.0</ele><time>2026-04-18T18:56:40.188Z</time></trkpt><trkpt lat="44.1932421" lon="12.3873859"><ele>0.0</ele><time>2026-04-18T18:56:41.188Z</time></trkpt><trkpt lat="44.1933419" lon="12.3874675"><ele>0.0</ele><time>2026-04-18T18:56:42.188Z</time></trkpt><trkpt lat="44.1934357" lon="12.3875579"><ele>0.0</ele><time>2026-04-18T18:56:43.188Z</time></trkpt><trkpt lat="44.1935233" lon="12.3876543"><ele>0.0</ele><time>2026-04-18T18:56:44.188Z</time></trkpt><trkpt lat="44.1936082" lon="12.3877518"><ele>0.0</ele><time>2026-04-18T18:56:45.188Z</time></trkpt><trkpt lat="44.1936926" lon="12.387853"><ele>0.0</ele><time>2026-04-18T18:56:46.188Z</time></trkpt><trkpt lat="44.1937768" lon="12.3879575"><ele>0.0</ele><time>2026-04-18T18:56:47.188Z</time></trkpt><trkpt lat="44.1938562" lon="12.3880586"><ele>0.0</ele><time>2026-04-18T18:56:48.188Z</time></trkpt><trkpt lat="44.1939343" lon="12.3881605"><ele>0.0</ele><time>2026-04-18T18:56:49.188Z</time></trkpt><trkpt lat="44.1940082" lon="12.3882546"><ele>0.2</ele><time>2026-04-18T18:56:50.187Z</time></trkpt><trkpt lat="44.1940813" lon="12.3883491"><ele>0.4</ele><time>2026-04-18T18:56:51.188Z</time></trkpt><trkpt lat="44.194155" lon="12.3884446"><ele>0.6000000000000001</ele><time>2026-04-18T18:56:52.188Z</time></trkpt><trkpt lat="44.1942293" lon="12.3885414"><ele>0.8</ele><time>2026-04-18T18:56:53.188Z</time></trkpt><trkpt lat="44.1943062" lon="12.388642"><ele>1.0</ele><time>2026-04-18T18:56:54.187Z</time></trkpt><trkpt lat="44.1943844" lon="12.3887474"><ele>0.5</ele><time>2026-04-18T18:56:55.188Z</time></trkpt><trkpt lat="44.1944643" lon="12.3888521"><ele>0.0</ele><time>2026-04-18T18:56:56.188Z</time></trkpt><trkpt lat="44.1945477" lon="12.3889565"><ele>-0.5</ele><time>2026-04-18T18:56:57.188Z</time></trkpt><trkpt lat="44.1946313" lon="12.3890629"><ele>-1.0</ele><time>2026-04-18T18:56:58.188Z</time></trkpt><trkpt lat="44.1947195" lon="12.3891754"><ele>-1.0</ele><time>2026-04-18T18:56:59.187Z</time></trkpt><trkpt lat="44.194815" lon="12.3892892"><ele>-1.0</ele><time>2026-04-18T18:57:00.188Z</time></trkpt><trkpt lat="44.1949235" lon="12.3894171"><ele>-1.0</ele><time>2026-04-18T18:57:01.188Z</time></trkpt><trkpt lat="44.1950525" lon="12.3895678"><ele>-1.0</ele><time>2026-04-18T18:57:02.188Z</time></trkpt><trkpt lat="44.1951972" lon="12.3897458"><ele>-0.3333333333333333</ele><time>2026-04-18T18:57:03.188Z</time></trkpt><trkpt lat="44.1953511" lon="12.3899419"><ele>0.3333333333333333</ele><time>2026-04-18T18:57:04.188Z</time></trkpt><trkpt lat="44.1955114" lon="12.3901595"><ele>1.0</ele><time>2026-04-18T18:57:05.188Z</time></trkpt><trkpt lat="44.1956656" lon="12.3903728"><ele>0.6666666666666666</ele><time>2026-04-18T18:57:06.188Z</time></trkpt><trkpt lat="44.195809" lon="12.3905714"><ele>0.3333333333333333</ele><time>2026-04-18T18:57:07.188Z</time></trkpt><trkpt lat="44.1959508" lon="12.3907671"><ele>0.0</ele><time>2026-04-18T18:57:08.188Z</time></trkpt><trkpt lat="44.1960866" lon="12.3909533"><ele>0.0</ele><time>2026-04-18T18:57:09.188Z</time></trkpt><trkpt lat="44.1962131" lon="12.3911267"><ele>0.0</ele><time>2026-04-18T18:57:10.187Z</time></trkpt><trkpt lat="44.1963315" lon="12.3912911"><ele>0.0</ele><time>2026-04-18T18:57:11.188Z</time></trkpt><trkpt lat="44.196434" lon="12.3914364"><ele>0.0</ele><time>2026-04-18T18:57:12.188Z</time></trkpt><trkpt lat="44.1965175" lon="12.3915547"><ele>0.0</ele><time>2026-04-18T18:57:13.188Z</time></trkpt><trkpt lat="44.1965853" lon="12.3916498"><ele>0.0</ele><time>2026-04-18T18:57:14.188Z</time></trkpt><trkpt lat="44.1966343" lon="12.3917211"><ele>0.0</ele><time>2026-04-18T18:57:15.188Z</time></trkpt><trkpt lat="44.1966877" lon="12.391852"><ele>0.0</ele><time>2026-04-18T18:57:17.188Z</time></trkpt><trkpt lat="44.1966724" lon="12.3919373"><ele>0.0</ele><time>2026-04-18T18:57:18.188Z</time></trkpt><trkpt lat="44.1966159" lon="12.3920489"><ele>0.0</ele><time>2026-04-18T18:57:19.188Z</time></trkpt><trkpt lat="44.1965237" lon="12.3921927"><ele>0.0</ele><time>2026-04-18T18:57:20.188Z</time></trkpt><trkpt lat="44.1964049" lon="12.3923739"><ele>0.0</ele><time>2026-04-18T18:57:21.188Z</time></trkpt><trkpt lat="44.1962699" lon="12.3925894"><ele>-0.5</ele><time>2026-04-18T18:57:22.188Z</time></trkpt><trkpt lat="44.1961182" lon="12.3928365"><ele>-1.0</ele><time>2026-04-18T18:57:23.188Z</time></trkpt><trkpt lat="44.1959549" lon="12.3931086"><ele>-1.0</ele><time>2026-04-18T18:57:24.188Z</time></trkpt><trkpt lat="44.1957854" lon="12.393387"><ele>-1.0</ele><time>2026-04-18T18:57:25.188Z</time></trkpt><trkpt lat="44.1956274" lon="12.3936368"><ele>-0.6666666666666666</ele><time>2026-04-18T18:57:26.188Z</time></trkpt><trkpt lat="44.1954783" lon="12.3938707"><ele>-0.3333333333333333</ele><time>2026-04-18T18:57:27.188Z</time></trkpt><trkpt lat="44.1953357" lon="12.3940987"><ele>0.0</ele><time>2026-04-18T18:57:28.188Z</time></trkpt><trkpt lat="44.1952043" lon="12.3943101"><ele>0.0</ele><time>2026-04-18T18:57:29.188Z</time></trkpt><trkpt lat="44.1950807" lon="12.3945112"><ele>0.0</ele><time>2026-04-18T18:57:30.188Z</time></trkpt><trkpt lat="44.1949627" lon="12.3947018"><ele>0.0</ele><time>2026-04-18T18:57:31.188Z</time></trkpt><trkpt lat="44.1948502" lon="12.3948846"><ele>0.0</ele><time>2026-04-18T18:57:32.188Z</time></trkpt><trkpt lat="44.1947471" lon="12.3950575"><ele>0.0</ele><time>2026-04-18T18:57:33.188Z</time></trkpt><trkpt lat="44.1946572" lon="12.3952154"><ele>0.0</ele><time>2026-04-18T18:57:34.188Z</time></trkpt><trkpt lat="44.1945761" lon="12.3953666"><ele>0.0</ele><time>2026-04-18T18:57:35.188Z</time></trkpt><trkpt lat="44.194494" lon="12.3955301"><ele>0.0</ele><time>2026-04-18T18:57:36.188Z</time></trkpt><trkpt lat="44.1943946" lon="12.3957108"><ele>0.0</ele><time>2026-04-18T18:57:37.188Z</time></trkpt><trkpt lat="44.1942813" lon="12.3959084"><ele>0.0</ele><time>2026-04-18T18:57:38.187Z</time></trkpt><trkpt lat="44.1941627" lon="12.3961151"><ele>0.0</ele><time>2026-04-18T18:57:39.188Z</time></trkpt><trkpt lat="44.19404" lon="12.3963319"><ele>0.0</ele><time>2026-04-18T18:57:40.187Z</time></trkpt><trkpt lat="44.1939166" lon="12.3965423"><ele>0.0</ele><time>2026-04-18T18:57:41.188Z</time></trkpt><trkpt lat="44.1937894" lon="12.3967565"><ele>0.0</ele><time>2026-04-18T18:57:42.188Z</time></trkpt><trkpt lat="44.1936605" lon="12.3969692"><ele>0.0</ele><time>2026-04-18T18:57:43.188Z</time></trkpt><trkpt lat="44.1935296" lon="12.3971825"><ele>0.0</ele><time>2026-04-18T18:57:44.188Z</time></trkpt><trkpt lat="44.1933984" lon="12.3973941"><ele>0.0</ele><time>2026-04-18T18:57:45.188Z</time></trkpt><trkpt lat="44.1932645" lon="12.397608"><ele>0.0</ele><time>2026-04-18T18:57:46.188Z</time></trkpt><trkpt lat="44.19313" lon="12.3978255"><ele>0.0</ele><time>2026-04-18T18:57:47.188Z</time></trkpt><trkpt lat="44.1929925" lon="12.3980494"><ele>1.0</ele><time>2026-04-18T18:57:48.188Z</time></trkpt><trkpt lat="44.1928543" lon="12.3982683"><ele>2.0</ele><time>2026-04-18T18:57:49.188Z</time></trkpt><trkpt lat="44.1927117" lon="12.3984936"><ele>3.0</ele><time>2026-04-18T18:57:50.188Z</time></trkpt><trkpt lat="44.1925663" lon="12.3987198"><ele>2.3333333333333335</ele><time>2026-04-18T18:57:51.187Z</time></trkpt><trkpt lat="44.1924258" lon="12.3989314"><ele>1.6666666666666665</ele><time>2026-04-18T18:57:52.188Z</time></trkpt><trkpt lat="44.192295" lon="12.3991271"><ele>1.0</ele><time>2026-04-18T18:57:53.188Z</time></trkpt><trkpt lat="44.1921769" lon="12.3993112"><ele>1.0</ele><time>2026-04-18T18:57:54.188Z</time></trkpt><trkpt lat="44.1920695" lon="12.3994878"><ele>1.0</ele><time>2026-04-18T18:57:55.188Z</time></trkpt><trkpt lat="44.1919687" lon="12.3996502"><ele>1.0</ele><time>2026-04-18T18:57:56.188Z</time></trkpt><trkpt lat="44.1918811" lon="12.3997855"><ele>0.8</ele><time>2026-04-18T18:57:57.188Z</time></trkpt><trkpt lat="44.1918084" lon="12.3998941"><ele>0.6000000000000001</ele><time>2026-04-18T18:57:58.187Z</time></trkpt><trkpt lat="44.1917289" lon="12.3999817"><ele>0.4</ele><time>2026-04-18T18:57:59.188Z</time></trkpt><trkpt lat="44.19164" lon="12.4000511"><ele>0.2</ele><time>2026-04-18T18:58:00.188Z</time></trkpt><trkpt lat="44.1915452" lon="12.4000773"><ele>0.0</ele><time>2026-04-18T18:58:01.188Z</time></trkpt><trkpt lat="44.1914515" lon="12.4000587"><ele>-0.2</ele><time>2026-04-18T18:58:02.187Z</time></trkpt><trkpt lat="44.1913649" lon="12.3999922"><ele>-0.4</ele><time>2026-04-18T18:58:03.188Z</time></trkpt><trkpt lat="44.1913008" lon="12.3998917"><ele>-0.6000000000000001</ele><time>2026-04-18T18:58:04.188Z</time></trkpt><trkpt lat="44.1912675" lon="12.3997685"><ele>-0.8</ele><time>2026-04-18T18:58:05.188Z</time></trkpt><trkpt lat="44.1912671" lon="12.3996369"><ele>-1.0</ele><time>2026-04-18T18:58:06.188Z</time></trkpt><trkpt lat="44.1912952" lon="12.3995059"><ele>-1.2000000000000002</ele><time>2026-04-18T18:58:07.188Z</time></trkpt><trkpt lat="44.1913454" lon="12.399396"><ele>-1.4000000000000001</ele><time>2026-04-18T18:58:08.188Z</time></trkpt><trkpt lat="44.1914191" lon="12.3993214"><ele>-1.6</ele><time>2026-04-18T18:58:09.188Z</time></trkpt><trkpt lat="44.1915137" lon="12.3992844"><ele>-1.8</ele><time>2026-04-18T18:58:10.187Z</time></trkpt><trkpt lat="44.1916366" lon="12.3992827"><ele>-2.0</ele><time>2026-04-18T18:58:11.187Z</time></trkpt><trkpt lat="44.1917725" lon="12.3992916"><ele>-1.25</ele><time>2026-04-18T18:58:12.188Z</time></trkpt><trkpt lat="44.191914" lon="12.3993015"><ele>-0.5</ele><time>2026-04-18T18:58:13.187Z</time></trkpt><trkpt lat="44.192063" lon="12.3993127"><ele>0.25</ele><time>2026-04-18T18:58:14.188Z</time></trkpt><trkpt lat="44.1922075" lon="12.3993165"><ele>1.0</ele><time>2026-04-18T18:58:15.188Z</time></trkpt><trkpt lat="44.1923516" lon="12.3993285"><ele>1.0</ele><time>2026-04-18T18:58:16.188Z</time></trkpt><trkpt lat="44.1924865" lon="12.3993344"><ele>1.0</ele><time>2026-04-18T18:58:17.188Z</time></trkpt><trkpt lat="44.1926165" lon="12.3993435"><ele>1.0</ele><time>2026-04-18T18:58:18.188Z</time></trkpt><trkpt lat="44.1927379" lon="12.3993562"><ele>1.0</ele><time>2026-04-18T18:58:19.188Z</time></trkpt><trkpt lat="44.1928503" lon="12.3993834"><ele>1.0</ele><time>2026-04-18T18:58:20.188Z</time></trkpt><trkpt lat="44.1929564" lon="12.3994297"><ele>1.0</ele><time>2026-04-18T18:58:21.188Z</time></trkpt><trkpt lat="44.1930594" lon="12.3994939"><ele>1.0</ele><time>2026-04-18T18:58:22.188Z</time></trkpt><trkpt lat="44.1931461" lon="12.3995721"><ele>1.0</ele><time>2026-04-18T18:58:23.188Z</time></trkpt><trkpt lat="44.1932171" lon="12.3996576"><ele>1.0</ele><time>2026-04-18T18:58:24.188Z</time></trkpt><trkpt lat="44.1932769" lon="12.3997399"><ele>0.8333333333333333</ele><time>2026-04-18T18:58:25.188Z</time></trkpt><trkpt lat="44.1933313" lon="12.3998165"><ele>0.6666666666666666</ele><time>2026-04-18T18:58:26.188Z</time></trkpt><trkpt lat="44.1933832" lon="12.3998943"><ele>0.5</ele><time>2026-04-18T18:58:27.188Z</time></trkpt><trkpt lat="44.193419" lon="12.3999711"><ele>0.3333333333333333</ele><time>2026-04-18T18:58:28.188Z</time></trkpt><trkpt lat="44.1934485" lon="12.4000603"><ele>0.16666666666666666</ele><time>2026-04-18T18:58:29.188Z</time></trkpt><trkpt lat="44.1934902" lon="12.4002086"><ele>0.0</ele><time>2026-04-18T18:58:31.187Z</time></trkpt><trkpt lat="44.1935969" lon="12.4003262"><ele>0.0</ele><time>2026-04-18T18:58:33.187Z</time></trkpt><trkpt lat="44.1936615" lon="12.4003972"><ele>0.0</ele><time>2026-04-18T18:58:34.188Z</time></trkpt><trkpt lat="44.1937114" lon="12.4004704"><ele>0.0</ele><time>2026-04-18T18:58:35.188Z</time></trkpt><trkpt lat="44.1937777" lon="12.400595"><ele>0.0</ele><time>2026-04-18T18:58:37.188Z</time></trkpt><trkpt lat="44.1938079" lon="12.4007162"><ele>0.0</ele><time>2026-04-18T18:58:39.188Z</time></trkpt><trkpt lat="44.1938316" lon="12.4008323"><ele>0.0</ele><time>2026-04-18T18:58:41.188Z</time></trkpt><trkpt lat="44.1938924" lon="12.4009253"><ele>0.25</ele><time>2026-04-18T18:58:43.187Z</time></trkpt><trkpt lat="44.1939569" lon="12.4010052"><ele>0.5</ele><time>2026-04-18T18:58:44.188Z</time></trkpt><trkpt lat="44.1940379" lon="12.4011485"><ele>0.75</ele><time>2026-04-18T18:58:45.188Z</time></trkpt><trkpt lat="44.1941168" lon="12.4012962"><ele>1.0</ele><time>2026-04-18T18:58:46.188Z</time></trkpt><trkpt lat="44.1942048" lon="12.4014808"><ele>1.75</ele><time>2026-04-18T18:58:47.188Z</time></trkpt><trkpt lat="44.194283" lon="12.4016487"><ele>2.5</ele><time>2026-04-18T18:58:48.188Z</time></trkpt><trkpt lat="44.1943543" lon="12.4018016"><ele>3.25</ele><time>2026-04-18T18:58:49.188Z</time></trkpt><trkpt lat="44.1944204" lon="12.401944"><ele>4.0</ele><time>2026-04-18T18:58:50.188Z</time></trkpt><trkpt lat="44.1944811" lon="12.4020753"><ele>3.9999999999999996</ele><time>2026-04-18T18:58:51.188Z</time></trkpt><trkpt lat="44.1945387" lon="12.4021947"><ele>4.0</ele><time>2026-04-18T18:58:52.188Z</time></trkpt><trkpt lat="44.1945921" lon="12.4023073"><ele>4.0</ele><time>2026-04-18T18:58:53.188Z</time></trkpt><trkpt lat="44.1946434" lon="12.4024088"><ele>4.0</ele><time>2026-04-18T18:58:54.188Z</time></trkpt><trkpt lat="44.194684" lon="12.4024979"><ele>3.9999999999999996</ele><time>2026-04-18T18:58:55.188Z</time></trkpt><trkpt lat="44.1947205" lon="12.4025759"><ele>4.0</ele><time>2026-04-18T18:58:56.188Z</time></trkpt><trkpt lat="44.1947735" lon="12.402715"><ele>4.0</ele><time>2026-04-18T18:58:58.188Z</time></trkpt><trkpt lat="44.1947798" lon="12.402854"><ele>4.0</ele><time>2026-04-18T18:59:00.188Z</time></trkpt><trkpt lat="44.1947683" lon="12.4030022"><ele>4.0</ele><time>2026-04-18T18:59:02.188Z</time></trkpt><trkpt lat="44.1947986" lon="12.4031538"><ele>4.0</ele><time>2026-04-18T18:59:04.188Z</time></trkpt><trkpt lat="44.1948591" lon="12.4032986"><ele>4.0</ele><time>2026-04-18T18:59:06.188Z</time></trkpt><trkpt lat="44.1949273" lon="12.4034159"><ele>4.4</ele><time>2026-04-18T18:59:08.187Z</time></trkpt><trkpt lat="44.1950282" lon="12.4034788"><ele>4.800000000000001</ele><time>2026-04-18T18:59:10.188Z</time></trkpt><trkpt lat="44.195122" lon="12.4035239"><ele>5.199999999999999</ele><time>2026-04-18T18:59:12.188Z</time></trkpt><trkpt lat="44.1952081" lon="12.4036251"><ele>5.6</ele><time>2026-04-18T18:59:14.188Z</time></trkpt><trkpt lat="44.1952483" lon="12.4036938"><ele>6.0</ele><time>2026-04-18T18:59:15.188Z</time></trkpt><trkpt lat="44.1952869" lon="12.40377"><ele>6.142857142857142</ele><time>2026-04-18T18:59:16.188Z</time></trkpt><trkpt lat="44.1953289" lon="12.4038532"><ele>6.285714285714286</ele><time>2026-04-18T18:59:17.188Z</time></trkpt><trkpt lat="44.1953696" lon="12.4039391"><ele>6.428571428571429</ele><time>2026-04-18T18:59:18.188Z</time></trkpt><trkpt lat="44.1954106" lon="12.4040207"><ele>6.571428571428571</ele><time>2026-04-18T18:59:19.187Z</time></trkpt><trkpt lat="44.1954483" lon="12.4041016"><ele>6.714285714285714</ele><time>2026-04-18T18:59:20.188Z</time></trkpt><trkpt lat="44.1954883" lon="12.404183"><ele>6.857142857142857</ele><time>2026-04-18T18:59:21.188Z</time></trkpt><trkpt lat="44.1955303" lon="12.4042694"><ele>7.0</ele><time>2026-04-18T18:59:22.188Z</time></trkpt><trkpt lat="44.1955678" lon="12.4043506"><ele>7.000000000000001</ele><time>2026-04-18T18:59:23.188Z</time></trkpt><trkpt lat="44.1956305" lon="12.4044922"><ele>7.0</ele><time>2026-04-18T18:59:25.188Z</time></trkpt><trkpt lat="44.1956791" lon="12.4045884"><ele>7.0</ele><time>2026-04-18T18:59:27.188Z</time></trkpt><trkpt lat="44.1957263" lon="12.4046784"><ele>7.0</ele><time>2026-04-18T18:59:30.188Z</time></trkpt><trkpt lat="44.1958161" lon="12.4046694"><ele>7.000000000000001</ele><time>2026-04-18T18:59:32.187Z</time></trkpt><trkpt lat="44.1958823" lon="12.4046298"><ele>7.0</ele><time>2026-04-18T18:59:33.188Z</time></trkpt><trkpt lat="44.1959563" lon="12.4045765"><ele>6.75</ele><time>2026-04-18T18:59:34.187Z</time></trkpt><trkpt lat="44.1960463" lon="12.4045044"><ele>6.5</ele><time>2026-04-18T18:59:35.188Z</time></trkpt><trkpt lat="44.1961508" lon="12.404426"><ele>6.25</ele><time>2026-04-18T18:59:36.188Z</time></trkpt><trkpt lat="44.1962672" lon="12.4043395"><ele>6.0</ele><time>2026-04-18T18:59:37.188Z</time></trkpt><trkpt lat="44.1963767" lon="12.4042545"><ele>6.0</ele><time>2026-04-18T18:59:38.188Z</time></trkpt><trkpt lat="44.1964877" lon="12.4041736"><ele>6.0</ele><time>2026-04-18T18:59:39.188Z</time></trkpt><trkpt lat="44.1965922" lon="12.4040961"><ele>6.0</ele><time>2026-04-18T18:59:40.188Z</time></trkpt><trkpt lat="44.1966934" lon="12.4040219"><ele>6.0</ele><time>2026-04-18T18:59:41.188Z</time></trkpt><trkpt lat="44.1967883" lon="12.403952"><ele>5.6</ele><time>2026-04-18T18:59:42.188Z</time></trkpt><trkpt lat="44.1968756" lon="12.4038915"><ele>5.199999999999999</ele><time>2026-04-18T18:59:43.188Z</time></trkpt><trkpt lat="44.1969598" lon="12.4038468"><ele>4.800000000000001</ele><time>2026-04-18T18:59:44.188Z</time></trkpt><trkpt lat="44.1970501" lon="12.4038129"><ele>4.4</ele><time>2026-04-18T18:59:45.188Z</time></trkpt><trkpt lat="44.1971394" lon="12.4038024"><ele>4.0</ele><time>2026-04-18T18:59:46.188Z</time></trkpt><trkpt lat="44.1972286" lon="12.4038102"><ele>4.0</ele><time>2026-04-18T18:59:47.188Z</time></trkpt><trkpt lat="44.1973114" lon="12.4038328"><ele>4.0</ele><time>2026-04-18T18:59:48.188Z</time></trkpt><trkpt lat="44.1973824" lon="12.4038556"><ele>4.0</ele><time>2026-04-18T18:59:49.188Z</time></trkpt><trkpt lat="44.1974882" lon="12.4039325"><ele>4.0</ele><time>2026-04-18T18:59:51.188Z</time></trkpt><trkpt lat="44.1975297" lon="12.4040088"><ele>4.0</ele><time>2026-04-18T18:59:52.188Z</time></trkpt><trkpt lat="44.197552" lon="12.4041543"><ele>3.9999999999999996</ele><time>2026-04-18T18:59:54.188Z</time></trkpt><trkpt lat="44.197478" lon="12.4042651"><ele>4.0</ele><time>2026-04-18T18:59:56.188Z</time></trkpt><trkpt lat="44.1974187" lon="12.4043036"><ele>4.0</ele><time>2026-04-18T18:59:57.187Z</time></trkpt><trkpt lat="44.1973346" lon="12.4043676"><ele>4.0</ele><time>2026-04-18T18:59:59.188Z</time></trkpt><trkpt lat="44.1972675" lon="12.4043735"><ele>3.9999999999999996</ele><time>2026-04-18T19:00:02.188Z</time></trkpt><trkpt lat="44.197215" lon="12.4042811"><ele>4.0</ele><time>2026-04-18T19:00:27.188Z</time></trkpt><trkpt lat="44.1971793" lon="12.4041998"><ele>4.0</ele><time>2026-04-18T19:00:31.188Z</time></trkpt><trkpt lat="44.1975322" lon="12.4041974"><ele>4.0</ele><time>2026-04-18T19:00:55.991Z</time></trkpt><trkpt lat="44.1972157" lon="12.4042708"><ele>4.0</ele><time>2026-04-18T19:07:02.187Z</time></trkpt><trkpt lat="44.1972565" lon="12.4043511"><ele>3.9999999999999996</ele><time>2026-04-18T19:07:09.188Z</time></trkpt><trkpt lat="44.1972607" lon="12.4044409"><ele>4.0</ele><time>2026-04-18T19:07:16.188Z</time></trkpt><trkpt lat="44.1972046" lon="12.404487"><ele>4.0</ele><time>2026-04-18T19:07:21.188Z</time></trkpt><trkpt lat="44.1971401" lon="12.4045402"><ele>3.9999999999999996</ele><time>2026-04-18T19:07:26.154Z</time></trkpt><trkpt lat="44.1970759" lon="12.4045869"><ele>4.0</ele><time>2026-04-18T19:07:33.188Z</time></trkpt><trkpt lat="44.197015" lon="12.4046271"><ele>4.0</ele><time>2026-04-18T19:07:38.187Z</time></trkpt><trkpt lat="44.1969552" lon="12.4046636"><ele>4.0</ele><time>2026-04-18T19:07:45.188Z</time></trkpt><trkpt lat="44.1969011" lon="12.4047139"><ele>3.9999999999999996</ele><time>2026-04-18T19:07:51.136Z</time></trkpt><trkpt lat="44.19684" lon="12.4047791"><ele>4.0</ele><time>2026-04-18T19:07:56.188Z</time></trkpt><trkpt lat="44.1967833" lon="12.4048308"><ele>4.0</ele><time>2026-04-18T19:08:01.188Z</time></trkpt><trkpt lat="44.1967287" lon="12.4048758"><ele>3.9999999999999996</ele><time>2026-04-18T19:08:06.118Z</time></trkpt><trkpt lat="44.1966636" lon="12.4049206"><ele>4.0</ele><time>2026-04-18T19:08:11.188Z</time></trkpt><trkpt lat="44.1965981" lon="12.404967"><ele>4.0</ele><time>2026-04-18T19:08:16.188Z</time></trkpt><trkpt lat="44.1965382" lon="12.4050126"><ele>4.142857142857142</ele><time>2026-04-18T19:08:21.188Z</time></trkpt><trkpt lat="44.1964722" lon="12.4050505"><ele>4.285714285714286</ele><time>2026-04-18T19:08:27.105Z</time></trkpt><trkpt lat="44.1964017" lon="12.4050496"><ele>4.428571428571429</ele><time>2026-04-18T19:08:34.188Z</time></trkpt><trkpt lat="44.1963421" lon="12.4051013"><ele>4.571428571428571</ele><time>2026-04-18T19:08:39.188Z</time></trkpt><trkpt lat="44.1962772" lon="12.4051304"><ele>4.714285714285714</ele><time>2026-04-18T19:08:44.188Z</time></trkpt><trkpt lat="44.1962159" lon="12.4051504"><ele>4.857142857142857</ele><time>2026-04-18T19:08:49.188Z</time></trkpt><trkpt lat="44.1962232" lon="12.405047"><ele>5.0</ele><time>2026-04-18T19:09:16.09Z</time></trkpt><trkpt lat="44.1961972" lon="12.4049653"><ele>5.0</ele><time>2026-04-18T19:09:17.188Z</time></trkpt><trkpt lat="44.1961585" lon="12.4048887"><ele>5.0</ele><time>2026-04-18T19:09:21.188Z</time></trkpt><trkpt lat="44.1961524" lon="12.4049813"><ele>5.0</ele><time>2026-04-18T19:09:42.188Z</time></trkpt><trkpt lat="44.1961977" lon="12.4050454"><ele>5.0</ele><time>2026-04-18T19:09:48.188Z</time></trkpt><trkpt lat="44.1962571" lon="12.4050829"><ele>5.0</ele><time>2026-04-18T19:10:35.188Z</time></trkpt><trkpt lat="44.1963098" lon="12.4051469"><ele>5.0</ele><time>2026-04-18T19:11:33.187Z</time></trkpt><trkpt lat="44.1963815" lon="12.4051211"><ele>5.0</ele><time>2026-04-18T19:11:41.188Z</time></trkpt><trkpt lat="44.1964292" lon="12.4050543"><ele>5.0</ele><time>2026-04-18T19:11:50.187Z</time></trkpt><trkpt lat="44.1964873" lon="12.4050158"><ele>5.0</ele><time>2026-04-18T19:11:59.188Z</time></trkpt><trkpt lat="44.1965626" lon="12.4049853"><ele>5.0</ele><time>2026-04-18T19:12:06.188Z</time></trkpt><trkpt lat="44.196621" lon="12.4049524"><ele>5.0</ele><time>2026-04-18T19:12:18.188Z</time></trkpt><trkpt lat="44.1966804" lon="12.4049072"><ele>5.0</ele><time>2026-04-18T19:12:46.187Z</time></trkpt><trkpt lat="44.1967386" lon="12.4048736"><ele>5.0</ele><time>2026-04-18T19:12:51.188Z</time></trkpt><trkpt lat="44.1968028" lon="12.4048283"><ele>5.0</ele><time>2026-04-18T19:12:58.188Z</time></trkpt><trkpt lat="44.1968643" lon="12.4048012"><ele>4.857142857142857</ele><time>2026-04-18T19:13:07.188Z</time></trkpt><trkpt lat="44.1969218" lon="12.4047529"><ele>4.714285714285714</ele><time>2026-04-18T19:13:13.188Z</time></trkpt><trkpt lat="44.1969745" lon="12.4047042"><ele>4.571428571428571</ele><time>2026-04-18T19:13:18.188Z</time></trkpt><trkpt lat="44.1970364" lon="12.404654"><ele>4.428571428571429</ele><time>2026-04-18T19:13:24.091Z</time></trkpt><trkpt lat="44.1970967" lon="12.4046062"><ele>4.285714285714286</ele><time>2026-04-18T19:13:56.188Z</time></trkpt><trkpt lat="44.1971575" lon="12.4045649"><ele>4.142857142857142</ele><time>2026-04-18T19:14:01.188Z</time></trkpt><trkpt lat="44.1972244" lon="12.4045416"><ele>4.0</ele><time>2026-04-18T19:14:08.188Z</time></trkpt><trkpt lat="44.1972876" lon="12.4044994"><ele>4.0</ele><time>2026-04-18T19:14:19.188Z</time></trkpt><trkpt lat="44.1973558" lon="12.4044534"><ele>2.0</ele><time>2026-04-18T19:14:24.188Z</time></trkpt><trkpt lat="44.1974167" lon="12.4044029"><ele>2.0</ele><time>2026-04-18T19:14:30.188Z</time></trkpt><trkpt lat="44.1974757" lon="12.4043454"><ele>2.0</ele><time>2026-04-18T19:14:37.187Z</time></trkpt><trkpt lat="44.1975354" lon="12.4043157"><ele>2.0</ele><time>2026-04-18T19:14:47.188Z</time></trkpt></trkseg></trk></gpx>